<?xml version="1.0" encoding="UTF-8"?>
<gpx version="1.1" creator="https://www.youtrack.es" xsi:schemaLocation="http://www.topografix.com/GPX/1/1 http://www.topografix.com/GPX/1/1/gpx.xsd http://www.garmin.com/xmlschemas/GpxExtensions/v3 http://www.garmin.com/xmlschemas/GpxExtensionsv3.xsd http://www.garmin.com/xmlschemas/TrackPointExtension/v1 http://www.garmin.com/xmlschemas/TrackPointExtensionv1.xsd" xmlns:gpxtpx="http://www.garmin.com/xmlschemas/TrackPointExtension/v1" xmlns:gpxx="http://www.garmin.com/xmlschemas/GpxExtensions/v3" xmlns:xsi="http://www.w3.org/2001/XMLSchema-instance">
  <metadata>
    <link href="https://www.youtrack.es">
      <text>YouTrack.es</text>
    </link>
    <time>2026-05-08T22:47:51Z</time>
  </metadata>
  <trk>
    <src>https://www.youtrack.es</src>
    <link href="https://www.youtrack.es/ruta/26129-volta-btt">
      <text>YouTrack.es</text>
    </link>
    <trkseg>
      <trkpt lat="39.740495" lon="-8.79915">
        <ele>43.3</ele>
        <time>1970-01-01T00:00:00.000Z</time>
      </trkpt>
      <trkpt lat="39.740496" lon="-8.799149">
        <ele>43.2</ele>
        <time>1970-01-01T00:00:01.000Z</time>
      </trkpt>
      <trkpt lat="39.740494" lon="-8.799155">
        <ele>43.2</ele>
        <time>1970-01-01T00:00:02.000Z</time>
      </trkpt>
      <trkpt lat="39.74049" lon="-8.79917">
        <ele>43.2</ele>
        <time>1970-01-01T00:00:03.000Z</time>
      </trkpt>
      <trkpt lat="39.74049" lon="-8.799185">
        <ele>43.2</ele>
        <time>1970-01-01T00:00:04.000Z</time>
      </trkpt>
      <trkpt lat="39.740489" lon="-8.799195">
        <ele>43.2</ele>
        <time>1970-01-01T00:00:05.000Z</time>
      </trkpt>
      <trkpt lat="39.740489" lon="-8.799201">
        <ele>43.2</ele>
        <time>1970-01-01T00:00:06.000Z</time>
      </trkpt>
      <trkpt lat="39.740485" lon="-8.799205">
        <ele>43.2</ele>
        <time>1970-01-01T00:00:07.000Z</time>
      </trkpt>
      <trkpt lat="39.740482" lon="-8.799209">
        <ele>43.2</ele>
        <time>1970-01-01T00:00:08.000Z</time>
      </trkpt>
      <trkpt lat="39.740481" lon="-8.799216">
        <ele>43.2</ele>
        <time>1970-01-01T00:00:09.000Z</time>
      </trkpt>
      <trkpt lat="39.740481" lon="-8.799221">
        <ele>43.2</ele>
        <time>1970-01-01T00:00:10.000Z</time>
      </trkpt>
      <trkpt lat="39.740483" lon="-8.799223">
        <ele>43.2</ele>
        <time>1970-01-01T00:00:11.000Z</time>
      </trkpt>
      <trkpt lat="39.740484" lon="-8.799223">
        <ele>43.2</ele>
        <time>1970-01-01T00:00:12.000Z</time>
      </trkpt>
      <trkpt lat="39.740486" lon="-8.799223">
        <ele>43.2</ele>
        <time>1970-01-01T00:00:13.000Z</time>
      </trkpt>
      <trkpt lat="39.740489" lon="-8.799222">
        <ele>43.2</ele>
        <time>1970-01-01T00:00:14.000Z</time>
      </trkpt>
      <trkpt lat="39.740493" lon="-8.799222">
        <ele>43.2</ele>
        <time>1970-01-01T00:00:15.000Z</time>
      </trkpt>
      <trkpt lat="39.7405" lon="-8.799223">
        <ele>43.2</ele>
        <time>1970-01-01T00:00:16.000Z</time>
      </trkpt>
      <trkpt lat="39.740507" lon="-8.799225">
        <ele>43.2</ele>
        <time>1970-01-01T00:00:17.000Z</time>
      </trkpt>
      <trkpt lat="39.740515" lon="-8.799227">
        <ele>43.2</ele>
        <time>1970-01-01T00:00:18.000Z</time>
      </trkpt>
      <trkpt lat="39.740526" lon="-8.799229">
        <ele>43.2</ele>
        <time>1970-01-01T00:00:19.000Z</time>
      </trkpt>
      <trkpt lat="39.740536" lon="-8.799229">
        <ele>43.2</ele>
        <time>1970-01-01T00:00:20.000Z</time>
      </trkpt>
      <trkpt lat="39.740551" lon="-8.799229">
        <ele>43.2</ele>
        <time>1970-01-01T00:00:21.000Z</time>
      </trkpt>
      <trkpt lat="39.740566" lon="-8.799226">
        <ele>42.6</ele>
        <time>1970-01-01T00:00:22.000Z</time>
      </trkpt>
      <trkpt lat="39.740582" lon="-8.799221">
        <ele>42.7</ele>
        <time>1970-01-01T00:00:23.000Z</time>
      </trkpt>
      <trkpt lat="39.740596" lon="-8.799217">
        <ele>42.7</ele>
        <time>1970-01-01T00:00:24.000Z</time>
      </trkpt>
      <trkpt lat="39.740612" lon="-8.799217">
        <ele>42.7</ele>
        <time>1970-01-01T00:00:25.000Z</time>
      </trkpt>
      <trkpt lat="39.74063" lon="-8.79922">
        <ele>42.7</ele>
        <time>1970-01-01T00:00:26.000Z</time>
      </trkpt>
      <trkpt lat="39.740651" lon="-8.799222">
        <ele>42.7</ele>
        <time>1970-01-01T00:00:27.000Z</time>
      </trkpt>
      <trkpt lat="39.740674" lon="-8.799223">
        <ele>42.8</ele>
        <time>1970-01-01T00:00:28.000Z</time>
      </trkpt>
      <trkpt lat="39.740702" lon="-8.799223">
        <ele>42.8</ele>
        <time>1970-01-01T00:00:29.000Z</time>
      </trkpt>
      <trkpt lat="39.740732" lon="-8.799223">
        <ele>42.9</ele>
        <time>1970-01-01T00:00:30.000Z</time>
      </trkpt>
      <trkpt lat="39.740762" lon="-8.799222">
        <ele>43</ele>
        <time>1970-01-01T00:00:31.000Z</time>
      </trkpt>
      <trkpt lat="39.740792" lon="-8.79922">
        <ele>43</ele>
        <time>1970-01-01T00:00:32.000Z</time>
      </trkpt>
      <trkpt lat="39.74082" lon="-8.799216">
        <ele>43.1</ele>
        <time>1970-01-01T00:00:33.000Z</time>
      </trkpt>
      <trkpt lat="39.740849" lon="-8.79921">
        <ele>43.4</ele>
        <time>1970-01-01T00:00:34.000Z</time>
      </trkpt>
      <trkpt lat="39.740878" lon="-8.799201">
        <ele>43.5</ele>
        <time>1970-01-01T00:00:35.000Z</time>
      </trkpt>
      <trkpt lat="39.740906" lon="-8.799189">
        <ele>43.6</ele>
        <time>1970-01-01T00:00:36.000Z</time>
      </trkpt>
      <trkpt lat="39.740931" lon="-8.799173">
        <ele>43.7</ele>
        <time>1970-01-01T00:00:37.000Z</time>
      </trkpt>
      <trkpt lat="39.740954" lon="-8.799154">
        <ele>43.8</ele>
        <time>1970-01-01T00:00:38.000Z</time>
      </trkpt>
      <trkpt lat="39.740973" lon="-8.799134">
        <ele>43.9</ele>
        <time>1970-01-01T00:00:39.000Z</time>
      </trkpt>
      <trkpt lat="39.74099" lon="-8.79911">
        <ele>44</ele>
        <time>1970-01-01T00:00:39.000Z</time>
      </trkpt>
      <trkpt lat="39.741003" lon="-8.799084">
        <ele>44.1</ele>
        <time>1970-01-01T00:00:40.000Z</time>
      </trkpt>
      <trkpt lat="39.741014" lon="-8.799056">
        <ele>44.2</ele>
        <time>1970-01-01T00:00:41.000Z</time>
      </trkpt>
      <trkpt lat="39.741023" lon="-8.799024">
        <ele>44.2</ele>
        <time>1970-01-01T00:00:42.000Z</time>
      </trkpt>
      <trkpt lat="39.741034" lon="-8.798989">
        <ele>44.3</ele>
        <time>1970-01-01T00:00:43.000Z</time>
      </trkpt>
      <trkpt lat="39.741046" lon="-8.798955">
        <ele>44.4</ele>
        <time>1970-01-01T00:00:45.000Z</time>
      </trkpt>
      <trkpt lat="39.74106" lon="-8.798919">
        <ele>44.5</ele>
        <time>1970-01-01T00:00:46.000Z</time>
      </trkpt>
      <trkpt lat="39.741076" lon="-8.798881">
        <ele>44.5</ele>
        <time>1970-01-01T00:00:46.000Z</time>
      </trkpt>
      <trkpt lat="39.741091" lon="-8.798839">
        <ele>44.5</ele>
        <time>1970-01-01T00:00:47.000Z</time>
      </trkpt>
      <trkpt lat="39.741106" lon="-8.798794">
        <ele>44.5</ele>
        <time>1970-01-01T00:00:48.000Z</time>
      </trkpt>
      <trkpt lat="39.741117" lon="-8.798745">
        <ele>44.5</ele>
        <time>1970-01-01T00:00:49.000Z</time>
      </trkpt>
      <trkpt lat="39.741125" lon="-8.798696">
        <ele>44.5</ele>
        <time>1970-01-01T00:00:51.000Z</time>
      </trkpt>
      <trkpt lat="39.741127" lon="-8.798646">
        <ele>44.4</ele>
        <time>1970-01-01T00:00:51.000Z</time>
      </trkpt>
      <trkpt lat="39.741127" lon="-8.798596">
        <ele>44.4</ele>
        <time>1970-01-01T00:00:52.000Z</time>
      </trkpt>
      <trkpt lat="39.741123" lon="-8.798543">
        <ele>44.3</ele>
        <time>1970-01-01T00:00:53.000Z</time>
      </trkpt>
      <trkpt lat="39.741115" lon="-8.798489">
        <ele>44.3</ele>
        <time>1970-01-01T00:00:54.000Z</time>
      </trkpt>
      <trkpt lat="39.741104" lon="-8.798433">
        <ele>44.2</ele>
        <time>1970-01-01T00:00:55.000Z</time>
      </trkpt>
      <trkpt lat="39.741092" lon="-8.798373">
        <ele>44.1</ele>
        <time>1970-01-01T00:00:56.000Z</time>
      </trkpt>
      <trkpt lat="39.741078" lon="-8.798311">
        <ele>44.1</ele>
        <time>1970-01-01T00:00:58.000Z</time>
      </trkpt>
      <trkpt lat="39.741063" lon="-8.798246">
        <ele>44</ele>
        <time>1970-01-01T00:00:58.000Z</time>
      </trkpt>
      <trkpt lat="39.741047" lon="-8.798181">
        <ele>43.9</ele>
        <time>1970-01-01T00:01:00.000Z</time>
      </trkpt>
      <trkpt lat="39.741029" lon="-8.798113">
        <ele>43.9</ele>
        <time>1970-01-01T00:01:00.000Z</time>
      </trkpt>
      <trkpt lat="39.741012" lon="-8.798045">
        <ele>43.8</ele>
        <time>1970-01-01T00:01:01.000Z</time>
      </trkpt>
      <trkpt lat="39.740993" lon="-8.797975">
        <ele>43.8</ele>
        <time>1970-01-01T00:01:02.000Z</time>
      </trkpt>
      <trkpt lat="39.740973" lon="-8.797904">
        <ele>43.8</ele>
        <time>1970-01-01T00:01:03.000Z</time>
      </trkpt>
      <trkpt lat="39.740957" lon="-8.797838">
        <ele>43.8</ele>
        <time>1970-01-01T00:01:04.000Z</time>
      </trkpt>
      <trkpt lat="39.740943" lon="-8.797765">
        <ele>43.7</ele>
        <time>1970-01-01T00:01:05.000Z</time>
      </trkpt>
      <trkpt lat="39.740931" lon="-8.797692">
        <ele>43.7</ele>
        <time>1970-01-01T00:01:06.000Z</time>
      </trkpt>
      <trkpt lat="39.74092" lon="-8.79762">
        <ele>43.7</ele>
        <time>1970-01-01T00:01:07.000Z</time>
      </trkpt>
      <trkpt lat="39.740911" lon="-8.797549">
        <ele>43.7</ele>
        <time>1970-01-01T00:01:08.000Z</time>
      </trkpt>
      <trkpt lat="39.740906" lon="-8.79748">
        <ele>43.7</ele>
        <time>1970-01-01T00:01:09.000Z</time>
      </trkpt>
      <trkpt lat="39.740905" lon="-8.797416">
        <ele>43.7</ele>
        <time>1970-01-01T00:01:10.000Z</time>
      </trkpt>
      <trkpt lat="39.740906" lon="-8.797345">
        <ele>43.8</ele>
        <time>1970-01-01T00:01:11.000Z</time>
      </trkpt>
      <trkpt lat="39.740908" lon="-8.797276">
        <ele>43.8</ele>
        <time>1970-01-01T00:01:12.000Z</time>
      </trkpt>
      <trkpt lat="39.740912" lon="-8.797207">
        <ele>43.8</ele>
        <time>1970-01-01T00:01:13.000Z</time>
      </trkpt>
      <trkpt lat="39.740918" lon="-8.797138">
        <ele>43.9</ele>
        <time>1970-01-01T00:01:15.000Z</time>
      </trkpt>
      <trkpt lat="39.740923" lon="-8.797075">
        <ele>43.9</ele>
        <time>1970-01-01T00:01:15.000Z</time>
      </trkpt>
      <trkpt lat="39.740931" lon="-8.797006">
        <ele>44</ele>
        <time>1970-01-01T00:01:16.000Z</time>
      </trkpt>
      <trkpt lat="39.740939" lon="-8.796939">
        <ele>44</ele>
        <time>1970-01-01T00:01:17.000Z</time>
      </trkpt>
      <trkpt lat="39.740969" lon="-8.796677">
        <ele>44.2</ele>
        <time>1970-01-01T00:01:19.000Z</time>
      </trkpt>
      <trkpt lat="39.740971" lon="-8.796656">
        <ele>44.2</ele>
        <time>1970-01-01T00:01:20.000Z</time>
      </trkpt>
      <trkpt lat="39.740974" lon="-8.796616">
        <ele>44.3</ele>
        <time>1970-01-01T00:01:21.000Z</time>
      </trkpt>
      <trkpt lat="39.740979" lon="-8.796563">
        <ele>44.3</ele>
        <time>1970-01-01T00:01:22.000Z</time>
      </trkpt>
      <trkpt lat="39.740985" lon="-8.796502">
        <ele>44.4</ele>
        <time>1970-01-01T00:01:23.000Z</time>
      </trkpt>
      <trkpt lat="39.740991" lon="-8.796441">
        <ele>44.4</ele>
        <time>1970-01-01T00:01:24.000Z</time>
      </trkpt>
      <trkpt lat="39.740997" lon="-8.796375">
        <ele>44.4</ele>
        <time>1970-01-01T00:01:25.000Z</time>
      </trkpt>
      <trkpt lat="39.741005" lon="-8.796304">
        <ele>44.5</ele>
        <time>1970-01-01T00:01:26.000Z</time>
      </trkpt>
      <trkpt lat="39.741011" lon="-8.796234">
        <ele>44.6</ele>
        <time>1970-01-01T00:01:27.000Z</time>
      </trkpt>
      <trkpt lat="39.741018" lon="-8.796165">
        <ele>44.6</ele>
        <time>1970-01-01T00:01:28.000Z</time>
      </trkpt>
      <trkpt lat="39.741024" lon="-8.796103">
        <ele>44.6</ele>
        <time>1970-01-01T00:01:29.000Z</time>
      </trkpt>
      <trkpt lat="39.74103" lon="-8.796039">
        <ele>44.7</ele>
        <time>1970-01-01T00:01:30.000Z</time>
      </trkpt>
      <trkpt lat="39.741037" lon="-8.795971">
        <ele>44.8</ele>
        <time>1970-01-01T00:01:31.000Z</time>
      </trkpt>
      <trkpt lat="39.741044" lon="-8.795903">
        <ele>44.8</ele>
        <time>1970-01-01T00:01:33.000Z</time>
      </trkpt>
      <trkpt lat="39.74105" lon="-8.795837">
        <ele>44.9</ele>
        <time>1970-01-01T00:01:33.000Z</time>
      </trkpt>
      <trkpt lat="39.741055" lon="-8.795775">
        <ele>45</ele>
        <time>1970-01-01T00:01:34.000Z</time>
      </trkpt>
      <trkpt lat="39.74106" lon="-8.795712">
        <ele>45</ele>
        <time>1970-01-01T00:01:35.000Z</time>
      </trkpt>
      <trkpt lat="39.741067" lon="-8.795646">
        <ele>45.1</ele>
        <time>1970-01-01T00:01:36.000Z</time>
      </trkpt>
      <trkpt lat="39.741073" lon="-8.795583">
        <ele>45.2</ele>
        <time>1970-01-01T00:01:38.000Z</time>
      </trkpt>
      <trkpt lat="39.74108" lon="-8.795515">
        <ele>45.2</ele>
        <time>1970-01-01T00:01:38.000Z</time>
      </trkpt>
      <trkpt lat="39.741085" lon="-8.795451">
        <ele>45.3</ele>
        <time>1970-01-01T00:01:39.000Z</time>
      </trkpt>
      <trkpt lat="39.741091" lon="-8.795383">
        <ele>45.3</ele>
        <time>1970-01-01T00:01:41.000Z</time>
      </trkpt>
      <trkpt lat="39.741096" lon="-8.795316">
        <ele>45.4</ele>
        <time>1970-01-01T00:01:42.000Z</time>
      </trkpt>
      <trkpt lat="39.741101" lon="-8.79525">
        <ele>45.5</ele>
        <time>1970-01-01T00:01:42.000Z</time>
      </trkpt>
      <trkpt lat="39.741106" lon="-8.795183">
        <ele>45.5</ele>
        <time>1970-01-01T00:01:43.000Z</time>
      </trkpt>
      <trkpt lat="39.741112" lon="-8.795117">
        <ele>45.5</ele>
        <time>1970-01-01T00:01:44.000Z</time>
      </trkpt>
      <trkpt lat="39.741118" lon="-8.795055">
        <ele>45.6</ele>
        <time>1970-01-01T00:01:45.000Z</time>
      </trkpt>
      <trkpt lat="39.741124" lon="-8.79499">
        <ele>45.6</ele>
        <time>1970-01-01T00:01:46.000Z</time>
      </trkpt>
      <trkpt lat="39.741131" lon="-8.794921">
        <ele>45.7</ele>
        <time>1970-01-01T00:01:47.000Z</time>
      </trkpt>
      <trkpt lat="39.741138" lon="-8.794851">
        <ele>45.7</ele>
        <time>1970-01-01T00:01:48.000Z</time>
      </trkpt>
      <trkpt lat="39.741144" lon="-8.794781">
        <ele>45.7</ele>
        <time>1970-01-01T00:01:49.000Z</time>
      </trkpt>
      <trkpt lat="39.74115" lon="-8.794715">
        <ele>45.8</ele>
        <time>1970-01-01T00:01:51.000Z</time>
      </trkpt>
      <trkpt lat="39.741156" lon="-8.794648">
        <ele>45.8</ele>
        <time>1970-01-01T00:01:51.000Z</time>
      </trkpt>
      <trkpt lat="39.741162" lon="-8.794574">
        <ele>45.9</ele>
        <time>1970-01-01T00:01:52.000Z</time>
      </trkpt>
      <trkpt lat="39.741169" lon="-8.794506">
        <ele>45.9</ele>
        <time>1970-01-01T00:01:53.000Z</time>
      </trkpt>
      <trkpt lat="39.741176" lon="-8.794432">
        <ele>46</ele>
        <time>1970-01-01T00:01:54.000Z</time>
      </trkpt>
      <trkpt lat="39.741183" lon="-8.794364">
        <ele>46</ele>
        <time>1970-01-01T00:01:55.000Z</time>
      </trkpt>
      <trkpt lat="39.741191" lon="-8.794293">
        <ele>46</ele>
        <time>1970-01-01T00:01:57.000Z</time>
      </trkpt>
      <trkpt lat="39.741198" lon="-8.794221">
        <ele>46</ele>
        <time>1970-01-01T00:01:57.000Z</time>
      </trkpt>
      <trkpt lat="39.741205" lon="-8.794143">
        <ele>46</ele>
        <time>1970-01-01T00:01:58.000Z</time>
      </trkpt>
      <trkpt lat="39.741212" lon="-8.794067">
        <ele>46</ele>
        <time>1970-01-01T00:02:00.000Z</time>
      </trkpt>
      <trkpt lat="39.741217" lon="-8.793991">
        <ele>45.9</ele>
        <time>1970-01-01T00:02:00.000Z</time>
      </trkpt>
      <trkpt lat="39.74122" lon="-8.793922">
        <ele>45.9</ele>
        <time>1970-01-01T00:02:01.000Z</time>
      </trkpt>
      <trkpt lat="39.741225" lon="-8.793853">
        <ele>45.9</ele>
        <time>1970-01-01T00:02:02.000Z</time>
      </trkpt>
      <trkpt lat="39.74123" lon="-8.793788">
        <ele>45.9</ele>
        <time>1970-01-01T00:02:04.000Z</time>
      </trkpt>
      <trkpt lat="39.741233" lon="-8.793723">
        <ele>45.9</ele>
        <time>1970-01-01T00:02:04.000Z</time>
      </trkpt>
      <trkpt lat="39.741231" lon="-8.793664">
        <ele>45.9</ele>
        <time>1970-01-01T00:02:05.000Z</time>
      </trkpt>
      <trkpt lat="39.741226" lon="-8.793609">
        <ele>45.9</ele>
        <time>1970-01-01T00:02:06.000Z</time>
      </trkpt>
      <trkpt lat="39.741213" lon="-8.793553">
        <ele>45.9</ele>
        <time>1970-01-01T00:02:07.000Z</time>
      </trkpt>
      <trkpt lat="39.741197" lon="-8.793497">
        <ele>45.9</ele>
        <time>1970-01-01T00:02:08.000Z</time>
      </trkpt>
      <trkpt lat="39.741174" lon="-8.793435">
        <ele>45.9</ele>
        <time>1970-01-01T00:02:09.000Z</time>
      </trkpt>
      <trkpt lat="39.74115" lon="-8.793373">
        <ele>45.8</ele>
        <time>1970-01-01T00:02:10.000Z</time>
      </trkpt>
      <trkpt lat="39.741126" lon="-8.793314">
        <ele>45.8</ele>
        <time>1970-01-01T00:02:12.000Z</time>
      </trkpt>
      <trkpt lat="39.741103" lon="-8.793248">
        <ele>45.8</ele>
        <time>1970-01-01T00:02:12.000Z</time>
      </trkpt>
      <trkpt lat="39.741084" lon="-8.793185">
        <ele>45.7</ele>
        <time>1970-01-01T00:02:14.000Z</time>
      </trkpt>
      <trkpt lat="39.741069" lon="-8.793115">
        <ele>45.7</ele>
        <time>1970-01-01T00:02:14.000Z</time>
      </trkpt>
      <trkpt lat="39.741061" lon="-8.79305">
        <ele>45.6</ele>
        <time>1970-01-01T00:02:15.000Z</time>
      </trkpt>
      <trkpt lat="39.741061" lon="-8.792985">
        <ele>45.6</ele>
        <time>1970-01-01T00:02:16.000Z</time>
      </trkpt>
      <trkpt lat="39.741071" lon="-8.79292">
        <ele>45.5</ele>
        <time>1970-01-01T00:02:17.000Z</time>
      </trkpt>
      <trkpt lat="39.74109" lon="-8.792859">
        <ele>45.5</ele>
        <time>1970-01-01T00:02:19.000Z</time>
      </trkpt>
      <trkpt lat="39.741121" lon="-8.792802">
        <ele>45.5</ele>
        <time>1970-01-01T00:02:19.000Z</time>
      </trkpt>
      <trkpt lat="39.741159" lon="-8.792755">
        <ele>45.5</ele>
        <time>1970-01-01T00:02:20.000Z</time>
      </trkpt>
      <trkpt lat="39.741203" lon="-8.792719">
        <ele>45.5</ele>
        <time>1970-01-01T00:02:22.000Z</time>
      </trkpt>
      <trkpt lat="39.741252" lon="-8.792696">
        <ele>45.5</ele>
        <time>1970-01-01T00:02:22.000Z</time>
      </trkpt>
      <trkpt lat="39.741299" lon="-8.792685">
        <ele>45.5</ele>
        <time>1970-01-01T00:02:23.000Z</time>
      </trkpt>
      <trkpt lat="39.741352" lon="-8.79269">
        <ele>45.5</ele>
        <time>1970-01-01T00:02:24.000Z</time>
      </trkpt>
      <trkpt lat="39.741403" lon="-8.792711">
        <ele>45.5</ele>
        <time>1970-01-01T00:02:26.000Z</time>
      </trkpt>
      <trkpt lat="39.74145" lon="-8.792745">
        <ele>45.5</ele>
        <time>1970-01-01T00:02:26.000Z</time>
      </trkpt>
      <trkpt lat="39.741491" lon="-8.792784">
        <ele>45.5</ele>
        <time>1970-01-01T00:02:27.000Z</time>
      </trkpt>
      <trkpt lat="39.741534" lon="-8.792833">
        <ele>45.5</ele>
        <time>1970-01-01T00:02:28.000Z</time>
      </trkpt>
      <trkpt lat="39.741574" lon="-8.792887">
        <ele>45.5</ele>
        <time>1970-01-01T00:02:29.000Z</time>
      </trkpt>
      <trkpt lat="39.741612" lon="-8.792944">
        <ele>45.6</ele>
        <time>1970-01-01T00:02:30.000Z</time>
      </trkpt>
      <trkpt lat="39.74165" lon="-8.793003">
        <ele>45.6</ele>
        <time>1970-01-01T00:02:31.000Z</time>
      </trkpt>
      <trkpt lat="39.741686" lon="-8.793057">
        <ele>45.7</ele>
        <time>1970-01-01T00:02:32.000Z</time>
      </trkpt>
      <trkpt lat="39.741723" lon="-8.793108">
        <ele>45.8</ele>
        <time>1970-01-01T00:02:33.000Z</time>
      </trkpt>
      <trkpt lat="39.741766" lon="-8.793157">
        <ele>45.8</ele>
        <time>1970-01-01T00:02:34.000Z</time>
      </trkpt>
      <trkpt lat="39.741807" lon="-8.793198">
        <ele>45.9</ele>
        <time>1970-01-01T00:02:35.000Z</time>
      </trkpt>
      <trkpt lat="39.741852" lon="-8.793237">
        <ele>46.1</ele>
        <time>1970-01-01T00:02:36.000Z</time>
      </trkpt>
      <trkpt lat="39.741895" lon="-8.79327">
        <ele>46.2</ele>
        <time>1970-01-01T00:02:37.000Z</time>
      </trkpt>
      <trkpt lat="39.741938" lon="-8.793303">
        <ele>46.4</ele>
        <time>1970-01-01T00:02:38.000Z</time>
      </trkpt>
      <trkpt lat="39.741981" lon="-8.793333">
        <ele>46.5</ele>
        <time>1970-01-01T00:02:39.000Z</time>
      </trkpt>
      <trkpt lat="39.742023" lon="-8.793362">
        <ele>46.6</ele>
        <time>1970-01-01T00:02:40.000Z</time>
      </trkpt>
      <trkpt lat="39.742064" lon="-8.793391">
        <ele>46.8</ele>
        <time>1970-01-01T00:02:41.000Z</time>
      </trkpt>
      <trkpt lat="39.742106" lon="-8.793417">
        <ele>46.9</ele>
        <time>1970-01-01T00:02:42.000Z</time>
      </trkpt>
      <trkpt lat="39.742148" lon="-8.79344">
        <ele>47.1</ele>
        <time>1970-01-01T00:02:43.000Z</time>
      </trkpt>
      <trkpt lat="39.742191" lon="-8.793461">
        <ele>47.3</ele>
        <time>1970-01-01T00:02:44.000Z</time>
      </trkpt>
      <trkpt lat="39.742234" lon="-8.793478">
        <ele>47.5</ele>
        <time>1970-01-01T00:02:45.000Z</time>
      </trkpt>
      <trkpt lat="39.742279" lon="-8.79349">
        <ele>47.7</ele>
        <time>1970-01-01T00:02:47.000Z</time>
      </trkpt>
      <trkpt lat="39.742324" lon="-8.793499">
        <ele>47.9</ele>
        <time>1970-01-01T00:02:47.000Z</time>
      </trkpt>
      <trkpt lat="39.74237" lon="-8.793503">
        <ele>48.2</ele>
        <time>1970-01-01T00:02:48.000Z</time>
      </trkpt>
      <trkpt lat="39.742414" lon="-8.793505">
        <ele>48.3</ele>
        <time>1970-01-01T00:02:49.000Z</time>
      </trkpt>
      <trkpt lat="39.742461" lon="-8.793504">
        <ele>48.5</ele>
        <time>1970-01-01T00:02:50.000Z</time>
      </trkpt>
      <trkpt lat="39.742508" lon="-8.793501">
        <ele>48.8</ele>
        <time>1970-01-01T00:02:51.000Z</time>
      </trkpt>
      <trkpt lat="39.742554" lon="-8.793498">
        <ele>49</ele>
        <time>1970-01-01T00:02:52.000Z</time>
      </trkpt>
      <trkpt lat="39.742602" lon="-8.793492">
        <ele>49.2</ele>
        <time>1970-01-01T00:02:53.000Z</time>
      </trkpt>
      <trkpt lat="39.742648" lon="-8.793484">
        <ele>49.4</ele>
        <time>1970-01-01T00:02:54.000Z</time>
      </trkpt>
      <trkpt lat="39.742692" lon="-8.793472">
        <ele>49.7</ele>
        <time>1970-01-01T00:02:55.000Z</time>
      </trkpt>
      <trkpt lat="39.742737" lon="-8.793457">
        <ele>49.9</ele>
        <time>1970-01-01T00:02:56.000Z</time>
      </trkpt>
      <trkpt lat="39.742777" lon="-8.793439">
        <ele>50.2</ele>
        <time>1970-01-01T00:02:57.000Z</time>
      </trkpt>
      <trkpt lat="39.742819" lon="-8.793413">
        <ele>50.5</ele>
        <time>1970-01-01T00:02:58.000Z</time>
      </trkpt>
      <trkpt lat="39.742957" lon="-8.793261">
        <ele>51.8</ele>
        <time>1970-01-01T00:03:00.000Z</time>
      </trkpt>
      <trkpt lat="39.742967" lon="-8.793226">
        <ele>51.9</ele>
        <time>1970-01-01T00:03:02.000Z</time>
      </trkpt>
      <trkpt lat="39.742969" lon="-8.793219">
        <ele>51.9</ele>
        <time>1970-01-01T00:03:02.000Z</time>
      </trkpt>
      <trkpt lat="39.742978" lon="-8.793183">
        <ele>52</ele>
        <time>1970-01-01T00:03:03.000Z</time>
      </trkpt>
      <trkpt lat="39.742988" lon="-8.793137">
        <ele>52.1</ele>
        <time>1970-01-01T00:03:04.000Z</time>
      </trkpt>
      <trkpt lat="39.742999" lon="-8.793087">
        <ele>52.3</ele>
        <time>1970-01-01T00:03:05.000Z</time>
      </trkpt>
      <trkpt lat="39.743011" lon="-8.793034">
        <ele>52.4</ele>
        <time>1970-01-01T00:03:06.000Z</time>
      </trkpt>
      <trkpt lat="39.743023" lon="-8.792982">
        <ele>52.6</ele>
        <time>1970-01-01T00:03:07.000Z</time>
      </trkpt>
      <trkpt lat="39.743036" lon="-8.792929">
        <ele>52.7</ele>
        <time>1970-01-01T00:03:09.000Z</time>
      </trkpt>
      <trkpt lat="39.743046" lon="-8.792879">
        <ele>52.9</ele>
        <time>1970-01-01T00:03:09.000Z</time>
      </trkpt>
      <trkpt lat="39.743058" lon="-8.792825">
        <ele>53.1</ele>
        <time>1970-01-01T00:03:10.000Z</time>
      </trkpt>
      <trkpt lat="39.743069" lon="-8.792772">
        <ele>53.4</ele>
        <time>1970-01-01T00:03:11.000Z</time>
      </trkpt>
      <trkpt lat="39.74308" lon="-8.79272">
        <ele>53.7</ele>
        <time>1970-01-01T00:03:12.000Z</time>
      </trkpt>
      <trkpt lat="39.743092" lon="-8.79267">
        <ele>54</ele>
        <time>1970-01-01T00:03:14.000Z</time>
      </trkpt>
      <trkpt lat="39.743103" lon="-8.792622">
        <ele>54.3</ele>
        <time>1970-01-01T00:03:14.000Z</time>
      </trkpt>
      <trkpt lat="39.743113" lon="-8.792574">
        <ele>54.7</ele>
        <time>1970-01-01T00:03:15.000Z</time>
      </trkpt>
      <trkpt lat="39.743122" lon="-8.792527">
        <ele>55</ele>
        <time>1970-01-01T00:03:16.000Z</time>
      </trkpt>
      <trkpt lat="39.743133" lon="-8.792481">
        <ele>55.3</ele>
        <time>1970-01-01T00:03:17.000Z</time>
      </trkpt>
      <trkpt lat="39.743144" lon="-8.792434">
        <ele>55.6</ele>
        <time>1970-01-01T00:03:18.000Z</time>
      </trkpt>
      <trkpt lat="39.743155" lon="-8.792387">
        <ele>55.9</ele>
        <time>1970-01-01T00:03:19.000Z</time>
      </trkpt>
      <trkpt lat="39.743168" lon="-8.79234">
        <ele>56.3</ele>
        <time>1970-01-01T00:03:20.000Z</time>
      </trkpt>
      <trkpt lat="39.74318" lon="-8.792295">
        <ele>56.6</ele>
        <time>1970-01-01T00:03:21.000Z</time>
      </trkpt>
      <trkpt lat="39.743192" lon="-8.792249">
        <ele>56.9</ele>
        <time>1970-01-01T00:03:23.000Z</time>
      </trkpt>
      <trkpt lat="39.743206" lon="-8.792203">
        <ele>57</ele>
        <time>1970-01-01T00:03:24.000Z</time>
      </trkpt>
      <trkpt lat="39.743224" lon="-8.792158">
        <ele>57.1</ele>
        <time>1970-01-01T00:03:24.000Z</time>
      </trkpt>
      <trkpt lat="39.743241" lon="-8.792116">
        <ele>57.4</ele>
        <time>1970-01-01T00:03:25.000Z</time>
      </trkpt>
      <trkpt lat="39.743261" lon="-8.79207">
        <ele>57.6</ele>
        <time>1970-01-01T00:03:26.000Z</time>
      </trkpt>
      <trkpt lat="39.743283" lon="-8.792027">
        <ele>57.9</ele>
        <time>1970-01-01T00:03:28.000Z</time>
      </trkpt>
      <trkpt lat="39.743306" lon="-8.791984">
        <ele>58.1</ele>
        <time>1970-01-01T00:03:28.000Z</time>
      </trkpt>
      <trkpt lat="39.74333" lon="-8.791943">
        <ele>58.4</ele>
        <time>1970-01-01T00:03:30.000Z</time>
      </trkpt>
      <trkpt lat="39.743353" lon="-8.791904">
        <ele>58.7</ele>
        <time>1970-01-01T00:03:30.000Z</time>
      </trkpt>
      <trkpt lat="39.743376" lon="-8.791868">
        <ele>58.9</ele>
        <time>1970-01-01T00:03:31.000Z</time>
      </trkpt>
      <trkpt lat="39.743399" lon="-8.791834">
        <ele>59.1</ele>
        <time>1970-01-01T00:03:32.000Z</time>
      </trkpt>
      <trkpt lat="39.743422" lon="-8.791802">
        <ele>59.3</ele>
        <time>1970-01-01T00:03:33.000Z</time>
      </trkpt>
      <trkpt lat="39.743444" lon="-8.79177">
        <ele>59.5</ele>
        <time>1970-01-01T00:03:34.000Z</time>
      </trkpt>
      <trkpt lat="39.743466" lon="-8.791738">
        <ele>59.7</ele>
        <time>1970-01-01T00:03:35.000Z</time>
      </trkpt>
      <trkpt lat="39.743499" lon="-8.791689">
        <ele>59.9</ele>
        <time>1970-01-01T00:03:37.000Z</time>
      </trkpt>
      <trkpt lat="39.743509" lon="-8.791672">
        <ele>60</ele>
        <time>1970-01-01T00:03:37.000Z</time>
      </trkpt>
      <trkpt lat="39.743526" lon="-8.791636">
        <ele>60.2</ele>
        <time>1970-01-01T00:03:38.000Z</time>
      </trkpt>
      <trkpt lat="39.743539" lon="-8.791599">
        <ele>60.3</ele>
        <time>1970-01-01T00:03:39.000Z</time>
      </trkpt>
      <trkpt lat="39.743549" lon="-8.791541">
        <ele>60.5</ele>
        <time>1970-01-01T00:03:41.000Z</time>
      </trkpt>
      <trkpt lat="39.74355" lon="-8.791521">
        <ele>60.6</ele>
        <time>1970-01-01T00:03:41.000Z</time>
      </trkpt>
      <trkpt lat="39.743542" lon="-8.791461">
        <ele>60.7</ele>
        <time>1970-01-01T00:03:43.000Z</time>
      </trkpt>
      <trkpt lat="39.743538" lon="-8.791442">
        <ele>60.8</ele>
        <time>1970-01-01T00:03:43.000Z</time>
      </trkpt>
      <trkpt lat="39.743524" lon="-8.791406">
        <ele>60.9</ele>
        <time>1970-01-01T00:03:44.000Z</time>
      </trkpt>
      <trkpt lat="39.743506" lon="-8.791371">
        <ele>60.9</ele>
        <time>1970-01-01T00:03:45.000Z</time>
      </trkpt>
      <trkpt lat="39.743487" lon="-8.791337">
        <ele>60.9</ele>
        <time>1970-01-01T00:03:46.000Z</time>
      </trkpt>
      <trkpt lat="39.743458" lon="-8.791282">
        <ele>60.9</ele>
        <time>1970-01-01T00:03:48.000Z</time>
      </trkpt>
      <trkpt lat="39.743448" lon="-8.791264">
        <ele>60.9</ele>
        <time>1970-01-01T00:03:48.000Z</time>
      </trkpt>
      <trkpt lat="39.743428" lon="-8.791226">
        <ele>60.9</ele>
        <time>1970-01-01T00:03:49.000Z</time>
      </trkpt>
      <trkpt lat="39.743409" lon="-8.791186">
        <ele>60.9</ele>
        <time>1970-01-01T00:03:50.000Z</time>
      </trkpt>
      <trkpt lat="39.74339" lon="-8.791143">
        <ele>61</ele>
        <time>1970-01-01T00:03:51.000Z</time>
      </trkpt>
      <trkpt lat="39.743372" lon="-8.791096">
        <ele>61</ele>
        <time>1970-01-01T00:03:52.000Z</time>
      </trkpt>
      <trkpt lat="39.743355" lon="-8.791045">
        <ele>61</ele>
        <time>1970-01-01T00:03:53.000Z</time>
      </trkpt>
      <trkpt lat="39.743342" lon="-8.79099">
        <ele>60.9</ele>
        <time>1970-01-01T00:03:54.000Z</time>
      </trkpt>
      <trkpt lat="39.743333" lon="-8.79093">
        <ele>60.8</ele>
        <time>1970-01-01T00:03:55.000Z</time>
      </trkpt>
      <trkpt lat="39.743328" lon="-8.790868">
        <ele>60.8</ele>
        <time>1970-01-01T00:03:56.000Z</time>
      </trkpt>
      <trkpt lat="39.743328" lon="-8.790803">
        <ele>60.6</ele>
        <time>1970-01-01T00:03:58.000Z</time>
      </trkpt>
      <trkpt lat="39.743335" lon="-8.790729">
        <ele>60.4</ele>
        <time>1970-01-01T00:03:58.000Z</time>
      </trkpt>
      <trkpt lat="39.743348" lon="-8.790655">
        <ele>60.3</ele>
        <time>1970-01-01T00:03:59.000Z</time>
      </trkpt>
      <trkpt lat="39.743367" lon="-8.790582">
        <ele>60</ele>
        <time>1970-01-01T00:04:00.000Z</time>
      </trkpt>
      <trkpt lat="39.743391" lon="-8.790507">
        <ele>59.8</ele>
        <time>1970-01-01T00:04:01.000Z</time>
      </trkpt>
      <trkpt lat="39.743421" lon="-8.790431">
        <ele>59.6</ele>
        <time>1970-01-01T00:04:02.000Z</time>
      </trkpt>
      <trkpt lat="39.743452" lon="-8.790356">
        <ele>59.3</ele>
        <time>1970-01-01T00:04:03.000Z</time>
      </trkpt>
      <trkpt lat="39.743486" lon="-8.790276">
        <ele>59.2</ele>
        <time>1970-01-01T00:04:04.000Z</time>
      </trkpt>
      <trkpt lat="39.74352" lon="-8.790206">
        <ele>59.1</ele>
        <time>1970-01-01T00:04:06.000Z</time>
      </trkpt>
      <trkpt lat="39.743553" lon="-8.790133">
        <ele>58.9</ele>
        <time>1970-01-01T00:04:06.000Z</time>
      </trkpt>
      <trkpt lat="39.743587" lon="-8.790057">
        <ele>58.5</ele>
        <time>1970-01-01T00:04:07.000Z</time>
      </trkpt>
      <trkpt lat="39.743616" lon="-8.789985">
        <ele>58</ele>
        <time>1970-01-01T00:04:08.000Z</time>
      </trkpt>
      <trkpt lat="39.743645" lon="-8.789911">
        <ele>57.3</ele>
        <time>1970-01-01T00:04:09.000Z</time>
      </trkpt>
      <trkpt lat="39.743676" lon="-8.789832">
        <ele>56.4</ele>
        <time>1970-01-01T00:04:11.000Z</time>
      </trkpt>
      <trkpt lat="39.743711" lon="-8.789746">
        <ele>55.4</ele>
        <time>1970-01-01T00:04:11.000Z</time>
      </trkpt>
      <trkpt lat="39.743751" lon="-8.789658">
        <ele>54.3</ele>
        <time>1970-01-01T00:04:12.000Z</time>
      </trkpt>
      <trkpt lat="39.743797" lon="-8.789559">
        <ele>53.2</ele>
        <time>1970-01-01T00:04:13.000Z</time>
      </trkpt>
      <trkpt lat="39.743843" lon="-8.78946">
        <ele>52.2</ele>
        <time>1970-01-01T00:04:14.000Z</time>
      </trkpt>
      <trkpt lat="39.743886" lon="-8.789361">
        <ele>51.4</ele>
        <time>1970-01-01T00:04:15.000Z</time>
      </trkpt>
      <trkpt lat="39.743926" lon="-8.78926">
        <ele>50.8</ele>
        <time>1970-01-01T00:04:17.000Z</time>
      </trkpt>
      <trkpt lat="39.743959" lon="-8.789166">
        <ele>50.3</ele>
        <time>1970-01-01T00:04:17.000Z</time>
      </trkpt>
      <trkpt lat="39.743984" lon="-8.789063">
        <ele>49.9</ele>
        <time>1970-01-01T00:04:18.000Z</time>
      </trkpt>
      <trkpt lat="39.743999" lon="-8.788958">
        <ele>49.6</ele>
        <time>1970-01-01T00:04:19.000Z</time>
      </trkpt>
      <trkpt lat="39.744008" lon="-8.788844">
        <ele>49.4</ele>
        <time>1970-01-01T00:04:20.000Z</time>
      </trkpt>
      <trkpt lat="39.744009" lon="-8.788435">
        <ele>50.7</ele>
        <time>1970-01-01T00:04:23.000Z</time>
      </trkpt>
      <trkpt lat="39.744009" lon="-8.788419">
        <ele>50.8</ele>
        <time>1970-01-01T00:04:23.000Z</time>
      </trkpt>
      <trkpt lat="39.74401" lon="-8.788389">
        <ele>50.9</ele>
        <time>1970-01-01T00:04:25.000Z</time>
      </trkpt>
      <trkpt lat="39.744021" lon="-8.788339">
        <ele>51.3</ele>
        <time>1970-01-01T00:04:26.000Z</time>
      </trkpt>
      <trkpt lat="39.744036" lon="-8.78829">
        <ele>51.6</ele>
        <time>1970-01-01T00:04:27.000Z</time>
      </trkpt>
      <trkpt lat="39.744056" lon="-8.788242">
        <ele>51.9</ele>
        <time>1970-01-01T00:04:28.000Z</time>
      </trkpt>
      <trkpt lat="39.74408" lon="-8.788199">
        <ele>52.1</ele>
        <time>1970-01-01T00:04:29.000Z</time>
      </trkpt>
      <trkpt lat="39.744105" lon="-8.788159">
        <ele>52.4</ele>
        <time>1970-01-01T00:04:30.000Z</time>
      </trkpt>
      <trkpt lat="39.744131" lon="-8.788122">
        <ele>52.5</ele>
        <time>1970-01-01T00:04:31.000Z</time>
      </trkpt>
      <trkpt lat="39.744158" lon="-8.788088">
        <ele>52.7</ele>
        <time>1970-01-01T00:04:32.000Z</time>
      </trkpt>
      <trkpt lat="39.744177" lon="-8.788062">
        <ele>52.7</ele>
        <time>1970-01-01T00:04:33.000Z</time>
      </trkpt>
      <trkpt lat="39.744193" lon="-8.788041">
        <ele>52.8</ele>
        <time>1970-01-01T00:04:34.000Z</time>
      </trkpt>
      <trkpt lat="39.744267" lon="-8.787985">
        <ele>52.9</ele>
        <time>1970-01-01T00:04:36.000Z</time>
      </trkpt>
      <trkpt lat="39.744278" lon="-8.787987">
        <ele>52.9</ele>
        <time>1970-01-01T00:04:37.000Z</time>
      </trkpt>
      <trkpt lat="39.744304" lon="-8.787987">
        <ele>52.9</ele>
        <time>1970-01-01T00:04:38.000Z</time>
      </trkpt>
      <trkpt lat="39.744339" lon="-8.787983">
        <ele>53</ele>
        <time>1970-01-01T00:04:39.000Z</time>
      </trkpt>
      <trkpt lat="39.744381" lon="-8.787976">
        <ele>53</ele>
        <time>1970-01-01T00:04:40.000Z</time>
      </trkpt>
      <trkpt lat="39.744427" lon="-8.787966">
        <ele>52.9</ele>
        <time>1970-01-01T00:04:41.000Z</time>
      </trkpt>
      <trkpt lat="39.744476" lon="-8.787955">
        <ele>52.9</ele>
        <time>1970-01-01T00:04:42.000Z</time>
      </trkpt>
      <trkpt lat="39.744525" lon="-8.787946">
        <ele>52.8</ele>
        <time>1970-01-01T00:04:43.000Z</time>
      </trkpt>
      <trkpt lat="39.744576" lon="-8.787938">
        <ele>52.6</ele>
        <time>1970-01-01T00:04:44.000Z</time>
      </trkpt>
      <trkpt lat="39.74463" lon="-8.787929">
        <ele>52.5</ele>
        <time>1970-01-01T00:04:45.000Z</time>
      </trkpt>
      <trkpt lat="39.744686" lon="-8.787919">
        <ele>52.3</ele>
        <time>1970-01-01T00:04:46.000Z</time>
      </trkpt>
      <trkpt lat="39.744743" lon="-8.787905">
        <ele>52</ele>
        <time>1970-01-01T00:04:48.000Z</time>
      </trkpt>
      <trkpt lat="39.744801" lon="-8.787888">
        <ele>51.8</ele>
        <time>1970-01-01T00:04:48.000Z</time>
      </trkpt>
      <trkpt lat="39.74486" lon="-8.787867">
        <ele>51.5</ele>
        <time>1970-01-01T00:04:49.000Z</time>
      </trkpt>
      <trkpt lat="39.74492" lon="-8.787839">
        <ele>51.2</ele>
        <time>1970-01-01T00:04:50.000Z</time>
      </trkpt>
      <trkpt lat="39.744981" lon="-8.787804">
        <ele>50.9</ele>
        <time>1970-01-01T00:04:51.000Z</time>
      </trkpt>
      <trkpt lat="39.745041" lon="-8.787763">
        <ele>50.6</ele>
        <time>1970-01-01T00:04:52.000Z</time>
      </trkpt>
      <trkpt lat="39.745101" lon="-8.787719">
        <ele>50.3</ele>
        <time>1970-01-01T00:04:53.000Z</time>
      </trkpt>
      <trkpt lat="39.745161" lon="-8.787673">
        <ele>50.1</ele>
        <time>1970-01-01T00:04:54.000Z</time>
      </trkpt>
      <trkpt lat="39.745219" lon="-8.787617">
        <ele>49.9</ele>
        <time>1970-01-01T00:04:56.000Z</time>
      </trkpt>
      <trkpt lat="39.745265" lon="-8.787562">
        <ele>49.7</ele>
        <time>1970-01-01T00:04:56.000Z</time>
      </trkpt>
      <trkpt lat="39.745302" lon="-8.787504">
        <ele>49.6</ele>
        <time>1970-01-01T00:04:57.000Z</time>
      </trkpt>
      <trkpt lat="39.745329" lon="-8.787438">
        <ele>49.6</ele>
        <time>1970-01-01T00:04:58.000Z</time>
      </trkpt>
      <trkpt lat="39.745342" lon="-8.787144">
        <ele>49.5</ele>
        <time>1970-01-01T00:05:01.000Z</time>
      </trkpt>
      <trkpt lat="39.745331" lon="-8.78712">
        <ele>49.5</ele>
        <time>1970-01-01T00:05:01.000Z</time>
      </trkpt>
      <trkpt lat="39.74531" lon="-8.787081">
        <ele>49.5</ele>
        <time>1970-01-01T00:05:02.000Z</time>
      </trkpt>
      <trkpt lat="39.745283" lon="-8.787034">
        <ele>49.5</ele>
        <time>1970-01-01T00:05:03.000Z</time>
      </trkpt>
      <trkpt lat="39.745256" lon="-8.786991">
        <ele>49.6</ele>
        <time>1970-01-01T00:05:04.000Z</time>
      </trkpt>
      <trkpt lat="39.745223" lon="-8.786942">
        <ele>49.6</ele>
        <time>1970-01-01T00:05:06.000Z</time>
      </trkpt>
      <trkpt lat="39.745188" lon="-8.786891">
        <ele>49.6</ele>
        <time>1970-01-01T00:05:06.000Z</time>
      </trkpt>
      <trkpt lat="39.745154" lon="-8.786841">
        <ele>49.7</ele>
        <time>1970-01-01T00:05:07.000Z</time>
      </trkpt>
      <trkpt lat="39.745124" lon="-8.786796">
        <ele>49.8</ele>
        <time>1970-01-01T00:05:09.000Z</time>
      </trkpt>
      <trkpt lat="39.7451" lon="-8.786752">
        <ele>50</ele>
        <time>1970-01-01T00:05:09.000Z</time>
      </trkpt>
      <trkpt lat="39.74508" lon="-8.78671">
        <ele>50.1</ele>
        <time>1970-01-01T00:05:10.000Z</time>
      </trkpt>
      <trkpt lat="39.745066" lon="-8.786668">
        <ele>50.3</ele>
        <time>1970-01-01T00:05:11.000Z</time>
      </trkpt>
      <trkpt lat="39.745057" lon="-8.786627">
        <ele>50.4</ele>
        <time>1970-01-01T00:05:12.000Z</time>
      </trkpt>
      <trkpt lat="39.745055" lon="-8.786586">
        <ele>50.9</ele>
        <time>1970-01-01T00:05:13.000Z</time>
      </trkpt>
      <trkpt lat="39.745059" lon="-8.786547">
        <ele>51.2</ele>
        <time>1970-01-01T00:05:14.000Z</time>
      </trkpt>
      <trkpt lat="39.745066" lon="-8.786509">
        <ele>51.5</ele>
        <time>1970-01-01T00:05:15.000Z</time>
      </trkpt>
      <trkpt lat="39.745076" lon="-8.786471">
        <ele>51.8</ele>
        <time>1970-01-01T00:05:16.000Z</time>
      </trkpt>
      <trkpt lat="39.745088" lon="-8.786431">
        <ele>52.1</ele>
        <time>1970-01-01T00:05:17.000Z</time>
      </trkpt>
      <trkpt lat="39.745101" lon="-8.786391">
        <ele>52.4</ele>
        <time>1970-01-01T00:05:18.000Z</time>
      </trkpt>
      <trkpt lat="39.745124" lon="-8.786331">
        <ele>52.7</ele>
        <time>1970-01-01T00:05:20.000Z</time>
      </trkpt>
      <trkpt lat="39.745131" lon="-8.786311">
        <ele>52.8</ele>
        <time>1970-01-01T00:05:20.000Z</time>
      </trkpt>
      <trkpt lat="39.745149" lon="-8.786271">
        <ele>53</ele>
        <time>1970-01-01T00:05:21.000Z</time>
      </trkpt>
      <trkpt lat="39.745167" lon="-8.786234">
        <ele>53.1</ele>
        <time>1970-01-01T00:05:22.000Z</time>
      </trkpt>
      <trkpt lat="39.745184" lon="-8.786195">
        <ele>53.2</ele>
        <time>1970-01-01T00:05:23.000Z</time>
      </trkpt>
      <trkpt lat="39.745213" lon="-8.786138">
        <ele>53.4</ele>
        <time>1970-01-01T00:05:25.000Z</time>
      </trkpt>
      <trkpt lat="39.745223" lon="-8.786118">
        <ele>53.4</ele>
        <time>1970-01-01T00:05:25.000Z</time>
      </trkpt>
      <trkpt lat="39.745243" lon="-8.78608">
        <ele>53.4</ele>
        <time>1970-01-01T00:05:26.000Z</time>
      </trkpt>
      <trkpt lat="39.745263" lon="-8.786042">
        <ele>53.4</ele>
        <time>1970-01-01T00:05:27.000Z</time>
      </trkpt>
      <trkpt lat="39.745281" lon="-8.786003">
        <ele>53.4</ele>
        <time>1970-01-01T00:05:28.000Z</time>
      </trkpt>
      <trkpt lat="39.7453" lon="-8.785963">
        <ele>53.4</ele>
        <time>1970-01-01T00:05:29.000Z</time>
      </trkpt>
      <trkpt lat="39.745319" lon="-8.78592">
        <ele>53.3</ele>
        <time>1970-01-01T00:05:30.000Z</time>
      </trkpt>
      <trkpt lat="39.745338" lon="-8.785877">
        <ele>53.2</ele>
        <time>1970-01-01T00:05:31.000Z</time>
      </trkpt>
      <trkpt lat="39.74536" lon="-8.785832">
        <ele>53.1</ele>
        <time>1970-01-01T00:05:32.000Z</time>
      </trkpt>
      <trkpt lat="39.745382" lon="-8.785789">
        <ele>53</ele>
        <time>1970-01-01T00:05:34.000Z</time>
      </trkpt>
      <trkpt lat="39.745403" lon="-8.785744">
        <ele>52.9</ele>
        <time>1970-01-01T00:05:34.000Z</time>
      </trkpt>
      <trkpt lat="39.745425" lon="-8.785696">
        <ele>52.8</ele>
        <time>1970-01-01T00:05:35.000Z</time>
      </trkpt>
      <trkpt lat="39.745446" lon="-8.785645">
        <ele>52.6</ele>
        <time>1970-01-01T00:05:36.000Z</time>
      </trkpt>
      <trkpt lat="39.745467" lon="-8.785594">
        <ele>52.5</ele>
        <time>1970-01-01T00:05:37.000Z</time>
      </trkpt>
      <trkpt lat="39.74549" lon="-8.785542">
        <ele>52.4</ele>
        <time>1970-01-01T00:05:38.000Z</time>
      </trkpt>
      <trkpt lat="39.745514" lon="-8.785488">
        <ele>52.3</ele>
        <time>1970-01-01T00:05:39.000Z</time>
      </trkpt>
      <trkpt lat="39.745537" lon="-8.785436">
        <ele>52.2</ele>
        <time>1970-01-01T00:05:41.000Z</time>
      </trkpt>
      <trkpt lat="39.745561" lon="-8.785387">
        <ele>52.1</ele>
        <time>1970-01-01T00:05:41.000Z</time>
      </trkpt>
      <trkpt lat="39.745586" lon="-8.78534">
        <ele>52.1</ele>
        <time>1970-01-01T00:05:42.000Z</time>
      </trkpt>
      <trkpt lat="39.745614" lon="-8.785293">
        <ele>52.1</ele>
        <time>1970-01-01T00:05:43.000Z</time>
      </trkpt>
      <trkpt lat="39.745646" lon="-8.785246">
        <ele>52</ele>
        <time>1970-01-01T00:05:44.000Z</time>
      </trkpt>
      <trkpt lat="39.745677" lon="-8.785202">
        <ele>52</ele>
        <time>1970-01-01T00:05:46.000Z</time>
      </trkpt>
      <trkpt lat="39.745707" lon="-8.785162">
        <ele>52</ele>
        <time>1970-01-01T00:05:46.000Z</time>
      </trkpt>
      <trkpt lat="39.74574" lon="-8.785124">
        <ele>51.9</ele>
        <time>1970-01-01T00:05:47.000Z</time>
      </trkpt>
      <trkpt lat="39.745773" lon="-8.785086">
        <ele>51.9</ele>
        <time>1970-01-01T00:05:48.000Z</time>
      </trkpt>
      <trkpt lat="39.745803" lon="-8.785047">
        <ele>51.9</ele>
        <time>1970-01-01T00:05:49.000Z</time>
      </trkpt>
      <trkpt lat="39.745832" lon="-8.785005">
        <ele>51.9</ele>
        <time>1970-01-01T00:05:51.000Z</time>
      </trkpt>
      <trkpt lat="39.745858" lon="-8.784964">
        <ele>51.9</ele>
        <time>1970-01-01T00:05:51.000Z</time>
      </trkpt>
      <trkpt lat="39.745886" lon="-8.784916">
        <ele>51.9</ele>
        <time>1970-01-01T00:05:52.000Z</time>
      </trkpt>
      <trkpt lat="39.745911" lon="-8.784866">
        <ele>51.9</ele>
        <time>1970-01-01T00:05:53.000Z</time>
      </trkpt>
      <trkpt lat="39.745937" lon="-8.784815">
        <ele>51.8</ele>
        <time>1970-01-01T00:05:54.000Z</time>
      </trkpt>
      <trkpt lat="39.74596" lon="-8.784761">
        <ele>51.8</ele>
        <time>1970-01-01T00:05:55.000Z</time>
      </trkpt>
      <trkpt lat="39.745983" lon="-8.784706">
        <ele>51.8</ele>
        <time>1970-01-01T00:05:56.000Z</time>
      </trkpt>
      <trkpt lat="39.746006" lon="-8.784649">
        <ele>51.8</ele>
        <time>1970-01-01T00:05:57.000Z</time>
      </trkpt>
      <trkpt lat="39.746029" lon="-8.784591">
        <ele>51.8</ele>
        <time>1970-01-01T00:05:58.000Z</time>
      </trkpt>
      <trkpt lat="39.746052" lon="-8.784534">
        <ele>51.8</ele>
        <time>1970-01-01T00:05:59.000Z</time>
      </trkpt>
      <trkpt lat="39.746073" lon="-8.784476">
        <ele>51.9</ele>
        <time>1970-01-01T00:06:00.000Z</time>
      </trkpt>
      <trkpt lat="39.746092" lon="-8.784417">
        <ele>51.9</ele>
        <time>1970-01-01T00:06:01.000Z</time>
      </trkpt>
      <trkpt lat="39.746109" lon="-8.784363">
        <ele>51.9</ele>
        <time>1970-01-01T00:06:02.000Z</time>
      </trkpt>
      <trkpt lat="39.746129" lon="-8.784299">
        <ele>51.9</ele>
        <time>1970-01-01T00:06:03.000Z</time>
      </trkpt>
      <trkpt lat="39.746149" lon="-8.784237">
        <ele>52</ele>
        <time>1970-01-01T00:06:05.000Z</time>
      </trkpt>
      <trkpt lat="39.746167" lon="-8.784177">
        <ele>52</ele>
        <time>1970-01-01T00:06:05.000Z</time>
      </trkpt>
      <trkpt lat="39.746184" lon="-8.784122">
        <ele>52.1</ele>
        <time>1970-01-01T00:06:06.000Z</time>
      </trkpt>
      <trkpt lat="39.746201" lon="-8.784062">
        <ele>52.1</ele>
        <time>1970-01-01T00:06:07.000Z</time>
      </trkpt>
      <trkpt lat="39.746215" lon="-8.784007">
        <ele>52.2</ele>
        <time>1970-01-01T00:06:08.000Z</time>
      </trkpt>
      <trkpt lat="39.74623" lon="-8.783951">
        <ele>52.2</ele>
        <time>1970-01-01T00:06:09.000Z</time>
      </trkpt>
      <trkpt lat="39.746244" lon="-8.783894">
        <ele>52.3</ele>
        <time>1970-01-01T00:06:10.000Z</time>
      </trkpt>
      <trkpt lat="39.746256" lon="-8.783836">
        <ele>52.4</ele>
        <time>1970-01-01T00:06:11.000Z</time>
      </trkpt>
      <trkpt lat="39.746268" lon="-8.78378">
        <ele>52.5</ele>
        <time>1970-01-01T00:06:13.000Z</time>
      </trkpt>
      <trkpt lat="39.746279" lon="-8.783721">
        <ele>52.5</ele>
        <time>1970-01-01T00:06:13.000Z</time>
      </trkpt>
      <trkpt lat="39.746292" lon="-8.783665">
        <ele>52.6</ele>
        <time>1970-01-01T00:06:14.000Z</time>
      </trkpt>
      <trkpt lat="39.746304" lon="-8.783613">
        <ele>52.6</ele>
        <time>1970-01-01T00:06:15.000Z</time>
      </trkpt>
      <trkpt lat="39.746319" lon="-8.783564">
        <ele>52.7</ele>
        <time>1970-01-01T00:06:17.000Z</time>
      </trkpt>
      <trkpt lat="39.746335" lon="-8.783515">
        <ele>52.7</ele>
        <time>1970-01-01T00:06:17.000Z</time>
      </trkpt>
      <trkpt lat="39.746354" lon="-8.783467">
        <ele>52.7</ele>
        <time>1970-01-01T00:06:19.000Z</time>
      </trkpt>
      <trkpt lat="39.746374" lon="-8.78342">
        <ele>52.7</ele>
        <time>1970-01-01T00:06:19.000Z</time>
      </trkpt>
      <trkpt lat="39.746394" lon="-8.783375">
        <ele>52.7</ele>
        <time>1970-01-01T00:06:20.000Z</time>
      </trkpt>
      <trkpt lat="39.746415" lon="-8.783335">
        <ele>52.6</ele>
        <time>1970-01-01T00:06:21.000Z</time>
      </trkpt>
      <trkpt lat="39.746438" lon="-8.783294">
        <ele>52.6</ele>
        <time>1970-01-01T00:06:22.000Z</time>
      </trkpt>
      <trkpt lat="39.746462" lon="-8.783253">
        <ele>52.5</ele>
        <time>1970-01-01T00:06:23.000Z</time>
      </trkpt>
      <trkpt lat="39.746488" lon="-8.783214">
        <ele>52.5</ele>
        <time>1970-01-01T00:06:24.000Z</time>
      </trkpt>
      <trkpt lat="39.746516" lon="-8.783174">
        <ele>52.4</ele>
        <time>1970-01-01T00:06:25.000Z</time>
      </trkpt>
      <trkpt lat="39.746544" lon="-8.783134">
        <ele>52.4</ele>
        <time>1970-01-01T00:06:26.000Z</time>
      </trkpt>
      <trkpt lat="39.746573" lon="-8.783093">
        <ele>52.4</ele>
        <time>1970-01-01T00:06:27.000Z</time>
      </trkpt>
      <trkpt lat="39.746601" lon="-8.783051">
        <ele>52.3</ele>
        <time>1970-01-01T00:06:28.000Z</time>
      </trkpt>
      <trkpt lat="39.74663" lon="-8.783007">
        <ele>52.3</ele>
        <time>1970-01-01T00:06:29.000Z</time>
      </trkpt>
      <trkpt lat="39.746659" lon="-8.782963">
        <ele>52.3</ele>
        <time>1970-01-01T00:06:30.000Z</time>
      </trkpt>
      <trkpt lat="39.746687" lon="-8.782919">
        <ele>52.3</ele>
        <time>1970-01-01T00:06:31.000Z</time>
      </trkpt>
      <trkpt lat="39.746713" lon="-8.782875">
        <ele>52.3</ele>
        <time>1970-01-01T00:06:32.000Z</time>
      </trkpt>
      <trkpt lat="39.746739" lon="-8.782833">
        <ele>52.3</ele>
        <time>1970-01-01T00:06:33.000Z</time>
      </trkpt>
      <trkpt lat="39.746764" lon="-8.782792">
        <ele>52.4</ele>
        <time>1970-01-01T00:06:34.000Z</time>
      </trkpt>
      <trkpt lat="39.746789" lon="-8.78275">
        <ele>52.4</ele>
        <time>1970-01-01T00:06:35.000Z</time>
      </trkpt>
      <trkpt lat="39.746815" lon="-8.782708">
        <ele>52.4</ele>
        <time>1970-01-01T00:06:36.000Z</time>
      </trkpt>
      <trkpt lat="39.746839" lon="-8.782667">
        <ele>52.4</ele>
        <time>1970-01-01T00:06:38.000Z</time>
      </trkpt>
      <trkpt lat="39.746865" lon="-8.782626">
        <ele>52.5</ele>
        <time>1970-01-01T00:06:38.000Z</time>
      </trkpt>
      <trkpt lat="39.746889" lon="-8.782584">
        <ele>52.5</ele>
        <time>1970-01-01T00:06:39.000Z</time>
      </trkpt>
      <trkpt lat="39.746914" lon="-8.782539">
        <ele>52.5</ele>
        <time>1970-01-01T00:06:40.000Z</time>
      </trkpt>
      <trkpt lat="39.746938" lon="-8.782495">
        <ele>52.6</ele>
        <time>1970-01-01T00:06:41.000Z</time>
      </trkpt>
      <trkpt lat="39.746961" lon="-8.78245">
        <ele>52.6</ele>
        <time>1970-01-01T00:06:42.000Z</time>
      </trkpt>
      <trkpt lat="39.746983" lon="-8.782405">
        <ele>52.7</ele>
        <time>1970-01-01T00:06:43.000Z</time>
      </trkpt>
      <trkpt lat="39.747004" lon="-8.782359">
        <ele>52.7</ele>
        <time>1970-01-01T00:06:45.000Z</time>
      </trkpt>
      <trkpt lat="39.747025" lon="-8.782312">
        <ele>52.8</ele>
        <time>1970-01-01T00:06:45.000Z</time>
      </trkpt>
      <trkpt lat="39.747044" lon="-8.782268">
        <ele>52.9</ele>
        <time>1970-01-01T00:06:47.000Z</time>
      </trkpt>
      <trkpt lat="39.747063" lon="-8.782218">
        <ele>52.9</ele>
        <time>1970-01-01T00:06:47.000Z</time>
      </trkpt>
      <trkpt lat="39.747083" lon="-8.782166">
        <ele>53.1</ele>
        <time>1970-01-01T00:06:48.000Z</time>
      </trkpt>
      <trkpt lat="39.747101" lon="-8.782112">
        <ele>53.2</ele>
        <time>1970-01-01T00:06:49.000Z</time>
      </trkpt>
      <trkpt lat="39.747118" lon="-8.782057">
        <ele>53.3</ele>
        <time>1970-01-01T00:06:50.000Z</time>
      </trkpt>
      <trkpt lat="39.747134" lon="-8.782005">
        <ele>53.4</ele>
        <time>1970-01-01T00:06:51.000Z</time>
      </trkpt>
      <trkpt lat="39.747149" lon="-8.781948">
        <ele>53.5</ele>
        <time>1970-01-01T00:06:52.000Z</time>
      </trkpt>
      <trkpt lat="39.747162" lon="-8.78189">
        <ele>53.6</ele>
        <time>1970-01-01T00:06:53.000Z</time>
      </trkpt>
      <trkpt lat="39.747174" lon="-8.781832">
        <ele>53.7</ele>
        <time>1970-01-01T00:06:54.000Z</time>
      </trkpt>
      <trkpt lat="39.747184" lon="-8.781778">
        <ele>53.8</ele>
        <time>1970-01-01T00:06:56.000Z</time>
      </trkpt>
      <trkpt lat="39.747193" lon="-8.781723">
        <ele>53.9</ele>
        <time>1970-01-01T00:06:56.000Z</time>
      </trkpt>
      <trkpt lat="39.747201" lon="-8.781665">
        <ele>54.1</ele>
        <time>1970-01-01T00:06:58.000Z</time>
      </trkpt>
      <trkpt lat="39.747208" lon="-8.781608">
        <ele>54.2</ele>
        <time>1970-01-01T00:06:58.000Z</time>
      </trkpt>
      <trkpt lat="39.747214" lon="-8.781549">
        <ele>54.3</ele>
        <time>1970-01-01T00:06:59.000Z</time>
      </trkpt>
      <trkpt lat="39.747218" lon="-8.781496">
        <ele>54.4</ele>
        <time>1970-01-01T00:07:01.000Z</time>
      </trkpt>
      <trkpt lat="39.747223" lon="-8.781443">
        <ele>54.6</ele>
        <time>1970-01-01T00:07:02.000Z</time>
      </trkpt>
      <trkpt lat="39.747227" lon="-8.78139">
        <ele>54.7</ele>
        <time>1970-01-01T00:07:02.000Z</time>
      </trkpt>
      <trkpt lat="39.747231" lon="-8.781336">
        <ele>54.8</ele>
        <time>1970-01-01T00:07:04.000Z</time>
      </trkpt>
      <trkpt lat="39.747235" lon="-8.781278">
        <ele>55</ele>
        <time>1970-01-01T00:07:05.000Z</time>
      </trkpt>
      <trkpt lat="39.747239" lon="-8.781224">
        <ele>55.2</ele>
        <time>1970-01-01T00:07:06.000Z</time>
      </trkpt>
      <trkpt lat="39.747242" lon="-8.781174">
        <ele>55.4</ele>
        <time>1970-01-01T00:07:06.000Z</time>
      </trkpt>
      <trkpt lat="39.747245" lon="-8.781119">
        <ele>55.6</ele>
        <time>1970-01-01T00:07:07.000Z</time>
      </trkpt>
      <trkpt lat="39.747248" lon="-8.781063">
        <ele>55.8</ele>
        <time>1970-01-01T00:07:08.000Z</time>
      </trkpt>
      <trkpt lat="39.747253" lon="-8.781011">
        <ele>56</ele>
        <time>1970-01-01T00:07:10.000Z</time>
      </trkpt>
      <trkpt lat="39.747258" lon="-8.780958">
        <ele>56.2</ele>
        <time>1970-01-01T00:07:10.000Z</time>
      </trkpt>
      <trkpt lat="39.747263" lon="-8.7809">
        <ele>56.4</ele>
        <time>1970-01-01T00:07:11.000Z</time>
      </trkpt>
      <trkpt lat="39.747268" lon="-8.780845">
        <ele>56.6</ele>
        <time>1970-01-01T00:07:12.000Z</time>
      </trkpt>
      <trkpt lat="39.747273" lon="-8.78079">
        <ele>56.8</ele>
        <time>1970-01-01T00:07:13.000Z</time>
      </trkpt>
      <trkpt lat="39.747279" lon="-8.780735">
        <ele>57</ele>
        <time>1970-01-01T00:07:14.000Z</time>
      </trkpt>
      <trkpt lat="39.747284" lon="-8.78068">
        <ele>57.2</ele>
        <time>1970-01-01T00:07:15.000Z</time>
      </trkpt>
      <trkpt lat="39.747289" lon="-8.780627">
        <ele>57.4</ele>
        <time>1970-01-01T00:07:16.000Z</time>
      </trkpt>
      <trkpt lat="39.747294" lon="-8.780574">
        <ele>57.6</ele>
        <time>1970-01-01T00:07:17.000Z</time>
      </trkpt>
      <trkpt lat="39.7473" lon="-8.78052">
        <ele>57.8</ele>
        <time>1970-01-01T00:07:18.000Z</time>
      </trkpt>
      <trkpt lat="39.747306" lon="-8.780466">
        <ele>57.9</ele>
        <time>1970-01-01T00:07:19.000Z</time>
      </trkpt>
      <trkpt lat="39.747312" lon="-8.780411">
        <ele>58.1</ele>
        <time>1970-01-01T00:07:21.000Z</time>
      </trkpt>
      <trkpt lat="39.747319" lon="-8.780356">
        <ele>58.3</ele>
        <time>1970-01-01T00:07:21.000Z</time>
      </trkpt>
      <trkpt lat="39.747327" lon="-8.780302">
        <ele>58.5</ele>
        <time>1970-01-01T00:07:22.000Z</time>
      </trkpt>
      <trkpt lat="39.747334" lon="-8.780247">
        <ele>58.6</ele>
        <time>1970-01-01T00:07:23.000Z</time>
      </trkpt>
      <trkpt lat="39.747341" lon="-8.780193">
        <ele>58.8</ele>
        <time>1970-01-01T00:07:24.000Z</time>
      </trkpt>
      <trkpt lat="39.747348" lon="-8.78014">
        <ele>59</ele>
        <time>1970-01-01T00:07:26.000Z</time>
      </trkpt>
      <trkpt lat="39.747356" lon="-8.780087">
        <ele>59.1</ele>
        <time>1970-01-01T00:07:26.000Z</time>
      </trkpt>
      <trkpt lat="39.747364" lon="-8.780032">
        <ele>59.3</ele>
        <time>1970-01-01T00:07:27.000Z</time>
      </trkpt>
      <trkpt lat="39.747373" lon="-8.77998">
        <ele>59.4</ele>
        <time>1970-01-01T00:07:28.000Z</time>
      </trkpt>
      <trkpt lat="39.747381" lon="-8.779933">
        <ele>59.5</ele>
        <time>1970-01-01T00:07:29.000Z</time>
      </trkpt>
      <trkpt lat="39.747388" lon="-8.779885">
        <ele>59.6</ele>
        <time>1970-01-01T00:07:30.000Z</time>
      </trkpt>
      <trkpt lat="39.747395" lon="-8.77984">
        <ele>59.7</ele>
        <time>1970-01-01T00:07:31.000Z</time>
      </trkpt>
      <trkpt lat="39.747402" lon="-8.77979">
        <ele>59.7</ele>
        <time>1970-01-01T00:07:33.000Z</time>
      </trkpt>
      <trkpt lat="39.74741" lon="-8.779735">
        <ele>59.8</ele>
        <time>1970-01-01T00:07:33.000Z</time>
      </trkpt>
      <trkpt lat="39.747418" lon="-8.779683">
        <ele>59.9</ele>
        <time>1970-01-01T00:07:34.000Z</time>
      </trkpt>
      <trkpt lat="39.747425" lon="-8.779629">
        <ele>59.9</ele>
        <time>1970-01-01T00:07:35.000Z</time>
      </trkpt>
      <trkpt lat="39.747432" lon="-8.779575">
        <ele>60</ele>
        <time>1970-01-01T00:07:36.000Z</time>
      </trkpt>
      <trkpt lat="39.747438" lon="-8.779519">
        <ele>60</ele>
        <time>1970-01-01T00:07:37.000Z</time>
      </trkpt>
      <trkpt lat="39.747445" lon="-8.779462">
        <ele>60</ele>
        <time>1970-01-01T00:07:38.000Z</time>
      </trkpt>
      <trkpt lat="39.747451" lon="-8.779405">
        <ele>60</ele>
        <time>1970-01-01T00:07:39.000Z</time>
      </trkpt>
      <trkpt lat="39.747458" lon="-8.779346">
        <ele>60</ele>
        <time>1970-01-01T00:07:40.000Z</time>
      </trkpt>
      <trkpt lat="39.747465" lon="-8.77929">
        <ele>59.9</ele>
        <time>1970-01-01T00:07:41.000Z</time>
      </trkpt>
      <trkpt lat="39.747471" lon="-8.779229">
        <ele>59.9</ele>
        <time>1970-01-01T00:07:42.000Z</time>
      </trkpt>
      <trkpt lat="39.747476" lon="-8.779168">
        <ele>59.9</ele>
        <time>1970-01-01T00:07:43.000Z</time>
      </trkpt>
      <trkpt lat="39.747481" lon="-8.779106">
        <ele>59.8</ele>
        <time>1970-01-01T00:07:44.000Z</time>
      </trkpt>
      <trkpt lat="39.747487" lon="-8.779045">
        <ele>59.8</ele>
        <time>1970-01-01T00:07:45.000Z</time>
      </trkpt>
      <trkpt lat="39.747494" lon="-8.778983">
        <ele>59.8</ele>
        <time>1970-01-01T00:07:46.000Z</time>
      </trkpt>
      <trkpt lat="39.747499" lon="-8.778923">
        <ele>59.7</ele>
        <time>1970-01-01T00:07:47.000Z</time>
      </trkpt>
      <trkpt lat="39.747503" lon="-8.778863">
        <ele>59.7</ele>
        <time>1970-01-01T00:07:48.000Z</time>
      </trkpt>
      <trkpt lat="39.747504" lon="-8.778803">
        <ele>59.7</ele>
        <time>1970-01-01T00:07:50.000Z</time>
      </trkpt>
      <trkpt lat="39.747501" lon="-8.778744">
        <ele>59.8</ele>
        <time>1970-01-01T00:07:50.000Z</time>
      </trkpt>
      <trkpt lat="39.747498" lon="-8.778687">
        <ele>59.9</ele>
        <time>1970-01-01T00:07:52.000Z</time>
      </trkpt>
      <trkpt lat="39.747496" lon="-8.778628">
        <ele>59.9</ele>
        <time>1970-01-01T00:07:53.000Z</time>
      </trkpt>
      <trkpt lat="39.747496" lon="-8.778569">
        <ele>60.2</ele>
        <time>1970-01-01T00:07:53.000Z</time>
      </trkpt>
      <trkpt lat="39.747497" lon="-8.778512">
        <ele>60.2</ele>
        <time>1970-01-01T00:07:55.000Z</time>
      </trkpt>
      <trkpt lat="39.747502" lon="-8.778455">
        <ele>60.1</ele>
        <time>1970-01-01T00:07:55.000Z</time>
      </trkpt>
      <trkpt lat="39.747511" lon="-8.778391">
        <ele>60</ele>
        <time>1970-01-01T00:07:56.000Z</time>
      </trkpt>
      <trkpt lat="39.747523" lon="-8.778328">
        <ele>59.8</ele>
        <time>1970-01-01T00:07:57.000Z</time>
      </trkpt>
      <trkpt lat="39.747536" lon="-8.778265">
        <ele>59.7</ele>
        <time>1970-01-01T00:07:58.000Z</time>
      </trkpt>
      <trkpt lat="39.747551" lon="-8.778202">
        <ele>59.6</ele>
        <time>1970-01-01T00:07:59.000Z</time>
      </trkpt>
      <trkpt lat="39.747571" lon="-8.778135">
        <ele>59.6</ele>
        <time>1970-01-01T00:08:00.000Z</time>
      </trkpt>
      <trkpt lat="39.747591" lon="-8.778073">
        <ele>59.5</ele>
        <time>1970-01-01T00:08:01.000Z</time>
      </trkpt>
      <trkpt lat="39.747612" lon="-8.778009">
        <ele>59.5</ele>
        <time>1970-01-01T00:08:02.000Z</time>
      </trkpt>
      <trkpt lat="39.747633" lon="-8.777944">
        <ele>59.4</ele>
        <time>1970-01-01T00:08:04.000Z</time>
      </trkpt>
      <trkpt lat="39.747653" lon="-8.777877">
        <ele>59.3</ele>
        <time>1970-01-01T00:08:04.000Z</time>
      </trkpt>
      <trkpt lat="39.747672" lon="-8.777814">
        <ele>59.2</ele>
        <time>1970-01-01T00:08:05.000Z</time>
      </trkpt>
      <trkpt lat="39.747696" lon="-8.777747">
        <ele>59.1</ele>
        <time>1970-01-01T00:08:06.000Z</time>
      </trkpt>
      <trkpt lat="39.74772" lon="-8.777679">
        <ele>59</ele>
        <time>1970-01-01T00:08:07.000Z</time>
      </trkpt>
      <trkpt lat="39.747741" lon="-8.77761">
        <ele>58.9</ele>
        <time>1970-01-01T00:08:09.000Z</time>
      </trkpt>
      <trkpt lat="39.747761" lon="-8.777545">
        <ele>58.8</ele>
        <time>1970-01-01T00:08:09.000Z</time>
      </trkpt>
      <trkpt lat="39.747783" lon="-8.777473">
        <ele>58.6</ele>
        <time>1970-01-01T00:08:10.000Z</time>
      </trkpt>
      <trkpt lat="39.747806" lon="-8.777402">
        <ele>58.5</ele>
        <time>1970-01-01T00:08:12.000Z</time>
      </trkpt>
      <trkpt lat="39.74783" lon="-8.777332">
        <ele>58.4</ele>
        <time>1970-01-01T00:08:13.000Z</time>
      </trkpt>
      <trkpt lat="39.747854" lon="-8.777262">
        <ele>58.4</ele>
        <time>1970-01-01T00:08:13.000Z</time>
      </trkpt>
      <trkpt lat="39.747877" lon="-8.777192">
        <ele>58.3</ele>
        <time>1970-01-01T00:08:14.000Z</time>
      </trkpt>
      <trkpt lat="39.7479" lon="-8.777122">
        <ele>58.2</ele>
        <time>1970-01-01T00:08:15.000Z</time>
      </trkpt>
      <trkpt lat="39.747922" lon="-8.777052">
        <ele>58.1</ele>
        <time>1970-01-01T00:08:16.000Z</time>
      </trkpt>
      <trkpt lat="39.747945" lon="-8.776982">
        <ele>58.1</ele>
        <time>1970-01-01T00:08:18.000Z</time>
      </trkpt>
      <trkpt lat="39.747968" lon="-8.776914">
        <ele>58</ele>
        <time>1970-01-01T00:08:18.000Z</time>
      </trkpt>
      <trkpt lat="39.747993" lon="-8.776842">
        <ele>57.9</ele>
        <time>1970-01-01T00:08:19.000Z</time>
      </trkpt>
      <trkpt lat="39.748018" lon="-8.77677">
        <ele>57.8</ele>
        <time>1970-01-01T00:08:20.000Z</time>
      </trkpt>
      <trkpt lat="39.748041" lon="-8.776698">
        <ele>57.7</ele>
        <time>1970-01-01T00:08:21.000Z</time>
      </trkpt>
      <trkpt lat="39.748064" lon="-8.77663">
        <ele>57.7</ele>
        <time>1970-01-01T00:08:22.000Z</time>
      </trkpt>
      <trkpt lat="39.748087" lon="-8.77656">
        <ele>57.6</ele>
        <time>1970-01-01T00:08:23.000Z</time>
      </trkpt>
      <trkpt lat="39.748111" lon="-8.776489">
        <ele>57.6</ele>
        <time>1970-01-01T00:08:24.000Z</time>
      </trkpt>
      <trkpt lat="39.748135" lon="-8.776416">
        <ele>57.5</ele>
        <time>1970-01-01T00:08:26.000Z</time>
      </trkpt>
      <trkpt lat="39.748159" lon="-8.776342">
        <ele>57.4</ele>
        <time>1970-01-01T00:08:26.000Z</time>
      </trkpt>
      <trkpt lat="39.748184" lon="-8.776268">
        <ele>57.4</ele>
        <time>1970-01-01T00:08:27.000Z</time>
      </trkpt>
      <trkpt lat="39.748211" lon="-8.776188">
        <ele>57.4</ele>
        <time>1970-01-01T00:08:28.000Z</time>
      </trkpt>
      <trkpt lat="39.748236" lon="-8.776119">
        <ele>57.4</ele>
        <time>1970-01-01T00:08:29.000Z</time>
      </trkpt>
      <trkpt lat="39.748261" lon="-8.77605">
        <ele>57.4</ele>
        <time>1970-01-01T00:08:30.000Z</time>
      </trkpt>
      <trkpt lat="39.748286" lon="-8.775982">
        <ele>57.4</ele>
        <time>1970-01-01T00:08:31.000Z</time>
      </trkpt>
      <trkpt lat="39.748309" lon="-8.775914">
        <ele>57.4</ele>
        <time>1970-01-01T00:08:32.000Z</time>
      </trkpt>
      <trkpt lat="39.74833" lon="-8.775846">
        <ele>57.5</ele>
        <time>1970-01-01T00:08:33.000Z</time>
      </trkpt>
      <trkpt lat="39.748351" lon="-8.775776">
        <ele>57.5</ele>
        <time>1970-01-01T00:08:34.000Z</time>
      </trkpt>
      <trkpt lat="39.748372" lon="-8.775706">
        <ele>57.6</ele>
        <time>1970-01-01T00:08:35.000Z</time>
      </trkpt>
      <trkpt lat="39.748392" lon="-8.775638">
        <ele>57.6</ele>
        <time>1970-01-01T00:08:37.000Z</time>
      </trkpt>
      <trkpt lat="39.748412" lon="-8.775564">
        <ele>57.7</ele>
        <time>1970-01-01T00:08:37.000Z</time>
      </trkpt>
      <trkpt lat="39.748428" lon="-8.775497">
        <ele>57.8</ele>
        <time>1970-01-01T00:08:38.000Z</time>
      </trkpt>
      <trkpt lat="39.748446" lon="-8.775432">
        <ele>57.9</ele>
        <time>1970-01-01T00:08:39.000Z</time>
      </trkpt>
      <trkpt lat="39.748462" lon="-8.775364">
        <ele>58.1</ele>
        <time>1970-01-01T00:08:40.000Z</time>
      </trkpt>
      <trkpt lat="39.748474" lon="-8.775302">
        <ele>58.2</ele>
        <time>1970-01-01T00:08:42.000Z</time>
      </trkpt>
      <trkpt lat="39.748486" lon="-8.775242">
        <ele>58.3</ele>
        <time>1970-01-01T00:08:42.000Z</time>
      </trkpt>
      <trkpt lat="39.748497" lon="-8.775184">
        <ele>58.5</ele>
        <time>1970-01-01T00:08:43.000Z</time>
      </trkpt>
      <trkpt lat="39.748506" lon="-8.775126">
        <ele>58.6</ele>
        <time>1970-01-01T00:08:44.000Z</time>
      </trkpt>
      <trkpt lat="39.748514" lon="-8.775072">
        <ele>58.8</ele>
        <time>1970-01-01T00:08:45.000Z</time>
      </trkpt>
      <trkpt lat="39.748524" lon="-8.775021">
        <ele>59</ele>
        <time>1970-01-01T00:08:47.000Z</time>
      </trkpt>
      <trkpt lat="39.748538" lon="-8.774977">
        <ele>59.1</ele>
        <time>1970-01-01T00:08:47.000Z</time>
      </trkpt>
      <trkpt lat="39.748553" lon="-8.774944">
        <ele>59.3</ele>
        <time>1970-01-01T00:08:48.000Z</time>
      </trkpt>
      <trkpt lat="39.748568" lon="-8.774922">
        <ele>59.4</ele>
        <time>1970-01-01T00:08:49.000Z</time>
      </trkpt>
      <trkpt lat="39.748581" lon="-8.774905">
        <ele>59.5</ele>
        <time>1970-01-01T00:08:50.000Z</time>
      </trkpt>
      <trkpt lat="39.748606" lon="-8.774875">
        <ele>59.6</ele>
        <time>1970-01-01T00:08:56.000Z</time>
      </trkpt>
      <trkpt lat="39.748606" lon="-8.774876">
        <ele>59.4</ele>
        <time>1970-01-01T00:09:00.000Z</time>
      </trkpt>
      <trkpt lat="39.748607" lon="-8.774878">
        <ele>59.4</ele>
        <time>1970-01-01T00:09:03.000Z</time>
      </trkpt>
      <trkpt lat="39.748607" lon="-8.774879">
        <ele>59.4</ele>
        <time>1970-01-01T00:09:05.000Z</time>
      </trkpt>
      <trkpt lat="39.748608" lon="-8.77488">
        <ele>59.4</ele>
        <time>1970-01-01T00:09:05.000Z</time>
      </trkpt>
      <trkpt lat="39.748605" lon="-8.774886">
        <ele>59.4</ele>
        <time>1970-01-01T00:09:06.000Z</time>
      </trkpt>
      <trkpt lat="39.748604" lon="-8.774888">
        <ele>59.3</ele>
        <time>1970-01-01T00:09:07.000Z</time>
      </trkpt>
      <trkpt lat="39.748604" lon="-8.77489">
        <ele>59.3</ele>
        <time>1970-01-01T00:09:08.000Z</time>
      </trkpt>
      <trkpt lat="39.748603" lon="-8.774891">
        <ele>59.3</ele>
        <time>1970-01-01T00:09:09.000Z</time>
      </trkpt>
      <trkpt lat="39.748603" lon="-8.774893">
        <ele>59.3</ele>
        <time>1970-01-01T00:09:10.000Z</time>
      </trkpt>
      <trkpt lat="39.748602" lon="-8.774895">
        <ele>59.3</ele>
        <time>1970-01-01T00:09:12.000Z</time>
      </trkpt>
      <trkpt lat="39.748602" lon="-8.774897">
        <ele>59.3</ele>
        <time>1970-01-01T00:09:12.000Z</time>
      </trkpt>
      <trkpt lat="39.7486" lon="-8.774906">
        <ele>59.3</ele>
        <time>1970-01-01T00:09:13.000Z</time>
      </trkpt>
      <trkpt lat="39.748599" lon="-8.774909">
        <ele>59.3</ele>
        <time>1970-01-01T00:09:15.000Z</time>
      </trkpt>
      <trkpt lat="39.748597" lon="-8.774913">
        <ele>59.3</ele>
        <time>1970-01-01T00:09:16.000Z</time>
      </trkpt>
      <trkpt lat="39.748596" lon="-8.774916">
        <ele>59.3</ele>
        <time>1970-01-01T00:09:17.000Z</time>
      </trkpt>
      <trkpt lat="39.748595" lon="-8.77492">
        <ele>59.2</ele>
        <time>1970-01-01T00:09:18.000Z</time>
      </trkpt>
      <trkpt lat="39.748594" lon="-8.774924">
        <ele>59.2</ele>
        <time>1970-01-01T00:09:20.000Z</time>
      </trkpt>
      <trkpt lat="39.748593" lon="-8.774927">
        <ele>59.2</ele>
        <time>1970-01-01T00:09:21.000Z</time>
      </trkpt>
      <trkpt lat="39.748591" lon="-8.774931">
        <ele>59.2</ele>
        <time>1970-01-01T00:09:22.000Z</time>
      </trkpt>
      <trkpt lat="39.74859" lon="-8.774934">
        <ele>59.2</ele>
        <time>1970-01-01T00:09:23.000Z</time>
      </trkpt>
      <trkpt lat="39.748589" lon="-8.774938">
        <ele>59.2</ele>
        <time>1970-01-01T00:09:24.000Z</time>
      </trkpt>
      <trkpt lat="39.748588" lon="-8.774942">
        <ele>59.2</ele>
        <time>1970-01-01T00:09:25.000Z</time>
      </trkpt>
      <trkpt lat="39.748587" lon="-8.774945">
        <ele>59.2</ele>
        <time>1970-01-01T00:09:28.000Z</time>
      </trkpt>
      <trkpt lat="39.748585" lon="-8.774949">
        <ele>59.2</ele>
        <time>1970-01-01T00:09:31.000Z</time>
      </trkpt>
      <trkpt lat="39.748584" lon="-8.774952">
        <ele>59.1</ele>
        <time>1970-01-01T00:09:33.000Z</time>
      </trkpt>
      <trkpt lat="39.748583" lon="-8.774956">
        <ele>59.1</ele>
        <time>1970-01-01T00:09:33.000Z</time>
      </trkpt>
      <trkpt lat="39.748588" lon="-8.774959">
        <ele>59.1</ele>
        <time>1970-01-01T00:09:34.000Z</time>
      </trkpt>
      <trkpt lat="39.74859" lon="-8.774958">
        <ele>59.1</ele>
        <time>1970-01-01T00:09:35.000Z</time>
      </trkpt>
      <trkpt lat="39.748593" lon="-8.774958">
        <ele>59.1</ele>
        <time>1970-01-01T00:09:37.000Z</time>
      </trkpt>
      <trkpt lat="39.748595" lon="-8.774957">
        <ele>59.1</ele>
        <time>1970-01-01T00:09:40.000Z</time>
      </trkpt>
      <trkpt lat="39.748598" lon="-8.774956">
        <ele>59.1</ele>
        <time>1970-01-01T00:09:42.000Z</time>
      </trkpt>
      <trkpt lat="39.7486" lon="-8.774955">
        <ele>59</ele>
        <time>1970-01-01T00:10:10.000Z</time>
      </trkpt>
      <trkpt lat="39.748603" lon="-8.774954">
        <ele>59</ele>
        <time>1970-01-01T00:10:13.000Z</time>
      </trkpt>
      <trkpt lat="39.748605" lon="-8.774954">
        <ele>59</ele>
        <time>1970-01-01T00:10:18.000Z</time>
      </trkpt>
      <trkpt lat="39.748608" lon="-8.774953">
        <ele>59</ele>
        <time>1970-01-01T00:10:19.000Z</time>
      </trkpt>
      <trkpt lat="39.74861" lon="-8.774952">
        <ele>59</ele>
        <time>1970-01-01T00:10:20.000Z</time>
      </trkpt>
      <trkpt lat="39.748613" lon="-8.774951">
        <ele>59</ele>
        <time>1970-01-01T00:10:21.000Z</time>
      </trkpt>
      <trkpt lat="39.748615" lon="-8.77495">
        <ele>59</ele>
        <time>1970-01-01T00:10:22.000Z</time>
      </trkpt>
      <trkpt lat="39.748618" lon="-8.77495">
        <ele>59</ele>
        <time>1970-01-01T00:10:23.000Z</time>
      </trkpt>
      <trkpt lat="39.74862" lon="-8.774949">
        <ele>59</ele>
        <time>1970-01-01T00:10:29.000Z</time>
      </trkpt>
      <trkpt lat="39.748623" lon="-8.774948">
        <ele>58.9</ele>
        <time>1970-01-01T00:10:29.000Z</time>
      </trkpt>
      <trkpt lat="39.748626" lon="-8.774936">
        <ele>58.9</ele>
        <time>1970-01-01T00:10:31.000Z</time>
      </trkpt>
      <trkpt lat="39.748626" lon="-8.774932">
        <ele>58.9</ele>
        <time>1970-01-01T00:10:32.000Z</time>
      </trkpt>
      <trkpt lat="39.748627" lon="-8.774928">
        <ele>58.9</ele>
        <time>1970-01-01T00:10:35.000Z</time>
      </trkpt>
      <trkpt lat="39.748627" lon="-8.774923">
        <ele>58.9</ele>
        <time>1970-01-01T00:10:36.000Z</time>
      </trkpt>
      <trkpt lat="39.748628" lon="-8.774919">
        <ele>58.8</ele>
        <time>1970-01-01T00:10:38.000Z</time>
      </trkpt>
      <trkpt lat="39.748628" lon="-8.774915">
        <ele>58.8</ele>
        <time>1970-01-01T00:10:40.000Z</time>
      </trkpt>
      <trkpt lat="39.748629" lon="-8.774911">
        <ele>58.8</ele>
        <time>1970-01-01T00:10:58.000Z</time>
      </trkpt>
      <trkpt lat="39.748629" lon="-8.774907">
        <ele>58.8</ele>
        <time>1970-01-01T00:11:01.000Z</time>
      </trkpt>
      <trkpt lat="39.74863" lon="-8.774903">
        <ele>58.8</ele>
        <time>1970-01-01T00:11:06.000Z</time>
      </trkpt>
      <trkpt lat="39.74863" lon="-8.774899">
        <ele>58.8</ele>
        <time>1970-01-01T00:11:08.000Z</time>
      </trkpt>
      <trkpt lat="39.748631" lon="-8.774894">
        <ele>58.8</ele>
        <time>1970-01-01T00:11:21.000Z</time>
      </trkpt>
      <trkpt lat="39.748631" lon="-8.77489">
        <ele>58.7</ele>
        <time>1970-01-01T00:11:22.000Z</time>
      </trkpt>
      <trkpt lat="39.748632" lon="-8.774886">
        <ele>58.7</ele>
        <time>1970-01-01T00:11:24.000Z</time>
      </trkpt>
      <trkpt lat="39.748632" lon="-8.774882">
        <ele>58.7</ele>
        <time>1970-01-01T00:11:24.000Z</time>
      </trkpt>
      <trkpt lat="39.748632" lon="-8.774872">
        <ele>58.7</ele>
        <time>1970-01-01T00:11:26.000Z</time>
      </trkpt>
      <trkpt lat="39.748631" lon="-8.774866">
        <ele>58.7</ele>
        <time>1970-01-01T00:11:28.000Z</time>
      </trkpt>
      <trkpt lat="39.748631" lon="-8.774865">
        <ele>58.6</ele>
        <time>1970-01-01T00:11:29.000Z</time>
      </trkpt>
      <trkpt lat="39.748631" lon="-8.774863">
        <ele>58.6</ele>
        <time>1970-01-01T00:11:30.000Z</time>
      </trkpt>
      <trkpt lat="39.748631" lon="-8.774852">
        <ele>58.6</ele>
        <time>1970-01-01T00:11:33.000Z</time>
      </trkpt>
      <trkpt lat="39.748631" lon="-8.774846">
        <ele>58.6</ele>
        <time>1970-01-01T00:11:36.000Z</time>
      </trkpt>
      <trkpt lat="39.748626" lon="-8.774849">
        <ele>58.5</ele>
        <time>1970-01-01T00:11:53.000Z</time>
      </trkpt>
      <trkpt lat="39.748627" lon="-8.774856">
        <ele>58.5</ele>
        <time>1970-01-01T00:11:55.000Z</time>
      </trkpt>
      <trkpt lat="39.748632" lon="-8.774862">
        <ele>58.5</ele>
        <time>1970-01-01T00:11:56.000Z</time>
      </trkpt>
      <trkpt lat="39.748641" lon="-8.774874">
        <ele>58.4</ele>
        <time>1970-01-01T00:11:57.000Z</time>
      </trkpt>
      <trkpt lat="39.748655" lon="-8.774893">
        <ele>58.3</ele>
        <time>1970-01-01T00:11:58.000Z</time>
      </trkpt>
      <trkpt lat="39.748672" lon="-8.774916">
        <ele>58.2</ele>
        <time>1970-01-01T00:11:59.000Z</time>
      </trkpt>
      <trkpt lat="39.748691" lon="-8.774942">
        <ele>58</ele>
        <time>1970-01-01T00:12:00.000Z</time>
      </trkpt>
      <trkpt lat="39.74871" lon="-8.774971">
        <ele>57.8</ele>
        <time>1970-01-01T00:12:01.000Z</time>
      </trkpt>
      <trkpt lat="39.748732" lon="-8.774999">
        <ele>57.7</ele>
        <time>1970-01-01T00:12:02.000Z</time>
      </trkpt>
      <trkpt lat="39.748754" lon="-8.77503">
        <ele>57.5</ele>
        <time>1970-01-01T00:12:03.000Z</time>
      </trkpt>
      <trkpt lat="39.748778" lon="-8.77506">
        <ele>57.3</ele>
        <time>1970-01-01T00:12:04.000Z</time>
      </trkpt>
      <trkpt lat="39.748802" lon="-8.775089">
        <ele>57.1</ele>
        <time>1970-01-01T00:12:05.000Z</time>
      </trkpt>
      <trkpt lat="39.748843" lon="-8.77513">
        <ele>56.8</ele>
        <time>1970-01-01T00:12:07.000Z</time>
      </trkpt>
      <trkpt lat="39.748857" lon="-8.775144">
        <ele>56.7</ele>
        <time>1970-01-01T00:12:07.000Z</time>
      </trkpt>
      <trkpt lat="39.748887" lon="-8.775168">
        <ele>56.5</ele>
        <time>1970-01-01T00:12:08.000Z</time>
      </trkpt>
      <trkpt lat="39.748917" lon="-8.775192">
        <ele>56.3</ele>
        <time>1970-01-01T00:12:09.000Z</time>
      </trkpt>
      <trkpt lat="39.748952" lon="-8.775216">
        <ele>56.1</ele>
        <time>1970-01-01T00:12:11.000Z</time>
      </trkpt>
      <trkpt lat="39.748991" lon="-8.775246">
        <ele>55.9</ele>
        <time>1970-01-01T00:12:12.000Z</time>
      </trkpt>
      <trkpt lat="39.749028" lon="-8.775281">
        <ele>55.7</ele>
        <time>1970-01-01T00:12:12.000Z</time>
      </trkpt>
      <trkpt lat="39.749065" lon="-8.775323">
        <ele>55.5</ele>
        <time>1970-01-01T00:12:13.000Z</time>
      </trkpt>
      <trkpt lat="39.7491" lon="-8.775374">
        <ele>55.3</ele>
        <time>1970-01-01T00:12:14.000Z</time>
      </trkpt>
      <trkpt lat="39.749133" lon="-8.775431">
        <ele>55.1</ele>
        <time>1970-01-01T00:12:15.000Z</time>
      </trkpt>
      <trkpt lat="39.749167" lon="-8.775492">
        <ele>54.9</ele>
        <time>1970-01-01T00:12:16.000Z</time>
      </trkpt>
      <trkpt lat="39.749203" lon="-8.775554">
        <ele>54.8</ele>
        <time>1970-01-01T00:12:17.000Z</time>
      </trkpt>
      <trkpt lat="39.749238" lon="-8.775617">
        <ele>54.6</ele>
        <time>1970-01-01T00:12:18.000Z</time>
      </trkpt>
      <trkpt lat="39.749274" lon="-8.77568">
        <ele>54.5</ele>
        <time>1970-01-01T00:12:20.000Z</time>
      </trkpt>
      <trkpt lat="39.749309" lon="-8.775738">
        <ele>54.4</ele>
        <time>1970-01-01T00:12:20.000Z</time>
      </trkpt>
      <trkpt lat="39.749346" lon="-8.775795">
        <ele>54.3</ele>
        <time>1970-01-01T00:12:21.000Z</time>
      </trkpt>
      <trkpt lat="39.749388" lon="-8.775855">
        <ele>54.2</ele>
        <time>1970-01-01T00:12:22.000Z</time>
      </trkpt>
      <trkpt lat="39.749432" lon="-8.775913">
        <ele>54.2</ele>
        <time>1970-01-01T00:12:23.000Z</time>
      </trkpt>
      <trkpt lat="39.749473" lon="-8.775964">
        <ele>54.2</ele>
        <time>1970-01-01T00:12:24.000Z</time>
      </trkpt>
      <trkpt lat="39.749516" lon="-8.776016">
        <ele>54.2</ele>
        <time>1970-01-01T00:12:25.000Z</time>
      </trkpt>
      <trkpt lat="39.749553" lon="-8.776062">
        <ele>54.2</ele>
        <time>1970-01-01T00:12:26.000Z</time>
      </trkpt>
      <trkpt lat="39.749592" lon="-8.776106">
        <ele>54.2</ele>
        <time>1970-01-01T00:12:27.000Z</time>
      </trkpt>
      <trkpt lat="39.749626" lon="-8.776141">
        <ele>54.2</ele>
        <time>1970-01-01T00:12:29.000Z</time>
      </trkpt>
      <trkpt lat="39.749659" lon="-8.77617">
        <ele>54.3</ele>
        <time>1970-01-01T00:12:29.000Z</time>
      </trkpt>
      <trkpt lat="39.749691" lon="-8.776191">
        <ele>54.3</ele>
        <time>1970-01-01T00:12:30.000Z</time>
      </trkpt>
      <trkpt lat="39.749725" lon="-8.776205">
        <ele>54.3</ele>
        <time>1970-01-01T00:12:31.000Z</time>
      </trkpt>
      <trkpt lat="39.749756" lon="-8.77621">
        <ele>54.4</ele>
        <time>1970-01-01T00:12:32.000Z</time>
      </trkpt>
      <trkpt lat="39.749782" lon="-8.776208">
        <ele>54.4</ele>
        <time>1970-01-01T00:12:33.000Z</time>
      </trkpt>
      <trkpt lat="39.749805" lon="-8.776196">
        <ele>54.4</ele>
        <time>1970-01-01T00:12:34.000Z</time>
      </trkpt>
      <trkpt lat="39.749821" lon="-8.776178">
        <ele>54.4</ele>
        <time>1970-01-01T00:12:35.000Z</time>
      </trkpt>
      <trkpt lat="39.749833" lon="-8.776152">
        <ele>54.4</ele>
        <time>1970-01-01T00:12:36.000Z</time>
      </trkpt>
      <trkpt lat="39.749842" lon="-8.776126">
        <ele>54.5</ele>
        <time>1970-01-01T00:12:37.000Z</time>
      </trkpt>
      <trkpt lat="39.749849" lon="-8.776095">
        <ele>54.4</ele>
        <time>1970-01-01T00:12:38.000Z</time>
      </trkpt>
      <trkpt lat="39.749857" lon="-8.77606">
        <ele>54.4</ele>
        <time>1970-01-01T00:12:39.000Z</time>
      </trkpt>
      <trkpt lat="39.749865" lon="-8.776023">
        <ele>54.4</ele>
        <time>1970-01-01T00:12:40.000Z</time>
      </trkpt>
      <trkpt lat="39.749874" lon="-8.775982">
        <ele>54.4</ele>
        <time>1970-01-01T00:12:41.000Z</time>
      </trkpt>
      <trkpt lat="39.749884" lon="-8.775945">
        <ele>54.3</ele>
        <time>1970-01-01T00:12:42.000Z</time>
      </trkpt>
      <trkpt lat="39.749896" lon="-8.775909">
        <ele>54.3</ele>
        <time>1970-01-01T00:12:43.000Z</time>
      </trkpt>
      <trkpt lat="39.749911" lon="-8.775871">
        <ele>54.3</ele>
        <time>1970-01-01T00:12:44.000Z</time>
      </trkpt>
      <trkpt lat="39.749927" lon="-8.775833">
        <ele>54.3</ele>
        <time>1970-01-01T00:12:45.000Z</time>
      </trkpt>
      <trkpt lat="39.749948" lon="-8.775793">
        <ele>54.3</ele>
        <time>1970-01-01T00:12:47.000Z</time>
      </trkpt>
      <trkpt lat="39.749972" lon="-8.775756">
        <ele>54.3</ele>
        <time>1970-01-01T00:12:47.000Z</time>
      </trkpt>
      <trkpt lat="39.749998" lon="-8.77572">
        <ele>54.3</ele>
        <time>1970-01-01T00:12:48.000Z</time>
      </trkpt>
      <trkpt lat="39.750028" lon="-8.775683">
        <ele>54.4</ele>
        <time>1970-01-01T00:12:49.000Z</time>
      </trkpt>
      <trkpt lat="39.750058" lon="-8.775651">
        <ele>54.4</ele>
        <time>1970-01-01T00:12:50.000Z</time>
      </trkpt>
      <trkpt lat="39.750092" lon="-8.77562">
        <ele>54.4</ele>
        <time>1970-01-01T00:12:51.000Z</time>
      </trkpt>
      <trkpt lat="39.750126" lon="-8.77559">
        <ele>54.5</ele>
        <time>1970-01-01T00:12:52.000Z</time>
      </trkpt>
      <trkpt lat="39.75016" lon="-8.77556">
        <ele>54.5</ele>
        <time>1970-01-01T00:12:53.000Z</time>
      </trkpt>
      <trkpt lat="39.750194" lon="-8.775531">
        <ele>54.5</ele>
        <time>1970-01-01T00:12:54.000Z</time>
      </trkpt>
      <trkpt lat="39.750226" lon="-8.775502">
        <ele>54.6</ele>
        <time>1970-01-01T00:12:55.000Z</time>
      </trkpt>
      <trkpt lat="39.750257" lon="-8.775476">
        <ele>54.6</ele>
        <time>1970-01-01T00:12:56.000Z</time>
      </trkpt>
      <trkpt lat="39.750287" lon="-8.775448">
        <ele>54.6</ele>
        <time>1970-01-01T00:12:57.000Z</time>
      </trkpt>
      <trkpt lat="39.750315" lon="-8.775419">
        <ele>54.7</ele>
        <time>1970-01-01T00:12:58.000Z</time>
      </trkpt>
      <trkpt lat="39.750341" lon="-8.775388">
        <ele>54.7</ele>
        <time>1970-01-01T00:12:59.000Z</time>
      </trkpt>
      <trkpt lat="39.750365" lon="-8.775355">
        <ele>54.8</ele>
        <time>1970-01-01T00:13:00.000Z</time>
      </trkpt>
      <trkpt lat="39.750388" lon="-8.775321">
        <ele>54.8</ele>
        <time>1970-01-01T00:13:01.000Z</time>
      </trkpt>
      <trkpt lat="39.750397" lon="-8.774943">
        <ele>54.9</ele>
        <time>1970-01-01T00:13:09.000Z</time>
      </trkpt>
      <trkpt lat="39.750391" lon="-8.774924">
        <ele>54.9</ele>
        <time>1970-01-01T00:13:10.000Z</time>
      </trkpt>
      <trkpt lat="39.75038" lon="-8.774894">
        <ele>54.9</ele>
        <time>1970-01-01T00:13:11.000Z</time>
      </trkpt>
      <trkpt lat="39.750369" lon="-8.774839">
        <ele>54.9</ele>
        <time>1970-01-01T00:13:12.000Z</time>
      </trkpt>
      <trkpt lat="39.750362" lon="-8.774786">
        <ele>55</ele>
        <time>1970-01-01T00:13:13.000Z</time>
      </trkpt>
      <trkpt lat="39.750363" lon="-8.774724">
        <ele>55</ele>
        <time>1970-01-01T00:13:14.000Z</time>
      </trkpt>
      <trkpt lat="39.750371" lon="-8.774665">
        <ele>55</ele>
        <time>1970-01-01T00:13:15.000Z</time>
      </trkpt>
      <trkpt lat="39.750387" lon="-8.774613">
        <ele>55</ele>
        <time>1970-01-01T00:13:17.000Z</time>
      </trkpt>
      <trkpt lat="39.750409" lon="-8.774562">
        <ele>55</ele>
        <time>1970-01-01T00:13:17.000Z</time>
      </trkpt>
      <trkpt lat="39.750433" lon="-8.774513">
        <ele>54.9</ele>
        <time>1970-01-01T00:13:18.000Z</time>
      </trkpt>
      <trkpt lat="39.750461" lon="-8.774467">
        <ele>54.9</ele>
        <time>1970-01-01T00:13:19.000Z</time>
      </trkpt>
      <trkpt lat="39.750488" lon="-8.774424">
        <ele>54.9</ele>
        <time>1970-01-01T00:13:21.000Z</time>
      </trkpt>
      <trkpt lat="39.75052" lon="-8.774381">
        <ele>54.9</ele>
        <time>1970-01-01T00:13:21.000Z</time>
      </trkpt>
      <trkpt lat="39.750553" lon="-8.774341">
        <ele>54.9</ele>
        <time>1970-01-01T00:13:22.000Z</time>
      </trkpt>
      <trkpt lat="39.750584" lon="-8.774301">
        <ele>54.9</ele>
        <time>1970-01-01T00:13:23.000Z</time>
      </trkpt>
      <trkpt lat="39.750615" lon="-8.774261">
        <ele>54.9</ele>
        <time>1970-01-01T00:13:25.000Z</time>
      </trkpt>
      <trkpt lat="39.750647" lon="-8.774222">
        <ele>54.9</ele>
        <time>1970-01-01T00:13:25.000Z</time>
      </trkpt>
      <trkpt lat="39.750677" lon="-8.774184">
        <ele>54.9</ele>
        <time>1970-01-01T00:13:26.000Z</time>
      </trkpt>
      <trkpt lat="39.750707" lon="-8.774146">
        <ele>55</ele>
        <time>1970-01-01T00:13:27.000Z</time>
      </trkpt>
      <trkpt lat="39.750735" lon="-8.774108">
        <ele>55</ele>
        <time>1970-01-01T00:13:29.000Z</time>
      </trkpt>
      <trkpt lat="39.750766" lon="-8.774068">
        <ele>55</ele>
        <time>1970-01-01T00:13:29.000Z</time>
      </trkpt>
      <trkpt lat="39.750794" lon="-8.77403">
        <ele>55</ele>
        <time>1970-01-01T00:13:30.000Z</time>
      </trkpt>
      <trkpt lat="39.750823" lon="-8.773991">
        <ele>55</ele>
        <time>1970-01-01T00:13:31.000Z</time>
      </trkpt>
      <trkpt lat="39.750854" lon="-8.773952">
        <ele>55.1</ele>
        <time>1970-01-01T00:13:32.000Z</time>
      </trkpt>
      <trkpt lat="39.750886" lon="-8.773912">
        <ele>55.1</ele>
        <time>1970-01-01T00:13:34.000Z</time>
      </trkpt>
      <trkpt lat="39.750918" lon="-8.77387">
        <ele>55.1</ele>
        <time>1970-01-01T00:13:34.000Z</time>
      </trkpt>
      <trkpt lat="39.75095" lon="-8.773827">
        <ele>55.1</ele>
        <time>1970-01-01T00:13:35.000Z</time>
      </trkpt>
      <trkpt lat="39.750983" lon="-8.773784">
        <ele>55.1</ele>
        <time>1970-01-01T00:13:36.000Z</time>
      </trkpt>
      <trkpt lat="39.751016" lon="-8.773741">
        <ele>55.2</ele>
        <time>1970-01-01T00:13:37.000Z</time>
      </trkpt>
      <trkpt lat="39.75105" lon="-8.773695">
        <ele>55.2</ele>
        <time>1970-01-01T00:13:39.000Z</time>
      </trkpt>
      <trkpt lat="39.751082" lon="-8.773653">
        <ele>55.2</ele>
        <time>1970-01-01T00:13:39.000Z</time>
      </trkpt>
      <trkpt lat="39.751114" lon="-8.773612">
        <ele>55.3</ele>
        <time>1970-01-01T00:13:40.000Z</time>
      </trkpt>
      <trkpt lat="39.751145" lon="-8.773571">
        <ele>55.3</ele>
        <time>1970-01-01T00:13:41.000Z</time>
      </trkpt>
      <trkpt lat="39.751176" lon="-8.77353">
        <ele>55.4</ele>
        <time>1970-01-01T00:13:42.000Z</time>
      </trkpt>
      <trkpt lat="39.751207" lon="-8.773488">
        <ele>55.4</ele>
        <time>1970-01-01T00:13:43.000Z</time>
      </trkpt>
      <trkpt lat="39.751239" lon="-8.773448">
        <ele>55.5</ele>
        <time>1970-01-01T00:13:44.000Z</time>
      </trkpt>
      <trkpt lat="39.751272" lon="-8.773408">
        <ele>55.5</ele>
        <time>1970-01-01T00:13:45.000Z</time>
      </trkpt>
      <trkpt lat="39.751307" lon="-8.773368">
        <ele>55.5</ele>
        <time>1970-01-01T00:13:46.000Z</time>
      </trkpt>
      <trkpt lat="39.751343" lon="-8.773328">
        <ele>55.6</ele>
        <time>1970-01-01T00:13:47.000Z</time>
      </trkpt>
      <trkpt lat="39.751379" lon="-8.773285">
        <ele>55.6</ele>
        <time>1970-01-01T00:13:48.000Z</time>
      </trkpt>
      <trkpt lat="39.751415" lon="-8.77324">
        <ele>55.6</ele>
        <time>1970-01-01T00:13:49.000Z</time>
      </trkpt>
      <trkpt lat="39.751451" lon="-8.773195">
        <ele>55.6</ele>
        <time>1970-01-01T00:13:50.000Z</time>
      </trkpt>
      <trkpt lat="39.751488" lon="-8.773148">
        <ele>55.6</ele>
        <time>1970-01-01T00:13:51.000Z</time>
      </trkpt>
      <trkpt lat="39.751525" lon="-8.773101">
        <ele>55.6</ele>
        <time>1970-01-01T00:13:52.000Z</time>
      </trkpt>
      <trkpt lat="39.751563" lon="-8.773055">
        <ele>55.7</ele>
        <time>1970-01-01T00:13:53.000Z</time>
      </trkpt>
      <trkpt lat="39.751602" lon="-8.773014">
        <ele>55.7</ele>
        <time>1970-01-01T00:13:54.000Z</time>
      </trkpt>
      <trkpt lat="39.751642" lon="-8.772981">
        <ele>55.7</ele>
        <time>1970-01-01T00:13:55.000Z</time>
      </trkpt>
      <trkpt lat="39.751683" lon="-8.772955">
        <ele>55.7</ele>
        <time>1970-01-01T00:13:56.000Z</time>
      </trkpt>
      <trkpt lat="39.751727" lon="-8.772938">
        <ele>55.8</ele>
        <time>1970-01-01T00:13:57.000Z</time>
      </trkpt>
      <trkpt lat="39.75177" lon="-8.772929">
        <ele>55.8</ele>
        <time>1970-01-01T00:13:58.000Z</time>
      </trkpt>
      <trkpt lat="39.751813" lon="-8.772929">
        <ele>55.8</ele>
        <time>1970-01-01T00:13:59.000Z</time>
      </trkpt>
      <trkpt lat="39.751855" lon="-8.772937">
        <ele>55.8</ele>
        <time>1970-01-01T00:14:00.000Z</time>
      </trkpt>
      <trkpt lat="39.751896" lon="-8.772951">
        <ele>55.8</ele>
        <time>1970-01-01T00:14:01.000Z</time>
      </trkpt>
      <trkpt lat="39.751939" lon="-8.772968">
        <ele>55.8</ele>
        <time>1970-01-01T00:14:02.000Z</time>
      </trkpt>
      <trkpt lat="39.751981" lon="-8.772988">
        <ele>55.8</ele>
        <time>1970-01-01T00:14:03.000Z</time>
      </trkpt>
      <trkpt lat="39.752024" lon="-8.77301">
        <ele>55.8</ele>
        <time>1970-01-01T00:14:04.000Z</time>
      </trkpt>
      <trkpt lat="39.752066" lon="-8.773033">
        <ele>55.9</ele>
        <time>1970-01-01T00:14:06.000Z</time>
      </trkpt>
      <trkpt lat="39.752108" lon="-8.773056">
        <ele>55.9</ele>
        <time>1970-01-01T00:14:06.000Z</time>
      </trkpt>
      <trkpt lat="39.75215" lon="-8.77308">
        <ele>55.9</ele>
        <time>1970-01-01T00:14:08.000Z</time>
      </trkpt>
      <trkpt lat="39.752195" lon="-8.773107">
        <ele>55.9</ele>
        <time>1970-01-01T00:14:08.000Z</time>
      </trkpt>
      <trkpt lat="39.752238" lon="-8.773133">
        <ele>56</ele>
        <time>1970-01-01T00:14:09.000Z</time>
      </trkpt>
      <trkpt lat="39.752276" lon="-8.773158">
        <ele>56</ele>
        <time>1970-01-01T00:14:11.000Z</time>
      </trkpt>
      <trkpt lat="39.752313" lon="-8.773184">
        <ele>56.1</ele>
        <time>1970-01-01T00:14:11.000Z</time>
      </trkpt>
      <trkpt lat="39.752351" lon="-8.77321">
        <ele>56.1</ele>
        <time>1970-01-01T00:14:12.000Z</time>
      </trkpt>
      <trkpt lat="39.752388" lon="-8.773236">
        <ele>56.2</ele>
        <time>1970-01-01T00:14:14.000Z</time>
      </trkpt>
      <trkpt lat="39.752424" lon="-8.77326">
        <ele>56.2</ele>
        <time>1970-01-01T00:14:14.000Z</time>
      </trkpt>
      <trkpt lat="39.752462" lon="-8.773285">
        <ele>56.3</ele>
        <time>1970-01-01T00:14:15.000Z</time>
      </trkpt>
      <trkpt lat="39.752502" lon="-8.773305">
        <ele>56.3</ele>
        <time>1970-01-01T00:14:16.000Z</time>
      </trkpt>
      <trkpt lat="39.752542" lon="-8.773322">
        <ele>56.4</ele>
        <time>1970-01-01T00:14:17.000Z</time>
      </trkpt>
      <trkpt lat="39.752582" lon="-8.773333">
        <ele>56.4</ele>
        <time>1970-01-01T00:14:18.000Z</time>
      </trkpt>
      <trkpt lat="39.752622" lon="-8.773336">
        <ele>56.4</ele>
        <time>1970-01-01T00:14:20.000Z</time>
      </trkpt>
      <trkpt lat="39.752661" lon="-8.773329">
        <ele>56.5</ele>
        <time>1970-01-01T00:14:20.000Z</time>
      </trkpt>
      <trkpt lat="39.752702" lon="-8.773317">
        <ele>56.5</ele>
        <time>1970-01-01T00:14:21.000Z</time>
      </trkpt>
      <trkpt lat="39.752743" lon="-8.773297">
        <ele>56.6</ele>
        <time>1970-01-01T00:14:22.000Z</time>
      </trkpt>
      <trkpt lat="39.752783" lon="-8.77327">
        <ele>56.6</ele>
        <time>1970-01-01T00:14:23.000Z</time>
      </trkpt>
      <trkpt lat="39.752822" lon="-8.773237">
        <ele>56.6</ele>
        <time>1970-01-01T00:14:24.000Z</time>
      </trkpt>
      <trkpt lat="39.752861" lon="-8.773203">
        <ele>56.7</ele>
        <time>1970-01-01T00:14:25.000Z</time>
      </trkpt>
      <trkpt lat="39.752899" lon="-8.773167">
        <ele>56.7</ele>
        <time>1970-01-01T00:14:26.000Z</time>
      </trkpt>
      <trkpt lat="39.752938" lon="-8.773131">
        <ele>56.7</ele>
        <time>1970-01-01T00:14:27.000Z</time>
      </trkpt>
      <trkpt lat="39.752976" lon="-8.773097">
        <ele>56.8</ele>
        <time>1970-01-01T00:14:28.000Z</time>
      </trkpt>
      <trkpt lat="39.753016" lon="-8.773065">
        <ele>56.8</ele>
        <time>1970-01-01T00:14:29.000Z</time>
      </trkpt>
      <trkpt lat="39.753057" lon="-8.773035">
        <ele>56.8</ele>
        <time>1970-01-01T00:14:30.000Z</time>
      </trkpt>
      <trkpt lat="39.753098" lon="-8.773005">
        <ele>56.9</ele>
        <time>1970-01-01T00:14:31.000Z</time>
      </trkpt>
      <trkpt lat="39.753138" lon="-8.772974">
        <ele>56.9</ele>
        <time>1970-01-01T00:14:32.000Z</time>
      </trkpt>
      <trkpt lat="39.753177" lon="-8.77294">
        <ele>57</ele>
        <time>1970-01-01T00:14:33.000Z</time>
      </trkpt>
      <trkpt lat="39.753214" lon="-8.772903">
        <ele>57</ele>
        <time>1970-01-01T00:14:34.000Z</time>
      </trkpt>
      <trkpt lat="39.753251" lon="-8.772863">
        <ele>57.1</ele>
        <time>1970-01-01T00:14:36.000Z</time>
      </trkpt>
      <trkpt lat="39.753284" lon="-8.772821">
        <ele>57.1</ele>
        <time>1970-01-01T00:14:36.000Z</time>
      </trkpt>
      <trkpt lat="39.753318" lon="-8.772779">
        <ele>57.1</ele>
        <time>1970-01-01T00:14:38.000Z</time>
      </trkpt>
      <trkpt lat="39.753353" lon="-8.772739">
        <ele>57.2</ele>
        <time>1970-01-01T00:14:38.000Z</time>
      </trkpt>
      <trkpt lat="39.753392" lon="-8.772702">
        <ele>57.2</ele>
        <time>1970-01-01T00:14:39.000Z</time>
      </trkpt>
      <trkpt lat="39.753433" lon="-8.77267">
        <ele>57.3</ele>
        <time>1970-01-01T00:14:40.000Z</time>
      </trkpt>
      <trkpt lat="39.753476" lon="-8.772641">
        <ele>57.3</ele>
        <time>1970-01-01T00:14:42.000Z</time>
      </trkpt>
      <trkpt lat="39.753519" lon="-8.772616">
        <ele>57.4</ele>
        <time>1970-01-01T00:14:43.000Z</time>
      </trkpt>
      <trkpt lat="39.753561" lon="-8.772593">
        <ele>57.4</ele>
        <time>1970-01-01T00:14:43.000Z</time>
      </trkpt>
      <trkpt lat="39.753604" lon="-8.772575">
        <ele>57.4</ele>
        <time>1970-01-01T00:14:44.000Z</time>
      </trkpt>
      <trkpt lat="39.753647" lon="-8.77256">
        <ele>57.5</ele>
        <time>1970-01-01T00:14:45.000Z</time>
      </trkpt>
      <trkpt lat="39.753691" lon="-8.772546">
        <ele>57.5</ele>
        <time>1970-01-01T00:14:46.000Z</time>
      </trkpt>
      <trkpt lat="39.753734" lon="-8.772531">
        <ele>57.6</ele>
        <time>1970-01-01T00:14:47.000Z</time>
      </trkpt>
      <trkpt lat="39.753777" lon="-8.772514">
        <ele>57.6</ele>
        <time>1970-01-01T00:14:48.000Z</time>
      </trkpt>
      <trkpt lat="39.753817" lon="-8.772491">
        <ele>57.6</ele>
        <time>1970-01-01T00:14:49.000Z</time>
      </trkpt>
      <trkpt lat="39.753855" lon="-8.772461">
        <ele>57.7</ele>
        <time>1970-01-01T00:14:50.000Z</time>
      </trkpt>
      <trkpt lat="39.753888" lon="-8.772421">
        <ele>57.7</ele>
        <time>1970-01-01T00:14:51.000Z</time>
      </trkpt>
      <trkpt lat="39.753913" lon="-8.772375">
        <ele>57.7</ele>
        <time>1970-01-01T00:14:52.000Z</time>
      </trkpt>
      <trkpt lat="39.75393" lon="-8.772324">
        <ele>57.7</ele>
        <time>1970-01-01T00:14:53.000Z</time>
      </trkpt>
      <trkpt lat="39.753943" lon="-8.77227">
        <ele>57.7</ele>
        <time>1970-01-01T00:14:54.000Z</time>
      </trkpt>
      <trkpt lat="39.753952" lon="-8.772214">
        <ele>57.7</ele>
        <time>1970-01-01T00:14:56.000Z</time>
      </trkpt>
      <trkpt lat="39.753956" lon="-8.772155">
        <ele>57.7</ele>
        <time>1970-01-01T00:14:56.000Z</time>
      </trkpt>
      <trkpt lat="39.753956" lon="-8.772096">
        <ele>57.7</ele>
        <time>1970-01-01T00:14:57.000Z</time>
      </trkpt>
      <trkpt lat="39.753953" lon="-8.772037">
        <ele>57.7</ele>
        <time>1970-01-01T00:14:58.000Z</time>
      </trkpt>
      <trkpt lat="39.753947" lon="-8.77198">
        <ele>57.7</ele>
        <time>1970-01-01T00:14:59.000Z</time>
      </trkpt>
      <trkpt lat="39.753938" lon="-8.771924">
        <ele>57.7</ele>
        <time>1970-01-01T00:15:01.000Z</time>
      </trkpt>
      <trkpt lat="39.753928" lon="-8.771867">
        <ele>57.7</ele>
        <time>1970-01-01T00:15:02.000Z</time>
      </trkpt>
      <trkpt lat="39.753915" lon="-8.771811">
        <ele>57.8</ele>
        <time>1970-01-01T00:15:02.000Z</time>
      </trkpt>
      <trkpt lat="39.753902" lon="-8.771756">
        <ele>57.8</ele>
        <time>1970-01-01T00:15:03.000Z</time>
      </trkpt>
      <trkpt lat="39.753887" lon="-8.771701">
        <ele>57.8</ele>
        <time>1970-01-01T00:15:05.000Z</time>
      </trkpt>
      <trkpt lat="39.753869" lon="-8.771644">
        <ele>57.8</ele>
        <time>1970-01-01T00:15:05.000Z</time>
      </trkpt>
      <trkpt lat="39.75385" lon="-8.771586">
        <ele>57.8</ele>
        <time>1970-01-01T00:15:06.000Z</time>
      </trkpt>
      <trkpt lat="39.753829" lon="-8.771528">
        <ele>57.9</ele>
        <time>1970-01-01T00:15:07.000Z</time>
      </trkpt>
      <trkpt lat="39.75381" lon="-8.771469">
        <ele>57.9</ele>
        <time>1970-01-01T00:15:08.000Z</time>
      </trkpt>
      <trkpt lat="39.753792" lon="-8.771411">
        <ele>57.9</ele>
        <time>1970-01-01T00:15:09.000Z</time>
      </trkpt>
      <trkpt lat="39.753776" lon="-8.771348">
        <ele>57.9</ele>
        <time>1970-01-01T00:15:10.000Z</time>
      </trkpt>
      <trkpt lat="39.753762" lon="-8.771288">
        <ele>58</ele>
        <time>1970-01-01T00:15:11.000Z</time>
      </trkpt>
      <trkpt lat="39.753752" lon="-8.771231">
        <ele>58</ele>
        <time>1970-01-01T00:15:12.000Z</time>
      </trkpt>
      <trkpt lat="39.753741" lon="-8.771169">
        <ele>58</ele>
        <time>1970-01-01T00:15:13.000Z</time>
      </trkpt>
      <trkpt lat="39.753727" lon="-8.771105">
        <ele>58.1</ele>
        <time>1970-01-01T00:15:15.000Z</time>
      </trkpt>
      <trkpt lat="39.753708" lon="-8.771038">
        <ele>58.1</ele>
        <time>1970-01-01T00:15:16.000Z</time>
      </trkpt>
      <trkpt lat="39.753684" lon="-8.770978">
        <ele>58.1</ele>
        <time>1970-01-01T00:15:16.000Z</time>
      </trkpt>
      <trkpt lat="39.753654" lon="-8.770923">
        <ele>58.2</ele>
        <time>1970-01-01T00:15:17.000Z</time>
      </trkpt>
      <trkpt lat="39.753621" lon="-8.770872">
        <ele>58.2</ele>
        <time>1970-01-01T00:15:19.000Z</time>
      </trkpt>
      <trkpt lat="39.753585" lon="-8.770822">
        <ele>58.2</ele>
        <time>1970-01-01T00:15:19.000Z</time>
      </trkpt>
      <trkpt lat="39.753549" lon="-8.770772">
        <ele>58.3</ele>
        <time>1970-01-01T00:15:21.000Z</time>
      </trkpt>
      <trkpt lat="39.753517" lon="-8.770722">
        <ele>58.3</ele>
        <time>1970-01-01T00:15:21.000Z</time>
      </trkpt>
      <trkpt lat="39.75349" lon="-8.770673">
        <ele>58.3</ele>
        <time>1970-01-01T00:15:23.000Z</time>
      </trkpt>
      <trkpt lat="39.753468" lon="-8.770624">
        <ele>58.4</ele>
        <time>1970-01-01T00:15:23.000Z</time>
      </trkpt>
      <trkpt lat="39.753453" lon="-8.770574">
        <ele>58.4</ele>
        <time>1970-01-01T00:15:24.000Z</time>
      </trkpt>
      <trkpt lat="39.753444" lon="-8.770524">
        <ele>58.4</ele>
        <time>1970-01-01T00:15:25.000Z</time>
      </trkpt>
      <trkpt lat="39.753439" lon="-8.770471">
        <ele>58.4</ele>
        <time>1970-01-01T00:15:26.000Z</time>
      </trkpt>
      <trkpt lat="39.75344" lon="-8.770416">
        <ele>58.4</ele>
        <time>1970-01-01T00:15:27.000Z</time>
      </trkpt>
      <trkpt lat="39.753446" lon="-8.770359">
        <ele>58.5</ele>
        <time>1970-01-01T00:15:28.000Z</time>
      </trkpt>
      <trkpt lat="39.753455" lon="-8.7703">
        <ele>58.5</ele>
        <time>1970-01-01T00:15:29.000Z</time>
      </trkpt>
      <trkpt lat="39.753468" lon="-8.770238">
        <ele>58.5</ele>
        <time>1970-01-01T00:15:30.000Z</time>
      </trkpt>
      <trkpt lat="39.753484" lon="-8.770176">
        <ele>58.5</ele>
        <time>1970-01-01T00:15:32.000Z</time>
      </trkpt>
      <trkpt lat="39.753503" lon="-8.770112">
        <ele>58.5</ele>
        <time>1970-01-01T00:15:32.000Z</time>
      </trkpt>
      <trkpt lat="39.753523" lon="-8.770047">
        <ele>58.5</ele>
        <time>1970-01-01T00:15:33.000Z</time>
      </trkpt>
      <trkpt lat="39.753544" lon="-8.769985">
        <ele>58.5</ele>
        <time>1970-01-01T00:15:34.000Z</time>
      </trkpt>
      <trkpt lat="39.753566" lon="-8.769926">
        <ele>58.5</ele>
        <time>1970-01-01T00:15:35.000Z</time>
      </trkpt>
      <trkpt lat="39.753589" lon="-8.76987">
        <ele>58.5</ele>
        <time>1970-01-01T00:15:36.000Z</time>
      </trkpt>
      <trkpt lat="39.753615" lon="-8.769818">
        <ele>58.5</ele>
        <time>1970-01-01T00:15:37.000Z</time>
      </trkpt>
      <trkpt lat="39.753646" lon="-8.769765">
        <ele>58.6</ele>
        <time>1970-01-01T00:15:38.000Z</time>
      </trkpt>
      <trkpt lat="39.753675" lon="-8.769715">
        <ele>58.6</ele>
        <time>1970-01-01T00:15:39.000Z</time>
      </trkpt>
      <trkpt lat="39.753707" lon="-8.769669">
        <ele>58.6</ele>
        <time>1970-01-01T00:15:40.000Z</time>
      </trkpt>
      <trkpt lat="39.753854" lon="-8.769509">
        <ele>58.7</ele>
        <time>1970-01-01T00:15:42.000Z</time>
      </trkpt>
      <trkpt lat="39.753866" lon="-8.769504">
        <ele>58.7</ele>
        <time>1970-01-01T00:15:43.000Z</time>
      </trkpt>
      <trkpt lat="39.75389" lon="-8.769496">
        <ele>58.7</ele>
        <time>1970-01-01T00:15:44.000Z</time>
      </trkpt>
      <trkpt lat="39.753923" lon="-8.769487">
        <ele>58.7</ele>
        <time>1970-01-01T00:15:45.000Z</time>
      </trkpt>
      <trkpt lat="39.75396" lon="-8.769473">
        <ele>58.7</ele>
        <time>1970-01-01T00:15:46.000Z</time>
      </trkpt>
      <trkpt lat="39.753998" lon="-8.769456">
        <ele>58.8</ele>
        <time>1970-01-01T00:15:48.000Z</time>
      </trkpt>
      <trkpt lat="39.754038" lon="-8.769436">
        <ele>58.8</ele>
        <time>1970-01-01T00:15:48.000Z</time>
      </trkpt>
      <trkpt lat="39.754078" lon="-8.769413">
        <ele>58.8</ele>
        <time>1970-01-01T00:15:49.000Z</time>
      </trkpt>
      <trkpt lat="39.754117" lon="-8.769388">
        <ele>58.8</ele>
        <time>1970-01-01T00:15:50.000Z</time>
      </trkpt>
      <trkpt lat="39.754154" lon="-8.769361">
        <ele>58.9</ele>
        <time>1970-01-01T00:15:51.000Z</time>
      </trkpt>
      <trkpt lat="39.75419" lon="-8.769332">
        <ele>58.9</ele>
        <time>1970-01-01T00:15:52.000Z</time>
      </trkpt>
      <trkpt lat="39.754223" lon="-8.769297">
        <ele>58.9</ele>
        <time>1970-01-01T00:15:53.000Z</time>
      </trkpt>
      <trkpt lat="39.754254" lon="-8.769258">
        <ele>59</ele>
        <time>1970-01-01T00:15:54.000Z</time>
      </trkpt>
      <trkpt lat="39.754283" lon="-8.769215">
        <ele>59</ele>
        <time>1970-01-01T00:15:55.000Z</time>
      </trkpt>
      <trkpt lat="39.754311" lon="-8.769173">
        <ele>59</ele>
        <time>1970-01-01T00:15:56.000Z</time>
      </trkpt>
      <trkpt lat="39.754338" lon="-8.769125">
        <ele>59</ele>
        <time>1970-01-01T00:15:57.000Z</time>
      </trkpt>
      <trkpt lat="39.754361" lon="-8.769081">
        <ele>59</ele>
        <time>1970-01-01T00:15:58.000Z</time>
      </trkpt>
      <trkpt lat="39.754381" lon="-8.769034">
        <ele>59</ele>
        <time>1970-01-01T00:15:59.000Z</time>
      </trkpt>
      <trkpt lat="39.7544" lon="-8.768985">
        <ele>59</ele>
        <time>1970-01-01T00:16:00.000Z</time>
      </trkpt>
      <trkpt lat="39.754418" lon="-8.768932">
        <ele>59</ele>
        <time>1970-01-01T00:16:02.000Z</time>
      </trkpt>
      <trkpt lat="39.754437" lon="-8.768879">
        <ele>59</ele>
        <time>1970-01-01T00:16:03.000Z</time>
      </trkpt>
      <trkpt lat="39.754453" lon="-8.768825">
        <ele>59.1</ele>
        <time>1970-01-01T00:16:03.000Z</time>
      </trkpt>
      <trkpt lat="39.754463" lon="-8.768772">
        <ele>59.1</ele>
        <time>1970-01-01T00:16:04.000Z</time>
      </trkpt>
      <trkpt lat="39.754475" lon="-8.768718">
        <ele>59.1</ele>
        <time>1970-01-01T00:16:05.000Z</time>
      </trkpt>
      <trkpt lat="39.754486" lon="-8.768665">
        <ele>59.1</ele>
        <time>1970-01-01T00:16:06.000Z</time>
      </trkpt>
      <trkpt lat="39.754498" lon="-8.768614">
        <ele>59.2</ele>
        <time>1970-01-01T00:16:07.000Z</time>
      </trkpt>
      <trkpt lat="39.754508" lon="-8.768563">
        <ele>59.2</ele>
        <time>1970-01-01T00:16:08.000Z</time>
      </trkpt>
      <trkpt lat="39.754517" lon="-8.76851">
        <ele>59.2</ele>
        <time>1970-01-01T00:16:09.000Z</time>
      </trkpt>
      <trkpt lat="39.754524" lon="-8.768455">
        <ele>59.2</ele>
        <time>1970-01-01T00:16:10.000Z</time>
      </trkpt>
      <trkpt lat="39.75453" lon="-8.768399">
        <ele>59.3</ele>
        <time>1970-01-01T00:16:11.000Z</time>
      </trkpt>
      <trkpt lat="39.754535" lon="-8.768343">
        <ele>59.3</ele>
        <time>1970-01-01T00:16:13.000Z</time>
      </trkpt>
      <trkpt lat="39.75454" lon="-8.768287">
        <ele>59.3</ele>
        <time>1970-01-01T00:16:13.000Z</time>
      </trkpt>
      <trkpt lat="39.754546" lon="-8.768231">
        <ele>59.4</ele>
        <time>1970-01-01T00:16:14.000Z</time>
      </trkpt>
      <trkpt lat="39.754551" lon="-8.768173">
        <ele>59.4</ele>
        <time>1970-01-01T00:16:15.000Z</time>
      </trkpt>
      <trkpt lat="39.754557" lon="-8.768116">
        <ele>59.4</ele>
        <time>1970-01-01T00:16:16.000Z</time>
      </trkpt>
      <trkpt lat="39.754566" lon="-8.768057">
        <ele>59.5</ele>
        <time>1970-01-01T00:16:17.000Z</time>
      </trkpt>
      <trkpt lat="39.754575" lon="-8.767997">
        <ele>59.6</ele>
        <time>1970-01-01T00:16:18.000Z</time>
      </trkpt>
      <trkpt lat="39.754585" lon="-8.767939">
        <ele>59.6</ele>
        <time>1970-01-01T00:16:19.000Z</time>
      </trkpt>
      <trkpt lat="39.754598" lon="-8.76788">
        <ele>59.7</ele>
        <time>1970-01-01T00:16:20.000Z</time>
      </trkpt>
      <trkpt lat="39.754611" lon="-8.767827">
        <ele>59.7</ele>
        <time>1970-01-01T00:16:21.000Z</time>
      </trkpt>
      <trkpt lat="39.754624" lon="-8.767774">
        <ele>59.7</ele>
        <time>1970-01-01T00:16:22.000Z</time>
      </trkpt>
      <trkpt lat="39.754638" lon="-8.767719">
        <ele>59.7</ele>
        <time>1970-01-01T00:16:23.000Z</time>
      </trkpt>
      <trkpt lat="39.754654" lon="-8.767663">
        <ele>59.7</ele>
        <time>1970-01-01T00:16:24.000Z</time>
      </trkpt>
      <trkpt lat="39.754672" lon="-8.767608">
        <ele>59.7</ele>
        <time>1970-01-01T00:16:25.000Z</time>
      </trkpt>
      <trkpt lat="39.754691" lon="-8.767551">
        <ele>59.6</ele>
        <time>1970-01-01T00:16:26.000Z</time>
      </trkpt>
      <trkpt lat="39.754711" lon="-8.767493">
        <ele>59.6</ele>
        <time>1970-01-01T00:16:27.000Z</time>
      </trkpt>
      <trkpt lat="39.754729" lon="-8.767431">
        <ele>59.6</ele>
        <time>1970-01-01T00:16:28.000Z</time>
      </trkpt>
      <trkpt lat="39.754743" lon="-8.767369">
        <ele>59.6</ele>
        <time>1970-01-01T00:16:29.000Z</time>
      </trkpt>
      <trkpt lat="39.75475" lon="-8.767307">
        <ele>59.6</ele>
        <time>1970-01-01T00:16:30.000Z</time>
      </trkpt>
      <trkpt lat="39.754749" lon="-8.767243">
        <ele>59.5</ele>
        <time>1970-01-01T00:16:31.000Z</time>
      </trkpt>
      <trkpt lat="39.75474" lon="-8.767182">
        <ele>59.5</ele>
        <time>1970-01-01T00:16:32.000Z</time>
      </trkpt>
      <trkpt lat="39.754723" lon="-8.767125">
        <ele>59.5</ele>
        <time>1970-01-01T00:16:33.000Z</time>
      </trkpt>
      <trkpt lat="39.754699" lon="-8.767071">
        <ele>59.4</ele>
        <time>1970-01-01T00:16:35.000Z</time>
      </trkpt>
      <trkpt lat="39.754674" lon="-8.767022">
        <ele>59.4</ele>
        <time>1970-01-01T00:16:36.000Z</time>
      </trkpt>
      <trkpt lat="39.754641" lon="-8.766972">
        <ele>59.4</ele>
        <time>1970-01-01T00:16:36.000Z</time>
      </trkpt>
      <trkpt lat="39.754609" lon="-8.76693">
        <ele>59.3</ele>
        <time>1970-01-01T00:16:37.000Z</time>
      </trkpt>
      <trkpt lat="39.754576" lon="-8.766891">
        <ele>59.3</ele>
        <time>1970-01-01T00:16:38.000Z</time>
      </trkpt>
      <trkpt lat="39.754537" lon="-8.766849">
        <ele>59.3</ele>
        <time>1970-01-01T00:16:39.000Z</time>
      </trkpt>
      <trkpt lat="39.754495" lon="-8.766808">
        <ele>59.3</ele>
        <time>1970-01-01T00:16:40.000Z</time>
      </trkpt>
      <trkpt lat="39.754454" lon="-8.766769">
        <ele>59.3</ele>
        <time>1970-01-01T00:16:41.000Z</time>
      </trkpt>
      <trkpt lat="39.754416" lon="-8.766733">
        <ele>59.3</ele>
        <time>1970-01-01T00:16:42.000Z</time>
      </trkpt>
      <trkpt lat="39.754374" lon="-8.766695">
        <ele>59.3</ele>
        <time>1970-01-01T00:16:43.000Z</time>
      </trkpt>
      <trkpt lat="39.754332" lon="-8.766658">
        <ele>59.3</ele>
        <time>1970-01-01T00:16:44.000Z</time>
      </trkpt>
      <trkpt lat="39.754291" lon="-8.766621">
        <ele>59.3</ele>
        <time>1970-01-01T00:16:45.000Z</time>
      </trkpt>
      <trkpt lat="39.754251" lon="-8.766585">
        <ele>59.3</ele>
        <time>1970-01-01T00:16:46.000Z</time>
      </trkpt>
      <trkpt lat="39.754212" lon="-8.766548">
        <ele>59.3</ele>
        <time>1970-01-01T00:16:47.000Z</time>
      </trkpt>
      <trkpt lat="39.754173" lon="-8.76651">
        <ele>59.3</ele>
        <time>1970-01-01T00:16:48.000Z</time>
      </trkpt>
      <trkpt lat="39.754133" lon="-8.766471">
        <ele>59.3</ele>
        <time>1970-01-01T00:16:50.000Z</time>
      </trkpt>
      <trkpt lat="39.754091" lon="-8.766432">
        <ele>59.3</ele>
        <time>1970-01-01T00:16:50.000Z</time>
      </trkpt>
      <trkpt lat="39.754048" lon="-8.766392">
        <ele>59.3</ele>
        <time>1970-01-01T00:16:51.000Z</time>
      </trkpt>
      <trkpt lat="39.754004" lon="-8.766349">
        <ele>59.3</ele>
        <time>1970-01-01T00:16:52.000Z</time>
      </trkpt>
      <trkpt lat="39.753961" lon="-8.766303">
        <ele>59.3</ele>
        <time>1970-01-01T00:16:53.000Z</time>
      </trkpt>
      <trkpt lat="39.753923" lon="-8.766255">
        <ele>59.4</ele>
        <time>1970-01-01T00:16:54.000Z</time>
      </trkpt>
      <trkpt lat="39.753891" lon="-8.766205">
        <ele>59.4</ele>
        <time>1970-01-01T00:16:55.000Z</time>
      </trkpt>
      <trkpt lat="39.753866" lon="-8.766152">
        <ele>59.5</ele>
        <time>1970-01-01T00:16:56.000Z</time>
      </trkpt>
      <trkpt lat="39.75385" lon="-8.766099">
        <ele>59.6</ele>
        <time>1970-01-01T00:16:57.000Z</time>
      </trkpt>
      <trkpt lat="39.753845" lon="-8.766043">
        <ele>59.6</ele>
        <time>1970-01-01T00:16:58.000Z</time>
      </trkpt>
      <trkpt lat="39.753849" lon="-8.765988">
        <ele>59.6</ele>
        <time>1970-01-01T00:16:59.000Z</time>
      </trkpt>
      <trkpt lat="39.753862" lon="-8.765934">
        <ele>59.7</ele>
        <time>1970-01-01T00:17:00.000Z</time>
      </trkpt>
      <trkpt lat="39.753887" lon="-8.765881">
        <ele>59.7</ele>
        <time>1970-01-01T00:17:01.000Z</time>
      </trkpt>
      <trkpt lat="39.753915" lon="-8.765837">
        <ele>59.7</ele>
        <time>1970-01-01T00:17:02.000Z</time>
      </trkpt>
      <trkpt lat="39.753947" lon="-8.765794">
        <ele>59.7</ele>
        <time>1970-01-01T00:17:03.000Z</time>
      </trkpt>
      <trkpt lat="39.753984" lon="-8.765753">
        <ele>59.8</ele>
        <time>1970-01-01T00:17:04.000Z</time>
      </trkpt>
      <trkpt lat="39.754025" lon="-8.765716">
        <ele>59.8</ele>
        <time>1970-01-01T00:17:05.000Z</time>
      </trkpt>
      <trkpt lat="39.754068" lon="-8.765682">
        <ele>59.8</ele>
        <time>1970-01-01T00:17:06.000Z</time>
      </trkpt>
      <trkpt lat="39.75411" lon="-8.765652">
        <ele>59.9</ele>
        <time>1970-01-01T00:17:07.000Z</time>
      </trkpt>
      <trkpt lat="39.754153" lon="-8.765623">
        <ele>59.9</ele>
        <time>1970-01-01T00:17:08.000Z</time>
      </trkpt>
      <trkpt lat="39.754197" lon="-8.765593">
        <ele>60</ele>
        <time>1970-01-01T00:17:09.000Z</time>
      </trkpt>
      <trkpt lat="39.754241" lon="-8.765559">
        <ele>60</ele>
        <time>1970-01-01T00:17:10.000Z</time>
      </trkpt>
      <trkpt lat="39.754281" lon="-8.765522">
        <ele>60</ele>
        <time>1970-01-01T00:17:11.000Z</time>
      </trkpt>
      <trkpt lat="39.754315" lon="-8.765481">
        <ele>60.1</ele>
        <time>1970-01-01T00:17:12.000Z</time>
      </trkpt>
      <trkpt lat="39.754348" lon="-8.765441">
        <ele>60.1</ele>
        <time>1970-01-01T00:17:13.000Z</time>
      </trkpt>
      <trkpt lat="39.754381" lon="-8.765395">
        <ele>60.1</ele>
        <time>1970-01-01T00:17:14.000Z</time>
      </trkpt>
      <trkpt lat="39.754411" lon="-8.765342">
        <ele>60.1</ele>
        <time>1970-01-01T00:17:15.000Z</time>
      </trkpt>
      <trkpt lat="39.754442" lon="-8.765288">
        <ele>60.1</ele>
        <time>1970-01-01T00:17:16.000Z</time>
      </trkpt>
      <trkpt lat="39.754469" lon="-8.765235">
        <ele>60.2</ele>
        <time>1970-01-01T00:17:17.000Z</time>
      </trkpt>
      <trkpt lat="39.754496" lon="-8.76518">
        <ele>60.2</ele>
        <time>1970-01-01T00:17:18.000Z</time>
      </trkpt>
      <trkpt lat="39.75452" lon="-8.765126">
        <ele>60.2</ele>
        <time>1970-01-01T00:17:19.000Z</time>
      </trkpt>
      <trkpt lat="39.754543" lon="-8.76507">
        <ele>60.2</ele>
        <time>1970-01-01T00:17:20.000Z</time>
      </trkpt>
      <trkpt lat="39.754563" lon="-8.765012">
        <ele>60.3</ele>
        <time>1970-01-01T00:17:22.000Z</time>
      </trkpt>
      <trkpt lat="39.754581" lon="-8.764953">
        <ele>60.3</ele>
        <time>1970-01-01T00:17:22.000Z</time>
      </trkpt>
      <trkpt lat="39.754598" lon="-8.76489">
        <ele>60.3</ele>
        <time>1970-01-01T00:17:23.000Z</time>
      </trkpt>
      <trkpt lat="39.754612" lon="-8.764828">
        <ele>60.4</ele>
        <time>1970-01-01T00:17:25.000Z</time>
      </trkpt>
      <trkpt lat="39.754623" lon="-8.764765">
        <ele>60.4</ele>
        <time>1970-01-01T00:17:25.000Z</time>
      </trkpt>
      <trkpt lat="39.754634" lon="-8.7647">
        <ele>60.5</ele>
        <time>1970-01-01T00:17:26.000Z</time>
      </trkpt>
      <trkpt lat="39.754645" lon="-8.764638">
        <ele>60.6</ele>
        <time>1970-01-01T00:17:28.000Z</time>
      </trkpt>
      <trkpt lat="39.754651" lon="-8.764577">
        <ele>60.6</ele>
        <time>1970-01-01T00:17:28.000Z</time>
      </trkpt>
      <trkpt lat="39.754657" lon="-8.764518">
        <ele>60.7</ele>
        <time>1970-01-01T00:17:29.000Z</time>
      </trkpt>
      <trkpt lat="39.754663" lon="-8.76446">
        <ele>60.8</ele>
        <time>1970-01-01T00:17:30.000Z</time>
      </trkpt>
      <trkpt lat="39.754667" lon="-8.764404">
        <ele>60.9</ele>
        <time>1970-01-01T00:17:31.000Z</time>
      </trkpt>
      <trkpt lat="39.754671" lon="-8.764348">
        <ele>60.9</ele>
        <time>1970-01-01T00:17:32.000Z</time>
      </trkpt>
      <trkpt lat="39.754675" lon="-8.764292">
        <ele>61</ele>
        <time>1970-01-01T00:17:33.000Z</time>
      </trkpt>
      <trkpt lat="39.754678" lon="-8.764236">
        <ele>61.1</ele>
        <time>1970-01-01T00:17:34.000Z</time>
      </trkpt>
      <trkpt lat="39.754679" lon="-8.764179">
        <ele>61.2</ele>
        <time>1970-01-01T00:17:35.000Z</time>
      </trkpt>
      <trkpt lat="39.754679" lon="-8.764123">
        <ele>61.4</ele>
        <time>1970-01-01T00:17:36.000Z</time>
      </trkpt>
      <trkpt lat="39.754679" lon="-8.764067">
        <ele>61.5</ele>
        <time>1970-01-01T00:17:37.000Z</time>
      </trkpt>
      <trkpt lat="39.75468" lon="-8.764012">
        <ele>61.6</ele>
        <time>1970-01-01T00:17:38.000Z</time>
      </trkpt>
      <trkpt lat="39.754682" lon="-8.763959">
        <ele>61.8</ele>
        <time>1970-01-01T00:17:40.000Z</time>
      </trkpt>
      <trkpt lat="39.754681" lon="-8.763908">
        <ele>62</ele>
        <time>1970-01-01T00:17:41.000Z</time>
      </trkpt>
      <trkpt lat="39.754679" lon="-8.76386">
        <ele>62.1</ele>
        <time>1970-01-01T00:17:42.000Z</time>
      </trkpt>
      <trkpt lat="39.754677" lon="-8.763814">
        <ele>62.3</ele>
        <time>1970-01-01T00:17:42.000Z</time>
      </trkpt>
      <trkpt lat="39.754673" lon="-8.763767">
        <ele>62.4</ele>
        <time>1970-01-01T00:17:43.000Z</time>
      </trkpt>
      <trkpt lat="39.754668" lon="-8.763719">
        <ele>62.6</ele>
        <time>1970-01-01T00:17:44.000Z</time>
      </trkpt>
      <trkpt lat="39.754662" lon="-8.763669">
        <ele>62.7</ele>
        <time>1970-01-01T00:17:45.000Z</time>
      </trkpt>
      <trkpt lat="39.754654" lon="-8.763618">
        <ele>62.9</ele>
        <time>1970-01-01T00:17:47.000Z</time>
      </trkpt>
      <trkpt lat="39.754646" lon="-8.763569">
        <ele>63.1</ele>
        <time>1970-01-01T00:17:47.000Z</time>
      </trkpt>
      <trkpt lat="39.754642" lon="-8.763515">
        <ele>63.3</ele>
        <time>1970-01-01T00:17:48.000Z</time>
      </trkpt>
      <trkpt lat="39.754639" lon="-8.763459">
        <ele>63.4</ele>
        <time>1970-01-01T00:17:49.000Z</time>
      </trkpt>
      <trkpt lat="39.754639" lon="-8.763404">
        <ele>63.5</ele>
        <time>1970-01-01T00:17:50.000Z</time>
      </trkpt>
      <trkpt lat="39.754637" lon="-8.763346">
        <ele>63.6</ele>
        <time>1970-01-01T00:17:52.000Z</time>
      </trkpt>
      <trkpt lat="39.754635" lon="-8.763289">
        <ele>63.7</ele>
        <time>1970-01-01T00:17:52.000Z</time>
      </trkpt>
      <trkpt lat="39.754635" lon="-8.763231">
        <ele>63.8</ele>
        <time>1970-01-01T00:17:54.000Z</time>
      </trkpt>
      <trkpt lat="39.754636" lon="-8.763174">
        <ele>63.9</ele>
        <time>1970-01-01T00:17:54.000Z</time>
      </trkpt>
      <trkpt lat="39.754639" lon="-8.763118">
        <ele>64</ele>
        <time>1970-01-01T00:17:55.000Z</time>
      </trkpt>
      <trkpt lat="39.754641" lon="-8.763065">
        <ele>64.1</ele>
        <time>1970-01-01T00:17:56.000Z</time>
      </trkpt>
      <trkpt lat="39.754643" lon="-8.763012">
        <ele>64.2</ele>
        <time>1970-01-01T00:17:57.000Z</time>
      </trkpt>
      <trkpt lat="39.754643" lon="-8.762962">
        <ele>64.2</ele>
        <time>1970-01-01T00:17:58.000Z</time>
      </trkpt>
      <trkpt lat="39.754641" lon="-8.762911">
        <ele>64.3</ele>
        <time>1970-01-01T00:17:59.000Z</time>
      </trkpt>
      <trkpt lat="39.754639" lon="-8.762861">
        <ele>64.4</ele>
        <time>1970-01-01T00:18:00.000Z</time>
      </trkpt>
      <trkpt lat="39.754635" lon="-8.762813">
        <ele>64.6</ele>
        <time>1970-01-01T00:18:01.000Z</time>
      </trkpt>
      <trkpt lat="39.754632" lon="-8.762764">
        <ele>64.7</ele>
        <time>1970-01-01T00:18:02.000Z</time>
      </trkpt>
      <trkpt lat="39.754627" lon="-8.762716">
        <ele>64.8</ele>
        <time>1970-01-01T00:18:03.000Z</time>
      </trkpt>
      <trkpt lat="39.754621" lon="-8.762668">
        <ele>65</ele>
        <time>1970-01-01T00:18:04.000Z</time>
      </trkpt>
      <trkpt lat="39.754616" lon="-8.762622">
        <ele>65.2</ele>
        <time>1970-01-01T00:18:05.000Z</time>
      </trkpt>
      <trkpt lat="39.75461" lon="-8.762576">
        <ele>65.3</ele>
        <time>1970-01-01T00:18:06.000Z</time>
      </trkpt>
      <trkpt lat="39.754602" lon="-8.762529">
        <ele>65.5</ele>
        <time>1970-01-01T00:18:07.000Z</time>
      </trkpt>
      <trkpt lat="39.75459" lon="-8.762465">
        <ele>65.8</ele>
        <time>1970-01-01T00:18:09.000Z</time>
      </trkpt>
      <trkpt lat="39.754586" lon="-8.762445">
        <ele>65.9</ele>
        <time>1970-01-01T00:18:09.000Z</time>
      </trkpt>
      <trkpt lat="39.754581" lon="-8.762406">
        <ele>66.1</ele>
        <time>1970-01-01T00:18:10.000Z</time>
      </trkpt>
      <trkpt lat="39.754577" lon="-8.762371">
        <ele>66.3</ele>
        <time>1970-01-01T00:18:11.000Z</time>
      </trkpt>
      <trkpt lat="39.754574" lon="-8.762338">
        <ele>66.5</ele>
        <time>1970-01-01T00:18:12.000Z</time>
      </trkpt>
      <trkpt lat="39.754577" lon="-8.762286">
        <ele>67.4</ele>
        <time>1970-01-01T00:18:14.000Z</time>
      </trkpt>
      <trkpt lat="39.754578" lon="-8.762279">
        <ele>67.5</ele>
        <time>1970-01-01T00:18:14.000Z</time>
      </trkpt>
      <trkpt lat="39.754585" lon="-8.762256">
        <ele>67.6</ele>
        <time>1970-01-01T00:18:15.000Z</time>
      </trkpt>
      <trkpt lat="39.754594" lon="-8.762234">
        <ele>67.8</ele>
        <time>1970-01-01T00:18:16.000Z</time>
      </trkpt>
      <trkpt lat="39.754606" lon="-8.762213">
        <ele>67.9</ele>
        <time>1970-01-01T00:18:18.000Z</time>
      </trkpt>
      <trkpt lat="39.75462" lon="-8.762191">
        <ele>68.1</ele>
        <time>1970-01-01T00:18:19.000Z</time>
      </trkpt>
      <trkpt lat="39.754636" lon="-8.762165">
        <ele>68.2</ele>
        <time>1970-01-01T00:18:19.000Z</time>
      </trkpt>
      <trkpt lat="39.754658" lon="-8.762125">
        <ele>68.4</ele>
        <time>1970-01-01T00:18:21.000Z</time>
      </trkpt>
      <trkpt lat="39.754667" lon="-8.762109">
        <ele>68.4</ele>
        <time>1970-01-01T00:18:21.000Z</time>
      </trkpt>
      <trkpt lat="39.754686" lon="-8.762081">
        <ele>68.5</ele>
        <time>1970-01-01T00:18:22.000Z</time>
      </trkpt>
      <trkpt lat="39.754705" lon="-8.762052">
        <ele>68.5</ele>
        <time>1970-01-01T00:18:23.000Z</time>
      </trkpt>
      <trkpt lat="39.754725" lon="-8.762025">
        <ele>68.5</ele>
        <time>1970-01-01T00:18:24.000Z</time>
      </trkpt>
      <trkpt lat="39.754745" lon="-8.761996">
        <ele>68.5</ele>
        <time>1970-01-01T00:18:25.000Z</time>
      </trkpt>
      <trkpt lat="39.754764" lon="-8.761965">
        <ele>68.4</ele>
        <time>1970-01-01T00:18:26.000Z</time>
      </trkpt>
      <trkpt lat="39.754785" lon="-8.761933">
        <ele>68.4</ele>
        <time>1970-01-01T00:18:27.000Z</time>
      </trkpt>
      <trkpt lat="39.754806" lon="-8.761901">
        <ele>68.3</ele>
        <time>1970-01-01T00:18:28.000Z</time>
      </trkpt>
      <trkpt lat="39.754831" lon="-8.761868">
        <ele>68.1</ele>
        <time>1970-01-01T00:18:29.000Z</time>
      </trkpt>
      <trkpt lat="39.75486" lon="-8.761833">
        <ele>67.9</ele>
        <time>1970-01-01T00:18:30.000Z</time>
      </trkpt>
      <trkpt lat="39.754892" lon="-8.761796">
        <ele>67.7</ele>
        <time>1970-01-01T00:18:31.000Z</time>
      </trkpt>
      <trkpt lat="39.754927" lon="-8.761761">
        <ele>67.4</ele>
        <time>1970-01-01T00:18:32.000Z</time>
      </trkpt>
      <trkpt lat="39.754963" lon="-8.761727">
        <ele>67.1</ele>
        <time>1970-01-01T00:18:33.000Z</time>
      </trkpt>
      <trkpt lat="39.755005" lon="-8.761687">
        <ele>66.8</ele>
        <time>1970-01-01T00:18:34.000Z</time>
      </trkpt>
      <trkpt lat="39.755048" lon="-8.761646">
        <ele>66.4</ele>
        <time>1970-01-01T00:18:36.000Z</time>
      </trkpt>
      <trkpt lat="39.755094" lon="-8.761604">
        <ele>66</ele>
        <time>1970-01-01T00:18:36.000Z</time>
      </trkpt>
      <trkpt lat="39.755135" lon="-8.761568">
        <ele>65.7</ele>
        <time>1970-01-01T00:18:38.000Z</time>
      </trkpt>
      <trkpt lat="39.755177" lon="-8.761537">
        <ele>65.4</ele>
        <time>1970-01-01T00:18:39.000Z</time>
      </trkpt>
      <trkpt lat="39.755219" lon="-8.761515">
        <ele>65.2</ele>
        <time>1970-01-01T00:18:39.000Z</time>
      </trkpt>
      <trkpt lat="39.755259" lon="-8.7615">
        <ele>64.9</ele>
        <time>1970-01-01T00:18:40.000Z</time>
      </trkpt>
      <trkpt lat="39.755298" lon="-8.761484">
        <ele>64.7</ele>
        <time>1970-01-01T00:18:41.000Z</time>
      </trkpt>
      <trkpt lat="39.755332" lon="-8.761466">
        <ele>64.5</ele>
        <time>1970-01-01T00:18:42.000Z</time>
      </trkpt>
      <trkpt lat="39.75537" lon="-8.761436">
        <ele>64.3</ele>
        <time>1970-01-01T00:18:44.000Z</time>
      </trkpt>
      <trkpt lat="39.75538" lon="-8.761426">
        <ele>64.3</ele>
        <time>1970-01-01T00:18:44.000Z</time>
      </trkpt>
      <trkpt lat="39.755397" lon="-8.761404">
        <ele>64.2</ele>
        <time>1970-01-01T00:18:45.000Z</time>
      </trkpt>
      <trkpt lat="39.755412" lon="-8.761382">
        <ele>64.1</ele>
        <time>1970-01-01T00:18:47.000Z</time>
      </trkpt>
      <trkpt lat="39.755425" lon="-8.761353">
        <ele>64.1</ele>
        <time>1970-01-01T00:18:48.000Z</time>
      </trkpt>
      <trkpt lat="39.755434" lon="-8.761322">
        <ele>64</ele>
        <time>1970-01-01T00:18:48.000Z</time>
      </trkpt>
      <trkpt lat="39.755441" lon="-8.761288">
        <ele>64</ele>
        <time>1970-01-01T00:18:49.000Z</time>
      </trkpt>
      <trkpt lat="39.755454" lon="-8.761234">
        <ele>64</ele>
        <time>1970-01-01T00:18:51.000Z</time>
      </trkpt>
      <trkpt lat="39.755458" lon="-8.761215">
        <ele>64</ele>
        <time>1970-01-01T00:18:51.000Z</time>
      </trkpt>
      <trkpt lat="39.755469" lon="-8.761176">
        <ele>64</ele>
        <time>1970-01-01T00:18:52.000Z</time>
      </trkpt>
      <trkpt lat="39.755479" lon="-8.761135">
        <ele>64</ele>
        <time>1970-01-01T00:18:53.000Z</time>
      </trkpt>
      <trkpt lat="39.755489" lon="-8.761093">
        <ele>63.9</ele>
        <time>1970-01-01T00:18:54.000Z</time>
      </trkpt>
      <trkpt lat="39.7555" lon="-8.761052">
        <ele>63.8</ele>
        <time>1970-01-01T00:18:55.000Z</time>
      </trkpt>
      <trkpt lat="39.755516" lon="-8.761015">
        <ele>63.8</ele>
        <time>1970-01-01T00:18:57.000Z</time>
      </trkpt>
      <trkpt lat="39.755538" lon="-8.760977">
        <ele>63.7</ele>
        <time>1970-01-01T00:18:58.000Z</time>
      </trkpt>
      <trkpt lat="39.755564" lon="-8.760937">
        <ele>63.5</ele>
        <time>1970-01-01T00:18:58.000Z</time>
      </trkpt>
      <trkpt lat="39.755589" lon="-8.760895">
        <ele>63.3</ele>
        <time>1970-01-01T00:18:59.000Z</time>
      </trkpt>
      <trkpt lat="39.755615" lon="-8.760852">
        <ele>63.1</ele>
        <time>1970-01-01T00:19:00.000Z</time>
      </trkpt>
      <trkpt lat="39.75564" lon="-8.760811">
        <ele>63</ele>
        <time>1970-01-01T00:19:01.000Z</time>
      </trkpt>
      <trkpt lat="39.755666" lon="-8.760769">
        <ele>62.9</ele>
        <time>1970-01-01T00:19:02.000Z</time>
      </trkpt>
      <trkpt lat="39.755694" lon="-8.760725">
        <ele>62.7</ele>
        <time>1970-01-01T00:19:04.000Z</time>
      </trkpt>
      <trkpt lat="39.755723" lon="-8.760683">
        <ele>62.7</ele>
        <time>1970-01-01T00:19:04.000Z</time>
      </trkpt>
      <trkpt lat="39.755753" lon="-8.760642">
        <ele>62.6</ele>
        <time>1970-01-01T00:19:05.000Z</time>
      </trkpt>
      <trkpt lat="39.755785" lon="-8.760603">
        <ele>62.6</ele>
        <time>1970-01-01T00:19:07.000Z</time>
      </trkpt>
      <trkpt lat="39.755821" lon="-8.760565">
        <ele>62.5</ele>
        <time>1970-01-01T00:19:07.000Z</time>
      </trkpt>
      <trkpt lat="39.755858" lon="-8.760528">
        <ele>62.5</ele>
        <time>1970-01-01T00:19:08.000Z</time>
      </trkpt>
      <trkpt lat="39.755897" lon="-8.760492">
        <ele>62.5</ele>
        <time>1970-01-01T00:19:09.000Z</time>
      </trkpt>
      <trkpt lat="39.755936" lon="-8.760455">
        <ele>62.5</ele>
        <time>1970-01-01T00:19:11.000Z</time>
      </trkpt>
      <trkpt lat="39.755978" lon="-8.760418">
        <ele>62.5</ele>
        <time>1970-01-01T00:19:11.000Z</time>
      </trkpt>
      <trkpt lat="39.756024" lon="-8.760378">
        <ele>62.5</ele>
        <time>1970-01-01T00:19:12.000Z</time>
      </trkpt>
      <trkpt lat="39.756072" lon="-8.760338">
        <ele>62.5</ele>
        <time>1970-01-01T00:19:13.000Z</time>
      </trkpt>
      <trkpt lat="39.756121" lon="-8.7603">
        <ele>62.6</ele>
        <time>1970-01-01T00:19:14.000Z</time>
      </trkpt>
      <trkpt lat="39.756168" lon="-8.760263">
        <ele>62.6</ele>
        <time>1970-01-01T00:19:15.000Z</time>
      </trkpt>
      <trkpt lat="39.756213" lon="-8.760227">
        <ele>62.6</ele>
        <time>1970-01-01T00:19:16.000Z</time>
      </trkpt>
      <trkpt lat="39.756257" lon="-8.760195">
        <ele>62.6</ele>
        <time>1970-01-01T00:19:17.000Z</time>
      </trkpt>
      <trkpt lat="39.7563" lon="-8.760162">
        <ele>62.7</ele>
        <time>1970-01-01T00:19:18.000Z</time>
      </trkpt>
      <trkpt lat="39.756345" lon="-8.760127">
        <ele>62.7</ele>
        <time>1970-01-01T00:19:20.000Z</time>
      </trkpt>
      <trkpt lat="39.756387" lon="-8.760096">
        <ele>62.8</ele>
        <time>1970-01-01T00:19:20.000Z</time>
      </trkpt>
      <trkpt lat="39.756425" lon="-8.760064">
        <ele>62.8</ele>
        <time>1970-01-01T00:19:21.000Z</time>
      </trkpt>
      <trkpt lat="39.756458" lon="-8.760035">
        <ele>62.9</ele>
        <time>1970-01-01T00:19:22.000Z</time>
      </trkpt>
      <trkpt lat="39.756489" lon="-8.760005">
        <ele>62.9</ele>
        <time>1970-01-01T00:19:23.000Z</time>
      </trkpt>
      <trkpt lat="39.756519" lon="-8.759972">
        <ele>63</ele>
        <time>1970-01-01T00:19:24.000Z</time>
      </trkpt>
      <trkpt lat="39.75655" lon="-8.759938">
        <ele>63</ele>
        <time>1970-01-01T00:19:25.000Z</time>
      </trkpt>
      <trkpt lat="39.756582" lon="-8.759903">
        <ele>63.1</ele>
        <time>1970-01-01T00:19:26.000Z</time>
      </trkpt>
      <trkpt lat="39.756614" lon="-8.759866">
        <ele>63.1</ele>
        <time>1970-01-01T00:19:28.000Z</time>
      </trkpt>
      <trkpt lat="39.756647" lon="-8.759832">
        <ele>63.2</ele>
        <time>1970-01-01T00:19:28.000Z</time>
      </trkpt>
      <trkpt lat="39.756678" lon="-8.759798">
        <ele>63.3</ele>
        <time>1970-01-01T00:19:29.000Z</time>
      </trkpt>
      <trkpt lat="39.756708" lon="-8.759768">
        <ele>63.3</ele>
        <time>1970-01-01T00:19:30.000Z</time>
      </trkpt>
      <trkpt lat="39.756734" lon="-8.759743">
        <ele>63.4</ele>
        <time>1970-01-01T00:19:31.000Z</time>
      </trkpt>
      <trkpt lat="39.756769" lon="-8.759715">
        <ele>63.5</ele>
        <time>1970-01-01T00:19:33.000Z</time>
      </trkpt>
      <trkpt lat="39.756779" lon="-8.759706">
        <ele>63.5</ele>
        <time>1970-01-01T00:19:33.000Z</time>
      </trkpt>
      <trkpt lat="39.756797" lon="-8.759695">
        <ele>63.5</ele>
        <time>1970-01-01T00:19:34.000Z</time>
      </trkpt>
      <trkpt lat="39.756814" lon="-8.759685">
        <ele>63.6</ele>
        <time>1970-01-01T00:19:35.000Z</time>
      </trkpt>
      <trkpt lat="39.756835" lon="-8.759677">
        <ele>63.6</ele>
        <time>1970-01-01T00:19:36.000Z</time>
      </trkpt>
      <trkpt lat="39.756843" lon="-8.759676">
        <ele>63.6</ele>
        <time>1970-01-01T00:19:38.000Z</time>
      </trkpt>
      <trkpt lat="39.756846" lon="-8.759675">
        <ele>63.6</ele>
        <time>1970-01-01T00:19:38.000Z</time>
      </trkpt>
      <trkpt lat="39.756857" lon="-8.759681">
        <ele>63.6</ele>
        <time>1970-01-01T00:19:39.000Z</time>
      </trkpt>
      <trkpt lat="39.75686" lon="-8.759683">
        <ele>63.6</ele>
        <time>1970-01-01T00:19:40.000Z</time>
      </trkpt>
      <trkpt lat="39.756863" lon="-8.759686">
        <ele>63.6</ele>
        <time>1970-01-01T00:19:41.000Z</time>
      </trkpt>
      <trkpt lat="39.756866" lon="-8.759688">
        <ele>63.6</ele>
        <time>1970-01-01T00:19:42.000Z</time>
      </trkpt>
      <trkpt lat="39.756869" lon="-8.75969">
        <ele>63.6</ele>
        <time>1970-01-01T00:19:45.000Z</time>
      </trkpt>
      <trkpt lat="39.756873" lon="-8.759692">
        <ele>63.6</ele>
        <time>1970-01-01T00:19:46.000Z</time>
      </trkpt>
      <trkpt lat="39.756876" lon="-8.759695">
        <ele>63.6</ele>
        <time>1970-01-01T00:19:47.000Z</time>
      </trkpt>
      <trkpt lat="39.756879" lon="-8.759697">
        <ele>63.6</ele>
        <time>1970-01-01T00:19:49.000Z</time>
      </trkpt>
      <trkpt lat="39.756882" lon="-8.759699">
        <ele>63.6</ele>
        <time>1970-01-01T00:19:50.000Z</time>
      </trkpt>
      <trkpt lat="39.756885" lon="-8.759701">
        <ele>63.6</ele>
        <time>1970-01-01T00:19:51.000Z</time>
      </trkpt>
      <trkpt lat="39.756888" lon="-8.759704">
        <ele>63.6</ele>
        <time>1970-01-01T00:19:53.000Z</time>
      </trkpt>
      <trkpt lat="39.756891" lon="-8.759706">
        <ele>63.6</ele>
        <time>1970-01-01T00:19:53.000Z</time>
      </trkpt>
      <trkpt lat="39.756906" lon="-8.759715">
        <ele>63.6</ele>
        <time>1970-01-01T00:19:54.000Z</time>
      </trkpt>
      <trkpt lat="39.756912" lon="-8.759718">
        <ele>63.6</ele>
        <time>1970-01-01T00:19:55.000Z</time>
      </trkpt>
      <trkpt lat="39.756917" lon="-8.759721">
        <ele>63.6</ele>
        <time>1970-01-01T00:19:56.000Z</time>
      </trkpt>
      <trkpt lat="39.756923" lon="-8.759724">
        <ele>63.6</ele>
        <time>1970-01-01T00:19:58.000Z</time>
      </trkpt>
      <trkpt lat="39.756928" lon="-8.759727">
        <ele>63.6</ele>
        <time>1970-01-01T00:20:00.000Z</time>
      </trkpt>
      <trkpt lat="39.756934" lon="-8.75973">
        <ele>63.7</ele>
        <time>1970-01-01T00:20:01.000Z</time>
      </trkpt>
      <trkpt lat="39.756939" lon="-8.759733">
        <ele>63.7</ele>
        <time>1970-01-01T00:20:01.000Z</time>
      </trkpt>
      <trkpt lat="39.756959" lon="-8.759748">
        <ele>63.7</ele>
        <time>1970-01-01T00:20:02.000Z</time>
      </trkpt>
      <trkpt lat="39.756964" lon="-8.759751">
        <ele>63.7</ele>
        <time>1970-01-01T00:20:03.000Z</time>
      </trkpt>
      <trkpt lat="39.75697" lon="-8.759755">
        <ele>63.7</ele>
        <time>1970-01-01T00:20:04.000Z</time>
      </trkpt>
      <trkpt lat="39.756976" lon="-8.759758">
        <ele>63.7</ele>
        <time>1970-01-01T00:20:05.000Z</time>
      </trkpt>
      <trkpt lat="39.756981" lon="-8.759762">
        <ele>63.7</ele>
        <time>1970-01-01T00:20:06.000Z</time>
      </trkpt>
      <trkpt lat="39.756987" lon="-8.759765">
        <ele>63.7</ele>
        <time>1970-01-01T00:20:07.000Z</time>
      </trkpt>
      <trkpt lat="39.756993" lon="-8.759769">
        <ele>63.7</ele>
        <time>1970-01-01T00:20:08.000Z</time>
      </trkpt>
      <trkpt lat="39.756998" lon="-8.759772">
        <ele>63.7</ele>
        <time>1970-01-01T00:20:10.000Z</time>
      </trkpt>
      <trkpt lat="39.757004" lon="-8.759776">
        <ele>63.7</ele>
        <time>1970-01-01T00:20:10.000Z</time>
      </trkpt>
      <trkpt lat="39.757009" lon="-8.759764">
        <ele>63.6</ele>
        <time>1970-01-01T00:20:11.000Z</time>
      </trkpt>
      <trkpt lat="39.757014" lon="-8.759748">
        <ele>63.6</ele>
        <time>1970-01-01T00:20:12.000Z</time>
      </trkpt>
      <trkpt lat="39.757021" lon="-8.759726">
        <ele>63.6</ele>
        <time>1970-01-01T00:20:13.000Z</time>
      </trkpt>
      <trkpt lat="39.757028" lon="-8.759703">
        <ele>63.5</ele>
        <time>1970-01-01T00:20:14.000Z</time>
      </trkpt>
      <trkpt lat="39.757033" lon="-8.759677">
        <ele>63.5</ele>
        <time>1970-01-01T00:20:15.000Z</time>
      </trkpt>
      <trkpt lat="39.757038" lon="-8.759648">
        <ele>63.5</ele>
        <time>1970-01-01T00:20:16.000Z</time>
      </trkpt>
      <trkpt lat="39.757044" lon="-8.759618">
        <ele>63.4</ele>
        <time>1970-01-01T00:20:17.000Z</time>
      </trkpt>
      <trkpt lat="39.75705" lon="-8.759589">
        <ele>63.4</ele>
        <time>1970-01-01T00:20:18.000Z</time>
      </trkpt>
      <trkpt lat="39.75706" lon="-8.759556">
        <ele>63.4</ele>
        <time>1970-01-01T00:20:19.000Z</time>
      </trkpt>
      <trkpt lat="39.757068" lon="-8.759522">
        <ele>63.4</ele>
        <time>1970-01-01T00:20:20.000Z</time>
      </trkpt>
      <trkpt lat="39.757079" lon="-8.759469">
        <ele>63.3</ele>
        <time>1970-01-01T00:20:22.000Z</time>
      </trkpt>
      <trkpt lat="39.757082" lon="-8.75945">
        <ele>63.3</ele>
        <time>1970-01-01T00:20:22.000Z</time>
      </trkpt>
      <trkpt lat="39.75709" lon="-8.759411">
        <ele>63.3</ele>
        <time>1970-01-01T00:20:23.000Z</time>
      </trkpt>
      <trkpt lat="39.757099" lon="-8.759371">
        <ele>63.3</ele>
        <time>1970-01-01T00:20:24.000Z</time>
      </trkpt>
      <trkpt lat="39.757109" lon="-8.759327">
        <ele>63.3</ele>
        <time>1970-01-01T00:20:25.000Z</time>
      </trkpt>
      <trkpt lat="39.757121" lon="-8.759281">
        <ele>63.3</ele>
        <time>1970-01-01T00:20:27.000Z</time>
      </trkpt>
      <trkpt lat="39.75713" lon="-8.759236">
        <ele>63.3</ele>
        <time>1970-01-01T00:20:27.000Z</time>
      </trkpt>
      <trkpt lat="39.757138" lon="-8.75919">
        <ele>63.3</ele>
        <time>1970-01-01T00:20:29.000Z</time>
      </trkpt>
      <trkpt lat="39.757145" lon="-8.759142">
        <ele>63.4</ele>
        <time>1970-01-01T00:20:29.000Z</time>
      </trkpt>
      <trkpt lat="39.757148" lon="-8.759093">
        <ele>63.4</ele>
        <time>1970-01-01T00:20:30.000Z</time>
      </trkpt>
      <trkpt lat="39.757149" lon="-8.759046">
        <ele>63.4</ele>
        <time>1970-01-01T00:20:32.000Z</time>
      </trkpt>
      <trkpt lat="39.757148" lon="-8.758998">
        <ele>63.4</ele>
        <time>1970-01-01T00:20:32.000Z</time>
      </trkpt>
      <trkpt lat="39.757146" lon="-8.758948">
        <ele>63.5</ele>
        <time>1970-01-01T00:20:34.000Z</time>
      </trkpt>
      <trkpt lat="39.757142" lon="-8.758897">
        <ele>63.5</ele>
        <time>1970-01-01T00:20:34.000Z</time>
      </trkpt>
      <trkpt lat="39.757134" lon="-8.758846">
        <ele>63.5</ele>
        <time>1970-01-01T00:20:35.000Z</time>
      </trkpt>
      <trkpt lat="39.757124" lon="-8.758794">
        <ele>63.6</ele>
        <time>1970-01-01T00:20:36.000Z</time>
      </trkpt>
      <trkpt lat="39.757114" lon="-8.758742">
        <ele>63.6</ele>
        <time>1970-01-01T00:20:37.000Z</time>
      </trkpt>
      <trkpt lat="39.757103" lon="-8.758683">
        <ele>63.6</ele>
        <time>1970-01-01T00:20:38.000Z</time>
      </trkpt>
      <trkpt lat="39.757093" lon="-8.758624">
        <ele>63.7</ele>
        <time>1970-01-01T00:20:39.000Z</time>
      </trkpt>
      <trkpt lat="39.757084" lon="-8.758571">
        <ele>63.7</ele>
        <time>1970-01-01T00:20:40.000Z</time>
      </trkpt>
      <trkpt lat="39.757073" lon="-8.758517">
        <ele>63.8</ele>
        <time>1970-01-01T00:20:41.000Z</time>
      </trkpt>
      <trkpt lat="39.757063" lon="-8.758461">
        <ele>63.8</ele>
        <time>1970-01-01T00:20:42.000Z</time>
      </trkpt>
      <trkpt lat="39.757055" lon="-8.758406">
        <ele>63.8</ele>
        <time>1970-01-01T00:20:43.000Z</time>
      </trkpt>
      <trkpt lat="39.757052" lon="-8.758349">
        <ele>63.9</ele>
        <time>1970-01-01T00:20:45.000Z</time>
      </trkpt>
      <trkpt lat="39.757052" lon="-8.758291">
        <ele>63.9</ele>
        <time>1970-01-01T00:20:46.000Z</time>
      </trkpt>
      <trkpt lat="39.757051" lon="-8.758232">
        <ele>64</ele>
        <time>1970-01-01T00:20:46.000Z</time>
      </trkpt>
      <trkpt lat="39.75705" lon="-8.758175">
        <ele>64.1</ele>
        <time>1970-01-01T00:20:47.000Z</time>
      </trkpt>
      <trkpt lat="39.75705" lon="-8.75812">
        <ele>64.1</ele>
        <time>1970-01-01T00:20:48.000Z</time>
      </trkpt>
      <trkpt lat="39.757052" lon="-8.758065">
        <ele>64.2</ele>
        <time>1970-01-01T00:20:49.000Z</time>
      </trkpt>
      <trkpt lat="39.757054" lon="-8.758005">
        <ele>64.2</ele>
        <time>1970-01-01T00:20:50.000Z</time>
      </trkpt>
      <trkpt lat="39.757056" lon="-8.75795">
        <ele>64.3</ele>
        <time>1970-01-01T00:20:51.000Z</time>
      </trkpt>
      <trkpt lat="39.757059" lon="-8.757894">
        <ele>64.3</ele>
        <time>1970-01-01T00:20:53.000Z</time>
      </trkpt>
      <trkpt lat="39.75706" lon="-8.757839">
        <ele>64.4</ele>
        <time>1970-01-01T00:20:53.000Z</time>
      </trkpt>
      <trkpt lat="39.757061" lon="-8.757782">
        <ele>64.4</ele>
        <time>1970-01-01T00:20:55.000Z</time>
      </trkpt>
      <trkpt lat="39.757062" lon="-8.757725">
        <ele>64.4</ele>
        <time>1970-01-01T00:20:55.000Z</time>
      </trkpt>
      <trkpt lat="39.757064" lon="-8.757662">
        <ele>64.4</ele>
        <time>1970-01-01T00:20:56.000Z</time>
      </trkpt>
      <trkpt lat="39.757067" lon="-8.757604">
        <ele>64.4</ele>
        <time>1970-01-01T00:20:57.000Z</time>
      </trkpt>
      <trkpt lat="39.757069" lon="-8.757542">
        <ele>64.4</ele>
        <time>1970-01-01T00:20:58.000Z</time>
      </trkpt>
      <trkpt lat="39.757071" lon="-8.757476">
        <ele>64.5</ele>
        <time>1970-01-01T00:20:59.000Z</time>
      </trkpt>
      <trkpt lat="39.757076" lon="-8.757412">
        <ele>64.5</ele>
        <time>1970-01-01T00:21:00.000Z</time>
      </trkpt>
      <trkpt lat="39.757081" lon="-8.757351">
        <ele>64.5</ele>
        <time>1970-01-01T00:21:01.000Z</time>
      </trkpt>
      <trkpt lat="39.757087" lon="-8.757289">
        <ele>64.5</ele>
        <time>1970-01-01T00:21:02.000Z</time>
      </trkpt>
      <trkpt lat="39.757095" lon="-8.757222">
        <ele>64.5</ele>
        <time>1970-01-01T00:21:03.000Z</time>
      </trkpt>
      <trkpt lat="39.7571" lon="-8.75716">
        <ele>64.6</ele>
        <time>1970-01-01T00:21:04.000Z</time>
      </trkpt>
      <trkpt lat="39.757105" lon="-8.757097">
        <ele>64.6</ele>
        <time>1970-01-01T00:21:06.000Z</time>
      </trkpt>
      <trkpt lat="39.75711" lon="-8.757035">
        <ele>64.6</ele>
        <time>1970-01-01T00:21:06.000Z</time>
      </trkpt>
      <trkpt lat="39.757112" lon="-8.756971">
        <ele>64.6</ele>
        <time>1970-01-01T00:21:07.000Z</time>
      </trkpt>
      <trkpt lat="39.757112" lon="-8.756906">
        <ele>64.6</ele>
        <time>1970-01-01T00:21:08.000Z</time>
      </trkpt>
      <trkpt lat="39.757111" lon="-8.756841">
        <ele>64.6</ele>
        <time>1970-01-01T00:21:09.000Z</time>
      </trkpt>
      <trkpt lat="39.757108" lon="-8.756777">
        <ele>64.6</ele>
        <time>1970-01-01T00:21:10.000Z</time>
      </trkpt>
      <trkpt lat="39.757105" lon="-8.756716">
        <ele>64.6</ele>
        <time>1970-01-01T00:21:11.000Z</time>
      </trkpt>
      <trkpt lat="39.757099" lon="-8.756659">
        <ele>64.7</ele>
        <time>1970-01-01T00:21:12.000Z</time>
      </trkpt>
      <trkpt lat="39.757094" lon="-8.756599">
        <ele>64.7</ele>
        <time>1970-01-01T00:21:13.000Z</time>
      </trkpt>
      <trkpt lat="39.757092" lon="-8.756544">
        <ele>64.7</ele>
        <time>1970-01-01T00:21:14.000Z</time>
      </trkpt>
      <trkpt lat="39.757091" lon="-8.756485">
        <ele>64.7</ele>
        <time>1970-01-01T00:21:15.000Z</time>
      </trkpt>
      <trkpt lat="39.757088" lon="-8.756424">
        <ele>64.8</ele>
        <time>1970-01-01T00:21:17.000Z</time>
      </trkpt>
      <trkpt lat="39.757086" lon="-8.756361">
        <ele>64.8</ele>
        <time>1970-01-01T00:21:17.000Z</time>
      </trkpt>
      <trkpt lat="39.757084" lon="-8.756297">
        <ele>64.8</ele>
        <time>1970-01-01T00:21:19.000Z</time>
      </trkpt>
      <trkpt lat="39.757084" lon="-8.756235">
        <ele>64.9</ele>
        <time>1970-01-01T00:21:19.000Z</time>
      </trkpt>
      <trkpt lat="39.757085" lon="-8.756172">
        <ele>64.9</ele>
        <time>1970-01-01T00:21:20.000Z</time>
      </trkpt>
      <trkpt lat="39.757087" lon="-8.75611">
        <ele>65</ele>
        <time>1970-01-01T00:21:21.000Z</time>
      </trkpt>
      <trkpt lat="39.757089" lon="-8.756047">
        <ele>65</ele>
        <time>1970-01-01T00:21:22.000Z</time>
      </trkpt>
      <trkpt lat="39.757091" lon="-8.755983">
        <ele>65</ele>
        <time>1970-01-01T00:21:24.000Z</time>
      </trkpt>
      <trkpt lat="39.757092" lon="-8.755919">
        <ele>65.1</ele>
        <time>1970-01-01T00:21:24.000Z</time>
      </trkpt>
      <trkpt lat="39.757093" lon="-8.755857">
        <ele>65.1</ele>
        <time>1970-01-01T00:21:25.000Z</time>
      </trkpt>
      <trkpt lat="39.757093" lon="-8.755794">
        <ele>65.2</ele>
        <time>1970-01-01T00:21:26.000Z</time>
      </trkpt>
      <trkpt lat="39.757095" lon="-8.755731">
        <ele>65.2</ele>
        <time>1970-01-01T00:21:27.000Z</time>
      </trkpt>
      <trkpt lat="39.757099" lon="-8.755667">
        <ele>65.2</ele>
        <time>1970-01-01T00:21:28.000Z</time>
      </trkpt>
      <trkpt lat="39.757103" lon="-8.755603">
        <ele>65.3</ele>
        <time>1970-01-01T00:21:29.000Z</time>
      </trkpt>
      <trkpt lat="39.757107" lon="-8.755542">
        <ele>65.3</ele>
        <time>1970-01-01T00:21:31.000Z</time>
      </trkpt>
      <trkpt lat="39.757108" lon="-8.755482">
        <ele>65.4</ele>
        <time>1970-01-01T00:21:32.000Z</time>
      </trkpt>
      <trkpt lat="39.757108" lon="-8.755424">
        <ele>65.4</ele>
        <time>1970-01-01T00:21:32.000Z</time>
      </trkpt>
      <trkpt lat="39.757106" lon="-8.755368">
        <ele>65.5</ele>
        <time>1970-01-01T00:21:33.000Z</time>
      </trkpt>
      <trkpt lat="39.757103" lon="-8.755313">
        <ele>65.5</ele>
        <time>1970-01-01T00:21:34.000Z</time>
      </trkpt>
      <trkpt lat="39.757101" lon="-8.755254">
        <ele>65.6</ele>
        <time>1970-01-01T00:21:36.000Z</time>
      </trkpt>
      <trkpt lat="39.757101" lon="-8.755196">
        <ele>65.7</ele>
        <time>1970-01-01T00:21:37.000Z</time>
      </trkpt>
      <trkpt lat="39.757104" lon="-8.755137">
        <ele>65.7</ele>
        <time>1970-01-01T00:21:37.000Z</time>
      </trkpt>
      <trkpt lat="39.757109" lon="-8.755078">
        <ele>65.7</ele>
        <time>1970-01-01T00:21:38.000Z</time>
      </trkpt>
      <trkpt lat="39.757115" lon="-8.755015">
        <ele>65.7</ele>
        <time>1970-01-01T00:21:39.000Z</time>
      </trkpt>
      <trkpt lat="39.757126" lon="-8.754949">
        <ele>65.8</ele>
        <time>1970-01-01T00:21:40.000Z</time>
      </trkpt>
      <trkpt lat="39.757138" lon="-8.754885">
        <ele>65.8</ele>
        <time>1970-01-01T00:21:41.000Z</time>
      </trkpt>
      <trkpt lat="39.75715" lon="-8.754824">
        <ele>65.8</ele>
        <time>1970-01-01T00:21:42.000Z</time>
      </trkpt>
      <trkpt lat="39.75716" lon="-8.754767">
        <ele>65.8</ele>
        <time>1970-01-01T00:21:43.000Z</time>
      </trkpt>
      <trkpt lat="39.75717" lon="-8.754716">
        <ele>65.8</ele>
        <time>1970-01-01T00:21:44.000Z</time>
      </trkpt>
      <trkpt lat="39.75718" lon="-8.754668">
        <ele>65.8</ele>
        <time>1970-01-01T00:21:45.000Z</time>
      </trkpt>
      <trkpt lat="39.757193" lon="-8.754628">
        <ele>65.9</ele>
        <time>1970-01-01T00:21:46.000Z</time>
      </trkpt>
      <trkpt lat="39.757219" lon="-8.754578">
        <ele>65.9</ele>
        <time>1970-01-01T00:21:48.000Z</time>
      </trkpt>
      <trkpt lat="39.757229" lon="-8.754563">
        <ele>65.9</ele>
        <time>1970-01-01T00:21:48.000Z</time>
      </trkpt>
      <trkpt lat="39.757252" lon="-8.754541">
        <ele>65.7</ele>
        <time>1970-01-01T00:21:49.000Z</time>
      </trkpt>
      <trkpt lat="39.757281" lon="-8.754531">
        <ele>65.7</ele>
        <time>1970-01-01T00:21:50.000Z</time>
      </trkpt>
      <trkpt lat="39.757335" lon="-8.754534">
        <ele>65.6</ele>
        <time>1970-01-01T00:21:52.000Z</time>
      </trkpt>
      <trkpt lat="39.757354" lon="-8.754539">
        <ele>65.5</ele>
        <time>1970-01-01T00:21:52.000Z</time>
      </trkpt>
      <trkpt lat="39.757395" lon="-8.754552">
        <ele>65.4</ele>
        <time>1970-01-01T00:21:53.000Z</time>
      </trkpt>
      <trkpt lat="39.757438" lon="-8.754566">
        <ele>65.4</ele>
        <time>1970-01-01T00:21:54.000Z</time>
      </trkpt>
      <trkpt lat="39.757482" lon="-8.754581">
        <ele>65.3</ele>
        <time>1970-01-01T00:21:55.000Z</time>
      </trkpt>
      <trkpt lat="39.757527" lon="-8.754598">
        <ele>65.2</ele>
        <time>1970-01-01T00:21:56.000Z</time>
      </trkpt>
      <trkpt lat="39.757573" lon="-8.754614">
        <ele>65.2</ele>
        <time>1970-01-01T00:21:57.000Z</time>
      </trkpt>
      <trkpt lat="39.75762" lon="-8.754628">
        <ele>65.2</ele>
        <time>1970-01-01T00:21:59.000Z</time>
      </trkpt>
      <trkpt lat="39.757667" lon="-8.754643">
        <ele>65.2</ele>
        <time>1970-01-01T00:21:59.000Z</time>
      </trkpt>
      <trkpt lat="39.757715" lon="-8.75466">
        <ele>65.1</ele>
        <time>1970-01-01T00:22:00.000Z</time>
      </trkpt>
      <trkpt lat="39.757765" lon="-8.754679">
        <ele>65.1</ele>
        <time>1970-01-01T00:22:01.000Z</time>
      </trkpt>
      <trkpt lat="39.757816" lon="-8.754701">
        <ele>65</ele>
        <time>1970-01-01T00:22:02.000Z</time>
      </trkpt>
      <trkpt lat="39.757863" lon="-8.754723">
        <ele>65</ele>
        <time>1970-01-01T00:22:03.000Z</time>
      </trkpt>
      <trkpt lat="39.757912" lon="-8.754746">
        <ele>65</ele>
        <time>1970-01-01T00:22:04.000Z</time>
      </trkpt>
      <trkpt lat="39.757963" lon="-8.754767">
        <ele>65</ele>
        <time>1970-01-01T00:22:05.000Z</time>
      </trkpt>
      <trkpt lat="39.758013" lon="-8.754788">
        <ele>65.1</ele>
        <time>1970-01-01T00:22:06.000Z</time>
      </trkpt>
      <trkpt lat="39.758061" lon="-8.754812">
        <ele>65.1</ele>
        <time>1970-01-01T00:22:07.000Z</time>
      </trkpt>
      <trkpt lat="39.75811" lon="-8.754841">
        <ele>65.2</ele>
        <time>1970-01-01T00:22:09.000Z</time>
      </trkpt>
      <trkpt lat="39.758157" lon="-8.75487">
        <ele>65.2</ele>
        <time>1970-01-01T00:22:10.000Z</time>
      </trkpt>
      <trkpt lat="39.758204" lon="-8.754901">
        <ele>65.3</ele>
        <time>1970-01-01T00:22:10.000Z</time>
      </trkpt>
      <trkpt lat="39.75825" lon="-8.754936">
        <ele>65.3</ele>
        <time>1970-01-01T00:22:11.000Z</time>
      </trkpt>
      <trkpt lat="39.758299" lon="-8.754971">
        <ele>65.4</ele>
        <time>1970-01-01T00:22:12.000Z</time>
      </trkpt>
      <trkpt lat="39.758345" lon="-8.755002">
        <ele>65.4</ele>
        <time>1970-01-01T00:22:13.000Z</time>
      </trkpt>
      <trkpt lat="39.758391" lon="-8.75503">
        <ele>65.5</ele>
        <time>1970-01-01T00:22:15.000Z</time>
      </trkpt>
      <trkpt lat="39.758437" lon="-8.755057">
        <ele>65.5</ele>
        <time>1970-01-01T00:22:16.000Z</time>
      </trkpt>
      <trkpt lat="39.758483" lon="-8.755082">
        <ele>65.5</ele>
        <time>1970-01-01T00:22:16.000Z</time>
      </trkpt>
      <trkpt lat="39.758529" lon="-8.755109">
        <ele>65.6</ele>
        <time>1970-01-01T00:22:17.000Z</time>
      </trkpt>
      <trkpt lat="39.758575" lon="-8.755135">
        <ele>65.6</ele>
        <time>1970-01-01T00:22:18.000Z</time>
      </trkpt>
      <trkpt lat="39.75862" lon="-8.755163">
        <ele>65.7</ele>
        <time>1970-01-01T00:22:19.000Z</time>
      </trkpt>
      <trkpt lat="39.758663" lon="-8.75519">
        <ele>65.7</ele>
        <time>1970-01-01T00:22:20.000Z</time>
      </trkpt>
      <trkpt lat="39.758707" lon="-8.755215">
        <ele>65.7</ele>
        <time>1970-01-01T00:22:21.000Z</time>
      </trkpt>
      <trkpt lat="39.758751" lon="-8.755238">
        <ele>65.7</ele>
        <time>1970-01-01T00:22:22.000Z</time>
      </trkpt>
      <trkpt lat="39.758795" lon="-8.755262">
        <ele>65.8</ele>
        <time>1970-01-01T00:22:23.000Z</time>
      </trkpt>
      <trkpt lat="39.758839" lon="-8.755285">
        <ele>65.8</ele>
        <time>1970-01-01T00:22:24.000Z</time>
      </trkpt>
      <trkpt lat="39.758882" lon="-8.755309">
        <ele>65.8</ele>
        <time>1970-01-01T00:22:25.000Z</time>
      </trkpt>
      <trkpt lat="39.758925" lon="-8.755334">
        <ele>65.9</ele>
        <time>1970-01-01T00:22:26.000Z</time>
      </trkpt>
      <trkpt lat="39.758967" lon="-8.755361">
        <ele>65.9</ele>
        <time>1970-01-01T00:22:28.000Z</time>
      </trkpt>
      <trkpt lat="39.759009" lon="-8.755387">
        <ele>66</ele>
        <time>1970-01-01T00:22:28.000Z</time>
      </trkpt>
      <trkpt lat="39.759054" lon="-8.755413">
        <ele>66</ele>
        <time>1970-01-01T00:22:30.000Z</time>
      </trkpt>
      <trkpt lat="39.759099" lon="-8.755439">
        <ele>66</ele>
        <time>1970-01-01T00:22:30.000Z</time>
      </trkpt>
      <trkpt lat="39.759145" lon="-8.755465">
        <ele>66.1</ele>
        <time>1970-01-01T00:22:32.000Z</time>
      </trkpt>
      <trkpt lat="39.759191" lon="-8.755491">
        <ele>66.2</ele>
        <time>1970-01-01T00:22:32.000Z</time>
      </trkpt>
      <trkpt lat="39.759238" lon="-8.755517">
        <ele>66.2</ele>
        <time>1970-01-01T00:22:33.000Z</time>
      </trkpt>
      <trkpt lat="39.759284" lon="-8.755543">
        <ele>66.3</ele>
        <time>1970-01-01T00:22:34.000Z</time>
      </trkpt>
      <trkpt lat="39.75933" lon="-8.755571">
        <ele>66.3</ele>
        <time>1970-01-01T00:22:35.000Z</time>
      </trkpt>
      <trkpt lat="39.759375" lon="-8.755601">
        <ele>66.4</ele>
        <time>1970-01-01T00:22:36.000Z</time>
      </trkpt>
      <trkpt lat="39.759418" lon="-8.75563">
        <ele>66.5</ele>
        <time>1970-01-01T00:22:37.000Z</time>
      </trkpt>
      <trkpt lat="39.759463" lon="-8.755654">
        <ele>66.5</ele>
        <time>1970-01-01T00:22:38.000Z</time>
      </trkpt>
      <trkpt lat="39.759507" lon="-8.755676">
        <ele>66.6</ele>
        <time>1970-01-01T00:22:39.000Z</time>
      </trkpt>
      <trkpt lat="39.759554" lon="-8.755693">
        <ele>66.6</ele>
        <time>1970-01-01T00:22:41.000Z</time>
      </trkpt>
      <trkpt lat="39.759605" lon="-8.755701">
        <ele>66.7</ele>
        <time>1970-01-01T00:22:41.000Z</time>
      </trkpt>
      <trkpt lat="39.759653" lon="-8.755696">
        <ele>66.7</ele>
        <time>1970-01-01T00:22:42.000Z</time>
      </trkpt>
      <trkpt lat="39.759701" lon="-8.755679">
        <ele>66.8</ele>
        <time>1970-01-01T00:22:43.000Z</time>
      </trkpt>
      <trkpt lat="39.759746" lon="-8.75565">
        <ele>66.8</ele>
        <time>1970-01-01T00:22:44.000Z</time>
      </trkpt>
      <trkpt lat="39.759795" lon="-8.755612">
        <ele>66.9</ele>
        <time>1970-01-01T00:22:45.000Z</time>
      </trkpt>
      <trkpt lat="39.759838" lon="-8.755574">
        <ele>66.9</ele>
        <time>1970-01-01T00:22:46.000Z</time>
      </trkpt>
      <trkpt lat="39.759883" lon="-8.755531">
        <ele>67</ele>
        <time>1970-01-01T00:22:47.000Z</time>
      </trkpt>
      <trkpt lat="39.759925" lon="-8.755485">
        <ele>67.1</ele>
        <time>1970-01-01T00:22:48.000Z</time>
      </trkpt>
      <trkpt lat="39.759966" lon="-8.755442">
        <ele>67.1</ele>
        <time>1970-01-01T00:22:49.000Z</time>
      </trkpt>
      <trkpt lat="39.760007" lon="-8.7554">
        <ele>67.2</ele>
        <time>1970-01-01T00:22:50.000Z</time>
      </trkpt>
      <trkpt lat="39.760046" lon="-8.755358">
        <ele>67.3</ele>
        <time>1970-01-01T00:22:51.000Z</time>
      </trkpt>
      <trkpt lat="39.760085" lon="-8.755317">
        <ele>67.3</ele>
        <time>1970-01-01T00:22:52.000Z</time>
      </trkpt>
      <trkpt lat="39.760125" lon="-8.755274">
        <ele>67.4</ele>
        <time>1970-01-01T00:22:53.000Z</time>
      </trkpt>
      <trkpt lat="39.760166" lon="-8.755232">
        <ele>67.5</ele>
        <time>1970-01-01T00:22:54.000Z</time>
      </trkpt>
      <trkpt lat="39.760207" lon="-8.755191">
        <ele>67.6</ele>
        <time>1970-01-01T00:22:55.000Z</time>
      </trkpt>
      <trkpt lat="39.760249" lon="-8.75515">
        <ele>67.7</ele>
        <time>1970-01-01T00:22:56.000Z</time>
      </trkpt>
      <trkpt lat="39.760288" lon="-8.75511">
        <ele>67.7</ele>
        <time>1970-01-01T00:22:57.000Z</time>
      </trkpt>
      <trkpt lat="39.760327" lon="-8.755072">
        <ele>67.8</ele>
        <time>1970-01-01T00:22:59.000Z</time>
      </trkpt>
      <trkpt lat="39.760366" lon="-8.755032">
        <ele>67.9</ele>
        <time>1970-01-01T00:22:59.000Z</time>
      </trkpt>
      <trkpt lat="39.760406" lon="-8.754991">
        <ele>68</ele>
        <time>1970-01-01T00:23:00.000Z</time>
      </trkpt>
      <trkpt lat="39.760446" lon="-8.754944">
        <ele>68.1</ele>
        <time>1970-01-01T00:23:01.000Z</time>
      </trkpt>
      <trkpt lat="39.760484" lon="-8.7549">
        <ele>68.2</ele>
        <time>1970-01-01T00:23:02.000Z</time>
      </trkpt>
      <trkpt lat="39.760519" lon="-8.754856">
        <ele>68.3</ele>
        <time>1970-01-01T00:23:03.000Z</time>
      </trkpt>
      <trkpt lat="39.760553" lon="-8.754812">
        <ele>68.4</ele>
        <time>1970-01-01T00:23:04.000Z</time>
      </trkpt>
      <trkpt lat="39.760589" lon="-8.754771">
        <ele>68.6</ele>
        <time>1970-01-01T00:23:06.000Z</time>
      </trkpt>
      <trkpt lat="39.760625" lon="-8.75473">
        <ele>68.7</ele>
        <time>1970-01-01T00:23:07.000Z</time>
      </trkpt>
      <trkpt lat="39.760665" lon="-8.754684">
        <ele>68.7</ele>
        <time>1970-01-01T00:23:08.000Z</time>
      </trkpt>
      <trkpt lat="39.760702" lon="-8.754643">
        <ele>68.8</ele>
        <time>1970-01-01T00:23:08.000Z</time>
      </trkpt>
      <trkpt lat="39.760738" lon="-8.754603">
        <ele>68.9</ele>
        <time>1970-01-01T00:23:09.000Z</time>
      </trkpt>
      <trkpt lat="39.760772" lon="-8.754566">
        <ele>68.9</ele>
        <time>1970-01-01T00:23:10.000Z</time>
      </trkpt>
      <trkpt lat="39.760806" lon="-8.75453">
        <ele>69</ele>
        <time>1970-01-01T00:23:11.000Z</time>
      </trkpt>
      <trkpt lat="39.760841" lon="-8.754493">
        <ele>69</ele>
        <time>1970-01-01T00:23:13.000Z</time>
      </trkpt>
      <trkpt lat="39.760875" lon="-8.754456">
        <ele>69.1</ele>
        <time>1970-01-01T00:23:13.000Z</time>
      </trkpt>
      <trkpt lat="39.76091" lon="-8.754418">
        <ele>69.1</ele>
        <time>1970-01-01T00:23:14.000Z</time>
      </trkpt>
      <trkpt lat="39.760944" lon="-8.754381">
        <ele>69.2</ele>
        <time>1970-01-01T00:23:15.000Z</time>
      </trkpt>
      <trkpt lat="39.760981" lon="-8.754345">
        <ele>69.2</ele>
        <time>1970-01-01T00:23:16.000Z</time>
      </trkpt>
      <trkpt lat="39.761019" lon="-8.75431">
        <ele>69.3</ele>
        <time>1970-01-01T00:23:17.000Z</time>
      </trkpt>
      <trkpt lat="39.761058" lon="-8.754277">
        <ele>69.3</ele>
        <time>1970-01-01T00:23:18.000Z</time>
      </trkpt>
      <trkpt lat="39.761097" lon="-8.754244">
        <ele>69.4</ele>
        <time>1970-01-01T00:23:20.000Z</time>
      </trkpt>
      <trkpt lat="39.761135" lon="-8.754212">
        <ele>69.4</ele>
        <time>1970-01-01T00:23:20.000Z</time>
      </trkpt>
      <trkpt lat="39.761173" lon="-8.754178">
        <ele>69.5</ele>
        <time>1970-01-01T00:23:21.000Z</time>
      </trkpt>
      <trkpt lat="39.761211" lon="-8.754144">
        <ele>69.5</ele>
        <time>1970-01-01T00:23:22.000Z</time>
      </trkpt>
      <trkpt lat="39.761249" lon="-8.75411">
        <ele>69.6</ele>
        <time>1970-01-01T00:23:23.000Z</time>
      </trkpt>
      <trkpt lat="39.761286" lon="-8.754074">
        <ele>69.6</ele>
        <time>1970-01-01T00:23:24.000Z</time>
      </trkpt>
      <trkpt lat="39.761322" lon="-8.754038">
        <ele>69.7</ele>
        <time>1970-01-01T00:23:25.000Z</time>
      </trkpt>
      <trkpt lat="39.761357" lon="-8.754001">
        <ele>69.7</ele>
        <time>1970-01-01T00:23:27.000Z</time>
      </trkpt>
      <trkpt lat="39.761392" lon="-8.753964">
        <ele>69.8</ele>
        <time>1970-01-01T00:23:27.000Z</time>
      </trkpt>
      <trkpt lat="39.761429" lon="-8.753924">
        <ele>69.8</ele>
        <time>1970-01-01T00:23:28.000Z</time>
      </trkpt>
      <trkpt lat="39.761462" lon="-8.753885">
        <ele>69.9</ele>
        <time>1970-01-01T00:23:30.000Z</time>
      </trkpt>
      <trkpt lat="39.761496" lon="-8.753841">
        <ele>70</ele>
        <time>1970-01-01T00:23:31.000Z</time>
      </trkpt>
      <trkpt lat="39.761529" lon="-8.753797">
        <ele>70</ele>
        <time>1970-01-01T00:23:31.000Z</time>
      </trkpt>
      <trkpt lat="39.761558" lon="-8.753753">
        <ele>70.1</ele>
        <time>1970-01-01T00:23:32.000Z</time>
      </trkpt>
      <trkpt lat="39.761585" lon="-8.753706">
        <ele>70.2</ele>
        <time>1970-01-01T00:23:33.000Z</time>
      </trkpt>
      <trkpt lat="39.761611" lon="-8.753658">
        <ele>70.3</ele>
        <time>1970-01-01T00:23:34.000Z</time>
      </trkpt>
      <trkpt lat="39.761633" lon="-8.75361">
        <ele>70.4</ele>
        <time>1970-01-01T00:23:35.000Z</time>
      </trkpt>
      <trkpt lat="39.761654" lon="-8.753564">
        <ele>70.5</ele>
        <time>1970-01-01T00:23:36.000Z</time>
      </trkpt>
      <trkpt lat="39.761675" lon="-8.753519">
        <ele>70.5</ele>
        <time>1970-01-01T00:23:37.000Z</time>
      </trkpt>
      <trkpt lat="39.761694" lon="-8.753478">
        <ele>70.6</ele>
        <time>1970-01-01T00:23:39.000Z</time>
      </trkpt>
      <trkpt lat="39.761711" lon="-8.753437">
        <ele>70.7</ele>
        <time>1970-01-01T00:23:40.000Z</time>
      </trkpt>
      <trkpt lat="39.761727" lon="-8.753399">
        <ele>70.7</ele>
        <time>1970-01-01T00:23:40.000Z</time>
      </trkpt>
      <trkpt lat="39.761739" lon="-8.753358">
        <ele>70.8</ele>
        <time>1970-01-01T00:23:41.000Z</time>
      </trkpt>
      <trkpt lat="39.761747" lon="-8.753318">
        <ele>70.8</ele>
        <time>1970-01-01T00:23:42.000Z</time>
      </trkpt>
      <trkpt lat="39.761746" lon="-8.75327">
        <ele>70.9</ele>
        <time>1970-01-01T00:23:43.000Z</time>
      </trkpt>
      <trkpt lat="39.761739" lon="-8.753221">
        <ele>70.9</ele>
        <time>1970-01-01T00:23:44.000Z</time>
      </trkpt>
      <trkpt lat="39.761726" lon="-8.753173">
        <ele>70.9</ele>
        <time>1970-01-01T00:23:45.000Z</time>
      </trkpt>
      <trkpt lat="39.761709" lon="-8.753126">
        <ele>70.9</ele>
        <time>1970-01-01T00:23:46.000Z</time>
      </trkpt>
      <trkpt lat="39.761688" lon="-8.753078">
        <ele>70.9</ele>
        <time>1970-01-01T00:23:48.000Z</time>
      </trkpt>
      <trkpt lat="39.761664" lon="-8.75303">
        <ele>70.9</ele>
        <time>1970-01-01T00:23:48.000Z</time>
      </trkpt>
      <trkpt lat="39.761638" lon="-8.752982">
        <ele>70.8</ele>
        <time>1970-01-01T00:23:49.000Z</time>
      </trkpt>
      <trkpt lat="39.76161" lon="-8.752933">
        <ele>70.8</ele>
        <time>1970-01-01T00:23:50.000Z</time>
      </trkpt>
      <trkpt lat="39.76158" lon="-8.752884">
        <ele>70.8</ele>
        <time>1970-01-01T00:23:51.000Z</time>
      </trkpt>
      <trkpt lat="39.761553" lon="-8.752837">
        <ele>70.8</ele>
        <time>1970-01-01T00:23:52.000Z</time>
      </trkpt>
      <trkpt lat="39.761525" lon="-8.752787">
        <ele>70.7</ele>
        <time>1970-01-01T00:23:53.000Z</time>
      </trkpt>
      <trkpt lat="39.761497" lon="-8.752733">
        <ele>70.7</ele>
        <time>1970-01-01T00:23:54.000Z</time>
      </trkpt>
      <trkpt lat="39.761467" lon="-8.752678">
        <ele>70.7</ele>
        <time>1970-01-01T00:23:55.000Z</time>
      </trkpt>
      <trkpt lat="39.761435" lon="-8.752622">
        <ele>70.7</ele>
        <time>1970-01-01T00:23:56.000Z</time>
      </trkpt>
      <trkpt lat="39.761406" lon="-8.752572">
        <ele>70.6</ele>
        <time>1970-01-01T00:23:57.000Z</time>
      </trkpt>
      <trkpt lat="39.761379" lon="-8.752529">
        <ele>70.6</ele>
        <time>1970-01-01T00:23:58.000Z</time>
      </trkpt>
      <trkpt lat="39.761354" lon="-8.752492">
        <ele>70.6</ele>
        <time>1970-01-01T00:23:59.000Z</time>
      </trkpt>
      <trkpt lat="39.761332" lon="-8.752461">
        <ele>70.6</ele>
        <time>1970-01-01T00:24:00.000Z</time>
      </trkpt>
      <trkpt lat="39.76131" lon="-8.752427">
        <ele>70.6</ele>
        <time>1970-01-01T00:24:01.000Z</time>
      </trkpt>
      <trkpt lat="39.761291" lon="-8.752395">
        <ele>70.6</ele>
        <time>1970-01-01T00:24:02.000Z</time>
      </trkpt>
      <trkpt lat="39.761276" lon="-8.752364">
        <ele>70.6</ele>
        <time>1970-01-01T00:24:03.000Z</time>
      </trkpt>
      <trkpt lat="39.761267" lon="-8.752328">
        <ele>70.6</ele>
        <time>1970-01-01T00:24:04.000Z</time>
      </trkpt>
      <trkpt lat="39.761263" lon="-8.752287">
        <ele>70.5</ele>
        <time>1970-01-01T00:24:05.000Z</time>
      </trkpt>
      <trkpt lat="39.761264" lon="-8.752248">
        <ele>70.5</ele>
        <time>1970-01-01T00:24:06.000Z</time>
      </trkpt>
      <trkpt lat="39.761268" lon="-8.752206">
        <ele>70.5</ele>
        <time>1970-01-01T00:24:07.000Z</time>
      </trkpt>
      <trkpt lat="39.761275" lon="-8.752162">
        <ele>70.5</ele>
        <time>1970-01-01T00:24:09.000Z</time>
      </trkpt>
      <trkpt lat="39.761281" lon="-8.752116">
        <ele>70.4</ele>
        <time>1970-01-01T00:24:10.000Z</time>
      </trkpt>
      <trkpt lat="39.761285" lon="-8.75207">
        <ele>70.4</ele>
        <time>1970-01-01T00:24:10.000Z</time>
      </trkpt>
      <trkpt lat="39.761289" lon="-8.752024">
        <ele>70.4</ele>
        <time>1970-01-01T00:24:11.000Z</time>
      </trkpt>
      <trkpt lat="39.761292" lon="-8.751983">
        <ele>70.4</ele>
        <time>1970-01-01T00:24:12.000Z</time>
      </trkpt>
      <trkpt lat="39.761293" lon="-8.751939">
        <ele>70.4</ele>
        <time>1970-01-01T00:24:13.000Z</time>
      </trkpt>
      <trkpt lat="39.761294" lon="-8.751893">
        <ele>70.4</ele>
        <time>1970-01-01T00:24:14.000Z</time>
      </trkpt>
      <trkpt lat="39.761296" lon="-8.751841">
        <ele>70.4</ele>
        <time>1970-01-01T00:24:15.000Z</time>
      </trkpt>
      <trkpt lat="39.761296" lon="-8.751793">
        <ele>70.4</ele>
        <time>1970-01-01T00:24:16.000Z</time>
      </trkpt>
      <trkpt lat="39.761295" lon="-8.751741">
        <ele>70.4</ele>
        <time>1970-01-01T00:24:17.000Z</time>
      </trkpt>
      <trkpt lat="39.761296" lon="-8.75169">
        <ele>70.4</ele>
        <time>1970-01-01T00:24:19.000Z</time>
      </trkpt>
      <trkpt lat="39.761298" lon="-8.751639">
        <ele>70.4</ele>
        <time>1970-01-01T00:24:19.000Z</time>
      </trkpt>
      <trkpt lat="39.761301" lon="-8.751588">
        <ele>70.4</ele>
        <time>1970-01-01T00:24:20.000Z</time>
      </trkpt>
      <trkpt lat="39.761306" lon="-8.751535">
        <ele>70.4</ele>
        <time>1970-01-01T00:24:21.000Z</time>
      </trkpt>
      <trkpt lat="39.761311" lon="-8.751485">
        <ele>70.5</ele>
        <time>1970-01-01T00:24:22.000Z</time>
      </trkpt>
      <trkpt lat="39.761318" lon="-8.751434">
        <ele>70.5</ele>
        <time>1970-01-01T00:24:24.000Z</time>
      </trkpt>
      <trkpt lat="39.761323" lon="-8.751383">
        <ele>70.5</ele>
        <time>1970-01-01T00:24:24.000Z</time>
      </trkpt>
      <trkpt lat="39.761329" lon="-8.751333">
        <ele>70.6</ele>
        <time>1970-01-01T00:24:25.000Z</time>
      </trkpt>
      <trkpt lat="39.761335" lon="-8.751284">
        <ele>70.7</ele>
        <time>1970-01-01T00:24:26.000Z</time>
      </trkpt>
      <trkpt lat="39.761343" lon="-8.751237">
        <ele>70.7</ele>
        <time>1970-01-01T00:24:27.000Z</time>
      </trkpt>
      <trkpt lat="39.761355" lon="-8.751192">
        <ele>70.8</ele>
        <time>1970-01-01T00:24:28.000Z</time>
      </trkpt>
      <trkpt lat="39.761367" lon="-8.751145">
        <ele>70.9</ele>
        <time>1970-01-01T00:24:29.000Z</time>
      </trkpt>
      <trkpt lat="39.761377" lon="-8.7511">
        <ele>71</ele>
        <time>1970-01-01T00:24:30.000Z</time>
      </trkpt>
      <trkpt lat="39.761385" lon="-8.751054">
        <ele>71.1</ele>
        <time>1970-01-01T00:24:31.000Z</time>
      </trkpt>
      <trkpt lat="39.76139" lon="-8.751007">
        <ele>71.3</ele>
        <time>1970-01-01T00:24:32.000Z</time>
      </trkpt>
      <trkpt lat="39.761391" lon="-8.750962">
        <ele>71.4</ele>
        <time>1970-01-01T00:24:33.000Z</time>
      </trkpt>
      <trkpt lat="39.76139" lon="-8.75092">
        <ele>71.6</ele>
        <time>1970-01-01T00:24:34.000Z</time>
      </trkpt>
      <trkpt lat="39.761387" lon="-8.750882">
        <ele>71.8</ele>
        <time>1970-01-01T00:24:35.000Z</time>
      </trkpt>
      <trkpt lat="39.76138" lon="-8.750848">
        <ele>72</ele>
        <time>1970-01-01T00:24:36.000Z</time>
      </trkpt>
      <trkpt lat="39.76137" lon="-8.750818">
        <ele>72.2</ele>
        <time>1970-01-01T00:24:37.000Z</time>
      </trkpt>
      <trkpt lat="39.761359" lon="-8.750791">
        <ele>72.3</ele>
        <time>1970-01-01T00:24:38.000Z</time>
      </trkpt>
      <trkpt lat="39.761348" lon="-8.750765">
        <ele>72.5</ele>
        <time>1970-01-01T00:24:39.000Z</time>
      </trkpt>
      <trkpt lat="39.761335" lon="-8.750738">
        <ele>72.8</ele>
        <time>1970-01-01T00:24:40.000Z</time>
      </trkpt>
      <trkpt lat="39.761322" lon="-8.750711">
        <ele>73</ele>
        <time>1970-01-01T00:24:41.000Z</time>
      </trkpt>
      <trkpt lat="39.761309" lon="-8.750685">
        <ele>73.3</ele>
        <time>1970-01-01T00:24:42.000Z</time>
      </trkpt>
      <trkpt lat="39.761296" lon="-8.750659">
        <ele>73.5</ele>
        <time>1970-01-01T00:24:43.000Z</time>
      </trkpt>
      <trkpt lat="39.761283" lon="-8.750633">
        <ele>73.8</ele>
        <time>1970-01-01T00:24:44.000Z</time>
      </trkpt>
      <trkpt lat="39.761271" lon="-8.750606">
        <ele>74.1</ele>
        <time>1970-01-01T00:24:45.000Z</time>
      </trkpt>
      <trkpt lat="39.761259" lon="-8.750579">
        <ele>74.4</ele>
        <time>1970-01-01T00:24:46.000Z</time>
      </trkpt>
      <trkpt lat="39.761246" lon="-8.75055">
        <ele>74.7</ele>
        <time>1970-01-01T00:24:47.000Z</time>
      </trkpt>
      <trkpt lat="39.761234" lon="-8.75052">
        <ele>75</ele>
        <time>1970-01-01T00:24:48.000Z</time>
      </trkpt>
      <trkpt lat="39.761221" lon="-8.750492">
        <ele>75.4</ele>
        <time>1970-01-01T00:24:49.000Z</time>
      </trkpt>
      <trkpt lat="39.761201" lon="-8.750451">
        <ele>75.8</ele>
        <time>1970-01-01T00:24:51.000Z</time>
      </trkpt>
      <trkpt lat="39.761194" lon="-8.750438">
        <ele>76</ele>
        <time>1970-01-01T00:24:51.000Z</time>
      </trkpt>
      <trkpt lat="39.761182" lon="-8.750411">
        <ele>76.3</ele>
        <time>1970-01-01T00:24:52.000Z</time>
      </trkpt>
      <trkpt lat="39.761173" lon="-8.750388">
        <ele>76.5</ele>
        <time>1970-01-01T00:24:53.000Z</time>
      </trkpt>
      <trkpt lat="39.761166" lon="-8.750365">
        <ele>76.8</ele>
        <time>1970-01-01T00:24:54.000Z</time>
      </trkpt>
      <trkpt lat="39.761163" lon="-8.750341">
        <ele>77</ele>
        <time>1970-01-01T00:24:55.000Z</time>
      </trkpt>
      <trkpt lat="39.761163" lon="-8.750316">
        <ele>77.3</ele>
        <time>1970-01-01T00:24:56.000Z</time>
      </trkpt>
      <trkpt lat="39.761177" lon="-8.750284">
        <ele>79.4</ele>
        <time>1970-01-01T00:24:57.000Z</time>
      </trkpt>
      <trkpt lat="39.761193" lon="-8.750263">
        <ele>79.7</ele>
        <time>1970-01-01T00:24:58.000Z</time>
      </trkpt>
      <trkpt lat="39.7612" lon="-8.750255">
        <ele>79.8</ele>
        <time>1970-01-01T00:24:59.000Z</time>
      </trkpt>
      <trkpt lat="39.761207" lon="-8.750246">
        <ele>79.9</ele>
        <time>1970-01-01T00:25:01.000Z</time>
      </trkpt>
      <trkpt lat="39.761214" lon="-8.750237">
        <ele>80</ele>
        <time>1970-01-01T00:25:01.000Z</time>
      </trkpt>
      <trkpt lat="39.761228" lon="-8.750224">
        <ele>80.2</ele>
        <time>1970-01-01T00:25:02.000Z</time>
      </trkpt>
      <trkpt lat="39.761243" lon="-8.750214">
        <ele>80.4</ele>
        <time>1970-01-01T00:25:03.000Z</time>
      </trkpt>
      <trkpt lat="39.761257" lon="-8.750205">
        <ele>80.5</ele>
        <time>1970-01-01T00:25:04.000Z</time>
      </trkpt>
      <trkpt lat="39.761272" lon="-8.750198">
        <ele>80.7</ele>
        <time>1970-01-01T00:25:05.000Z</time>
      </trkpt>
      <trkpt lat="39.76129" lon="-8.750193">
        <ele>80.9</ele>
        <time>1970-01-01T00:25:06.000Z</time>
      </trkpt>
      <trkpt lat="39.761307" lon="-8.750189">
        <ele>81.1</ele>
        <time>1970-01-01T00:25:07.000Z</time>
      </trkpt>
      <trkpt lat="39.761325" lon="-8.750184">
        <ele>81.3</ele>
        <time>1970-01-01T00:25:08.000Z</time>
      </trkpt>
      <trkpt lat="39.761359" lon="-8.750176">
        <ele>81.7</ele>
        <time>1970-01-01T00:25:10.000Z</time>
      </trkpt>
      <trkpt lat="39.761363" lon="-8.750174">
        <ele>81.7</ele>
        <time>1970-01-01T00:25:10.000Z</time>
      </trkpt>
      <trkpt lat="39.761383" lon="-8.75017">
        <ele>82</ele>
        <time>1970-01-01T00:25:11.000Z</time>
      </trkpt>
      <trkpt lat="39.761401" lon="-8.750166">
        <ele>82.2</ele>
        <time>1970-01-01T00:25:12.000Z</time>
      </trkpt>
      <trkpt lat="39.76143" lon="-8.750159">
        <ele>82.5</ele>
        <time>1970-01-01T00:25:14.000Z</time>
      </trkpt>
      <trkpt lat="39.761434" lon="-8.750157">
        <ele>82.6</ele>
        <time>1970-01-01T00:25:14.000Z</time>
      </trkpt>
      <trkpt lat="39.761457" lon="-8.750145">
        <ele>82.9</ele>
        <time>1970-01-01T00:25:15.000Z</time>
      </trkpt>
      <trkpt lat="39.761472" lon="-8.750134">
        <ele>83.1</ele>
        <time>1970-01-01T00:25:16.000Z</time>
      </trkpt>
      <trkpt lat="39.761478" lon="-8.750129">
        <ele>83.2</ele>
        <time>1970-01-01T00:25:18.000Z</time>
      </trkpt>
      <trkpt lat="39.761484" lon="-8.750125">
        <ele>83.3</ele>
        <time>1970-01-01T00:25:18.000Z</time>
      </trkpt>
      <trkpt lat="39.761501" lon="-8.750099">
        <ele>83.6</ele>
        <time>1970-01-01T00:25:19.000Z</time>
      </trkpt>
      <trkpt lat="39.761509" lon="-8.750084">
        <ele>83.8</ele>
        <time>1970-01-01T00:25:21.000Z</time>
      </trkpt>
      <trkpt lat="39.761512" lon="-8.750078">
        <ele>83.9</ele>
        <time>1970-01-01T00:25:21.000Z</time>
      </trkpt>
      <trkpt lat="39.761525" lon="-8.75005">
        <ele>84.2</ele>
        <time>1970-01-01T00:25:23.000Z</time>
      </trkpt>
      <trkpt lat="39.761526" lon="-8.750045">
        <ele>84.2</ele>
        <time>1970-01-01T00:25:23.000Z</time>
      </trkpt>
      <trkpt lat="39.761535" lon="-8.750012">
        <ele>84.6</ele>
        <time>1970-01-01T00:25:24.000Z</time>
      </trkpt>
      <trkpt lat="39.761542" lon="-8.749988">
        <ele>84.8</ele>
        <time>1970-01-01T00:25:25.000Z</time>
      </trkpt>
      <trkpt lat="39.761546" lon="-8.749977">
        <ele>84.9</ele>
        <time>1970-01-01T00:25:26.000Z</time>
      </trkpt>
      <trkpt lat="39.761549" lon="-8.749967">
        <ele>85</ele>
        <time>1970-01-01T00:25:28.000Z</time>
      </trkpt>
      <trkpt lat="39.761552" lon="-8.749956">
        <ele>85.1</ele>
        <time>1970-01-01T00:25:28.000Z</time>
      </trkpt>
      <trkpt lat="39.761557" lon="-8.74994">
        <ele>85.3</ele>
        <time>1970-01-01T00:25:29.000Z</time>
      </trkpt>
      <trkpt lat="39.761563" lon="-8.749925">
        <ele>85.5</ele>
        <time>1970-01-01T00:25:30.000Z</time>
      </trkpt>
      <trkpt lat="39.761569" lon="-8.749911">
        <ele>85.6</ele>
        <time>1970-01-01T00:25:31.000Z</time>
      </trkpt>
      <trkpt lat="39.761575" lon="-8.749899">
        <ele>85.7</ele>
        <time>1970-01-01T00:25:32.000Z</time>
      </trkpt>
      <trkpt lat="39.761584" lon="-8.749889">
        <ele>85.9</ele>
        <time>1970-01-01T00:25:33.000Z</time>
      </trkpt>
      <trkpt lat="39.761594" lon="-8.74988">
        <ele>86</ele>
        <time>1970-01-01T00:25:34.000Z</time>
      </trkpt>
      <trkpt lat="39.761606" lon="-8.749872">
        <ele>86.1</ele>
        <time>1970-01-01T00:25:35.000Z</time>
      </trkpt>
      <trkpt lat="39.76162" lon="-8.749864">
        <ele>86.3</ele>
        <time>1970-01-01T00:25:36.000Z</time>
      </trkpt>
      <trkpt lat="39.761635" lon="-8.749855">
        <ele>86.4</ele>
        <time>1970-01-01T00:25:37.000Z</time>
      </trkpt>
      <trkpt lat="39.76165" lon="-8.749845">
        <ele>86.6</ele>
        <time>1970-01-01T00:25:38.000Z</time>
      </trkpt>
      <trkpt lat="39.761665" lon="-8.749834">
        <ele>86.8</ele>
        <time>1970-01-01T00:25:39.000Z</time>
      </trkpt>
      <trkpt lat="39.761681" lon="-8.749823">
        <ele>86.9</ele>
        <time>1970-01-01T00:25:40.000Z</time>
      </trkpt>
      <trkpt lat="39.761696" lon="-8.749813">
        <ele>87.1</ele>
        <time>1970-01-01T00:25:41.000Z</time>
      </trkpt>
      <trkpt lat="39.761712" lon="-8.749801">
        <ele>87.3</ele>
        <time>1970-01-01T00:25:42.000Z</time>
      </trkpt>
      <trkpt lat="39.761727" lon="-8.74979">
        <ele>87.4</ele>
        <time>1970-01-01T00:25:43.000Z</time>
      </trkpt>
      <trkpt lat="39.761743" lon="-8.749777">
        <ele>87.5</ele>
        <time>1970-01-01T00:25:44.000Z</time>
      </trkpt>
      <trkpt lat="39.761757" lon="-8.749763">
        <ele>87.7</ele>
        <time>1970-01-01T00:25:45.000Z</time>
      </trkpt>
      <trkpt lat="39.76177" lon="-8.749747">
        <ele>87.8</ele>
        <time>1970-01-01T00:25:46.000Z</time>
      </trkpt>
      <trkpt lat="39.761793" lon="-8.749721">
        <ele>88</ele>
        <time>1970-01-01T00:25:47.000Z</time>
      </trkpt>
      <trkpt lat="39.761811" lon="-8.749703">
        <ele>88.2</ele>
        <time>1970-01-01T00:25:48.000Z</time>
      </trkpt>
      <trkpt lat="39.76182" lon="-8.749695">
        <ele>88.3</ele>
        <time>1970-01-01T00:25:49.000Z</time>
      </trkpt>
      <trkpt lat="39.761828" lon="-8.749686">
        <ele>88.4</ele>
        <time>1970-01-01T00:25:50.000Z</time>
      </trkpt>
      <trkpt lat="39.761837" lon="-8.749678">
        <ele>88.5</ele>
        <time>1970-01-01T00:25:52.000Z</time>
      </trkpt>
      <trkpt lat="39.761845" lon="-8.74967">
        <ele>88.5</ele>
        <time>1970-01-01T00:25:52.000Z</time>
      </trkpt>
      <trkpt lat="39.761858" lon="-8.749657">
        <ele>88.7</ele>
        <time>1970-01-01T00:25:53.000Z</time>
      </trkpt>
      <trkpt lat="39.761871" lon="-8.749643">
        <ele>88.8</ele>
        <time>1970-01-01T00:25:54.000Z</time>
      </trkpt>
      <trkpt lat="39.761886" lon="-8.749627">
        <ele>89</ele>
        <time>1970-01-01T00:25:55.000Z</time>
      </trkpt>
      <trkpt lat="39.761901" lon="-8.74961">
        <ele>89.1</ele>
        <time>1970-01-01T00:25:56.000Z</time>
      </trkpt>
      <trkpt lat="39.761915" lon="-8.749593">
        <ele>89.3</ele>
        <time>1970-01-01T00:25:57.000Z</time>
      </trkpt>
      <trkpt lat="39.761927" lon="-8.749579">
        <ele>89.5</ele>
        <time>1970-01-01T00:25:58.000Z</time>
      </trkpt>
      <trkpt lat="39.761938" lon="-8.749567">
        <ele>89.6</ele>
        <time>1970-01-01T00:25:59.000Z</time>
      </trkpt>
      <trkpt lat="39.761948" lon="-8.749552">
        <ele>89.8</ele>
        <time>1970-01-01T00:26:00.000Z</time>
      </trkpt>
      <trkpt lat="39.761961" lon="-8.749537">
        <ele>89.9</ele>
        <time>1970-01-01T00:26:01.000Z</time>
      </trkpt>
      <trkpt lat="39.761975" lon="-8.749525">
        <ele>90.1</ele>
        <time>1970-01-01T00:26:02.000Z</time>
      </trkpt>
      <trkpt lat="39.76199" lon="-8.749512">
        <ele>90.3</ele>
        <time>1970-01-01T00:26:03.000Z</time>
      </trkpt>
      <trkpt lat="39.762012" lon="-8.749492">
        <ele>90.6</ele>
        <time>1970-01-01T00:26:04.000Z</time>
      </trkpt>
      <trkpt lat="39.762027" lon="-8.749477">
        <ele>90.8</ele>
        <time>1970-01-01T00:26:05.000Z</time>
      </trkpt>
      <trkpt lat="39.762032" lon="-8.749472">
        <ele>90.9</ele>
        <time>1970-01-01T00:26:07.000Z</time>
      </trkpt>
      <trkpt lat="39.762038" lon="-8.749466">
        <ele>90.9</ele>
        <time>1970-01-01T00:26:07.000Z</time>
      </trkpt>
      <trkpt lat="39.762049" lon="-8.749454">
        <ele>91.1</ele>
        <time>1970-01-01T00:26:08.000Z</time>
      </trkpt>
      <trkpt lat="39.762059" lon="-8.749441">
        <ele>91.2</ele>
        <time>1970-01-01T00:26:09.000Z</time>
      </trkpt>
      <trkpt lat="39.76207" lon="-8.749428">
        <ele>91.4</ele>
        <time>1970-01-01T00:26:10.000Z</time>
      </trkpt>
      <trkpt lat="39.76208" lon="-8.749414">
        <ele>91.5</ele>
        <time>1970-01-01T00:26:11.000Z</time>
      </trkpt>
      <trkpt lat="39.762092" lon="-8.749399">
        <ele>91.7</ele>
        <time>1970-01-01T00:26:12.000Z</time>
      </trkpt>
      <trkpt lat="39.762105" lon="-8.749382">
        <ele>91.9</ele>
        <time>1970-01-01T00:26:13.000Z</time>
      </trkpt>
      <trkpt lat="39.762116" lon="-8.749365">
        <ele>92.1</ele>
        <time>1970-01-01T00:26:14.000Z</time>
      </trkpt>
      <trkpt lat="39.762125" lon="-8.749346">
        <ele>92.2</ele>
        <time>1970-01-01T00:26:15.000Z</time>
      </trkpt>
      <trkpt lat="39.762138" lon="-8.749313">
        <ele>92.5</ele>
        <time>1970-01-01T00:26:16.000Z</time>
      </trkpt>
      <trkpt lat="39.762149" lon="-8.749285">
        <ele>92.7</ele>
        <time>1970-01-01T00:26:17.000Z</time>
      </trkpt>
      <trkpt lat="39.762153" lon="-8.749274">
        <ele>92.8</ele>
        <time>1970-01-01T00:26:19.000Z</time>
      </trkpt>
      <trkpt lat="39.762157" lon="-8.749263">
        <ele>92.9</ele>
        <time>1970-01-01T00:26:19.000Z</time>
      </trkpt>
      <trkpt lat="39.762165" lon="-8.74924">
        <ele>93</ele>
        <time>1970-01-01T00:26:20.000Z</time>
      </trkpt>
      <trkpt lat="39.762172" lon="-8.749214">
        <ele>93.2</ele>
        <time>1970-01-01T00:26:21.000Z</time>
      </trkpt>
      <trkpt lat="39.76218" lon="-8.749187">
        <ele>93.4</ele>
        <time>1970-01-01T00:26:22.000Z</time>
      </trkpt>
      <trkpt lat="39.762188" lon="-8.749157">
        <ele>93.6</ele>
        <time>1970-01-01T00:26:23.000Z</time>
      </trkpt>
      <trkpt lat="39.762197" lon="-8.749127">
        <ele>93.8</ele>
        <time>1970-01-01T00:26:24.000Z</time>
      </trkpt>
      <trkpt lat="39.762206" lon="-8.749099">
        <ele>93.9</ele>
        <time>1970-01-01T00:26:25.000Z</time>
      </trkpt>
      <trkpt lat="39.762212" lon="-8.749072">
        <ele>94.1</ele>
        <time>1970-01-01T00:26:26.000Z</time>
      </trkpt>
      <trkpt lat="39.762218" lon="-8.749045">
        <ele>94.2</ele>
        <time>1970-01-01T00:26:27.000Z</time>
      </trkpt>
      <trkpt lat="39.762221" lon="-8.749021">
        <ele>94.4</ele>
        <time>1970-01-01T00:26:28.000Z</time>
      </trkpt>
      <trkpt lat="39.762225" lon="-8.748998">
        <ele>94.5</ele>
        <time>1970-01-01T00:26:29.000Z</time>
      </trkpt>
      <trkpt lat="39.762228" lon="-8.748972">
        <ele>94.6</ele>
        <time>1970-01-01T00:26:30.000Z</time>
      </trkpt>
      <trkpt lat="39.762231" lon="-8.748944">
        <ele>94.8</ele>
        <time>1970-01-01T00:26:31.000Z</time>
      </trkpt>
      <trkpt lat="39.762233" lon="-8.748915">
        <ele>94.9</ele>
        <time>1970-01-01T00:26:32.000Z</time>
      </trkpt>
      <trkpt lat="39.762235" lon="-8.748885">
        <ele>95</ele>
        <time>1970-01-01T00:26:33.000Z</time>
      </trkpt>
      <trkpt lat="39.762235" lon="-8.748853">
        <ele>95.2</ele>
        <time>1970-01-01T00:26:34.000Z</time>
      </trkpt>
      <trkpt lat="39.762234" lon="-8.748824">
        <ele>95.3</ele>
        <time>1970-01-01T00:26:35.000Z</time>
      </trkpt>
      <trkpt lat="39.762235" lon="-8.748795">
        <ele>95.4</ele>
        <time>1970-01-01T00:26:36.000Z</time>
      </trkpt>
      <trkpt lat="39.762235" lon="-8.748769">
        <ele>95.4</ele>
        <time>1970-01-01T00:26:37.000Z</time>
      </trkpt>
      <trkpt lat="39.762234" lon="-8.748745">
        <ele>95.5</ele>
        <time>1970-01-01T00:26:38.000Z</time>
      </trkpt>
      <trkpt lat="39.762229" lon="-8.74871">
        <ele>95.6</ele>
        <time>1970-01-01T00:26:39.000Z</time>
      </trkpt>
      <trkpt lat="39.762219" lon="-8.748685">
        <ele>95.7</ele>
        <time>1970-01-01T00:26:40.000Z</time>
      </trkpt>
      <trkpt lat="39.762215" lon="-8.748672">
        <ele>95.7</ele>
        <time>1970-01-01T00:26:41.000Z</time>
      </trkpt>
      <trkpt lat="39.76221" lon="-8.74866">
        <ele>95.7</ele>
        <time>1970-01-01T00:26:42.000Z</time>
      </trkpt>
      <trkpt lat="39.762206" lon="-8.748647">
        <ele>95.8</ele>
        <time>1970-01-01T00:26:43.000Z</time>
      </trkpt>
      <trkpt lat="39.762201" lon="-8.748635">
        <ele>95.8</ele>
        <time>1970-01-01T00:26:44.000Z</time>
      </trkpt>
      <trkpt lat="39.762196" lon="-8.748623">
        <ele>95.8</ele>
        <time>1970-01-01T00:26:45.000Z</time>
      </trkpt>
      <trkpt lat="39.762192" lon="-8.74861">
        <ele>95.9</ele>
        <time>1970-01-01T00:26:46.000Z</time>
      </trkpt>
      <trkpt lat="39.762187" lon="-8.748598">
        <ele>95.9</ele>
        <time>1970-01-01T00:26:47.000Z</time>
      </trkpt>
      <trkpt lat="39.762183" lon="-8.748585">
        <ele>95.9</ele>
        <time>1970-01-01T00:26:49.000Z</time>
      </trkpt>
      <trkpt lat="39.762178" lon="-8.748573">
        <ele>95.8</ele>
        <time>1970-01-01T00:26:49.000Z</time>
      </trkpt>
      <trkpt lat="39.762153" lon="-8.748569">
        <ele>95.8</ele>
        <time>1970-01-01T00:26:50.000Z</time>
      </trkpt>
      <trkpt lat="39.762127" lon="-8.74856">
        <ele>95.8</ele>
        <time>1970-01-01T00:26:51.000Z</time>
      </trkpt>
      <trkpt lat="39.762096" lon="-8.748547">
        <ele>95.7</ele>
        <time>1970-01-01T00:26:52.000Z</time>
      </trkpt>
      <trkpt lat="39.762063" lon="-8.748534">
        <ele>95.7</ele>
        <time>1970-01-01T00:26:53.000Z</time>
      </trkpt>
      <trkpt lat="39.762027" lon="-8.748519">
        <ele>95.5</ele>
        <time>1970-01-01T00:26:54.000Z</time>
      </trkpt>
      <trkpt lat="39.761988" lon="-8.748499">
        <ele>95.4</ele>
        <time>1970-01-01T00:26:55.000Z</time>
      </trkpt>
      <trkpt lat="39.761947" lon="-8.748476">
        <ele>95.3</ele>
        <time>1970-01-01T00:26:56.000Z</time>
      </trkpt>
      <trkpt lat="39.761903" lon="-8.748453">
        <ele>95.1</ele>
        <time>1970-01-01T00:26:57.000Z</time>
      </trkpt>
      <trkpt lat="39.761857" lon="-8.748428">
        <ele>94.8</ele>
        <time>1970-01-01T00:26:58.000Z</time>
      </trkpt>
      <trkpt lat="39.761812" lon="-8.748404">
        <ele>94.4</ele>
        <time>1970-01-01T00:26:59.000Z</time>
      </trkpt>
      <trkpt lat="39.761768" lon="-8.748381">
        <ele>93.9</ele>
        <time>1970-01-01T00:27:00.000Z</time>
      </trkpt>
      <trkpt lat="39.761725" lon="-8.748359">
        <ele>93.5</ele>
        <time>1970-01-01T00:27:01.000Z</time>
      </trkpt>
      <trkpt lat="39.761686" lon="-8.748336">
        <ele>93.1</ele>
        <time>1970-01-01T00:27:03.000Z</time>
      </trkpt>
      <trkpt lat="39.761653" lon="-8.748316">
        <ele>92.7</ele>
        <time>1970-01-01T00:27:03.000Z</time>
      </trkpt>
      <trkpt lat="39.761623" lon="-8.748298">
        <ele>92.3</ele>
        <time>1970-01-01T00:27:04.000Z</time>
      </trkpt>
      <trkpt lat="39.761597" lon="-8.74828">
        <ele>92</ele>
        <time>1970-01-01T00:27:05.000Z</time>
      </trkpt>
      <trkpt lat="39.761574" lon="-8.748262">
        <ele>91.7</ele>
        <time>1970-01-01T00:27:06.000Z</time>
      </trkpt>
      <trkpt lat="39.761558" lon="-8.748243">
        <ele>91.4</ele>
        <time>1970-01-01T00:27:07.000Z</time>
      </trkpt>
      <trkpt lat="39.761546" lon="-8.748221">
        <ele>91.2</ele>
        <time>1970-01-01T00:27:08.000Z</time>
      </trkpt>
      <trkpt lat="39.761539" lon="-8.748198">
        <ele>91</ele>
        <time>1970-01-01T00:27:09.000Z</time>
      </trkpt>
      <trkpt lat="39.76154" lon="-8.748171">
        <ele>90.7</ele>
        <time>1970-01-01T00:27:10.000Z</time>
      </trkpt>
      <trkpt lat="39.76155" lon="-8.748142">
        <ele>90.8</ele>
        <time>1970-01-01T00:27:11.000Z</time>
      </trkpt>
      <trkpt lat="39.761567" lon="-8.74811">
        <ele>91</ele>
        <time>1970-01-01T00:27:12.000Z</time>
      </trkpt>
      <trkpt lat="39.761589" lon="-8.748078">
        <ele>91.2</ele>
        <time>1970-01-01T00:27:13.000Z</time>
      </trkpt>
      <trkpt lat="39.761613" lon="-8.748046">
        <ele>91.4</ele>
        <time>1970-01-01T00:27:14.000Z</time>
      </trkpt>
      <trkpt lat="39.761637" lon="-8.748013">
        <ele>91.6</ele>
        <time>1970-01-01T00:27:15.000Z</time>
      </trkpt>
      <trkpt lat="39.76166" lon="-8.747981">
        <ele>91.8</ele>
        <time>1970-01-01T00:27:16.000Z</time>
      </trkpt>
      <trkpt lat="39.761682" lon="-8.747951">
        <ele>92</ele>
        <time>1970-01-01T00:27:17.000Z</time>
      </trkpt>
      <trkpt lat="39.761702" lon="-8.747921">
        <ele>92.2</ele>
        <time>1970-01-01T00:27:18.000Z</time>
      </trkpt>
      <trkpt lat="39.761722" lon="-8.747891">
        <ele>92.4</ele>
        <time>1970-01-01T00:27:19.000Z</time>
      </trkpt>
      <trkpt lat="39.761741" lon="-8.74786">
        <ele>92.7</ele>
        <time>1970-01-01T00:27:20.000Z</time>
      </trkpt>
      <trkpt lat="39.761771" lon="-8.747813">
        <ele>93</ele>
        <time>1970-01-01T00:27:22.000Z</time>
      </trkpt>
      <trkpt lat="39.76178" lon="-8.747797">
        <ele>93.1</ele>
        <time>1970-01-01T00:27:22.000Z</time>
      </trkpt>
      <trkpt lat="39.761797" lon="-8.747766">
        <ele>93.3</ele>
        <time>1970-01-01T00:27:23.000Z</time>
      </trkpt>
      <trkpt lat="39.761814" lon="-8.747735">
        <ele>93.5</ele>
        <time>1970-01-01T00:27:24.000Z</time>
      </trkpt>
      <trkpt lat="39.761829" lon="-8.747702">
        <ele>93.7</ele>
        <time>1970-01-01T00:27:25.000Z</time>
      </trkpt>
      <trkpt lat="39.761844" lon="-8.747668">
        <ele>94</ele>
        <time>1970-01-01T00:27:26.000Z</time>
      </trkpt>
      <trkpt lat="39.761859" lon="-8.747631">
        <ele>94.2</ele>
        <time>1970-01-01T00:27:27.000Z</time>
      </trkpt>
      <trkpt lat="39.761875" lon="-8.747593">
        <ele>94.5</ele>
        <time>1970-01-01T00:27:28.000Z</time>
      </trkpt>
      <trkpt lat="39.76189" lon="-8.747558">
        <ele>94.7</ele>
        <time>1970-01-01T00:27:29.000Z</time>
      </trkpt>
      <trkpt lat="39.761905" lon="-8.747508">
        <ele>95</ele>
        <time>1970-01-01T00:27:31.000Z</time>
      </trkpt>
      <trkpt lat="39.761909" lon="-8.747491">
        <ele>95.1</ele>
        <time>1970-01-01T00:27:31.000Z</time>
      </trkpt>
      <trkpt lat="39.761911" lon="-8.747456">
        <ele>95.3</ele>
        <time>1970-01-01T00:27:32.000Z</time>
      </trkpt>
      <trkpt lat="39.761911" lon="-8.747418">
        <ele>95.5</ele>
        <time>1970-01-01T00:27:33.000Z</time>
      </trkpt>
      <trkpt lat="39.76191" lon="-8.747382">
        <ele>95.7</ele>
        <time>1970-01-01T00:27:34.000Z</time>
      </trkpt>
      <trkpt lat="39.761912" lon="-8.747345">
        <ele>95.9</ele>
        <time>1970-01-01T00:27:35.000Z</time>
      </trkpt>
      <trkpt lat="39.761915" lon="-8.747309">
        <ele>96.1</ele>
        <time>1970-01-01T00:27:36.000Z</time>
      </trkpt>
      <trkpt lat="39.761916" lon="-8.747272">
        <ele>96.2</ele>
        <time>1970-01-01T00:27:37.000Z</time>
      </trkpt>
      <trkpt lat="39.761911" lon="-8.747218">
        <ele>96.5</ele>
        <time>1970-01-01T00:27:39.000Z</time>
      </trkpt>
      <trkpt lat="39.761909" lon="-8.747201">
        <ele>96.6</ele>
        <time>1970-01-01T00:27:39.000Z</time>
      </trkpt>
      <trkpt lat="39.761904" lon="-8.747168">
        <ele>96.7</ele>
        <time>1970-01-01T00:27:40.000Z</time>
      </trkpt>
      <trkpt lat="39.761898" lon="-8.74713">
        <ele>96.9</ele>
        <time>1970-01-01T00:27:41.000Z</time>
      </trkpt>
      <trkpt lat="39.761892" lon="-8.747089">
        <ele>97.1</ele>
        <time>1970-01-01T00:27:42.000Z</time>
      </trkpt>
      <trkpt lat="39.761886" lon="-8.747046">
        <ele>97.3</ele>
        <time>1970-01-01T00:27:43.000Z</time>
      </trkpt>
      <trkpt lat="39.761879" lon="-8.747003">
        <ele>97.5</ele>
        <time>1970-01-01T00:27:44.000Z</time>
      </trkpt>
      <trkpt lat="39.761872" lon="-8.74696">
        <ele>97.7</ele>
        <time>1970-01-01T00:27:45.000Z</time>
      </trkpt>
      <trkpt lat="39.761863" lon="-8.746915">
        <ele>97.9</ele>
        <time>1970-01-01T00:27:46.000Z</time>
      </trkpt>
      <trkpt lat="39.761855" lon="-8.746872">
        <ele>98.1</ele>
        <time>1970-01-01T00:27:47.000Z</time>
      </trkpt>
      <trkpt lat="39.761846" lon="-8.746831">
        <ele>98.3</ele>
        <time>1970-01-01T00:27:48.000Z</time>
      </trkpt>
      <trkpt lat="39.761835" lon="-8.746769">
        <ele>98.6</ele>
        <time>1970-01-01T00:27:50.000Z</time>
      </trkpt>
      <trkpt lat="39.761831" lon="-8.74675">
        <ele>98.7</ele>
        <time>1970-01-01T00:27:50.000Z</time>
      </trkpt>
      <trkpt lat="39.761821" lon="-8.746693">
        <ele>99</ele>
        <time>1970-01-01T00:27:52.000Z</time>
      </trkpt>
      <trkpt lat="39.761817" lon="-8.746674">
        <ele>99.1</ele>
        <time>1970-01-01T00:27:52.000Z</time>
      </trkpt>
      <trkpt lat="39.76181" lon="-8.746636">
        <ele>99.3</ele>
        <time>1970-01-01T00:27:53.000Z</time>
      </trkpt>
      <trkpt lat="39.761802" lon="-8.746597">
        <ele>99.5</ele>
        <time>1970-01-01T00:27:54.000Z</time>
      </trkpt>
      <trkpt lat="39.761791" lon="-8.746538">
        <ele>99.8</ele>
        <time>1970-01-01T00:27:56.000Z</time>
      </trkpt>
      <trkpt lat="39.761787" lon="-8.746519">
        <ele>99.9</ele>
        <time>1970-01-01T00:27:56.000Z</time>
      </trkpt>
      <trkpt lat="39.761778" lon="-8.746459">
        <ele>100.2</ele>
        <time>1970-01-01T00:27:58.000Z</time>
      </trkpt>
      <trkpt lat="39.761775" lon="-8.74644">
        <ele>100.3</ele>
        <time>1970-01-01T00:27:58.000Z</time>
      </trkpt>
      <trkpt lat="39.761769" lon="-8.746402">
        <ele>100.5</ele>
        <time>1970-01-01T00:27:59.000Z</time>
      </trkpt>
      <trkpt lat="39.761763" lon="-8.746365">
        <ele>100.7</ele>
        <time>1970-01-01T00:28:00.000Z</time>
      </trkpt>
      <trkpt lat="39.761756" lon="-8.746323">
        <ele>100.9</ele>
        <time>1970-01-01T00:28:01.000Z</time>
      </trkpt>
      <trkpt lat="39.76175" lon="-8.746283">
        <ele>101.1</ele>
        <time>1970-01-01T00:28:02.000Z</time>
      </trkpt>
      <trkpt lat="39.761745" lon="-8.746243">
        <ele>101.3</ele>
        <time>1970-01-01T00:28:03.000Z</time>
      </trkpt>
      <trkpt lat="39.76174" lon="-8.746203">
        <ele>101.5</ele>
        <time>1970-01-01T00:28:04.000Z</time>
      </trkpt>
      <trkpt lat="39.761735" lon="-8.746164">
        <ele>101.7</ele>
        <time>1970-01-01T00:28:05.000Z</time>
      </trkpt>
      <trkpt lat="39.761731" lon="-8.746125">
        <ele>101.9</ele>
        <time>1970-01-01T00:28:06.000Z</time>
      </trkpt>
      <trkpt lat="39.761724" lon="-8.746065">
        <ele>102.3</ele>
        <time>1970-01-01T00:28:08.000Z</time>
      </trkpt>
      <trkpt lat="39.761722" lon="-8.746045">
        <ele>102.4</ele>
        <time>1970-01-01T00:28:08.000Z</time>
      </trkpt>
      <trkpt lat="39.761719" lon="-8.746007">
        <ele>102.6</ele>
        <time>1970-01-01T00:28:09.000Z</time>
      </trkpt>
      <trkpt lat="39.761717" lon="-8.74597">
        <ele>102.7</ele>
        <time>1970-01-01T00:28:10.000Z</time>
      </trkpt>
      <trkpt lat="39.761718" lon="-8.745933">
        <ele>102.9</ele>
        <time>1970-01-01T00:28:11.000Z</time>
      </trkpt>
      <trkpt lat="39.761719" lon="-8.745897">
        <ele>103.1</ele>
        <time>1970-01-01T00:28:12.000Z</time>
      </trkpt>
      <trkpt lat="39.761722" lon="-8.745861">
        <ele>103.3</ele>
        <time>1970-01-01T00:28:13.000Z</time>
      </trkpt>
      <trkpt lat="39.761727" lon="-8.745828">
        <ele>103.5</ele>
        <time>1970-01-01T00:28:14.000Z</time>
      </trkpt>
      <trkpt lat="39.761735" lon="-8.745796">
        <ele>103.6</ele>
        <time>1970-01-01T00:28:15.000Z</time>
      </trkpt>
      <trkpt lat="39.761746" lon="-8.745767">
        <ele>103.8</ele>
        <time>1970-01-01T00:28:16.000Z</time>
      </trkpt>
      <trkpt lat="39.761761" lon="-8.745739">
        <ele>103.8</ele>
        <time>1970-01-01T00:28:18.000Z</time>
      </trkpt>
      <trkpt lat="39.761778" lon="-8.745714">
        <ele>103.9</ele>
        <time>1970-01-01T00:28:19.000Z</time>
      </trkpt>
      <trkpt lat="39.761797" lon="-8.745693">
        <ele>103.9</ele>
        <time>1970-01-01T00:28:19.000Z</time>
      </trkpt>
      <trkpt lat="39.761818" lon="-8.745674">
        <ele>103.9</ele>
        <time>1970-01-01T00:28:20.000Z</time>
      </trkpt>
      <trkpt lat="39.761841" lon="-8.745658">
        <ele>103.9</ele>
        <time>1970-01-01T00:28:21.000Z</time>
      </trkpt>
      <trkpt lat="39.761881" lon="-8.745634">
        <ele>103.8</ele>
        <time>1970-01-01T00:28:23.000Z</time>
      </trkpt>
      <trkpt lat="39.761894" lon="-8.745625">
        <ele>103.8</ele>
        <time>1970-01-01T00:28:23.000Z</time>
      </trkpt>
      <trkpt lat="39.761923" lon="-8.74561">
        <ele>103.8</ele>
        <time>1970-01-01T00:28:24.000Z</time>
      </trkpt>
      <trkpt lat="39.761954" lon="-8.745596">
        <ele>103.8</ele>
        <time>1970-01-01T00:28:25.000Z</time>
      </trkpt>
      <trkpt lat="39.762002" lon="-8.745575">
        <ele>103.8</ele>
        <time>1970-01-01T00:28:27.000Z</time>
      </trkpt>
      <trkpt lat="39.762018" lon="-8.745568">
        <ele>103.8</ele>
        <time>1970-01-01T00:28:27.000Z</time>
      </trkpt>
      <trkpt lat="39.762055" lon="-8.745556">
        <ele>103.8</ele>
        <time>1970-01-01T00:28:28.000Z</time>
      </trkpt>
      <trkpt lat="39.762094" lon="-8.745544">
        <ele>103.9</ele>
        <time>1970-01-01T00:28:29.000Z</time>
      </trkpt>
      <trkpt lat="39.762131" lon="-8.745534">
        <ele>104</ele>
        <time>1970-01-01T00:28:30.000Z</time>
      </trkpt>
      <trkpt lat="39.762167" lon="-8.745525">
        <ele>104.1</ele>
        <time>1970-01-01T00:28:31.000Z</time>
      </trkpt>
      <trkpt lat="39.762202" lon="-8.745518">
        <ele>104.2</ele>
        <time>1970-01-01T00:28:32.000Z</time>
      </trkpt>
      <trkpt lat="39.762233" lon="-8.745514">
        <ele>104.4</ele>
        <time>1970-01-01T00:28:33.000Z</time>
      </trkpt>
      <trkpt lat="39.762263" lon="-8.74551">
        <ele>104.5</ele>
        <time>1970-01-01T00:28:34.000Z</time>
      </trkpt>
      <trkpt lat="39.762291" lon="-8.745509">
        <ele>104.7</ele>
        <time>1970-01-01T00:28:35.000Z</time>
      </trkpt>
      <trkpt lat="39.762321" lon="-8.745508">
        <ele>104.9</ele>
        <time>1970-01-01T00:28:36.000Z</time>
      </trkpt>
      <trkpt lat="39.762348" lon="-8.745506">
        <ele>105</ele>
        <time>1970-01-01T00:28:37.000Z</time>
      </trkpt>
      <trkpt lat="39.762375" lon="-8.745505">
        <ele>105.2</ele>
        <time>1970-01-01T00:28:38.000Z</time>
      </trkpt>
      <trkpt lat="39.762402" lon="-8.745502">
        <ele>105.4</ele>
        <time>1970-01-01T00:28:39.000Z</time>
      </trkpt>
      <trkpt lat="39.762429" lon="-8.745499">
        <ele>105.6</ele>
        <time>1970-01-01T00:28:40.000Z</time>
      </trkpt>
      <trkpt lat="39.762454" lon="-8.745498">
        <ele>105.8</ele>
        <time>1970-01-01T00:28:41.000Z</time>
      </trkpt>
      <trkpt lat="39.762482" lon="-8.745496">
        <ele>106</ele>
        <time>1970-01-01T00:28:42.000Z</time>
      </trkpt>
      <trkpt lat="39.762509" lon="-8.745495">
        <ele>106.1</ele>
        <time>1970-01-01T00:28:43.000Z</time>
      </trkpt>
      <trkpt lat="39.762536" lon="-8.745493">
        <ele>106.3</ele>
        <time>1970-01-01T00:28:44.000Z</time>
      </trkpt>
      <trkpt lat="39.76256" lon="-8.74549">
        <ele>106.5</ele>
        <time>1970-01-01T00:28:45.000Z</time>
      </trkpt>
      <trkpt lat="39.762581" lon="-8.745488">
        <ele>106.6</ele>
        <time>1970-01-01T00:28:46.000Z</time>
      </trkpt>
      <trkpt lat="39.762617" lon="-8.745484">
        <ele>106.8</ele>
        <time>1970-01-01T00:28:48.000Z</time>
      </trkpt>
      <trkpt lat="39.76263" lon="-8.745482">
        <ele>106.9</ele>
        <time>1970-01-01T00:28:48.000Z</time>
      </trkpt>
      <trkpt lat="39.762657" lon="-8.745479">
        <ele>107.1</ele>
        <time>1970-01-01T00:28:49.000Z</time>
      </trkpt>
      <trkpt lat="39.762686" lon="-8.745477">
        <ele>107.2</ele>
        <time>1970-01-01T00:28:50.000Z</time>
      </trkpt>
      <trkpt lat="39.762716" lon="-8.745475">
        <ele>107.3</ele>
        <time>1970-01-01T00:28:51.000Z</time>
      </trkpt>
      <trkpt lat="39.762762" lon="-8.74547">
        <ele>107.5</ele>
        <time>1970-01-01T00:28:53.000Z</time>
      </trkpt>
      <trkpt lat="39.762777" lon="-8.745467">
        <ele>107.6</ele>
        <time>1970-01-01T00:28:53.000Z</time>
      </trkpt>
      <trkpt lat="39.762807" lon="-8.745462">
        <ele>107.6</ele>
        <time>1970-01-01T00:28:54.000Z</time>
      </trkpt>
      <trkpt lat="39.762838" lon="-8.745454">
        <ele>107.7</ele>
        <time>1970-01-01T00:28:55.000Z</time>
      </trkpt>
      <trkpt lat="39.76287" lon="-8.745446">
        <ele>107.7</ele>
        <time>1970-01-01T00:28:56.000Z</time>
      </trkpt>
      <trkpt lat="39.762905" lon="-8.745435">
        <ele>107.7</ele>
        <time>1970-01-01T00:28:57.000Z</time>
      </trkpt>
      <trkpt lat="39.76294" lon="-8.745424">
        <ele>107.7</ele>
        <time>1970-01-01T00:28:58.000Z</time>
      </trkpt>
      <trkpt lat="39.762976" lon="-8.745413">
        <ele>107.7</ele>
        <time>1970-01-01T00:28:59.000Z</time>
      </trkpt>
      <trkpt lat="39.763014" lon="-8.745402">
        <ele>107.6</ele>
        <time>1970-01-01T00:29:00.000Z</time>
      </trkpt>
      <trkpt lat="39.763052" lon="-8.74539">
        <ele>107.6</ele>
        <time>1970-01-01T00:29:01.000Z</time>
      </trkpt>
      <trkpt lat="39.763092" lon="-8.74538">
        <ele>107.5</ele>
        <time>1970-01-01T00:29:02.000Z</time>
      </trkpt>
      <trkpt lat="39.763133" lon="-8.74537">
        <ele>107.4</ele>
        <time>1970-01-01T00:29:03.000Z</time>
      </trkpt>
      <trkpt lat="39.763177" lon="-8.74536">
        <ele>107.4</ele>
        <time>1970-01-01T00:29:04.000Z</time>
      </trkpt>
      <trkpt lat="39.763224" lon="-8.74535">
        <ele>107.3</ele>
        <time>1970-01-01T00:29:05.000Z</time>
      </trkpt>
      <trkpt lat="39.763271" lon="-8.745341">
        <ele>107.3</ele>
        <time>1970-01-01T00:29:07.000Z</time>
      </trkpt>
      <trkpt lat="39.763318" lon="-8.745332">
        <ele>107.3</ele>
        <time>1970-01-01T00:29:07.000Z</time>
      </trkpt>
      <trkpt lat="39.763363" lon="-8.745323">
        <ele>107.3</ele>
        <time>1970-01-01T00:29:08.000Z</time>
      </trkpt>
      <trkpt lat="39.763408" lon="-8.745314">
        <ele>107.3</ele>
        <time>1970-01-01T00:29:09.000Z</time>
      </trkpt>
      <trkpt lat="39.763452" lon="-8.745303">
        <ele>107.4</ele>
        <time>1970-01-01T00:29:10.000Z</time>
      </trkpt>
      <trkpt lat="39.763493" lon="-8.74529">
        <ele>107.4</ele>
        <time>1970-01-01T00:29:11.000Z</time>
      </trkpt>
      <trkpt lat="39.763533" lon="-8.745277">
        <ele>107.5</ele>
        <time>1970-01-01T00:29:12.000Z</time>
      </trkpt>
      <trkpt lat="39.763569" lon="-8.745265">
        <ele>107.6</ele>
        <time>1970-01-01T00:29:13.000Z</time>
      </trkpt>
      <trkpt lat="39.763605" lon="-8.745253">
        <ele>107.7</ele>
        <time>1970-01-01T00:29:14.000Z</time>
      </trkpt>
      <trkpt lat="39.763641" lon="-8.745244">
        <ele>107.8</ele>
        <time>1970-01-01T00:29:16.000Z</time>
      </trkpt>
      <trkpt lat="39.763677" lon="-8.745237">
        <ele>107.9</ele>
        <time>1970-01-01T00:29:16.000Z</time>
      </trkpt>
      <trkpt lat="39.76371" lon="-8.745233">
        <ele>108</ele>
        <time>1970-01-01T00:29:17.000Z</time>
      </trkpt>
      <trkpt lat="39.763745" lon="-8.74523">
        <ele>108.1</ele>
        <time>1970-01-01T00:29:18.000Z</time>
      </trkpt>
      <trkpt lat="39.763779" lon="-8.745227">
        <ele>108.2</ele>
        <time>1970-01-01T00:29:19.000Z</time>
      </trkpt>
      <trkpt lat="39.763829" lon="-8.745222">
        <ele>108.4</ele>
        <time>1970-01-01T00:29:21.000Z</time>
      </trkpt>
      <trkpt lat="39.763844" lon="-8.74522">
        <ele>108.4</ele>
        <time>1970-01-01T00:29:21.000Z</time>
      </trkpt>
      <trkpt lat="39.763876" lon="-8.745218">
        <ele>108.5</ele>
        <time>1970-01-01T00:29:22.000Z</time>
      </trkpt>
      <trkpt lat="39.763913" lon="-8.745215">
        <ele>108.6</ele>
        <time>1970-01-01T00:29:23.000Z</time>
      </trkpt>
      <trkpt lat="39.763961" lon="-8.745209">
        <ele>108.7</ele>
        <time>1970-01-01T00:29:25.000Z</time>
      </trkpt>
      <trkpt lat="39.764011" lon="-8.7452">
        <ele>108.8</ele>
        <time>1970-01-01T00:29:25.000Z</time>
      </trkpt>
      <trkpt lat="39.764059" lon="-8.745194">
        <ele>108.8</ele>
        <time>1970-01-01T00:29:27.000Z</time>
      </trkpt>
      <trkpt lat="39.764105" lon="-8.745186">
        <ele>108.8</ele>
        <time>1970-01-01T00:29:28.000Z</time>
      </trkpt>
      <trkpt lat="39.764148" lon="-8.745176">
        <ele>108.7</ele>
        <time>1970-01-01T00:29:28.000Z</time>
      </trkpt>
      <trkpt lat="39.76419" lon="-8.745166">
        <ele>108.7</ele>
        <time>1970-01-01T00:29:29.000Z</time>
      </trkpt>
      <trkpt lat="39.764237" lon="-8.745157">
        <ele>108.6</ele>
        <time>1970-01-01T00:29:30.000Z</time>
      </trkpt>
      <trkpt lat="39.764283" lon="-8.745149">
        <ele>108.6</ele>
        <time>1970-01-01T00:29:31.000Z</time>
      </trkpt>
      <trkpt lat="39.76433" lon="-8.745141">
        <ele>108.5</ele>
        <time>1970-01-01T00:29:33.000Z</time>
      </trkpt>
      <trkpt lat="39.764379" lon="-8.745132">
        <ele>108.4</ele>
        <time>1970-01-01T00:29:33.000Z</time>
      </trkpt>
      <trkpt lat="39.764429" lon="-8.745124">
        <ele>108.3</ele>
        <time>1970-01-01T00:29:34.000Z</time>
      </trkpt>
      <trkpt lat="39.76448" lon="-8.745116">
        <ele>108.2</ele>
        <time>1970-01-01T00:29:35.000Z</time>
      </trkpt>
      <trkpt lat="39.764531" lon="-8.745107">
        <ele>108</ele>
        <time>1970-01-01T00:29:36.000Z</time>
      </trkpt>
      <trkpt lat="39.764583" lon="-8.745099">
        <ele>107.9</ele>
        <time>1970-01-01T00:29:37.000Z</time>
      </trkpt>
      <trkpt lat="39.764633" lon="-8.745091">
        <ele>107.8</ele>
        <time>1970-01-01T00:29:38.000Z</time>
      </trkpt>
      <trkpt lat="39.764681" lon="-8.745081">
        <ele>107.7</ele>
        <time>1970-01-01T00:29:39.000Z</time>
      </trkpt>
      <trkpt lat="39.76473" lon="-8.745072">
        <ele>107.5</ele>
        <time>1970-01-01T00:29:40.000Z</time>
      </trkpt>
      <trkpt lat="39.764779" lon="-8.745064">
        <ele>107.4</ele>
        <time>1970-01-01T00:29:41.000Z</time>
      </trkpt>
      <trkpt lat="39.764829" lon="-8.745057">
        <ele>107.3</ele>
        <time>1970-01-01T00:29:42.000Z</time>
      </trkpt>
      <trkpt lat="39.764882" lon="-8.745048">
        <ele>107.1</ele>
        <time>1970-01-01T00:29:43.000Z</time>
      </trkpt>
      <trkpt lat="39.764936" lon="-8.745038">
        <ele>106.9</ele>
        <time>1970-01-01T00:29:45.000Z</time>
      </trkpt>
      <trkpt lat="39.764993" lon="-8.74503">
        <ele>106.6</ele>
        <time>1970-01-01T00:29:45.000Z</time>
      </trkpt>
      <trkpt lat="39.765051" lon="-8.745023">
        <ele>106.3</ele>
        <time>1970-01-01T00:29:46.000Z</time>
      </trkpt>
      <trkpt lat="39.76511" lon="-8.74502">
        <ele>106</ele>
        <time>1970-01-01T00:29:48.000Z</time>
      </trkpt>
      <trkpt lat="39.765171" lon="-8.74502">
        <ele>105.7</ele>
        <time>1970-01-01T00:29:48.000Z</time>
      </trkpt>
      <trkpt lat="39.765237" lon="-8.745023">
        <ele>105.3</ele>
        <time>1970-01-01T00:29:49.000Z</time>
      </trkpt>
      <trkpt lat="39.765307" lon="-8.745028">
        <ele>104.9</ele>
        <time>1970-01-01T00:29:50.000Z</time>
      </trkpt>
      <trkpt lat="39.765381" lon="-8.745033">
        <ele>104.5</ele>
        <time>1970-01-01T00:29:51.000Z</time>
      </trkpt>
      <trkpt lat="39.765457" lon="-8.745039">
        <ele>104.1</ele>
        <time>1970-01-01T00:29:52.000Z</time>
      </trkpt>
      <trkpt lat="39.765531" lon="-8.745041">
        <ele>103.8</ele>
        <time>1970-01-01T00:29:53.000Z</time>
      </trkpt>
      <trkpt lat="39.765605" lon="-8.74504">
        <ele>103.6</ele>
        <time>1970-01-01T00:29:55.000Z</time>
      </trkpt>
      <trkpt lat="39.765677" lon="-8.745036">
        <ele>103.5</ele>
        <time>1970-01-01T00:29:55.000Z</time>
      </trkpt>
      <trkpt lat="39.765748" lon="-8.74503">
        <ele>103.4</ele>
        <time>1970-01-01T00:29:56.000Z</time>
      </trkpt>
      <trkpt lat="39.765816" lon="-8.745022">
        <ele>103.5</ele>
        <time>1970-01-01T00:29:57.000Z</time>
      </trkpt>
      <trkpt lat="39.765882" lon="-8.745014">
        <ele>103.6</ele>
        <time>1970-01-01T00:29:58.000Z</time>
      </trkpt>
      <trkpt lat="39.765943" lon="-8.745007">
        <ele>103.7</ele>
        <time>1970-01-01T00:29:59.000Z</time>
      </trkpt>
      <trkpt lat="39.766001" lon="-8.745">
        <ele>103.8</ele>
        <time>1970-01-01T00:30:00.000Z</time>
      </trkpt>
      <trkpt lat="39.766054" lon="-8.744995">
        <ele>103.8</ele>
        <time>1970-01-01T00:30:01.000Z</time>
      </trkpt>
      <trkpt lat="39.766106" lon="-8.744992">
        <ele>103.7</ele>
        <time>1970-01-01T00:30:02.000Z</time>
      </trkpt>
      <trkpt lat="39.766155" lon="-8.744993">
        <ele>103.6</ele>
        <time>1970-01-01T00:30:03.000Z</time>
      </trkpt>
      <trkpt lat="39.766209" lon="-8.744999">
        <ele>103.4</ele>
        <time>1970-01-01T00:30:04.000Z</time>
      </trkpt>
      <trkpt lat="39.766263" lon="-8.745006">
        <ele>103.2</ele>
        <time>1970-01-01T00:30:05.000Z</time>
      </trkpt>
      <trkpt lat="39.766313" lon="-8.745014">
        <ele>102.9</ele>
        <time>1970-01-01T00:30:06.000Z</time>
      </trkpt>
      <trkpt lat="39.766362" lon="-8.745022">
        <ele>102.6</ele>
        <time>1970-01-01T00:30:07.000Z</time>
      </trkpt>
      <trkpt lat="39.766411" lon="-8.745029">
        <ele>102.4</ele>
        <time>1970-01-01T00:30:08.000Z</time>
      </trkpt>
      <trkpt lat="39.766457" lon="-8.745034">
        <ele>102.1</ele>
        <time>1970-01-01T00:30:10.000Z</time>
      </trkpt>
      <trkpt lat="39.766503" lon="-8.745038">
        <ele>101.9</ele>
        <time>1970-01-01T00:30:10.000Z</time>
      </trkpt>
      <trkpt lat="39.766552" lon="-8.745041">
        <ele>101.8</ele>
        <time>1970-01-01T00:30:11.000Z</time>
      </trkpt>
      <trkpt lat="39.766598" lon="-8.745041">
        <ele>101.6</ele>
        <time>1970-01-01T00:30:12.000Z</time>
      </trkpt>
      <trkpt lat="39.766648" lon="-8.74504">
        <ele>101.5</ele>
        <time>1970-01-01T00:30:13.000Z</time>
      </trkpt>
      <trkpt lat="39.766695" lon="-8.745039">
        <ele>101.3</ele>
        <time>1970-01-01T00:30:14.000Z</time>
      </trkpt>
      <trkpt lat="39.766739" lon="-8.745037">
        <ele>101.2</ele>
        <time>1970-01-01T00:30:15.000Z</time>
      </trkpt>
      <trkpt lat="39.766784" lon="-8.745034">
        <ele>101.1</ele>
        <time>1970-01-01T00:30:16.000Z</time>
      </trkpt>
      <trkpt lat="39.766833" lon="-8.745033">
        <ele>101</ele>
        <time>1970-01-01T00:30:17.000Z</time>
      </trkpt>
      <trkpt lat="39.766882" lon="-8.745034">
        <ele>100.7</ele>
        <time>1970-01-01T00:30:19.000Z</time>
      </trkpt>
      <trkpt lat="39.766934" lon="-8.745039">
        <ele>100.4</ele>
        <time>1970-01-01T00:30:19.000Z</time>
      </trkpt>
      <trkpt lat="39.766989" lon="-8.745045">
        <ele>99.9</ele>
        <time>1970-01-01T00:30:20.000Z</time>
      </trkpt>
      <trkpt lat="39.767047" lon="-8.745059">
        <ele>99.2</ele>
        <time>1970-01-01T00:30:21.000Z</time>
      </trkpt>
      <trkpt lat="39.767112" lon="-8.745076">
        <ele>98.3</ele>
        <time>1970-01-01T00:30:22.000Z</time>
      </trkpt>
      <trkpt lat="39.767186" lon="-8.745093">
        <ele>97.3</ele>
        <time>1970-01-01T00:30:23.000Z</time>
      </trkpt>
      <trkpt lat="39.767263" lon="-8.745104">
        <ele>96.5</ele>
        <time>1970-01-01T00:30:24.000Z</time>
      </trkpt>
      <trkpt lat="39.767342" lon="-8.745107">
        <ele>96</ele>
        <time>1970-01-01T00:30:25.000Z</time>
      </trkpt>
      <trkpt lat="39.767418" lon="-8.745104">
        <ele>95.7</ele>
        <time>1970-01-01T00:30:26.000Z</time>
      </trkpt>
      <trkpt lat="39.767493" lon="-8.745099">
        <ele>95.7</ele>
        <time>1970-01-01T00:30:27.000Z</time>
      </trkpt>
      <trkpt lat="39.767562" lon="-8.74509">
        <ele>96</ele>
        <time>1970-01-01T00:30:28.000Z</time>
      </trkpt>
      <trkpt lat="39.767628" lon="-8.745079">
        <ele>96.3</ele>
        <time>1970-01-01T00:30:29.000Z</time>
      </trkpt>
      <trkpt lat="39.767692" lon="-8.745069">
        <ele>96.6</ele>
        <time>1970-01-01T00:30:31.000Z</time>
      </trkpt>
      <trkpt lat="39.767753" lon="-8.745062">
        <ele>96.9</ele>
        <time>1970-01-01T00:30:32.000Z</time>
      </trkpt>
      <trkpt lat="39.767813" lon="-8.745056">
        <ele>97.2</ele>
        <time>1970-01-01T00:30:32.000Z</time>
      </trkpt>
      <trkpt lat="39.767872" lon="-8.745051">
        <ele>97.4</ele>
        <time>1970-01-01T00:30:33.000Z</time>
      </trkpt>
      <trkpt lat="39.767932" lon="-8.745045">
        <ele>97.5</ele>
        <time>1970-01-01T00:30:34.000Z</time>
      </trkpt>
      <trkpt lat="39.767992" lon="-8.745041">
        <ele>97.6</ele>
        <time>1970-01-01T00:30:35.000Z</time>
      </trkpt>
      <trkpt lat="39.768049" lon="-8.745037">
        <ele>97.7</ele>
        <time>1970-01-01T00:30:36.000Z</time>
      </trkpt>
      <trkpt lat="39.768106" lon="-8.745031">
        <ele>97.7</ele>
        <time>1970-01-01T00:30:37.000Z</time>
      </trkpt>
      <trkpt lat="39.768163" lon="-8.745025">
        <ele>97.7</ele>
        <time>1970-01-01T00:30:38.000Z</time>
      </trkpt>
      <trkpt lat="39.76822" lon="-8.745019">
        <ele>97.7</ele>
        <time>1970-01-01T00:30:39.000Z</time>
      </trkpt>
      <trkpt lat="39.768278" lon="-8.745011">
        <ele>97.7</ele>
        <time>1970-01-01T00:30:40.000Z</time>
      </trkpt>
      <trkpt lat="39.768335" lon="-8.745005">
        <ele>97.7</ele>
        <time>1970-01-01T00:30:41.000Z</time>
      </trkpt>
      <trkpt lat="39.768393" lon="-8.745">
        <ele>97.7</ele>
        <time>1970-01-01T00:30:42.000Z</time>
      </trkpt>
      <trkpt lat="39.768452" lon="-8.744993">
        <ele>97.8</ele>
        <time>1970-01-01T00:30:43.000Z</time>
      </trkpt>
      <trkpt lat="39.76851" lon="-8.744987">
        <ele>97.8</ele>
        <time>1970-01-01T00:30:44.000Z</time>
      </trkpt>
      <trkpt lat="39.76857" lon="-8.744982">
        <ele>97.8</ele>
        <time>1970-01-01T00:30:45.000Z</time>
      </trkpt>
      <trkpt lat="39.768629" lon="-8.744979">
        <ele>97.8</ele>
        <time>1970-01-01T00:30:47.000Z</time>
      </trkpt>
      <trkpt lat="39.768685" lon="-8.744977">
        <ele>97.9</ele>
        <time>1970-01-01T00:30:47.000Z</time>
      </trkpt>
      <trkpt lat="39.768741" lon="-8.744973">
        <ele>97.9</ele>
        <time>1970-01-01T00:30:48.000Z</time>
      </trkpt>
      <trkpt lat="39.768798" lon="-8.744967">
        <ele>98</ele>
        <time>1970-01-01T00:30:49.000Z</time>
      </trkpt>
      <trkpt lat="39.768856" lon="-8.74496">
        <ele>98.1</ele>
        <time>1970-01-01T00:30:50.000Z</time>
      </trkpt>
      <trkpt lat="39.768912" lon="-8.744952">
        <ele>98.2</ele>
        <time>1970-01-01T00:30:51.000Z</time>
      </trkpt>
      <trkpt lat="39.768967" lon="-8.744944">
        <ele>98.3</ele>
        <time>1970-01-01T00:30:52.000Z</time>
      </trkpt>
      <trkpt lat="39.769019" lon="-8.744935">
        <ele>98.4</ele>
        <time>1970-01-01T00:30:53.000Z</time>
      </trkpt>
      <trkpt lat="39.769073" lon="-8.744927">
        <ele>98.5</ele>
        <time>1970-01-01T00:30:54.000Z</time>
      </trkpt>
      <trkpt lat="39.769126" lon="-8.744921">
        <ele>98.6</ele>
        <time>1970-01-01T00:30:55.000Z</time>
      </trkpt>
      <trkpt lat="39.769179" lon="-8.744916">
        <ele>98.7</ele>
        <time>1970-01-01T00:30:56.000Z</time>
      </trkpt>
      <trkpt lat="39.769226" lon="-8.74491">
        <ele>98.8</ele>
        <time>1970-01-01T00:30:57.000Z</time>
      </trkpt>
      <trkpt lat="39.769275" lon="-8.744899">
        <ele>98.9</ele>
        <time>1970-01-01T00:30:58.000Z</time>
      </trkpt>
      <trkpt lat="39.769324" lon="-8.744887">
        <ele>99.1</ele>
        <time>1970-01-01T00:30:59.000Z</time>
      </trkpt>
      <trkpt lat="39.769375" lon="-8.744876">
        <ele>99.2</ele>
        <time>1970-01-01T00:31:01.000Z</time>
      </trkpt>
      <trkpt lat="39.769425" lon="-8.744866">
        <ele>99.3</ele>
        <time>1970-01-01T00:31:01.000Z</time>
      </trkpt>
      <trkpt lat="39.769474" lon="-8.744856">
        <ele>99.5</ele>
        <time>1970-01-01T00:31:02.000Z</time>
      </trkpt>
      <trkpt lat="39.769522" lon="-8.744845">
        <ele>99.6</ele>
        <time>1970-01-01T00:31:03.000Z</time>
      </trkpt>
      <trkpt lat="39.76957" lon="-8.744831">
        <ele>99.7</ele>
        <time>1970-01-01T00:31:05.000Z</time>
      </trkpt>
      <trkpt lat="39.769618" lon="-8.744817">
        <ele>99.9</ele>
        <time>1970-01-01T00:31:05.000Z</time>
      </trkpt>
      <trkpt lat="39.769669" lon="-8.744804">
        <ele>100</ele>
        <time>1970-01-01T00:31:06.000Z</time>
      </trkpt>
      <trkpt lat="39.769721" lon="-8.744792">
        <ele>100.1</ele>
        <time>1970-01-01T00:31:07.000Z</time>
      </trkpt>
      <trkpt lat="39.769774" lon="-8.744779">
        <ele>100.3</ele>
        <time>1970-01-01T00:31:08.000Z</time>
      </trkpt>
      <trkpt lat="39.769825" lon="-8.744767">
        <ele>100.4</ele>
        <time>1970-01-01T00:31:10.000Z</time>
      </trkpt>
      <trkpt lat="39.769874" lon="-8.744756">
        <ele>100.5</ele>
        <time>1970-01-01T00:31:10.000Z</time>
      </trkpt>
      <trkpt lat="39.769924" lon="-8.744744">
        <ele>100.6</ele>
        <time>1970-01-01T00:31:12.000Z</time>
      </trkpt>
      <trkpt lat="39.769975" lon="-8.744733">
        <ele>100.7</ele>
        <time>1970-01-01T00:31:12.000Z</time>
      </trkpt>
      <trkpt lat="39.770026" lon="-8.744722">
        <ele>100.8</ele>
        <time>1970-01-01T00:31:13.000Z</time>
      </trkpt>
      <trkpt lat="39.770076" lon="-8.744711">
        <ele>100.9</ele>
        <time>1970-01-01T00:31:14.000Z</time>
      </trkpt>
      <trkpt lat="39.770124" lon="-8.744701">
        <ele>101</ele>
        <time>1970-01-01T00:31:15.000Z</time>
      </trkpt>
      <trkpt lat="39.770169" lon="-8.744692">
        <ele>101.1</ele>
        <time>1970-01-01T00:31:16.000Z</time>
      </trkpt>
      <trkpt lat="39.770214" lon="-8.744681">
        <ele>101.1</ele>
        <time>1970-01-01T00:31:17.000Z</time>
      </trkpt>
      <trkpt lat="39.77026" lon="-8.74467">
        <ele>101.2</ele>
        <time>1970-01-01T00:31:18.000Z</time>
      </trkpt>
      <trkpt lat="39.770307" lon="-8.744659">
        <ele>101.2</ele>
        <time>1970-01-01T00:31:19.000Z</time>
      </trkpt>
      <trkpt lat="39.770355" lon="-8.744648">
        <ele>101.2</ele>
        <time>1970-01-01T00:31:20.000Z</time>
      </trkpt>
      <trkpt lat="39.770405" lon="-8.744639">
        <ele>101.3</ele>
        <time>1970-01-01T00:31:22.000Z</time>
      </trkpt>
      <trkpt lat="39.77046" lon="-8.744631">
        <ele>101.3</ele>
        <time>1970-01-01T00:31:23.000Z</time>
      </trkpt>
      <trkpt lat="39.770511" lon="-8.744624">
        <ele>101.3</ele>
        <time>1970-01-01T00:31:24.000Z</time>
      </trkpt>
      <trkpt lat="39.770562" lon="-8.744615">
        <ele>101.4</ele>
        <time>1970-01-01T00:31:24.000Z</time>
      </trkpt>
      <trkpt lat="39.770613" lon="-8.744606">
        <ele>101.4</ele>
        <time>1970-01-01T00:31:25.000Z</time>
      </trkpt>
      <trkpt lat="39.770664" lon="-8.744599">
        <ele>101.4</ele>
        <time>1970-01-01T00:31:26.000Z</time>
      </trkpt>
      <trkpt lat="39.770712" lon="-8.74459">
        <ele>101.4</ele>
        <time>1970-01-01T00:31:27.000Z</time>
      </trkpt>
      <trkpt lat="39.770757" lon="-8.744581">
        <ele>101.4</ele>
        <time>1970-01-01T00:31:28.000Z</time>
      </trkpt>
      <trkpt lat="39.770803" lon="-8.744572">
        <ele>101.3</ele>
        <time>1970-01-01T00:31:29.000Z</time>
      </trkpt>
      <trkpt lat="39.770848" lon="-8.744566">
        <ele>101.3</ele>
        <time>1970-01-01T00:31:30.000Z</time>
      </trkpt>
      <trkpt lat="39.770894" lon="-8.744566">
        <ele>101.1</ele>
        <time>1970-01-01T00:31:31.000Z</time>
      </trkpt>
      <trkpt lat="39.77094" lon="-8.744567">
        <ele>100.9</ele>
        <time>1970-01-01T00:31:32.000Z</time>
      </trkpt>
      <trkpt lat="39.77099" lon="-8.744571">
        <ele>100.6</ele>
        <time>1970-01-01T00:31:33.000Z</time>
      </trkpt>
      <trkpt lat="39.77104" lon="-8.744577">
        <ele>100.2</ele>
        <time>1970-01-01T00:31:35.000Z</time>
      </trkpt>
      <trkpt lat="39.771096" lon="-8.744584">
        <ele>99.6</ele>
        <time>1970-01-01T00:31:35.000Z</time>
      </trkpt>
      <trkpt lat="39.771158" lon="-8.744591">
        <ele>98.8</ele>
        <time>1970-01-01T00:31:37.000Z</time>
      </trkpt>
      <trkpt lat="39.771229" lon="-8.744599">
        <ele>97.8</ele>
        <time>1970-01-01T00:31:38.000Z</time>
      </trkpt>
      <trkpt lat="39.77131" lon="-8.74461">
        <ele>96.8</ele>
        <time>1970-01-01T00:31:38.000Z</time>
      </trkpt>
      <trkpt lat="39.771398" lon="-8.744625">
        <ele>95.7</ele>
        <time>1970-01-01T00:31:39.000Z</time>
      </trkpt>
      <trkpt lat="39.771491" lon="-8.744641">
        <ele>94.6</ele>
        <time>1970-01-01T00:31:40.000Z</time>
      </trkpt>
      <trkpt lat="39.771585" lon="-8.744659">
        <ele>93.6</ele>
        <time>1970-01-01T00:31:41.000Z</time>
      </trkpt>
      <trkpt lat="39.771682" lon="-8.744678">
        <ele>92.6</ele>
        <time>1970-01-01T00:31:42.000Z</time>
      </trkpt>
      <trkpt lat="39.771785" lon="-8.744697">
        <ele>91.5</ele>
        <time>1970-01-01T00:31:43.000Z</time>
      </trkpt>
      <trkpt lat="39.771891" lon="-8.744714">
        <ele>90.5</ele>
        <time>1970-01-01T00:31:45.000Z</time>
      </trkpt>
      <trkpt lat="39.772002" lon="-8.744725">
        <ele>89.8</ele>
        <time>1970-01-01T00:31:45.000Z</time>
      </trkpt>
      <trkpt lat="39.772113" lon="-8.744725">
        <ele>89.5</ele>
        <time>1970-01-01T00:31:47.000Z</time>
      </trkpt>
      <trkpt lat="39.772227" lon="-8.744712">
        <ele>89.3</ele>
        <time>1970-01-01T00:31:48.000Z</time>
      </trkpt>
      <trkpt lat="39.772334" lon="-8.744691">
        <ele>89</ele>
        <time>1970-01-01T00:31:49.000Z</time>
      </trkpt>
      <trkpt lat="39.772431" lon="-8.744663">
        <ele>88.8</ele>
        <time>1970-01-01T00:31:50.000Z</time>
      </trkpt>
      <trkpt lat="39.772524" lon="-8.744631">
        <ele>88.8</ele>
        <time>1970-01-01T00:31:50.000Z</time>
      </trkpt>
      <trkpt lat="39.772608" lon="-8.744599">
        <ele>88.9</ele>
        <time>1970-01-01T00:31:51.000Z</time>
      </trkpt>
      <trkpt lat="39.772687" lon="-8.744567">
        <ele>89.1</ele>
        <time>1970-01-01T00:31:52.000Z</time>
      </trkpt>
      <trkpt lat="39.772757" lon="-8.744536">
        <ele>89.3</ele>
        <time>1970-01-01T00:31:54.000Z</time>
      </trkpt>
      <trkpt lat="39.772824" lon="-8.744505">
        <ele>89.5</ele>
        <time>1970-01-01T00:31:54.000Z</time>
      </trkpt>
      <trkpt lat="39.772888" lon="-8.744473">
        <ele>89.8</ele>
        <time>1970-01-01T00:31:55.000Z</time>
      </trkpt>
      <trkpt lat="39.772946" lon="-8.744443">
        <ele>90</ele>
        <time>1970-01-01T00:31:56.000Z</time>
      </trkpt>
      <trkpt lat="39.773001" lon="-8.744417">
        <ele>90.2</ele>
        <time>1970-01-01T00:31:57.000Z</time>
      </trkpt>
      <trkpt lat="39.773052" lon="-8.744397">
        <ele>90.4</ele>
        <time>1970-01-01T00:31:58.000Z</time>
      </trkpt>
      <trkpt lat="39.773103" lon="-8.744378">
        <ele>90.5</ele>
        <time>1970-01-01T00:31:59.000Z</time>
      </trkpt>
      <trkpt lat="39.77315" lon="-8.744361">
        <ele>90.8</ele>
        <time>1970-01-01T00:32:00.000Z</time>
      </trkpt>
      <trkpt lat="39.773193" lon="-8.744345">
        <ele>91.2</ele>
        <time>1970-01-01T00:32:01.000Z</time>
      </trkpt>
      <trkpt lat="39.773233" lon="-8.744332">
        <ele>91.6</ele>
        <time>1970-01-01T00:32:02.000Z</time>
      </trkpt>
      <trkpt lat="39.77327" lon="-8.74432">
        <ele>92</ele>
        <time>1970-01-01T00:32:03.000Z</time>
      </trkpt>
      <trkpt lat="39.773307" lon="-8.74431">
        <ele>92.4</ele>
        <time>1970-01-01T00:32:04.000Z</time>
      </trkpt>
      <trkpt lat="39.773343" lon="-8.7443">
        <ele>92.8</ele>
        <time>1970-01-01T00:32:05.000Z</time>
      </trkpt>
      <trkpt lat="39.773376" lon="-8.744289">
        <ele>93.2</ele>
        <time>1970-01-01T00:32:06.000Z</time>
      </trkpt>
      <trkpt lat="39.773409" lon="-8.74428">
        <ele>93.6</ele>
        <time>1970-01-01T00:32:07.000Z</time>
      </trkpt>
      <trkpt lat="39.773436" lon="-8.744272">
        <ele>93.9</ele>
        <time>1970-01-01T00:32:08.000Z</time>
      </trkpt>
      <trkpt lat="39.773462" lon="-8.744263">
        <ele>94.2</ele>
        <time>1970-01-01T00:32:09.000Z</time>
      </trkpt>
      <trkpt lat="39.773483" lon="-8.744257">
        <ele>94.5</ele>
        <time>1970-01-01T00:32:10.000Z</time>
      </trkpt>
      <trkpt lat="39.773521" lon="-8.744242">
        <ele>95</ele>
        <time>1970-01-01T00:32:12.000Z</time>
      </trkpt>
      <trkpt lat="39.773526" lon="-8.744239">
        <ele>95</ele>
        <time>1970-01-01T00:32:12.000Z</time>
      </trkpt>
      <trkpt lat="39.773547" lon="-8.74423">
        <ele>95.3</ele>
        <time>1970-01-01T00:32:13.000Z</time>
      </trkpt>
      <trkpt lat="39.773566" lon="-8.744224">
        <ele>95.5</ele>
        <time>1970-01-01T00:32:14.000Z</time>
      </trkpt>
      <trkpt lat="39.773602" lon="-8.744215">
        <ele>95.9</ele>
        <time>1970-01-01T00:32:16.000Z</time>
      </trkpt>
      <trkpt lat="39.77361" lon="-8.744213">
        <ele>96</ele>
        <time>1970-01-01T00:32:17.000Z</time>
      </trkpt>
      <trkpt lat="39.773618" lon="-8.744211">
        <ele>96</ele>
        <time>1970-01-01T00:32:17.000Z</time>
      </trkpt>
      <trkpt lat="39.773636" lon="-8.744206">
        <ele>96</ele>
        <time>1970-01-01T00:32:18.000Z</time>
      </trkpt>
      <trkpt lat="39.773654" lon="-8.7442">
        <ele>96.1</ele>
        <time>1970-01-01T00:32:19.000Z</time>
      </trkpt>
      <trkpt lat="39.773672" lon="-8.744194">
        <ele>96.1</ele>
        <time>1970-01-01T00:32:20.000Z</time>
      </trkpt>
      <trkpt lat="39.773693" lon="-8.744189">
        <ele>96.2</ele>
        <time>1970-01-01T00:32:21.000Z</time>
      </trkpt>
      <trkpt lat="39.773717" lon="-8.744186">
        <ele>96.2</ele>
        <time>1970-01-01T00:32:22.000Z</time>
      </trkpt>
      <trkpt lat="39.773744" lon="-8.744184">
        <ele>96.3</ele>
        <time>1970-01-01T00:32:23.000Z</time>
      </trkpt>
      <trkpt lat="39.773772" lon="-8.74418">
        <ele>96.3</ele>
        <time>1970-01-01T00:32:24.000Z</time>
      </trkpt>
      <trkpt lat="39.773803" lon="-8.744176">
        <ele>96.4</ele>
        <time>1970-01-01T00:32:25.000Z</time>
      </trkpt>
      <trkpt lat="39.773833" lon="-8.74417">
        <ele>96.4</ele>
        <time>1970-01-01T00:32:26.000Z</time>
      </trkpt>
      <trkpt lat="39.773863" lon="-8.744163">
        <ele>96.4</ele>
        <time>1970-01-01T00:32:27.000Z</time>
      </trkpt>
      <trkpt lat="39.773892" lon="-8.744157">
        <ele>96.5</ele>
        <time>1970-01-01T00:32:28.000Z</time>
      </trkpt>
      <trkpt lat="39.773923" lon="-8.744149">
        <ele>96.5</ele>
        <time>1970-01-01T00:32:29.000Z</time>
      </trkpt>
      <trkpt lat="39.773967" lon="-8.744137">
        <ele>96.6</ele>
        <time>1970-01-01T00:32:31.000Z</time>
      </trkpt>
      <trkpt lat="39.773981" lon="-8.744133">
        <ele>96.6</ele>
        <time>1970-01-01T00:32:31.000Z</time>
      </trkpt>
      <trkpt lat="39.77401" lon="-8.744125">
        <ele>96.7</ele>
        <time>1970-01-01T00:32:32.000Z</time>
      </trkpt>
      <trkpt lat="39.774039" lon="-8.744116">
        <ele>96.7</ele>
        <time>1970-01-01T00:32:33.000Z</time>
      </trkpt>
      <trkpt lat="39.774081" lon="-8.744104">
        <ele>96.9</ele>
        <time>1970-01-01T00:32:35.000Z</time>
      </trkpt>
      <trkpt lat="39.774095" lon="-8.7441">
        <ele>96.9</ele>
        <time>1970-01-01T00:32:35.000Z</time>
      </trkpt>
      <trkpt lat="39.774127" lon="-8.744091">
        <ele>97</ele>
        <time>1970-01-01T00:32:36.000Z</time>
      </trkpt>
      <trkpt lat="39.774156" lon="-8.744079">
        <ele>97.1</ele>
        <time>1970-01-01T00:32:37.000Z</time>
      </trkpt>
      <trkpt lat="39.774187" lon="-8.744067">
        <ele>97.3</ele>
        <time>1970-01-01T00:32:38.000Z</time>
      </trkpt>
      <trkpt lat="39.774219" lon="-8.744056">
        <ele>97.4</ele>
        <time>1970-01-01T00:32:39.000Z</time>
      </trkpt>
      <trkpt lat="39.774248" lon="-8.744044">
        <ele>97.6</ele>
        <time>1970-01-01T00:32:40.000Z</time>
      </trkpt>
      <trkpt lat="39.774292" lon="-8.744032">
        <ele>97.8</ele>
        <time>1970-01-01T00:32:42.000Z</time>
      </trkpt>
      <trkpt lat="39.774305" lon="-8.744028">
        <ele>97.9</ele>
        <time>1970-01-01T00:32:42.000Z</time>
      </trkpt>
      <trkpt lat="39.774333" lon="-8.744021">
        <ele>98.1</ele>
        <time>1970-01-01T00:32:43.000Z</time>
      </trkpt>
      <trkpt lat="39.774359" lon="-8.744014">
        <ele>98.3</ele>
        <time>1970-01-01T00:32:44.000Z</time>
      </trkpt>
      <trkpt lat="39.774387" lon="-8.744006">
        <ele>98.5</ele>
        <time>1970-01-01T00:32:45.000Z</time>
      </trkpt>
      <trkpt lat="39.774426" lon="-8.743994">
        <ele>98.8</ele>
        <time>1970-01-01T00:32:47.000Z</time>
      </trkpt>
      <trkpt lat="39.774439" lon="-8.74399">
        <ele>99</ele>
        <time>1970-01-01T00:32:47.000Z</time>
      </trkpt>
      <trkpt lat="39.774463" lon="-8.743981">
        <ele>99.2</ele>
        <time>1970-01-01T00:32:48.000Z</time>
      </trkpt>
      <trkpt lat="39.774484" lon="-8.743972">
        <ele>99.4</ele>
        <time>1970-01-01T00:32:49.000Z</time>
      </trkpt>
      <trkpt lat="39.774507" lon="-8.743963">
        <ele>99.6</ele>
        <time>1970-01-01T00:32:50.000Z</time>
      </trkpt>
      <trkpt lat="39.774528" lon="-8.743955">
        <ele>99.7</ele>
        <time>1970-01-01T00:32:51.000Z</time>
      </trkpt>
      <trkpt lat="39.774549" lon="-8.743944">
        <ele>99.9</ele>
        <time>1970-01-01T00:32:52.000Z</time>
      </trkpt>
      <trkpt lat="39.77457" lon="-8.743933">
        <ele>100.1</ele>
        <time>1970-01-01T00:32:53.000Z</time>
      </trkpt>
      <trkpt lat="39.774591" lon="-8.743923">
        <ele>100.3</ele>
        <time>1970-01-01T00:32:54.000Z</time>
      </trkpt>
      <trkpt lat="39.77461" lon="-8.743913">
        <ele>100.5</ele>
        <time>1970-01-01T00:32:55.000Z</time>
      </trkpt>
      <trkpt lat="39.774629" lon="-8.743906">
        <ele>100.6</ele>
        <time>1970-01-01T00:32:56.000Z</time>
      </trkpt>
      <trkpt lat="39.774649" lon="-8.743902">
        <ele>100.8</ele>
        <time>1970-01-01T00:32:57.000Z</time>
      </trkpt>
      <trkpt lat="39.77467" lon="-8.743898">
        <ele>100.9</ele>
        <time>1970-01-01T00:32:58.000Z</time>
      </trkpt>
      <trkpt lat="39.774689" lon="-8.743892">
        <ele>101.1</ele>
        <time>1970-01-01T00:32:59.000Z</time>
      </trkpt>
      <trkpt lat="39.774712" lon="-8.743885">
        <ele>101.3</ele>
        <time>1970-01-01T00:33:00.000Z</time>
      </trkpt>
      <trkpt lat="39.774749" lon="-8.743875">
        <ele>101.5</ele>
        <time>1970-01-01T00:33:02.000Z</time>
      </trkpt>
      <trkpt lat="39.774761" lon="-8.743872">
        <ele>101.6</ele>
        <time>1970-01-01T00:33:02.000Z</time>
      </trkpt>
      <trkpt lat="39.774787" lon="-8.743864">
        <ele>101.8</ele>
        <time>1970-01-01T00:33:03.000Z</time>
      </trkpt>
      <trkpt lat="39.774814" lon="-8.743854">
        <ele>102</ele>
        <time>1970-01-01T00:33:04.000Z</time>
      </trkpt>
      <trkpt lat="39.774842" lon="-8.743843">
        <ele>102.2</ele>
        <time>1970-01-01T00:33:05.000Z</time>
      </trkpt>
      <trkpt lat="39.774871" lon="-8.743827">
        <ele>102.4</ele>
        <time>1970-01-01T00:33:06.000Z</time>
      </trkpt>
      <trkpt lat="39.774899" lon="-8.74381">
        <ele>102.6</ele>
        <time>1970-01-01T00:33:07.000Z</time>
      </trkpt>
      <trkpt lat="39.774929" lon="-8.743793">
        <ele>102.8</ele>
        <time>1970-01-01T00:33:08.000Z</time>
      </trkpt>
      <trkpt lat="39.774958" lon="-8.743775">
        <ele>103.1</ele>
        <time>1970-01-01T00:33:09.000Z</time>
      </trkpt>
      <trkpt lat="39.774988" lon="-8.743757">
        <ele>103.3</ele>
        <time>1970-01-01T00:33:10.000Z</time>
      </trkpt>
      <trkpt lat="39.77502" lon="-8.743738">
        <ele>103.6</ele>
        <time>1970-01-01T00:33:11.000Z</time>
      </trkpt>
      <trkpt lat="39.775048" lon="-8.743718">
        <ele>103.9</ele>
        <time>1970-01-01T00:33:12.000Z</time>
      </trkpt>
      <trkpt lat="39.775072" lon="-8.743699">
        <ele>104.2</ele>
        <time>1970-01-01T00:33:13.000Z</time>
      </trkpt>
      <trkpt lat="39.775095" lon="-8.743679">
        <ele>104.5</ele>
        <time>1970-01-01T00:33:14.000Z</time>
      </trkpt>
      <trkpt lat="39.775116" lon="-8.743657">
        <ele>104.8</ele>
        <time>1970-01-01T00:33:15.000Z</time>
      </trkpt>
      <trkpt lat="39.775147" lon="-8.743624">
        <ele>105.2</ele>
        <time>1970-01-01T00:33:17.000Z</time>
      </trkpt>
      <trkpt lat="39.775157" lon="-8.743612">
        <ele>105.4</ele>
        <time>1970-01-01T00:33:17.000Z</time>
      </trkpt>
      <trkpt lat="39.775176" lon="-8.74359">
        <ele>105.6</ele>
        <time>1970-01-01T00:33:18.000Z</time>
      </trkpt>
      <trkpt lat="39.775193" lon="-8.74357">
        <ele>105.9</ele>
        <time>1970-01-01T00:33:19.000Z</time>
      </trkpt>
      <trkpt lat="39.77521" lon="-8.74355">
        <ele>106.1</ele>
        <time>1970-01-01T00:33:20.000Z</time>
      </trkpt>
      <trkpt lat="39.775226" lon="-8.74353">
        <ele>106.4</ele>
        <time>1970-01-01T00:33:21.000Z</time>
      </trkpt>
      <trkpt lat="39.775242" lon="-8.743512">
        <ele>106.6</ele>
        <time>1970-01-01T00:33:22.000Z</time>
      </trkpt>
      <trkpt lat="39.775257" lon="-8.743495">
        <ele>106.8</ele>
        <time>1970-01-01T00:33:23.000Z</time>
      </trkpt>
      <trkpt lat="39.775274" lon="-8.743479">
        <ele>107</ele>
        <time>1970-01-01T00:33:24.000Z</time>
      </trkpt>
      <trkpt lat="39.775291" lon="-8.743464">
        <ele>107.2</ele>
        <time>1970-01-01T00:33:25.000Z</time>
      </trkpt>
      <trkpt lat="39.775307" lon="-8.74345">
        <ele>107.4</ele>
        <time>1970-01-01T00:33:26.000Z</time>
      </trkpt>
      <trkpt lat="39.775322" lon="-8.743437">
        <ele>107.6</ele>
        <time>1970-01-01T00:33:27.000Z</time>
      </trkpt>
      <trkpt lat="39.775348" lon="-8.743421">
        <ele>107.9</ele>
        <time>1970-01-01T00:33:28.000Z</time>
      </trkpt>
      <trkpt lat="39.77537" lon="-8.743407">
        <ele>108.1</ele>
        <time>1970-01-01T00:33:29.000Z</time>
      </trkpt>
      <trkpt lat="39.77538" lon="-8.743401">
        <ele>108.2</ele>
        <time>1970-01-01T00:33:30.000Z</time>
      </trkpt>
      <trkpt lat="39.775391" lon="-8.743395">
        <ele>108.3</ele>
        <time>1970-01-01T00:33:31.000Z</time>
      </trkpt>
      <trkpt lat="39.775401" lon="-8.743388">
        <ele>108.4</ele>
        <time>1970-01-01T00:33:32.000Z</time>
      </trkpt>
      <trkpt lat="39.775411" lon="-8.743382">
        <ele>108.4</ele>
        <time>1970-01-01T00:33:34.000Z</time>
      </trkpt>
      <trkpt lat="39.775421" lon="-8.743376">
        <ele>108.5</ele>
        <time>1970-01-01T00:33:34.000Z</time>
      </trkpt>
      <trkpt lat="39.77544" lon="-8.743367">
        <ele>108.7</ele>
        <time>1970-01-01T00:33:35.000Z</time>
      </trkpt>
      <trkpt lat="39.775459" lon="-8.743358">
        <ele>108.8</ele>
        <time>1970-01-01T00:33:36.000Z</time>
      </trkpt>
      <trkpt lat="39.775477" lon="-8.74335">
        <ele>109</ele>
        <time>1970-01-01T00:33:37.000Z</time>
      </trkpt>
      <trkpt lat="39.775495" lon="-8.743344">
        <ele>109.1</ele>
        <time>1970-01-01T00:33:38.000Z</time>
      </trkpt>
      <trkpt lat="39.775512" lon="-8.743338">
        <ele>109.2</ele>
        <time>1970-01-01T00:33:39.000Z</time>
      </trkpt>
      <trkpt lat="39.77553" lon="-8.743329">
        <ele>109.4</ele>
        <time>1970-01-01T00:33:41.000Z</time>
      </trkpt>
      <trkpt lat="39.775549" lon="-8.743318">
        <ele>109.5</ele>
        <time>1970-01-01T00:33:42.000Z</time>
      </trkpt>
      <trkpt lat="39.775568" lon="-8.743306">
        <ele>109.7</ele>
        <time>1970-01-01T00:33:42.000Z</time>
      </trkpt>
      <trkpt lat="39.775585" lon="-8.743296">
        <ele>109.8</ele>
        <time>1970-01-01T00:33:43.000Z</time>
      </trkpt>
      <trkpt lat="39.775605" lon="-8.743284">
        <ele>110</ele>
        <time>1970-01-01T00:33:44.000Z</time>
      </trkpt>
      <trkpt lat="39.775624" lon="-8.743272">
        <ele>110.2</ele>
        <time>1970-01-01T00:33:45.000Z</time>
      </trkpt>
      <trkpt lat="39.775641" lon="-8.74326">
        <ele>110.3</ele>
        <time>1970-01-01T00:33:46.000Z</time>
      </trkpt>
      <trkpt lat="39.775661" lon="-8.74325">
        <ele>110.5</ele>
        <time>1970-01-01T00:33:47.000Z</time>
      </trkpt>
      <trkpt lat="39.77568" lon="-8.743237">
        <ele>110.6</ele>
        <time>1970-01-01T00:33:48.000Z</time>
      </trkpt>
      <trkpt lat="39.775709" lon="-8.743214">
        <ele>110.9</ele>
        <time>1970-01-01T00:33:50.000Z</time>
      </trkpt>
      <trkpt lat="39.775713" lon="-8.74321">
        <ele>110.9</ele>
        <time>1970-01-01T00:33:50.000Z</time>
      </trkpt>
      <trkpt lat="39.775728" lon="-8.743195">
        <ele>111.1</ele>
        <time>1970-01-01T00:33:51.000Z</time>
      </trkpt>
      <trkpt lat="39.775742" lon="-8.743179">
        <ele>111.2</ele>
        <time>1970-01-01T00:33:52.000Z</time>
      </trkpt>
      <trkpt lat="39.775758" lon="-8.743163">
        <ele>111.4</ele>
        <time>1970-01-01T00:33:53.000Z</time>
      </trkpt>
      <trkpt lat="39.775775" lon="-8.743147">
        <ele>111.5</ele>
        <time>1970-01-01T00:33:54.000Z</time>
      </trkpt>
      <trkpt lat="39.775793" lon="-8.743131">
        <ele>111.6</ele>
        <time>1970-01-01T00:33:55.000Z</time>
      </trkpt>
      <trkpt lat="39.775827" lon="-8.743105">
        <ele>111.9</ele>
        <time>1970-01-01T00:33:57.000Z</time>
      </trkpt>
      <trkpt lat="39.775831" lon="-8.743101">
        <ele>111.9</ele>
        <time>1970-01-01T00:33:57.000Z</time>
      </trkpt>
      <trkpt lat="39.775864" lon="-8.743075">
        <ele>112.2</ele>
        <time>1970-01-01T00:33:59.000Z</time>
      </trkpt>
      <trkpt lat="39.775868" lon="-8.743071">
        <ele>112.2</ele>
        <time>1970-01-01T00:33:59.000Z</time>
      </trkpt>
      <trkpt lat="39.775887" lon="-8.743054">
        <ele>112.3</ele>
        <time>1970-01-01T00:34:00.000Z</time>
      </trkpt>
      <trkpt lat="39.775905" lon="-8.743036">
        <ele>112.4</ele>
        <time>1970-01-01T00:34:01.000Z</time>
      </trkpt>
      <trkpt lat="39.775939" lon="-8.743006">
        <ele>112.7</ele>
        <time>1970-01-01T00:34:03.000Z</time>
      </trkpt>
      <trkpt lat="39.775944" lon="-8.743001">
        <ele>112.7</ele>
        <time>1970-01-01T00:34:03.000Z</time>
      </trkpt>
      <trkpt lat="39.775964" lon="-8.742982">
        <ele>112.8</ele>
        <time>1970-01-01T00:34:04.000Z</time>
      </trkpt>
      <trkpt lat="39.775985" lon="-8.742963">
        <ele>112.9</ele>
        <time>1970-01-01T00:34:05.000Z</time>
      </trkpt>
      <trkpt lat="39.776006" lon="-8.742944">
        <ele>113</ele>
        <time>1970-01-01T00:34:06.000Z</time>
      </trkpt>
      <trkpt lat="39.776041" lon="-8.742918">
        <ele>113.2</ele>
        <time>1970-01-01T00:34:08.000Z</time>
      </trkpt>
      <trkpt lat="39.776051" lon="-8.742909">
        <ele>113.2</ele>
        <time>1970-01-01T00:34:08.000Z</time>
      </trkpt>
      <trkpt lat="39.776074" lon="-8.742891">
        <ele>113.3</ele>
        <time>1970-01-01T00:34:09.000Z</time>
      </trkpt>
      <trkpt lat="39.776098" lon="-8.742873">
        <ele>113.4</ele>
        <time>1970-01-01T00:34:10.000Z</time>
      </trkpt>
      <trkpt lat="39.776139" lon="-8.742845">
        <ele>113.5</ele>
        <time>1970-01-01T00:34:12.000Z</time>
      </trkpt>
      <trkpt lat="39.776152" lon="-8.742836">
        <ele>113.6</ele>
        <time>1970-01-01T00:34:12.000Z</time>
      </trkpt>
      <trkpt lat="39.776182" lon="-8.742819">
        <ele>113.6</ele>
        <time>1970-01-01T00:34:13.000Z</time>
      </trkpt>
      <trkpt lat="39.776213" lon="-8.742808">
        <ele>113.6</ele>
        <time>1970-01-01T00:34:14.000Z</time>
      </trkpt>
      <trkpt lat="39.776243" lon="-8.742804">
        <ele>113.6</ele>
        <time>1970-01-01T00:34:15.000Z</time>
      </trkpt>
      <trkpt lat="39.776275" lon="-8.74281">
        <ele>113.6</ele>
        <time>1970-01-01T00:34:17.000Z</time>
      </trkpt>
      <trkpt lat="39.776306" lon="-8.742826">
        <ele>113.5</ele>
        <time>1970-01-01T00:34:18.000Z</time>
      </trkpt>
      <trkpt lat="39.776336" lon="-8.742851">
        <ele>113.4</ele>
        <time>1970-01-01T00:34:18.000Z</time>
      </trkpt>
      <trkpt lat="39.776369" lon="-8.742887">
        <ele>113.1</ele>
        <time>1970-01-01T00:34:19.000Z</time>
      </trkpt>
      <trkpt lat="39.776403" lon="-8.742925">
        <ele>112.9</ele>
        <time>1970-01-01T00:34:20.000Z</time>
      </trkpt>
      <trkpt lat="39.776442" lon="-8.742968">
        <ele>112.6</ele>
        <time>1970-01-01T00:34:22.000Z</time>
      </trkpt>
      <trkpt lat="39.776485" lon="-8.743018">
        <ele>112.3</ele>
        <time>1970-01-01T00:34:23.000Z</time>
      </trkpt>
      <trkpt lat="39.776528" lon="-8.743067">
        <ele>111.9</ele>
        <time>1970-01-01T00:34:23.000Z</time>
      </trkpt>
      <trkpt lat="39.776571" lon="-8.74311">
        <ele>111.5</ele>
        <time>1970-01-01T00:34:24.000Z</time>
      </trkpt>
      <trkpt lat="39.776619" lon="-8.743149">
        <ele>111.1</ele>
        <time>1970-01-01T00:34:25.000Z</time>
      </trkpt>
      <trkpt lat="39.776669" lon="-8.743186">
        <ele>110.7</ele>
        <time>1970-01-01T00:34:26.000Z</time>
      </trkpt>
      <trkpt lat="39.776722" lon="-8.743221">
        <ele>110.2</ele>
        <time>1970-01-01T00:34:27.000Z</time>
      </trkpt>
      <trkpt lat="39.776777" lon="-8.743254">
        <ele>109.7</ele>
        <time>1970-01-01T00:34:28.000Z</time>
      </trkpt>
      <trkpt lat="39.776834" lon="-8.743286">
        <ele>109.2</ele>
        <time>1970-01-01T00:34:30.000Z</time>
      </trkpt>
      <trkpt lat="39.776894" lon="-8.743318">
        <ele>108.7</ele>
        <time>1970-01-01T00:34:30.000Z</time>
      </trkpt>
      <trkpt lat="39.776959" lon="-8.74335">
        <ele>108.2</ele>
        <time>1970-01-01T00:34:31.000Z</time>
      </trkpt>
      <trkpt lat="39.777023" lon="-8.743384">
        <ele>107.8</ele>
        <time>1970-01-01T00:34:32.000Z</time>
      </trkpt>
      <trkpt lat="39.777083" lon="-8.743418">
        <ele>107.5</ele>
        <time>1970-01-01T00:34:33.000Z</time>
      </trkpt>
      <trkpt lat="39.777139" lon="-8.743449">
        <ele>107.3</ele>
        <time>1970-01-01T00:34:34.000Z</time>
      </trkpt>
      <trkpt lat="39.77719" lon="-8.743476">
        <ele>107.2</ele>
        <time>1970-01-01T00:34:35.000Z</time>
      </trkpt>
      <trkpt lat="39.777241" lon="-8.743499">
        <ele>107</ele>
        <time>1970-01-01T00:34:36.000Z</time>
      </trkpt>
      <trkpt lat="39.777289" lon="-8.743519">
        <ele>106.8</ele>
        <time>1970-01-01T00:34:37.000Z</time>
      </trkpt>
      <trkpt lat="39.777334" lon="-8.743535">
        <ele>106.6</ele>
        <time>1970-01-01T00:34:38.000Z</time>
      </trkpt>
      <trkpt lat="39.77738" lon="-8.743549">
        <ele>106.3</ele>
        <time>1970-01-01T00:34:39.000Z</time>
      </trkpt>
      <trkpt lat="39.777428" lon="-8.743557">
        <ele>106</ele>
        <time>1970-01-01T00:34:40.000Z</time>
      </trkpt>
      <trkpt lat="39.777476" lon="-8.743563">
        <ele>105.6</ele>
        <time>1970-01-01T00:34:41.000Z</time>
      </trkpt>
      <trkpt lat="39.77753" lon="-8.74357">
        <ele>105.2</ele>
        <time>1970-01-01T00:34:42.000Z</time>
      </trkpt>
      <trkpt lat="39.777582" lon="-8.743572">
        <ele>104.9</ele>
        <time>1970-01-01T00:34:43.000Z</time>
      </trkpt>
      <trkpt lat="39.777628" lon="-8.743572">
        <ele>104.5</ele>
        <time>1970-01-01T00:34:44.000Z</time>
      </trkpt>
      <trkpt lat="39.777673" lon="-8.743569">
        <ele>104.2</ele>
        <time>1970-01-01T00:34:46.000Z</time>
      </trkpt>
      <trkpt lat="39.77771" lon="-8.743567">
        <ele>103.9</ele>
        <time>1970-01-01T00:34:46.000Z</time>
      </trkpt>
      <trkpt lat="39.777744" lon="-8.743566">
        <ele>103.7</ele>
        <time>1970-01-01T00:34:47.000Z</time>
      </trkpt>
      <trkpt lat="39.777776" lon="-8.74357">
        <ele>103.5</ele>
        <time>1970-01-01T00:34:48.000Z</time>
      </trkpt>
      <trkpt lat="39.777803" lon="-8.743573">
        <ele>103.4</ele>
        <time>1970-01-01T00:34:49.000Z</time>
      </trkpt>
      <trkpt lat="39.777833" lon="-8.743569">
        <ele>103.2</ele>
        <time>1970-01-01T00:34:50.000Z</time>
      </trkpt>
      <trkpt lat="39.777864" lon="-8.743561">
        <ele>103</ele>
        <time>1970-01-01T00:34:51.000Z</time>
      </trkpt>
      <trkpt lat="39.777888" lon="-8.743548">
        <ele>102.9</ele>
        <time>1970-01-01T00:34:52.000Z</time>
      </trkpt>
      <trkpt lat="39.777906" lon="-8.74353">
        <ele>102.8</ele>
        <time>1970-01-01T00:34:53.000Z</time>
      </trkpt>
      <trkpt lat="39.777925" lon="-8.74349">
        <ele>102.8</ele>
        <time>1970-01-01T00:34:55.000Z</time>
      </trkpt>
      <trkpt lat="39.777927" lon="-8.743483">
        <ele>102.8</ele>
        <time>1970-01-01T00:34:55.000Z</time>
      </trkpt>
      <trkpt lat="39.777934" lon="-8.743458">
        <ele>102.7</ele>
        <time>1970-01-01T00:34:56.000Z</time>
      </trkpt>
      <trkpt lat="39.77794" lon="-8.743431">
        <ele>102.7</ele>
        <time>1970-01-01T00:34:57.000Z</time>
      </trkpt>
      <trkpt lat="39.777946" lon="-8.743403">
        <ele>102.7</ele>
        <time>1970-01-01T00:34:58.000Z</time>
      </trkpt>
      <trkpt lat="39.777954" lon="-8.743373">
        <ele>102.8</ele>
        <time>1970-01-01T00:34:59.000Z</time>
      </trkpt>
      <trkpt lat="39.777969" lon="-8.743321">
        <ele>102.8</ele>
        <time>1970-01-01T00:35:01.000Z</time>
      </trkpt>
      <trkpt lat="39.777975" lon="-8.743302">
        <ele>102.8</ele>
        <time>1970-01-01T00:35:01.000Z</time>
      </trkpt>
      <trkpt lat="39.777988" lon="-8.743266">
        <ele>102.8</ele>
        <time>1970-01-01T00:35:02.000Z</time>
      </trkpt>
      <trkpt lat="39.778004" lon="-8.743236">
        <ele>102.9</ele>
        <time>1970-01-01T00:35:03.000Z</time>
      </trkpt>
      <trkpt lat="39.778029" lon="-8.74321">
        <ele>103</ele>
        <time>1970-01-01T00:35:04.000Z</time>
      </trkpt>
      <trkpt lat="39.778059" lon="-8.743192">
        <ele>103</ele>
        <time>1970-01-01T00:35:05.000Z</time>
      </trkpt>
      <trkpt lat="39.778088" lon="-8.743181">
        <ele>103</ele>
        <time>1970-01-01T00:35:06.000Z</time>
      </trkpt>
      <trkpt lat="39.778123" lon="-8.743171">
        <ele>103.1</ele>
        <time>1970-01-01T00:35:07.000Z</time>
      </trkpt>
      <trkpt lat="39.778175" lon="-8.743163">
        <ele>103.2</ele>
        <time>1970-01-01T00:35:09.000Z</time>
      </trkpt>
      <trkpt lat="39.778192" lon="-8.743161">
        <ele>103.2</ele>
        <time>1970-01-01T00:35:09.000Z</time>
      </trkpt>
      <trkpt lat="39.778222" lon="-8.74316">
        <ele>103.3</ele>
        <time>1970-01-01T00:35:10.000Z</time>
      </trkpt>
      <trkpt lat="39.778253" lon="-8.743159">
        <ele>103.4</ele>
        <time>1970-01-01T00:35:12.000Z</time>
      </trkpt>
      <trkpt lat="39.778283" lon="-8.743157">
        <ele>103.5</ele>
        <time>1970-01-01T00:35:13.000Z</time>
      </trkpt>
      <trkpt lat="39.778313" lon="-8.743152">
        <ele>103.6</ele>
        <time>1970-01-01T00:35:14.000Z</time>
      </trkpt>
      <trkpt lat="39.778344" lon="-8.743147">
        <ele>103.7</ele>
        <time>1970-01-01T00:35:14.000Z</time>
      </trkpt>
      <trkpt lat="39.778373" lon="-8.743142">
        <ele>103.8</ele>
        <time>1970-01-01T00:35:15.000Z</time>
      </trkpt>
      <trkpt lat="39.778401" lon="-8.743136">
        <ele>103.9</ele>
        <time>1970-01-01T00:35:16.000Z</time>
      </trkpt>
      <trkpt lat="39.778428" lon="-8.743132">
        <ele>104</ele>
        <time>1970-01-01T00:35:17.000Z</time>
      </trkpt>
      <trkpt lat="39.778454" lon="-8.743128">
        <ele>104.1</ele>
        <time>1970-01-01T00:35:18.000Z</time>
      </trkpt>
      <trkpt lat="39.77848" lon="-8.743125">
        <ele>104.1</ele>
        <time>1970-01-01T00:35:19.000Z</time>
      </trkpt>
      <trkpt lat="39.778508" lon="-8.743122">
        <ele>104.2</ele>
        <time>1970-01-01T00:35:20.000Z</time>
      </trkpt>
      <trkpt lat="39.778534" lon="-8.743119">
        <ele>104.2</ele>
        <time>1970-01-01T00:35:21.000Z</time>
      </trkpt>
      <trkpt lat="39.778561" lon="-8.743117">
        <ele>104.2</ele>
        <time>1970-01-01T00:35:22.000Z</time>
      </trkpt>
      <trkpt lat="39.778585" lon="-8.743113">
        <ele>104.2</ele>
        <time>1970-01-01T00:35:23.000Z</time>
      </trkpt>
      <trkpt lat="39.778608" lon="-8.743111">
        <ele>104.2</ele>
        <time>1970-01-01T00:35:24.000Z</time>
      </trkpt>
      <trkpt lat="39.77863" lon="-8.743113">
        <ele>104</ele>
        <time>1970-01-01T00:35:25.000Z</time>
      </trkpt>
      <trkpt lat="39.778651" lon="-8.743123">
        <ele>103.9</ele>
        <time>1970-01-01T00:35:26.000Z</time>
      </trkpt>
      <trkpt lat="39.77867" lon="-8.743136">
        <ele>103.8</ele>
        <time>1970-01-01T00:35:27.000Z</time>
      </trkpt>
      <trkpt lat="39.778687" lon="-8.743151">
        <ele>103.8</ele>
        <time>1970-01-01T00:35:28.000Z</time>
      </trkpt>
      <trkpt lat="39.778699" lon="-8.74317">
        <ele>103.7</ele>
        <time>1970-01-01T00:35:29.000Z</time>
      </trkpt>
      <trkpt lat="39.778705" lon="-8.743202">
        <ele>103.6</ele>
        <time>1970-01-01T00:35:30.000Z</time>
      </trkpt>
      <trkpt lat="39.778709" lon="-8.743251">
        <ele>103.4</ele>
        <time>1970-01-01T00:35:31.000Z</time>
      </trkpt>
      <trkpt lat="39.778712" lon="-8.743306">
        <ele>103.2</ele>
        <time>1970-01-01T00:35:32.000Z</time>
      </trkpt>
      <trkpt lat="39.77872" lon="-8.743371">
        <ele>102.9</ele>
        <time>1970-01-01T00:35:33.000Z</time>
      </trkpt>
      <trkpt lat="39.778737" lon="-8.743444">
        <ele>102.6</ele>
        <time>1970-01-01T00:35:34.000Z</time>
      </trkpt>
      <trkpt lat="39.778761" lon="-8.743512">
        <ele>102.4</ele>
        <time>1970-01-01T00:35:35.000Z</time>
      </trkpt>
      <trkpt lat="39.778795" lon="-8.743585">
        <ele>102.2</ele>
        <time>1970-01-01T00:35:36.000Z</time>
      </trkpt>
      <trkpt lat="39.778834" lon="-8.743655">
        <ele>102.1</ele>
        <time>1970-01-01T00:35:38.000Z</time>
      </trkpt>
      <trkpt lat="39.778875" lon="-8.743716">
        <ele>102</ele>
        <time>1970-01-01T00:35:38.000Z</time>
      </trkpt>
      <trkpt lat="39.778913" lon="-8.743767">
        <ele>102</ele>
        <time>1970-01-01T00:35:39.000Z</time>
      </trkpt>
      <trkpt lat="39.778945" lon="-8.743805">
        <ele>102</ele>
        <time>1970-01-01T00:35:40.000Z</time>
      </trkpt>
      <trkpt lat="39.778972" lon="-8.74383">
        <ele>102.1</ele>
        <time>1970-01-01T00:35:41.000Z</time>
      </trkpt>
      <trkpt lat="39.778996" lon="-8.743842">
        <ele>102.1</ele>
        <time>1970-01-01T00:35:42.000Z</time>
      </trkpt>
      <trkpt lat="39.779032" lon="-8.743839">
        <ele>102.1</ele>
        <time>1970-01-01T00:35:44.000Z</time>
      </trkpt>
      <trkpt lat="39.779037" lon="-8.743837">
        <ele>102.1</ele>
        <time>1970-01-01T00:35:44.000Z</time>
      </trkpt>
      <trkpt lat="39.779056" lon="-8.743826">
        <ele>102.1</ele>
        <time>1970-01-01T00:35:45.000Z</time>
      </trkpt>
      <trkpt lat="39.779076" lon="-8.743808">
        <ele>102.1</ele>
        <time>1970-01-01T00:35:46.000Z</time>
      </trkpt>
      <trkpt lat="39.779096" lon="-8.74379">
        <ele>102.1</ele>
        <time>1970-01-01T00:35:47.000Z</time>
      </trkpt>
      <trkpt lat="39.779116" lon="-8.743771">
        <ele>102.1</ele>
        <time>1970-01-01T00:35:48.000Z</time>
      </trkpt>
      <trkpt lat="39.779138" lon="-8.743751">
        <ele>102.2</ele>
        <time>1970-01-01T00:35:49.000Z</time>
      </trkpt>
      <trkpt lat="39.779161" lon="-8.743734">
        <ele>102.2</ele>
        <time>1970-01-01T00:35:50.000Z</time>
      </trkpt>
      <trkpt lat="39.779184" lon="-8.74372">
        <ele>102.3</ele>
        <time>1970-01-01T00:35:51.000Z</time>
      </trkpt>
      <trkpt lat="39.779219" lon="-8.743701">
        <ele>102.3</ele>
        <time>1970-01-01T00:35:53.000Z</time>
      </trkpt>
      <trkpt lat="39.779223" lon="-8.743698">
        <ele>102.3</ele>
        <time>1970-01-01T00:35:53.000Z</time>
      </trkpt>
      <trkpt lat="39.779237" lon="-8.743691">
        <ele>102.3</ele>
        <time>1970-01-01T00:35:54.000Z</time>
      </trkpt>
      <trkpt lat="39.77925" lon="-8.743686">
        <ele>102.3</ele>
        <time>1970-01-01T00:35:55.000Z</time>
      </trkpt>
      <trkpt lat="39.779263" lon="-8.743677">
        <ele>102.3</ele>
        <time>1970-01-01T00:35:56.000Z</time>
      </trkpt>
      <trkpt lat="39.779279" lon="-8.743666">
        <ele>102.3</ele>
        <time>1970-01-01T00:35:57.000Z</time>
      </trkpt>
      <trkpt lat="39.7793" lon="-8.743653">
        <ele>102.3</ele>
        <time>1970-01-01T00:35:58.000Z</time>
      </trkpt>
      <trkpt lat="39.779334" lon="-8.743637">
        <ele>102.3</ele>
        <time>1970-01-01T00:36:00.000Z</time>
      </trkpt>
      <trkpt lat="39.779345" lon="-8.743631">
        <ele>102.3</ele>
        <time>1970-01-01T00:36:00.000Z</time>
      </trkpt>
      <trkpt lat="39.779366" lon="-8.74362">
        <ele>102.3</ele>
        <time>1970-01-01T00:36:01.000Z</time>
      </trkpt>
      <trkpt lat="39.779388" lon="-8.743612">
        <ele>102.4</ele>
        <time>1970-01-01T00:36:02.000Z</time>
      </trkpt>
      <trkpt lat="39.77941" lon="-8.743603">
        <ele>102.4</ele>
        <time>1970-01-01T00:36:03.000Z</time>
      </trkpt>
      <trkpt lat="39.779429" lon="-8.743589">
        <ele>102.5</ele>
        <time>1970-01-01T00:36:04.000Z</time>
      </trkpt>
      <trkpt lat="39.77945" lon="-8.743573">
        <ele>102.5</ele>
        <time>1970-01-01T00:36:05.000Z</time>
      </trkpt>
      <trkpt lat="39.779481" lon="-8.743545">
        <ele>102.6</ele>
        <time>1970-01-01T00:36:07.000Z</time>
      </trkpt>
      <trkpt lat="39.779491" lon="-8.743535">
        <ele>102.6</ele>
        <time>1970-01-01T00:36:07.000Z</time>
      </trkpt>
      <trkpt lat="39.779512" lon="-8.743514">
        <ele>102.7</ele>
        <time>1970-01-01T00:36:08.000Z</time>
      </trkpt>
      <trkpt lat="39.779545" lon="-8.743484">
        <ele>102.8</ele>
        <time>1970-01-01T00:36:10.000Z</time>
      </trkpt>
      <trkpt lat="39.779557" lon="-8.743474">
        <ele>102.9</ele>
        <time>1970-01-01T00:36:10.000Z</time>
      </trkpt>
      <trkpt lat="39.779578" lon="-8.743456">
        <ele>103</ele>
        <time>1970-01-01T00:36:11.000Z</time>
      </trkpt>
      <trkpt lat="39.779598" lon="-8.743437">
        <ele>103</ele>
        <time>1970-01-01T00:36:12.000Z</time>
      </trkpt>
      <trkpt lat="39.779616" lon="-8.743422">
        <ele>103.1</ele>
        <time>1970-01-01T00:36:13.000Z</time>
      </trkpt>
      <trkpt lat="39.779637" lon="-8.743407">
        <ele>103.2</ele>
        <time>1970-01-01T00:36:14.000Z</time>
      </trkpt>
      <trkpt lat="39.779658" lon="-8.743391">
        <ele>103.3</ele>
        <time>1970-01-01T00:36:15.000Z</time>
      </trkpt>
      <trkpt lat="39.779682" lon="-8.743376">
        <ele>103.4</ele>
        <time>1970-01-01T00:36:16.000Z</time>
      </trkpt>
      <trkpt lat="39.779709" lon="-8.743361">
        <ele>103.5</ele>
        <time>1970-01-01T00:36:17.000Z</time>
      </trkpt>
      <trkpt lat="39.77974" lon="-8.743346">
        <ele>103.6</ele>
        <time>1970-01-01T00:36:18.000Z</time>
      </trkpt>
      <trkpt lat="39.77977" lon="-8.743332">
        <ele>103.7</ele>
        <time>1970-01-01T00:36:19.000Z</time>
      </trkpt>
      <trkpt lat="39.779812" lon="-8.743309">
        <ele>103.8</ele>
        <time>1970-01-01T00:36:21.000Z</time>
      </trkpt>
      <trkpt lat="39.779825" lon="-8.743301">
        <ele>103.8</ele>
        <time>1970-01-01T00:36:21.000Z</time>
      </trkpt>
      <trkpt lat="39.77985" lon="-8.743282">
        <ele>103.9</ele>
        <time>1970-01-01T00:36:22.000Z</time>
      </trkpt>
      <trkpt lat="39.77988" lon="-8.743266">
        <ele>103.9</ele>
        <time>1970-01-01T00:36:23.000Z</time>
      </trkpt>
      <trkpt lat="39.779916" lon="-8.74325">
        <ele>103.9</ele>
        <time>1970-01-01T00:36:24.000Z</time>
      </trkpt>
      <trkpt lat="39.779952" lon="-8.743233">
        <ele>103.8</ele>
        <time>1970-01-01T00:36:25.000Z</time>
      </trkpt>
      <trkpt lat="39.779987" lon="-8.743215">
        <ele>103.8</ele>
        <time>1970-01-01T00:36:26.000Z</time>
      </trkpt>
      <trkpt lat="39.780021" lon="-8.743199">
        <ele>103.7</ele>
        <time>1970-01-01T00:36:27.000Z</time>
      </trkpt>
      <trkpt lat="39.780058" lon="-8.743185">
        <ele>103.7</ele>
        <time>1970-01-01T00:36:28.000Z</time>
      </trkpt>
      <trkpt lat="39.780095" lon="-8.743173">
        <ele>103.6</ele>
        <time>1970-01-01T00:36:30.000Z</time>
      </trkpt>
      <trkpt lat="39.780131" lon="-8.743166">
        <ele>103.6</ele>
        <time>1970-01-01T00:36:30.000Z</time>
      </trkpt>
      <trkpt lat="39.780162" lon="-8.743163">
        <ele>103.6</ele>
        <time>1970-01-01T00:36:31.000Z</time>
      </trkpt>
      <trkpt lat="39.780207" lon="-8.743161">
        <ele>103.6</ele>
        <time>1970-01-01T00:36:33.000Z</time>
      </trkpt>
      <trkpt lat="39.780222" lon="-8.74316">
        <ele>103.6</ele>
        <time>1970-01-01T00:36:33.000Z</time>
      </trkpt>
      <trkpt lat="39.780253" lon="-8.743163">
        <ele>103.6</ele>
        <time>1970-01-01T00:36:34.000Z</time>
      </trkpt>
      <trkpt lat="39.780287" lon="-8.74317">
        <ele>103.7</ele>
        <time>1970-01-01T00:36:35.000Z</time>
      </trkpt>
      <trkpt lat="39.780324" lon="-8.743179">
        <ele>103.8</ele>
        <time>1970-01-01T00:36:36.000Z</time>
      </trkpt>
      <trkpt lat="39.78036" lon="-8.743188">
        <ele>103.9</ele>
        <time>1970-01-01T00:36:38.000Z</time>
      </trkpt>
      <trkpt lat="39.780397" lon="-8.743197">
        <ele>104</ele>
        <time>1970-01-01T00:36:38.000Z</time>
      </trkpt>
      <trkpt lat="39.780433" lon="-8.743207">
        <ele>104.1</ele>
        <time>1970-01-01T00:36:39.000Z</time>
      </trkpt>
      <trkpt lat="39.780465" lon="-8.743218">
        <ele>104.2</ele>
        <time>1970-01-01T00:36:40.000Z</time>
      </trkpt>
      <trkpt lat="39.780497" lon="-8.743226">
        <ele>104.4</ele>
        <time>1970-01-01T00:36:41.000Z</time>
      </trkpt>
      <trkpt lat="39.780531" lon="-8.743233">
        <ele>104.5</ele>
        <time>1970-01-01T00:36:42.000Z</time>
      </trkpt>
      <trkpt lat="39.780566" lon="-8.743236">
        <ele>104.6</ele>
        <time>1970-01-01T00:36:43.000Z</time>
      </trkpt>
      <trkpt lat="39.780596" lon="-8.743238">
        <ele>104.8</ele>
        <time>1970-01-01T00:36:44.000Z</time>
      </trkpt>
      <trkpt lat="39.780622" lon="-8.743241">
        <ele>104.9</ele>
        <time>1970-01-01T00:36:45.000Z</time>
      </trkpt>
      <trkpt lat="39.780646" lon="-8.743245">
        <ele>105</ele>
        <time>1970-01-01T00:36:46.000Z</time>
      </trkpt>
      <trkpt lat="39.780671" lon="-8.743248">
        <ele>105.1</ele>
        <time>1970-01-01T00:36:47.000Z</time>
      </trkpt>
      <trkpt lat="39.780696" lon="-8.74325">
        <ele>105.2</ele>
        <time>1970-01-01T00:36:48.000Z</time>
      </trkpt>
      <trkpt lat="39.78072" lon="-8.743255">
        <ele>105.3</ele>
        <time>1970-01-01T00:36:49.000Z</time>
      </trkpt>
      <trkpt lat="39.780742" lon="-8.743261">
        <ele>105.5</ele>
        <time>1970-01-01T00:36:50.000Z</time>
      </trkpt>
      <trkpt lat="39.780778" lon="-8.743267">
        <ele>105.7</ele>
        <time>1970-01-01T00:36:52.000Z</time>
      </trkpt>
      <trkpt lat="39.780789" lon="-8.74327">
        <ele>105.8</ele>
        <time>1970-01-01T00:36:52.000Z</time>
      </trkpt>
      <trkpt lat="39.780811" lon="-8.743274">
        <ele>105.9</ele>
        <time>1970-01-01T00:36:53.000Z</time>
      </trkpt>
      <trkpt lat="39.780832" lon="-8.743279">
        <ele>106.1</ele>
        <time>1970-01-01T00:36:54.000Z</time>
      </trkpt>
      <trkpt lat="39.78085" lon="-8.743282">
        <ele>106.2</ele>
        <time>1970-01-01T00:36:55.000Z</time>
      </trkpt>
      <trkpt lat="39.780881" lon="-8.743286">
        <ele>106.5</ele>
        <time>1970-01-01T00:36:57.000Z</time>
      </trkpt>
      <trkpt lat="39.780885" lon="-8.743287">
        <ele>106.5</ele>
        <time>1970-01-01T00:36:57.000Z</time>
      </trkpt>
      <trkpt lat="39.780902" lon="-8.74329">
        <ele>106.6</ele>
        <time>1970-01-01T00:36:58.000Z</time>
      </trkpt>
      <trkpt lat="39.780924" lon="-8.743296">
        <ele>106.8</ele>
        <time>1970-01-01T00:36:59.000Z</time>
      </trkpt>
      <trkpt lat="39.780945" lon="-8.743302">
        <ele>107</ele>
        <time>1970-01-01T00:37:00.000Z</time>
      </trkpt>
      <trkpt lat="39.780963" lon="-8.74331">
        <ele>107.2</ele>
        <time>1970-01-01T00:37:01.000Z</time>
      </trkpt>
      <trkpt lat="39.780979" lon="-8.743319">
        <ele>107.4</ele>
        <time>1970-01-01T00:37:02.000Z</time>
      </trkpt>
      <trkpt lat="39.780994" lon="-8.743332">
        <ele>107.6</ele>
        <time>1970-01-01T00:37:03.000Z</time>
      </trkpt>
      <trkpt lat="39.781008" lon="-8.743346">
        <ele>107.8</ele>
        <time>1970-01-01T00:37:04.000Z</time>
      </trkpt>
      <trkpt lat="39.781025" lon="-8.743359">
        <ele>108</ele>
        <time>1970-01-01T00:37:05.000Z</time>
      </trkpt>
      <trkpt lat="39.781043" lon="-8.743371">
        <ele>108.3</ele>
        <time>1970-01-01T00:37:06.000Z</time>
      </trkpt>
      <trkpt lat="39.781062" lon="-8.743386">
        <ele>108.5</ele>
        <time>1970-01-01T00:37:07.000Z</time>
      </trkpt>
      <trkpt lat="39.781079" lon="-8.7434">
        <ele>108.8</ele>
        <time>1970-01-01T00:37:08.000Z</time>
      </trkpt>
      <trkpt lat="39.781108" lon="-8.743426">
        <ele>109.2</ele>
        <time>1970-01-01T00:37:10.000Z</time>
      </trkpt>
      <trkpt lat="39.781113" lon="-8.743432">
        <ele>109.3</ele>
        <time>1970-01-01T00:37:11.000Z</time>
      </trkpt>
      <trkpt lat="39.781119" lon="-8.743437">
        <ele>109.4</ele>
        <time>1970-01-01T00:37:11.000Z</time>
      </trkpt>
      <trkpt lat="39.781145" lon="-8.743452">
        <ele>109.7</ele>
        <time>1970-01-01T00:37:12.000Z</time>
      </trkpt>
      <trkpt lat="39.781166" lon="-8.743467">
        <ele>110</ele>
        <time>1970-01-01T00:37:13.000Z</time>
      </trkpt>
      <trkpt lat="39.781176" lon="-8.743473">
        <ele>110.2</ele>
        <time>1970-01-01T00:37:14.000Z</time>
      </trkpt>
      <trkpt lat="39.781185" lon="-8.74348">
        <ele>110.3</ele>
        <time>1970-01-01T00:37:15.000Z</time>
      </trkpt>
      <trkpt lat="39.781195" lon="-8.743486">
        <ele>110.4</ele>
        <time>1970-01-01T00:37:17.000Z</time>
      </trkpt>
      <trkpt lat="39.781204" lon="-8.743493">
        <ele>110.5</ele>
        <time>1970-01-01T00:37:17.000Z</time>
      </trkpt>
      <trkpt lat="39.781229" lon="-8.743512">
        <ele>110.9</ele>
        <time>1970-01-01T00:37:18.000Z</time>
      </trkpt>
      <trkpt lat="39.781252" lon="-8.743527">
        <ele>111.2</ele>
        <time>1970-01-01T00:37:19.000Z</time>
      </trkpt>
      <trkpt lat="39.781262" lon="-8.743534">
        <ele>111.3</ele>
        <time>1970-01-01T00:37:20.000Z</time>
      </trkpt>
      <trkpt lat="39.781273" lon="-8.743541">
        <ele>111.5</ele>
        <time>1970-01-01T00:37:21.000Z</time>
      </trkpt>
      <trkpt lat="39.781283" lon="-8.743548">
        <ele>111.6</ele>
        <time>1970-01-01T00:37:22.000Z</time>
      </trkpt>
      <trkpt lat="39.781294" lon="-8.743555">
        <ele>111.8</ele>
        <time>1970-01-01T00:37:23.000Z</time>
      </trkpt>
      <trkpt lat="39.781304" lon="-8.743562">
        <ele>111.9</ele>
        <time>1970-01-01T00:37:24.000Z</time>
      </trkpt>
      <trkpt lat="39.781315" lon="-8.743569">
        <ele>112.1</ele>
        <time>1970-01-01T00:37:25.000Z</time>
      </trkpt>
      <trkpt lat="39.781325" lon="-8.743576">
        <ele>112.2</ele>
        <time>1970-01-01T00:37:27.000Z</time>
      </trkpt>
      <trkpt lat="39.781336" lon="-8.743583">
        <ele>112.4</ele>
        <time>1970-01-01T00:37:27.000Z</time>
      </trkpt>
      <trkpt lat="39.781357" lon="-8.743602">
        <ele>112.7</ele>
        <time>1970-01-01T00:37:28.000Z</time>
      </trkpt>
      <trkpt lat="39.781375" lon="-8.743617">
        <ele>113</ele>
        <time>1970-01-01T00:37:29.000Z</time>
      </trkpt>
      <trkpt lat="39.781383" lon="-8.743624">
        <ele>113.2</ele>
        <time>1970-01-01T00:37:30.000Z</time>
      </trkpt>
      <trkpt lat="39.781391" lon="-8.743631">
        <ele>113.3</ele>
        <time>1970-01-01T00:37:31.000Z</time>
      </trkpt>
      <trkpt lat="39.781399" lon="-8.743638">
        <ele>113.4</ele>
        <time>1970-01-01T00:37:32.000Z</time>
      </trkpt>
      <trkpt lat="39.781407" lon="-8.743645">
        <ele>113.6</ele>
        <time>1970-01-01T00:37:33.000Z</time>
      </trkpt>
      <trkpt lat="39.781415" lon="-8.743652">
        <ele>113.7</ele>
        <time>1970-01-01T00:37:35.000Z</time>
      </trkpt>
      <trkpt lat="39.781423" lon="-8.743659">
        <ele>113.9</ele>
        <time>1970-01-01T00:37:35.000Z</time>
      </trkpt>
      <trkpt lat="39.781443" lon="-8.743679">
        <ele>114.3</ele>
        <time>1970-01-01T00:37:36.000Z</time>
      </trkpt>
      <trkpt lat="39.781456" lon="-8.743693">
        <ele>114.5</ele>
        <time>1970-01-01T00:37:37.000Z</time>
      </trkpt>
      <trkpt lat="39.781462" lon="-8.743698">
        <ele>114.6</ele>
        <time>1970-01-01T00:37:39.000Z</time>
      </trkpt>
      <trkpt lat="39.781467" lon="-8.743704">
        <ele>114.7</ele>
        <time>1970-01-01T00:37:39.000Z</time>
      </trkpt>
      <trkpt lat="39.781486" lon="-8.743719">
        <ele>115.1</ele>
        <time>1970-01-01T00:37:40.000Z</time>
      </trkpt>
      <trkpt lat="39.781504" lon="-8.743733">
        <ele>115.4</ele>
        <time>1970-01-01T00:37:41.000Z</time>
      </trkpt>
      <trkpt lat="39.781512" lon="-8.743739">
        <ele>115.5</ele>
        <time>1970-01-01T00:37:42.000Z</time>
      </trkpt>
      <trkpt lat="39.78152" lon="-8.743744">
        <ele>115.6</ele>
        <time>1970-01-01T00:37:43.000Z</time>
      </trkpt>
      <trkpt lat="39.781528" lon="-8.74375">
        <ele>115.7</ele>
        <time>1970-01-01T00:37:45.000Z</time>
      </trkpt>
      <trkpt lat="39.781536" lon="-8.743756">
        <ele>115.9</ele>
        <time>1970-01-01T00:37:45.000Z</time>
      </trkpt>
      <trkpt lat="39.781556" lon="-8.743779">
        <ele>116.2</ele>
        <time>1970-01-01T00:37:46.000Z</time>
      </trkpt>
      <trkpt lat="39.78157" lon="-8.743797">
        <ele>116.4</ele>
        <time>1970-01-01T00:37:47.000Z</time>
      </trkpt>
      <trkpt lat="39.781575" lon="-8.743805">
        <ele>116.5</ele>
        <time>1970-01-01T00:37:49.000Z</time>
      </trkpt>
      <trkpt lat="39.781581" lon="-8.743812">
        <ele>116.6</ele>
        <time>1970-01-01T00:37:49.000Z</time>
      </trkpt>
      <trkpt lat="39.7816" lon="-8.743841">
        <ele>116.9</ele>
        <time>1970-01-01T00:37:50.000Z</time>
      </trkpt>
      <trkpt lat="39.781613" lon="-8.743864">
        <ele>117.1</ele>
        <time>1970-01-01T00:37:51.000Z</time>
      </trkpt>
      <trkpt lat="39.781619" lon="-8.743873">
        <ele>117.2</ele>
        <time>1970-01-01T00:37:53.000Z</time>
      </trkpt>
      <trkpt lat="39.781624" lon="-8.743882">
        <ele>117.3</ele>
        <time>1970-01-01T00:37:53.000Z</time>
      </trkpt>
      <trkpt lat="39.781636" lon="-8.743902">
        <ele>117.4</ele>
        <time>1970-01-01T00:37:54.000Z</time>
      </trkpt>
      <trkpt lat="39.781649" lon="-8.743925">
        <ele>117.6</ele>
        <time>1970-01-01T00:37:55.000Z</time>
      </trkpt>
      <trkpt lat="39.781675" lon="-8.74396">
        <ele>117.8</ele>
        <time>1970-01-01T00:37:57.000Z</time>
      </trkpt>
      <trkpt lat="39.781678" lon="-8.743965">
        <ele>117.8</ele>
        <time>1970-01-01T00:37:57.000Z</time>
      </trkpt>
      <trkpt lat="39.781696" lon="-8.743984">
        <ele>118</ele>
        <time>1970-01-01T00:37:58.000Z</time>
      </trkpt>
      <trkpt lat="39.781715" lon="-8.744003">
        <ele>118.1</ele>
        <time>1970-01-01T00:37:59.000Z</time>
      </trkpt>
      <trkpt lat="39.781736" lon="-8.744022">
        <ele>118.2</ele>
        <time>1970-01-01T00:38:00.000Z</time>
      </trkpt>
      <trkpt lat="39.78176" lon="-8.744046">
        <ele>118.3</ele>
        <time>1970-01-01T00:38:01.000Z</time>
      </trkpt>
      <trkpt lat="39.781784" lon="-8.744074">
        <ele>118.5</ele>
        <time>1970-01-01T00:38:02.000Z</time>
      </trkpt>
      <trkpt lat="39.781809" lon="-8.744107">
        <ele>118.6</ele>
        <time>1970-01-01T00:38:03.000Z</time>
      </trkpt>
      <trkpt lat="39.781833" lon="-8.744142">
        <ele>118.7</ele>
        <time>1970-01-01T00:38:04.000Z</time>
      </trkpt>
      <trkpt lat="39.781857" lon="-8.744178">
        <ele>118.8</ele>
        <time>1970-01-01T00:38:05.000Z</time>
      </trkpt>
      <trkpt lat="39.78188" lon="-8.744214">
        <ele>118.9</ele>
        <time>1970-01-01T00:38:06.000Z</time>
      </trkpt>
      <trkpt lat="39.781902" lon="-8.744248">
        <ele>119</ele>
        <time>1970-01-01T00:38:07.000Z</time>
      </trkpt>
      <trkpt lat="39.781921" lon="-8.744286">
        <ele>119.2</ele>
        <time>1970-01-01T00:38:08.000Z</time>
      </trkpt>
      <trkpt lat="39.781941" lon="-8.744339">
        <ele>119.3</ele>
        <time>1970-01-01T00:38:10.000Z</time>
      </trkpt>
      <trkpt lat="39.781945" lon="-8.744356">
        <ele>119.3</ele>
        <time>1970-01-01T00:38:10.000Z</time>
      </trkpt>
      <trkpt lat="39.781952" lon="-8.744393">
        <ele>119.4</ele>
        <time>1970-01-01T00:38:11.000Z</time>
      </trkpt>
      <trkpt lat="39.781956" lon="-8.744426">
        <ele>119.5</ele>
        <time>1970-01-01T00:38:12.000Z</time>
      </trkpt>
      <trkpt lat="39.78196" lon="-8.744461">
        <ele>119.6</ele>
        <time>1970-01-01T00:38:13.000Z</time>
      </trkpt>
      <trkpt lat="39.781963" lon="-8.744496">
        <ele>119.7</ele>
        <time>1970-01-01T00:38:14.000Z</time>
      </trkpt>
      <trkpt lat="39.781968" lon="-8.744527">
        <ele>119.8</ele>
        <time>1970-01-01T00:38:15.000Z</time>
      </trkpt>
      <trkpt lat="39.781973" lon="-8.744555">
        <ele>119.9</ele>
        <time>1970-01-01T00:38:16.000Z</time>
      </trkpt>
      <trkpt lat="39.781979" lon="-8.744584">
        <ele>120</ele>
        <time>1970-01-01T00:38:17.000Z</time>
      </trkpt>
      <trkpt lat="39.781984" lon="-8.744613">
        <ele>120.1</ele>
        <time>1970-01-01T00:38:18.000Z</time>
      </trkpt>
      <trkpt lat="39.781988" lon="-8.74464">
        <ele>120.3</ele>
        <time>1970-01-01T00:38:19.000Z</time>
      </trkpt>
      <trkpt lat="39.78199" lon="-8.744668">
        <ele>120.4</ele>
        <time>1970-01-01T00:38:20.000Z</time>
      </trkpt>
      <trkpt lat="39.781992" lon="-8.744694">
        <ele>120.5</ele>
        <time>1970-01-01T00:38:21.000Z</time>
      </trkpt>
      <trkpt lat="39.781995" lon="-8.744721">
        <ele>120.7</ele>
        <time>1970-01-01T00:38:22.000Z</time>
      </trkpt>
      <trkpt lat="39.781998" lon="-8.744745">
        <ele>120.8</ele>
        <time>1970-01-01T00:38:23.000Z</time>
      </trkpt>
      <trkpt lat="39.782002" lon="-8.744768">
        <ele>120.9</ele>
        <time>1970-01-01T00:38:24.000Z</time>
      </trkpt>
      <trkpt lat="39.782005" lon="-8.744791">
        <ele>121.1</ele>
        <time>1970-01-01T00:38:25.000Z</time>
      </trkpt>
      <trkpt lat="39.782007" lon="-8.744827">
        <ele>121.3</ele>
        <time>1970-01-01T00:38:26.000Z</time>
      </trkpt>
      <trkpt lat="39.782007" lon="-8.744852">
        <ele>121.5</ele>
        <time>1970-01-01T00:38:27.000Z</time>
      </trkpt>
      <trkpt lat="39.782007" lon="-8.744863">
        <ele>121.6</ele>
        <time>1970-01-01T00:38:29.000Z</time>
      </trkpt>
      <trkpt lat="39.782007" lon="-8.744873">
        <ele>121.6</ele>
        <time>1970-01-01T00:38:29.000Z</time>
      </trkpt>
      <trkpt lat="39.782003" lon="-8.744896">
        <ele>121.8</ele>
        <time>1970-01-01T00:38:30.000Z</time>
      </trkpt>
      <trkpt lat="39.782001" lon="-8.744919">
        <ele>122</ele>
        <time>1970-01-01T00:38:31.000Z</time>
      </trkpt>
      <trkpt lat="39.782006" lon="-8.744959">
        <ele>122.3</ele>
        <time>1970-01-01T00:38:32.000Z</time>
      </trkpt>
      <trkpt lat="39.782012" lon="-8.744983">
        <ele>122.5</ele>
        <time>1970-01-01T00:38:34.000Z</time>
      </trkpt>
      <trkpt lat="39.782013" lon="-8.744992">
        <ele>122.6</ele>
        <time>1970-01-01T00:38:34.000Z</time>
      </trkpt>
      <trkpt lat="39.782023" lon="-8.745017">
        <ele>122.8</ele>
        <time>1970-01-01T00:38:35.000Z</time>
      </trkpt>
      <trkpt lat="39.782034" lon="-8.745038">
        <ele>123</ele>
        <time>1970-01-01T00:38:36.000Z</time>
      </trkpt>
      <trkpt lat="39.782047" lon="-8.745058">
        <ele>123.3</ele>
        <time>1970-01-01T00:38:37.000Z</time>
      </trkpt>
      <trkpt lat="39.78206" lon="-8.745077">
        <ele>123.5</ele>
        <time>1970-01-01T00:38:38.000Z</time>
      </trkpt>
      <trkpt lat="39.782078" lon="-8.745102">
        <ele>123.8</ele>
        <time>1970-01-01T00:38:39.000Z</time>
      </trkpt>
      <trkpt lat="39.782095" lon="-8.745115">
        <ele>124</ele>
        <time>1970-01-01T00:38:40.000Z</time>
      </trkpt>
      <trkpt lat="39.782102" lon="-8.745122">
        <ele>124.1</ele>
        <time>1970-01-01T00:38:41.000Z</time>
      </trkpt>
      <trkpt lat="39.78211" lon="-8.745128">
        <ele>124.2</ele>
        <time>1970-01-01T00:38:42.000Z</time>
      </trkpt>
      <trkpt lat="39.782118" lon="-8.745135">
        <ele>124.3</ele>
        <time>1970-01-01T00:38:43.000Z</time>
      </trkpt>
      <trkpt lat="39.782125" lon="-8.745141">
        <ele>124.4</ele>
        <time>1970-01-01T00:38:44.000Z</time>
      </trkpt>
      <trkpt lat="39.782133" lon="-8.745148">
        <ele>124.6</ele>
        <time>1970-01-01T00:38:45.000Z</time>
      </trkpt>
      <trkpt lat="39.78214" lon="-8.745154">
        <ele>124.7</ele>
        <time>1970-01-01T00:38:46.000Z</time>
      </trkpt>
      <trkpt lat="39.782148" lon="-8.745161">
        <ele>124.8</ele>
        <time>1970-01-01T00:38:47.000Z</time>
      </trkpt>
      <trkpt lat="39.782156" lon="-8.745167">
        <ele>126.6</ele>
        <time>1970-01-01T00:38:48.000Z</time>
      </trkpt>
      <trkpt lat="39.782163" lon="-8.745174">
        <ele>126.7</ele>
        <time>1970-01-01T00:38:50.000Z</time>
      </trkpt>
      <trkpt lat="39.782171" lon="-8.74518">
        <ele>126.7</ele>
        <time>1970-01-01T00:38:50.000Z</time>
      </trkpt>
      <trkpt lat="39.782174" lon="-8.745167">
        <ele>126.7</ele>
        <time>1970-01-01T00:38:51.000Z</time>
      </trkpt>
      <trkpt lat="39.782175" lon="-8.745163">
        <ele>126.8</ele>
        <time>1970-01-01T00:38:52.000Z</time>
      </trkpt>
      <trkpt lat="39.782175" lon="-8.745158">
        <ele>126.8</ele>
        <time>1970-01-01T00:38:53.000Z</time>
      </trkpt>
      <trkpt lat="39.782176" lon="-8.745154">
        <ele>126.8</ele>
        <time>1970-01-01T00:38:55.000Z</time>
      </trkpt>
      <trkpt lat="39.782176" lon="-8.745149">
        <ele>126.8</ele>
        <time>1970-01-01T00:38:55.000Z</time>
      </trkpt>
      <trkpt lat="39.782177" lon="-8.745117">
        <ele>126.9</ele>
        <time>1970-01-01T00:38:57.000Z</time>
      </trkpt>
      <trkpt lat="39.782176" lon="-8.745113">
        <ele>126.9</ele>
        <time>1970-01-01T00:38:57.000Z</time>
      </trkpt>
      <trkpt lat="39.782173" lon="-8.745085">
        <ele>127</ele>
        <time>1970-01-01T00:38:58.000Z</time>
      </trkpt>
      <trkpt lat="39.78217" lon="-8.74506">
        <ele>127.1</ele>
        <time>1970-01-01T00:38:59.000Z</time>
      </trkpt>
      <trkpt lat="39.782168" lon="-8.745049">
        <ele>127.1</ele>
        <time>1970-01-01T00:39:00.000Z</time>
      </trkpt>
      <trkpt lat="39.782167" lon="-8.745037">
        <ele>127.1</ele>
        <time>1970-01-01T00:39:01.000Z</time>
      </trkpt>
      <trkpt lat="39.782165" lon="-8.745026">
        <ele>127.2</ele>
        <time>1970-01-01T00:39:02.000Z</time>
      </trkpt>
      <trkpt lat="39.782164" lon="-8.745014">
        <ele>127.2</ele>
        <time>1970-01-01T00:39:04.000Z</time>
      </trkpt>
      <trkpt lat="39.782162" lon="-8.745003">
        <ele>127.2</ele>
        <time>1970-01-01T00:39:04.000Z</time>
      </trkpt>
      <trkpt lat="39.782166" lon="-8.744965">
        <ele>127.3</ele>
        <time>1970-01-01T00:39:05.000Z</time>
      </trkpt>
      <trkpt lat="39.78217" lon="-8.744934">
        <ele>127.4</ele>
        <time>1970-01-01T00:39:06.000Z</time>
      </trkpt>
      <trkpt lat="39.782172" lon="-8.74492">
        <ele>127.4</ele>
        <time>1970-01-01T00:39:07.000Z</time>
      </trkpt>
      <trkpt lat="39.782173" lon="-8.744907">
        <ele>127.5</ele>
        <time>1970-01-01T00:39:09.000Z</time>
      </trkpt>
      <trkpt lat="39.782175" lon="-8.744893">
        <ele>127.5</ele>
        <time>1970-01-01T00:39:09.000Z</time>
      </trkpt>
      <trkpt lat="39.782177" lon="-8.744867">
        <ele>127.5</ele>
        <time>1970-01-01T00:39:10.000Z</time>
      </trkpt>
      <trkpt lat="39.782178" lon="-8.744839">
        <ele>127.6</ele>
        <time>1970-01-01T00:39:11.000Z</time>
      </trkpt>
      <trkpt lat="39.782179" lon="-8.744809">
        <ele>127.6</ele>
        <time>1970-01-01T00:39:12.000Z</time>
      </trkpt>
      <trkpt lat="39.782182" lon="-8.744776">
        <ele>127.7</ele>
        <time>1970-01-01T00:39:13.000Z</time>
      </trkpt>
      <trkpt lat="39.782186" lon="-8.744742">
        <ele>127.7</ele>
        <time>1970-01-01T00:39:14.000Z</time>
      </trkpt>
      <trkpt lat="39.782192" lon="-8.744706">
        <ele>127.7</ele>
        <time>1970-01-01T00:39:15.000Z</time>
      </trkpt>
      <trkpt lat="39.782198" lon="-8.744668">
        <ele>127.8</ele>
        <time>1970-01-01T00:39:16.000Z</time>
      </trkpt>
      <trkpt lat="39.782202" lon="-8.744631">
        <ele>127.8</ele>
        <time>1970-01-01T00:39:17.000Z</time>
      </trkpt>
      <trkpt lat="39.782206" lon="-8.744589">
        <ele>127.8</ele>
        <time>1970-01-01T00:39:18.000Z</time>
      </trkpt>
      <trkpt lat="39.782212" lon="-8.744547">
        <ele>127.8</ele>
        <time>1970-01-01T00:39:19.000Z</time>
      </trkpt>
      <trkpt lat="39.782225" lon="-8.744487">
        <ele>127.9</ele>
        <time>1970-01-01T00:39:21.000Z</time>
      </trkpt>
      <trkpt lat="39.782231" lon="-8.744466">
        <ele>127.9</ele>
        <time>1970-01-01T00:39:21.000Z</time>
      </trkpt>
      <trkpt lat="39.782242" lon="-8.744425">
        <ele>127.9</ele>
        <time>1970-01-01T00:39:22.000Z</time>
      </trkpt>
      <trkpt lat="39.782257" lon="-8.744382">
        <ele>128</ele>
        <time>1970-01-01T00:39:23.000Z</time>
      </trkpt>
      <trkpt lat="39.782272" lon="-8.744341">
        <ele>128.1</ele>
        <time>1970-01-01T00:39:24.000Z</time>
      </trkpt>
      <trkpt lat="39.782287" lon="-8.744302">
        <ele>128.2</ele>
        <time>1970-01-01T00:39:25.000Z</time>
      </trkpt>
      <trkpt lat="39.782301" lon="-8.744262">
        <ele>128.3</ele>
        <time>1970-01-01T00:39:26.000Z</time>
      </trkpt>
      <trkpt lat="39.782315" lon="-8.744224">
        <ele>128.5</ele>
        <time>1970-01-01T00:39:27.000Z</time>
      </trkpt>
      <trkpt lat="39.782328" lon="-8.744189">
        <ele>128.6</ele>
        <time>1970-01-01T00:39:28.000Z</time>
      </trkpt>
      <trkpt lat="39.782342" lon="-8.744157">
        <ele>128.8</ele>
        <time>1970-01-01T00:39:29.000Z</time>
      </trkpt>
      <trkpt lat="39.782363" lon="-8.744113">
        <ele>129</ele>
        <time>1970-01-01T00:39:31.000Z</time>
      </trkpt>
      <trkpt lat="39.78237" lon="-8.744099">
        <ele>129.1</ele>
        <time>1970-01-01T00:39:31.000Z</time>
      </trkpt>
      <trkpt lat="39.782384" lon="-8.744071">
        <ele>129.3</ele>
        <time>1970-01-01T00:39:32.000Z</time>
      </trkpt>
      <trkpt lat="39.782401" lon="-8.744043">
        <ele>129.5</ele>
        <time>1970-01-01T00:39:33.000Z</time>
      </trkpt>
      <trkpt lat="39.782419" lon="-8.744018">
        <ele>129.7</ele>
        <time>1970-01-01T00:39:34.000Z</time>
      </trkpt>
      <trkpt lat="39.78245" lon="-8.743994">
        <ele>129.9</ele>
        <time>1970-01-01T00:39:36.000Z</time>
      </trkpt>
      <trkpt lat="39.78246" lon="-8.743987">
        <ele>130</ele>
        <time>1970-01-01T00:39:36.000Z</time>
      </trkpt>
      <trkpt lat="39.782482" lon="-8.74398">
        <ele>130.2</ele>
        <time>1970-01-01T00:39:37.000Z</time>
      </trkpt>
      <trkpt lat="39.782506" lon="-8.743976">
        <ele>130.4</ele>
        <time>1970-01-01T00:39:39.000Z</time>
      </trkpt>
      <trkpt lat="39.782532" lon="-8.743976">
        <ele>130.6</ele>
        <time>1970-01-01T00:39:40.000Z</time>
      </trkpt>
      <trkpt lat="39.78256" lon="-8.743979">
        <ele>130.8</ele>
        <time>1970-01-01T00:39:40.000Z</time>
      </trkpt>
      <trkpt lat="39.78259" lon="-8.743985">
        <ele>131</ele>
        <time>1970-01-01T00:39:41.000Z</time>
      </trkpt>
      <trkpt lat="39.782621" lon="-8.743991">
        <ele>131.3</ele>
        <time>1970-01-01T00:39:42.000Z</time>
      </trkpt>
      <trkpt lat="39.78265" lon="-8.743999">
        <ele>131.5</ele>
        <time>1970-01-01T00:39:43.000Z</time>
      </trkpt>
      <trkpt lat="39.782677" lon="-8.744007">
        <ele>131.7</ele>
        <time>1970-01-01T00:39:44.000Z</time>
      </trkpt>
      <trkpt lat="39.782703" lon="-8.744013">
        <ele>131.8</ele>
        <time>1970-01-01T00:39:45.000Z</time>
      </trkpt>
      <trkpt lat="39.782729" lon="-8.744021">
        <ele>132</ele>
        <time>1970-01-01T00:39:46.000Z</time>
      </trkpt>
      <trkpt lat="39.782757" lon="-8.744032">
        <ele>132.2</ele>
        <time>1970-01-01T00:39:47.000Z</time>
      </trkpt>
      <trkpt lat="39.782789" lon="-8.744045">
        <ele>132.4</ele>
        <time>1970-01-01T00:39:48.000Z</time>
      </trkpt>
      <trkpt lat="39.78282" lon="-8.744057">
        <ele>132.7</ele>
        <time>1970-01-01T00:39:49.000Z</time>
      </trkpt>
      <trkpt lat="39.782849" lon="-8.744068">
        <ele>132.9</ele>
        <time>1970-01-01T00:39:50.000Z</time>
      </trkpt>
      <trkpt lat="39.78288" lon="-8.744078">
        <ele>133.1</ele>
        <time>1970-01-01T00:39:51.000Z</time>
      </trkpt>
      <trkpt lat="39.782912" lon="-8.744088">
        <ele>133.4</ele>
        <time>1970-01-01T00:39:52.000Z</time>
      </trkpt>
      <trkpt lat="39.782942" lon="-8.744098">
        <ele>133.6</ele>
        <time>1970-01-01T00:39:53.000Z</time>
      </trkpt>
      <trkpt lat="39.78297" lon="-8.744111">
        <ele>133.9</ele>
        <time>1970-01-01T00:39:54.000Z</time>
      </trkpt>
      <trkpt lat="39.782995" lon="-8.744126">
        <ele>134.4</ele>
        <time>1970-01-01T00:39:55.000Z</time>
      </trkpt>
      <trkpt lat="39.783016" lon="-8.744146">
        <ele>134.6</ele>
        <time>1970-01-01T00:39:56.000Z</time>
      </trkpt>
      <trkpt lat="39.783033" lon="-8.744169">
        <ele>134.8</ele>
        <time>1970-01-01T00:39:57.000Z</time>
      </trkpt>
      <trkpt lat="39.783059" lon="-8.744206">
        <ele>135.2</ele>
        <time>1970-01-01T00:39:59.000Z</time>
      </trkpt>
      <trkpt lat="39.783067" lon="-8.744219">
        <ele>135.3</ele>
        <time>1970-01-01T00:39:59.000Z</time>
      </trkpt>
      <trkpt lat="39.783085" lon="-8.744245">
        <ele>135.5</ele>
        <time>1970-01-01T00:40:00.000Z</time>
      </trkpt>
      <trkpt lat="39.783102" lon="-8.744273">
        <ele>135.7</ele>
        <time>1970-01-01T00:40:01.000Z</time>
      </trkpt>
      <trkpt lat="39.783118" lon="-8.744301">
        <ele>135.9</ele>
        <time>1970-01-01T00:40:03.000Z</time>
      </trkpt>
      <trkpt lat="39.783133" lon="-8.744331">
        <ele>136.1</ele>
        <time>1970-01-01T00:40:04.000Z</time>
      </trkpt>
      <trkpt lat="39.783147" lon="-8.744361">
        <ele>136.4</ele>
        <time>1970-01-01T00:40:04.000Z</time>
      </trkpt>
      <trkpt lat="39.783159" lon="-8.74439">
        <ele>136.5</ele>
        <time>1970-01-01T00:40:05.000Z</time>
      </trkpt>
      <trkpt lat="39.783179" lon="-8.744435">
        <ele>136.8</ele>
        <time>1970-01-01T00:40:07.000Z</time>
      </trkpt>
      <trkpt lat="39.783181" lon="-8.744442">
        <ele>136.9</ele>
        <time>1970-01-01T00:40:07.000Z</time>
      </trkpt>
      <trkpt lat="39.783191" lon="-8.744468">
        <ele>137</ele>
        <time>1970-01-01T00:40:08.000Z</time>
      </trkpt>
      <trkpt lat="39.783201" lon="-8.744493">
        <ele>137.2</ele>
        <time>1970-01-01T00:40:09.000Z</time>
      </trkpt>
      <trkpt lat="39.78321" lon="-8.744519">
        <ele>137.4</ele>
        <time>1970-01-01T00:40:10.000Z</time>
      </trkpt>
      <trkpt lat="39.78322" lon="-8.744544">
        <ele>137.5</ele>
        <time>1970-01-01T00:40:11.000Z</time>
      </trkpt>
      <trkpt lat="39.783233" lon="-8.744588">
        <ele>137.8</ele>
        <time>1970-01-01T00:40:13.000Z</time>
      </trkpt>
      <trkpt lat="39.783234" lon="-8.744595">
        <ele>137.8</ele>
        <time>1970-01-01T00:40:13.000Z</time>
      </trkpt>
      <trkpt lat="39.783242" lon="-8.744638">
        <ele>138.1</ele>
        <time>1970-01-01T00:40:15.000Z</time>
      </trkpt>
      <trkpt lat="39.783242" lon="-8.744645">
        <ele>138.1</ele>
        <time>1970-01-01T00:40:15.000Z</time>
      </trkpt>
      <trkpt lat="39.783249" lon="-8.74469">
        <ele>138.4</ele>
        <time>1970-01-01T00:40:17.000Z</time>
      </trkpt>
      <trkpt lat="39.783249" lon="-8.744697">
        <ele>138.4</ele>
        <time>1970-01-01T00:40:17.000Z</time>
      </trkpt>
      <trkpt lat="39.783251" lon="-8.744742">
        <ele>138.7</ele>
        <time>1970-01-01T00:40:19.000Z</time>
      </trkpt>
      <trkpt lat="39.783251" lon="-8.744748">
        <ele>138.7</ele>
        <time>1970-01-01T00:40:19.000Z</time>
      </trkpt>
      <trkpt lat="39.783252" lon="-8.744792">
        <ele>138.8</ele>
        <time>1970-01-01T00:40:21.000Z</time>
      </trkpt>
      <trkpt lat="39.783252" lon="-8.744798">
        <ele>138.8</ele>
        <time>1970-01-01T00:40:21.000Z</time>
      </trkpt>
      <trkpt lat="39.783252" lon="-8.74482">
        <ele>138.8</ele>
        <time>1970-01-01T00:40:22.000Z</time>
      </trkpt>
      <trkpt lat="39.783254" lon="-8.744843">
        <ele>138.8</ele>
        <time>1970-01-01T00:40:23.000Z</time>
      </trkpt>
      <trkpt lat="39.783257" lon="-8.744866">
        <ele>138.8</ele>
        <time>1970-01-01T00:40:24.000Z</time>
      </trkpt>
      <trkpt lat="39.783262" lon="-8.744889">
        <ele>138.8</ele>
        <time>1970-01-01T00:40:25.000Z</time>
      </trkpt>
      <trkpt lat="39.783271" lon="-8.744912">
        <ele>138.8</ele>
        <time>1970-01-01T00:40:26.000Z</time>
      </trkpt>
      <trkpt lat="39.783284" lon="-8.744932">
        <ele>138.8</ele>
        <time>1970-01-01T00:40:27.000Z</time>
      </trkpt>
      <trkpt lat="39.7833" lon="-8.744947">
        <ele>138.8</ele>
        <time>1970-01-01T00:40:28.000Z</time>
      </trkpt>
      <trkpt lat="39.783318" lon="-8.744957">
        <ele>138.9</ele>
        <time>1970-01-01T00:40:29.000Z</time>
      </trkpt>
      <trkpt lat="39.783338" lon="-8.744962">
        <ele>139</ele>
        <time>1970-01-01T00:40:30.000Z</time>
      </trkpt>
      <trkpt lat="39.783358" lon="-8.744964">
        <ele>139.1</ele>
        <time>1970-01-01T00:40:31.000Z</time>
      </trkpt>
      <trkpt lat="39.783378" lon="-8.744964">
        <ele>139.2</ele>
        <time>1970-01-01T00:40:32.000Z</time>
      </trkpt>
      <trkpt lat="39.783401" lon="-8.744963">
        <ele>139.3</ele>
        <time>1970-01-01T00:40:33.000Z</time>
      </trkpt>
      <trkpt lat="39.783425" lon="-8.744961">
        <ele>139.4</ele>
        <time>1970-01-01T00:40:34.000Z</time>
      </trkpt>
      <trkpt lat="39.78345" lon="-8.744958">
        <ele>139.5</ele>
        <time>1970-01-01T00:40:35.000Z</time>
      </trkpt>
      <trkpt lat="39.783477" lon="-8.744954">
        <ele>139.6</ele>
        <time>1970-01-01T00:40:36.000Z</time>
      </trkpt>
      <trkpt lat="39.783505" lon="-8.744951">
        <ele>139.7</ele>
        <time>1970-01-01T00:40:37.000Z</time>
      </trkpt>
      <trkpt lat="39.783535" lon="-8.744949">
        <ele>139.8</ele>
        <time>1970-01-01T00:40:38.000Z</time>
      </trkpt>
      <trkpt lat="39.783566" lon="-8.744946">
        <ele>139.9</ele>
        <time>1970-01-01T00:40:39.000Z</time>
      </trkpt>
      <trkpt lat="39.783598" lon="-8.744943">
        <ele>140</ele>
        <time>1970-01-01T00:40:40.000Z</time>
      </trkpt>
      <trkpt lat="39.78363" lon="-8.744937">
        <ele>140.1</ele>
        <time>1970-01-01T00:40:41.000Z</time>
      </trkpt>
      <trkpt lat="39.78366" lon="-8.744931">
        <ele>140.3</ele>
        <time>1970-01-01T00:40:42.000Z</time>
      </trkpt>
      <trkpt lat="39.783689" lon="-8.744922">
        <ele>140.4</ele>
        <time>1970-01-01T00:40:43.000Z</time>
      </trkpt>
      <trkpt lat="39.783719" lon="-8.744914">
        <ele>140.5</ele>
        <time>1970-01-01T00:40:44.000Z</time>
      </trkpt>
      <trkpt lat="39.783748" lon="-8.744906">
        <ele>140.6</ele>
        <time>1970-01-01T00:40:45.000Z</time>
      </trkpt>
      <trkpt lat="39.783775" lon="-8.744899">
        <ele>140.7</ele>
        <time>1970-01-01T00:40:47.000Z</time>
      </trkpt>
      <trkpt lat="39.783801" lon="-8.74489">
        <ele>140.8</ele>
        <time>1970-01-01T00:40:48.000Z</time>
      </trkpt>
      <trkpt lat="39.783829" lon="-8.744879">
        <ele>141</ele>
        <time>1970-01-01T00:40:48.000Z</time>
      </trkpt>
      <trkpt lat="39.783859" lon="-8.744869">
        <ele>141.1</ele>
        <time>1970-01-01T00:40:49.000Z</time>
      </trkpt>
      <trkpt lat="39.783889" lon="-8.744859">
        <ele>141.2</ele>
        <time>1970-01-01T00:40:50.000Z</time>
      </trkpt>
      <trkpt lat="39.783917" lon="-8.744849">
        <ele>141.4</ele>
        <time>1970-01-01T00:40:51.000Z</time>
      </trkpt>
      <trkpt lat="39.783943" lon="-8.744839">
        <ele>141.5</ele>
        <time>1970-01-01T00:40:52.000Z</time>
      </trkpt>
      <trkpt lat="39.783987" lon="-8.744825">
        <ele>141.7</ele>
        <time>1970-01-01T00:40:54.000Z</time>
      </trkpt>
      <trkpt lat="39.784002" lon="-8.74482">
        <ele>141.8</ele>
        <time>1970-01-01T00:40:54.000Z</time>
      </trkpt>
      <trkpt lat="39.784043" lon="-8.744805">
        <ele>142</ele>
        <time>1970-01-01T00:40:56.000Z</time>
      </trkpt>
      <trkpt lat="39.784056" lon="-8.744799">
        <ele>142.1</ele>
        <time>1970-01-01T00:40:56.000Z</time>
      </trkpt>
      <trkpt lat="39.784084" lon="-8.74479">
        <ele>142.3</ele>
        <time>1970-01-01T00:40:57.000Z</time>
      </trkpt>
      <trkpt lat="39.784114" lon="-8.744781">
        <ele>142.5</ele>
        <time>1970-01-01T00:40:59.000Z</time>
      </trkpt>
      <trkpt lat="39.784142" lon="-8.744776">
        <ele>142.6</ele>
        <time>1970-01-01T00:41:00.000Z</time>
      </trkpt>
      <trkpt lat="39.784172" lon="-8.744774">
        <ele>142.8</ele>
        <time>1970-01-01T00:41:00.000Z</time>
      </trkpt>
      <trkpt lat="39.784198" lon="-8.744773">
        <ele>142.9</ele>
        <time>1970-01-01T00:41:01.000Z</time>
      </trkpt>
      <trkpt lat="39.784225" lon="-8.744775">
        <ele>143.1</ele>
        <time>1970-01-01T00:41:03.000Z</time>
      </trkpt>
      <trkpt lat="39.78425" lon="-8.744781">
        <ele>143.2</ele>
        <time>1970-01-01T00:41:04.000Z</time>
      </trkpt>
      <trkpt lat="39.784274" lon="-8.744791">
        <ele>143.3</ele>
        <time>1970-01-01T00:41:04.000Z</time>
      </trkpt>
      <trkpt lat="39.784297" lon="-8.744803">
        <ele>143.5</ele>
        <time>1970-01-01T00:41:05.000Z</time>
      </trkpt>
      <trkpt lat="39.78432" lon="-8.744818">
        <ele>143.6</ele>
        <time>1970-01-01T00:41:06.000Z</time>
      </trkpt>
      <trkpt lat="39.784344" lon="-8.744832">
        <ele>143.7</ele>
        <time>1970-01-01T00:41:07.000Z</time>
      </trkpt>
      <trkpt lat="39.784368" lon="-8.744847">
        <ele>143.8</ele>
        <time>1970-01-01T00:41:08.000Z</time>
      </trkpt>
      <trkpt lat="39.784392" lon="-8.744862">
        <ele>143.8</ele>
        <time>1970-01-01T00:41:09.000Z</time>
      </trkpt>
      <trkpt lat="39.784419" lon="-8.74488">
        <ele>143.9</ele>
        <time>1970-01-01T00:41:10.000Z</time>
      </trkpt>
      <trkpt lat="39.784447" lon="-8.7449">
        <ele>143.9</ele>
        <time>1970-01-01T00:41:11.000Z</time>
      </trkpt>
      <trkpt lat="39.784476" lon="-8.74492">
        <ele>144</ele>
        <time>1970-01-01T00:41:12.000Z</time>
      </trkpt>
      <trkpt lat="39.784506" lon="-8.744942">
        <ele>144</ele>
        <time>1970-01-01T00:41:13.000Z</time>
      </trkpt>
      <trkpt lat="39.784539" lon="-8.744967">
        <ele>143.9</ele>
        <time>1970-01-01T00:41:15.000Z</time>
      </trkpt>
      <trkpt lat="39.784571" lon="-8.744997">
        <ele>143.9</ele>
        <time>1970-01-01T00:41:15.000Z</time>
      </trkpt>
      <trkpt lat="39.784602" lon="-8.745029">
        <ele>143.8</ele>
        <time>1970-01-01T00:41:16.000Z</time>
      </trkpt>
      <trkpt lat="39.784634" lon="-8.745062">
        <ele>143.8</ele>
        <time>1970-01-01T00:41:17.000Z</time>
      </trkpt>
      <trkpt lat="39.784667" lon="-8.745096">
        <ele>143.7</ele>
        <time>1970-01-01T00:41:19.000Z</time>
      </trkpt>
      <trkpt lat="39.784699" lon="-8.74513">
        <ele>143.6</ele>
        <time>1970-01-01T00:41:20.000Z</time>
      </trkpt>
      <trkpt lat="39.784733" lon="-8.745164">
        <ele>143.5</ele>
        <time>1970-01-01T00:41:21.000Z</time>
      </trkpt>
      <trkpt lat="39.784766" lon="-8.745199">
        <ele>143.4</ele>
        <time>1970-01-01T00:41:21.000Z</time>
      </trkpt>
      <trkpt lat="39.784795" lon="-8.745233">
        <ele>143.4</ele>
        <time>1970-01-01T00:41:22.000Z</time>
      </trkpt>
      <trkpt lat="39.784823" lon="-8.745269">
        <ele>143.3</ele>
        <time>1970-01-01T00:41:24.000Z</time>
      </trkpt>
      <trkpt lat="39.784847" lon="-8.745303">
        <ele>143.3</ele>
        <time>1970-01-01T00:41:24.000Z</time>
      </trkpt>
      <trkpt lat="39.784867" lon="-8.745334">
        <ele>143.2</ele>
        <time>1970-01-01T00:41:25.000Z</time>
      </trkpt>
      <trkpt lat="39.784887" lon="-8.745361">
        <ele>143.2</ele>
        <time>1970-01-01T00:41:26.000Z</time>
      </trkpt>
      <trkpt lat="39.784904" lon="-8.745381">
        <ele>143.2</ele>
        <time>1970-01-01T00:41:27.000Z</time>
      </trkpt>
      <trkpt lat="39.784922" lon="-8.745394">
        <ele>143.2</ele>
        <time>1970-01-01T00:41:28.000Z</time>
      </trkpt>
      <trkpt lat="39.78494" lon="-8.745401">
        <ele>143.1</ele>
        <time>1970-01-01T00:41:29.000Z</time>
      </trkpt>
      <trkpt lat="39.784959" lon="-8.745399">
        <ele>143.1</ele>
        <time>1970-01-01T00:41:30.000Z</time>
      </trkpt>
      <trkpt lat="39.784981" lon="-8.745391">
        <ele>143</ele>
        <time>1970-01-01T00:41:31.000Z</time>
      </trkpt>
      <trkpt lat="39.785006" lon="-8.745378">
        <ele>143</ele>
        <time>1970-01-01T00:41:32.000Z</time>
      </trkpt>
      <trkpt lat="39.785034" lon="-8.745362">
        <ele>142.9</ele>
        <time>1970-01-01T00:41:33.000Z</time>
      </trkpt>
      <trkpt lat="39.785076" lon="-8.745335">
        <ele>142.9</ele>
        <time>1970-01-01T00:41:35.000Z</time>
      </trkpt>
      <trkpt lat="39.78509" lon="-8.745325">
        <ele>142.9</ele>
        <time>1970-01-01T00:41:35.000Z</time>
      </trkpt>
      <trkpt lat="39.78512" lon="-8.745305">
        <ele>142.8</ele>
        <time>1970-01-01T00:41:36.000Z</time>
      </trkpt>
      <trkpt lat="39.785149" lon="-8.745283">
        <ele>142.8</ele>
        <time>1970-01-01T00:41:37.000Z</time>
      </trkpt>
      <trkpt lat="39.785179" lon="-8.74526">
        <ele>142.7</ele>
        <time>1970-01-01T00:41:38.000Z</time>
      </trkpt>
      <trkpt lat="39.785209" lon="-8.745236">
        <ele>142.7</ele>
        <time>1970-01-01T00:41:39.000Z</time>
      </trkpt>
      <trkpt lat="39.78524" lon="-8.745211">
        <ele>142.7</ele>
        <time>1970-01-01T00:41:40.000Z</time>
      </trkpt>
      <trkpt lat="39.785273" lon="-8.745184">
        <ele>142.7</ele>
        <time>1970-01-01T00:41:41.000Z</time>
      </trkpt>
      <trkpt lat="39.785309" lon="-8.745155">
        <ele>142.6</ele>
        <time>1970-01-01T00:41:42.000Z</time>
      </trkpt>
      <trkpt lat="39.785345" lon="-8.745126">
        <ele>142.6</ele>
        <time>1970-01-01T00:41:43.000Z</time>
      </trkpt>
      <trkpt lat="39.785383" lon="-8.745096">
        <ele>142.6</ele>
        <time>1970-01-01T00:41:44.000Z</time>
      </trkpt>
      <trkpt lat="39.785424" lon="-8.745066">
        <ele>142.6</ele>
        <time>1970-01-01T00:41:45.000Z</time>
      </trkpt>
      <trkpt lat="39.785469" lon="-8.745037">
        <ele>142.6</ele>
        <time>1970-01-01T00:41:46.000Z</time>
      </trkpt>
      <trkpt lat="39.785514" lon="-8.745006">
        <ele>142.6</ele>
        <time>1970-01-01T00:41:47.000Z</time>
      </trkpt>
      <trkpt lat="39.785557" lon="-8.744975">
        <ele>142.6</ele>
        <time>1970-01-01T00:41:48.000Z</time>
      </trkpt>
      <trkpt lat="39.785598" lon="-8.744945">
        <ele>142.6</ele>
        <time>1970-01-01T00:41:49.000Z</time>
      </trkpt>
      <trkpt lat="39.785638" lon="-8.744912">
        <ele>142.6</ele>
        <time>1970-01-01T00:41:50.000Z</time>
      </trkpt>
      <trkpt lat="39.785678" lon="-8.744878">
        <ele>142.6</ele>
        <time>1970-01-01T00:41:51.000Z</time>
      </trkpt>
      <trkpt lat="39.785718" lon="-8.744843">
        <ele>142.7</ele>
        <time>1970-01-01T00:41:52.000Z</time>
      </trkpt>
      <trkpt lat="39.785755" lon="-8.744807">
        <ele>142.7</ele>
        <time>1970-01-01T00:41:53.000Z</time>
      </trkpt>
      <trkpt lat="39.785792" lon="-8.744772">
        <ele>142.8</ele>
        <time>1970-01-01T00:41:54.000Z</time>
      </trkpt>
      <trkpt lat="39.785828" lon="-8.744739">
        <ele>143</ele>
        <time>1970-01-01T00:41:55.000Z</time>
      </trkpt>
      <trkpt lat="39.785865" lon="-8.744706">
        <ele>143.1</ele>
        <time>1970-01-01T00:41:56.000Z</time>
      </trkpt>
      <trkpt lat="39.785901" lon="-8.744672">
        <ele>143.2</ele>
        <time>1970-01-01T00:41:57.000Z</time>
      </trkpt>
      <trkpt lat="39.785935" lon="-8.74464">
        <ele>143.3</ele>
        <time>1970-01-01T00:41:58.000Z</time>
      </trkpt>
      <trkpt lat="39.785968" lon="-8.74461">
        <ele>143.4</ele>
        <time>1970-01-01T00:41:59.000Z</time>
      </trkpt>
      <trkpt lat="39.786001" lon="-8.74458">
        <ele>143.6</ele>
        <time>1970-01-01T00:42:00.000Z</time>
      </trkpt>
      <trkpt lat="39.786035" lon="-8.744552">
        <ele>143.7</ele>
        <time>1970-01-01T00:42:01.000Z</time>
      </trkpt>
      <trkpt lat="39.786068" lon="-8.744523">
        <ele>143.8</ele>
        <time>1970-01-01T00:42:02.000Z</time>
      </trkpt>
      <trkpt lat="39.786099" lon="-8.744494">
        <ele>144</ele>
        <time>1970-01-01T00:42:03.000Z</time>
      </trkpt>
      <trkpt lat="39.786131" lon="-8.744464">
        <ele>144.1</ele>
        <time>1970-01-01T00:42:04.000Z</time>
      </trkpt>
      <trkpt lat="39.786165" lon="-8.744433">
        <ele>144.3</ele>
        <time>1970-01-01T00:42:05.000Z</time>
      </trkpt>
      <trkpt lat="39.786199" lon="-8.744402">
        <ele>144.4</ele>
        <time>1970-01-01T00:42:06.000Z</time>
      </trkpt>
      <trkpt lat="39.786234" lon="-8.74437">
        <ele>144.6</ele>
        <time>1970-01-01T00:42:08.000Z</time>
      </trkpt>
      <trkpt lat="39.786267" lon="-8.744338">
        <ele>144.7</ele>
        <time>1970-01-01T00:42:08.000Z</time>
      </trkpt>
      <trkpt lat="39.7863" lon="-8.744304">
        <ele>144.8</ele>
        <time>1970-01-01T00:42:09.000Z</time>
      </trkpt>
      <trkpt lat="39.786333" lon="-8.74427">
        <ele>145</ele>
        <time>1970-01-01T00:42:11.000Z</time>
      </trkpt>
      <trkpt lat="39.786367" lon="-8.744236">
        <ele>145.1</ele>
        <time>1970-01-01T00:42:11.000Z</time>
      </trkpt>
      <trkpt lat="39.786402" lon="-8.744204">
        <ele>145.3</ele>
        <time>1970-01-01T00:42:12.000Z</time>
      </trkpt>
      <trkpt lat="39.786437" lon="-8.744172">
        <ele>145.4</ele>
        <time>1970-01-01T00:42:13.000Z</time>
      </trkpt>
      <trkpt lat="39.786471" lon="-8.744141">
        <ele>145.5</ele>
        <time>1970-01-01T00:42:14.000Z</time>
      </trkpt>
      <trkpt lat="39.786504" lon="-8.744109">
        <ele>145.7</ele>
        <time>1970-01-01T00:42:15.000Z</time>
      </trkpt>
      <trkpt lat="39.786537" lon="-8.744077">
        <ele>145.8</ele>
        <time>1970-01-01T00:42:16.000Z</time>
      </trkpt>
      <trkpt lat="39.786569" lon="-8.744046">
        <ele>145.9</ele>
        <time>1970-01-01T00:42:17.000Z</time>
      </trkpt>
      <trkpt lat="39.786602" lon="-8.744017">
        <ele>146</ele>
        <time>1970-01-01T00:42:18.000Z</time>
      </trkpt>
      <trkpt lat="39.786636" lon="-8.74399">
        <ele>146.1</ele>
        <time>1970-01-01T00:42:19.000Z</time>
      </trkpt>
      <trkpt lat="39.786671" lon="-8.743964">
        <ele>146.2</ele>
        <time>1970-01-01T00:42:21.000Z</time>
      </trkpt>
      <trkpt lat="39.786706" lon="-8.743938">
        <ele>146.2</ele>
        <time>1970-01-01T00:42:21.000Z</time>
      </trkpt>
      <trkpt lat="39.78674" lon="-8.743911">
        <ele>146.3</ele>
        <time>1970-01-01T00:42:22.000Z</time>
      </trkpt>
      <trkpt lat="39.786773" lon="-8.743884">
        <ele>146.3</ele>
        <time>1970-01-01T00:42:23.000Z</time>
      </trkpt>
      <trkpt lat="39.786806" lon="-8.743855">
        <ele>146.3</ele>
        <time>1970-01-01T00:42:24.000Z</time>
      </trkpt>
      <trkpt lat="39.786839" lon="-8.743826">
        <ele>146.4</ele>
        <time>1970-01-01T00:42:25.000Z</time>
      </trkpt>
      <trkpt lat="39.786873" lon="-8.743797">
        <ele>146.4</ele>
        <time>1970-01-01T00:42:26.000Z</time>
      </trkpt>
      <trkpt lat="39.786908" lon="-8.743769">
        <ele>146.4</ele>
        <time>1970-01-01T00:42:27.000Z</time>
      </trkpt>
      <trkpt lat="39.786945" lon="-8.743743">
        <ele>146.4</ele>
        <time>1970-01-01T00:42:28.000Z</time>
      </trkpt>
      <trkpt lat="39.786984" lon="-8.743717">
        <ele>146.3</ele>
        <time>1970-01-01T00:42:29.000Z</time>
      </trkpt>
      <trkpt lat="39.787026" lon="-8.743688">
        <ele>146.2</ele>
        <time>1970-01-01T00:42:30.000Z</time>
      </trkpt>
      <trkpt lat="39.787072" lon="-8.743658">
        <ele>146</ele>
        <time>1970-01-01T00:42:31.000Z</time>
      </trkpt>
      <trkpt lat="39.787121" lon="-8.743626">
        <ele>145.9</ele>
        <time>1970-01-01T00:42:32.000Z</time>
      </trkpt>
      <trkpt lat="39.787173" lon="-8.743594">
        <ele>145.7</ele>
        <time>1970-01-01T00:42:33.000Z</time>
      </trkpt>
      <trkpt lat="39.787228" lon="-8.74356">
        <ele>145.5</ele>
        <time>1970-01-01T00:42:34.000Z</time>
      </trkpt>
      <trkpt lat="39.787287" lon="-8.743524">
        <ele>145.3</ele>
        <time>1970-01-01T00:42:35.000Z</time>
      </trkpt>
      <trkpt lat="39.787346" lon="-8.743486">
        <ele>145.1</ele>
        <time>1970-01-01T00:42:36.000Z</time>
      </trkpt>
      <trkpt lat="39.787407" lon="-8.743444">
        <ele>144.9</ele>
        <time>1970-01-01T00:42:37.000Z</time>
      </trkpt>
      <trkpt lat="39.787468" lon="-8.743398">
        <ele>144.7</ele>
        <time>1970-01-01T00:42:38.000Z</time>
      </trkpt>
      <trkpt lat="39.78753" lon="-8.743347">
        <ele>144.5</ele>
        <time>1970-01-01T00:42:39.000Z</time>
      </trkpt>
      <trkpt lat="39.787593" lon="-8.743292">
        <ele>144.2</ele>
        <time>1970-01-01T00:42:40.000Z</time>
      </trkpt>
      <trkpt lat="39.787658" lon="-8.743233">
        <ele>143.9</ele>
        <time>1970-01-01T00:42:41.000Z</time>
      </trkpt>
      <trkpt lat="39.787724" lon="-8.74317">
        <ele>143.6</ele>
        <time>1970-01-01T00:42:43.000Z</time>
      </trkpt>
      <trkpt lat="39.78779" lon="-8.743105">
        <ele>143.3</ele>
        <time>1970-01-01T00:42:44.000Z</time>
      </trkpt>
      <trkpt lat="39.787856" lon="-8.743037">
        <ele>143.1</ele>
        <time>1970-01-01T00:42:44.000Z</time>
      </trkpt>
      <trkpt lat="39.787917" lon="-8.742973">
        <ele>143</ele>
        <time>1970-01-01T00:42:46.000Z</time>
      </trkpt>
      <trkpt lat="39.787981" lon="-8.742901">
        <ele>142.9</ele>
        <time>1970-01-01T00:42:46.000Z</time>
      </trkpt>
      <trkpt lat="39.788042" lon="-8.742831">
        <ele>142.9</ele>
        <time>1970-01-01T00:42:48.000Z</time>
      </trkpt>
      <trkpt lat="39.788102" lon="-8.742759">
        <ele>142.8</ele>
        <time>1970-01-01T00:42:48.000Z</time>
      </trkpt>
      <trkpt lat="39.788159" lon="-8.742688">
        <ele>142.7</ele>
        <time>1970-01-01T00:42:49.000Z</time>
      </trkpt>
      <trkpt lat="39.788216" lon="-8.742617">
        <ele>142.7</ele>
        <time>1970-01-01T00:42:50.000Z</time>
      </trkpt>
      <trkpt lat="39.788273" lon="-8.742548">
        <ele>142.7</ele>
        <time>1970-01-01T00:42:51.000Z</time>
      </trkpt>
      <trkpt lat="39.78833" lon="-8.74248">
        <ele>142.7</ele>
        <time>1970-01-01T00:42:52.000Z</time>
      </trkpt>
      <trkpt lat="39.788388" lon="-8.74241">
        <ele>142.8</ele>
        <time>1970-01-01T00:42:54.000Z</time>
      </trkpt>
      <trkpt lat="39.788445" lon="-8.742343">
        <ele>142.9</ele>
        <time>1970-01-01T00:42:54.000Z</time>
      </trkpt>
      <trkpt lat="39.788497" lon="-8.742283">
        <ele>143</ele>
        <time>1970-01-01T00:42:55.000Z</time>
      </trkpt>
      <trkpt lat="39.788546" lon="-8.742224">
        <ele>143</ele>
        <time>1970-01-01T00:42:57.000Z</time>
      </trkpt>
      <trkpt lat="39.788591" lon="-8.742167">
        <ele>143</ele>
        <time>1970-01-01T00:42:58.000Z</time>
      </trkpt>
      <trkpt lat="39.788636" lon="-8.742108">
        <ele>143.1</ele>
        <time>1970-01-01T00:42:59.000Z</time>
      </trkpt>
      <trkpt lat="39.788676" lon="-8.742054">
        <ele>143.1</ele>
        <time>1970-01-01T00:42:59.000Z</time>
      </trkpt>
      <trkpt lat="39.788715" lon="-8.742003">
        <ele>143.1</ele>
        <time>1970-01-01T00:43:00.000Z</time>
      </trkpt>
      <trkpt lat="39.788755" lon="-8.74195">
        <ele>143.2</ele>
        <time>1970-01-01T00:43:01.000Z</time>
      </trkpt>
      <trkpt lat="39.788799" lon="-8.741892">
        <ele>143.2</ele>
        <time>1970-01-01T00:43:02.000Z</time>
      </trkpt>
      <trkpt lat="39.788844" lon="-8.741835">
        <ele>143.2</ele>
        <time>1970-01-01T00:43:03.000Z</time>
      </trkpt>
      <trkpt lat="39.788887" lon="-8.741781">
        <ele>143.3</ele>
        <time>1970-01-01T00:43:04.000Z</time>
      </trkpt>
      <trkpt lat="39.788928" lon="-8.741731">
        <ele>143.3</ele>
        <time>1970-01-01T00:43:05.000Z</time>
      </trkpt>
      <trkpt lat="39.788968" lon="-8.74168">
        <ele>143.4</ele>
        <time>1970-01-01T00:43:06.000Z</time>
      </trkpt>
      <trkpt lat="39.789013" lon="-8.741624">
        <ele>143.5</ele>
        <time>1970-01-01T00:43:08.000Z</time>
      </trkpt>
      <trkpt lat="39.78906" lon="-8.741568">
        <ele>143.5</ele>
        <time>1970-01-01T00:43:09.000Z</time>
      </trkpt>
      <trkpt lat="39.789108" lon="-8.741513">
        <ele>143.7</ele>
        <time>1970-01-01T00:43:09.000Z</time>
      </trkpt>
      <trkpt lat="39.789156" lon="-8.741458">
        <ele>143.9</ele>
        <time>1970-01-01T00:43:10.000Z</time>
      </trkpt>
      <trkpt lat="39.789199" lon="-8.741406">
        <ele>144</ele>
        <time>1970-01-01T00:43:12.000Z</time>
      </trkpt>
      <trkpt lat="39.789241" lon="-8.741351">
        <ele>144.3</ele>
        <time>1970-01-01T00:43:12.000Z</time>
      </trkpt>
      <trkpt lat="39.789279" lon="-8.741291">
        <ele>144.5</ele>
        <time>1970-01-01T00:43:13.000Z</time>
      </trkpt>
      <trkpt lat="39.789313" lon="-8.741232">
        <ele>144.8</ele>
        <time>1970-01-01T00:43:14.000Z</time>
      </trkpt>
      <trkpt lat="39.789344" lon="-8.741178">
        <ele>145.1</ele>
        <time>1970-01-01T00:43:15.000Z</time>
      </trkpt>
      <trkpt lat="39.789374" lon="-8.741125">
        <ele>145.4</ele>
        <time>1970-01-01T00:43:17.000Z</time>
      </trkpt>
      <trkpt lat="39.789403" lon="-8.741072">
        <ele>145.7</ele>
        <time>1970-01-01T00:43:17.000Z</time>
      </trkpt>
      <trkpt lat="39.789431" lon="-8.741018">
        <ele>146</ele>
        <time>1970-01-01T00:43:18.000Z</time>
      </trkpt>
      <trkpt lat="39.789458" lon="-8.740966">
        <ele>146.3</ele>
        <time>1970-01-01T00:43:19.000Z</time>
      </trkpt>
      <trkpt lat="39.789484" lon="-8.740914">
        <ele>146.6</ele>
        <time>1970-01-01T00:43:21.000Z</time>
      </trkpt>
      <trkpt lat="39.789509" lon="-8.740862">
        <ele>146.9</ele>
        <time>1970-01-01T00:43:21.000Z</time>
      </trkpt>
      <trkpt lat="39.789531" lon="-8.740805">
        <ele>147.2</ele>
        <time>1970-01-01T00:43:22.000Z</time>
      </trkpt>
      <trkpt lat="39.789545" lon="-8.740755">
        <ele>147.5</ele>
        <time>1970-01-01T00:43:23.000Z</time>
      </trkpt>
      <trkpt lat="39.789555" lon="-8.740701">
        <ele>147.7</ele>
        <time>1970-01-01T00:43:24.000Z</time>
      </trkpt>
      <trkpt lat="39.789568" lon="-8.740652">
        <ele>147.9</ele>
        <time>1970-01-01T00:43:26.000Z</time>
      </trkpt>
      <trkpt lat="39.789587" lon="-8.740605">
        <ele>148.2</ele>
        <time>1970-01-01T00:43:26.000Z</time>
      </trkpt>
      <trkpt lat="39.789602" lon="-8.740563">
        <ele>148.3</ele>
        <time>1970-01-01T00:43:28.000Z</time>
      </trkpt>
      <trkpt lat="39.789616" lon="-8.740517">
        <ele>148.5</ele>
        <time>1970-01-01T00:43:28.000Z</time>
      </trkpt>
      <trkpt lat="39.789627" lon="-8.740474">
        <ele>148.7</ele>
        <time>1970-01-01T00:43:29.000Z</time>
      </trkpt>
      <trkpt lat="39.789637" lon="-8.740429">
        <ele>148.9</ele>
        <time>1970-01-01T00:43:30.000Z</time>
      </trkpt>
      <trkpt lat="39.789644" lon="-8.740387">
        <ele>149</ele>
        <time>1970-01-01T00:43:31.000Z</time>
      </trkpt>
      <trkpt lat="39.789647" lon="-8.740338">
        <ele>149.2</ele>
        <time>1970-01-01T00:43:32.000Z</time>
      </trkpt>
      <trkpt lat="39.78965" lon="-8.740285">
        <ele>149.3</ele>
        <time>1970-01-01T00:43:33.000Z</time>
      </trkpt>
      <trkpt lat="39.78965" lon="-8.740235">
        <ele>149.5</ele>
        <time>1970-01-01T00:43:34.000Z</time>
      </trkpt>
      <trkpt lat="39.789649" lon="-8.740182">
        <ele>149.7</ele>
        <time>1970-01-01T00:43:35.000Z</time>
      </trkpt>
      <trkpt lat="39.78965" lon="-8.740128">
        <ele>149.8</ele>
        <time>1970-01-01T00:43:36.000Z</time>
      </trkpt>
      <trkpt lat="39.789652" lon="-8.740076">
        <ele>150</ele>
        <time>1970-01-01T00:43:37.000Z</time>
      </trkpt>
      <trkpt lat="39.789654" lon="-8.740025">
        <ele>150.1</ele>
        <time>1970-01-01T00:43:38.000Z</time>
      </trkpt>
      <trkpt lat="39.789655" lon="-8.739976">
        <ele>150.3</ele>
        <time>1970-01-01T00:43:39.000Z</time>
      </trkpt>
      <trkpt lat="39.789656" lon="-8.739927">
        <ele>150.4</ele>
        <time>1970-01-01T00:43:40.000Z</time>
      </trkpt>
      <trkpt lat="39.789659" lon="-8.739877">
        <ele>150.6</ele>
        <time>1970-01-01T00:43:41.000Z</time>
      </trkpt>
      <trkpt lat="39.789661" lon="-8.739829">
        <ele>150.8</ele>
        <time>1970-01-01T00:43:42.000Z</time>
      </trkpt>
      <trkpt lat="39.789665" lon="-8.739778">
        <ele>150.9</ele>
        <time>1970-01-01T00:43:44.000Z</time>
      </trkpt>
      <trkpt lat="39.78967" lon="-8.739728">
        <ele>151.1</ele>
        <time>1970-01-01T00:43:44.000Z</time>
      </trkpt>
      <trkpt lat="39.789678" lon="-8.739678">
        <ele>151.3</ele>
        <time>1970-01-01T00:43:45.000Z</time>
      </trkpt>
      <trkpt lat="39.78969" lon="-8.739629">
        <ele>151.4</ele>
        <time>1970-01-01T00:43:46.000Z</time>
      </trkpt>
      <trkpt lat="39.789702" lon="-8.739582">
        <ele>151.6</ele>
        <time>1970-01-01T00:43:47.000Z</time>
      </trkpt>
      <trkpt lat="39.78972" lon="-8.739534">
        <ele>151.7</ele>
        <time>1970-01-01T00:43:48.000Z</time>
      </trkpt>
      <trkpt lat="39.789742" lon="-8.739489">
        <ele>151.9</ele>
        <time>1970-01-01T00:43:50.000Z</time>
      </trkpt>
      <trkpt lat="39.789765" lon="-8.739452">
        <ele>152</ele>
        <time>1970-01-01T00:43:50.000Z</time>
      </trkpt>
      <trkpt lat="39.789794" lon="-8.739419">
        <ele>152</ele>
        <time>1970-01-01T00:43:51.000Z</time>
      </trkpt>
      <trkpt lat="39.789826" lon="-8.739392">
        <ele>152</ele>
        <time>1970-01-01T00:43:52.000Z</time>
      </trkpt>
      <trkpt lat="39.789861" lon="-8.739364">
        <ele>152</ele>
        <time>1970-01-01T00:43:54.000Z</time>
      </trkpt>
      <trkpt lat="39.789896" lon="-8.739337">
        <ele>152</ele>
        <time>1970-01-01T00:43:54.000Z</time>
      </trkpt>
      <trkpt lat="39.789926" lon="-8.739311">
        <ele>151.9</ele>
        <time>1970-01-01T00:43:55.000Z</time>
      </trkpt>
      <trkpt lat="39.789959" lon="-8.739283">
        <ele>151.8</ele>
        <time>1970-01-01T00:43:56.000Z</time>
      </trkpt>
      <trkpt lat="39.789996" lon="-8.739254">
        <ele>151.7</ele>
        <time>1970-01-01T00:43:58.000Z</time>
      </trkpt>
      <trkpt lat="39.790034" lon="-8.739225">
        <ele>151.5</ele>
        <time>1970-01-01T00:43:58.000Z</time>
      </trkpt>
      <trkpt lat="39.790074" lon="-8.739196">
        <ele>151.4</ele>
        <time>1970-01-01T00:44:00.000Z</time>
      </trkpt>
      <trkpt lat="39.790117" lon="-8.739168">
        <ele>151.2</ele>
        <time>1970-01-01T00:44:00.000Z</time>
      </trkpt>
      <trkpt lat="39.790161" lon="-8.739141">
        <ele>151</ele>
        <time>1970-01-01T00:44:01.000Z</time>
      </trkpt>
      <trkpt lat="39.790208" lon="-8.739115">
        <ele>150.8</ele>
        <time>1970-01-01T00:44:02.000Z</time>
      </trkpt>
      <trkpt lat="39.790255" lon="-8.739089">
        <ele>150.6</ele>
        <time>1970-01-01T00:44:03.000Z</time>
      </trkpt>
      <trkpt lat="39.790301" lon="-8.739063">
        <ele>150.4</ele>
        <time>1970-01-01T00:44:04.000Z</time>
      </trkpt>
      <trkpt lat="39.79035" lon="-8.739036">
        <ele>150.2</ele>
        <time>1970-01-01T00:44:05.000Z</time>
      </trkpt>
      <trkpt lat="39.790401" lon="-8.739008">
        <ele>150</ele>
        <time>1970-01-01T00:44:06.000Z</time>
      </trkpt>
      <trkpt lat="39.790453" lon="-8.738977">
        <ele>149.8</ele>
        <time>1970-01-01T00:44:08.000Z</time>
      </trkpt>
      <trkpt lat="39.79051" lon="-8.738946">
        <ele>149.6</ele>
        <time>1970-01-01T00:44:08.000Z</time>
      </trkpt>
      <trkpt lat="39.790567" lon="-8.738916">
        <ele>149.4</ele>
        <time>1970-01-01T00:44:09.000Z</time>
      </trkpt>
      <trkpt lat="39.790619" lon="-8.738889">
        <ele>149.2</ele>
        <time>1970-01-01T00:44:10.000Z</time>
      </trkpt>
      <trkpt lat="39.790672" lon="-8.73886">
        <ele>149</ele>
        <time>1970-01-01T00:44:11.000Z</time>
      </trkpt>
      <trkpt lat="39.790726" lon="-8.73883">
        <ele>148.8</ele>
        <time>1970-01-01T00:44:12.000Z</time>
      </trkpt>
      <trkpt lat="39.790781" lon="-8.738798">
        <ele>148.7</ele>
        <time>1970-01-01T00:44:13.000Z</time>
      </trkpt>
      <trkpt lat="39.790839" lon="-8.738759">
        <ele>148.5</ele>
        <time>1970-01-01T00:44:14.000Z</time>
      </trkpt>
      <trkpt lat="39.7909" lon="-8.738716">
        <ele>148.4</ele>
        <time>1970-01-01T00:44:15.000Z</time>
      </trkpt>
      <trkpt lat="39.790961" lon="-8.73867">
        <ele>148.3</ele>
        <time>1970-01-01T00:44:16.000Z</time>
      </trkpt>
      <trkpt lat="39.791022" lon="-8.738621">
        <ele>148.3</ele>
        <time>1970-01-01T00:44:17.000Z</time>
      </trkpt>
      <trkpt lat="39.791088" lon="-8.73857">
        <ele>148.2</ele>
        <time>1970-01-01T00:44:19.000Z</time>
      </trkpt>
      <trkpt lat="39.791146" lon="-8.738523">
        <ele>148.1</ele>
        <time>1970-01-01T00:44:20.000Z</time>
      </trkpt>
      <trkpt lat="39.791203" lon="-8.738475">
        <ele>148</ele>
        <time>1970-01-01T00:44:20.000Z</time>
      </trkpt>
      <trkpt lat="39.791254" lon="-8.73843">
        <ele>148</ele>
        <time>1970-01-01T00:44:21.000Z</time>
      </trkpt>
      <trkpt lat="39.791309" lon="-8.738379">
        <ele>147.9</ele>
        <time>1970-01-01T00:44:22.000Z</time>
      </trkpt>
      <trkpt lat="39.791361" lon="-8.738329">
        <ele>147.8</ele>
        <time>1970-01-01T00:44:23.000Z</time>
      </trkpt>
      <trkpt lat="39.791413" lon="-8.738277">
        <ele>147.8</ele>
        <time>1970-01-01T00:44:24.000Z</time>
      </trkpt>
      <trkpt lat="39.791463" lon="-8.738227">
        <ele>147.8</ele>
        <time>1970-01-01T00:44:25.000Z</time>
      </trkpt>
      <trkpt lat="39.791514" lon="-8.738178">
        <ele>147.8</ele>
        <time>1970-01-01T00:44:26.000Z</time>
      </trkpt>
      <trkpt lat="39.791565" lon="-8.738133">
        <ele>147.7</ele>
        <time>1970-01-01T00:44:27.000Z</time>
      </trkpt>
      <trkpt lat="39.791613" lon="-8.738089">
        <ele>147.7</ele>
        <time>1970-01-01T00:44:28.000Z</time>
      </trkpt>
      <trkpt lat="39.791661" lon="-8.738047">
        <ele>147.7</ele>
        <time>1970-01-01T00:44:29.000Z</time>
      </trkpt>
      <trkpt lat="39.791709" lon="-8.738008">
        <ele>147.6</ele>
        <time>1970-01-01T00:44:30.000Z</time>
      </trkpt>
      <trkpt lat="39.791759" lon="-8.737971">
        <ele>147.5</ele>
        <time>1970-01-01T00:44:31.000Z</time>
      </trkpt>
      <trkpt lat="39.791813" lon="-8.737935">
        <ele>147.5</ele>
        <time>1970-01-01T00:44:33.000Z</time>
      </trkpt>
      <trkpt lat="39.791868" lon="-8.7379">
        <ele>147.4</ele>
        <time>1970-01-01T00:44:33.000Z</time>
      </trkpt>
      <trkpt lat="39.791922" lon="-8.737862">
        <ele>147.3</ele>
        <time>1970-01-01T00:44:34.000Z</time>
      </trkpt>
      <trkpt lat="39.791976" lon="-8.737823">
        <ele>147.2</ele>
        <time>1970-01-01T00:44:35.000Z</time>
      </trkpt>
      <trkpt lat="39.792027" lon="-8.737789">
        <ele>147.2</ele>
        <time>1970-01-01T00:44:36.000Z</time>
      </trkpt>
      <trkpt lat="39.792083" lon="-8.737754">
        <ele>147.1</ele>
        <time>1970-01-01T00:44:37.000Z</time>
      </trkpt>
      <trkpt lat="39.79214" lon="-8.737721">
        <ele>147</ele>
        <time>1970-01-01T00:44:38.000Z</time>
      </trkpt>
      <trkpt lat="39.792194" lon="-8.737693">
        <ele>147</ele>
        <time>1970-01-01T00:44:39.000Z</time>
      </trkpt>
      <trkpt lat="39.79225" lon="-8.737664">
        <ele>146.9</ele>
        <time>1970-01-01T00:44:40.000Z</time>
      </trkpt>
      <trkpt lat="39.792308" lon="-8.737636">
        <ele>146.8</ele>
        <time>1970-01-01T00:44:41.000Z</time>
      </trkpt>
      <trkpt lat="39.792367" lon="-8.73761">
        <ele>146.7</ele>
        <time>1970-01-01T00:44:42.000Z</time>
      </trkpt>
      <trkpt lat="39.792429" lon="-8.737582">
        <ele>146.6</ele>
        <time>1970-01-01T00:44:43.000Z</time>
      </trkpt>
      <trkpt lat="39.79249" lon="-8.737553">
        <ele>146.5</ele>
        <time>1970-01-01T00:44:44.000Z</time>
      </trkpt>
      <trkpt lat="39.792545" lon="-8.737526">
        <ele>146.5</ele>
        <time>1970-01-01T00:44:45.000Z</time>
      </trkpt>
      <trkpt lat="39.792599" lon="-8.737497">
        <ele>146.4</ele>
        <time>1970-01-01T00:44:46.000Z</time>
      </trkpt>
      <trkpt lat="39.792653" lon="-8.737466">
        <ele>146.3</ele>
        <time>1970-01-01T00:44:47.000Z</time>
      </trkpt>
      <trkpt lat="39.792712" lon="-8.737432">
        <ele>146.2</ele>
        <time>1970-01-01T00:44:48.000Z</time>
      </trkpt>
      <trkpt lat="39.79277" lon="-8.737397">
        <ele>146.2</ele>
        <time>1970-01-01T00:44:49.000Z</time>
      </trkpt>
      <trkpt lat="39.792827" lon="-8.737362">
        <ele>146.2</ele>
        <time>1970-01-01T00:44:51.000Z</time>
      </trkpt>
      <trkpt lat="39.792904" lon="-8.737316">
        <ele>146.2</ele>
        <time>1970-01-01T00:44:52.000Z</time>
      </trkpt>
      <trkpt lat="39.792972" lon="-8.737269">
        <ele>146.2</ele>
        <time>1970-01-01T00:44:53.000Z</time>
      </trkpt>
      <trkpt lat="39.793035" lon="-8.737219">
        <ele>146.2</ele>
        <time>1970-01-01T00:44:54.000Z</time>
      </trkpt>
      <trkpt lat="39.793092" lon="-8.737165">
        <ele>146.2</ele>
        <time>1970-01-01T00:44:55.000Z</time>
      </trkpt>
      <trkpt lat="39.793144" lon="-8.737107">
        <ele>146.3</ele>
        <time>1970-01-01T00:44:56.000Z</time>
      </trkpt>
      <trkpt lat="39.793188" lon="-8.73705">
        <ele>146.4</ele>
        <time>1970-01-01T00:44:57.000Z</time>
      </trkpt>
      <trkpt lat="39.793234" lon="-8.736989">
        <ele>146.6</ele>
        <time>1970-01-01T00:44:58.000Z</time>
      </trkpt>
      <trkpt lat="39.793275" lon="-8.736929">
        <ele>146.7</ele>
        <time>1970-01-01T00:44:59.000Z</time>
      </trkpt>
      <trkpt lat="39.793309" lon="-8.736869">
        <ele>146.9</ele>
        <time>1970-01-01T00:45:00.000Z</time>
      </trkpt>
      <trkpt lat="39.793339" lon="-8.736811">
        <ele>147.1</ele>
        <time>1970-01-01T00:45:01.000Z</time>
      </trkpt>
      <trkpt lat="39.793363" lon="-8.736753">
        <ele>147.3</ele>
        <time>1970-01-01T00:45:02.000Z</time>
      </trkpt>
      <trkpt lat="39.793383" lon="-8.736697">
        <ele>147.5</ele>
        <time>1970-01-01T00:45:04.000Z</time>
      </trkpt>
      <trkpt lat="39.793399" lon="-8.736644">
        <ele>147.7</ele>
        <time>1970-01-01T00:45:04.000Z</time>
      </trkpt>
      <trkpt lat="39.793412" lon="-8.736594">
        <ele>147.8</ele>
        <time>1970-01-01T00:45:05.000Z</time>
      </trkpt>
      <trkpt lat="39.793425" lon="-8.736547">
        <ele>148</ele>
        <time>1970-01-01T00:45:07.000Z</time>
      </trkpt>
      <trkpt lat="39.793438" lon="-8.736498">
        <ele>148.1</ele>
        <time>1970-01-01T00:45:07.000Z</time>
      </trkpt>
      <trkpt lat="39.793453" lon="-8.736446">
        <ele>148.3</ele>
        <time>1970-01-01T00:45:09.000Z</time>
      </trkpt>
      <trkpt lat="39.793467" lon="-8.736396">
        <ele>148.4</ele>
        <time>1970-01-01T00:45:09.000Z</time>
      </trkpt>
      <trkpt lat="39.793482" lon="-8.736345">
        <ele>148.6</ele>
        <time>1970-01-01T00:45:10.000Z</time>
      </trkpt>
      <trkpt lat="39.793497" lon="-8.736294">
        <ele>148.8</ele>
        <time>1970-01-01T00:45:11.000Z</time>
      </trkpt>
      <trkpt lat="39.793512" lon="-8.736242">
        <ele>149</ele>
        <time>1970-01-01T00:45:13.000Z</time>
      </trkpt>
      <trkpt lat="39.793526" lon="-8.736195">
        <ele>149.1</ele>
        <time>1970-01-01T00:45:13.000Z</time>
      </trkpt>
      <trkpt lat="39.793537" lon="-8.736148">
        <ele>149.3</ele>
        <time>1970-01-01T00:45:14.000Z</time>
      </trkpt>
      <trkpt lat="39.793548" lon="-8.7361">
        <ele>149.5</ele>
        <time>1970-01-01T00:45:15.000Z</time>
      </trkpt>
      <trkpt lat="39.793559" lon="-8.736053">
        <ele>149.7</ele>
        <time>1970-01-01T00:45:16.000Z</time>
      </trkpt>
      <trkpt lat="39.79357" lon="-8.736004">
        <ele>149.9</ele>
        <time>1970-01-01T00:45:17.000Z</time>
      </trkpt>
      <trkpt lat="39.793582" lon="-8.735958">
        <ele>150</ele>
        <time>1970-01-01T00:45:18.000Z</time>
      </trkpt>
      <trkpt lat="39.793592" lon="-8.735913">
        <ele>150.2</ele>
        <time>1970-01-01T00:45:19.000Z</time>
      </trkpt>
      <trkpt lat="39.793604" lon="-8.73587">
        <ele>150.4</ele>
        <time>1970-01-01T00:45:20.000Z</time>
      </trkpt>
      <trkpt lat="39.793616" lon="-8.735829">
        <ele>150.5</ele>
        <time>1970-01-01T00:45:21.000Z</time>
      </trkpt>
      <trkpt lat="39.793632" lon="-8.735791">
        <ele>150.7</ele>
        <time>1970-01-01T00:45:22.000Z</time>
      </trkpt>
      <trkpt lat="39.793652" lon="-8.735755">
        <ele>150.8</ele>
        <time>1970-01-01T00:45:23.000Z</time>
      </trkpt>
      <trkpt lat="39.793674" lon="-8.735723">
        <ele>150.9</ele>
        <time>1970-01-01T00:45:24.000Z</time>
      </trkpt>
      <trkpt lat="39.793705" lon="-8.735686">
        <ele>151.1</ele>
        <time>1970-01-01T00:45:26.000Z</time>
      </trkpt>
      <trkpt lat="39.793716" lon="-8.735675">
        <ele>151.1</ele>
        <time>1970-01-01T00:45:26.000Z</time>
      </trkpt>
      <trkpt lat="39.793739" lon="-8.735655">
        <ele>151.2</ele>
        <time>1970-01-01T00:45:27.000Z</time>
      </trkpt>
      <trkpt lat="39.793759" lon="-8.735637">
        <ele>151.5</ele>
        <time>1970-01-01T00:45:28.000Z</time>
      </trkpt>
      <trkpt lat="39.793774" lon="-8.73562">
        <ele>151.5</ele>
        <time>1970-01-01T00:45:29.000Z</time>
      </trkpt>
      <trkpt lat="39.793788" lon="-8.735602">
        <ele>151.6</ele>
        <time>1970-01-01T00:45:30.000Z</time>
      </trkpt>
      <trkpt lat="39.793801" lon="-8.735579">
        <ele>151.6</ele>
        <time>1970-01-01T00:45:31.000Z</time>
      </trkpt>
      <trkpt lat="39.793817" lon="-8.735554">
        <ele>151.6</ele>
        <time>1970-01-01T00:45:32.000Z</time>
      </trkpt>
      <trkpt lat="39.793838" lon="-8.735532">
        <ele>151.6</ele>
        <time>1970-01-01T00:45:33.000Z</time>
      </trkpt>
      <trkpt lat="39.793864" lon="-8.73551">
        <ele>151.7</ele>
        <time>1970-01-01T00:45:34.000Z</time>
      </trkpt>
      <trkpt lat="39.793892" lon="-8.73549">
        <ele>151.7</ele>
        <time>1970-01-01T00:45:35.000Z</time>
      </trkpt>
      <trkpt lat="39.793922" lon="-8.73547">
        <ele>151.8</ele>
        <time>1970-01-01T00:45:36.000Z</time>
      </trkpt>
      <trkpt lat="39.793953" lon="-8.73545">
        <ele>151.8</ele>
        <time>1970-01-01T00:45:37.000Z</time>
      </trkpt>
      <trkpt lat="39.793981" lon="-8.735429">
        <ele>151.9</ele>
        <time>1970-01-01T00:45:38.000Z</time>
      </trkpt>
      <trkpt lat="39.794007" lon="-8.735407">
        <ele>152</ele>
        <time>1970-01-01T00:45:39.000Z</time>
      </trkpt>
      <trkpt lat="39.794031" lon="-8.735383">
        <ele>152.1</ele>
        <time>1970-01-01T00:45:40.000Z</time>
      </trkpt>
      <trkpt lat="39.794055" lon="-8.735361">
        <ele>152.1</ele>
        <time>1970-01-01T00:45:41.000Z</time>
      </trkpt>
      <trkpt lat="39.794079" lon="-8.735341">
        <ele>152.2</ele>
        <time>1970-01-01T00:45:42.000Z</time>
      </trkpt>
      <trkpt lat="39.794104" lon="-8.735322">
        <ele>152.3</ele>
        <time>1970-01-01T00:45:43.000Z</time>
      </trkpt>
      <trkpt lat="39.794129" lon="-8.735302">
        <ele>152.4</ele>
        <time>1970-01-01T00:45:44.000Z</time>
      </trkpt>
      <trkpt lat="39.794155" lon="-8.73528">
        <ele>152.5</ele>
        <time>1970-01-01T00:45:45.000Z</time>
      </trkpt>
      <trkpt lat="39.794181" lon="-8.735256">
        <ele>152.7</ele>
        <time>1970-01-01T00:45:46.000Z</time>
      </trkpt>
      <trkpt lat="39.794205" lon="-8.735232">
        <ele>152.8</ele>
        <time>1970-01-01T00:45:47.000Z</time>
      </trkpt>
      <trkpt lat="39.79423" lon="-8.735206">
        <ele>152.9</ele>
        <time>1970-01-01T00:45:48.000Z</time>
      </trkpt>
      <trkpt lat="39.794255" lon="-8.735181">
        <ele>153</ele>
        <time>1970-01-01T00:45:49.000Z</time>
      </trkpt>
      <trkpt lat="39.794293" lon="-8.735149">
        <ele>153.2</ele>
        <time>1970-01-01T00:45:51.000Z</time>
      </trkpt>
      <trkpt lat="39.794305" lon="-8.73514">
        <ele>153.3</ele>
        <time>1970-01-01T00:45:51.000Z</time>
      </trkpt>
      <trkpt lat="39.794332" lon="-8.73512">
        <ele>153.4</ele>
        <time>1970-01-01T00:45:52.000Z</time>
      </trkpt>
      <trkpt lat="39.794362" lon="-8.735102">
        <ele>153.5</ele>
        <time>1970-01-01T00:45:53.000Z</time>
      </trkpt>
      <trkpt lat="39.794392" lon="-8.735088">
        <ele>153.7</ele>
        <time>1970-01-01T00:45:54.000Z</time>
      </trkpt>
      <trkpt lat="39.794428" lon="-8.735077">
        <ele>153.8</ele>
        <time>1970-01-01T00:45:55.000Z</time>
      </trkpt>
      <trkpt lat="39.794465" lon="-8.735069">
        <ele>154</ele>
        <time>1970-01-01T00:45:56.000Z</time>
      </trkpt>
      <trkpt lat="39.794502" lon="-8.735065">
        <ele>154.1</ele>
        <time>1970-01-01T00:45:58.000Z</time>
      </trkpt>
      <trkpt lat="39.794542" lon="-8.735064">
        <ele>154.3</ele>
        <time>1970-01-01T00:45:58.000Z</time>
      </trkpt>
      <trkpt lat="39.794585" lon="-8.735068">
        <ele>154.5</ele>
        <time>1970-01-01T00:45:59.000Z</time>
      </trkpt>
      <trkpt lat="39.794626" lon="-8.735076">
        <ele>154.7</ele>
        <time>1970-01-01T00:46:00.000Z</time>
      </trkpt>
      <trkpt lat="39.794665" lon="-8.735088">
        <ele>154.8</ele>
        <time>1970-01-01T00:46:01.000Z</time>
      </trkpt>
      <trkpt lat="39.794704" lon="-8.735106">
        <ele>155</ele>
        <time>1970-01-01T00:46:02.000Z</time>
      </trkpt>
      <trkpt lat="39.794741" lon="-8.735127">
        <ele>155.1</ele>
        <time>1970-01-01T00:46:03.000Z</time>
      </trkpt>
      <trkpt lat="39.794779" lon="-8.735154">
        <ele>155.3</ele>
        <time>1970-01-01T00:46:04.000Z</time>
      </trkpt>
      <trkpt lat="39.794814" lon="-8.735182">
        <ele>155.5</ele>
        <time>1970-01-01T00:46:05.000Z</time>
      </trkpt>
      <trkpt lat="39.794849" lon="-8.73521">
        <ele>155.6</ele>
        <time>1970-01-01T00:46:06.000Z</time>
      </trkpt>
      <trkpt lat="39.794883" lon="-8.735235">
        <ele>155.8</ele>
        <time>1970-01-01T00:46:07.000Z</time>
      </trkpt>
      <trkpt lat="39.794919" lon="-8.735262">
        <ele>156</ele>
        <time>1970-01-01T00:46:08.000Z</time>
      </trkpt>
      <trkpt lat="39.794956" lon="-8.735284">
        <ele>156.1</ele>
        <time>1970-01-01T00:46:10.000Z</time>
      </trkpt>
      <trkpt lat="39.794995" lon="-8.735309">
        <ele>156.4</ele>
        <time>1970-01-01T00:46:11.000Z</time>
      </trkpt>
      <trkpt lat="39.795034" lon="-8.735331">
        <ele>156.6</ele>
        <time>1970-01-01T00:46:11.000Z</time>
      </trkpt>
      <trkpt lat="39.795068" lon="-8.735349">
        <ele>156.8</ele>
        <time>1970-01-01T00:46:12.000Z</time>
      </trkpt>
      <trkpt lat="39.795101" lon="-8.735367">
        <ele>157</ele>
        <time>1970-01-01T00:46:13.000Z</time>
      </trkpt>
      <trkpt lat="39.795129" lon="-8.735386">
        <ele>157.3</ele>
        <time>1970-01-01T00:46:14.000Z</time>
      </trkpt>
      <trkpt lat="39.795164" lon="-8.735409">
        <ele>157.5</ele>
        <time>1970-01-01T00:46:16.000Z</time>
      </trkpt>
      <trkpt lat="39.795175" lon="-8.735417">
        <ele>157.6</ele>
        <time>1970-01-01T00:46:16.000Z</time>
      </trkpt>
      <trkpt lat="39.795201" lon="-8.73543">
        <ele>157.9</ele>
        <time>1970-01-01T00:46:17.000Z</time>
      </trkpt>
      <trkpt lat="39.795229" lon="-8.735445">
        <ele>158.1</ele>
        <time>1970-01-01T00:46:18.000Z</time>
      </trkpt>
      <trkpt lat="39.795255" lon="-8.735461">
        <ele>158.4</ele>
        <time>1970-01-01T00:46:19.000Z</time>
      </trkpt>
      <trkpt lat="39.795279" lon="-8.735474">
        <ele>158.6</ele>
        <time>1970-01-01T00:46:20.000Z</time>
      </trkpt>
      <trkpt lat="39.795305" lon="-8.735485">
        <ele>158.8</ele>
        <time>1970-01-01T00:46:21.000Z</time>
      </trkpt>
      <trkpt lat="39.795329" lon="-8.7355">
        <ele>159</ele>
        <time>1970-01-01T00:46:22.000Z</time>
      </trkpt>
      <trkpt lat="39.795352" lon="-8.735515">
        <ele>159.3</ele>
        <time>1970-01-01T00:46:24.000Z</time>
      </trkpt>
      <trkpt lat="39.795375" lon="-8.735527">
        <ele>159.5</ele>
        <time>1970-01-01T00:46:25.000Z</time>
      </trkpt>
      <trkpt lat="39.795396" lon="-8.735538">
        <ele>159.7</ele>
        <time>1970-01-01T00:46:25.000Z</time>
      </trkpt>
      <trkpt lat="39.795415" lon="-8.735547">
        <ele>159.9</ele>
        <time>1970-01-01T00:46:26.000Z</time>
      </trkpt>
      <trkpt lat="39.795434" lon="-8.735557">
        <ele>160.1</ele>
        <time>1970-01-01T00:46:27.000Z</time>
      </trkpt>
      <trkpt lat="39.795472" lon="-8.735578">
        <ele>160.5</ele>
        <time>1970-01-01T00:46:29.000Z</time>
      </trkpt>
      <trkpt lat="39.795477" lon="-8.735581">
        <ele>160.6</ele>
        <time>1970-01-01T00:46:29.000Z</time>
      </trkpt>
      <trkpt lat="39.795501" lon="-8.735593">
        <ele>160.8</ele>
        <time>1970-01-01T00:46:30.000Z</time>
      </trkpt>
      <trkpt lat="39.795524" lon="-8.735603">
        <ele>161</ele>
        <time>1970-01-01T00:46:31.000Z</time>
      </trkpt>
      <trkpt lat="39.795544" lon="-8.735612">
        <ele>161.2</ele>
        <time>1970-01-01T00:46:32.000Z</time>
      </trkpt>
      <trkpt lat="39.795565" lon="-8.73562">
        <ele>161.4</ele>
        <time>1970-01-01T00:46:33.000Z</time>
      </trkpt>
      <trkpt lat="39.795586" lon="-8.735626">
        <ele>161.6</ele>
        <time>1970-01-01T00:46:34.000Z</time>
      </trkpt>
      <trkpt lat="39.795606" lon="-8.73563">
        <ele>161.8</ele>
        <time>1970-01-01T00:46:35.000Z</time>
      </trkpt>
      <trkpt lat="39.795624" lon="-8.735632">
        <ele>162</ele>
        <time>1970-01-01T00:46:36.000Z</time>
      </trkpt>
      <trkpt lat="39.79564" lon="-8.73563">
        <ele>162.1</ele>
        <time>1970-01-01T00:46:37.000Z</time>
      </trkpt>
      <trkpt lat="39.795657" lon="-8.735628">
        <ele>162.3</ele>
        <time>1970-01-01T00:46:38.000Z</time>
      </trkpt>
      <trkpt lat="39.795676" lon="-8.735624">
        <ele>162.5</ele>
        <time>1970-01-01T00:46:39.000Z</time>
      </trkpt>
      <trkpt lat="39.795695" lon="-8.735621">
        <ele>162.6</ele>
        <time>1970-01-01T00:46:40.000Z</time>
      </trkpt>
      <trkpt lat="39.795711" lon="-8.735622">
        <ele>162.8</ele>
        <time>1970-01-01T00:46:41.000Z</time>
      </trkpt>
      <trkpt lat="39.795729" lon="-8.735624">
        <ele>162.9</ele>
        <time>1970-01-01T00:46:42.000Z</time>
      </trkpt>
      <trkpt lat="39.795747" lon="-8.735626">
        <ele>163.1</ele>
        <time>1970-01-01T00:46:43.000Z</time>
      </trkpt>
      <trkpt lat="39.795768" lon="-8.735627">
        <ele>163.3</ele>
        <time>1970-01-01T00:46:44.000Z</time>
      </trkpt>
      <trkpt lat="39.795788" lon="-8.735628">
        <ele>163.4</ele>
        <time>1970-01-01T00:46:45.000Z</time>
      </trkpt>
      <trkpt lat="39.795817" lon="-8.735631">
        <ele>163.7</ele>
        <time>1970-01-01T00:46:46.000Z</time>
      </trkpt>
      <trkpt lat="39.795838" lon="-8.735632">
        <ele>163.9</ele>
        <time>1970-01-01T00:46:47.000Z</time>
      </trkpt>
      <trkpt lat="39.795848" lon="-8.735632">
        <ele>163.9</ele>
        <time>1970-01-01T00:46:48.000Z</time>
      </trkpt>
      <trkpt lat="39.795858" lon="-8.735633">
        <ele>164</ele>
        <time>1970-01-01T00:46:49.000Z</time>
      </trkpt>
      <trkpt lat="39.795867" lon="-8.735634">
        <ele>164.1</ele>
        <time>1970-01-01T00:46:50.000Z</time>
      </trkpt>
      <trkpt lat="39.795877" lon="-8.735634">
        <ele>164.2</ele>
        <time>1970-01-01T00:46:52.000Z</time>
      </trkpt>
      <trkpt lat="39.795887" lon="-8.735635">
        <ele>164.3</ele>
        <time>1970-01-01T00:46:52.000Z</time>
      </trkpt>
      <trkpt lat="39.795911" lon="-8.735643">
        <ele>164.5</ele>
        <time>1970-01-01T00:46:53.000Z</time>
      </trkpt>
      <trkpt lat="39.795932" lon="-8.735653">
        <ele>164.7</ele>
        <time>1970-01-01T00:46:54.000Z</time>
      </trkpt>
      <trkpt lat="39.795942" lon="-8.735657">
        <ele>164.8</ele>
        <time>1970-01-01T00:46:55.000Z</time>
      </trkpt>
      <trkpt lat="39.795951" lon="-8.735662">
        <ele>164.9</ele>
        <time>1970-01-01T00:46:57.000Z</time>
      </trkpt>
      <trkpt lat="39.79596" lon="-8.735666">
        <ele>165</ele>
        <time>1970-01-01T00:46:57.000Z</time>
      </trkpt>
      <trkpt lat="39.79598" lon="-8.735674">
        <ele>165.2</ele>
        <time>1970-01-01T00:46:58.000Z</time>
      </trkpt>
      <trkpt lat="39.796002" lon="-8.735684">
        <ele>165.4</ele>
        <time>1970-01-01T00:46:59.000Z</time>
      </trkpt>
      <trkpt lat="39.796023" lon="-8.735693">
        <ele>165.6</ele>
        <time>1970-01-01T00:47:00.000Z</time>
      </trkpt>
      <trkpt lat="39.796042" lon="-8.735702">
        <ele>165.8</ele>
        <time>1970-01-01T00:47:01.000Z</time>
      </trkpt>
      <trkpt lat="39.796057" lon="-8.735709">
        <ele>165.9</ele>
        <time>1970-01-01T00:47:02.000Z</time>
      </trkpt>
      <trkpt lat="39.796072" lon="-8.735714">
        <ele>166.1</ele>
        <time>1970-01-01T00:47:03.000Z</time>
      </trkpt>
      <trkpt lat="39.796084" lon="-8.735718">
        <ele>166.2</ele>
        <time>1970-01-01T00:47:04.000Z</time>
      </trkpt>
      <trkpt lat="39.796099" lon="-8.73572">
        <ele>166.4</ele>
        <time>1970-01-01T00:47:05.000Z</time>
      </trkpt>
      <trkpt lat="39.796116" lon="-8.735723">
        <ele>166.6</ele>
        <time>1970-01-01T00:47:06.000Z</time>
      </trkpt>
      <trkpt lat="39.796136" lon="-8.735727">
        <ele>166.8</ele>
        <time>1970-01-01T00:47:07.000Z</time>
      </trkpt>
      <trkpt lat="39.79617" lon="-8.735735">
        <ele>167.1</ele>
        <time>1970-01-01T00:47:09.000Z</time>
      </trkpt>
      <trkpt lat="39.796174" lon="-8.735737">
        <ele>167.2</ele>
        <time>1970-01-01T00:47:09.000Z</time>
      </trkpt>
      <trkpt lat="39.796193" lon="-8.735743">
        <ele>167.4</ele>
        <time>1970-01-01T00:47:10.000Z</time>
      </trkpt>
      <trkpt lat="39.796213" lon="-8.735749">
        <ele>167.6</ele>
        <time>1970-01-01T00:47:11.000Z</time>
      </trkpt>
      <trkpt lat="39.796233" lon="-8.735758">
        <ele>167.8</ele>
        <time>1970-01-01T00:47:12.000Z</time>
      </trkpt>
      <trkpt lat="39.796256" lon="-8.73577">
        <ele>168.1</ele>
        <time>1970-01-01T00:47:13.000Z</time>
      </trkpt>
      <trkpt lat="39.79628" lon="-8.735782">
        <ele>168.3</ele>
        <time>1970-01-01T00:47:14.000Z</time>
      </trkpt>
      <trkpt lat="39.796301" lon="-8.73579">
        <ele>168.5</ele>
        <time>1970-01-01T00:47:16.000Z</time>
      </trkpt>
      <trkpt lat="39.796321" lon="-8.735795">
        <ele>168.7</ele>
        <time>1970-01-01T00:47:17.000Z</time>
      </trkpt>
      <trkpt lat="39.79634" lon="-8.735797">
        <ele>168.9</ele>
        <time>1970-01-01T00:47:18.000Z</time>
      </trkpt>
      <trkpt lat="39.796356" lon="-8.735799">
        <ele>169</ele>
        <time>1970-01-01T00:47:18.000Z</time>
      </trkpt>
      <trkpt lat="39.796374" lon="-8.735799">
        <ele>169.2</ele>
        <time>1970-01-01T00:47:19.000Z</time>
      </trkpt>
      <trkpt lat="39.796394" lon="-8.735799">
        <ele>169.3</ele>
        <time>1970-01-01T00:47:20.000Z</time>
      </trkpt>
      <trkpt lat="39.796416" lon="-8.735798">
        <ele>169.5</ele>
        <time>1970-01-01T00:47:21.000Z</time>
      </trkpt>
      <trkpt lat="39.796439" lon="-8.735797">
        <ele>169.6</ele>
        <time>1970-01-01T00:47:22.000Z</time>
      </trkpt>
      <trkpt lat="39.796461" lon="-8.735793">
        <ele>169.8</ele>
        <time>1970-01-01T00:47:23.000Z</time>
      </trkpt>
      <trkpt lat="39.796482" lon="-8.73579">
        <ele>169.9</ele>
        <time>1970-01-01T00:47:25.000Z</time>
      </trkpt>
      <trkpt lat="39.796503" lon="-8.735786">
        <ele>170</ele>
        <time>1970-01-01T00:47:26.000Z</time>
      </trkpt>
      <trkpt lat="39.796524" lon="-8.735782">
        <ele>170.1</ele>
        <time>1970-01-01T00:47:26.000Z</time>
      </trkpt>
      <trkpt lat="39.796562" lon="-8.735778">
        <ele>170.3</ele>
        <time>1970-01-01T00:47:28.000Z</time>
      </trkpt>
      <trkpt lat="39.796567" lon="-8.735777">
        <ele>170.4</ele>
        <time>1970-01-01T00:47:28.000Z</time>
      </trkpt>
      <trkpt lat="39.796596" lon="-8.735776">
        <ele>170.5</ele>
        <time>1970-01-01T00:47:29.000Z</time>
      </trkpt>
      <trkpt lat="39.796626" lon="-8.735775">
        <ele>170.7</ele>
        <time>1970-01-01T00:47:30.000Z</time>
      </trkpt>
      <trkpt lat="39.796673" lon="-8.735776">
        <ele>170.9</ele>
        <time>1970-01-01T00:47:32.000Z</time>
      </trkpt>
      <trkpt lat="39.796688" lon="-8.735777">
        <ele>170.9</ele>
        <time>1970-01-01T00:47:32.000Z</time>
      </trkpt>
      <trkpt lat="39.796718" lon="-8.735774">
        <ele>171.1</ele>
        <time>1970-01-01T00:47:33.000Z</time>
      </trkpt>
      <trkpt lat="39.796746" lon="-8.735766">
        <ele>171.2</ele>
        <time>1970-01-01T00:47:34.000Z</time>
      </trkpt>
      <trkpt lat="39.796773" lon="-8.735753">
        <ele>171.3</ele>
        <time>1970-01-01T00:47:35.000Z</time>
      </trkpt>
      <trkpt lat="39.7968" lon="-8.735735">
        <ele>172</ele>
        <time>1970-01-01T00:47:36.000Z</time>
      </trkpt>
      <trkpt lat="39.79683" lon="-8.735712">
        <ele>172.1</ele>
        <time>1970-01-01T00:47:37.000Z</time>
      </trkpt>
      <trkpt lat="39.796858" lon="-8.735685">
        <ele>172.2</ele>
        <time>1970-01-01T00:47:38.000Z</time>
      </trkpt>
      <trkpt lat="39.796885" lon="-8.735657">
        <ele>172.2</ele>
        <time>1970-01-01T00:47:39.000Z</time>
      </trkpt>
      <trkpt lat="39.796913" lon="-8.735628">
        <ele>172.3</ele>
        <time>1970-01-01T00:47:40.000Z</time>
      </trkpt>
      <trkpt lat="39.796939" lon="-8.735599">
        <ele>172.4</ele>
        <time>1970-01-01T00:47:41.000Z</time>
      </trkpt>
      <trkpt lat="39.796964" lon="-8.73557">
        <ele>172.4</ele>
        <time>1970-01-01T00:47:42.000Z</time>
      </trkpt>
      <trkpt lat="39.796986" lon="-8.735542">
        <ele>172.5</ele>
        <time>1970-01-01T00:47:43.000Z</time>
      </trkpt>
      <trkpt lat="39.797007" lon="-8.735515">
        <ele>172.6</ele>
        <time>1970-01-01T00:47:44.000Z</time>
      </trkpt>
      <trkpt lat="39.79703" lon="-8.735488">
        <ele>172.7</ele>
        <time>1970-01-01T00:47:45.000Z</time>
      </trkpt>
      <trkpt lat="39.797052" lon="-8.735464">
        <ele>172.8</ele>
        <time>1970-01-01T00:47:46.000Z</time>
      </trkpt>
      <trkpt lat="39.797075" lon="-8.73544">
        <ele>172.8</ele>
        <time>1970-01-01T00:47:47.000Z</time>
      </trkpt>
      <trkpt lat="39.797099" lon="-8.735418">
        <ele>172.9</ele>
        <time>1970-01-01T00:47:48.000Z</time>
      </trkpt>
      <trkpt lat="39.797123" lon="-8.735397">
        <ele>173</ele>
        <time>1970-01-01T00:47:49.000Z</time>
      </trkpt>
      <trkpt lat="39.797149" lon="-8.735379">
        <ele>173.1</ele>
        <time>1970-01-01T00:47:50.000Z</time>
      </trkpt>
      <trkpt lat="39.797178" lon="-8.735363">
        <ele>173.2</ele>
        <time>1970-01-01T00:47:51.000Z</time>
      </trkpt>
      <trkpt lat="39.797211" lon="-8.735349">
        <ele>173.2</ele>
        <time>1970-01-01T00:47:52.000Z</time>
      </trkpt>
      <trkpt lat="39.797262" lon="-8.735334">
        <ele>173.4</ele>
        <time>1970-01-01T00:47:54.000Z</time>
      </trkpt>
      <trkpt lat="39.797279" lon="-8.735329">
        <ele>173.4</ele>
        <time>1970-01-01T00:47:54.000Z</time>
      </trkpt>
      <trkpt lat="39.797316" lon="-8.735318">
        <ele>173.4</ele>
        <time>1970-01-01T00:47:55.000Z</time>
      </trkpt>
      <trkpt lat="39.797356" lon="-8.735306">
        <ele>173.5</ele>
        <time>1970-01-01T00:47:56.000Z</time>
      </trkpt>
      <trkpt lat="39.797401" lon="-8.735293">
        <ele>173.5</ele>
        <time>1970-01-01T00:47:57.000Z</time>
      </trkpt>
      <trkpt lat="39.797446" lon="-8.735282">
        <ele>173.5</ele>
        <time>1970-01-01T00:47:58.000Z</time>
      </trkpt>
      <trkpt lat="39.797492" lon="-8.735271">
        <ele>173.5</ele>
        <time>1970-01-01T00:47:59.000Z</time>
      </trkpt>
      <trkpt lat="39.797536" lon="-8.735262">
        <ele>173.5</ele>
        <time>1970-01-01T00:48:00.000Z</time>
      </trkpt>
      <trkpt lat="39.797579" lon="-8.735255">
        <ele>173.4</ele>
        <time>1970-01-01T00:48:01.000Z</time>
      </trkpt>
      <trkpt lat="39.797624" lon="-8.735244">
        <ele>173.4</ele>
        <time>1970-01-01T00:48:02.000Z</time>
      </trkpt>
      <trkpt lat="39.797665" lon="-8.735231">
        <ele>173.3</ele>
        <time>1970-01-01T00:48:04.000Z</time>
      </trkpt>
      <trkpt lat="39.797705" lon="-8.735216">
        <ele>173.3</ele>
        <time>1970-01-01T00:48:05.000Z</time>
      </trkpt>
      <trkpt lat="39.797743" lon="-8.735204">
        <ele>173.3</ele>
        <time>1970-01-01T00:48:05.000Z</time>
      </trkpt>
      <trkpt lat="39.797775" lon="-8.735194">
        <ele>173.3</ele>
        <time>1970-01-01T00:48:06.000Z</time>
      </trkpt>
      <trkpt lat="39.797802" lon="-8.735187">
        <ele>173.2</ele>
        <time>1970-01-01T00:48:07.000Z</time>
      </trkpt>
      <trkpt lat="39.797832" lon="-8.735183">
        <ele>173.2</ele>
        <time>1970-01-01T00:48:08.000Z</time>
      </trkpt>
      <trkpt lat="39.797866" lon="-8.735184">
        <ele>173.2</ele>
        <time>1970-01-01T00:48:09.000Z</time>
      </trkpt>
      <trkpt lat="39.797918" lon="-8.735195">
        <ele>173.2</ele>
        <time>1970-01-01T00:48:11.000Z</time>
      </trkpt>
      <trkpt lat="39.797935" lon="-8.735201">
        <ele>173.2</ele>
        <time>1970-01-01T00:48:11.000Z</time>
      </trkpt>
      <trkpt lat="39.797969" lon="-8.735216">
        <ele>173.2</ele>
        <time>1970-01-01T00:48:12.000Z</time>
      </trkpt>
      <trkpt lat="39.798" lon="-8.735235">
        <ele>173.2</ele>
        <time>1970-01-01T00:48:13.000Z</time>
      </trkpt>
      <trkpt lat="39.798028" lon="-8.735257">
        <ele>173.2</ele>
        <time>1970-01-01T00:48:14.000Z</time>
      </trkpt>
      <trkpt lat="39.798055" lon="-8.73528">
        <ele>173.3</ele>
        <time>1970-01-01T00:48:15.000Z</time>
      </trkpt>
      <trkpt lat="39.798081" lon="-8.735302">
        <ele>173.3</ele>
        <time>1970-01-01T00:48:16.000Z</time>
      </trkpt>
      <trkpt lat="39.798109" lon="-8.735322">
        <ele>173.3</ele>
        <time>1970-01-01T00:48:17.000Z</time>
      </trkpt>
      <trkpt lat="39.798137" lon="-8.735342">
        <ele>173.3</ele>
        <time>1970-01-01T00:48:18.000Z</time>
      </trkpt>
      <trkpt lat="39.798163" lon="-8.735361">
        <ele>173.3</ele>
        <time>1970-01-01T00:48:19.000Z</time>
      </trkpt>
      <trkpt lat="39.79819" lon="-8.735382">
        <ele>173.3</ele>
        <time>1970-01-01T00:48:20.000Z</time>
      </trkpt>
      <trkpt lat="39.798217" lon="-8.735402">
        <ele>173.2</ele>
        <time>1970-01-01T00:48:21.000Z</time>
      </trkpt>
      <trkpt lat="39.798244" lon="-8.735425">
        <ele>173.1</ele>
        <time>1970-01-01T00:48:22.000Z</time>
      </trkpt>
      <trkpt lat="39.798274" lon="-8.735452">
        <ele>173</ele>
        <time>1970-01-01T00:48:23.000Z</time>
      </trkpt>
      <trkpt lat="39.798303" lon="-8.735484">
        <ele>172.8</ele>
        <time>1970-01-01T00:48:25.000Z</time>
      </trkpt>
      <trkpt lat="39.79833" lon="-8.735521">
        <ele>172.5</ele>
        <time>1970-01-01T00:48:26.000Z</time>
      </trkpt>
      <trkpt lat="39.798355" lon="-8.735562">
        <ele>172.3</ele>
        <time>1970-01-01T00:48:26.000Z</time>
      </trkpt>
      <trkpt lat="39.79838" lon="-8.735607">
        <ele>172</ele>
        <time>1970-01-01T00:48:27.000Z</time>
      </trkpt>
      <trkpt lat="39.798402" lon="-8.735652">
        <ele>171.7</ele>
        <time>1970-01-01T00:48:28.000Z</time>
      </trkpt>
      <trkpt lat="39.798424" lon="-8.735699">
        <ele>171.4</ele>
        <time>1970-01-01T00:48:29.000Z</time>
      </trkpt>
      <trkpt lat="39.798449" lon="-8.735753">
        <ele>171.1</ele>
        <time>1970-01-01T00:48:30.000Z</time>
      </trkpt>
      <trkpt lat="39.798476" lon="-8.735807">
        <ele>170.8</ele>
        <time>1970-01-01T00:48:31.000Z</time>
      </trkpt>
      <trkpt lat="39.798504" lon="-8.735861">
        <ele>170.5</ele>
        <time>1970-01-01T00:48:33.000Z</time>
      </trkpt>
      <trkpt lat="39.798533" lon="-8.735915">
        <ele>170.3</ele>
        <time>1970-01-01T00:48:33.000Z</time>
      </trkpt>
      <trkpt lat="39.798564" lon="-8.735966">
        <ele>170</ele>
        <time>1970-01-01T00:48:35.000Z</time>
      </trkpt>
      <trkpt lat="39.798605" lon="-8.736018">
        <ele>169.7</ele>
        <time>1970-01-01T00:48:36.000Z</time>
      </trkpt>
      <trkpt lat="39.79865" lon="-8.736064">
        <ele>169.4</ele>
        <time>1970-01-01T00:48:36.000Z</time>
      </trkpt>
      <trkpt lat="39.798702" lon="-8.736104">
        <ele>169.1</ele>
        <time>1970-01-01T00:48:37.000Z</time>
      </trkpt>
      <trkpt lat="39.798755" lon="-8.736137">
        <ele>168.8</ele>
        <time>1970-01-01T00:48:38.000Z</time>
      </trkpt>
      <trkpt lat="39.798814" lon="-8.736167">
        <ele>168.4</ele>
        <time>1970-01-01T00:48:39.000Z</time>
      </trkpt>
      <trkpt lat="39.798876" lon="-8.736196">
        <ele>168.1</ele>
        <time>1970-01-01T00:48:40.000Z</time>
      </trkpt>
      <trkpt lat="39.798941" lon="-8.736225">
        <ele>167.7</ele>
        <time>1970-01-01T00:48:41.000Z</time>
      </trkpt>
      <trkpt lat="39.799004" lon="-8.736255">
        <ele>167.3</ele>
        <time>1970-01-01T00:48:42.000Z</time>
      </trkpt>
      <trkpt lat="39.799065" lon="-8.736284">
        <ele>166.9</ele>
        <time>1970-01-01T00:48:43.000Z</time>
      </trkpt>
      <trkpt lat="39.799125" lon="-8.736313">
        <ele>166.5</ele>
        <time>1970-01-01T00:48:44.000Z</time>
      </trkpt>
      <trkpt lat="39.799184" lon="-8.736344">
        <ele>166.1</ele>
        <time>1970-01-01T00:48:46.000Z</time>
      </trkpt>
      <trkpt lat="39.799237" lon="-8.73638">
        <ele>165.6</ele>
        <time>1970-01-01T00:48:47.000Z</time>
      </trkpt>
      <trkpt lat="39.799286" lon="-8.736417">
        <ele>165.1</ele>
        <time>1970-01-01T00:48:48.000Z</time>
      </trkpt>
      <trkpt lat="39.799328" lon="-8.736457">
        <ele>164.6</ele>
        <time>1970-01-01T00:48:48.000Z</time>
      </trkpt>
      <trkpt lat="39.799364" lon="-8.736502">
        <ele>164.1</ele>
        <time>1970-01-01T00:48:49.000Z</time>
      </trkpt>
      <trkpt lat="39.799392" lon="-8.736553">
        <ele>163.5</ele>
        <time>1970-01-01T00:48:50.000Z</time>
      </trkpt>
      <trkpt lat="39.799415" lon="-8.736611">
        <ele>162.8</ele>
        <time>1970-01-01T00:48:51.000Z</time>
      </trkpt>
      <trkpt lat="39.799437" lon="-8.736677">
        <ele>162</ele>
        <time>1970-01-01T00:48:52.000Z</time>
      </trkpt>
      <trkpt lat="39.799461" lon="-8.73675">
        <ele>161.2</ele>
        <time>1970-01-01T00:48:53.000Z</time>
      </trkpt>
      <trkpt lat="39.79949" lon="-8.736828">
        <ele>160.4</ele>
        <time>1970-01-01T00:48:54.000Z</time>
      </trkpt>
      <trkpt lat="39.799523" lon="-8.73691">
        <ele>159.6</ele>
        <time>1970-01-01T00:48:55.000Z</time>
      </trkpt>
      <trkpt lat="39.799556" lon="-8.736985">
        <ele>159</ele>
        <time>1970-01-01T00:48:56.000Z</time>
      </trkpt>
      <trkpt lat="39.799592" lon="-8.737057">
        <ele>158.5</ele>
        <time>1970-01-01T00:48:57.000Z</time>
      </trkpt>
      <trkpt lat="39.799632" lon="-8.737123">
        <ele>158</ele>
        <time>1970-01-01T00:48:58.000Z</time>
      </trkpt>
      <trkpt lat="39.799675" lon="-8.737182">
        <ele>157.6</ele>
        <time>1970-01-01T00:48:59.000Z</time>
      </trkpt>
      <trkpt lat="39.799724" lon="-8.737233">
        <ele>157.2</ele>
        <time>1970-01-01T00:49:01.000Z</time>
      </trkpt>
      <trkpt lat="39.799786" lon="-8.737282">
        <ele>156.7</ele>
        <time>1970-01-01T00:49:02.000Z</time>
      </trkpt>
      <trkpt lat="39.799845" lon="-8.737323">
        <ele>156.1</ele>
        <time>1970-01-01T00:49:02.000Z</time>
      </trkpt>
      <trkpt lat="39.799903" lon="-8.73736">
        <ele>155.5</ele>
        <time>1970-01-01T00:49:03.000Z</time>
      </trkpt>
      <trkpt lat="39.799963" lon="-8.73739">
        <ele>154.9</ele>
        <time>1970-01-01T00:49:04.000Z</time>
      </trkpt>
      <trkpt lat="39.800025" lon="-8.737419">
        <ele>154.2</ele>
        <time>1970-01-01T00:49:05.000Z</time>
      </trkpt>
      <trkpt lat="39.800087" lon="-8.737441">
        <ele>153.6</ele>
        <time>1970-01-01T00:49:06.000Z</time>
      </trkpt>
      <trkpt lat="39.800151" lon="-8.737452">
        <ele>153</ele>
        <time>1970-01-01T00:49:07.000Z</time>
      </trkpt>
      <trkpt lat="39.800216" lon="-8.737451">
        <ele>153.1</ele>
        <time>1970-01-01T00:49:08.000Z</time>
      </trkpt>
      <trkpt lat="39.800282" lon="-8.737444">
        <ele>153.2</ele>
        <time>1970-01-01T00:49:09.000Z</time>
      </trkpt>
      <trkpt lat="39.80035" lon="-8.737431">
        <ele>153.1</ele>
        <time>1970-01-01T00:49:10.000Z</time>
      </trkpt>
      <trkpt lat="39.800419" lon="-8.737412">
        <ele>152.9</ele>
        <time>1970-01-01T00:49:11.000Z</time>
      </trkpt>
      <trkpt lat="39.800482" lon="-8.73739">
        <ele>152.7</ele>
        <time>1970-01-01T00:49:13.000Z</time>
      </trkpt>
      <trkpt lat="39.80055" lon="-8.737362">
        <ele>152.2</ele>
        <time>1970-01-01T00:49:13.000Z</time>
      </trkpt>
      <trkpt lat="39.80062" lon="-8.737334">
        <ele>151.3</ele>
        <time>1970-01-01T00:49:14.000Z</time>
      </trkpt>
      <trkpt lat="39.800694" lon="-8.737305">
        <ele>149.4</ele>
        <time>1970-01-01T00:49:15.000Z</time>
      </trkpt>
      <trkpt lat="39.800769" lon="-8.737277">
        <ele>147.4</ele>
        <time>1970-01-01T00:49:16.000Z</time>
      </trkpt>
      <trkpt lat="39.800841" lon="-8.737256">
        <ele>146.4</ele>
        <time>1970-01-01T00:49:17.000Z</time>
      </trkpt>
      <trkpt lat="39.800919" lon="-8.737238">
        <ele>145.9</ele>
        <time>1970-01-01T00:49:18.000Z</time>
      </trkpt>
      <trkpt lat="39.800997" lon="-8.737227">
        <ele>145.6</ele>
        <time>1970-01-01T00:49:19.000Z</time>
      </trkpt>
      <trkpt lat="39.801077" lon="-8.737224">
        <ele>145.3</ele>
        <time>1970-01-01T00:49:20.000Z</time>
      </trkpt>
      <trkpt lat="39.801153" lon="-8.737231">
        <ele>144.9</ele>
        <time>1970-01-01T00:49:21.000Z</time>
      </trkpt>
      <trkpt lat="39.801223" lon="-8.737245">
        <ele>144.4</ele>
        <time>1970-01-01T00:49:22.000Z</time>
      </trkpt>
      <trkpt lat="39.801289" lon="-8.73726">
        <ele>143.9</ele>
        <time>1970-01-01T00:49:24.000Z</time>
      </trkpt>
      <trkpt lat="39.801351" lon="-8.737272">
        <ele>143.3</ele>
        <time>1970-01-01T00:49:24.000Z</time>
      </trkpt>
      <trkpt lat="39.801403" lon="-8.737274">
        <ele>142.8</ele>
        <time>1970-01-01T00:49:26.000Z</time>
      </trkpt>
      <trkpt lat="39.80145" lon="-8.737269">
        <ele>142.3</ele>
        <time>1970-01-01T00:49:27.000Z</time>
      </trkpt>
      <trkpt lat="39.801491" lon="-8.737253">
        <ele>141.8</ele>
        <time>1970-01-01T00:49:27.000Z</time>
      </trkpt>
      <trkpt lat="39.801526" lon="-8.737227">
        <ele>141.3</ele>
        <time>1970-01-01T00:49:28.000Z</time>
      </trkpt>
      <trkpt lat="39.801558" lon="-8.737189">
        <ele>140.8</ele>
        <time>1970-01-01T00:49:29.000Z</time>
      </trkpt>
      <trkpt lat="39.80159" lon="-8.737143">
        <ele>140.2</ele>
        <time>1970-01-01T00:49:31.000Z</time>
      </trkpt>
      <trkpt lat="39.801622" lon="-8.737098">
        <ele>139.6</ele>
        <time>1970-01-01T00:49:32.000Z</time>
      </trkpt>
      <trkpt lat="39.801656" lon="-8.737057">
        <ele>139.1</ele>
        <time>1970-01-01T00:49:32.000Z</time>
      </trkpt>
      <trkpt lat="39.801696" lon="-8.737028">
        <ele>138.4</ele>
        <time>1970-01-01T00:49:34.000Z</time>
      </trkpt>
      <trkpt lat="39.80174" lon="-8.737008">
        <ele>137.7</ele>
        <time>1970-01-01T00:49:34.000Z</time>
      </trkpt>
      <trkpt lat="39.801784" lon="-8.737002">
        <ele>137</ele>
        <time>1970-01-01T00:49:35.000Z</time>
      </trkpt>
      <trkpt lat="39.801824" lon="-8.737012">
        <ele>136.3</ele>
        <time>1970-01-01T00:49:36.000Z</time>
      </trkpt>
      <trkpt lat="39.80186" lon="-8.737032">
        <ele>135.6</ele>
        <time>1970-01-01T00:49:37.000Z</time>
      </trkpt>
      <trkpt lat="39.801893" lon="-8.73706">
        <ele>134.9</ele>
        <time>1970-01-01T00:49:38.000Z</time>
      </trkpt>
      <trkpt lat="39.801925" lon="-8.737092">
        <ele>134.1</ele>
        <time>1970-01-01T00:49:39.000Z</time>
      </trkpt>
      <trkpt lat="39.801953" lon="-8.737128">
        <ele>133.5</ele>
        <time>1970-01-01T00:49:40.000Z</time>
      </trkpt>
      <trkpt lat="39.801981" lon="-8.737165">
        <ele>132.8</ele>
        <time>1970-01-01T00:49:41.000Z</time>
      </trkpt>
      <trkpt lat="39.802011" lon="-8.737202">
        <ele>132.2</ele>
        <time>1970-01-01T00:49:43.000Z</time>
      </trkpt>
      <trkpt lat="39.802041" lon="-8.737233">
        <ele>131.5</ele>
        <time>1970-01-01T00:49:43.000Z</time>
      </trkpt>
      <trkpt lat="39.802075" lon="-8.73726">
        <ele>130.7</ele>
        <time>1970-01-01T00:49:45.000Z</time>
      </trkpt>
      <trkpt lat="39.802117" lon="-8.737279">
        <ele>129.8</ele>
        <time>1970-01-01T00:49:45.000Z</time>
      </trkpt>
      <trkpt lat="39.802163" lon="-8.737288">
        <ele>128.9</ele>
        <time>1970-01-01T00:49:46.000Z</time>
      </trkpt>
      <trkpt lat="39.802211" lon="-8.737287">
        <ele>128.2</ele>
        <time>1970-01-01T00:49:48.000Z</time>
      </trkpt>
      <trkpt lat="39.802264" lon="-8.737279">
        <ele>127.6</ele>
        <time>1970-01-01T00:49:48.000Z</time>
      </trkpt>
      <trkpt lat="39.802317" lon="-8.737269">
        <ele>127.2</ele>
        <time>1970-01-01T00:49:49.000Z</time>
      </trkpt>
      <trkpt lat="39.802372" lon="-8.737262">
        <ele>127.1</ele>
        <time>1970-01-01T00:49:50.000Z</time>
      </trkpt>
      <trkpt lat="39.802428" lon="-8.73726">
        <ele>127</ele>
        <time>1970-01-01T00:49:52.000Z</time>
      </trkpt>
      <trkpt lat="39.802481" lon="-8.737262">
        <ele>127</ele>
        <time>1970-01-01T00:49:52.000Z</time>
      </trkpt>
      <trkpt lat="39.802534" lon="-8.737273">
        <ele>126.9</ele>
        <time>1970-01-01T00:49:53.000Z</time>
      </trkpt>
      <trkpt lat="39.802584" lon="-8.737295">
        <ele>126.8</ele>
        <time>1970-01-01T00:49:54.000Z</time>
      </trkpt>
      <trkpt lat="39.80263" lon="-8.737324">
        <ele>126.7</ele>
        <time>1970-01-01T00:49:55.000Z</time>
      </trkpt>
      <trkpt lat="39.802678" lon="-8.73736">
        <ele>126.5</ele>
        <time>1970-01-01T00:49:56.000Z</time>
      </trkpt>
      <trkpt lat="39.80273" lon="-8.737396">
        <ele>126.3</ele>
        <time>1970-01-01T00:49:57.000Z</time>
      </trkpt>
      <trkpt lat="39.802786" lon="-8.737428">
        <ele>126</ele>
        <time>1970-01-01T00:49:58.000Z</time>
      </trkpt>
      <trkpt lat="39.802843" lon="-8.737456">
        <ele>125.7</ele>
        <time>1970-01-01T00:49:59.000Z</time>
      </trkpt>
      <trkpt lat="39.802899" lon="-8.737481">
        <ele>125.5</ele>
        <time>1970-01-01T00:50:00.000Z</time>
      </trkpt>
      <trkpt lat="39.802953" lon="-8.737502">
        <ele>125.4</ele>
        <time>1970-01-01T00:50:01.000Z</time>
      </trkpt>
      <trkpt lat="39.803008" lon="-8.737523">
        <ele>125.2</ele>
        <time>1970-01-01T00:50:02.000Z</time>
      </trkpt>
      <trkpt lat="39.803061" lon="-8.737544">
        <ele>124.9</ele>
        <time>1970-01-01T00:50:03.000Z</time>
      </trkpt>
      <trkpt lat="39.803113" lon="-8.737567">
        <ele>124.7</ele>
        <time>1970-01-01T00:50:04.000Z</time>
      </trkpt>
      <trkpt lat="39.80316" lon="-8.737596">
        <ele>124.4</ele>
        <time>1970-01-01T00:50:05.000Z</time>
      </trkpt>
      <trkpt lat="39.803199" lon="-8.737631">
        <ele>124</ele>
        <time>1970-01-01T00:50:06.000Z</time>
      </trkpt>
      <trkpt lat="39.803228" lon="-8.737669">
        <ele>123.7</ele>
        <time>1970-01-01T00:50:07.000Z</time>
      </trkpt>
      <trkpt lat="39.803255" lon="-8.737712">
        <ele>123.3</ele>
        <time>1970-01-01T00:50:08.000Z</time>
      </trkpt>
      <trkpt lat="39.803277" lon="-8.737757">
        <ele>122.9</ele>
        <time>1970-01-01T00:50:09.000Z</time>
      </trkpt>
      <trkpt lat="39.803296" lon="-8.737805">
        <ele>122.4</ele>
        <time>1970-01-01T00:50:11.000Z</time>
      </trkpt>
      <trkpt lat="39.803312" lon="-8.737852">
        <ele>122</ele>
        <time>1970-01-01T00:50:11.000Z</time>
      </trkpt>
      <trkpt lat="39.803327" lon="-8.737905">
        <ele>121.5</ele>
        <time>1970-01-01T00:50:12.000Z</time>
      </trkpt>
      <trkpt lat="39.80334" lon="-8.737968">
        <ele>120.9</ele>
        <time>1970-01-01T00:50:13.000Z</time>
      </trkpt>
      <trkpt lat="39.803344" lon="-8.738035">
        <ele>120.3</ele>
        <time>1970-01-01T00:50:14.000Z</time>
      </trkpt>
      <trkpt lat="39.803343" lon="-8.738107">
        <ele>119.5</ele>
        <time>1970-01-01T00:50:15.000Z</time>
      </trkpt>
      <trkpt lat="39.803343" lon="-8.738182">
        <ele>118.6</ele>
        <time>1970-01-01T00:50:16.000Z</time>
      </trkpt>
      <trkpt lat="39.803345" lon="-8.738255">
        <ele>117.6</ele>
        <time>1970-01-01T00:50:17.000Z</time>
      </trkpt>
      <trkpt lat="39.80335" lon="-8.73833">
        <ele>116.2</ele>
        <time>1970-01-01T00:50:18.000Z</time>
      </trkpt>
      <trkpt lat="39.803356" lon="-8.738403">
        <ele>114.6</ele>
        <time>1970-01-01T00:50:20.000Z</time>
      </trkpt>
      <trkpt lat="39.803364" lon="-8.738474">
        <ele>113</ele>
        <time>1970-01-01T00:50:21.000Z</time>
      </trkpt>
      <trkpt lat="39.803375" lon="-8.738539">
        <ele>111.7</ele>
        <time>1970-01-01T00:50:22.000Z</time>
      </trkpt>
      <trkpt lat="39.803389" lon="-8.738595">
        <ele>110.8</ele>
        <time>1970-01-01T00:50:22.000Z</time>
      </trkpt>
      <trkpt lat="39.803406" lon="-8.738642">
        <ele>110.2</ele>
        <time>1970-01-01T00:50:23.000Z</time>
      </trkpt>
      <trkpt lat="39.803427" lon="-8.738681">
        <ele>109.8</ele>
        <time>1970-01-01T00:50:24.000Z</time>
      </trkpt>
      <trkpt lat="39.803447" lon="-8.73871">
        <ele>109.5</ele>
        <time>1970-01-01T00:50:25.000Z</time>
      </trkpt>
      <trkpt lat="39.80347" lon="-8.73873">
        <ele>109.2</ele>
        <time>1970-01-01T00:50:26.000Z</time>
      </trkpt>
      <trkpt lat="39.803493" lon="-8.738744">
        <ele>108.9</ele>
        <time>1970-01-01T00:50:27.000Z</time>
      </trkpt>
      <trkpt lat="39.803529" lon="-8.738754">
        <ele>108.6</ele>
        <time>1970-01-01T00:50:29.000Z</time>
      </trkpt>
      <trkpt lat="39.803541" lon="-8.738756">
        <ele>108.5</ele>
        <time>1970-01-01T00:50:29.000Z</time>
      </trkpt>
      <trkpt lat="39.803568" lon="-8.738751">
        <ele>108.2</ele>
        <time>1970-01-01T00:50:30.000Z</time>
      </trkpt>
      <trkpt lat="39.803597" lon="-8.738739">
        <ele>108</ele>
        <time>1970-01-01T00:50:31.000Z</time>
      </trkpt>
      <trkpt lat="39.803644" lon="-8.738706">
        <ele>107.7</ele>
        <time>1970-01-01T00:50:33.000Z</time>
      </trkpt>
      <trkpt lat="39.803659" lon="-8.738693">
        <ele>107.6</ele>
        <time>1970-01-01T00:50:33.000Z</time>
      </trkpt>
      <trkpt lat="39.803686" lon="-8.738665">
        <ele>107.4</ele>
        <time>1970-01-01T00:50:34.000Z</time>
      </trkpt>
      <trkpt lat="39.803708" lon="-8.738634">
        <ele>107.3</ele>
        <time>1970-01-01T00:50:35.000Z</time>
      </trkpt>
      <trkpt lat="39.803726" lon="-8.738595">
        <ele>107.2</ele>
        <time>1970-01-01T00:50:36.000Z</time>
      </trkpt>
      <trkpt lat="39.80374" lon="-8.738557">
        <ele>107.2</ele>
        <time>1970-01-01T00:50:37.000Z</time>
      </trkpt>
      <trkpt lat="39.803755" lon="-8.738513">
        <ele>107</ele>
        <time>1970-01-01T00:50:38.000Z</time>
      </trkpt>
      <trkpt lat="39.80377" lon="-8.738467">
        <ele>106.9</ele>
        <time>1970-01-01T00:50:39.000Z</time>
      </trkpt>
      <trkpt lat="39.803787" lon="-8.738426">
        <ele>106.7</ele>
        <time>1970-01-01T00:50:40.000Z</time>
      </trkpt>
      <trkpt lat="39.803807" lon="-8.738386">
        <ele>106.5</ele>
        <time>1970-01-01T00:50:41.000Z</time>
      </trkpt>
      <trkpt lat="39.803827" lon="-8.738343">
        <ele>106.3</ele>
        <time>1970-01-01T00:50:42.000Z</time>
      </trkpt>
      <trkpt lat="39.80385" lon="-8.7383">
        <ele>106.1</ele>
        <time>1970-01-01T00:50:43.000Z</time>
      </trkpt>
      <trkpt lat="39.803874" lon="-8.73826">
        <ele>105.9</ele>
        <time>1970-01-01T00:50:44.000Z</time>
      </trkpt>
      <trkpt lat="39.803895" lon="-8.738221">
        <ele>105.6</ele>
        <time>1970-01-01T00:50:45.000Z</time>
      </trkpt>
      <trkpt lat="39.803919" lon="-8.738178">
        <ele>105.3</ele>
        <time>1970-01-01T00:50:46.000Z</time>
      </trkpt>
      <trkpt lat="39.803952" lon="-8.738126">
        <ele>104.9</ele>
        <time>1970-01-01T00:50:47.000Z</time>
      </trkpt>
      <trkpt lat="39.803987" lon="-8.738068">
        <ele>104.5</ele>
        <time>1970-01-01T00:50:48.000Z</time>
      </trkpt>
      <trkpt lat="39.80402" lon="-8.738006">
        <ele>104.2</ele>
        <time>1970-01-01T00:50:49.000Z</time>
      </trkpt>
      <trkpt lat="39.804047" lon="-8.737937">
        <ele>103.9</ele>
        <time>1970-01-01T00:50:51.000Z</time>
      </trkpt>
      <trkpt lat="39.804076" lon="-8.737867">
        <ele>103.7</ele>
        <time>1970-01-01T00:50:51.000Z</time>
      </trkpt>
      <trkpt lat="39.804105" lon="-8.737795">
        <ele>103.5</ele>
        <time>1970-01-01T00:50:52.000Z</time>
      </trkpt>
      <trkpt lat="39.804133" lon="-8.737725">
        <ele>103.4</ele>
        <time>1970-01-01T00:50:53.000Z</time>
      </trkpt>
      <trkpt lat="39.804158" lon="-8.737658">
        <ele>103.3</ele>
        <time>1970-01-01T00:50:54.000Z</time>
      </trkpt>
      <trkpt lat="39.804182" lon="-8.737597">
        <ele>103.2</ele>
        <time>1970-01-01T00:50:56.000Z</time>
      </trkpt>
      <trkpt lat="39.804198" lon="-8.73754">
        <ele>103</ele>
        <time>1970-01-01T00:50:57.000Z</time>
      </trkpt>
      <trkpt lat="39.804211" lon="-8.737483">
        <ele>102.8</ele>
        <time>1970-01-01T00:50:57.000Z</time>
      </trkpt>
      <trkpt lat="39.804219" lon="-8.737434">
        <ele>102.6</ele>
        <time>1970-01-01T00:50:58.000Z</time>
      </trkpt>
      <trkpt lat="39.804224" lon="-8.737385">
        <ele>102.4</ele>
        <time>1970-01-01T00:50:59.000Z</time>
      </trkpt>
      <trkpt lat="39.804226" lon="-8.737336">
        <ele>102</ele>
        <time>1970-01-01T00:51:00.000Z</time>
      </trkpt>
      <trkpt lat="39.804223" lon="-8.737289">
        <ele>101.6</ele>
        <time>1970-01-01T00:51:01.000Z</time>
      </trkpt>
      <trkpt lat="39.804215" lon="-8.737244">
        <ele>101.2</ele>
        <time>1970-01-01T00:51:02.000Z</time>
      </trkpt>
      <trkpt lat="39.804202" lon="-8.737195">
        <ele>100.7</ele>
        <time>1970-01-01T00:51:03.000Z</time>
      </trkpt>
      <trkpt lat="39.804195" lon="-8.737139">
        <ele>100.1</ele>
        <time>1970-01-01T00:51:04.000Z</time>
      </trkpt>
      <trkpt lat="39.804198" lon="-8.737083">
        <ele>99.6</ele>
        <time>1970-01-01T00:51:05.000Z</time>
      </trkpt>
      <trkpt lat="39.804209" lon="-8.73703">
        <ele>99.2</ele>
        <time>1970-01-01T00:51:06.000Z</time>
      </trkpt>
      <trkpt lat="39.804224" lon="-8.736981">
        <ele>99</ele>
        <time>1970-01-01T00:51:07.000Z</time>
      </trkpt>
      <trkpt lat="39.804243" lon="-8.736939">
        <ele>99</ele>
        <time>1970-01-01T00:51:08.000Z</time>
      </trkpt>
      <trkpt lat="39.804269" lon="-8.736905">
        <ele>99</ele>
        <time>1970-01-01T00:51:10.000Z</time>
      </trkpt>
      <trkpt lat="39.804299" lon="-8.736878">
        <ele>99.2</ele>
        <time>1970-01-01T00:51:10.000Z</time>
      </trkpt>
      <trkpt lat="39.804333" lon="-8.736857">
        <ele>99.5</ele>
        <time>1970-01-01T00:51:11.000Z</time>
      </trkpt>
      <trkpt lat="39.804368" lon="-8.736839">
        <ele>99.9</ele>
        <time>1970-01-01T00:51:13.000Z</time>
      </trkpt>
      <trkpt lat="39.804402" lon="-8.736824">
        <ele>99.8</ele>
        <time>1970-01-01T00:51:13.000Z</time>
      </trkpt>
      <trkpt lat="39.804434" lon="-8.736812">
        <ele>99.8</ele>
        <time>1970-01-01T00:51:14.000Z</time>
      </trkpt>
      <trkpt lat="39.804461" lon="-8.736805">
        <ele>99.8</ele>
        <time>1970-01-01T00:51:15.000Z</time>
      </trkpt>
      <trkpt lat="39.804487" lon="-8.7368">
        <ele>99.8</ele>
        <time>1970-01-01T00:51:16.000Z</time>
      </trkpt>
      <trkpt lat="39.804514" lon="-8.736795">
        <ele>99.8</ele>
        <time>1970-01-01T00:51:17.000Z</time>
      </trkpt>
      <trkpt lat="39.804556" lon="-8.736783">
        <ele>99.8</ele>
        <time>1970-01-01T00:51:19.000Z</time>
      </trkpt>
      <trkpt lat="39.804569" lon="-8.736777">
        <ele>99.8</ele>
        <time>1970-01-01T00:51:19.000Z</time>
      </trkpt>
      <trkpt lat="39.804594" lon="-8.736763">
        <ele>99.8</ele>
        <time>1970-01-01T00:51:20.000Z</time>
      </trkpt>
      <trkpt lat="39.804617" lon="-8.736749">
        <ele>99.8</ele>
        <time>1970-01-01T00:51:21.000Z</time>
      </trkpt>
      <trkpt lat="39.804641" lon="-8.736735">
        <ele>99.9</ele>
        <time>1970-01-01T00:51:22.000Z</time>
      </trkpt>
      <trkpt lat="39.804666" lon="-8.736722">
        <ele>99.9</ele>
        <time>1970-01-01T00:51:23.000Z</time>
      </trkpt>
      <trkpt lat="39.804689" lon="-8.736712">
        <ele>99.9</ele>
        <time>1970-01-01T00:51:24.000Z</time>
      </trkpt>
      <trkpt lat="39.804715" lon="-8.736702">
        <ele>99.9</ele>
        <time>1970-01-01T00:51:25.000Z</time>
      </trkpt>
      <trkpt lat="39.804744" lon="-8.736692">
        <ele>99.9</ele>
        <time>1970-01-01T00:51:26.000Z</time>
      </trkpt>
      <trkpt lat="39.80479" lon="-8.736678">
        <ele>99.8</ele>
        <time>1970-01-01T00:51:28.000Z</time>
      </trkpt>
      <trkpt lat="39.804805" lon="-8.736674">
        <ele>99.8</ele>
        <time>1970-01-01T00:51:28.000Z</time>
      </trkpt>
      <trkpt lat="39.804836" lon="-8.736668">
        <ele>99.7</ele>
        <time>1970-01-01T00:51:29.000Z</time>
      </trkpt>
      <trkpt lat="39.804866" lon="-8.736667">
        <ele>99.6</ele>
        <time>1970-01-01T00:51:30.000Z</time>
      </trkpt>
      <trkpt lat="39.804898" lon="-8.736674">
        <ele>99.5</ele>
        <time>1970-01-01T00:51:31.000Z</time>
      </trkpt>
      <trkpt lat="39.804931" lon="-8.736686">
        <ele>99.2</ele>
        <time>1970-01-01T00:51:32.000Z</time>
      </trkpt>
      <trkpt lat="39.804963" lon="-8.736701">
        <ele>98.9</ele>
        <time>1970-01-01T00:51:33.000Z</time>
      </trkpt>
      <trkpt lat="39.804994" lon="-8.736718">
        <ele>98.5</ele>
        <time>1970-01-01T00:51:34.000Z</time>
      </trkpt>
      <trkpt lat="39.805024" lon="-8.736735">
        <ele>98.2</ele>
        <time>1970-01-01T00:51:35.000Z</time>
      </trkpt>
      <trkpt lat="39.805076" lon="-8.736757">
        <ele>97.6</ele>
        <time>1970-01-01T00:51:37.000Z</time>
      </trkpt>
      <trkpt lat="39.805095" lon="-8.736764">
        <ele>97.3</ele>
        <time>1970-01-01T00:51:37.000Z</time>
      </trkpt>
      <trkpt lat="39.80514" lon="-8.736771">
        <ele>96.8</ele>
        <time>1970-01-01T00:51:38.000Z</time>
      </trkpt>
      <trkpt lat="39.80519" lon="-8.736771">
        <ele>96.1</ele>
        <time>1970-01-01T00:51:39.000Z</time>
      </trkpt>
      <trkpt lat="39.805244" lon="-8.736763">
        <ele>95.5</ele>
        <time>1970-01-01T00:51:40.000Z</time>
      </trkpt>
      <trkpt lat="39.805297" lon="-8.736753">
        <ele>94.8</ele>
        <time>1970-01-01T00:51:41.000Z</time>
      </trkpt>
      <trkpt lat="39.805349" lon="-8.736737">
        <ele>94.2</ele>
        <time>1970-01-01T00:51:42.000Z</time>
      </trkpt>
      <trkpt lat="39.805392" lon="-8.736718">
        <ele>93.7</ele>
        <time>1970-01-01T00:51:43.000Z</time>
      </trkpt>
      <trkpt lat="39.805428" lon="-8.736693">
        <ele>93.3</ele>
        <time>1970-01-01T00:51:44.000Z</time>
      </trkpt>
      <trkpt lat="39.805459" lon="-8.736663">
        <ele>93</ele>
        <time>1970-01-01T00:51:46.000Z</time>
      </trkpt>
      <trkpt lat="39.80549" lon="-8.736624">
        <ele>92.6</ele>
        <time>1970-01-01T00:51:46.000Z</time>
      </trkpt>
      <trkpt lat="39.805521" lon="-8.736583">
        <ele>92.3</ele>
        <time>1970-01-01T00:51:47.000Z</time>
      </trkpt>
      <trkpt lat="39.805553" lon="-8.736537">
        <ele>92.1</ele>
        <time>1970-01-01T00:51:49.000Z</time>
      </trkpt>
      <trkpt lat="39.805583" lon="-8.736487">
        <ele>91.9</ele>
        <time>1970-01-01T00:51:49.000Z</time>
      </trkpt>
      <trkpt lat="39.805611" lon="-8.736435">
        <ele>91.8</ele>
        <time>1970-01-01T00:51:50.000Z</time>
      </trkpt>
      <trkpt lat="39.805637" lon="-8.736383">
        <ele>91.7</ele>
        <time>1970-01-01T00:51:51.000Z</time>
      </trkpt>
      <trkpt lat="39.805668" lon="-8.736333">
        <ele>91.6</ele>
        <time>1970-01-01T00:51:52.000Z</time>
      </trkpt>
      <trkpt lat="39.805701" lon="-8.736285">
        <ele>91.5</ele>
        <time>1970-01-01T00:51:53.000Z</time>
      </trkpt>
      <trkpt lat="39.805728" lon="-8.736239">
        <ele>91.4</ele>
        <time>1970-01-01T00:51:54.000Z</time>
      </trkpt>
      <trkpt lat="39.805756" lon="-8.736198">
        <ele>91.4</ele>
        <time>1970-01-01T00:51:55.000Z</time>
      </trkpt>
      <trkpt lat="39.805783" lon="-8.736163">
        <ele>91.3</ele>
        <time>1970-01-01T00:51:56.000Z</time>
      </trkpt>
      <trkpt lat="39.805813" lon="-8.736127">
        <ele>91.2</ele>
        <time>1970-01-01T00:51:58.000Z</time>
      </trkpt>
      <trkpt lat="39.805844" lon="-8.736087">
        <ele>91.1</ele>
        <time>1970-01-01T00:51:59.000Z</time>
      </trkpt>
      <trkpt lat="39.805872" lon="-8.736045">
        <ele>90.9</ele>
        <time>1970-01-01T00:51:59.000Z</time>
      </trkpt>
      <trkpt lat="39.805899" lon="-8.736005">
        <ele>90.7</ele>
        <time>1970-01-01T00:52:00.000Z</time>
      </trkpt>
      <trkpt lat="39.805929" lon="-8.735966">
        <ele>90.5</ele>
        <time>1970-01-01T00:52:01.000Z</time>
      </trkpt>
      <trkpt lat="39.805961" lon="-8.735932">
        <ele>90.3</ele>
        <time>1970-01-01T00:52:02.000Z</time>
      </trkpt>
      <trkpt lat="39.805997" lon="-8.735905">
        <ele>90.1</ele>
        <time>1970-01-01T00:52:03.000Z</time>
      </trkpt>
      <trkpt lat="39.806035" lon="-8.735885">
        <ele>89.9</ele>
        <time>1970-01-01T00:52:04.000Z</time>
      </trkpt>
      <trkpt lat="39.806077" lon="-8.735871">
        <ele>89.6</ele>
        <time>1970-01-01T00:52:05.000Z</time>
      </trkpt>
      <trkpt lat="39.806119" lon="-8.735866">
        <ele>89.4</ele>
        <time>1970-01-01T00:52:06.000Z</time>
      </trkpt>
      <trkpt lat="39.806164" lon="-8.735863">
        <ele>89.3</ele>
        <time>1970-01-01T00:52:07.000Z</time>
      </trkpt>
      <trkpt lat="39.806209" lon="-8.735863">
        <ele>89.1</ele>
        <time>1970-01-01T00:52:08.000Z</time>
      </trkpt>
      <trkpt lat="39.806257" lon="-8.735867">
        <ele>89</ele>
        <time>1970-01-01T00:52:09.000Z</time>
      </trkpt>
      <trkpt lat="39.80631" lon="-8.735869">
        <ele>88.8</ele>
        <time>1970-01-01T00:52:11.000Z</time>
      </trkpt>
      <trkpt lat="39.806359" lon="-8.735871">
        <ele>88.6</ele>
        <time>1970-01-01T00:52:11.000Z</time>
      </trkpt>
      <trkpt lat="39.806401" lon="-8.73587">
        <ele>88.4</ele>
        <time>1970-01-01T00:52:12.000Z</time>
      </trkpt>
      <trkpt lat="39.806434" lon="-8.735868">
        <ele>88.3</ele>
        <time>1970-01-01T00:52:13.000Z</time>
      </trkpt>
      <trkpt lat="39.806463" lon="-8.735864">
        <ele>88.2</ele>
        <time>1970-01-01T00:52:14.000Z</time>
      </trkpt>
      <trkpt lat="39.80649" lon="-8.735858">
        <ele>88.2</ele>
        <time>1970-01-01T00:52:15.000Z</time>
      </trkpt>
      <trkpt lat="39.806512" lon="-8.735847">
        <ele>88.1</ele>
        <time>1970-01-01T00:52:17.000Z</time>
      </trkpt>
      <trkpt lat="39.806536" lon="-8.735834">
        <ele>88.1</ele>
        <time>1970-01-01T00:52:18.000Z</time>
      </trkpt>
      <trkpt lat="39.806552" lon="-8.735822">
        <ele>88</ele>
        <time>1970-01-01T00:52:18.000Z</time>
      </trkpt>
      <trkpt lat="39.806566" lon="-8.735807">
        <ele>88</ele>
        <time>1970-01-01T00:52:19.000Z</time>
      </trkpt>
      <trkpt lat="39.806581" lon="-8.735789">
        <ele>88</ele>
        <time>1970-01-01T00:52:20.000Z</time>
      </trkpt>
      <trkpt lat="39.806598" lon="-8.73577">
        <ele>88</ele>
        <time>1970-01-01T00:52:21.000Z</time>
      </trkpt>
      <trkpt lat="39.806608" lon="-8.735754">
        <ele>88</ele>
        <time>1970-01-01T00:52:22.000Z</time>
      </trkpt>
      <trkpt lat="39.80662" lon="-8.735741">
        <ele>88</ele>
        <time>1970-01-01T00:52:23.000Z</time>
      </trkpt>
      <trkpt lat="39.806632" lon="-8.735731">
        <ele>88</ele>
        <time>1970-01-01T00:52:24.000Z</time>
      </trkpt>
      <trkpt lat="39.806648" lon="-8.735724">
        <ele>88</ele>
        <time>1970-01-01T00:52:25.000Z</time>
      </trkpt>
      <trkpt lat="39.806664" lon="-8.735719">
        <ele>88</ele>
        <time>1970-01-01T00:52:26.000Z</time>
      </trkpt>
      <trkpt lat="39.806689" lon="-8.735712">
        <ele>88</ele>
        <time>1970-01-01T00:52:27.000Z</time>
      </trkpt>
      <trkpt lat="39.806713" lon="-8.735704">
        <ele>88</ele>
        <time>1970-01-01T00:52:28.000Z</time>
      </trkpt>
      <trkpt lat="39.806736" lon="-8.735693">
        <ele>88</ele>
        <time>1970-01-01T00:52:29.000Z</time>
      </trkpt>
      <trkpt lat="39.806756" lon="-8.73568">
        <ele>88</ele>
        <time>1970-01-01T00:52:30.000Z</time>
      </trkpt>
      <trkpt lat="39.806791" lon="-8.735663">
        <ele>88</ele>
        <time>1970-01-01T00:52:32.000Z</time>
      </trkpt>
      <trkpt lat="39.806796" lon="-8.735661">
        <ele>88</ele>
        <time>1970-01-01T00:52:32.000Z</time>
      </trkpt>
      <trkpt lat="39.806819" lon="-8.73565">
        <ele>88</ele>
        <time>1970-01-01T00:52:34.000Z</time>
      </trkpt>
      <trkpt lat="39.806821" lon="-8.735648">
        <ele>88</ele>
        <time>1970-01-01T00:52:34.000Z</time>
      </trkpt>
      <trkpt lat="39.806834" lon="-8.73564">
        <ele>88</ele>
        <time>1970-01-01T00:52:35.000Z</time>
      </trkpt>
      <trkpt lat="39.806854" lon="-8.735628">
        <ele>88</ele>
        <time>1970-01-01T00:52:36.000Z</time>
      </trkpt>
      <trkpt lat="39.806876" lon="-8.735617">
        <ele>88</ele>
        <time>1970-01-01T00:52:37.000Z</time>
      </trkpt>
      <trkpt lat="39.806902" lon="-8.735607">
        <ele>88</ele>
        <time>1970-01-01T00:52:38.000Z</time>
      </trkpt>
      <trkpt lat="39.806933" lon="-8.735596">
        <ele>88</ele>
        <time>1970-01-01T00:52:39.000Z</time>
      </trkpt>
      <trkpt lat="39.806967" lon="-8.735586">
        <ele>88</ele>
        <time>1970-01-01T00:52:40.000Z</time>
      </trkpt>
      <trkpt lat="39.807" lon="-8.735576">
        <ele>88</ele>
        <time>1970-01-01T00:52:41.000Z</time>
      </trkpt>
      <trkpt lat="39.807032" lon="-8.735565">
        <ele>88</ele>
        <time>1970-01-01T00:52:42.000Z</time>
      </trkpt>
      <trkpt lat="39.807063" lon="-8.735552">
        <ele>88.1</ele>
        <time>1970-01-01T00:52:43.000Z</time>
      </trkpt>
      <trkpt lat="39.807093" lon="-8.735537">
        <ele>88.1</ele>
        <time>1970-01-01T00:52:44.000Z</time>
      </trkpt>
      <trkpt lat="39.807124" lon="-8.735521">
        <ele>88.1</ele>
        <time>1970-01-01T00:52:45.000Z</time>
      </trkpt>
      <trkpt lat="39.807152" lon="-8.735503">
        <ele>88.2</ele>
        <time>1970-01-01T00:52:46.000Z</time>
      </trkpt>
      <trkpt lat="39.807178" lon="-8.735485">
        <ele>88.2</ele>
        <time>1970-01-01T00:52:47.000Z</time>
      </trkpt>
      <trkpt lat="39.807204" lon="-8.735466">
        <ele>88.3</ele>
        <time>1970-01-01T00:52:48.000Z</time>
      </trkpt>
      <trkpt lat="39.807231" lon="-8.735446">
        <ele>88.3</ele>
        <time>1970-01-01T00:52:49.000Z</time>
      </trkpt>
      <trkpt lat="39.807258" lon="-8.735426">
        <ele>88.3</ele>
        <time>1970-01-01T00:52:50.000Z</time>
      </trkpt>
      <trkpt lat="39.807298" lon="-8.735396">
        <ele>88.4</ele>
        <time>1970-01-01T00:52:52.000Z</time>
      </trkpt>
      <trkpt lat="39.807311" lon="-8.735386">
        <ele>88.4</ele>
        <time>1970-01-01T00:52:52.000Z</time>
      </trkpt>
      <trkpt lat="39.80735" lon="-8.735358">
        <ele>88.5</ele>
        <time>1970-01-01T00:52:54.000Z</time>
      </trkpt>
      <trkpt lat="39.807363" lon="-8.735348">
        <ele>88.5</ele>
        <time>1970-01-01T00:52:54.000Z</time>
      </trkpt>
      <trkpt lat="39.807391" lon="-8.735329">
        <ele>88.6</ele>
        <time>1970-01-01T00:52:55.000Z</time>
      </trkpt>
      <trkpt lat="39.807419" lon="-8.73531">
        <ele>88.6</ele>
        <time>1970-01-01T00:52:56.000Z</time>
      </trkpt>
      <trkpt lat="39.80746" lon="-8.735282">
        <ele>88.7</ele>
        <time>1970-01-01T00:52:58.000Z</time>
      </trkpt>
      <trkpt lat="39.807473" lon="-8.735273">
        <ele>88.8</ele>
        <time>1970-01-01T00:52:58.000Z</time>
      </trkpt>
      <trkpt lat="39.807498" lon="-8.735256">
        <ele>88.9</ele>
        <time>1970-01-01T00:52:59.000Z</time>
      </trkpt>
      <trkpt lat="39.807522" lon="-8.735238">
        <ele>88.9</ele>
        <time>1970-01-01T00:53:00.000Z</time>
      </trkpt>
      <trkpt lat="39.807545" lon="-8.73522">
        <ele>89.1</ele>
        <time>1970-01-01T00:53:01.000Z</time>
      </trkpt>
      <trkpt lat="39.807567" lon="-8.735202">
        <ele>89.2</ele>
        <time>1970-01-01T00:53:02.000Z</time>
      </trkpt>
      <trkpt lat="39.807589" lon="-8.735184">
        <ele>89.3</ele>
        <time>1970-01-01T00:53:03.000Z</time>
      </trkpt>
      <trkpt lat="39.807611" lon="-8.735166">
        <ele>89.4</ele>
        <time>1970-01-01T00:53:04.000Z</time>
      </trkpt>
      <trkpt lat="39.80763" lon="-8.735148">
        <ele>89.5</ele>
        <time>1970-01-01T00:53:05.000Z</time>
      </trkpt>
      <trkpt lat="39.807648" lon="-8.735129">
        <ele>89.6</ele>
        <time>1970-01-01T00:53:06.000Z</time>
      </trkpt>
      <trkpt lat="39.807667" lon="-8.735109">
        <ele>89.7</ele>
        <time>1970-01-01T00:53:07.000Z</time>
      </trkpt>
      <trkpt lat="39.807685" lon="-8.735089">
        <ele>89.8</ele>
        <time>1970-01-01T00:53:08.000Z</time>
      </trkpt>
      <trkpt lat="39.807715" lon="-8.735053">
        <ele>90</ele>
        <time>1970-01-01T00:53:10.000Z</time>
      </trkpt>
      <trkpt lat="39.807719" lon="-8.735047">
        <ele>90</ele>
        <time>1970-01-01T00:53:10.000Z</time>
      </trkpt>
      <trkpt lat="39.807734" lon="-8.735027">
        <ele>90.1</ele>
        <time>1970-01-01T00:53:11.000Z</time>
      </trkpt>
      <trkpt lat="39.807748" lon="-8.735008">
        <ele>90.2</ele>
        <time>1970-01-01T00:53:12.000Z</time>
      </trkpt>
      <trkpt lat="39.807777" lon="-8.734974">
        <ele>90.5</ele>
        <time>1970-01-01T00:53:14.000Z</time>
      </trkpt>
      <trkpt lat="39.807781" lon="-8.734968">
        <ele>90.5</ele>
        <time>1970-01-01T00:53:14.000Z</time>
      </trkpt>
      <trkpt lat="39.807796" lon="-8.734948">
        <ele>90.7</ele>
        <time>1970-01-01T00:53:15.000Z</time>
      </trkpt>
      <trkpt lat="39.80781" lon="-8.734925">
        <ele>90.8</ele>
        <time>1970-01-01T00:53:16.000Z</time>
      </trkpt>
      <trkpt lat="39.807824" lon="-8.7349">
        <ele>91</ele>
        <time>1970-01-01T00:53:17.000Z</time>
      </trkpt>
      <trkpt lat="39.807836" lon="-8.734872">
        <ele>91.2</ele>
        <time>1970-01-01T00:53:18.000Z</time>
      </trkpt>
      <trkpt lat="39.807853" lon="-8.734827">
        <ele>91.6</ele>
        <time>1970-01-01T00:53:20.000Z</time>
      </trkpt>
      <trkpt lat="39.807855" lon="-8.73482">
        <ele>91.7</ele>
        <time>1970-01-01T00:53:20.000Z</time>
      </trkpt>
      <trkpt lat="39.807863" lon="-8.734795">
        <ele>91.9</ele>
        <time>1970-01-01T00:53:21.000Z</time>
      </trkpt>
      <trkpt lat="39.807872" lon="-8.734771">
        <ele>92.1</ele>
        <time>1970-01-01T00:53:22.000Z</time>
      </trkpt>
      <trkpt lat="39.807882" lon="-8.734746">
        <ele>92.4</ele>
        <time>1970-01-01T00:53:23.000Z</time>
      </trkpt>
      <trkpt lat="39.807892" lon="-8.734718">
        <ele>92.6</ele>
        <time>1970-01-01T00:53:24.000Z</time>
      </trkpt>
      <trkpt lat="39.807899" lon="-8.734691">
        <ele>92.9</ele>
        <time>1970-01-01T00:53:25.000Z</time>
      </trkpt>
      <trkpt lat="39.807906" lon="-8.734641">
        <ele>93.3</ele>
        <time>1970-01-01T00:53:27.000Z</time>
      </trkpt>
      <trkpt lat="39.807906" lon="-8.734633">
        <ele>93.4</ele>
        <time>1970-01-01T00:53:27.000Z</time>
      </trkpt>
      <trkpt lat="39.807912" lon="-8.734586">
        <ele>93.8</ele>
        <time>1970-01-01T00:53:29.000Z</time>
      </trkpt>
      <trkpt lat="39.807912" lon="-8.734579">
        <ele>93.8</ele>
        <time>1970-01-01T00:53:29.000Z</time>
      </trkpt>
      <trkpt lat="39.807917" lon="-8.734554">
        <ele>94</ele>
        <time>1970-01-01T00:53:31.000Z</time>
      </trkpt>
      <trkpt lat="39.80792" lon="-8.734529">
        <ele>94.2</ele>
        <time>1970-01-01T00:53:32.000Z</time>
      </trkpt>
      <trkpt lat="39.807923" lon="-8.734504">
        <ele>94.3</ele>
        <time>1970-01-01T00:53:32.000Z</time>
      </trkpt>
      <trkpt lat="39.807928" lon="-8.734476">
        <ele>94.5</ele>
        <time>1970-01-01T00:53:33.000Z</time>
      </trkpt>
      <trkpt lat="39.807937" lon="-8.73443">
        <ele>94.7</ele>
        <time>1970-01-01T00:53:35.000Z</time>
      </trkpt>
      <trkpt lat="39.80794" lon="-8.734415">
        <ele>94.7</ele>
        <time>1970-01-01T00:53:35.000Z</time>
      </trkpt>
      <trkpt lat="39.807949" lon="-8.734382">
        <ele>94.8</ele>
        <time>1970-01-01T00:53:36.000Z</time>
      </trkpt>
      <trkpt lat="39.807964" lon="-8.734326">
        <ele>95</ele>
        <time>1970-01-01T00:53:38.000Z</time>
      </trkpt>
      <trkpt lat="39.807969" lon="-8.734306">
        <ele>95</ele>
        <time>1970-01-01T00:53:38.000Z</time>
      </trkpt>
      <trkpt lat="39.807982" lon="-8.734263">
        <ele>95.1</ele>
        <time>1970-01-01T00:53:39.000Z</time>
      </trkpt>
      <trkpt lat="39.807996" lon="-8.734215">
        <ele>95.1</ele>
        <time>1970-01-01T00:53:40.000Z</time>
      </trkpt>
      <trkpt lat="39.80801" lon="-8.734165">
        <ele>95.2</ele>
        <time>1970-01-01T00:53:42.000Z</time>
      </trkpt>
      <trkpt lat="39.808024" lon="-8.734113">
        <ele>95.2</ele>
        <time>1970-01-01T00:53:42.000Z</time>
      </trkpt>
      <trkpt lat="39.808038" lon="-8.734063">
        <ele>95.2</ele>
        <time>1970-01-01T00:53:43.000Z</time>
      </trkpt>
      <trkpt lat="39.808048" lon="-8.734017">
        <ele>95.3</ele>
        <time>1970-01-01T00:53:44.000Z</time>
      </trkpt>
      <trkpt lat="39.808055" lon="-8.73397">
        <ele>95.3</ele>
        <time>1970-01-01T00:53:45.000Z</time>
      </trkpt>
      <trkpt lat="39.80806" lon="-8.73392">
        <ele>95.3</ele>
        <time>1970-01-01T00:53:46.000Z</time>
      </trkpt>
      <trkpt lat="39.808062" lon="-8.733872">
        <ele>95.4</ele>
        <time>1970-01-01T00:53:47.000Z</time>
      </trkpt>
      <trkpt lat="39.808064" lon="-8.733823">
        <ele>95.4</ele>
        <time>1970-01-01T00:53:48.000Z</time>
      </trkpt>
      <trkpt lat="39.808066" lon="-8.733773">
        <ele>95.4</ele>
        <time>1970-01-01T00:53:49.000Z</time>
      </trkpt>
      <trkpt lat="39.80807" lon="-8.733723">
        <ele>95.4</ele>
        <time>1970-01-01T00:53:50.000Z</time>
      </trkpt>
      <trkpt lat="39.808076" lon="-8.733673">
        <ele>95.5</ele>
        <time>1970-01-01T00:53:51.000Z</time>
      </trkpt>
      <trkpt lat="39.808086" lon="-8.733627">
        <ele>95.5</ele>
        <time>1970-01-01T00:53:53.000Z</time>
      </trkpt>
      <trkpt lat="39.808098" lon="-8.733581">
        <ele>95.6</ele>
        <time>1970-01-01T00:53:54.000Z</time>
      </trkpt>
      <trkpt lat="39.808111" lon="-8.733538">
        <ele>95.6</ele>
        <time>1970-01-01T00:53:54.000Z</time>
      </trkpt>
      <trkpt lat="39.80813" lon="-8.733475">
        <ele>95.7</ele>
        <time>1970-01-01T00:53:56.000Z</time>
      </trkpt>
      <trkpt lat="39.808136" lon="-8.733455">
        <ele>95.8</ele>
        <time>1970-01-01T00:53:56.000Z</time>
      </trkpt>
      <trkpt lat="39.808149" lon="-8.733418">
        <ele>95.9</ele>
        <time>1970-01-01T00:53:57.000Z</time>
      </trkpt>
      <trkpt lat="39.808164" lon="-8.733383">
        <ele>96</ele>
        <time>1970-01-01T00:53:58.000Z</time>
      </trkpt>
      <trkpt lat="39.808182" lon="-8.733352">
        <ele>96.1</ele>
        <time>1970-01-01T00:53:59.000Z</time>
      </trkpt>
      <trkpt lat="39.808215" lon="-8.733314">
        <ele>96.2</ele>
        <time>1970-01-01T00:54:01.000Z</time>
      </trkpt>
      <trkpt lat="39.808225" lon="-8.733302">
        <ele>96.3</ele>
        <time>1970-01-01T00:54:01.000Z</time>
      </trkpt>
      <trkpt lat="39.808247" lon="-8.733282">
        <ele>96.4</ele>
        <time>1970-01-01T00:54:02.000Z</time>
      </trkpt>
      <trkpt lat="39.808267" lon="-8.733265">
        <ele>97.1</ele>
        <time>1970-01-01T00:54:03.000Z</time>
      </trkpt>
      <trkpt lat="39.808287" lon="-8.733248">
        <ele>97.2</ele>
        <time>1970-01-01T00:54:04.000Z</time>
      </trkpt>
      <trkpt lat="39.808307" lon="-8.733234">
        <ele>97.3</ele>
        <time>1970-01-01T00:54:05.000Z</time>
      </trkpt>
      <trkpt lat="39.808343" lon="-8.733211">
        <ele>97.6</ele>
        <time>1970-01-01T00:54:07.000Z</time>
      </trkpt>
      <trkpt lat="39.808348" lon="-8.733207">
        <ele>97.6</ele>
        <time>1970-01-01T00:54:07.000Z</time>
      </trkpt>
      <trkpt lat="39.808384" lon="-8.733181">
        <ele>97.9</ele>
        <time>1970-01-01T00:54:09.000Z</time>
      </trkpt>
      <trkpt lat="39.808389" lon="-8.733176">
        <ele>97.9</ele>
        <time>1970-01-01T00:54:09.000Z</time>
      </trkpt>
      <trkpt lat="39.808407" lon="-8.733158">
        <ele>98.1</ele>
        <time>1970-01-01T00:54:10.000Z</time>
      </trkpt>
      <trkpt lat="39.808423" lon="-8.733139">
        <ele>98.3</ele>
        <time>1970-01-01T00:54:11.000Z</time>
      </trkpt>
      <trkpt lat="39.808435" lon="-8.733123">
        <ele>98.4</ele>
        <time>1970-01-01T00:54:12.000Z</time>
      </trkpt>
      <trkpt lat="39.80845" lon="-8.733105">
        <ele>98.6</ele>
        <time>1970-01-01T00:54:13.000Z</time>
      </trkpt>
      <trkpt lat="39.80847" lon="-8.733086">
        <ele>98.7</ele>
        <time>1970-01-01T00:54:14.000Z</time>
      </trkpt>
      <trkpt lat="39.80849" lon="-8.733069">
        <ele>98.9</ele>
        <time>1970-01-01T00:54:15.000Z</time>
      </trkpt>
      <trkpt lat="39.808511" lon="-8.733053">
        <ele>99.1</ele>
        <time>1970-01-01T00:54:16.000Z</time>
      </trkpt>
      <trkpt lat="39.808531" lon="-8.733036">
        <ele>99.3</ele>
        <time>1970-01-01T00:54:17.000Z</time>
      </trkpt>
      <trkpt lat="39.808551" lon="-8.733016">
        <ele>99.5</ele>
        <time>1970-01-01T00:54:18.000Z</time>
      </trkpt>
      <trkpt lat="39.808578" lon="-8.732979">
        <ele>99.8</ele>
        <time>1970-01-01T00:54:20.000Z</time>
      </trkpt>
      <trkpt lat="39.808581" lon="-8.732973">
        <ele>99.9</ele>
        <time>1970-01-01T00:54:20.000Z</time>
      </trkpt>
      <trkpt lat="39.80859" lon="-8.732953">
        <ele>100</ele>
        <time>1970-01-01T00:54:21.000Z</time>
      </trkpt>
      <trkpt lat="39.808595" lon="-8.732915">
        <ele>100.2</ele>
        <time>1970-01-01T00:54:22.000Z</time>
      </trkpt>
      <trkpt lat="39.808592" lon="-8.732885">
        <ele>100.4</ele>
        <time>1970-01-01T00:54:23.000Z</time>
      </trkpt>
      <trkpt lat="39.808591" lon="-8.732871">
        <ele>100.5</ele>
        <time>1970-01-01T00:54:25.000Z</time>
      </trkpt>
      <trkpt lat="39.80859" lon="-8.732858">
        <ele>100.6</ele>
        <time>1970-01-01T00:54:26.000Z</time>
      </trkpt>
      <trkpt lat="39.808589" lon="-8.732845">
        <ele>101</ele>
        <time>1970-01-01T00:54:26.000Z</time>
      </trkpt>
      <trkpt lat="39.808582" lon="-8.732821">
        <ele>101</ele>
        <time>1970-01-01T00:54:27.000Z</time>
      </trkpt>
      <trkpt lat="39.808574" lon="-8.7328">
        <ele>101</ele>
        <time>1970-01-01T00:54:28.000Z</time>
      </trkpt>
      <trkpt lat="39.808565" lon="-8.732777">
        <ele>101</ele>
        <time>1970-01-01T00:54:29.000Z</time>
      </trkpt>
      <trkpt lat="39.808547" lon="-8.732732">
        <ele>101.1</ele>
        <time>1970-01-01T00:54:31.000Z</time>
      </trkpt>
      <trkpt lat="39.808544" lon="-8.732726">
        <ele>101.1</ele>
        <time>1970-01-01T00:54:31.000Z</time>
      </trkpt>
      <trkpt lat="39.808533" lon="-8.7327">
        <ele>101.1</ele>
        <time>1970-01-01T00:54:32.000Z</time>
      </trkpt>
      <trkpt lat="39.808523" lon="-8.732673">
        <ele>101.1</ele>
        <time>1970-01-01T00:54:33.000Z</time>
      </trkpt>
      <trkpt lat="39.808507" lon="-8.732625">
        <ele>101.2</ele>
        <time>1970-01-01T00:54:35.000Z</time>
      </trkpt>
      <trkpt lat="39.808501" lon="-8.732608">
        <ele>101.2</ele>
        <time>1970-01-01T00:54:35.000Z</time>
      </trkpt>
      <trkpt lat="39.808491" lon="-8.732572">
        <ele>101.3</ele>
        <time>1970-01-01T00:54:36.000Z</time>
      </trkpt>
      <trkpt lat="39.808481" lon="-8.732533">
        <ele>101.3</ele>
        <time>1970-01-01T00:54:37.000Z</time>
      </trkpt>
      <trkpt lat="39.808469" lon="-8.732491">
        <ele>101.3</ele>
        <time>1970-01-01T00:54:38.000Z</time>
      </trkpt>
      <trkpt lat="39.808457" lon="-8.732446">
        <ele>101.4</ele>
        <time>1970-01-01T00:54:39.000Z</time>
      </trkpt>
      <trkpt lat="39.808446" lon="-8.732398">
        <ele>101.4</ele>
        <time>1970-01-01T00:54:40.000Z</time>
      </trkpt>
      <trkpt lat="39.80843" lon="-8.732347">
        <ele>101.5</ele>
        <time>1970-01-01T00:54:42.000Z</time>
      </trkpt>
      <trkpt lat="39.808414" lon="-8.732296">
        <ele>101.6</ele>
        <time>1970-01-01T00:54:42.000Z</time>
      </trkpt>
      <trkpt lat="39.808398" lon="-8.732246">
        <ele>101.6</ele>
        <time>1970-01-01T00:54:43.000Z</time>
      </trkpt>
      <trkpt lat="39.808385" lon="-8.7322">
        <ele>101.6</ele>
        <time>1970-01-01T00:54:44.000Z</time>
      </trkpt>
      <trkpt lat="39.808372" lon="-8.73215">
        <ele>101.7</ele>
        <time>1970-01-01T00:54:45.000Z</time>
      </trkpt>
      <trkpt lat="39.808361" lon="-8.732101">
        <ele>101.7</ele>
        <time>1970-01-01T00:54:46.000Z</time>
      </trkpt>
      <trkpt lat="39.808353" lon="-8.732049">
        <ele>101.8</ele>
        <time>1970-01-01T00:54:48.000Z</time>
      </trkpt>
      <trkpt lat="39.808348" lon="-8.731997">
        <ele>101.9</ele>
        <time>1970-01-01T00:54:48.000Z</time>
      </trkpt>
      <trkpt lat="39.808345" lon="-8.731945">
        <ele>101.9</ele>
        <time>1970-01-01T00:54:50.000Z</time>
      </trkpt>
      <trkpt lat="39.808343" lon="-8.731893">
        <ele>102</ele>
        <time>1970-01-01T00:54:50.000Z</time>
      </trkpt>
      <trkpt lat="39.80834" lon="-8.731843">
        <ele>102</ele>
        <time>1970-01-01T00:54:51.000Z</time>
      </trkpt>
      <trkpt lat="39.808337" lon="-8.731792">
        <ele>102.1</ele>
        <time>1970-01-01T00:54:52.000Z</time>
      </trkpt>
      <trkpt lat="39.808332" lon="-8.731742">
        <ele>102.2</ele>
        <time>1970-01-01T00:54:54.000Z</time>
      </trkpt>
      <trkpt lat="39.808328" lon="-8.731691">
        <ele>102.2</ele>
        <time>1970-01-01T00:54:54.000Z</time>
      </trkpt>
      <trkpt lat="39.808325" lon="-8.731641">
        <ele>102.3</ele>
        <time>1970-01-01T00:54:55.000Z</time>
      </trkpt>
      <trkpt lat="39.808323" lon="-8.731591">
        <ele>102.3</ele>
        <time>1970-01-01T00:54:56.000Z</time>
      </trkpt>
      <trkpt lat="39.808321" lon="-8.731543">
        <ele>102.4</ele>
        <time>1970-01-01T00:54:58.000Z</time>
      </trkpt>
      <trkpt lat="39.808319" lon="-8.731493">
        <ele>102.5</ele>
        <time>1970-01-01T00:54:58.000Z</time>
      </trkpt>
      <trkpt lat="39.808315" lon="-8.73144">
        <ele>102.5</ele>
        <time>1970-01-01T00:54:59.000Z</time>
      </trkpt>
      <trkpt lat="39.80831" lon="-8.73139">
        <ele>102.6</ele>
        <time>1970-01-01T00:55:00.000Z</time>
      </trkpt>
      <trkpt lat="39.808305" lon="-8.73134">
        <ele>102.6</ele>
        <time>1970-01-01T00:55:01.000Z</time>
      </trkpt>
      <trkpt lat="39.808301" lon="-8.73129">
        <ele>102.7</ele>
        <time>1970-01-01T00:55:02.000Z</time>
      </trkpt>
      <trkpt lat="39.808295" lon="-8.73124">
        <ele>102.7</ele>
        <time>1970-01-01T00:55:03.000Z</time>
      </trkpt>
      <trkpt lat="39.808291" lon="-8.731189">
        <ele>102.8</ele>
        <time>1970-01-01T00:55:04.000Z</time>
      </trkpt>
      <trkpt lat="39.808288" lon="-8.731141">
        <ele>102.8</ele>
        <time>1970-01-01T00:55:05.000Z</time>
      </trkpt>
      <trkpt lat="39.808287" lon="-8.731094">
        <ele>102.8</ele>
        <time>1970-01-01T00:55:06.000Z</time>
      </trkpt>
      <trkpt lat="39.808288" lon="-8.731045">
        <ele>102.8</ele>
        <time>1970-01-01T00:55:07.000Z</time>
      </trkpt>
      <trkpt lat="39.808283" lon="-8.730993">
        <ele>102.8</ele>
        <time>1970-01-01T00:55:08.000Z</time>
      </trkpt>
      <trkpt lat="39.808276" lon="-8.730942">
        <ele>102.8</ele>
        <time>1970-01-01T00:55:09.000Z</time>
      </trkpt>
      <trkpt lat="39.808267" lon="-8.73089">
        <ele>102.8</ele>
        <time>1970-01-01T00:55:10.000Z</time>
      </trkpt>
      <trkpt lat="39.808262" lon="-8.730837">
        <ele>102.8</ele>
        <time>1970-01-01T00:55:11.000Z</time>
      </trkpt>
      <trkpt lat="39.808262" lon="-8.730779">
        <ele>102.8</ele>
        <time>1970-01-01T00:55:12.000Z</time>
      </trkpt>
      <trkpt lat="39.808264" lon="-8.730717">
        <ele>102.8</ele>
        <time>1970-01-01T00:55:13.000Z</time>
      </trkpt>
      <trkpt lat="39.808267" lon="-8.73066">
        <ele>102.8</ele>
        <time>1970-01-01T00:55:14.000Z</time>
      </trkpt>
      <trkpt lat="39.808273" lon="-8.730606">
        <ele>102.8</ele>
        <time>1970-01-01T00:55:15.000Z</time>
      </trkpt>
      <trkpt lat="39.808279" lon="-8.730556">
        <ele>102.8</ele>
        <time>1970-01-01T00:55:16.000Z</time>
      </trkpt>
      <trkpt lat="39.808286" lon="-8.730505">
        <ele>102.7</ele>
        <time>1970-01-01T00:55:17.000Z</time>
      </trkpt>
      <trkpt lat="39.808293" lon="-8.730454">
        <ele>102.7</ele>
        <time>1970-01-01T00:55:19.000Z</time>
      </trkpt>
      <trkpt lat="39.808301" lon="-8.730404">
        <ele>102.7</ele>
        <time>1970-01-01T00:55:20.000Z</time>
      </trkpt>
      <trkpt lat="39.808311" lon="-8.730354">
        <ele>102.7</ele>
        <time>1970-01-01T00:55:20.000Z</time>
      </trkpt>
      <trkpt lat="39.808321" lon="-8.730308">
        <ele>102.7</ele>
        <time>1970-01-01T00:55:21.000Z</time>
      </trkpt>
      <trkpt lat="39.808331" lon="-8.730261">
        <ele>102.7</ele>
        <time>1970-01-01T00:55:22.000Z</time>
      </trkpt>
      <trkpt lat="39.80834" lon="-8.730212">
        <ele>102.6</ele>
        <time>1970-01-01T00:55:23.000Z</time>
      </trkpt>
      <trkpt lat="39.808349" lon="-8.730161">
        <ele>102.6</ele>
        <time>1970-01-01T00:55:24.000Z</time>
      </trkpt>
      <trkpt lat="39.808357" lon="-8.73011">
        <ele>102.6</ele>
        <time>1970-01-01T00:55:25.000Z</time>
      </trkpt>
      <trkpt lat="39.808365" lon="-8.730056">
        <ele>102.5</ele>
        <time>1970-01-01T00:55:26.000Z</time>
      </trkpt>
      <trkpt lat="39.808374" lon="-8.730003">
        <ele>102.5</ele>
        <time>1970-01-01T00:55:28.000Z</time>
      </trkpt>
      <trkpt lat="39.808384" lon="-8.72995">
        <ele>102.5</ele>
        <time>1970-01-01T00:55:28.000Z</time>
      </trkpt>
      <trkpt lat="39.808391" lon="-8.729902">
        <ele>102.5</ele>
        <time>1970-01-01T00:55:29.000Z</time>
      </trkpt>
      <trkpt lat="39.808398" lon="-8.729854">
        <ele>102.4</ele>
        <time>1970-01-01T00:55:30.000Z</time>
      </trkpt>
      <trkpt lat="39.808407" lon="-8.729806">
        <ele>102.4</ele>
        <time>1970-01-01T00:55:31.000Z</time>
      </trkpt>
      <trkpt lat="39.808418" lon="-8.729759">
        <ele>102.4</ele>
        <time>1970-01-01T00:55:32.000Z</time>
      </trkpt>
      <trkpt lat="39.808432" lon="-8.729716">
        <ele>102.5</ele>
        <time>1970-01-01T00:55:34.000Z</time>
      </trkpt>
      <trkpt lat="39.808449" lon="-8.729679">
        <ele>102.7</ele>
        <time>1970-01-01T00:55:34.000Z</time>
      </trkpt>
      <trkpt lat="39.808469" lon="-8.729652">
        <ele>102.8</ele>
        <time>1970-01-01T00:55:35.000Z</time>
      </trkpt>
      <trkpt lat="39.808493" lon="-8.729638">
        <ele>103</ele>
        <time>1970-01-01T00:55:36.000Z</time>
      </trkpt>
      <trkpt lat="39.808524" lon="-8.72963">
        <ele>103.1</ele>
        <time>1970-01-01T00:55:37.000Z</time>
      </trkpt>
      <trkpt lat="39.808552" lon="-8.729624">
        <ele>103.3</ele>
        <time>1970-01-01T00:55:39.000Z</time>
      </trkpt>
      <trkpt lat="39.80858" lon="-8.729617">
        <ele>103.5</ele>
        <time>1970-01-01T00:55:40.000Z</time>
      </trkpt>
      <trkpt lat="39.808607" lon="-8.729604">
        <ele>103.6</ele>
        <time>1970-01-01T00:55:40.000Z</time>
      </trkpt>
      <trkpt lat="39.808633" lon="-8.729587">
        <ele>103.8</ele>
        <time>1970-01-01T00:55:41.000Z</time>
      </trkpt>
      <trkpt lat="39.80866" lon="-8.729562">
        <ele>103.9</ele>
        <time>1970-01-01T00:55:42.000Z</time>
      </trkpt>
      <trkpt lat="39.808685" lon="-8.729535">
        <ele>104</ele>
        <time>1970-01-01T00:55:43.000Z</time>
      </trkpt>
      <trkpt lat="39.808709" lon="-8.729506">
        <ele>104.2</ele>
        <time>1970-01-01T00:55:44.000Z</time>
      </trkpt>
      <trkpt lat="39.80873" lon="-8.729476">
        <ele>104.4</ele>
        <time>1970-01-01T00:55:45.000Z</time>
      </trkpt>
      <trkpt lat="39.808749" lon="-8.729446">
        <ele>104.6</ele>
        <time>1970-01-01T00:55:46.000Z</time>
      </trkpt>
      <trkpt lat="39.808775" lon="-8.729406">
        <ele>104.8</ele>
        <time>1970-01-01T00:55:48.000Z</time>
      </trkpt>
      <trkpt lat="39.808783" lon="-8.729392">
        <ele>104.9</ele>
        <time>1970-01-01T00:55:48.000Z</time>
      </trkpt>
      <trkpt lat="39.8088" lon="-8.729367">
        <ele>105.1</ele>
        <time>1970-01-01T00:55:49.000Z</time>
      </trkpt>
      <trkpt lat="39.808818" lon="-8.729343">
        <ele>105.3</ele>
        <time>1970-01-01T00:55:50.000Z</time>
      </trkpt>
      <trkpt lat="39.808834" lon="-8.729318">
        <ele>105.5</ele>
        <time>1970-01-01T00:55:51.000Z</time>
      </trkpt>
      <trkpt lat="39.80885" lon="-8.729295">
        <ele>105.7</ele>
        <time>1970-01-01T00:55:52.000Z</time>
      </trkpt>
      <trkpt lat="39.808867" lon="-8.72927">
        <ele>105.9</ele>
        <time>1970-01-01T00:55:53.000Z</time>
      </trkpt>
      <trkpt lat="39.808885" lon="-8.729242">
        <ele>106.2</ele>
        <time>1970-01-01T00:55:54.000Z</time>
      </trkpt>
      <trkpt lat="39.8089" lon="-8.729218">
        <ele>106.4</ele>
        <time>1970-01-01T00:55:55.000Z</time>
      </trkpt>
      <trkpt lat="39.808915" lon="-8.729194">
        <ele>106.5</ele>
        <time>1970-01-01T00:55:56.000Z</time>
      </trkpt>
      <trkpt lat="39.808928" lon="-8.729173">
        <ele>106.7</ele>
        <time>1970-01-01T00:55:57.000Z</time>
      </trkpt>
      <trkpt lat="39.808942" lon="-8.729151">
        <ele>106.9</ele>
        <time>1970-01-01T00:55:58.000Z</time>
      </trkpt>
      <trkpt lat="39.808956" lon="-8.729129">
        <ele>107.1</ele>
        <time>1970-01-01T00:55:59.000Z</time>
      </trkpt>
      <trkpt lat="39.808969" lon="-8.729105">
        <ele>107.3</ele>
        <time>1970-01-01T00:56:00.000Z</time>
      </trkpt>
      <trkpt lat="39.808982" lon="-8.729081">
        <ele>107.5</ele>
        <time>1970-01-01T00:56:01.000Z</time>
      </trkpt>
      <trkpt lat="39.808993" lon="-8.729057">
        <ele>107.7</ele>
        <time>1970-01-01T00:56:02.000Z</time>
      </trkpt>
      <trkpt lat="39.809004" lon="-8.729035">
        <ele>107.9</ele>
        <time>1970-01-01T00:56:03.000Z</time>
      </trkpt>
      <trkpt lat="39.809015" lon="-8.729014">
        <ele>108.1</ele>
        <time>1970-01-01T00:56:04.000Z</time>
      </trkpt>
      <trkpt lat="39.809038" lon="-8.728977">
        <ele>108.5</ele>
        <time>1970-01-01T00:56:06.000Z</time>
      </trkpt>
      <trkpt lat="39.809041" lon="-8.728971">
        <ele>108.5</ele>
        <time>1970-01-01T00:56:06.000Z</time>
      </trkpt>
      <trkpt lat="39.809056" lon="-8.728951">
        <ele>108.8</ele>
        <time>1970-01-01T00:56:07.000Z</time>
      </trkpt>
      <trkpt lat="39.809072" lon="-8.728933">
        <ele>109</ele>
        <time>1970-01-01T00:56:08.000Z</time>
      </trkpt>
      <trkpt lat="39.80909" lon="-8.728916">
        <ele>109.2</ele>
        <time>1970-01-01T00:56:09.000Z</time>
      </trkpt>
      <trkpt lat="39.809107" lon="-8.7289">
        <ele>109.4</ele>
        <time>1970-01-01T00:56:10.000Z</time>
      </trkpt>
      <trkpt lat="39.80914" lon="-8.728874">
        <ele>109.8</ele>
        <time>1970-01-01T00:56:12.000Z</time>
      </trkpt>
      <trkpt lat="39.809146" lon="-8.728869">
        <ele>109.9</ele>
        <time>1970-01-01T00:56:13.000Z</time>
      </trkpt>
      <trkpt lat="39.809153" lon="-8.728864">
        <ele>110</ele>
        <time>1970-01-01T00:56:13.000Z</time>
      </trkpt>
      <trkpt lat="39.809171" lon="-8.728852">
        <ele>110.2</ele>
        <time>1970-01-01T00:56:14.000Z</time>
      </trkpt>
      <trkpt lat="39.809189" lon="-8.728841">
        <ele>110.5</ele>
        <time>1970-01-01T00:56:15.000Z</time>
      </trkpt>
      <trkpt lat="39.809206" lon="-8.728832">
        <ele>110.7</ele>
        <time>1970-01-01T00:56:16.000Z</time>
      </trkpt>
      <trkpt lat="39.809225" lon="-8.728822">
        <ele>110.9</ele>
        <time>1970-01-01T00:56:17.000Z</time>
      </trkpt>
      <trkpt lat="39.809261" lon="-8.728801">
        <ele>111.3</ele>
        <time>1970-01-01T00:56:19.000Z</time>
      </trkpt>
      <trkpt lat="39.809265" lon="-8.728798">
        <ele>111.4</ele>
        <time>1970-01-01T00:56:19.000Z</time>
      </trkpt>
      <trkpt lat="39.809285" lon="-8.728788">
        <ele>111.6</ele>
        <time>1970-01-01T00:56:20.000Z</time>
      </trkpt>
      <trkpt lat="39.809306" lon="-8.728779">
        <ele>111.8</ele>
        <time>1970-01-01T00:56:21.000Z</time>
      </trkpt>
      <trkpt lat="39.809327" lon="-8.728772">
        <ele>111.9</ele>
        <time>1970-01-01T00:56:22.000Z</time>
      </trkpt>
      <trkpt lat="39.809349" lon="-8.728765">
        <ele>112.1</ele>
        <time>1970-01-01T00:56:24.000Z</time>
      </trkpt>
      <trkpt lat="39.809372" lon="-8.728758">
        <ele>112.2</ele>
        <time>1970-01-01T00:56:25.000Z</time>
      </trkpt>
      <trkpt lat="39.809392" lon="-8.728754">
        <ele>112.3</ele>
        <time>1970-01-01T00:56:25.000Z</time>
      </trkpt>
      <trkpt lat="39.809412" lon="-8.728748">
        <ele>112.5</ele>
        <time>1970-01-01T00:56:26.000Z</time>
      </trkpt>
      <trkpt lat="39.809432" lon="-8.728742">
        <ele>112.6</ele>
        <time>1970-01-01T00:56:27.000Z</time>
      </trkpt>
      <trkpt lat="39.809451" lon="-8.728735">
        <ele>112.8</ele>
        <time>1970-01-01T00:56:28.000Z</time>
      </trkpt>
      <trkpt lat="39.80947" lon="-8.728726">
        <ele>112.9</ele>
        <time>1970-01-01T00:56:29.000Z</time>
      </trkpt>
      <trkpt lat="39.809488" lon="-8.728716">
        <ele>113</ele>
        <time>1970-01-01T00:56:30.000Z</time>
      </trkpt>
      <trkpt lat="39.809517" lon="-8.728695">
        <ele>113.4</ele>
        <time>1970-01-01T00:56:32.000Z</time>
      </trkpt>
      <trkpt lat="39.809521" lon="-8.728691">
        <ele>113.4</ele>
        <time>1970-01-01T00:56:32.000Z</time>
      </trkpt>
      <trkpt lat="39.809534" lon="-8.728678">
        <ele>113.6</ele>
        <time>1970-01-01T00:56:33.000Z</time>
      </trkpt>
      <trkpt lat="39.809547" lon="-8.728661">
        <ele>113.7</ele>
        <time>1970-01-01T00:56:34.000Z</time>
      </trkpt>
      <trkpt lat="39.809559" lon="-8.728643">
        <ele>113.9</ele>
        <time>1970-01-01T00:56:35.000Z</time>
      </trkpt>
      <trkpt lat="39.809571" lon="-8.728625">
        <ele>114.1</ele>
        <time>1970-01-01T00:56:36.000Z</time>
      </trkpt>
      <trkpt lat="39.809585" lon="-8.728604">
        <ele>114.3</ele>
        <time>1970-01-01T00:56:37.000Z</time>
      </trkpt>
      <trkpt lat="39.809612" lon="-8.728566">
        <ele>114.6</ele>
        <time>1970-01-01T00:56:39.000Z</time>
      </trkpt>
      <trkpt lat="39.809615" lon="-8.72856">
        <ele>114.7</ele>
        <time>1970-01-01T00:56:39.000Z</time>
      </trkpt>
      <trkpt lat="39.809629" lon="-8.728538">
        <ele>114.9</ele>
        <time>1970-01-01T00:56:40.000Z</time>
      </trkpt>
      <trkpt lat="39.809643" lon="-8.728517">
        <ele>115</ele>
        <time>1970-01-01T00:56:41.000Z</time>
      </trkpt>
      <trkpt lat="39.80966" lon="-8.728496">
        <ele>115.2</ele>
        <time>1970-01-01T00:56:42.000Z</time>
      </trkpt>
      <trkpt lat="39.80968" lon="-8.728475">
        <ele>115.4</ele>
        <time>1970-01-01T00:56:43.000Z</time>
      </trkpt>
      <trkpt lat="39.809701" lon="-8.728453">
        <ele>115.6</ele>
        <time>1970-01-01T00:56:44.000Z</time>
      </trkpt>
      <trkpt lat="39.80972" lon="-8.728434">
        <ele>115.8</ele>
        <time>1970-01-01T00:56:45.000Z</time>
      </trkpt>
      <trkpt lat="39.809737" lon="-8.728418">
        <ele>116</ele>
        <time>1970-01-01T00:56:46.000Z</time>
      </trkpt>
      <trkpt lat="39.809752" lon="-8.728402">
        <ele>116.1</ele>
        <time>1970-01-01T00:56:47.000Z</time>
      </trkpt>
      <trkpt lat="39.809778" lon="-8.728375">
        <ele>116.3</ele>
        <time>1970-01-01T00:56:49.000Z</time>
      </trkpt>
      <trkpt lat="39.809781" lon="-8.728371">
        <ele>116.3</ele>
        <time>1970-01-01T00:56:49.000Z</time>
      </trkpt>
      <trkpt lat="39.809794" lon="-8.728356">
        <ele>116.5</ele>
        <time>1970-01-01T00:56:50.000Z</time>
      </trkpt>
      <trkpt lat="39.809808" lon="-8.728342">
        <ele>116.6</ele>
        <time>1970-01-01T00:56:51.000Z</time>
      </trkpt>
      <trkpt lat="39.809823" lon="-8.728328">
        <ele>116.7</ele>
        <time>1970-01-01T00:56:52.000Z</time>
      </trkpt>
      <trkpt lat="39.809838" lon="-8.728315">
        <ele>116.8</ele>
        <time>1970-01-01T00:56:53.000Z</time>
      </trkpt>
      <trkpt lat="39.809852" lon="-8.728302">
        <ele>116.9</ele>
        <time>1970-01-01T00:56:54.000Z</time>
      </trkpt>
      <trkpt lat="39.809864" lon="-8.728289">
        <ele>117</ele>
        <time>1970-01-01T00:56:55.000Z</time>
      </trkpt>
      <trkpt lat="39.809874" lon="-8.728275">
        <ele>117</ele>
        <time>1970-01-01T00:56:56.000Z</time>
      </trkpt>
      <trkpt lat="39.809883" lon="-8.728257">
        <ele>117.1</ele>
        <time>1970-01-01T00:56:57.000Z</time>
      </trkpt>
      <trkpt lat="39.809894" lon="-8.728239">
        <ele>117.2</ele>
        <time>1970-01-01T00:56:58.000Z</time>
      </trkpt>
      <trkpt lat="39.809906" lon="-8.728222">
        <ele>117.3</ele>
        <time>1970-01-01T00:56:59.000Z</time>
      </trkpt>
      <trkpt lat="39.80992" lon="-8.728206">
        <ele>117.4</ele>
        <time>1970-01-01T00:57:00.000Z</time>
      </trkpt>
      <trkpt lat="39.809936" lon="-8.728192">
        <ele>117.5</ele>
        <time>1970-01-01T00:57:01.000Z</time>
      </trkpt>
      <trkpt lat="39.809957" lon="-8.728177">
        <ele>117.6</ele>
        <time>1970-01-01T00:57:02.000Z</time>
      </trkpt>
      <trkpt lat="39.809979" lon="-8.728161">
        <ele>117.7</ele>
        <time>1970-01-01T00:57:03.000Z</time>
      </trkpt>
      <trkpt lat="39.81" lon="-8.728145">
        <ele>117.9</ele>
        <time>1970-01-01T00:57:04.000Z</time>
      </trkpt>
      <trkpt lat="39.810021" lon="-8.72813">
        <ele>118</ele>
        <time>1970-01-01T00:57:05.000Z</time>
      </trkpt>
      <trkpt lat="39.810041" lon="-8.728116">
        <ele>118.1</ele>
        <time>1970-01-01T00:57:06.000Z</time>
      </trkpt>
      <trkpt lat="39.810062" lon="-8.728099">
        <ele>118.2</ele>
        <time>1970-01-01T00:57:07.000Z</time>
      </trkpt>
      <trkpt lat="39.810093" lon="-8.728072">
        <ele>118.4</ele>
        <time>1970-01-01T00:57:09.000Z</time>
      </trkpt>
      <trkpt lat="39.810097" lon="-8.728068">
        <ele>118.5</ele>
        <time>1970-01-01T00:57:09.000Z</time>
      </trkpt>
      <trkpt lat="39.810113" lon="-8.728051">
        <ele>118.6</ele>
        <time>1970-01-01T00:57:10.000Z</time>
      </trkpt>
      <trkpt lat="39.810134" lon="-8.728036">
        <ele>118.7</ele>
        <time>1970-01-01T00:57:11.000Z</time>
      </trkpt>
      <trkpt lat="39.810156" lon="-8.728025">
        <ele>118.8</ele>
        <time>1970-01-01T00:57:12.000Z</time>
      </trkpt>
      <trkpt lat="39.810176" lon="-8.728018">
        <ele>118.9</ele>
        <time>1970-01-01T00:57:13.000Z</time>
      </trkpt>
      <trkpt lat="39.810194" lon="-8.728012">
        <ele>119</ele>
        <time>1970-01-01T00:57:14.000Z</time>
      </trkpt>
      <trkpt lat="39.810213" lon="-8.728008">
        <ele>119.2</ele>
        <time>1970-01-01T00:57:15.000Z</time>
      </trkpt>
      <trkpt lat="39.810247" lon="-8.728001">
        <ele>119.4</ele>
        <time>1970-01-01T00:57:17.000Z</time>
      </trkpt>
      <trkpt lat="39.810252" lon="-8.728">
        <ele>119.4</ele>
        <time>1970-01-01T00:57:17.000Z</time>
      </trkpt>
      <trkpt lat="39.810273" lon="-8.727994">
        <ele>119.5</ele>
        <time>1970-01-01T00:57:18.000Z</time>
      </trkpt>
      <trkpt lat="39.810294" lon="-8.727987">
        <ele>119.7</ele>
        <time>1970-01-01T00:57:19.000Z</time>
      </trkpt>
      <trkpt lat="39.810326" lon="-8.727979">
        <ele>119.9</ele>
        <time>1970-01-01T00:57:21.000Z</time>
      </trkpt>
      <trkpt lat="39.81033" lon="-8.727978">
        <ele>119.9</ele>
        <time>1970-01-01T00:57:21.000Z</time>
      </trkpt>
      <trkpt lat="39.810348" lon="-8.727976">
        <ele>120</ele>
        <time>1970-01-01T00:57:22.000Z</time>
      </trkpt>
      <trkpt lat="39.810368" lon="-8.727976">
        <ele>120.2</ele>
        <time>1970-01-01T00:57:23.000Z</time>
      </trkpt>
      <trkpt lat="39.810387" lon="-8.727976">
        <ele>120.4</ele>
        <time>1970-01-01T00:57:24.000Z</time>
      </trkpt>
      <trkpt lat="39.810407" lon="-8.727975">
        <ele>120.5</ele>
        <time>1970-01-01T00:57:25.000Z</time>
      </trkpt>
      <trkpt lat="39.810427" lon="-8.727971">
        <ele>120.7</ele>
        <time>1970-01-01T00:57:26.000Z</time>
      </trkpt>
      <trkpt lat="39.810445" lon="-8.727965">
        <ele>120.9</ele>
        <time>1970-01-01T00:57:27.000Z</time>
      </trkpt>
      <trkpt lat="39.810464" lon="-8.727957">
        <ele>121.1</ele>
        <time>1970-01-01T00:57:28.000Z</time>
      </trkpt>
      <trkpt lat="39.810481" lon="-8.727948">
        <ele>121.3</ele>
        <time>1970-01-01T00:57:30.000Z</time>
      </trkpt>
      <trkpt lat="39.810501" lon="-8.727941">
        <ele>121.5</ele>
        <time>1970-01-01T00:57:31.000Z</time>
      </trkpt>
      <trkpt lat="39.810521" lon="-8.727934">
        <ele>121.7</ele>
        <time>1970-01-01T00:57:31.000Z</time>
      </trkpt>
      <trkpt lat="39.810547" lon="-8.727921">
        <ele>122.1</ele>
        <time>1970-01-01T00:57:32.000Z</time>
      </trkpt>
      <trkpt lat="39.810563" lon="-8.727911">
        <ele>122.3</ele>
        <time>1970-01-01T00:57:33.000Z</time>
      </trkpt>
      <trkpt lat="39.81057" lon="-8.727908">
        <ele>122.4</ele>
        <time>1970-01-01T00:57:35.000Z</time>
      </trkpt>
      <trkpt lat="39.810576" lon="-8.727904">
        <ele>122.4</ele>
        <time>1970-01-01T00:57:35.000Z</time>
      </trkpt>
      <trkpt lat="39.810589" lon="-8.727898">
        <ele>122.6</ele>
        <time>1970-01-01T00:57:36.000Z</time>
      </trkpt>
      <trkpt lat="39.810602" lon="-8.72789">
        <ele>122.8</ele>
        <time>1970-01-01T00:57:37.000Z</time>
      </trkpt>
      <trkpt lat="39.810614" lon="-8.727881">
        <ele>122.9</ele>
        <time>1970-01-01T00:57:38.000Z</time>
      </trkpt>
      <trkpt lat="39.810626" lon="-8.727873">
        <ele>123.1</ele>
        <time>1970-01-01T00:57:39.000Z</time>
      </trkpt>
      <trkpt lat="39.810637" lon="-8.727864">
        <ele>123.2</ele>
        <time>1970-01-01T00:57:40.000Z</time>
      </trkpt>
      <trkpt lat="39.810652" lon="-8.727854">
        <ele>123.4</ele>
        <time>1970-01-01T00:57:41.000Z</time>
      </trkpt>
      <trkpt lat="39.81067" lon="-8.727841">
        <ele>123.7</ele>
        <time>1970-01-01T00:57:42.000Z</time>
      </trkpt>
      <trkpt lat="39.810689" lon="-8.727826">
        <ele>123.9</ele>
        <time>1970-01-01T00:57:43.000Z</time>
      </trkpt>
      <trkpt lat="39.81072" lon="-8.727798">
        <ele>124.1</ele>
        <time>1970-01-01T00:57:45.000Z</time>
      </trkpt>
      <trkpt lat="39.810729" lon="-8.727788">
        <ele>124.1</ele>
        <time>1970-01-01T00:57:45.000Z</time>
      </trkpt>
      <trkpt lat="39.810748" lon="-8.727762">
        <ele>124</ele>
        <time>1970-01-01T00:57:46.000Z</time>
      </trkpt>
      <trkpt lat="39.81077" lon="-8.727732">
        <ele>123.9</ele>
        <time>1970-01-01T00:57:47.000Z</time>
      </trkpt>
      <trkpt lat="39.810794" lon="-8.727692">
        <ele>123.7</ele>
        <time>1970-01-01T00:57:48.000Z</time>
      </trkpt>
      <trkpt lat="39.810816" lon="-8.727651">
        <ele>123.5</ele>
        <time>1970-01-01T00:57:49.000Z</time>
      </trkpt>
      <trkpt lat="39.810844" lon="-8.727609">
        <ele>123.2</ele>
        <time>1970-01-01T00:57:51.000Z</time>
      </trkpt>
      <trkpt lat="39.810875" lon="-8.727567">
        <ele>122.9</ele>
        <time>1970-01-01T00:57:51.000Z</time>
      </trkpt>
      <trkpt lat="39.810909" lon="-8.727525">
        <ele>122.5</ele>
        <time>1970-01-01T00:57:52.000Z</time>
      </trkpt>
      <trkpt lat="39.810943" lon="-8.727482">
        <ele>122.1</ele>
        <time>1970-01-01T00:57:53.000Z</time>
      </trkpt>
      <trkpt lat="39.810974" lon="-8.727442">
        <ele>121.8</ele>
        <time>1970-01-01T00:57:54.000Z</time>
      </trkpt>
      <trkpt lat="39.811002" lon="-8.727405">
        <ele>121.6</ele>
        <time>1970-01-01T00:57:55.000Z</time>
      </trkpt>
      <trkpt lat="39.811027" lon="-8.727368">
        <ele>121.4</ele>
        <time>1970-01-01T00:57:57.000Z</time>
      </trkpt>
      <trkpt lat="39.811054" lon="-8.727329">
        <ele>121.1</ele>
        <time>1970-01-01T00:57:57.000Z</time>
      </trkpt>
      <trkpt lat="39.811086" lon="-8.72729">
        <ele>120.9</ele>
        <time>1970-01-01T00:57:58.000Z</time>
      </trkpt>
      <trkpt lat="39.811117" lon="-8.727253">
        <ele>120.8</ele>
        <time>1970-01-01T00:57:59.000Z</time>
      </trkpt>
      <trkpt lat="39.811147" lon="-8.727216">
        <ele>120.7</ele>
        <time>1970-01-01T00:58:00.000Z</time>
      </trkpt>
      <trkpt lat="39.811176" lon="-8.727181">
        <ele>120.5</ele>
        <time>1970-01-01T00:58:01.000Z</time>
      </trkpt>
      <trkpt lat="39.811204" lon="-8.727143">
        <ele>120.4</ele>
        <time>1970-01-01T00:58:02.000Z</time>
      </trkpt>
      <trkpt lat="39.811235" lon="-8.727099">
        <ele>120.3</ele>
        <time>1970-01-01T00:58:03.000Z</time>
      </trkpt>
      <trkpt lat="39.811266" lon="-8.72705">
        <ele>120.1</ele>
        <time>1970-01-01T00:58:04.000Z</time>
      </trkpt>
      <trkpt lat="39.811296" lon="-8.727001">
        <ele>120</ele>
        <time>1970-01-01T00:58:06.000Z</time>
      </trkpt>
      <trkpt lat="39.811326" lon="-8.726949">
        <ele>119.9</ele>
        <time>1970-01-01T00:58:06.000Z</time>
      </trkpt>
      <trkpt lat="39.811354" lon="-8.726896">
        <ele>119.7</ele>
        <time>1970-01-01T00:58:07.000Z</time>
      </trkpt>
      <trkpt lat="39.811384" lon="-8.726844">
        <ele>119.6</ele>
        <time>1970-01-01T00:58:08.000Z</time>
      </trkpt>
      <trkpt lat="39.811416" lon="-8.726794">
        <ele>119.5</ele>
        <time>1970-01-01T00:58:09.000Z</time>
      </trkpt>
      <trkpt lat="39.811446" lon="-8.726752">
        <ele>119.3</ele>
        <time>1970-01-01T00:58:10.000Z</time>
      </trkpt>
      <trkpt lat="39.811472" lon="-8.726721">
        <ele>119.2</ele>
        <time>1970-01-01T00:58:11.000Z</time>
      </trkpt>
      <trkpt lat="39.811497" lon="-8.726702">
        <ele>119.2</ele>
        <time>1970-01-01T00:58:12.000Z</time>
      </trkpt>
      <trkpt lat="39.811522" lon="-8.726691">
        <ele>119.1</ele>
        <time>1970-01-01T00:58:13.000Z</time>
      </trkpt>
      <trkpt lat="39.811549" lon="-8.726688">
        <ele>119.1</ele>
        <time>1970-01-01T00:58:14.000Z</time>
      </trkpt>
      <trkpt lat="39.811577" lon="-8.726686">
        <ele>119.1</ele>
        <time>1970-01-01T00:58:16.000Z</time>
      </trkpt>
      <trkpt lat="39.811614" lon="-8.726684">
        <ele>119</ele>
        <time>1970-01-01T00:58:17.000Z</time>
      </trkpt>
      <trkpt lat="39.811647" lon="-8.726681">
        <ele>119</ele>
        <time>1970-01-01T00:58:18.000Z</time>
      </trkpt>
      <trkpt lat="39.811679" lon="-8.726676">
        <ele>119.2</ele>
        <time>1970-01-01T00:58:19.000Z</time>
      </trkpt>
      <trkpt lat="39.81171" lon="-8.72667">
        <ele>119.4</ele>
        <time>1970-01-01T00:58:20.000Z</time>
      </trkpt>
      <trkpt lat="39.811739" lon="-8.726664">
        <ele>119.5</ele>
        <time>1970-01-01T00:58:21.000Z</time>
      </trkpt>
      <trkpt lat="39.811768" lon="-8.726657">
        <ele>119.7</ele>
        <time>1970-01-01T00:58:22.000Z</time>
      </trkpt>
      <trkpt lat="39.811799" lon="-8.726648">
        <ele>119.9</ele>
        <time>1970-01-01T00:58:23.000Z</time>
      </trkpt>
      <trkpt lat="39.811828" lon="-8.72664">
        <ele>120.1</ele>
        <time>1970-01-01T00:58:24.000Z</time>
      </trkpt>
      <trkpt lat="39.811858" lon="-8.726631">
        <ele>120.3</ele>
        <time>1970-01-01T00:58:25.000Z</time>
      </trkpt>
      <trkpt lat="39.811901" lon="-8.726618">
        <ele>120.6</ele>
        <time>1970-01-01T00:58:27.000Z</time>
      </trkpt>
      <trkpt lat="39.811915" lon="-8.726614">
        <ele>120.7</ele>
        <time>1970-01-01T00:58:27.000Z</time>
      </trkpt>
      <trkpt lat="39.811939" lon="-8.726606">
        <ele>120.8</ele>
        <time>1970-01-01T00:58:28.000Z</time>
      </trkpt>
      <trkpt lat="39.811961" lon="-8.726597">
        <ele>121</ele>
        <time>1970-01-01T00:58:29.000Z</time>
      </trkpt>
      <trkpt lat="39.81199" lon="-8.726584">
        <ele>121.2</ele>
        <time>1970-01-01T00:58:30.000Z</time>
      </trkpt>
      <trkpt lat="39.81202" lon="-8.72657">
        <ele>121.4</ele>
        <time>1970-01-01T00:58:31.000Z</time>
      </trkpt>
      <trkpt lat="39.812047" lon="-8.726555">
        <ele>121.6</ele>
        <time>1970-01-01T00:58:32.000Z</time>
      </trkpt>
      <trkpt lat="39.812075" lon="-8.72654">
        <ele>121.7</ele>
        <time>1970-01-01T00:58:33.000Z</time>
      </trkpt>
      <trkpt lat="39.812099" lon="-8.726525">
        <ele>121.8</ele>
        <time>1970-01-01T00:58:34.000Z</time>
      </trkpt>
      <trkpt lat="39.812135" lon="-8.726501">
        <ele>122</ele>
        <time>1970-01-01T00:58:36.000Z</time>
      </trkpt>
      <trkpt lat="39.812139" lon="-8.726497">
        <ele>122</ele>
        <time>1970-01-01T00:58:36.000Z</time>
      </trkpt>
      <trkpt lat="39.812157" lon="-8.726478">
        <ele>122.1</ele>
        <time>1970-01-01T00:58:38.000Z</time>
      </trkpt>
      <trkpt lat="39.812176" lon="-8.726455">
        <ele>122.2</ele>
        <time>1970-01-01T00:58:39.000Z</time>
      </trkpt>
      <trkpt lat="39.812198" lon="-8.726431">
        <ele>122.3</ele>
        <time>1970-01-01T00:58:39.000Z</time>
      </trkpt>
      <trkpt lat="39.812219" lon="-8.726411">
        <ele>122.3</ele>
        <time>1970-01-01T00:58:40.000Z</time>
      </trkpt>
      <trkpt lat="39.812241" lon="-8.726389">
        <ele>122.3</ele>
        <time>1970-01-01T00:58:41.000Z</time>
      </trkpt>
      <trkpt lat="39.81228" lon="-8.726352">
        <ele>122.4</ele>
        <time>1970-01-01T00:58:43.000Z</time>
      </trkpt>
      <trkpt lat="39.812292" lon="-8.726339">
        <ele>122.4</ele>
        <time>1970-01-01T00:58:43.000Z</time>
      </trkpt>
      <trkpt lat="39.812319" lon="-8.726314">
        <ele>122.4</ele>
        <time>1970-01-01T00:58:44.000Z</time>
      </trkpt>
      <trkpt lat="39.812345" lon="-8.726288">
        <ele>122.4</ele>
        <time>1970-01-01T00:58:45.000Z</time>
      </trkpt>
      <trkpt lat="39.81237" lon="-8.726261">
        <ele>122.4</ele>
        <time>1970-01-01T00:58:46.000Z</time>
      </trkpt>
      <trkpt lat="39.812394" lon="-8.726232">
        <ele>122.4</ele>
        <time>1970-01-01T00:58:47.000Z</time>
      </trkpt>
      <trkpt lat="39.812416" lon="-8.726203">
        <ele>122.4</ele>
        <time>1970-01-01T00:58:48.000Z</time>
      </trkpt>
      <trkpt lat="39.812436" lon="-8.726177">
        <ele>122.4</ele>
        <time>1970-01-01T00:58:49.000Z</time>
      </trkpt>
      <trkpt lat="39.812474" lon="-8.72614">
        <ele>122.5</ele>
        <time>1970-01-01T00:58:51.000Z</time>
      </trkpt>
      <trkpt lat="39.812487" lon="-8.726128">
        <ele>122.5</ele>
        <time>1970-01-01T00:58:51.000Z</time>
      </trkpt>
      <trkpt lat="39.812517" lon="-8.726106">
        <ele>122.5</ele>
        <time>1970-01-01T00:58:52.000Z</time>
      </trkpt>
      <trkpt lat="39.81255" lon="-8.726087">
        <ele>122.5</ele>
        <time>1970-01-01T00:58:53.000Z</time>
      </trkpt>
      <trkpt lat="39.812587" lon="-8.72607">
        <ele>122.5</ele>
        <time>1970-01-01T00:58:54.000Z</time>
      </trkpt>
      <trkpt lat="39.812625" lon="-8.726055">
        <ele>122.5</ele>
        <time>1970-01-01T00:58:55.000Z</time>
      </trkpt>
      <trkpt lat="39.812665" lon="-8.72604">
        <ele>122.6</ele>
        <time>1970-01-01T00:58:56.000Z</time>
      </trkpt>
      <trkpt lat="39.812704" lon="-8.726028">
        <ele>122.6</ele>
        <time>1970-01-01T00:58:57.000Z</time>
      </trkpt>
      <trkpt lat="39.812743" lon="-8.726017">
        <ele>122.7</ele>
        <time>1970-01-01T00:58:58.000Z</time>
      </trkpt>
      <trkpt lat="39.81278" lon="-8.726005">
        <ele>122.7</ele>
        <time>1970-01-01T00:58:59.000Z</time>
      </trkpt>
      <trkpt lat="39.812815" lon="-8.725995">
        <ele>122.8</ele>
        <time>1970-01-01T00:59:00.000Z</time>
      </trkpt>
      <trkpt lat="39.812862" lon="-8.725984">
        <ele>122.8</ele>
        <time>1970-01-01T00:59:02.000Z</time>
      </trkpt>
      <trkpt lat="39.812877" lon="-8.725979">
        <ele>122.9</ele>
        <time>1970-01-01T00:59:02.000Z</time>
      </trkpt>
      <trkpt lat="39.812922" lon="-8.725961">
        <ele>122.9</ele>
        <time>1970-01-01T00:59:04.000Z</time>
      </trkpt>
      <trkpt lat="39.812936" lon="-8.725954">
        <ele>122.9</ele>
        <time>1970-01-01T00:59:04.000Z</time>
      </trkpt>
      <trkpt lat="39.812963" lon="-8.725939">
        <ele>123</ele>
        <time>1970-01-01T00:59:05.000Z</time>
      </trkpt>
      <trkpt lat="39.81299" lon="-8.72592">
        <ele>123</ele>
        <time>1970-01-01T00:59:06.000Z</time>
      </trkpt>
      <trkpt lat="39.813039" lon="-8.725889">
        <ele>123</ele>
        <time>1970-01-01T00:59:08.000Z</time>
      </trkpt>
      <trkpt lat="39.813057" lon="-8.725878">
        <ele>123.1</ele>
        <time>1970-01-01T00:59:08.000Z</time>
      </trkpt>
      <trkpt lat="39.813097" lon="-8.725856">
        <ele>123.1</ele>
        <time>1970-01-01T00:59:09.000Z</time>
      </trkpt>
      <trkpt lat="39.813138" lon="-8.725835">
        <ele>123.1</ele>
        <time>1970-01-01T00:59:10.000Z</time>
      </trkpt>
      <trkpt lat="39.813181" lon="-8.725817">
        <ele>123.2</ele>
        <time>1970-01-01T00:59:12.000Z</time>
      </trkpt>
      <trkpt lat="39.813224" lon="-8.725801">
        <ele>123.3</ele>
        <time>1970-01-01T00:59:12.000Z</time>
      </trkpt>
      <trkpt lat="39.813268" lon="-8.725789">
        <ele>123.4</ele>
        <time>1970-01-01T00:59:13.000Z</time>
      </trkpt>
      <trkpt lat="39.813312" lon="-8.725782">
        <ele>123.5</ele>
        <time>1970-01-01T00:59:14.000Z</time>
      </trkpt>
      <trkpt lat="39.813357" lon="-8.725775">
        <ele>123.6</ele>
        <time>1970-01-01T00:59:16.000Z</time>
      </trkpt>
      <trkpt lat="39.8134" lon="-8.725768">
        <ele>123.7</ele>
        <time>1970-01-01T00:59:16.000Z</time>
      </trkpt>
      <trkpt lat="39.813438" lon="-8.725764">
        <ele>123.8</ele>
        <time>1970-01-01T00:59:17.000Z</time>
      </trkpt>
      <trkpt lat="39.813476" lon="-8.725762">
        <ele>124</ele>
        <time>1970-01-01T00:59:18.000Z</time>
      </trkpt>
      <trkpt lat="39.813509" lon="-8.725763">
        <ele>124.1</ele>
        <time>1970-01-01T00:59:19.000Z</time>
      </trkpt>
      <trkpt lat="39.81354" lon="-8.725765">
        <ele>124.2</ele>
        <time>1970-01-01T00:59:20.000Z</time>
      </trkpt>
      <trkpt lat="39.81357" lon="-8.725766">
        <ele>124.4</ele>
        <time>1970-01-01T00:59:21.000Z</time>
      </trkpt>
      <trkpt lat="39.81361" lon="-8.725764">
        <ele>124.5</ele>
        <time>1970-01-01T00:59:23.000Z</time>
      </trkpt>
      <trkpt lat="39.813623" lon="-8.725762">
        <ele>124.6</ele>
        <time>1970-01-01T00:59:23.000Z</time>
      </trkpt>
      <trkpt lat="39.813649" lon="-8.725758">
        <ele>124.7</ele>
        <time>1970-01-01T00:59:24.000Z</time>
      </trkpt>
      <trkpt lat="39.813678" lon="-8.725755">
        <ele>124.8</ele>
        <time>1970-01-01T00:59:25.000Z</time>
      </trkpt>
      <trkpt lat="39.813709" lon="-8.725752">
        <ele>124.9</ele>
        <time>1970-01-01T00:59:26.000Z</time>
      </trkpt>
      <trkpt lat="39.813739" lon="-8.725751">
        <ele>125</ele>
        <time>1970-01-01T00:59:27.000Z</time>
      </trkpt>
      <trkpt lat="39.813771" lon="-8.72575">
        <ele>125.1</ele>
        <time>1970-01-01T00:59:28.000Z</time>
      </trkpt>
      <trkpt lat="39.813805" lon="-8.725747">
        <ele>125.2</ele>
        <time>1970-01-01T00:59:29.000Z</time>
      </trkpt>
      <trkpt lat="39.813839" lon="-8.725746">
        <ele>125.3</ele>
        <time>1970-01-01T00:59:30.000Z</time>
      </trkpt>
      <trkpt lat="39.813873" lon="-8.725743">
        <ele>125.4</ele>
        <time>1970-01-01T00:59:31.000Z</time>
      </trkpt>
      <trkpt lat="39.813906" lon="-8.72574">
        <ele>125.6</ele>
        <time>1970-01-01T00:59:32.000Z</time>
      </trkpt>
      <trkpt lat="39.813936" lon="-8.725738">
        <ele>125.7</ele>
        <time>1970-01-01T00:59:33.000Z</time>
      </trkpt>
      <trkpt lat="39.813963" lon="-8.725738">
        <ele>125.8</ele>
        <time>1970-01-01T00:59:34.000Z</time>
      </trkpt>
      <trkpt lat="39.813986" lon="-8.725737">
        <ele>125.9</ele>
        <time>1970-01-01T00:59:35.000Z</time>
      </trkpt>
      <trkpt lat="39.814025" lon="-8.725732">
        <ele>126</ele>
        <time>1970-01-01T00:59:37.000Z</time>
      </trkpt>
      <trkpt lat="39.81403" lon="-8.725731">
        <ele>126.1</ele>
        <time>1970-01-01T00:59:37.000Z</time>
      </trkpt>
      <trkpt lat="39.814051" lon="-8.725729">
        <ele>126.2</ele>
        <time>1970-01-01T00:59:38.000Z</time>
      </trkpt>
      <trkpt lat="39.814076" lon="-8.725728">
        <ele>126.3</ele>
        <time>1970-01-01T00:59:39.000Z</time>
      </trkpt>
      <trkpt lat="39.814101" lon="-8.725726">
        <ele>126.4</ele>
        <time>1970-01-01T00:59:40.000Z</time>
      </trkpt>
      <trkpt lat="39.814126" lon="-8.725723">
        <ele>126.5</ele>
        <time>1970-01-01T00:59:41.000Z</time>
      </trkpt>
      <trkpt lat="39.814149" lon="-8.72572">
        <ele>126.7</ele>
        <time>1970-01-01T00:59:42.000Z</time>
      </trkpt>
      <trkpt lat="39.814172" lon="-8.725718">
        <ele>126.8</ele>
        <time>1970-01-01T00:59:43.000Z</time>
      </trkpt>
      <trkpt lat="39.814194" lon="-8.725716">
        <ele>126.9</ele>
        <time>1970-01-01T00:59:44.000Z</time>
      </trkpt>
      <trkpt lat="39.814215" lon="-8.725711">
        <ele>127</ele>
        <time>1970-01-01T00:59:45.000Z</time>
      </trkpt>
      <trkpt lat="39.814237" lon="-8.725707">
        <ele>127.1</ele>
        <time>1970-01-01T00:59:46.000Z</time>
      </trkpt>
      <trkpt lat="39.814255" lon="-8.725702">
        <ele>127.2</ele>
        <time>1970-01-01T00:59:47.000Z</time>
      </trkpt>
      <trkpt lat="39.814272" lon="-8.725694">
        <ele>127.3</ele>
        <time>1970-01-01T00:59:48.000Z</time>
      </trkpt>
      <trkpt lat="39.814287" lon="-8.725684">
        <ele>127.3</ele>
        <time>1970-01-01T00:59:49.000Z</time>
      </trkpt>
      <trkpt lat="39.814304" lon="-8.725673">
        <ele>127.4</ele>
        <time>1970-01-01T00:59:50.000Z</time>
      </trkpt>
      <trkpt lat="39.814323" lon="-8.725662">
        <ele>127.6</ele>
        <time>1970-01-01T00:59:51.000Z</time>
      </trkpt>
      <trkpt lat="39.81434" lon="-8.725653">
        <ele>127.7</ele>
        <time>1970-01-01T00:59:52.000Z</time>
      </trkpt>
      <trkpt lat="39.814358" lon="-8.725648">
        <ele>127.8</ele>
        <time>1970-01-01T00:59:53.000Z</time>
      </trkpt>
      <trkpt lat="39.81439" lon="-8.725641">
        <ele>128</ele>
        <time>1970-01-01T00:59:55.000Z</time>
      </trkpt>
      <trkpt lat="39.814394" lon="-8.72564">
        <ele>128</ele>
        <time>1970-01-01T00:59:55.000Z</time>
      </trkpt>
      <trkpt lat="39.814416" lon="-8.72564">
        <ele>128.2</ele>
        <time>1970-01-01T00:59:56.000Z</time>
      </trkpt>
      <trkpt lat="39.814438" lon="-8.725643">
        <ele>128.4</ele>
        <time>1970-01-01T00:59:57.000Z</time>
      </trkpt>
      <trkpt lat="39.814458" lon="-8.725649">
        <ele>128.5</ele>
        <time>1970-01-01T00:59:58.000Z</time>
      </trkpt>
      <trkpt lat="39.814478" lon="-8.725657">
        <ele>128.7</ele>
        <time>1970-01-01T00:59:59.000Z</time>
      </trkpt>
      <trkpt lat="39.814495" lon="-8.725664">
        <ele>128.9</ele>
        <time>1970-01-01T01:00:00.000Z</time>
      </trkpt>
      <trkpt lat="39.814525" lon="-8.725672">
        <ele>129.2</ele>
        <time>1970-01-01T01:00:01.000Z</time>
      </trkpt>
      <trkpt lat="39.814545" lon="-8.725674">
        <ele>129.4</ele>
        <time>1970-01-01T01:00:03.000Z</time>
      </trkpt>
      <trkpt lat="39.814551" lon="-8.725675">
        <ele>129.4</ele>
        <time>1970-01-01T01:00:03.000Z</time>
      </trkpt>
      <trkpt lat="39.814572" lon="-8.725675">
        <ele>129.6</ele>
        <time>1970-01-01T01:00:04.000Z</time>
      </trkpt>
      <trkpt lat="39.814591" lon="-8.725675">
        <ele>129.8</ele>
        <time>1970-01-01T01:00:05.000Z</time>
      </trkpt>
      <trkpt lat="39.814616" lon="-8.725682">
        <ele>130.1</ele>
        <time>1970-01-01T01:00:06.000Z</time>
      </trkpt>
      <trkpt lat="39.814631" lon="-8.725687">
        <ele>130.3</ele>
        <time>1970-01-01T01:00:08.000Z</time>
      </trkpt>
      <trkpt lat="39.814635" lon="-8.725689">
        <ele>130.4</ele>
        <time>1970-01-01T01:00:08.000Z</time>
      </trkpt>
      <trkpt lat="39.814656" lon="-8.7257">
        <ele>130.6</ele>
        <time>1970-01-01T01:00:09.000Z</time>
      </trkpt>
      <trkpt lat="39.814671" lon="-8.725712">
        <ele>130.8</ele>
        <time>1970-01-01T01:00:10.000Z</time>
      </trkpt>
      <trkpt lat="39.814678" lon="-8.725716">
        <ele>130.9</ele>
        <time>1970-01-01T01:00:11.000Z</time>
      </trkpt>
      <trkpt lat="39.814684" lon="-8.725721">
        <ele>131</ele>
        <time>1970-01-01T01:00:13.000Z</time>
      </trkpt>
      <trkpt lat="39.81469" lon="-8.725726">
        <ele>131.1</ele>
        <time>1970-01-01T01:00:13.000Z</time>
      </trkpt>
      <trkpt lat="39.814711" lon="-8.725734">
        <ele>131.4</ele>
        <time>1970-01-01T01:00:14.000Z</time>
      </trkpt>
      <trkpt lat="39.814727" lon="-8.725736">
        <ele>131.6</ele>
        <time>1970-01-01T01:00:15.000Z</time>
      </trkpt>
      <trkpt lat="39.814734" lon="-8.725736">
        <ele>131.7</ele>
        <time>1970-01-01T01:00:17.000Z</time>
      </trkpt>
      <trkpt lat="39.81474" lon="-8.725737">
        <ele>131.8</ele>
        <time>1970-01-01T01:00:17.000Z</time>
      </trkpt>
      <trkpt lat="39.814766" lon="-8.725737">
        <ele>132.1</ele>
        <time>1970-01-01T01:00:18.000Z</time>
      </trkpt>
      <trkpt lat="39.814786" lon="-8.725737">
        <ele>132.3</ele>
        <time>1970-01-01T01:00:19.000Z</time>
      </trkpt>
      <trkpt lat="39.814794" lon="-8.725738">
        <ele>132.4</ele>
        <time>1970-01-01T01:00:21.000Z</time>
      </trkpt>
      <trkpt lat="39.814802" lon="-8.725738">
        <ele>132.5</ele>
        <time>1970-01-01T01:00:21.000Z</time>
      </trkpt>
      <trkpt lat="39.814836" lon="-8.725745">
        <ele>133</ele>
        <time>1970-01-01T01:00:23.000Z</time>
      </trkpt>
      <trkpt lat="39.81484" lon="-8.725747">
        <ele>133</ele>
        <time>1970-01-01T01:00:23.000Z</time>
      </trkpt>
      <trkpt lat="39.814872" lon="-8.725758">
        <ele>133.4</ele>
        <time>1970-01-01T01:00:25.000Z</time>
      </trkpt>
      <trkpt lat="39.814876" lon="-8.72576">
        <ele>133.5</ele>
        <time>1970-01-01T01:00:25.000Z</time>
      </trkpt>
      <trkpt lat="39.814894" lon="-8.725767">
        <ele>133.7</ele>
        <time>1970-01-01T01:00:26.000Z</time>
      </trkpt>
      <trkpt lat="39.814919" lon="-8.725775">
        <ele>134</ele>
        <time>1970-01-01T01:00:27.000Z</time>
      </trkpt>
      <trkpt lat="39.814942" lon="-8.725781">
        <ele>134.2</ele>
        <time>1970-01-01T01:00:28.000Z</time>
      </trkpt>
      <trkpt lat="39.814953" lon="-8.725783">
        <ele>134.4</ele>
        <time>1970-01-01T01:00:29.000Z</time>
      </trkpt>
      <trkpt lat="39.814964" lon="-8.725786">
        <ele>134.5</ele>
        <time>1970-01-01T01:00:30.000Z</time>
      </trkpt>
      <trkpt lat="39.814974" lon="-8.725788">
        <ele>134.6</ele>
        <time>1970-01-01T01:00:31.000Z</time>
      </trkpt>
      <trkpt lat="39.814985" lon="-8.725791">
        <ele>134.7</ele>
        <time>1970-01-01T01:00:32.000Z</time>
      </trkpt>
      <trkpt lat="39.814996" lon="-8.725793">
        <ele>134.8</ele>
        <time>1970-01-01T01:00:34.000Z</time>
      </trkpt>
      <trkpt lat="39.815007" lon="-8.725796">
        <ele>134.9</ele>
        <time>1970-01-01T01:00:34.000Z</time>
      </trkpt>
      <trkpt lat="39.815028" lon="-8.725796">
        <ele>135.1</ele>
        <time>1970-01-01T01:00:35.000Z</time>
      </trkpt>
      <trkpt lat="39.815047" lon="-8.725794">
        <ele>135.2</ele>
        <time>1970-01-01T01:00:36.000Z</time>
      </trkpt>
      <trkpt lat="39.815081" lon="-8.725794">
        <ele>135.5</ele>
        <time>1970-01-01T01:00:38.000Z</time>
      </trkpt>
      <trkpt lat="39.815085" lon="-8.725795">
        <ele>135.5</ele>
        <time>1970-01-01T01:00:38.000Z</time>
      </trkpt>
      <trkpt lat="39.815103" lon="-8.725796">
        <ele>135.6</ele>
        <time>1970-01-01T01:00:39.000Z</time>
      </trkpt>
      <trkpt lat="39.815122" lon="-8.725799">
        <ele>135.7</ele>
        <time>1970-01-01T01:00:40.000Z</time>
      </trkpt>
      <trkpt lat="39.815142" lon="-8.725802">
        <ele>135.8</ele>
        <time>1970-01-01T01:00:41.000Z</time>
      </trkpt>
      <trkpt lat="39.815162" lon="-8.725805">
        <ele>135.9</ele>
        <time>1970-01-01T01:00:42.000Z</time>
      </trkpt>
      <trkpt lat="39.815182" lon="-8.725808">
        <ele>136</ele>
        <time>1970-01-01T01:00:43.000Z</time>
      </trkpt>
      <trkpt lat="39.815204" lon="-8.725812">
        <ele>136.1</ele>
        <time>1970-01-01T01:00:44.000Z</time>
      </trkpt>
      <trkpt lat="39.815225" lon="-8.725817">
        <ele>136.2</ele>
        <time>1970-01-01T01:00:45.000Z</time>
      </trkpt>
      <trkpt lat="39.815245" lon="-8.725819">
        <ele>136.2</ele>
        <time>1970-01-01T01:00:46.000Z</time>
      </trkpt>
      <trkpt lat="39.815264" lon="-8.725819">
        <ele>136.3</ele>
        <time>1970-01-01T01:00:47.000Z</time>
      </trkpt>
      <trkpt lat="39.815283" lon="-8.725817">
        <ele>136.3</ele>
        <time>1970-01-01T01:00:48.000Z</time>
      </trkpt>
      <trkpt lat="39.815302" lon="-8.725814">
        <ele>136.4</ele>
        <time>1970-01-01T01:00:49.000Z</time>
      </trkpt>
      <trkpt lat="39.815325" lon="-8.725805">
        <ele>136.4</ele>
        <time>1970-01-01T01:00:50.000Z</time>
      </trkpt>
      <trkpt lat="39.815348" lon="-8.72579">
        <ele>136.4</ele>
        <time>1970-01-01T01:00:51.000Z</time>
      </trkpt>
      <trkpt lat="39.815369" lon="-8.725776">
        <ele>136.5</ele>
        <time>1970-01-01T01:00:52.000Z</time>
      </trkpt>
      <trkpt lat="39.815389" lon="-8.725763">
        <ele>136.5</ele>
        <time>1970-01-01T01:00:53.000Z</time>
      </trkpt>
      <trkpt lat="39.815408" lon="-8.725753">
        <ele>136.5</ele>
        <time>1970-01-01T01:00:54.000Z</time>
      </trkpt>
      <trkpt lat="39.815426" lon="-8.725748">
        <ele>136.5</ele>
        <time>1970-01-01T01:00:55.000Z</time>
      </trkpt>
      <trkpt lat="39.815446" lon="-8.725742">
        <ele>136.6</ele>
        <time>1970-01-01T01:00:56.000Z</time>
      </trkpt>
      <trkpt lat="39.81548" lon="-8.725736">
        <ele>136.6</ele>
        <time>1970-01-01T01:00:58.000Z</time>
      </trkpt>
      <trkpt lat="39.815484" lon="-8.725735">
        <ele>136.6</ele>
        <time>1970-01-01T01:00:58.000Z</time>
      </trkpt>
      <trkpt lat="39.815502" lon="-8.725731">
        <ele>136.6</ele>
        <time>1970-01-01T01:00:59.000Z</time>
      </trkpt>
      <trkpt lat="39.815538" lon="-8.725719">
        <ele>136.7</ele>
        <time>1970-01-01T01:01:01.000Z</time>
      </trkpt>
      <trkpt lat="39.815543" lon="-8.725717">
        <ele>136.7</ele>
        <time>1970-01-01T01:01:01.000Z</time>
      </trkpt>
      <trkpt lat="39.815578" lon="-8.725702">
        <ele>136.7</ele>
        <time>1970-01-01T01:01:03.000Z</time>
      </trkpt>
      <trkpt lat="39.815582" lon="-8.7257">
        <ele>136.7</ele>
        <time>1970-01-01T01:01:03.000Z</time>
      </trkpt>
      <trkpt lat="39.815603" lon="-8.725695">
        <ele>136.8</ele>
        <time>1970-01-01T01:01:04.000Z</time>
      </trkpt>
      <trkpt lat="39.815623" lon="-8.725693">
        <ele>136.8</ele>
        <time>1970-01-01T01:01:05.000Z</time>
      </trkpt>
      <trkpt lat="39.815641" lon="-8.725695">
        <ele>136.8</ele>
        <time>1970-01-01T01:01:06.000Z</time>
      </trkpt>
      <trkpt lat="39.815658" lon="-8.7257">
        <ele>136.8</ele>
        <time>1970-01-01T01:01:07.000Z</time>
      </trkpt>
      <trkpt lat="39.815675" lon="-8.725706">
        <ele>136.8</ele>
        <time>1970-01-01T01:01:08.000Z</time>
      </trkpt>
      <trkpt lat="39.815691" lon="-8.72571">
        <ele>136.8</ele>
        <time>1970-01-01T01:01:09.000Z</time>
      </trkpt>
      <trkpt lat="39.815708" lon="-8.725715">
        <ele>136.8</ele>
        <time>1970-01-01T01:01:10.000Z</time>
      </trkpt>
      <trkpt lat="39.815727" lon="-8.725719">
        <ele>136.9</ele>
        <time>1970-01-01T01:01:11.000Z</time>
      </trkpt>
      <trkpt lat="39.815747" lon="-8.725722">
        <ele>136.9</ele>
        <time>1970-01-01T01:01:12.000Z</time>
      </trkpt>
      <trkpt lat="39.815767" lon="-8.725723">
        <ele>136.9</ele>
        <time>1970-01-01T01:01:13.000Z</time>
      </trkpt>
      <trkpt lat="39.815788" lon="-8.725726">
        <ele>136.9</ele>
        <time>1970-01-01T01:01:14.000Z</time>
      </trkpt>
      <trkpt lat="39.815815" lon="-8.725736">
        <ele>137</ele>
        <time>1970-01-01T01:01:15.000Z</time>
      </trkpt>
      <trkpt lat="39.815835" lon="-8.725745">
        <ele>137</ele>
        <time>1970-01-01T01:01:16.000Z</time>
      </trkpt>
      <trkpt lat="39.815844" lon="-8.725749">
        <ele>137.1</ele>
        <time>1970-01-01T01:01:17.000Z</time>
      </trkpt>
      <trkpt lat="39.815854" lon="-8.725753">
        <ele>137.1</ele>
        <time>1970-01-01T01:01:18.000Z</time>
      </trkpt>
      <trkpt lat="39.815863" lon="-8.725757">
        <ele>137.1</ele>
        <time>1970-01-01T01:01:19.000Z</time>
      </trkpt>
      <trkpt lat="39.815873" lon="-8.72576">
        <ele>137.1</ele>
        <time>1970-01-01T01:01:20.000Z</time>
      </trkpt>
      <trkpt lat="39.815882" lon="-8.725764">
        <ele>137.2</ele>
        <time>1970-01-01T01:01:21.000Z</time>
      </trkpt>
      <trkpt lat="39.815892" lon="-8.725768">
        <ele>137.2</ele>
        <time>1970-01-01T01:01:22.000Z</time>
      </trkpt>
      <trkpt lat="39.815901" lon="-8.725772">
        <ele>137.2</ele>
        <time>1970-01-01T01:01:24.000Z</time>
      </trkpt>
      <trkpt lat="39.815911" lon="-8.725776">
        <ele>137.3</ele>
        <time>1970-01-01T01:01:24.000Z</time>
      </trkpt>
      <trkpt lat="39.815929" lon="-8.725781">
        <ele>137.4</ele>
        <time>1970-01-01T01:01:25.000Z</time>
      </trkpt>
      <trkpt lat="39.815941" lon="-8.725781">
        <ele>137.4</ele>
        <time>1970-01-01T01:01:27.000Z</time>
      </trkpt>
      <trkpt lat="39.815944" lon="-8.725782">
        <ele>137.4</ele>
        <time>1970-01-01T01:01:27.000Z</time>
      </trkpt>
      <trkpt lat="39.81596" lon="-8.725791">
        <ele>137.5</ele>
        <time>1970-01-01T01:01:29.000Z</time>
      </trkpt>
      <trkpt lat="39.815962" lon="-8.725793">
        <ele>137.5</ele>
        <time>1970-01-01T01:01:29.000Z</time>
      </trkpt>
      <trkpt lat="39.815973" lon="-8.725802">
        <ele>137.6</ele>
        <time>1970-01-01T01:01:30.000Z</time>
      </trkpt>
      <trkpt lat="39.815986" lon="-8.725813">
        <ele>137.7</ele>
        <time>1970-01-01T01:01:31.000Z</time>
      </trkpt>
      <trkpt lat="39.816005" lon="-8.725824">
        <ele>137.8</ele>
        <time>1970-01-01T01:01:32.000Z</time>
      </trkpt>
      <trkpt lat="39.816028" lon="-8.725833">
        <ele>137.9</ele>
        <time>1970-01-01T01:01:33.000Z</time>
      </trkpt>
      <trkpt lat="39.816052" lon="-8.72584">
        <ele>138</ele>
        <time>1970-01-01T01:01:34.000Z</time>
      </trkpt>
      <trkpt lat="39.816078" lon="-8.725844">
        <ele>138.2</ele>
        <time>1970-01-01T01:01:35.000Z</time>
      </trkpt>
      <trkpt lat="39.816101" lon="-8.725848">
        <ele>138.3</ele>
        <time>1970-01-01T01:01:36.000Z</time>
      </trkpt>
      <trkpt lat="39.816122" lon="-8.725853">
        <ele>138.4</ele>
        <time>1970-01-01T01:01:37.000Z</time>
      </trkpt>
      <trkpt lat="39.816141" lon="-8.72586">
        <ele>138.6</ele>
        <time>1970-01-01T01:01:38.000Z</time>
      </trkpt>
      <trkpt lat="39.816157" lon="-8.725869">
        <ele>138.7</ele>
        <time>1970-01-01T01:01:39.000Z</time>
      </trkpt>
      <trkpt lat="39.816173" lon="-8.725875">
        <ele>138.8</ele>
        <time>1970-01-01T01:01:40.000Z</time>
      </trkpt>
      <trkpt lat="39.816191" lon="-8.725881">
        <ele>138.9</ele>
        <time>1970-01-01T01:01:41.000Z</time>
      </trkpt>
      <trkpt lat="39.816212" lon="-8.725887">
        <ele>139</ele>
        <time>1970-01-01T01:01:42.000Z</time>
      </trkpt>
      <trkpt lat="39.816232" lon="-8.725892">
        <ele>139.1</ele>
        <time>1970-01-01T01:01:43.000Z</time>
      </trkpt>
      <trkpt lat="39.816261" lon="-8.725896">
        <ele>139.3</ele>
        <time>1970-01-01T01:01:44.000Z</time>
      </trkpt>
      <trkpt lat="39.816284" lon="-8.725894">
        <ele>139.4</ele>
        <time>1970-01-01T01:01:45.000Z</time>
      </trkpt>
      <trkpt lat="39.816294" lon="-8.725893">
        <ele>139.5</ele>
        <time>1970-01-01T01:01:46.000Z</time>
      </trkpt>
      <trkpt lat="39.816304" lon="-8.725892">
        <ele>139.5</ele>
        <time>1970-01-01T01:01:48.000Z</time>
      </trkpt>
      <trkpt lat="39.816314" lon="-8.725891">
        <ele>139.6</ele>
        <time>1970-01-01T01:01:48.000Z</time>
      </trkpt>
      <trkpt lat="39.816338" lon="-8.725879">
        <ele>139.7</ele>
        <time>1970-01-01T01:01:49.000Z</time>
      </trkpt>
      <trkpt lat="39.816365" lon="-8.725866">
        <ele>139.9</ele>
        <time>1970-01-01T01:01:50.000Z</time>
      </trkpt>
      <trkpt lat="39.816392" lon="-8.725856">
        <ele>140</ele>
        <time>1970-01-01T01:01:51.000Z</time>
      </trkpt>
      <trkpt lat="39.816416" lon="-8.725849">
        <ele>140.1</ele>
        <time>1970-01-01T01:01:53.000Z</time>
      </trkpt>
      <trkpt lat="39.816438" lon="-8.72584">
        <ele>140.3</ele>
        <time>1970-01-01T01:01:54.000Z</time>
      </trkpt>
      <trkpt lat="39.816459" lon="-8.72583">
        <ele>140.4</ele>
        <time>1970-01-01T01:01:54.000Z</time>
      </trkpt>
      <trkpt lat="39.816477" lon="-8.725819">
        <ele>140.5</ele>
        <time>1970-01-01T01:01:55.000Z</time>
      </trkpt>
      <trkpt lat="39.816493" lon="-8.72581">
        <ele>140.6</ele>
        <time>1970-01-01T01:01:56.000Z</time>
      </trkpt>
      <trkpt lat="39.816507" lon="-8.725799">
        <ele>140.7</ele>
        <time>1970-01-01T01:01:57.000Z</time>
      </trkpt>
      <trkpt lat="39.816522" lon="-8.725789">
        <ele>140.8</ele>
        <time>1970-01-01T01:01:58.000Z</time>
      </trkpt>
      <trkpt lat="39.816538" lon="-8.725777">
        <ele>140.9</ele>
        <time>1970-01-01T01:01:59.000Z</time>
      </trkpt>
      <trkpt lat="39.816567" lon="-8.725762">
        <ele>141</ele>
        <time>1970-01-01T01:02:01.000Z</time>
      </trkpt>
      <trkpt lat="39.816571" lon="-8.725759">
        <ele>141.1</ele>
        <time>1970-01-01T01:02:01.000Z</time>
      </trkpt>
      <trkpt lat="39.816588" lon="-8.725749">
        <ele>141.2</ele>
        <time>1970-01-01T01:02:02.000Z</time>
      </trkpt>
      <trkpt lat="39.816607" lon="-8.725739">
        <ele>141.3</ele>
        <time>1970-01-01T01:02:03.000Z</time>
      </trkpt>
      <trkpt lat="39.816624" lon="-8.72573">
        <ele>141.4</ele>
        <time>1970-01-01T01:02:04.000Z</time>
      </trkpt>
      <trkpt lat="39.816658" lon="-8.725716">
        <ele>141.6</ele>
        <time>1970-01-01T01:02:06.000Z</time>
      </trkpt>
      <trkpt lat="39.816662" lon="-8.725714">
        <ele>141.6</ele>
        <time>1970-01-01T01:02:06.000Z</time>
      </trkpt>
      <trkpt lat="39.816684" lon="-8.725706">
        <ele>141.8</ele>
        <time>1970-01-01T01:02:07.000Z</time>
      </trkpt>
      <trkpt lat="39.816707" lon="-8.725699">
        <ele>141.9</ele>
        <time>1970-01-01T01:02:08.000Z</time>
      </trkpt>
      <trkpt lat="39.816732" lon="-8.725692">
        <ele>142</ele>
        <time>1970-01-01T01:02:09.000Z</time>
      </trkpt>
      <trkpt lat="39.816755" lon="-8.725688">
        <ele>142.2</ele>
        <time>1970-01-01T01:02:10.000Z</time>
      </trkpt>
      <trkpt lat="39.816775" lon="-8.725686">
        <ele>142.3</ele>
        <time>1970-01-01T01:02:11.000Z</time>
      </trkpt>
      <trkpt lat="39.81679" lon="-8.725683">
        <ele>142.4</ele>
        <time>1970-01-01T01:02:12.000Z</time>
      </trkpt>
      <trkpt lat="39.816807" lon="-8.725679">
        <ele>142.5</ele>
        <time>1970-01-01T01:02:13.000Z</time>
      </trkpt>
      <trkpt lat="39.816823" lon="-8.725676">
        <ele>142.6</ele>
        <time>1970-01-01T01:02:14.000Z</time>
      </trkpt>
      <trkpt lat="39.816842" lon="-8.725672">
        <ele>142.7</ele>
        <time>1970-01-01T01:02:15.000Z</time>
      </trkpt>
      <trkpt lat="39.816878" lon="-8.725666">
        <ele>143</ele>
        <time>1970-01-01T01:02:17.000Z</time>
      </trkpt>
      <trkpt lat="39.816883" lon="-8.725665">
        <ele>143</ele>
        <time>1970-01-01T01:02:17.000Z</time>
      </trkpt>
      <trkpt lat="39.816904" lon="-8.725662">
        <ele>143.1</ele>
        <time>1970-01-01T01:02:18.000Z</time>
      </trkpt>
      <trkpt lat="39.816926" lon="-8.725658">
        <ele>143.3</ele>
        <time>1970-01-01T01:02:19.000Z</time>
      </trkpt>
      <trkpt lat="39.816948" lon="-8.725654">
        <ele>143.4</ele>
        <time>1970-01-01T01:02:20.000Z</time>
      </trkpt>
      <trkpt lat="39.816971" lon="-8.725649">
        <ele>143.6</ele>
        <time>1970-01-01T01:02:21.000Z</time>
      </trkpt>
      <trkpt lat="39.816994" lon="-8.725643">
        <ele>143.7</ele>
        <time>1970-01-01T01:02:22.000Z</time>
      </trkpt>
      <trkpt lat="39.817017" lon="-8.725638">
        <ele>143.9</ele>
        <time>1970-01-01T01:02:23.000Z</time>
      </trkpt>
      <trkpt lat="39.817041" lon="-8.725635">
        <ele>144.1</ele>
        <time>1970-01-01T01:02:24.000Z</time>
      </trkpt>
      <trkpt lat="39.817067" lon="-8.725636">
        <ele>144.2</ele>
        <time>1970-01-01T01:02:25.000Z</time>
      </trkpt>
      <trkpt lat="39.817094" lon="-8.725637">
        <ele>144.4</ele>
        <time>1970-01-01T01:02:26.000Z</time>
      </trkpt>
      <trkpt lat="39.817121" lon="-8.72564">
        <ele>144.6</ele>
        <time>1970-01-01T01:02:27.000Z</time>
      </trkpt>
      <trkpt lat="39.817148" lon="-8.725643">
        <ele>144.8</ele>
        <time>1970-01-01T01:02:28.000Z</time>
      </trkpt>
      <trkpt lat="39.817175" lon="-8.725647">
        <ele>145</ele>
        <time>1970-01-01T01:02:29.000Z</time>
      </trkpt>
      <trkpt lat="39.817212" lon="-8.725653">
        <ele>145.2</ele>
        <time>1970-01-01T01:02:31.000Z</time>
      </trkpt>
      <trkpt lat="39.817223" lon="-8.725656">
        <ele>145.3</ele>
        <time>1970-01-01T01:02:31.000Z</time>
      </trkpt>
      <trkpt lat="39.817261" lon="-8.72567">
        <ele>145.5</ele>
        <time>1970-01-01T01:02:33.000Z</time>
      </trkpt>
      <trkpt lat="39.817265" lon="-8.725673">
        <ele>145.6</ele>
        <time>1970-01-01T01:02:33.000Z</time>
      </trkpt>
      <trkpt lat="39.817282" lon="-8.725684">
        <ele>145.7</ele>
        <time>1970-01-01T01:02:34.000Z</time>
      </trkpt>
      <trkpt lat="39.817301" lon="-8.725693">
        <ele>145.9</ele>
        <time>1970-01-01T01:02:35.000Z</time>
      </trkpt>
      <trkpt lat="39.817321" lon="-8.725702">
        <ele>146.1</ele>
        <time>1970-01-01T01:02:36.000Z</time>
      </trkpt>
      <trkpt lat="39.817342" lon="-8.72571">
        <ele>146.3</ele>
        <time>1970-01-01T01:02:37.000Z</time>
      </trkpt>
      <trkpt lat="39.81736" lon="-8.72572">
        <ele>146.4</ele>
        <time>1970-01-01T01:02:38.000Z</time>
      </trkpt>
      <trkpt lat="39.817377" lon="-8.725733">
        <ele>146.6</ele>
        <time>1970-01-01T01:02:39.000Z</time>
      </trkpt>
      <trkpt lat="39.817395" lon="-8.725747">
        <ele>146.8</ele>
        <time>1970-01-01T01:02:40.000Z</time>
      </trkpt>
      <trkpt lat="39.817413" lon="-8.725763">
        <ele>147.1</ele>
        <time>1970-01-01T01:02:41.000Z</time>
      </trkpt>
      <trkpt lat="39.817432" lon="-8.725778">
        <ele>147.7</ele>
        <time>1970-01-01T01:02:42.000Z</time>
      </trkpt>
      <trkpt lat="39.817448" lon="-8.725793">
        <ele>147.9</ele>
        <time>1970-01-01T01:02:43.000Z</time>
      </trkpt>
      <trkpt lat="39.817471" lon="-8.725819">
        <ele>148.3</ele>
        <time>1970-01-01T01:02:45.000Z</time>
      </trkpt>
      <trkpt lat="39.817474" lon="-8.725823">
        <ele>148.3</ele>
        <time>1970-01-01T01:02:45.000Z</time>
      </trkpt>
      <trkpt lat="39.817485" lon="-8.725838">
        <ele>148.5</ele>
        <time>1970-01-01T01:02:46.000Z</time>
      </trkpt>
      <trkpt lat="39.817495" lon="-8.725854">
        <ele>148.7</ele>
        <time>1970-01-01T01:02:47.000Z</time>
      </trkpt>
      <trkpt lat="39.817505" lon="-8.725872">
        <ele>148.9</ele>
        <time>1970-01-01T01:02:48.000Z</time>
      </trkpt>
      <trkpt lat="39.817513" lon="-8.72589">
        <ele>149.1</ele>
        <time>1970-01-01T01:02:49.000Z</time>
      </trkpt>
      <trkpt lat="39.817521" lon="-8.725909">
        <ele>149.4</ele>
        <time>1970-01-01T01:02:50.000Z</time>
      </trkpt>
      <trkpt lat="39.81753" lon="-8.725927">
        <ele>149.6</ele>
        <time>1970-01-01T01:02:51.000Z</time>
      </trkpt>
      <trkpt lat="39.817538" lon="-8.725946">
        <ele>149.8</ele>
        <time>1970-01-01T01:02:52.000Z</time>
      </trkpt>
      <trkpt lat="39.817548" lon="-8.725966">
        <ele>150</ele>
        <time>1970-01-01T01:02:53.000Z</time>
      </trkpt>
      <trkpt lat="39.817558" lon="-8.725986">
        <ele>150.3</ele>
        <time>1970-01-01T01:02:54.000Z</time>
      </trkpt>
      <trkpt lat="39.817568" lon="-8.72601">
        <ele>150.6</ele>
        <time>1970-01-01T01:02:55.000Z</time>
      </trkpt>
      <trkpt lat="39.817578" lon="-8.726034">
        <ele>150.9</ele>
        <time>1970-01-01T01:02:56.000Z</time>
      </trkpt>
      <trkpt lat="39.817591" lon="-8.726058">
        <ele>151.2</ele>
        <time>1970-01-01T01:02:57.000Z</time>
      </trkpt>
      <trkpt lat="39.817604" lon="-8.72608">
        <ele>151.5</ele>
        <time>1970-01-01T01:02:58.000Z</time>
      </trkpt>
      <trkpt lat="39.817616" lon="-8.726102">
        <ele>151.8</ele>
        <time>1970-01-01T01:02:59.000Z</time>
      </trkpt>
      <trkpt lat="39.81763" lon="-8.726119">
        <ele>152</ele>
        <time>1970-01-01T01:03:00.000Z</time>
      </trkpt>
      <trkpt lat="39.817645" lon="-8.726134">
        <ele>152.3</ele>
        <time>1970-01-01T01:03:01.000Z</time>
      </trkpt>
      <trkpt lat="39.817663" lon="-8.726145">
        <ele>152.6</ele>
        <time>1970-01-01T01:03:02.000Z</time>
      </trkpt>
      <trkpt lat="39.817682" lon="-8.726149">
        <ele>153.4</ele>
        <time>1970-01-01T01:03:03.000Z</time>
      </trkpt>
      <trkpt lat="39.817701" lon="-8.726148">
        <ele>153.5</ele>
        <time>1970-01-01T01:03:04.000Z</time>
      </trkpt>
      <trkpt lat="39.817721" lon="-8.726143">
        <ele>153.7</ele>
        <time>1970-01-01T01:03:05.000Z</time>
      </trkpt>
      <trkpt lat="39.817742" lon="-8.726135">
        <ele>153.8</ele>
        <time>1970-01-01T01:03:06.000Z</time>
      </trkpt>
      <trkpt lat="39.817761" lon="-8.726126">
        <ele>153.9</ele>
        <time>1970-01-01T01:03:07.000Z</time>
      </trkpt>
      <trkpt lat="39.817785" lon="-8.726116">
        <ele>154.1</ele>
        <time>1970-01-01T01:03:08.000Z</time>
      </trkpt>
      <trkpt lat="39.817809" lon="-8.726105">
        <ele>154.2</ele>
        <time>1970-01-01T01:03:09.000Z</time>
      </trkpt>
      <trkpt lat="39.817831" lon="-8.726094">
        <ele>154.3</ele>
        <time>1970-01-01T01:03:10.000Z</time>
      </trkpt>
      <trkpt lat="39.817852" lon="-8.726086">
        <ele>154.4</ele>
        <time>1970-01-01T01:03:11.000Z</time>
      </trkpt>
      <trkpt lat="39.817869" lon="-8.726077">
        <ele>154.5</ele>
        <time>1970-01-01T01:03:12.000Z</time>
      </trkpt>
      <trkpt lat="39.817886" lon="-8.726068">
        <ele>154.5</ele>
        <time>1970-01-01T01:03:13.000Z</time>
      </trkpt>
      <trkpt lat="39.817902" lon="-8.726057">
        <ele>154.6</ele>
        <time>1970-01-01T01:03:14.000Z</time>
      </trkpt>
      <trkpt lat="39.817935" lon="-8.726043">
        <ele>154.8</ele>
        <time>1970-01-01T01:03:16.000Z</time>
      </trkpt>
      <trkpt lat="39.817939" lon="-8.726041">
        <ele>154.8</ele>
        <time>1970-01-01T01:03:16.000Z</time>
      </trkpt>
      <trkpt lat="39.817958" lon="-8.726029">
        <ele>155</ele>
        <time>1970-01-01T01:03:17.000Z</time>
      </trkpt>
      <trkpt lat="39.817974" lon="-8.726019">
        <ele>155.1</ele>
        <time>1970-01-01T01:03:18.000Z</time>
      </trkpt>
      <trkpt lat="39.817985" lon="-8.726014">
        <ele>155.2</ele>
        <time>1970-01-01T01:03:19.000Z</time>
      </trkpt>
      <trkpt lat="39.817997" lon="-8.726008">
        <ele>155.3</ele>
        <time>1970-01-01T01:03:20.000Z</time>
      </trkpt>
      <trkpt lat="39.818013" lon="-8.726">
        <ele>155.4</ele>
        <time>1970-01-01T01:03:21.000Z</time>
      </trkpt>
      <trkpt lat="39.818029" lon="-8.72599">
        <ele>155.5</ele>
        <time>1970-01-01T01:03:22.000Z</time>
      </trkpt>
      <trkpt lat="39.818058" lon="-8.725982">
        <ele>155.7</ele>
        <time>1970-01-01T01:03:23.000Z</time>
      </trkpt>
      <trkpt lat="39.818082" lon="-8.725982">
        <ele>155.9</ele>
        <time>1970-01-01T01:03:24.000Z</time>
      </trkpt>
      <trkpt lat="39.818092" lon="-8.725982">
        <ele>156</ele>
        <time>1970-01-01T01:03:25.000Z</time>
      </trkpt>
      <trkpt lat="39.818103" lon="-8.725982">
        <ele>156.1</ele>
        <time>1970-01-01T01:03:26.000Z</time>
      </trkpt>
      <trkpt lat="39.818114" lon="-8.725981">
        <ele>156.2</ele>
        <time>1970-01-01T01:03:27.000Z</time>
      </trkpt>
      <trkpt lat="39.818124" lon="-8.725981">
        <ele>156.3</ele>
        <time>1970-01-01T01:03:29.000Z</time>
      </trkpt>
      <trkpt lat="39.818135" lon="-8.725981">
        <ele>156.4</ele>
        <time>1970-01-01T01:03:29.000Z</time>
      </trkpt>
      <trkpt lat="39.818149" lon="-8.725991">
        <ele>156.5</ele>
        <time>1970-01-01T01:03:30.000Z</time>
      </trkpt>
      <trkpt lat="39.818163" lon="-8.726003">
        <ele>156.7</ele>
        <time>1970-01-01T01:03:31.000Z</time>
      </trkpt>
      <trkpt lat="39.818177" lon="-8.726017">
        <ele>156.8</ele>
        <time>1970-01-01T01:03:32.000Z</time>
      </trkpt>
      <trkpt lat="39.818194" lon="-8.726046">
        <ele>157.1</ele>
        <time>1970-01-01T01:03:33.000Z</time>
      </trkpt>
      <trkpt lat="39.818206" lon="-8.726074">
        <ele>157.3</ele>
        <time>1970-01-01T01:03:34.000Z</time>
      </trkpt>
      <trkpt lat="39.818212" lon="-8.726087">
        <ele>157.5</ele>
        <time>1970-01-01T01:03:35.000Z</time>
      </trkpt>
      <trkpt lat="39.818217" lon="-8.726099">
        <ele>157.6</ele>
        <time>1970-01-01T01:03:36.000Z</time>
      </trkpt>
      <trkpt lat="39.818223" lon="-8.726112">
        <ele>157.7</ele>
        <time>1970-01-01T01:03:38.000Z</time>
      </trkpt>
      <trkpt lat="39.818228" lon="-8.726124">
        <ele>157.8</ele>
        <time>1970-01-01T01:03:38.000Z</time>
      </trkpt>
      <trkpt lat="39.818243" lon="-8.726155">
        <ele>158.2</ele>
        <time>1970-01-01T01:03:40.000Z</time>
      </trkpt>
      <trkpt lat="39.818245" lon="-8.726159">
        <ele>158.2</ele>
        <time>1970-01-01T01:03:40.000Z</time>
      </trkpt>
      <trkpt lat="39.81826" lon="-8.726182">
        <ele>158.5</ele>
        <time>1970-01-01T01:03:41.000Z</time>
      </trkpt>
      <trkpt lat="39.818274" lon="-8.7262">
        <ele>158.8</ele>
        <time>1970-01-01T01:03:42.000Z</time>
      </trkpt>
      <trkpt lat="39.818281" lon="-8.726207">
        <ele>158.9</ele>
        <time>1970-01-01T01:03:43.000Z</time>
      </trkpt>
      <trkpt lat="39.818287" lon="-8.726215">
        <ele>159</ele>
        <time>1970-01-01T01:03:45.000Z</time>
      </trkpt>
      <trkpt lat="39.818293" lon="-8.726223">
        <ele>159.2</ele>
        <time>1970-01-01T01:03:45.000Z</time>
      </trkpt>
      <trkpt lat="39.818317" lon="-8.72624">
        <ele>159.5</ele>
        <time>1970-01-01T01:03:46.000Z</time>
      </trkpt>
      <trkpt lat="39.818333" lon="-8.726248">
        <ele>159.8</ele>
        <time>1970-01-01T01:03:47.000Z</time>
      </trkpt>
      <trkpt lat="39.818339" lon="-8.726252">
        <ele>159.9</ele>
        <time>1970-01-01T01:03:49.000Z</time>
      </trkpt>
      <trkpt lat="39.818345" lon="-8.726255">
        <ele>160</ele>
        <time>1970-01-01T01:03:49.000Z</time>
      </trkpt>
      <trkpt lat="39.818367" lon="-8.726243">
        <ele>160.3</ele>
        <time>1970-01-01T01:03:50.000Z</time>
      </trkpt>
      <trkpt lat="39.818386" lon="-8.726225">
        <ele>160.6</ele>
        <time>1970-01-01T01:03:51.000Z</time>
      </trkpt>
      <trkpt lat="39.818394" lon="-8.726217">
        <ele>160.8</ele>
        <time>1970-01-01T01:03:52.000Z</time>
      </trkpt>
      <trkpt lat="39.818403" lon="-8.726208">
        <ele>160.9</ele>
        <time>1970-01-01T01:03:53.000Z</time>
      </trkpt>
      <trkpt lat="39.818412" lon="-8.7262">
        <ele>161.1</ele>
        <time>1970-01-01T01:03:54.000Z</time>
      </trkpt>
      <trkpt lat="39.81842" lon="-8.726192">
        <ele>161.2</ele>
        <time>1970-01-01T01:03:55.000Z</time>
      </trkpt>
      <trkpt lat="39.818429" lon="-8.726184">
        <ele>161.4</ele>
        <time>1970-01-01T01:03:56.000Z</time>
      </trkpt>
      <trkpt lat="39.818437" lon="-8.726175">
        <ele>161.5</ele>
        <time>1970-01-01T01:03:58.000Z</time>
      </trkpt>
      <trkpt lat="39.818446" lon="-8.726167">
        <ele>161.7</ele>
        <time>1970-01-01T01:03:58.000Z</time>
      </trkpt>
      <trkpt lat="39.818459" lon="-8.726148">
        <ele>161.9</ele>
        <time>1970-01-01T01:03:59.000Z</time>
      </trkpt>
      <trkpt lat="39.818474" lon="-8.726126">
        <ele>162.2</ele>
        <time>1970-01-01T01:04:00.000Z</time>
      </trkpt>
      <trkpt lat="39.81849" lon="-8.726102">
        <ele>162.5</ele>
        <time>1970-01-01T01:04:01.000Z</time>
      </trkpt>
      <trkpt lat="39.818513" lon="-8.726063">
        <ele>162.9</ele>
        <time>1970-01-01T01:04:03.000Z</time>
      </trkpt>
      <trkpt lat="39.818516" lon="-8.726057">
        <ele>162.9</ele>
        <time>1970-01-01T01:04:03.000Z</time>
      </trkpt>
      <trkpt lat="39.818528" lon="-8.726037">
        <ele>163.1</ele>
        <time>1970-01-01T01:04:04.000Z</time>
      </trkpt>
      <trkpt lat="39.818538" lon="-8.72602">
        <ele>163.3</ele>
        <time>1970-01-01T01:04:05.000Z</time>
      </trkpt>
      <trkpt lat="39.818548" lon="-8.726006">
        <ele>163.4</ele>
        <time>1970-01-01T01:04:06.000Z</time>
      </trkpt>
      <trkpt lat="39.818561" lon="-8.725994">
        <ele>163.5</ele>
        <time>1970-01-01T01:04:07.000Z</time>
      </trkpt>
      <trkpt lat="39.818577" lon="-8.725984">
        <ele>163.6</ele>
        <time>1970-01-01T01:04:08.000Z</time>
      </trkpt>
      <trkpt lat="39.818593" lon="-8.725973">
        <ele>163.7</ele>
        <time>1970-01-01T01:04:09.000Z</time>
      </trkpt>
      <trkpt lat="39.81861" lon="-8.725967">
        <ele>163.8</ele>
        <time>1970-01-01T01:04:10.000Z</time>
      </trkpt>
      <trkpt lat="39.818629" lon="-8.725966">
        <ele>163.9</ele>
        <time>1970-01-01T01:04:11.000Z</time>
      </trkpt>
      <trkpt lat="39.818648" lon="-8.725967">
        <ele>164</ele>
        <time>1970-01-01T01:04:12.000Z</time>
      </trkpt>
      <trkpt lat="39.818673" lon="-8.725973">
        <ele>164.2</ele>
        <time>1970-01-01T01:04:14.000Z</time>
      </trkpt>
      <trkpt lat="39.818677" lon="-8.725974">
        <ele>164.2</ele>
        <time>1970-01-01T01:04:14.000Z</time>
      </trkpt>
      <trkpt lat="39.818691" lon="-8.725976">
        <ele>164.3</ele>
        <time>1970-01-01T01:04:15.000Z</time>
      </trkpt>
      <trkpt lat="39.818708" lon="-8.72598">
        <ele>164.4</ele>
        <time>1970-01-01T01:04:16.000Z</time>
      </trkpt>
      <trkpt lat="39.818724" lon="-8.725986">
        <ele>164.5</ele>
        <time>1970-01-01T01:04:17.000Z</time>
      </trkpt>
      <trkpt lat="39.81874" lon="-8.725993">
        <ele>164.6</ele>
        <time>1970-01-01T01:04:18.000Z</time>
      </trkpt>
      <trkpt lat="39.818758" lon="-8.726001">
        <ele>164.7</ele>
        <time>1970-01-01T01:04:19.000Z</time>
      </trkpt>
      <trkpt lat="39.818774" lon="-8.726011">
        <ele>164.8</ele>
        <time>1970-01-01T01:04:20.000Z</time>
      </trkpt>
      <trkpt lat="39.818791" lon="-8.72602">
        <ele>164.9</ele>
        <time>1970-01-01T01:04:21.000Z</time>
      </trkpt>
      <trkpt lat="39.81881" lon="-8.726028">
        <ele>165</ele>
        <time>1970-01-01T01:04:22.000Z</time>
      </trkpt>
      <trkpt lat="39.81883" lon="-8.726036">
        <ele>165.2</ele>
        <time>1970-01-01T01:04:23.000Z</time>
      </trkpt>
      <trkpt lat="39.818862" lon="-8.726051">
        <ele>165.4</ele>
        <time>1970-01-01T01:04:25.000Z</time>
      </trkpt>
      <trkpt lat="39.818866" lon="-8.726054">
        <ele>165.4</ele>
        <time>1970-01-01T01:04:25.000Z</time>
      </trkpt>
      <trkpt lat="39.818882" lon="-8.726064">
        <ele>165.6</ele>
        <time>1970-01-01T01:04:26.000Z</time>
      </trkpt>
      <trkpt lat="39.818898" lon="-8.726073">
        <ele>165.7</ele>
        <time>1970-01-01T01:04:27.000Z</time>
      </trkpt>
      <trkpt lat="39.818914" lon="-8.726084">
        <ele>165.8</ele>
        <time>1970-01-01T01:04:28.000Z</time>
      </trkpt>
      <trkpt lat="39.818933" lon="-8.726094">
        <ele>166</ele>
        <time>1970-01-01T01:04:29.000Z</time>
      </trkpt>
      <trkpt lat="39.818954" lon="-8.726103">
        <ele>166.2</ele>
        <time>1970-01-01T01:04:30.000Z</time>
      </trkpt>
      <trkpt lat="39.818977" lon="-8.726109">
        <ele>166.4</ele>
        <time>1970-01-01T01:04:31.000Z</time>
      </trkpt>
      <trkpt lat="39.818997" lon="-8.726112">
        <ele>166.6</ele>
        <time>1970-01-01T01:04:32.000Z</time>
      </trkpt>
      <trkpt lat="39.819034" lon="-8.726114">
        <ele>166.9</ele>
        <time>1970-01-01T01:04:34.000Z</time>
      </trkpt>
      <trkpt lat="39.819039" lon="-8.726115">
        <ele>166.9</ele>
        <time>1970-01-01T01:04:34.000Z</time>
      </trkpt>
      <trkpt lat="39.81906" lon="-8.726118">
        <ele>167.1</ele>
        <time>1970-01-01T01:04:35.000Z</time>
      </trkpt>
      <trkpt lat="39.819075" lon="-8.72612">
        <ele>167.2</ele>
        <time>1970-01-01T01:04:36.000Z</time>
      </trkpt>
      <trkpt lat="39.819089" lon="-8.726124">
        <ele>167.3</ele>
        <time>1970-01-01T01:04:37.000Z</time>
      </trkpt>
      <trkpt lat="39.819099" lon="-8.726127">
        <ele>167.4</ele>
        <time>1970-01-01T01:04:38.000Z</time>
      </trkpt>
      <trkpt lat="39.81911" lon="-8.726126">
        <ele>167.5</ele>
        <time>1970-01-01T01:04:39.000Z</time>
      </trkpt>
      <trkpt lat="39.819119" lon="-8.726122">
        <ele>167.5</ele>
        <time>1970-01-01T01:04:40.000Z</time>
      </trkpt>
      <trkpt lat="39.81913" lon="-8.726118">
        <ele>167.6</ele>
        <time>1970-01-01T01:04:41.000Z</time>
      </trkpt>
      <trkpt lat="39.819143" lon="-8.726115">
        <ele>167.7</ele>
        <time>1970-01-01T01:04:42.000Z</time>
      </trkpt>
      <trkpt lat="39.81916" lon="-8.726109">
        <ele>167.8</ele>
        <time>1970-01-01T01:04:43.000Z</time>
      </trkpt>
      <trkpt lat="39.819179" lon="-8.726098">
        <ele>167.9</ele>
        <time>1970-01-01T01:04:44.000Z</time>
      </trkpt>
      <trkpt lat="39.819214" lon="-8.726076">
        <ele>168.1</ele>
        <time>1970-01-01T01:04:46.000Z</time>
      </trkpt>
      <trkpt lat="39.819218" lon="-8.726072">
        <ele>168.2</ele>
        <time>1970-01-01T01:04:46.000Z</time>
      </trkpt>
      <trkpt lat="39.819237" lon="-8.726058">
        <ele>168.2</ele>
        <time>1970-01-01T01:04:47.000Z</time>
      </trkpt>
      <trkpt lat="39.819255" lon="-8.726041">
        <ele>168.3</ele>
        <time>1970-01-01T01:04:48.000Z</time>
      </trkpt>
      <trkpt lat="39.819274" lon="-8.726021">
        <ele>168.5</ele>
        <time>1970-01-01T01:04:49.000Z</time>
      </trkpt>
      <trkpt lat="39.819288" lon="-8.725998">
        <ele>168.6</ele>
        <time>1970-01-01T01:04:50.000Z</time>
      </trkpt>
      <trkpt lat="39.819299" lon="-8.725977">
        <ele>168.6</ele>
        <time>1970-01-01T01:04:51.000Z</time>
      </trkpt>
      <trkpt lat="39.819309" lon="-8.725958">
        <ele>168.7</ele>
        <time>1970-01-01T01:04:52.000Z</time>
      </trkpt>
      <trkpt lat="39.819318" lon="-8.725936">
        <ele>168.8</ele>
        <time>1970-01-01T01:04:53.000Z</time>
      </trkpt>
      <trkpt lat="39.819332" lon="-8.725891">
        <ele>169</ele>
        <time>1970-01-01T01:04:55.000Z</time>
      </trkpt>
      <trkpt lat="39.819333" lon="-8.725884">
        <ele>169</ele>
        <time>1970-01-01T01:04:55.000Z</time>
      </trkpt>
      <trkpt lat="39.819333" lon="-8.725856">
        <ele>169.1</ele>
        <time>1970-01-01T01:04:56.000Z</time>
      </trkpt>
      <trkpt lat="39.819332" lon="-8.725827">
        <ele>169.3</ele>
        <time>1970-01-01T01:04:57.000Z</time>
      </trkpt>
      <trkpt lat="39.819333" lon="-8.725798">
        <ele>169.4</ele>
        <time>1970-01-01T01:04:58.000Z</time>
      </trkpt>
      <trkpt lat="39.819338" lon="-8.725768">
        <ele>169.5</ele>
        <time>1970-01-01T01:04:59.000Z</time>
      </trkpt>
      <trkpt lat="39.819348" lon="-8.725737">
        <ele>169.6</ele>
        <time>1970-01-01T01:05:00.000Z</time>
      </trkpt>
      <trkpt lat="39.819359" lon="-8.725708">
        <ele>169.8</ele>
        <time>1970-01-01T01:05:01.000Z</time>
      </trkpt>
      <trkpt lat="39.819369" lon="-8.72568">
        <ele>169.9</ele>
        <time>1970-01-01T01:05:02.000Z</time>
      </trkpt>
      <trkpt lat="39.819379" lon="-8.725653">
        <ele>170</ele>
        <time>1970-01-01T01:05:03.000Z</time>
      </trkpt>
      <trkpt lat="39.819391" lon="-8.725626">
        <ele>170.2</ele>
        <time>1970-01-01T01:05:04.000Z</time>
      </trkpt>
      <trkpt lat="39.819405" lon="-8.7256">
        <ele>170.3</ele>
        <time>1970-01-01T01:05:05.000Z</time>
      </trkpt>
      <trkpt lat="39.819419" lon="-8.725575">
        <ele>170.3</ele>
        <time>1970-01-01T01:05:06.000Z</time>
      </trkpt>
      <trkpt lat="39.819431" lon="-8.725553">
        <ele>170.4</ele>
        <time>1970-01-01T01:05:07.000Z</time>
      </trkpt>
      <trkpt lat="39.819442" lon="-8.725534">
        <ele>170.4</ele>
        <time>1970-01-01T01:05:08.000Z</time>
      </trkpt>
      <trkpt lat="39.819466" lon="-8.725506">
        <ele>170.4</ele>
        <time>1970-01-01T01:05:09.000Z</time>
      </trkpt>
      <trkpt lat="39.819485" lon="-8.725489">
        <ele>170.4</ele>
        <time>1970-01-01T01:05:11.000Z</time>
      </trkpt>
      <trkpt lat="39.819491" lon="-8.725483">
        <ele>170.4</ele>
        <time>1970-01-01T01:05:11.000Z</time>
      </trkpt>
      <trkpt lat="39.819509" lon="-8.725465">
        <ele>170.4</ele>
        <time>1970-01-01T01:05:12.000Z</time>
      </trkpt>
      <trkpt lat="39.819527" lon="-8.725446">
        <ele>170.4</ele>
        <time>1970-01-01T01:05:13.000Z</time>
      </trkpt>
      <trkpt lat="39.819548" lon="-8.725426">
        <ele>170.3</ele>
        <time>1970-01-01T01:05:14.000Z</time>
      </trkpt>
      <trkpt lat="39.819572" lon="-8.725409">
        <ele>170.2</ele>
        <time>1970-01-01T01:05:15.000Z</time>
      </trkpt>
      <trkpt lat="39.819605" lon="-8.725389">
        <ele>170.2</ele>
        <time>1970-01-01T01:05:17.000Z</time>
      </trkpt>
      <trkpt lat="39.819615" lon="-8.725383">
        <ele>170.3</ele>
        <time>1970-01-01T01:05:17.000Z</time>
      </trkpt>
      <trkpt lat="39.819632" lon="-8.725374">
        <ele>170.4</ele>
        <time>1970-01-01T01:05:18.000Z</time>
      </trkpt>
      <trkpt lat="39.819649" lon="-8.725369">
        <ele>170.4</ele>
        <time>1970-01-01T01:05:19.000Z</time>
      </trkpt>
      <trkpt lat="39.819667" lon="-8.725366">
        <ele>170.5</ele>
        <time>1970-01-01T01:05:20.000Z</time>
      </trkpt>
      <trkpt lat="39.819688" lon="-8.725366">
        <ele>170.6</ele>
        <time>1970-01-01T01:05:21.000Z</time>
      </trkpt>
      <trkpt lat="39.819707" lon="-8.725369">
        <ele>170.7</ele>
        <time>1970-01-01T01:05:22.000Z</time>
      </trkpt>
      <trkpt lat="39.819726" lon="-8.725374">
        <ele>170.8</ele>
        <time>1970-01-01T01:05:23.000Z</time>
      </trkpt>
      <trkpt lat="39.819742" lon="-8.725378">
        <ele>170.9</ele>
        <time>1970-01-01T01:05:24.000Z</time>
      </trkpt>
      <trkpt lat="39.819756" lon="-8.725384">
        <ele>170.9</ele>
        <time>1970-01-01T01:05:25.000Z</time>
      </trkpt>
      <trkpt lat="39.819766" lon="-8.725393">
        <ele>171</ele>
        <time>1970-01-01T01:05:26.000Z</time>
      </trkpt>
      <trkpt lat="39.819772" lon="-8.725403">
        <ele>171.1</ele>
        <time>1970-01-01T01:05:27.000Z</time>
      </trkpt>
      <trkpt lat="39.819779" lon="-8.725413">
        <ele>171.2</ele>
        <time>1970-01-01T01:05:28.000Z</time>
      </trkpt>
      <trkpt lat="39.819785" lon="-8.725423">
        <ele>171.2</ele>
        <time>1970-01-01T01:05:29.000Z</time>
      </trkpt>
      <trkpt lat="39.81979" lon="-8.725433">
        <ele>171.3</ele>
        <time>1970-01-01T01:05:30.000Z</time>
      </trkpt>
      <trkpt lat="39.819793" lon="-8.725446">
        <ele>171.4</ele>
        <time>1970-01-01T01:05:31.000Z</time>
      </trkpt>
      <trkpt lat="39.819798" lon="-8.725461">
        <ele>171.5</ele>
        <time>1970-01-01T01:05:32.000Z</time>
      </trkpt>
      <trkpt lat="39.819805" lon="-8.725479">
        <ele>171.6</ele>
        <time>1970-01-01T01:05:33.000Z</time>
      </trkpt>
      <trkpt lat="39.819811" lon="-8.725495">
        <ele>171.7</ele>
        <time>1970-01-01T01:05:34.000Z</time>
      </trkpt>
      <trkpt lat="39.819817" lon="-8.725509">
        <ele>171.8</ele>
        <time>1970-01-01T01:05:35.000Z</time>
      </trkpt>
      <trkpt lat="39.819827" lon="-8.725522">
        <ele>171.9</ele>
        <time>1970-01-01T01:05:36.000Z</time>
      </trkpt>
      <trkpt lat="39.819839" lon="-8.725534">
        <ele>172.1</ele>
        <time>1970-01-01T01:05:37.000Z</time>
      </trkpt>
      <trkpt lat="39.819853" lon="-8.725547">
        <ele>172.3</ele>
        <time>1970-01-01T01:05:38.000Z</time>
      </trkpt>
      <trkpt lat="39.819869" lon="-8.725562">
        <ele>172.5</ele>
        <time>1970-01-01T01:05:39.000Z</time>
      </trkpt>
      <trkpt lat="39.819886" lon="-8.725579">
        <ele>172.8</ele>
        <time>1970-01-01T01:05:40.000Z</time>
      </trkpt>
      <trkpt lat="39.819901" lon="-8.725594">
        <ele>173</ele>
        <time>1970-01-01T01:05:41.000Z</time>
      </trkpt>
      <trkpt lat="39.819919" lon="-8.725619">
        <ele>173.4</ele>
        <time>1970-01-01T01:05:42.000Z</time>
      </trkpt>
      <trkpt lat="39.819928" lon="-8.725638">
        <ele>173.7</ele>
        <time>1970-01-01T01:05:43.000Z</time>
      </trkpt>
      <trkpt lat="39.819933" lon="-8.725647">
        <ele>173.8</ele>
        <time>1970-01-01T01:05:44.000Z</time>
      </trkpt>
      <trkpt lat="39.819937" lon="-8.725655">
        <ele>173.9</ele>
        <time>1970-01-01T01:05:46.000Z</time>
      </trkpt>
      <trkpt lat="39.819941" lon="-8.725664">
        <ele>174.1</ele>
        <time>1970-01-01T01:05:46.000Z</time>
      </trkpt>
      <trkpt lat="39.81994" lon="-8.725687">
        <ele>174.4</ele>
        <time>1970-01-01T01:05:47.000Z</time>
      </trkpt>
      <trkpt lat="39.81994" lon="-8.725693">
        <ele>174.4</ele>
        <time>1970-01-01T01:05:48.000Z</time>
      </trkpt>
      <trkpt lat="39.819939" lon="-8.7257">
        <ele>174.5</ele>
        <time>1970-01-01T01:05:49.000Z</time>
      </trkpt>
      <trkpt lat="39.819938" lon="-8.725707">
        <ele>174.6</ele>
        <time>1970-01-01T01:05:50.000Z</time>
      </trkpt>
      <trkpt lat="39.819938" lon="-8.725713">
        <ele>174.7</ele>
        <time>1970-01-01T01:05:51.000Z</time>
      </trkpt>
      <trkpt lat="39.819937" lon="-8.72572">
        <ele>174.8</ele>
        <time>1970-01-01T01:05:52.000Z</time>
      </trkpt>
      <trkpt lat="39.819936" lon="-8.725727">
        <ele>174.9</ele>
        <time>1970-01-01T01:05:53.000Z</time>
      </trkpt>
      <trkpt lat="39.819936" lon="-8.725733">
        <ele>175</ele>
        <time>1970-01-01T01:05:55.000Z</time>
      </trkpt>
      <trkpt lat="39.819935" lon="-8.72574">
        <ele>175.1</ele>
        <time>1970-01-01T01:05:55.000Z</time>
      </trkpt>
      <trkpt lat="39.81993" lon="-8.725769">
        <ele>175.5</ele>
        <time>1970-01-01T01:05:56.000Z</time>
      </trkpt>
      <trkpt lat="39.819927" lon="-8.725791">
        <ele>175.8</ele>
        <time>1970-01-01T01:05:57.000Z</time>
      </trkpt>
      <trkpt lat="39.819926" lon="-8.7258">
        <ele>175.9</ele>
        <time>1970-01-01T01:05:58.000Z</time>
      </trkpt>
      <trkpt lat="39.819925" lon="-8.72581">
        <ele>176</ele>
        <time>1970-01-01T01:06:00.000Z</time>
      </trkpt>
      <trkpt lat="39.819924" lon="-8.725819">
        <ele>176.2</ele>
        <time>1970-01-01T01:06:00.000Z</time>
      </trkpt>
      <trkpt lat="39.819927" lon="-8.725833">
        <ele>176.4</ele>
        <time>1970-01-01T01:06:01.000Z</time>
      </trkpt>
      <trkpt lat="39.819931" lon="-8.725848">
        <ele>176.6</ele>
        <time>1970-01-01T01:06:02.000Z</time>
      </trkpt>
      <trkpt lat="39.819936" lon="-8.725862">
        <ele>176.8</ele>
        <time>1970-01-01T01:06:03.000Z</time>
      </trkpt>
      <trkpt lat="39.819943" lon="-8.725873">
        <ele>177</ele>
        <time>1970-01-01T01:06:04.000Z</time>
      </trkpt>
      <trkpt lat="39.819953" lon="-8.725881">
        <ele>177.2</ele>
        <time>1970-01-01T01:06:05.000Z</time>
      </trkpt>
      <trkpt lat="39.819966" lon="-8.725886">
        <ele>177.4</ele>
        <time>1970-01-01T01:06:06.000Z</time>
      </trkpt>
      <trkpt lat="39.819975" lon="-8.725892">
        <ele>177.6</ele>
        <time>1970-01-01T01:06:07.000Z</time>
      </trkpt>
      <trkpt lat="39.819991" lon="-8.725904">
        <ele>177.9</ele>
        <time>1970-01-01T01:06:10.000Z</time>
      </trkpt>
      <trkpt lat="39.819996" lon="-8.725899">
        <ele>178</ele>
        <time>1970-01-01T01:06:12.000Z</time>
      </trkpt>
      <trkpt lat="39.819997" lon="-8.725898">
        <ele>178.1</ele>
        <time>1970-01-01T01:06:13.000Z</time>
      </trkpt>
      <trkpt lat="39.820006" lon="-8.725899">
        <ele>178.2</ele>
        <time>1970-01-01T01:06:14.000Z</time>
      </trkpt>
      <trkpt lat="39.820021" lon="-8.725905">
        <ele>178.5</ele>
        <time>1970-01-01T01:06:15.000Z</time>
      </trkpt>
      <trkpt lat="39.82004" lon="-8.72591">
        <ele>178.8</ele>
        <time>1970-01-01T01:06:16.000Z</time>
      </trkpt>
      <trkpt lat="39.820067" lon="-8.725917">
        <ele>179.3</ele>
        <time>1970-01-01T01:06:17.000Z</time>
      </trkpt>
      <trkpt lat="39.820083" lon="-8.725922">
        <ele>179.6</ele>
        <time>1970-01-01T01:06:19.000Z</time>
      </trkpt>
      <trkpt lat="39.820088" lon="-8.725924">
        <ele>179.7</ele>
        <time>1970-01-01T01:06:19.000Z</time>
      </trkpt>
      <trkpt lat="39.82011" lon="-8.725932">
        <ele>180</ele>
        <time>1970-01-01T01:06:20.000Z</time>
      </trkpt>
      <trkpt lat="39.820128" lon="-8.725933">
        <ele>180.3</ele>
        <time>1970-01-01T01:06:21.000Z</time>
      </trkpt>
      <trkpt lat="39.820136" lon="-8.725934">
        <ele>180.5</ele>
        <time>1970-01-01T01:06:22.000Z</time>
      </trkpt>
      <trkpt lat="39.820143" lon="-8.725934">
        <ele>180.6</ele>
        <time>1970-01-01T01:06:24.000Z</time>
      </trkpt>
      <trkpt lat="39.820151" lon="-8.725935">
        <ele>180.7</ele>
        <time>1970-01-01T01:06:24.000Z</time>
      </trkpt>
      <trkpt lat="39.820177" lon="-8.725926">
        <ele>181.1</ele>
        <time>1970-01-01T01:06:25.000Z</time>
      </trkpt>
      <trkpt lat="39.820194" lon="-8.725919">
        <ele>181.4</ele>
        <time>1970-01-01T01:06:26.000Z</time>
      </trkpt>
      <trkpt lat="39.820201" lon="-8.725916">
        <ele>181.5</ele>
        <time>1970-01-01T01:06:28.000Z</time>
      </trkpt>
      <trkpt lat="39.820208" lon="-8.725913">
        <ele>181.6</ele>
        <time>1970-01-01T01:06:28.000Z</time>
      </trkpt>
      <trkpt lat="39.820228" lon="-8.725904">
        <ele>181.8</ele>
        <time>1970-01-01T01:06:29.000Z</time>
      </trkpt>
      <trkpt lat="39.820244" lon="-8.725902">
        <ele>182</ele>
        <time>1970-01-01T01:06:30.000Z</time>
      </trkpt>
      <trkpt lat="39.820252" lon="-8.725902">
        <ele>182.1</ele>
        <time>1970-01-01T01:06:31.000Z</time>
      </trkpt>
      <trkpt lat="39.820259" lon="-8.725901">
        <ele>182.2</ele>
        <time>1970-01-01T01:06:32.000Z</time>
      </trkpt>
      <trkpt lat="39.820267" lon="-8.7259">
        <ele>182.3</ele>
        <time>1970-01-01T01:06:33.000Z</time>
      </trkpt>
      <trkpt lat="39.820274" lon="-8.725899">
        <ele>182.4</ele>
        <time>1970-01-01T01:06:34.000Z</time>
      </trkpt>
      <trkpt lat="39.820281" lon="-8.725899">
        <ele>182.5</ele>
        <time>1970-01-01T01:06:35.000Z</time>
      </trkpt>
      <trkpt lat="39.820289" lon="-8.725898">
        <ele>182.6</ele>
        <time>1970-01-01T01:06:37.000Z</time>
      </trkpt>
      <trkpt lat="39.820296" lon="-8.725897">
        <ele>182.7</ele>
        <time>1970-01-01T01:06:37.000Z</time>
      </trkpt>
      <trkpt lat="39.820311" lon="-8.725899">
        <ele>182.8</ele>
        <time>1970-01-01T01:06:38.000Z</time>
      </trkpt>
      <trkpt lat="39.820326" lon="-8.725903">
        <ele>183</ele>
        <time>1970-01-01T01:06:39.000Z</time>
      </trkpt>
      <trkpt lat="39.820344" lon="-8.725911">
        <ele>183.1</ele>
        <time>1970-01-01T01:06:40.000Z</time>
      </trkpt>
      <trkpt lat="39.820362" lon="-8.725923">
        <ele>183.3</ele>
        <time>1970-01-01T01:06:41.000Z</time>
      </trkpt>
      <trkpt lat="39.820377" lon="-8.725936">
        <ele>183.4</ele>
        <time>1970-01-01T01:06:42.000Z</time>
      </trkpt>
      <trkpt lat="39.82039" lon="-8.725949">
        <ele>183.6</ele>
        <time>1970-01-01T01:06:43.000Z</time>
      </trkpt>
      <trkpt lat="39.820401" lon="-8.725964">
        <ele>183.7</ele>
        <time>1970-01-01T01:06:44.000Z</time>
      </trkpt>
      <trkpt lat="39.820414" lon="-8.725981">
        <ele>183.8</ele>
        <time>1970-01-01T01:06:45.000Z</time>
      </trkpt>
      <trkpt lat="39.820426" lon="-8.726">
        <ele>183.9</ele>
        <time>1970-01-01T01:06:46.000Z</time>
      </trkpt>
      <trkpt lat="39.820441" lon="-8.726018">
        <ele>184.1</ele>
        <time>1970-01-01T01:06:47.000Z</time>
      </trkpt>
      <trkpt lat="39.820456" lon="-8.726037">
        <ele>184.2</ele>
        <time>1970-01-01T01:06:48.000Z</time>
      </trkpt>
      <trkpt lat="39.82047" lon="-8.726056">
        <ele>184.3</ele>
        <time>1970-01-01T01:06:49.000Z</time>
      </trkpt>
      <trkpt lat="39.820486" lon="-8.726075">
        <ele>184.5</ele>
        <time>1970-01-01T01:06:50.000Z</time>
      </trkpt>
      <trkpt lat="39.820502" lon="-8.726094">
        <ele>184.6</ele>
        <time>1970-01-01T01:06:51.000Z</time>
      </trkpt>
      <trkpt lat="39.820517" lon="-8.726115">
        <ele>184.7</ele>
        <time>1970-01-01T01:06:52.000Z</time>
      </trkpt>
      <trkpt lat="39.820531" lon="-8.726135">
        <ele>184.9</ele>
        <time>1970-01-01T01:06:53.000Z</time>
      </trkpt>
      <trkpt lat="39.820545" lon="-8.726154">
        <ele>185</ele>
        <time>1970-01-01T01:06:54.000Z</time>
      </trkpt>
      <trkpt lat="39.820559" lon="-8.726171">
        <ele>185.1</ele>
        <time>1970-01-01T01:06:55.000Z</time>
      </trkpt>
      <trkpt lat="39.820576" lon="-8.726183">
        <ele>185.2</ele>
        <time>1970-01-01T01:06:56.000Z</time>
      </trkpt>
      <trkpt lat="39.820592" lon="-8.726194">
        <ele>185.3</ele>
        <time>1970-01-01T01:06:57.000Z</time>
      </trkpt>
      <trkpt lat="39.820609" lon="-8.726202">
        <ele>185.6</ele>
        <time>1970-01-01T01:06:58.000Z</time>
      </trkpt>
      <trkpt lat="39.820635" lon="-8.726208">
        <ele>185.7</ele>
        <time>1970-01-01T01:06:59.000Z</time>
      </trkpt>
      <trkpt lat="39.820657" lon="-8.726208">
        <ele>185.8</ele>
        <time>1970-01-01T01:07:00.000Z</time>
      </trkpt>
      <trkpt lat="39.820668" lon="-8.726208">
        <ele>185.8</ele>
        <time>1970-01-01T01:07:01.000Z</time>
      </trkpt>
      <trkpt lat="39.820678" lon="-8.726208">
        <ele>185.8</ele>
        <time>1970-01-01T01:07:02.000Z</time>
      </trkpt>
      <trkpt lat="39.820689" lon="-8.726208">
        <ele>185.9</ele>
        <time>1970-01-01T01:07:03.000Z</time>
      </trkpt>
      <trkpt lat="39.820699" lon="-8.726208">
        <ele>185.9</ele>
        <time>1970-01-01T01:07:04.000Z</time>
      </trkpt>
      <trkpt lat="39.820709" lon="-8.726208">
        <ele>185.9</ele>
        <time>1970-01-01T01:07:05.000Z</time>
      </trkpt>
      <trkpt lat="39.82072" lon="-8.726208">
        <ele>186</ele>
        <time>1970-01-01T01:07:07.000Z</time>
      </trkpt>
      <trkpt lat="39.82073" lon="-8.726208">
        <ele>186</ele>
        <time>1970-01-01T01:07:07.000Z</time>
      </trkpt>
      <trkpt lat="39.820762" lon="-8.726201">
        <ele>186.1</ele>
        <time>1970-01-01T01:07:08.000Z</time>
      </trkpt>
      <trkpt lat="39.820787" lon="-8.726198">
        <ele>186.2</ele>
        <time>1970-01-01T01:07:09.000Z</time>
      </trkpt>
      <trkpt lat="39.820797" lon="-8.726197">
        <ele>186.2</ele>
        <time>1970-01-01T01:07:11.000Z</time>
      </trkpt>
      <trkpt lat="39.820807" lon="-8.726196">
        <ele>186.2</ele>
        <time>1970-01-01T01:07:11.000Z</time>
      </trkpt>
      <trkpt lat="39.820846" lon="-8.726199">
        <ele>186.3</ele>
        <time>1970-01-01T01:07:13.000Z</time>
      </trkpt>
      <trkpt lat="39.820851" lon="-8.7262">
        <ele>186.4</ele>
        <time>1970-01-01T01:07:13.000Z</time>
      </trkpt>
      <trkpt lat="39.820871" lon="-8.726204">
        <ele>186.4</ele>
        <time>1970-01-01T01:07:14.000Z</time>
      </trkpt>
      <trkpt lat="39.820894" lon="-8.72621">
        <ele>186.5</ele>
        <time>1970-01-01T01:07:15.000Z</time>
      </trkpt>
      <trkpt lat="39.820917" lon="-8.726214">
        <ele>186.5</ele>
        <time>1970-01-01T01:07:16.000Z</time>
      </trkpt>
      <trkpt lat="39.820938" lon="-8.726218">
        <ele>186.6</ele>
        <time>1970-01-01T01:07:17.000Z</time>
      </trkpt>
      <trkpt lat="39.820964" lon="-8.726221">
        <ele>186.7</ele>
        <time>1970-01-01T01:07:18.000Z</time>
      </trkpt>
      <trkpt lat="39.820992" lon="-8.726224">
        <ele>186.8</ele>
        <time>1970-01-01T01:07:19.000Z</time>
      </trkpt>
      <trkpt lat="39.821025" lon="-8.726227">
        <ele>186.9</ele>
        <time>1970-01-01T01:07:20.000Z</time>
      </trkpt>
      <trkpt lat="39.821079" lon="-8.726234">
        <ele>187.1</ele>
        <time>1970-01-01T01:07:22.000Z</time>
      </trkpt>
      <trkpt lat="39.821097" lon="-8.726236">
        <ele>187.1</ele>
        <time>1970-01-01T01:07:22.000Z</time>
      </trkpt>
      <trkpt lat="39.821138" lon="-8.726241">
        <ele>187.3</ele>
        <time>1970-01-01T01:07:23.000Z</time>
      </trkpt>
      <trkpt lat="39.821179" lon="-8.726245">
        <ele>187.4</ele>
        <time>1970-01-01T01:07:24.000Z</time>
      </trkpt>
      <trkpt lat="39.821219" lon="-8.72625">
        <ele>187.5</ele>
        <time>1970-01-01T01:07:25.000Z</time>
      </trkpt>
      <trkpt lat="39.82126" lon="-8.726255">
        <ele>187.6</ele>
        <time>1970-01-01T01:07:26.000Z</time>
      </trkpt>
      <trkpt lat="39.821297" lon="-8.726258">
        <ele>187.7</ele>
        <time>1970-01-01T01:07:28.000Z</time>
      </trkpt>
      <trkpt lat="39.821337" lon="-8.726261">
        <ele>187.9</ele>
        <time>1970-01-01T01:07:28.000Z</time>
      </trkpt>
      <trkpt lat="39.821375" lon="-8.726264">
        <ele>188</ele>
        <time>1970-01-01T01:07:29.000Z</time>
      </trkpt>
      <trkpt lat="39.821413" lon="-8.726267">
        <ele>188.1</ele>
        <time>1970-01-01T01:07:30.000Z</time>
      </trkpt>
      <trkpt lat="39.82145" lon="-8.726271">
        <ele>188.2</ele>
        <time>1970-01-01T01:07:31.000Z</time>
      </trkpt>
      <trkpt lat="39.821489" lon="-8.726277">
        <ele>188.3</ele>
        <time>1970-01-01T01:07:32.000Z</time>
      </trkpt>
      <trkpt lat="39.821533" lon="-8.726283">
        <ele>188.4</ele>
        <time>1970-01-01T01:07:33.000Z</time>
      </trkpt>
      <trkpt lat="39.821577" lon="-8.72629">
        <ele>188.5</ele>
        <time>1970-01-01T01:07:34.000Z</time>
      </trkpt>
      <trkpt lat="39.821622" lon="-8.726297">
        <ele>188.5</ele>
        <time>1970-01-01T01:07:35.000Z</time>
      </trkpt>
      <trkpt lat="39.821666" lon="-8.726302">
        <ele>188.6</ele>
        <time>1970-01-01T01:07:37.000Z</time>
      </trkpt>
      <trkpt lat="39.821714" lon="-8.726305">
        <ele>188.7</ele>
        <time>1970-01-01T01:07:37.000Z</time>
      </trkpt>
      <trkpt lat="39.82176" lon="-8.726307">
        <ele>188.7</ele>
        <time>1970-01-01T01:07:38.000Z</time>
      </trkpt>
      <trkpt lat="39.821805" lon="-8.726308">
        <ele>188.8</ele>
        <time>1970-01-01T01:07:39.000Z</time>
      </trkpt>
      <trkpt lat="39.821846" lon="-8.726309">
        <ele>188.8</ele>
        <time>1970-01-01T01:07:40.000Z</time>
      </trkpt>
      <trkpt lat="39.821887" lon="-8.726312">
        <ele>188.8</ele>
        <time>1970-01-01T01:07:41.000Z</time>
      </trkpt>
      <trkpt lat="39.82193" lon="-8.726316">
        <ele>188.8</ele>
        <time>1970-01-01T01:07:42.000Z</time>
      </trkpt>
      <trkpt lat="39.821972" lon="-8.726319">
        <ele>188.9</ele>
        <time>1970-01-01T01:07:43.000Z</time>
      </trkpt>
      <trkpt lat="39.822014" lon="-8.726325">
        <ele>188.8</ele>
        <time>1970-01-01T01:07:44.000Z</time>
      </trkpt>
      <trkpt lat="39.822059" lon="-8.726333">
        <ele>188.8</ele>
        <time>1970-01-01T01:07:45.000Z</time>
      </trkpt>
      <trkpt lat="39.822101" lon="-8.726339">
        <ele>188.8</ele>
        <time>1970-01-01T01:07:47.000Z</time>
      </trkpt>
      <trkpt lat="39.822145" lon="-8.726346">
        <ele>188.8</ele>
        <time>1970-01-01T01:07:47.000Z</time>
      </trkpt>
      <trkpt lat="39.82219" lon="-8.726352">
        <ele>188.8</ele>
        <time>1970-01-01T01:07:48.000Z</time>
      </trkpt>
      <trkpt lat="39.822234" lon="-8.72636">
        <ele>188.7</ele>
        <time>1970-01-01T01:07:49.000Z</time>
      </trkpt>
      <trkpt lat="39.822278" lon="-8.726367">
        <ele>188.7</ele>
        <time>1970-01-01T01:07:50.000Z</time>
      </trkpt>
      <trkpt lat="39.822324" lon="-8.726373">
        <ele>188.7</ele>
        <time>1970-01-01T01:07:51.000Z</time>
      </trkpt>
      <trkpt lat="39.822372" lon="-8.726378">
        <ele>188.6</ele>
        <time>1970-01-01T01:07:52.000Z</time>
      </trkpt>
      <trkpt lat="39.822419" lon="-8.726381">
        <ele>188.6</ele>
        <time>1970-01-01T01:07:53.000Z</time>
      </trkpt>
      <trkpt lat="39.822466" lon="-8.726383">
        <ele>188.5</ele>
        <time>1970-01-01T01:07:54.000Z</time>
      </trkpt>
      <trkpt lat="39.822514" lon="-8.726385">
        <ele>188.5</ele>
        <time>1970-01-01T01:07:55.000Z</time>
      </trkpt>
      <trkpt lat="39.822562" lon="-8.726389">
        <ele>188.5</ele>
        <time>1970-01-01T01:07:57.000Z</time>
      </trkpt>
      <trkpt lat="39.822604" lon="-8.72639">
        <ele>188.4</ele>
        <time>1970-01-01T01:07:57.000Z</time>
      </trkpt>
      <trkpt lat="39.822649" lon="-8.726391">
        <ele>188.4</ele>
        <time>1970-01-01T01:07:58.000Z</time>
      </trkpt>
      <trkpt lat="39.822696" lon="-8.726392">
        <ele>188.4</ele>
        <time>1970-01-01T01:07:59.000Z</time>
      </trkpt>
      <trkpt lat="39.822744" lon="-8.726392">
        <ele>188.3</ele>
        <time>1970-01-01T01:08:00.000Z</time>
      </trkpt>
      <trkpt lat="39.822793" lon="-8.726391">
        <ele>188.3</ele>
        <time>1970-01-01T01:08:01.000Z</time>
      </trkpt>
      <trkpt lat="39.822841" lon="-8.72639">
        <ele>188.2</ele>
        <time>1970-01-01T01:08:02.000Z</time>
      </trkpt>
      <trkpt lat="39.82289" lon="-8.726388">
        <ele>188.2</ele>
        <time>1970-01-01T01:08:03.000Z</time>
      </trkpt>
      <trkpt lat="39.822943" lon="-8.726386">
        <ele>188.1</ele>
        <time>1970-01-01T01:08:04.000Z</time>
      </trkpt>
      <trkpt lat="39.822999" lon="-8.726382">
        <ele>188.1</ele>
        <time>1970-01-01T01:08:05.000Z</time>
      </trkpt>
      <trkpt lat="39.823052" lon="-8.726376">
        <ele>188.1</ele>
        <time>1970-01-01T01:08:07.000Z</time>
      </trkpt>
      <trkpt lat="39.823104" lon="-8.726365">
        <ele>188.1</ele>
        <time>1970-01-01T01:08:07.000Z</time>
      </trkpt>
      <trkpt lat="39.823152" lon="-8.726353">
        <ele>188.1</ele>
        <time>1970-01-01T01:08:08.000Z</time>
      </trkpt>
      <trkpt lat="39.823197" lon="-8.726338">
        <ele>188.1</ele>
        <time>1970-01-01T01:08:09.000Z</time>
      </trkpt>
      <trkpt lat="39.823241" lon="-8.72632">
        <ele>188.1</ele>
        <time>1970-01-01T01:08:10.000Z</time>
      </trkpt>
      <trkpt lat="39.823283" lon="-8.726301">
        <ele>188.1</ele>
        <time>1970-01-01T01:08:11.000Z</time>
      </trkpt>
      <trkpt lat="39.823329" lon="-8.72628">
        <ele>188.1</ele>
        <time>1970-01-01T01:08:12.000Z</time>
      </trkpt>
      <trkpt lat="39.823374" lon="-8.726258">
        <ele>188.1</ele>
        <time>1970-01-01T01:08:13.000Z</time>
      </trkpt>
      <trkpt lat="39.823414" lon="-8.726235">
        <ele>188.2</ele>
        <time>1970-01-01T01:08:14.000Z</time>
      </trkpt>
      <trkpt lat="39.823454" lon="-8.726206">
        <ele>188.2</ele>
        <time>1970-01-01T01:08:15.000Z</time>
      </trkpt>
      <trkpt lat="39.823494" lon="-8.72617">
        <ele>188.2</ele>
        <time>1970-01-01T01:08:16.000Z</time>
      </trkpt>
      <trkpt lat="39.823535" lon="-8.726127">
        <ele>188.3</ele>
        <time>1970-01-01T01:08:17.000Z</time>
      </trkpt>
      <trkpt lat="39.823572" lon="-8.726081">
        <ele>188.3</ele>
        <time>1970-01-01T01:08:18.000Z</time>
      </trkpt>
      <trkpt lat="39.823607" lon="-8.726034">
        <ele>188.3</ele>
        <time>1970-01-01T01:08:19.000Z</time>
      </trkpt>
      <trkpt lat="39.823642" lon="-8.725982">
        <ele>188.4</ele>
        <time>1970-01-01T01:08:20.000Z</time>
      </trkpt>
      <trkpt lat="39.823678" lon="-8.725927">
        <ele>188.4</ele>
        <time>1970-01-01T01:08:21.000Z</time>
      </trkpt>
      <trkpt lat="39.823714" lon="-8.725868">
        <ele>188.5</ele>
        <time>1970-01-01T01:08:22.000Z</time>
      </trkpt>
      <trkpt lat="39.823752" lon="-8.725802">
        <ele>188.6</ele>
        <time>1970-01-01T01:08:23.000Z</time>
      </trkpt>
      <trkpt lat="39.823789" lon="-8.725733">
        <ele>188.7</ele>
        <time>1970-01-01T01:08:24.000Z</time>
      </trkpt>
      <trkpt lat="39.823823" lon="-8.725665">
        <ele>188.7</ele>
        <time>1970-01-01T01:08:25.000Z</time>
      </trkpt>
      <trkpt lat="39.823853" lon="-8.725599">
        <ele>188.7</ele>
        <time>1970-01-01T01:08:27.000Z</time>
      </trkpt>
      <trkpt lat="39.823879" lon="-8.725534">
        <ele>188.7</ele>
        <time>1970-01-01T01:08:27.000Z</time>
      </trkpt>
      <trkpt lat="39.823901" lon="-8.72547">
        <ele>188.7</ele>
        <time>1970-01-01T01:08:28.000Z</time>
      </trkpt>
      <trkpt lat="39.823918" lon="-8.725406">
        <ele>188.7</ele>
        <time>1970-01-01T01:08:29.000Z</time>
      </trkpt>
      <trkpt lat="39.823934" lon="-8.725343">
        <ele>188.6</ele>
        <time>1970-01-01T01:08:30.000Z</time>
      </trkpt>
      <trkpt lat="39.823949" lon="-8.725281">
        <ele>188.6</ele>
        <time>1970-01-01T01:08:31.000Z</time>
      </trkpt>
      <trkpt lat="39.823968" lon="-8.725216">
        <ele>188.6</ele>
        <time>1970-01-01T01:08:32.000Z</time>
      </trkpt>
      <trkpt lat="39.823984" lon="-8.725155">
        <ele>188.6</ele>
        <time>1970-01-01T01:08:34.000Z</time>
      </trkpt>
      <trkpt lat="39.823996" lon="-8.725094">
        <ele>188.6</ele>
        <time>1970-01-01T01:08:34.000Z</time>
      </trkpt>
      <trkpt lat="39.824005" lon="-8.725032">
        <ele>188.6</ele>
        <time>1970-01-01T01:08:35.000Z</time>
      </trkpt>
      <trkpt lat="39.824013" lon="-8.72497">
        <ele>188.6</ele>
        <time>1970-01-01T01:08:36.000Z</time>
      </trkpt>
      <trkpt lat="39.824018" lon="-8.724907">
        <ele>188.7</ele>
        <time>1970-01-01T01:08:37.000Z</time>
      </trkpt>
      <trkpt lat="39.824025" lon="-8.724846">
        <ele>188.7</ele>
        <time>1970-01-01T01:08:38.000Z</time>
      </trkpt>
      <trkpt lat="39.824031" lon="-8.724784">
        <ele>188.8</ele>
        <time>1970-01-01T01:08:39.000Z</time>
      </trkpt>
      <trkpt lat="39.824035" lon="-8.724722">
        <ele>188.8</ele>
        <time>1970-01-01T01:08:40.000Z</time>
      </trkpt>
      <trkpt lat="39.824039" lon="-8.724658">
        <ele>188.9</ele>
        <time>1970-01-01T01:08:42.000Z</time>
      </trkpt>
      <trkpt lat="39.824043" lon="-8.724596">
        <ele>188.9</ele>
        <time>1970-01-01T01:08:42.000Z</time>
      </trkpt>
      <trkpt lat="39.824044" lon="-8.724533">
        <ele>189</ele>
        <time>1970-01-01T01:08:43.000Z</time>
      </trkpt>
      <trkpt lat="39.824046" lon="-8.724475">
        <ele>189.1</ele>
        <time>1970-01-01T01:08:44.000Z</time>
      </trkpt>
      <trkpt lat="39.824048" lon="-8.724416">
        <ele>189.1</ele>
        <time>1970-01-01T01:08:45.000Z</time>
      </trkpt>
      <trkpt lat="39.824053" lon="-8.724358">
        <ele>189.1</ele>
        <time>1970-01-01T01:08:46.000Z</time>
      </trkpt>
      <trkpt lat="39.824059" lon="-8.724299">
        <ele>189.1</ele>
        <time>1970-01-01T01:08:47.000Z</time>
      </trkpt>
      <trkpt lat="39.824066" lon="-8.724239">
        <ele>189.2</ele>
        <time>1970-01-01T01:08:48.000Z</time>
      </trkpt>
      <trkpt lat="39.824073" lon="-8.724178">
        <ele>189.2</ele>
        <time>1970-01-01T01:08:49.000Z</time>
      </trkpt>
      <trkpt lat="39.824079" lon="-8.724113">
        <ele>189.2</ele>
        <time>1970-01-01T01:08:50.000Z</time>
      </trkpt>
      <trkpt lat="39.824084" lon="-8.724046">
        <ele>189.3</ele>
        <time>1970-01-01T01:08:51.000Z</time>
      </trkpt>
      <trkpt lat="39.824089" lon="-8.72398">
        <ele>189.3</ele>
        <time>1970-01-01T01:08:52.000Z</time>
      </trkpt>
      <trkpt lat="39.824092" lon="-8.723916">
        <ele>189.3</ele>
        <time>1970-01-01T01:08:54.000Z</time>
      </trkpt>
      <trkpt lat="39.824098" lon="-8.723852">
        <ele>189.4</ele>
        <time>1970-01-01T01:08:54.000Z</time>
      </trkpt>
      <trkpt lat="39.824102" lon="-8.72379">
        <ele>189.4</ele>
        <time>1970-01-01T01:08:55.000Z</time>
      </trkpt>
      <trkpt lat="39.824104" lon="-8.723726">
        <ele>189.4</ele>
        <time>1970-01-01T01:08:56.000Z</time>
      </trkpt>
      <trkpt lat="39.824105" lon="-8.723665">
        <ele>189.5</ele>
        <time>1970-01-01T01:08:57.000Z</time>
      </trkpt>
      <trkpt lat="39.82411" lon="-8.723607">
        <ele>189.4</ele>
        <time>1970-01-01T01:08:59.000Z</time>
      </trkpt>
      <trkpt lat="39.824117" lon="-8.723551">
        <ele>189.4</ele>
        <time>1970-01-01T01:09:00.000Z</time>
      </trkpt>
      <trkpt lat="39.824135" lon="-8.723475">
        <ele>189.4</ele>
        <time>1970-01-01T01:09:01.000Z</time>
      </trkpt>
      <trkpt lat="39.824155" lon="-8.723405">
        <ele>189.4</ele>
        <time>1970-01-01T01:09:02.000Z</time>
      </trkpt>
      <trkpt lat="39.824178" lon="-8.723338">
        <ele>189.4</ele>
        <time>1970-01-01T01:09:03.000Z</time>
      </trkpt>
      <trkpt lat="39.824204" lon="-8.723272">
        <ele>189.4</ele>
        <time>1970-01-01T01:09:05.000Z</time>
      </trkpt>
      <trkpt lat="39.824232" lon="-8.723209">
        <ele>189.4</ele>
        <time>1970-01-01T01:09:05.000Z</time>
      </trkpt>
      <trkpt lat="39.824259" lon="-8.723149">
        <ele>189.5</ele>
        <time>1970-01-01T01:09:06.000Z</time>
      </trkpt>
      <trkpt lat="39.824286" lon="-8.72309">
        <ele>189.5</ele>
        <time>1970-01-01T01:09:07.000Z</time>
      </trkpt>
      <trkpt lat="39.824311" lon="-8.723035">
        <ele>189.5</ele>
        <time>1970-01-01T01:09:08.000Z</time>
      </trkpt>
      <trkpt lat="39.824336" lon="-8.722983">
        <ele>189.5</ele>
        <time>1970-01-01T01:09:09.000Z</time>
      </trkpt>
      <trkpt lat="39.824363" lon="-8.722934">
        <ele>189.5</ele>
        <time>1970-01-01T01:09:10.000Z</time>
      </trkpt>
      <trkpt lat="39.824392" lon="-8.722888">
        <ele>189.5</ele>
        <time>1970-01-01T01:09:12.000Z</time>
      </trkpt>
      <trkpt lat="39.82442" lon="-8.722843">
        <ele>189.5</ele>
        <time>1970-01-01T01:09:12.000Z</time>
      </trkpt>
      <trkpt lat="39.824448" lon="-8.7228">
        <ele>189.5</ele>
        <time>1970-01-01T01:09:13.000Z</time>
      </trkpt>
      <trkpt lat="39.824477" lon="-8.722758">
        <ele>189.6</ele>
        <time>1970-01-01T01:09:14.000Z</time>
      </trkpt>
      <trkpt lat="39.824502" lon="-8.722718">
        <ele>189.6</ele>
        <time>1970-01-01T01:09:15.000Z</time>
      </trkpt>
      <trkpt lat="39.824525" lon="-8.722679">
        <ele>189.6</ele>
        <time>1970-01-01T01:09:16.000Z</time>
      </trkpt>
      <trkpt lat="39.824548" lon="-8.72264">
        <ele>189.6</ele>
        <time>1970-01-01T01:09:17.000Z</time>
      </trkpt>
      <trkpt lat="39.824571" lon="-8.722601">
        <ele>189.7</ele>
        <time>1970-01-01T01:09:18.000Z</time>
      </trkpt>
      <trkpt lat="39.824595" lon="-8.72256">
        <ele>189.7</ele>
        <time>1970-01-01T01:09:19.000Z</time>
      </trkpt>
      <trkpt lat="39.824616" lon="-8.722519">
        <ele>189.7</ele>
        <time>1970-01-01T01:09:20.000Z</time>
      </trkpt>
      <trkpt lat="39.824637" lon="-8.722481">
        <ele>189.7</ele>
        <time>1970-01-01T01:09:21.000Z</time>
      </trkpt>
      <trkpt lat="39.824657" lon="-8.722443">
        <ele>189.8</ele>
        <time>1970-01-01T01:09:22.000Z</time>
      </trkpt>
      <trkpt lat="39.824674" lon="-8.722408">
        <ele>189.8</ele>
        <time>1970-01-01T01:09:23.000Z</time>
      </trkpt>
      <trkpt lat="39.824691" lon="-8.722377">
        <ele>189.8</ele>
        <time>1970-01-01T01:09:24.000Z</time>
      </trkpt>
      <trkpt lat="39.824706" lon="-8.722347">
        <ele>189.8</ele>
        <time>1970-01-01T01:09:25.000Z</time>
      </trkpt>
      <trkpt lat="39.824721" lon="-8.722315">
        <ele>189.9</ele>
        <time>1970-01-01T01:09:26.000Z</time>
      </trkpt>
      <trkpt lat="39.824739" lon="-8.722286">
        <ele>189.9</ele>
        <time>1970-01-01T01:09:27.000Z</time>
      </trkpt>
      <trkpt lat="39.824754" lon="-8.72226">
        <ele>189.9</ele>
        <time>1970-01-01T01:09:28.000Z</time>
      </trkpt>
      <trkpt lat="39.824777" lon="-8.722221">
        <ele>190</ele>
        <time>1970-01-01T01:09:30.000Z</time>
      </trkpt>
      <trkpt lat="39.824779" lon="-8.722216">
        <ele>190</ele>
        <time>1970-01-01T01:09:30.000Z</time>
      </trkpt>
      <trkpt lat="39.824782" lon="-8.722189">
        <ele>190.1</ele>
        <time>1970-01-01T01:09:31.000Z</time>
      </trkpt>
      <trkpt lat="39.824782" lon="-8.722183">
        <ele>190.1</ele>
        <time>1970-01-01T01:09:32.000Z</time>
      </trkpt>
      <trkpt lat="39.824781" lon="-8.722178">
        <ele>190.1</ele>
        <time>1970-01-01T01:09:33.000Z</time>
      </trkpt>
      <trkpt lat="39.824781" lon="-8.722173">
        <ele>190.1</ele>
        <time>1970-01-01T01:09:37.000Z</time>
      </trkpt>
      <trkpt lat="39.82478" lon="-8.722168">
        <ele>190.1</ele>
        <time>1970-01-01T01:09:40.000Z</time>
      </trkpt>
      <trkpt lat="39.824779" lon="-8.722162">
        <ele>190.1</ele>
        <time>1970-01-01T01:09:41.000Z</time>
      </trkpt>
      <trkpt lat="39.824779" lon="-8.722157">
        <ele>190.1</ele>
        <time>1970-01-01T01:09:44.000Z</time>
      </trkpt>
      <trkpt lat="39.824778" lon="-8.722152">
        <ele>190.1</ele>
        <time>1970-01-01T01:09:44.000Z</time>
      </trkpt>
      <trkpt lat="39.82478" lon="-8.722142">
        <ele>190.1</ele>
        <time>1970-01-01T01:09:50.000Z</time>
      </trkpt>
      <trkpt lat="39.824781" lon="-8.72214">
        <ele>190.1</ele>
        <time>1970-01-01T01:09:50.000Z</time>
      </trkpt>
      <trkpt lat="39.82479" lon="-8.722122">
        <ele>190.2</ele>
        <time>1970-01-01T01:09:51.000Z</time>
      </trkpt>
      <trkpt lat="39.824801" lon="-8.722095">
        <ele>190.2</ele>
        <time>1970-01-01T01:09:52.000Z</time>
      </trkpt>
      <trkpt lat="39.824817" lon="-8.722061">
        <ele>190.3</ele>
        <time>1970-01-01T01:09:53.000Z</time>
      </trkpt>
      <trkpt lat="39.824846" lon="-8.722004">
        <ele>190.4</ele>
        <time>1970-01-01T01:09:55.000Z</time>
      </trkpt>
      <trkpt lat="39.824855" lon="-8.721985">
        <ele>190.5</ele>
        <time>1970-01-01T01:09:55.000Z</time>
      </trkpt>
      <trkpt lat="39.824875" lon="-8.721945">
        <ele>190.6</ele>
        <time>1970-01-01T01:09:56.000Z</time>
      </trkpt>
      <trkpt lat="39.824893" lon="-8.72191">
        <ele>190.6</ele>
        <time>1970-01-01T01:09:57.000Z</time>
      </trkpt>
      <trkpt lat="39.82491" lon="-8.721879">
        <ele>190.7</ele>
        <time>1970-01-01T01:09:58.000Z</time>
      </trkpt>
      <trkpt lat="39.824927" lon="-8.721855">
        <ele>190.7</ele>
        <time>1970-01-01T01:09:59.000Z</time>
      </trkpt>
      <trkpt lat="39.824948" lon="-8.721839">
        <ele>190.9</ele>
        <time>1970-01-01T01:10:00.000Z</time>
      </trkpt>
      <trkpt lat="39.824974" lon="-8.721831">
        <ele>190.9</ele>
        <time>1970-01-01T01:10:01.000Z</time>
      </trkpt>
      <trkpt lat="39.82502" lon="-8.721834">
        <ele>190.8</ele>
        <time>1970-01-01T01:10:03.000Z</time>
      </trkpt>
      <trkpt lat="39.825036" lon="-8.721838">
        <ele>190.8</ele>
        <time>1970-01-01T01:10:03.000Z</time>
      </trkpt>
      <trkpt lat="39.825069" lon="-8.721848">
        <ele>190.8</ele>
        <time>1970-01-01T01:10:04.000Z</time>
      </trkpt>
      <trkpt lat="39.825105" lon="-8.721865">
        <ele>190.7</ele>
        <time>1970-01-01T01:10:05.000Z</time>
      </trkpt>
      <trkpt lat="39.825143" lon="-8.721886">
        <ele>190.6</ele>
        <time>1970-01-01T01:10:06.000Z</time>
      </trkpt>
      <trkpt lat="39.825183" lon="-8.72191">
        <ele>190.5</ele>
        <time>1970-01-01T01:10:08.000Z</time>
      </trkpt>
      <trkpt lat="39.825222" lon="-8.72194">
        <ele>190.3</ele>
        <time>1970-01-01T01:10:08.000Z</time>
      </trkpt>
      <trkpt lat="39.825262" lon="-8.721974">
        <ele>190.2</ele>
        <time>1970-01-01T01:10:09.000Z</time>
      </trkpt>
      <trkpt lat="39.825305" lon="-8.722015">
        <ele>189.9</ele>
        <time>1970-01-01T01:10:10.000Z</time>
      </trkpt>
      <trkpt lat="39.825346" lon="-8.722056">
        <ele>189.8</ele>
        <time>1970-01-01T01:10:11.000Z</time>
      </trkpt>
      <trkpt lat="39.825387" lon="-8.722101">
        <ele>189.6</ele>
        <time>1970-01-01T01:10:13.000Z</time>
      </trkpt>
      <trkpt lat="39.825426" lon="-8.722148">
        <ele>189.4</ele>
        <time>1970-01-01T01:10:13.000Z</time>
      </trkpt>
      <trkpt lat="39.825466" lon="-8.722202">
        <ele>189.3</ele>
        <time>1970-01-01T01:10:14.000Z</time>
      </trkpt>
      <trkpt lat="39.825504" lon="-8.722254">
        <ele>189.2</ele>
        <time>1970-01-01T01:10:15.000Z</time>
      </trkpt>
      <trkpt lat="39.825548" lon="-8.722314">
        <ele>189</ele>
        <time>1970-01-01T01:10:16.000Z</time>
      </trkpt>
      <trkpt lat="39.825591" lon="-8.722375">
        <ele>188.9</ele>
        <time>1970-01-01T01:10:17.000Z</time>
      </trkpt>
      <trkpt lat="39.825633" lon="-8.722435">
        <ele>188.8</ele>
        <time>1970-01-01T01:10:18.000Z</time>
      </trkpt>
      <trkpt lat="39.825672" lon="-8.722496">
        <ele>188.7</ele>
        <time>1970-01-01T01:10:19.000Z</time>
      </trkpt>
      <trkpt lat="39.825709" lon="-8.722551">
        <ele>188.6</ele>
        <time>1970-01-01T01:10:20.000Z</time>
      </trkpt>
      <trkpt lat="39.825746" lon="-8.722608">
        <ele>188.6</ele>
        <time>1970-01-01T01:10:21.000Z</time>
      </trkpt>
      <trkpt lat="39.825784" lon="-8.722668">
        <ele>188.5</ele>
        <time>1970-01-01T01:10:22.000Z</time>
      </trkpt>
      <trkpt lat="39.825826" lon="-8.722732">
        <ele>188.4</ele>
        <time>1970-01-01T01:10:23.000Z</time>
      </trkpt>
      <trkpt lat="39.825867" lon="-8.72279">
        <ele>188.3</ele>
        <time>1970-01-01T01:10:24.000Z</time>
      </trkpt>
      <trkpt lat="39.825907" lon="-8.722842">
        <ele>188.3</ele>
        <time>1970-01-01T01:10:25.000Z</time>
      </trkpt>
      <trkpt lat="39.825946" lon="-8.722892">
        <ele>188.2</ele>
        <time>1970-01-01T01:10:26.000Z</time>
      </trkpt>
      <trkpt lat="39.825986" lon="-8.72294">
        <ele>188.2</ele>
        <time>1970-01-01T01:10:27.000Z</time>
      </trkpt>
      <trkpt lat="39.826023" lon="-8.722982">
        <ele>188.1</ele>
        <time>1970-01-01T01:10:28.000Z</time>
      </trkpt>
      <trkpt lat="39.82606" lon="-8.723023">
        <ele>188</ele>
        <time>1970-01-01T01:10:29.000Z</time>
      </trkpt>
      <trkpt lat="39.826098" lon="-8.723067">
        <ele>187.9</ele>
        <time>1970-01-01T01:10:30.000Z</time>
      </trkpt>
      <trkpt lat="39.826134" lon="-8.723112">
        <ele>187.8</ele>
        <time>1970-01-01T01:10:31.000Z</time>
      </trkpt>
      <trkpt lat="39.826165" lon="-8.723152">
        <ele>187.7</ele>
        <time>1970-01-01T01:10:32.000Z</time>
      </trkpt>
      <trkpt lat="39.826194" lon="-8.723192">
        <ele>187.6</ele>
        <time>1970-01-01T01:10:33.000Z</time>
      </trkpt>
      <trkpt lat="39.826219" lon="-8.723229">
        <ele>187.5</ele>
        <time>1970-01-01T01:10:34.000Z</time>
      </trkpt>
      <trkpt lat="39.826252" lon="-8.723275">
        <ele>187.4</ele>
        <time>1970-01-01T01:10:36.000Z</time>
      </trkpt>
      <trkpt lat="39.826262" lon="-8.72329">
        <ele>187.4</ele>
        <time>1970-01-01T01:10:36.000Z</time>
      </trkpt>
      <trkpt lat="39.826277" lon="-8.723315">
        <ele>187.3</ele>
        <time>1970-01-01T01:10:37.000Z</time>
      </trkpt>
      <trkpt lat="39.826288" lon="-8.723337">
        <ele>187.2</ele>
        <time>1970-01-01T01:10:38.000Z</time>
      </trkpt>
      <trkpt lat="39.826297" lon="-8.723354">
        <ele>187.2</ele>
        <time>1970-01-01T01:10:39.000Z</time>
      </trkpt>
      <trkpt lat="39.826317" lon="-8.723388">
        <ele>187.1</ele>
        <time>1970-01-01T01:10:41.000Z</time>
      </trkpt>
      <trkpt lat="39.826317" lon="-8.723386">
        <ele>187.1</ele>
        <time>1970-01-01T01:10:42.000Z</time>
      </trkpt>
      <trkpt lat="39.826319" lon="-8.723384">
        <ele>187.1</ele>
        <time>1970-01-01T01:10:44.000Z</time>
      </trkpt>
      <trkpt lat="39.826315" lon="-8.72338">
        <ele>187.1</ele>
        <time>1970-01-01T01:10:46.000Z</time>
      </trkpt>
      <trkpt lat="39.826313" lon="-8.723381">
        <ele>187.1</ele>
        <time>1970-01-01T01:10:47.000Z</time>
      </trkpt>
      <trkpt lat="39.826307" lon="-8.72339">
        <ele>187.1</ele>
        <time>1970-01-01T01:10:49.000Z</time>
      </trkpt>
      <trkpt lat="39.826306" lon="-8.72339">
        <ele>187.1</ele>
        <time>1970-01-01T01:10:51.000Z</time>
      </trkpt>
      <trkpt lat="39.826308" lon="-8.723387">
        <ele>187.1</ele>
        <time>1970-01-01T01:10:54.000Z</time>
      </trkpt>
      <trkpt lat="39.826309" lon="-8.723387">
        <ele>187.1</ele>
        <time>1970-01-01T01:10:56.000Z</time>
      </trkpt>
      <trkpt lat="39.82631" lon="-8.723386">
        <ele>187.1</ele>
        <time>1970-01-01T01:10:57.000Z</time>
      </trkpt>
      <trkpt lat="39.826315" lon="-8.723383">
        <ele>187.1</ele>
        <time>1970-01-01T01:10:58.000Z</time>
      </trkpt>
      <trkpt lat="39.826313" lon="-8.72339">
        <ele>187.1</ele>
        <time>1970-01-01T01:11:02.000Z</time>
      </trkpt>
      <trkpt lat="39.826312" lon="-8.723392">
        <ele>187</ele>
        <time>1970-01-01T01:11:06.000Z</time>
      </trkpt>
      <trkpt lat="39.82631" lon="-8.723393">
        <ele>187</ele>
        <time>1970-01-01T01:11:23.000Z</time>
      </trkpt>
      <trkpt lat="39.826308" lon="-8.723397">
        <ele>187</ele>
        <time>1970-01-01T01:11:26.000Z</time>
      </trkpt>
      <trkpt lat="39.826308" lon="-8.7234">
        <ele>187</ele>
        <time>1970-01-01T01:11:28.000Z</time>
      </trkpt>
      <trkpt lat="39.826308" lon="-8.723401">
        <ele>187</ele>
        <time>1970-01-01T01:11:29.000Z</time>
      </trkpt>
      <trkpt lat="39.826307" lon="-8.723401">
        <ele>187</ele>
        <time>1970-01-01T01:11:30.000Z</time>
      </trkpt>
      <trkpt lat="39.826303" lon="-8.723413">
        <ele>187</ele>
        <time>1970-01-01T01:11:35.000Z</time>
      </trkpt>
      <trkpt lat="39.826302" lon="-8.72342">
        <ele>187</ele>
        <time>1970-01-01T01:11:42.000Z</time>
      </trkpt>
      <trkpt lat="39.826306" lon="-8.723422">
        <ele>187</ele>
        <time>1970-01-01T01:11:43.000Z</time>
      </trkpt>
      <trkpt lat="39.826315" lon="-8.72343">
        <ele>187</ele>
        <time>1970-01-01T01:11:44.000Z</time>
      </trkpt>
      <trkpt lat="39.826331" lon="-8.723443">
        <ele>187</ele>
        <time>1970-01-01T01:11:45.000Z</time>
      </trkpt>
      <trkpt lat="39.826351" lon="-8.723459">
        <ele>187</ele>
        <time>1970-01-01T01:11:46.000Z</time>
      </trkpt>
      <trkpt lat="39.826371" lon="-8.723476">
        <ele>186.9</ele>
        <time>1970-01-01T01:11:47.000Z</time>
      </trkpt>
      <trkpt lat="39.826395" lon="-8.723493">
        <ele>186.9</ele>
        <time>1970-01-01T01:11:48.000Z</time>
      </trkpt>
      <trkpt lat="39.826422" lon="-8.723513">
        <ele>186.9</ele>
        <time>1970-01-01T01:11:49.000Z</time>
      </trkpt>
      <trkpt lat="39.826455" lon="-8.723536">
        <ele>186.9</ele>
        <time>1970-01-01T01:11:50.000Z</time>
      </trkpt>
      <trkpt lat="39.826495" lon="-8.723566">
        <ele>186.9</ele>
        <time>1970-01-01T01:11:51.000Z</time>
      </trkpt>
      <trkpt lat="39.826538" lon="-8.7236">
        <ele>186.8</ele>
        <time>1970-01-01T01:11:52.000Z</time>
      </trkpt>
      <trkpt lat="39.826584" lon="-8.723638">
        <ele>186.8</ele>
        <time>1970-01-01T01:11:54.000Z</time>
      </trkpt>
      <trkpt lat="39.826633" lon="-8.723682">
        <ele>187</ele>
        <time>1970-01-01T01:11:54.000Z</time>
      </trkpt>
      <trkpt lat="39.826677" lon="-8.723725">
        <ele>187.1</ele>
        <time>1970-01-01T01:11:55.000Z</time>
      </trkpt>
      <trkpt lat="39.826722" lon="-8.723774">
        <ele>187.2</ele>
        <time>1970-01-01T01:11:56.000Z</time>
      </trkpt>
      <trkpt lat="39.826765" lon="-8.723821">
        <ele>187.3</ele>
        <time>1970-01-01T01:11:58.000Z</time>
      </trkpt>
      <trkpt lat="39.826805" lon="-8.723866">
        <ele>187.5</ele>
        <time>1970-01-01T01:11:59.000Z</time>
      </trkpt>
      <trkpt lat="39.826842" lon="-8.723905">
        <ele>187.5</ele>
        <time>1970-01-01T01:11:59.000Z</time>
      </trkpt>
      <trkpt lat="39.826879" lon="-8.723945">
        <ele>187.5</ele>
        <time>1970-01-01T01:12:01.000Z</time>
      </trkpt>
      <trkpt lat="39.826915" lon="-8.723982">
        <ele>187.5</ele>
        <time>1970-01-01T01:12:01.000Z</time>
      </trkpt>
      <trkpt lat="39.826952" lon="-8.724019">
        <ele>187.5</ele>
        <time>1970-01-01T01:12:02.000Z</time>
      </trkpt>
      <trkpt lat="39.826993" lon="-8.724058">
        <ele>187.6</ele>
        <time>1970-01-01T01:12:03.000Z</time>
      </trkpt>
      <trkpt lat="39.827031" lon="-8.724094">
        <ele>187.6</ele>
        <time>1970-01-01T01:12:04.000Z</time>
      </trkpt>
      <trkpt lat="39.82707" lon="-8.724131">
        <ele>187.6</ele>
        <time>1970-01-01T01:12:05.000Z</time>
      </trkpt>
      <trkpt lat="39.827111" lon="-8.724166">
        <ele>187.6</ele>
        <time>1970-01-01T01:12:06.000Z</time>
      </trkpt>
      <trkpt lat="39.827155" lon="-8.724205">
        <ele>187.7</ele>
        <time>1970-01-01T01:12:07.000Z</time>
      </trkpt>
      <trkpt lat="39.827201" lon="-8.724242">
        <ele>187.8</ele>
        <time>1970-01-01T01:12:08.000Z</time>
      </trkpt>
      <trkpt lat="39.827244" lon="-8.724275">
        <ele>187.9</ele>
        <time>1970-01-01T01:12:10.000Z</time>
      </trkpt>
      <trkpt lat="39.827288" lon="-8.724307">
        <ele>187.9</ele>
        <time>1970-01-01T01:12:10.000Z</time>
      </trkpt>
      <trkpt lat="39.827337" lon="-8.724341">
        <ele>188</ele>
        <time>1970-01-01T01:12:11.000Z</time>
      </trkpt>
      <trkpt lat="39.827385" lon="-8.724373">
        <ele>188.1</ele>
        <time>1970-01-01T01:12:12.000Z</time>
      </trkpt>
      <trkpt lat="39.827431" lon="-8.724403">
        <ele>188.2</ele>
        <time>1970-01-01T01:12:13.000Z</time>
      </trkpt>
      <trkpt lat="39.827481" lon="-8.724437">
        <ele>188.4</ele>
        <time>1970-01-01T01:12:14.000Z</time>
      </trkpt>
      <trkpt lat="39.827534" lon="-8.724471">
        <ele>188.5</ele>
        <time>1970-01-01T01:12:16.000Z</time>
      </trkpt>
      <trkpt lat="39.827588" lon="-8.724502">
        <ele>188.6</ele>
        <time>1970-01-01T01:12:16.000Z</time>
      </trkpt>
      <trkpt lat="39.827642" lon="-8.724529">
        <ele>188.8</ele>
        <time>1970-01-01T01:12:17.000Z</time>
      </trkpt>
      <trkpt lat="39.827697" lon="-8.724554">
        <ele>188.9</ele>
        <time>1970-01-01T01:12:18.000Z</time>
      </trkpt>
      <trkpt lat="39.827752" lon="-8.724579">
        <ele>189.1</ele>
        <time>1970-01-01T01:12:19.000Z</time>
      </trkpt>
      <trkpt lat="39.827803" lon="-8.724601">
        <ele>189.2</ele>
        <time>1970-01-01T01:12:20.000Z</time>
      </trkpt>
      <trkpt lat="39.827855" lon="-8.724622">
        <ele>189.2</ele>
        <time>1970-01-01T01:12:21.000Z</time>
      </trkpt>
      <trkpt lat="39.827907" lon="-8.724642">
        <ele>189.2</ele>
        <time>1970-01-01T01:12:22.000Z</time>
      </trkpt>
      <trkpt lat="39.82796" lon="-8.724662">
        <ele>189.2</ele>
        <time>1970-01-01T01:12:23.000Z</time>
      </trkpt>
      <trkpt lat="39.828012" lon="-8.724682">
        <ele>189.2</ele>
        <time>1970-01-01T01:12:25.000Z</time>
      </trkpt>
      <trkpt lat="39.828057" lon="-8.7247">
        <ele>189.2</ele>
        <time>1970-01-01T01:12:25.000Z</time>
      </trkpt>
      <trkpt lat="39.828102" lon="-8.724721">
        <ele>189.2</ele>
        <time>1970-01-01T01:12:26.000Z</time>
      </trkpt>
      <trkpt lat="39.82815" lon="-8.724747">
        <ele>189.2</ele>
        <time>1970-01-01T01:12:27.000Z</time>
      </trkpt>
      <trkpt lat="39.82834" lon="-8.724875">
        <ele>189.1</ele>
        <time>1970-01-01T01:12:29.000Z</time>
      </trkpt>
      <trkpt lat="39.828352" lon="-8.724884">
        <ele>189.1</ele>
        <time>1970-01-01T01:12:30.000Z</time>
      </trkpt>
      <trkpt lat="39.828378" lon="-8.7249">
        <ele>189.1</ele>
        <time>1970-01-01T01:12:31.000Z</time>
      </trkpt>
      <trkpt lat="39.828416" lon="-8.72492">
        <ele>189</ele>
        <time>1970-01-01T01:12:32.000Z</time>
      </trkpt>
      <trkpt lat="39.828467" lon="-8.724939">
        <ele>188.9</ele>
        <time>1970-01-01T01:12:33.000Z</time>
      </trkpt>
      <trkpt lat="39.82852" lon="-8.724958">
        <ele>188.8</ele>
        <time>1970-01-01T01:12:34.000Z</time>
      </trkpt>
      <trkpt lat="39.828573" lon="-8.724981">
        <ele>188.7</ele>
        <time>1970-01-01T01:12:36.000Z</time>
      </trkpt>
      <trkpt lat="39.828623" lon="-8.72501">
        <ele>188.6</ele>
        <time>1970-01-01T01:12:36.000Z</time>
      </trkpt>
      <trkpt lat="39.828674" lon="-8.725042">
        <ele>188.5</ele>
        <time>1970-01-01T01:12:37.000Z</time>
      </trkpt>
      <trkpt lat="39.828721" lon="-8.725082">
        <ele>188.3</ele>
        <time>1970-01-01T01:12:38.000Z</time>
      </trkpt>
      <trkpt lat="39.828766" lon="-8.725117">
        <ele>188.1</ele>
        <time>1970-01-01T01:12:40.000Z</time>
      </trkpt>
      <trkpt lat="39.828812" lon="-8.72515">
        <ele>187.9</ele>
        <time>1970-01-01T01:12:40.000Z</time>
      </trkpt>
      <trkpt lat="39.82886" lon="-8.725181">
        <ele>187.8</ele>
        <time>1970-01-01T01:12:41.000Z</time>
      </trkpt>
      <trkpt lat="39.828908" lon="-8.725212">
        <ele>187.6</ele>
        <time>1970-01-01T01:12:42.000Z</time>
      </trkpt>
      <trkpt lat="39.828954" lon="-8.725245">
        <ele>187.3</ele>
        <time>1970-01-01T01:12:43.000Z</time>
      </trkpt>
      <trkpt lat="39.829" lon="-8.725276">
        <ele>187.1</ele>
        <time>1970-01-01T01:12:44.000Z</time>
      </trkpt>
      <trkpt lat="39.829047" lon="-8.725307">
        <ele>186.9</ele>
        <time>1970-01-01T01:12:45.000Z</time>
      </trkpt>
      <trkpt lat="39.829096" lon="-8.725339">
        <ele>186.7</ele>
        <time>1970-01-01T01:12:46.000Z</time>
      </trkpt>
      <trkpt lat="39.829149" lon="-8.725373">
        <ele>186.4</ele>
        <time>1970-01-01T01:12:47.000Z</time>
      </trkpt>
      <trkpt lat="39.829199" lon="-8.725406">
        <ele>186.1</ele>
        <time>1970-01-01T01:12:48.000Z</time>
      </trkpt>
      <trkpt lat="39.829252" lon="-8.725447">
        <ele>185.8</ele>
        <time>1970-01-01T01:12:49.000Z</time>
      </trkpt>
      <trkpt lat="39.829301" lon="-8.725492">
        <ele>185.5</ele>
        <time>1970-01-01T01:12:50.000Z</time>
      </trkpt>
      <trkpt lat="39.829352" lon="-8.72554">
        <ele>185.2</ele>
        <time>1970-01-01T01:12:51.000Z</time>
      </trkpt>
      <trkpt lat="39.829408" lon="-8.725592">
        <ele>184.9</ele>
        <time>1970-01-01T01:12:52.000Z</time>
      </trkpt>
      <trkpt lat="39.829472" lon="-8.725645">
        <ele>184.5</ele>
        <time>1970-01-01T01:12:53.000Z</time>
      </trkpt>
      <trkpt lat="39.829533" lon="-8.725692">
        <ele>184.2</ele>
        <time>1970-01-01T01:12:54.000Z</time>
      </trkpt>
      <trkpt lat="39.829598" lon="-8.725739">
        <ele>183.9</ele>
        <time>1970-01-01T01:12:55.000Z</time>
      </trkpt>
      <trkpt lat="39.829663" lon="-8.725788">
        <ele>183.6</ele>
        <time>1970-01-01T01:12:56.000Z</time>
      </trkpt>
      <trkpt lat="39.829728" lon="-8.725837">
        <ele>183.3</ele>
        <time>1970-01-01T01:12:58.000Z</time>
      </trkpt>
      <trkpt lat="39.829792" lon="-8.725887">
        <ele>183</ele>
        <time>1970-01-01T01:12:58.000Z</time>
      </trkpt>
      <trkpt lat="39.829857" lon="-8.725935">
        <ele>182.6</ele>
        <time>1970-01-01T01:12:59.000Z</time>
      </trkpt>
      <trkpt lat="39.829922" lon="-8.725985">
        <ele>182.2</ele>
        <time>1970-01-01T01:13:00.000Z</time>
      </trkpt>
      <trkpt lat="39.829986" lon="-8.726035">
        <ele>181.9</ele>
        <time>1970-01-01T01:13:01.000Z</time>
      </trkpt>
      <trkpt lat="39.830051" lon="-8.726086">
        <ele>181.6</ele>
        <time>1970-01-01T01:13:02.000Z</time>
      </trkpt>
      <trkpt lat="39.830118" lon="-8.726138">
        <ele>181.2</ele>
        <time>1970-01-01T01:13:03.000Z</time>
      </trkpt>
      <trkpt lat="39.830186" lon="-8.726195">
        <ele>180.8</ele>
        <time>1970-01-01T01:13:05.000Z</time>
      </trkpt>
      <trkpt lat="39.830256" lon="-8.726256">
        <ele>180.4</ele>
        <time>1970-01-01T01:13:05.000Z</time>
      </trkpt>
      <trkpt lat="39.830331" lon="-8.726329">
        <ele>179.8</ele>
        <time>1970-01-01T01:13:06.000Z</time>
      </trkpt>
      <trkpt lat="39.8304" lon="-8.726402">
        <ele>179.2</ele>
        <time>1970-01-01T01:13:07.000Z</time>
      </trkpt>
      <trkpt lat="39.830468" lon="-8.726483">
        <ele>178.8</ele>
        <time>1970-01-01T01:13:08.000Z</time>
      </trkpt>
      <trkpt lat="39.830536" lon="-8.726569">
        <ele>178.4</ele>
        <time>1970-01-01T01:13:09.000Z</time>
      </trkpt>
      <trkpt lat="39.830602" lon="-8.726657">
        <ele>178.2</ele>
        <time>1970-01-01T01:13:10.000Z</time>
      </trkpt>
      <trkpt lat="39.830672" lon="-8.72675">
        <ele>178</ele>
        <time>1970-01-01T01:13:11.000Z</time>
      </trkpt>
      <trkpt lat="39.83074" lon="-8.726841">
        <ele>177.9</ele>
        <time>1970-01-01T01:13:12.000Z</time>
      </trkpt>
      <trkpt lat="39.830807" lon="-8.72693">
        <ele>177.9</ele>
        <time>1970-01-01T01:13:13.000Z</time>
      </trkpt>
      <trkpt lat="39.83087" lon="-8.727015">
        <ele>177.8</ele>
        <time>1970-01-01T01:13:15.000Z</time>
      </trkpt>
      <trkpt lat="39.830932" lon="-8.727097">
        <ele>177.8</ele>
        <time>1970-01-01T01:13:15.000Z</time>
      </trkpt>
      <trkpt lat="39.830993" lon="-8.727176">
        <ele>177.8</ele>
        <time>1970-01-01T01:13:16.000Z</time>
      </trkpt>
      <trkpt lat="39.831051" lon="-8.727254">
        <ele>177.8</ele>
        <time>1970-01-01T01:13:17.000Z</time>
      </trkpt>
      <trkpt lat="39.831107" lon="-8.727325">
        <ele>177.8</ele>
        <time>1970-01-01T01:13:18.000Z</time>
      </trkpt>
      <trkpt lat="39.831159" lon="-8.72739">
        <ele>177.9</ele>
        <time>1970-01-01T01:13:19.000Z</time>
      </trkpt>
      <trkpt lat="39.831208" lon="-8.727451">
        <ele>177.9</ele>
        <time>1970-01-01T01:13:20.000Z</time>
      </trkpt>
      <trkpt lat="39.831257" lon="-8.727508">
        <ele>178</ele>
        <time>1970-01-01T01:13:22.000Z</time>
      </trkpt>
      <trkpt lat="39.831304" lon="-8.727564">
        <ele>178.1</ele>
        <time>1970-01-01T01:13:22.000Z</time>
      </trkpt>
      <trkpt lat="39.83135" lon="-8.727621">
        <ele>178.2</ele>
        <time>1970-01-01T01:13:23.000Z</time>
      </trkpt>
      <trkpt lat="39.831396" lon="-8.72768">
        <ele>178.3</ele>
        <time>1970-01-01T01:13:25.000Z</time>
      </trkpt>
      <trkpt lat="39.831441" lon="-8.727742">
        <ele>178.4</ele>
        <time>1970-01-01T01:13:25.000Z</time>
      </trkpt>
      <trkpt lat="39.831487" lon="-8.727801">
        <ele>178.5</ele>
        <time>1970-01-01T01:13:26.000Z</time>
      </trkpt>
      <trkpt lat="39.831533" lon="-8.727857">
        <ele>178.5</ele>
        <time>1970-01-01T01:13:27.000Z</time>
      </trkpt>
      <trkpt lat="39.831577" lon="-8.727914">
        <ele>178.7</ele>
        <time>1970-01-01T01:13:28.000Z</time>
      </trkpt>
      <trkpt lat="39.831617" lon="-8.727971">
        <ele>178.9</ele>
        <time>1970-01-01T01:13:29.000Z</time>
      </trkpt>
      <trkpt lat="39.831651" lon="-8.728028">
        <ele>179.1</ele>
        <time>1970-01-01T01:13:30.000Z</time>
      </trkpt>
      <trkpt lat="39.831682" lon="-8.728087">
        <ele>179.4</ele>
        <time>1970-01-01T01:13:31.000Z</time>
      </trkpt>
      <trkpt lat="39.831707" lon="-8.72815">
        <ele>179.7</ele>
        <time>1970-01-01T01:13:32.000Z</time>
      </trkpt>
      <trkpt lat="39.831725" lon="-8.728215">
        <ele>179.9</ele>
        <time>1970-01-01T01:13:33.000Z</time>
      </trkpt>
      <trkpt lat="39.831736" lon="-8.72828">
        <ele>180.2</ele>
        <time>1970-01-01T01:13:35.000Z</time>
      </trkpt>
      <trkpt lat="39.831746" lon="-8.728347">
        <ele>180.6</ele>
        <time>1970-01-01T01:13:35.000Z</time>
      </trkpt>
      <trkpt lat="39.831755" lon="-8.728421">
        <ele>180.9</ele>
        <time>1970-01-01T01:13:36.000Z</time>
      </trkpt>
      <trkpt lat="39.831762" lon="-8.728495">
        <ele>181.2</ele>
        <time>1970-01-01T01:13:37.000Z</time>
      </trkpt>
      <trkpt lat="39.831765" lon="-8.728565">
        <ele>181.5</ele>
        <time>1970-01-01T01:13:38.000Z</time>
      </trkpt>
      <trkpt lat="39.831763" lon="-8.728634">
        <ele>181.8</ele>
        <time>1970-01-01T01:13:39.000Z</time>
      </trkpt>
      <trkpt lat="39.831758" lon="-8.728706">
        <ele>182.1</ele>
        <time>1970-01-01T01:13:40.000Z</time>
      </trkpt>
      <trkpt lat="39.831752" lon="-8.728781">
        <ele>182.4</ele>
        <time>1970-01-01T01:13:41.000Z</time>
      </trkpt>
      <trkpt lat="39.831746" lon="-8.728858">
        <ele>182.6</ele>
        <time>1970-01-01T01:13:42.000Z</time>
      </trkpt>
      <trkpt lat="39.831741" lon="-8.728935">
        <ele>182.9</ele>
        <time>1970-01-01T01:13:44.000Z</time>
      </trkpt>
      <trkpt lat="39.831736" lon="-8.729013">
        <ele>183.1</ele>
        <time>1970-01-01T01:13:44.000Z</time>
      </trkpt>
      <trkpt lat="39.831735" lon="-8.729093">
        <ele>183.3</ele>
        <time>1970-01-01T01:13:45.000Z</time>
      </trkpt>
      <trkpt lat="39.831737" lon="-8.72917">
        <ele>183.5</ele>
        <time>1970-01-01T01:13:46.000Z</time>
      </trkpt>
      <trkpt lat="39.831744" lon="-8.729248">
        <ele>183.6</ele>
        <time>1970-01-01T01:13:48.000Z</time>
      </trkpt>
      <trkpt lat="39.831757" lon="-8.729318">
        <ele>183.7</ele>
        <time>1970-01-01T01:13:48.000Z</time>
      </trkpt>
      <trkpt lat="39.831774" lon="-8.729383">
        <ele>183.8</ele>
        <time>1970-01-01T01:13:49.000Z</time>
      </trkpt>
      <trkpt lat="39.831795" lon="-8.72944">
        <ele>183.8</ele>
        <time>1970-01-01T01:13:50.000Z</time>
      </trkpt>
      <trkpt lat="39.83182" lon="-8.729489">
        <ele>183.8</ele>
        <time>1970-01-01T01:13:51.000Z</time>
      </trkpt>
      <trkpt lat="39.831848" lon="-8.729533">
        <ele>183.8</ele>
        <time>1970-01-01T01:13:53.000Z</time>
      </trkpt>
      <trkpt lat="39.831879" lon="-8.729571">
        <ele>183.8</ele>
        <time>1970-01-01T01:13:53.000Z</time>
      </trkpt>
      <trkpt lat="39.831918" lon="-8.729602">
        <ele>183.8</ele>
        <time>1970-01-01T01:13:54.000Z</time>
      </trkpt>
      <trkpt lat="39.83196" lon="-8.729628">
        <ele>183.7</ele>
        <time>1970-01-01T01:13:55.000Z</time>
      </trkpt>
      <trkpt lat="39.832006" lon="-8.729648">
        <ele>183.7</ele>
        <time>1970-01-01T01:13:56.000Z</time>
      </trkpt>
      <trkpt lat="39.832054" lon="-8.729662">
        <ele>183.7</ele>
        <time>1970-01-01T01:13:57.000Z</time>
      </trkpt>
      <trkpt lat="39.832101" lon="-8.729675">
        <ele>183.6</ele>
        <time>1970-01-01T01:13:59.000Z</time>
      </trkpt>
      <trkpt lat="39.832147" lon="-8.729688">
        <ele>183.6</ele>
        <time>1970-01-01T01:13:59.000Z</time>
      </trkpt>
      <trkpt lat="39.832192" lon="-8.729702">
        <ele>183.6</ele>
        <time>1970-01-01T01:14:00.000Z</time>
      </trkpt>
      <trkpt lat="39.832237" lon="-8.729715">
        <ele>183.5</ele>
        <time>1970-01-01T01:14:01.000Z</time>
      </trkpt>
      <trkpt lat="39.832282" lon="-8.729726">
        <ele>183.4</ele>
        <time>1970-01-01T01:14:03.000Z</time>
      </trkpt>
      <trkpt lat="39.832328" lon="-8.729735">
        <ele>183.3</ele>
        <time>1970-01-01T01:14:03.000Z</time>
      </trkpt>
      <trkpt lat="39.832375" lon="-8.72974">
        <ele>183.2</ele>
        <time>1970-01-01T01:14:04.000Z</time>
      </trkpt>
      <trkpt lat="39.832423" lon="-8.729744">
        <ele>183.1</ele>
        <time>1970-01-01T01:14:05.000Z</time>
      </trkpt>
      <trkpt lat="39.832468" lon="-8.729746">
        <ele>183</ele>
        <time>1970-01-01T01:14:07.000Z</time>
      </trkpt>
      <trkpt lat="39.832515" lon="-8.72975">
        <ele>182.9</ele>
        <time>1970-01-01T01:14:07.000Z</time>
      </trkpt>
      <trkpt lat="39.832567" lon="-8.729752">
        <ele>182.8</ele>
        <time>1970-01-01T01:14:08.000Z</time>
      </trkpt>
      <trkpt lat="39.83262" lon="-8.729752">
        <ele>182.7</ele>
        <time>1970-01-01T01:14:09.000Z</time>
      </trkpt>
      <trkpt lat="39.832679" lon="-8.729752">
        <ele>182.6</ele>
        <time>1970-01-01T01:14:11.000Z</time>
      </trkpt>
      <trkpt lat="39.832734" lon="-8.729754">
        <ele>182.5</ele>
        <time>1970-01-01T01:14:11.000Z</time>
      </trkpt>
      <trkpt lat="39.832791" lon="-8.729759">
        <ele>182.3</ele>
        <time>1970-01-01T01:14:12.000Z</time>
      </trkpt>
      <trkpt lat="39.832847" lon="-8.729766">
        <ele>182.2</ele>
        <time>1970-01-01T01:14:13.000Z</time>
      </trkpt>
      <trkpt lat="39.832901" lon="-8.729774">
        <ele>182.1</ele>
        <time>1970-01-01T01:14:14.000Z</time>
      </trkpt>
      <trkpt lat="39.832957" lon="-8.72978">
        <ele>181.9</ele>
        <time>1970-01-01T01:14:15.000Z</time>
      </trkpt>
      <trkpt lat="39.833013" lon="-8.729785">
        <ele>181.8</ele>
        <time>1970-01-01T01:14:16.000Z</time>
      </trkpt>
      <trkpt lat="39.833069" lon="-8.729786">
        <ele>181.6</ele>
        <time>1970-01-01T01:14:17.000Z</time>
      </trkpt>
      <trkpt lat="39.833127" lon="-8.729785">
        <ele>181.3</ele>
        <time>1970-01-01T01:14:18.000Z</time>
      </trkpt>
      <trkpt lat="39.833188" lon="-8.729782">
        <ele>181.1</ele>
        <time>1970-01-01T01:14:19.000Z</time>
      </trkpt>
      <trkpt lat="39.833247" lon="-8.729781">
        <ele>180.9</ele>
        <time>1970-01-01T01:14:20.000Z</time>
      </trkpt>
      <trkpt lat="39.833304" lon="-8.729783">
        <ele>180.6</ele>
        <time>1970-01-01T01:14:21.000Z</time>
      </trkpt>
      <trkpt lat="39.833364" lon="-8.729792">
        <ele>180.3</ele>
        <time>1970-01-01T01:14:22.000Z</time>
      </trkpt>
      <trkpt lat="39.833427" lon="-8.729806">
        <ele>180</ele>
        <time>1970-01-01T01:14:23.000Z</time>
      </trkpt>
      <trkpt lat="39.833496" lon="-8.729827">
        <ele>179.6</ele>
        <time>1970-01-01T01:14:25.000Z</time>
      </trkpt>
      <trkpt lat="39.833571" lon="-8.729853">
        <ele>179.2</ele>
        <time>1970-01-01T01:14:25.000Z</time>
      </trkpt>
      <trkpt lat="39.833659" lon="-8.729882">
        <ele>178.7</ele>
        <time>1970-01-01T01:14:26.000Z</time>
      </trkpt>
      <trkpt lat="39.833746" lon="-8.729908">
        <ele>178.3</ele>
        <time>1970-01-01T01:14:28.000Z</time>
      </trkpt>
      <trkpt lat="39.833846" lon="-8.729935">
        <ele>177.8</ele>
        <time>1970-01-01T01:14:28.000Z</time>
      </trkpt>
      <trkpt lat="39.833948" lon="-8.729964">
        <ele>177.3</ele>
        <time>1970-01-01T01:14:29.000Z</time>
      </trkpt>
      <trkpt lat="39.834049" lon="-8.729994">
        <ele>176.8</ele>
        <time>1970-01-01T01:14:30.000Z</time>
      </trkpt>
      <trkpt lat="39.834142" lon="-8.730025">
        <ele>176.3</ele>
        <time>1970-01-01T01:14:31.000Z</time>
      </trkpt>
      <trkpt lat="39.834239" lon="-8.730062">
        <ele>175.8</ele>
        <time>1970-01-01T01:14:32.000Z</time>
      </trkpt>
      <trkpt lat="39.834335" lon="-8.730099">
        <ele>175.2</ele>
        <time>1970-01-01T01:14:33.000Z</time>
      </trkpt>
      <trkpt lat="39.83443" lon="-8.730135">
        <ele>174.6</ele>
        <time>1970-01-01T01:14:34.000Z</time>
      </trkpt>
      <trkpt lat="39.834531" lon="-8.730158">
        <ele>174</ele>
        <time>1970-01-01T01:14:35.000Z</time>
      </trkpt>
      <trkpt lat="39.834627" lon="-8.730171">
        <ele>173.3</ele>
        <time>1970-01-01T01:14:36.000Z</time>
      </trkpt>
      <trkpt lat="39.834734" lon="-8.730174">
        <ele>172.8</ele>
        <time>1970-01-01T01:14:37.000Z</time>
      </trkpt>
      <trkpt lat="39.834844" lon="-8.730172">
        <ele>172.4</ele>
        <time>1970-01-01T01:14:38.000Z</time>
      </trkpt>
      <trkpt lat="39.834952" lon="-8.730172">
        <ele>172.1</ele>
        <time>1970-01-01T01:14:39.000Z</time>
      </trkpt>
      <trkpt lat="39.835054" lon="-8.730177">
        <ele>171.8</ele>
        <time>1970-01-01T01:14:40.000Z</time>
      </trkpt>
      <trkpt lat="39.835155" lon="-8.730189">
        <ele>171.6</ele>
        <time>1970-01-01T01:14:41.000Z</time>
      </trkpt>
      <trkpt lat="39.835248" lon="-8.730205">
        <ele>171.5</ele>
        <time>1970-01-01T01:14:43.000Z</time>
      </trkpt>
      <trkpt lat="39.835338" lon="-8.730225">
        <ele>171.2</ele>
        <time>1970-01-01T01:14:43.000Z</time>
      </trkpt>
      <trkpt lat="39.835429" lon="-8.730246">
        <ele>171</ele>
        <time>1970-01-01T01:14:44.000Z</time>
      </trkpt>
      <trkpt lat="39.835523" lon="-8.730266">
        <ele>170.7</ele>
        <time>1970-01-01T01:14:45.000Z</time>
      </trkpt>
      <trkpt lat="39.835623" lon="-8.730287">
        <ele>170.5</ele>
        <time>1970-01-01T01:14:46.000Z</time>
      </trkpt>
      <trkpt lat="39.83572" lon="-8.730307">
        <ele>170.3</ele>
        <time>1970-01-01T01:14:47.000Z</time>
      </trkpt>
      <trkpt lat="39.835813" lon="-8.730328">
        <ele>170.2</ele>
        <time>1970-01-01T01:14:48.000Z</time>
      </trkpt>
      <trkpt lat="39.835894" lon="-8.730348">
        <ele>170.1</ele>
        <time>1970-01-01T01:14:49.000Z</time>
      </trkpt>
      <trkpt lat="39.835975" lon="-8.730373">
        <ele>169.9</ele>
        <time>1970-01-01T01:14:50.000Z</time>
      </trkpt>
      <trkpt lat="39.836055" lon="-8.7304">
        <ele>169.8</ele>
        <time>1970-01-01T01:14:52.000Z</time>
      </trkpt>
      <trkpt lat="39.836135" lon="-8.730431">
        <ele>169.7</ele>
        <time>1970-01-01T01:14:52.000Z</time>
      </trkpt>
      <trkpt lat="39.836216" lon="-8.730464">
        <ele>169.6</ele>
        <time>1970-01-01T01:14:53.000Z</time>
      </trkpt>
      <trkpt lat="39.836293" lon="-8.730501">
        <ele>169.5</ele>
        <time>1970-01-01T01:14:54.000Z</time>
      </trkpt>
      <trkpt lat="39.836372" lon="-8.730547">
        <ele>169.5</ele>
        <time>1970-01-01T01:14:55.000Z</time>
      </trkpt>
      <trkpt lat="39.836443" lon="-8.730601">
        <ele>169.5</ele>
        <time>1970-01-01T01:14:56.000Z</time>
      </trkpt>
      <trkpt lat="39.836514" lon="-8.730654">
        <ele>169.6</ele>
        <time>1970-01-01T01:14:57.000Z</time>
      </trkpt>
      <trkpt lat="39.836579" lon="-8.730702">
        <ele>169.7</ele>
        <time>1970-01-01T01:14:58.000Z</time>
      </trkpt>
      <trkpt lat="39.836642" lon="-8.730749">
        <ele>169.8</ele>
        <time>1970-01-01T01:14:59.000Z</time>
      </trkpt>
      <trkpt lat="39.836701" lon="-8.730795">
        <ele>170</ele>
        <time>1970-01-01T01:15:01.000Z</time>
      </trkpt>
      <trkpt lat="39.836756" lon="-8.730842">
        <ele>170.1</ele>
        <time>1970-01-01T01:15:01.000Z</time>
      </trkpt>
      <trkpt lat="39.836807" lon="-8.730888">
        <ele>170.2</ele>
        <time>1970-01-01T01:15:02.000Z</time>
      </trkpt>
      <trkpt lat="39.836857" lon="-8.730935">
        <ele>170.2</ele>
        <time>1970-01-01T01:15:03.000Z</time>
      </trkpt>
      <trkpt lat="39.83691" lon="-8.730983">
        <ele>170.3</ele>
        <time>1970-01-01T01:15:04.000Z</time>
      </trkpt>
      <trkpt lat="39.836962" lon="-8.73103">
        <ele>170.3</ele>
        <time>1970-01-01T01:15:05.000Z</time>
      </trkpt>
      <trkpt lat="39.837016" lon="-8.731074">
        <ele>170.3</ele>
        <time>1970-01-01T01:15:06.000Z</time>
      </trkpt>
      <trkpt lat="39.837071" lon="-8.731115">
        <ele>170.3</ele>
        <time>1970-01-01T01:15:07.000Z</time>
      </trkpt>
      <trkpt lat="39.837125" lon="-8.731153">
        <ele>170.3</ele>
        <time>1970-01-01T01:15:08.000Z</time>
      </trkpt>
      <trkpt lat="39.837177" lon="-8.731195">
        <ele>170.3</ele>
        <time>1970-01-01T01:15:10.000Z</time>
      </trkpt>
      <trkpt lat="39.837227" lon="-8.73124">
        <ele>170.3</ele>
        <time>1970-01-01T01:15:10.000Z</time>
      </trkpt>
      <trkpt lat="39.837278" lon="-8.731289">
        <ele>170.3</ele>
        <time>1970-01-01T01:15:11.000Z</time>
      </trkpt>
      <trkpt lat="39.83733" lon="-8.731338">
        <ele>170.3</ele>
        <time>1970-01-01T01:15:12.000Z</time>
      </trkpt>
      <trkpt lat="39.837384" lon="-8.731388">
        <ele>170.4</ele>
        <time>1970-01-01T01:15:13.000Z</time>
      </trkpt>
      <trkpt lat="39.837437" lon="-8.731441">
        <ele>170.4</ele>
        <time>1970-01-01T01:15:14.000Z</time>
      </trkpt>
      <trkpt lat="39.837492" lon="-8.731496">
        <ele>170.5</ele>
        <time>1970-01-01T01:15:16.000Z</time>
      </trkpt>
      <trkpt lat="39.837545" lon="-8.731552">
        <ele>170.5</ele>
        <time>1970-01-01T01:15:16.000Z</time>
      </trkpt>
      <trkpt lat="39.837596" lon="-8.731611">
        <ele>170.6</ele>
        <time>1970-01-01T01:15:17.000Z</time>
      </trkpt>
      <trkpt lat="39.837641" lon="-8.731675">
        <ele>170.7</ele>
        <time>1970-01-01T01:15:18.000Z</time>
      </trkpt>
      <trkpt lat="39.837681" lon="-8.731745">
        <ele>170.7</ele>
        <time>1970-01-01T01:15:19.000Z</time>
      </trkpt>
      <trkpt lat="39.837711" lon="-8.731823">
        <ele>170.8</ele>
        <time>1970-01-01T01:15:20.000Z</time>
      </trkpt>
      <trkpt lat="39.83773" lon="-8.731908">
        <ele>170.9</ele>
        <time>1970-01-01T01:15:21.000Z</time>
      </trkpt>
      <trkpt lat="39.837742" lon="-8.731995">
        <ele>171</ele>
        <time>1970-01-01T01:15:22.000Z</time>
      </trkpt>
      <trkpt lat="39.837749" lon="-8.732093">
        <ele>171.1</ele>
        <time>1970-01-01T01:15:23.000Z</time>
      </trkpt>
      <trkpt lat="39.837755" lon="-8.732186">
        <ele>171.2</ele>
        <time>1970-01-01T01:15:24.000Z</time>
      </trkpt>
      <trkpt lat="39.837758" lon="-8.732279">
        <ele>171.2</ele>
        <time>1970-01-01T01:15:26.000Z</time>
      </trkpt>
      <trkpt lat="39.837761" lon="-8.732372">
        <ele>171.3</ele>
        <time>1970-01-01T01:15:26.000Z</time>
      </trkpt>
      <trkpt lat="39.837764" lon="-8.732463">
        <ele>171.4</ele>
        <time>1970-01-01T01:15:27.000Z</time>
      </trkpt>
      <trkpt lat="39.837766" lon="-8.732553">
        <ele>171.5</ele>
        <time>1970-01-01T01:15:28.000Z</time>
      </trkpt>
      <trkpt lat="39.837769" lon="-8.732641">
        <ele>171.5</ele>
        <time>1970-01-01T01:15:29.000Z</time>
      </trkpt>
      <trkpt lat="39.837771" lon="-8.732726">
        <ele>171.6</ele>
        <time>1970-01-01T01:15:31.000Z</time>
      </trkpt>
      <trkpt lat="39.837773" lon="-8.732807">
        <ele>171.7</ele>
        <time>1970-01-01T01:15:31.000Z</time>
      </trkpt>
      <trkpt lat="39.837776" lon="-8.732886">
        <ele>171.8</ele>
        <time>1970-01-01T01:15:32.000Z</time>
      </trkpt>
      <trkpt lat="39.837781" lon="-8.732963">
        <ele>171.8</ele>
        <time>1970-01-01T01:15:33.000Z</time>
      </trkpt>
      <trkpt lat="39.837783" lon="-8.733043">
        <ele>171.7</ele>
        <time>1970-01-01T01:15:34.000Z</time>
      </trkpt>
      <trkpt lat="39.837782" lon="-8.733123">
        <ele>171.6</ele>
        <time>1970-01-01T01:15:35.000Z</time>
      </trkpt>
      <trkpt lat="39.837781" lon="-8.733202">
        <ele>171.4</ele>
        <time>1970-01-01T01:15:36.000Z</time>
      </trkpt>
      <trkpt lat="39.83778" lon="-8.733281">
        <ele>171.2</ele>
        <time>1970-01-01T01:15:37.000Z</time>
      </trkpt>
      <trkpt lat="39.837782" lon="-8.733359">
        <ele>171</ele>
        <time>1970-01-01T01:15:38.000Z</time>
      </trkpt>
      <trkpt lat="39.837782" lon="-8.733438">
        <ele>170.7</ele>
        <time>1970-01-01T01:15:39.000Z</time>
      </trkpt>
      <trkpt lat="39.837784" lon="-8.733519">
        <ele>170.4</ele>
        <time>1970-01-01T01:15:40.000Z</time>
      </trkpt>
      <trkpt lat="39.837788" lon="-8.7336">
        <ele>170</ele>
        <time>1970-01-01T01:15:41.000Z</time>
      </trkpt>
      <trkpt lat="39.837792" lon="-8.733687">
        <ele>169.6</ele>
        <time>1970-01-01T01:15:42.000Z</time>
      </trkpt>
      <trkpt lat="39.837795" lon="-8.733776">
        <ele>169.3</ele>
        <time>1970-01-01T01:15:43.000Z</time>
      </trkpt>
      <trkpt lat="39.8378" lon="-8.733863">
        <ele>168.9</ele>
        <time>1970-01-01T01:15:44.000Z</time>
      </trkpt>
      <trkpt lat="39.837806" lon="-8.733963">
        <ele>168.5</ele>
        <time>1970-01-01T01:15:45.000Z</time>
      </trkpt>
      <trkpt lat="39.837815" lon="-8.734064">
        <ele>168.1</ele>
        <time>1970-01-01T01:15:46.000Z</time>
      </trkpt>
      <trkpt lat="39.837826" lon="-8.734166">
        <ele>167.8</ele>
        <time>1970-01-01T01:15:47.000Z</time>
      </trkpt>
      <trkpt lat="39.837841" lon="-8.734268">
        <ele>167.5</ele>
        <time>1970-01-01T01:15:49.000Z</time>
      </trkpt>
      <trkpt lat="39.837861" lon="-8.734366">
        <ele>167.2</ele>
        <time>1970-01-01T01:15:49.000Z</time>
      </trkpt>
      <trkpt lat="39.837886" lon="-8.734456">
        <ele>166.9</ele>
        <time>1970-01-01T01:15:50.000Z</time>
      </trkpt>
      <trkpt lat="39.83792" lon="-8.73455">
        <ele>166.8</ele>
        <time>1970-01-01T01:15:51.000Z</time>
      </trkpt>
      <trkpt lat="39.837961" lon="-8.734639">
        <ele>166.6</ele>
        <time>1970-01-01T01:15:52.000Z</time>
      </trkpt>
      <trkpt lat="39.838007" lon="-8.734725">
        <ele>166.3</ele>
        <time>1970-01-01T01:15:53.000Z</time>
      </trkpt>
      <trkpt lat="39.838059" lon="-8.734809">
        <ele>166</ele>
        <time>1970-01-01T01:15:55.000Z</time>
      </trkpt>
      <trkpt lat="39.838113" lon="-8.73489">
        <ele>165.8</ele>
        <time>1970-01-01T01:15:55.000Z</time>
      </trkpt>
      <trkpt lat="39.838169" lon="-8.73497">
        <ele>165.5</ele>
        <time>1970-01-01T01:15:57.000Z</time>
      </trkpt>
      <trkpt lat="39.838226" lon="-8.735052">
        <ele>165.3</ele>
        <time>1970-01-01T01:15:57.000Z</time>
      </trkpt>
      <trkpt lat="39.838282" lon="-8.735134">
        <ele>165.2</ele>
        <time>1970-01-01T01:15:58.000Z</time>
      </trkpt>
      <trkpt lat="39.838336" lon="-8.735214">
        <ele>165</ele>
        <time>1970-01-01T01:15:59.000Z</time>
      </trkpt>
      <trkpt lat="39.838391" lon="-8.735292">
        <ele>164.9</ele>
        <time>1970-01-01T01:16:01.000Z</time>
      </trkpt>
      <trkpt lat="39.838445" lon="-8.735367">
        <ele>164.8</ele>
        <time>1970-01-01T01:16:01.000Z</time>
      </trkpt>
      <trkpt lat="39.838497" lon="-8.735444">
        <ele>164.7</ele>
        <time>1970-01-01T01:16:02.000Z</time>
      </trkpt>
      <trkpt lat="39.838546" lon="-8.735522">
        <ele>164.7</ele>
        <time>1970-01-01T01:16:03.000Z</time>
      </trkpt>
      <trkpt lat="39.838589" lon="-8.735604">
        <ele>164.6</ele>
        <time>1970-01-01T01:16:04.000Z</time>
      </trkpt>
      <trkpt lat="39.838625" lon="-8.735693">
        <ele>164.6</ele>
        <time>1970-01-01T01:16:06.000Z</time>
      </trkpt>
      <trkpt lat="39.838653" lon="-8.735788">
        <ele>164.7</ele>
        <time>1970-01-01T01:16:06.000Z</time>
      </trkpt>
      <trkpt lat="39.838674" lon="-8.73589">
        <ele>164.8</ele>
        <time>1970-01-01T01:16:07.000Z</time>
      </trkpt>
      <trkpt lat="39.838692" lon="-8.735999">
        <ele>164.9</ele>
        <time>1970-01-01T01:16:08.000Z</time>
      </trkpt>
      <trkpt lat="39.838709" lon="-8.736109">
        <ele>165.1</ele>
        <time>1970-01-01T01:16:10.000Z</time>
      </trkpt>
      <trkpt lat="39.838725" lon="-8.736218">
        <ele>165.2</ele>
        <time>1970-01-01T01:16:10.000Z</time>
      </trkpt>
      <trkpt lat="39.838741" lon="-8.736323">
        <ele>165.3</ele>
        <time>1970-01-01T01:16:11.000Z</time>
      </trkpt>
      <trkpt lat="39.838756" lon="-8.736424">
        <ele>165.4</ele>
        <time>1970-01-01T01:16:12.000Z</time>
      </trkpt>
      <trkpt lat="39.838771" lon="-8.73652">
        <ele>165.4</ele>
        <time>1970-01-01T01:16:13.000Z</time>
      </trkpt>
      <trkpt lat="39.838787" lon="-8.736611">
        <ele>165.5</ele>
        <time>1970-01-01T01:16:15.000Z</time>
      </trkpt>
      <trkpt lat="39.838802" lon="-8.7367">
        <ele>165.5</ele>
        <time>1970-01-01T01:16:15.000Z</time>
      </trkpt>
      <trkpt lat="39.838817" lon="-8.736786">
        <ele>165.5</ele>
        <time>1970-01-01T01:16:16.000Z</time>
      </trkpt>
      <trkpt lat="39.838833" lon="-8.73687">
        <ele>165.5</ele>
        <time>1970-01-01T01:16:17.000Z</time>
      </trkpt>
      <trkpt lat="39.838849" lon="-8.736951">
        <ele>165.4</ele>
        <time>1970-01-01T01:16:18.000Z</time>
      </trkpt>
      <trkpt lat="39.838865" lon="-8.737034">
        <ele>165.3</ele>
        <time>1970-01-01T01:16:19.000Z</time>
      </trkpt>
      <trkpt lat="39.838882" lon="-8.73712">
        <ele>165.2</ele>
        <time>1970-01-01T01:16:20.000Z</time>
      </trkpt>
      <trkpt lat="39.838906" lon="-8.737207">
        <ele>165.1</ele>
        <time>1970-01-01T01:16:21.000Z</time>
      </trkpt>
      <trkpt lat="39.838934" lon="-8.737295">
        <ele>165</ele>
        <time>1970-01-01T01:16:22.000Z</time>
      </trkpt>
      <trkpt lat="39.838964" lon="-8.737377">
        <ele>164.9</ele>
        <time>1970-01-01T01:16:23.000Z</time>
      </trkpt>
      <trkpt lat="39.839001" lon="-8.737466">
        <ele>164.9</ele>
        <time>1970-01-01T01:16:25.000Z</time>
      </trkpt>
      <trkpt lat="39.839038" lon="-8.737551">
        <ele>165</ele>
        <time>1970-01-01T01:16:26.000Z</time>
      </trkpt>
      <trkpt lat="39.839077" lon="-8.737635">
        <ele>165</ele>
        <time>1970-01-01T01:16:26.000Z</time>
      </trkpt>
      <trkpt lat="39.839113" lon="-8.737709">
        <ele>165.1</ele>
        <time>1970-01-01T01:16:27.000Z</time>
      </trkpt>
      <trkpt lat="39.839157" lon="-8.737783">
        <ele>165.2</ele>
        <time>1970-01-01T01:16:28.000Z</time>
      </trkpt>
      <trkpt lat="39.839201" lon="-8.737847">
        <ele>165.3</ele>
        <time>1970-01-01T01:16:29.000Z</time>
      </trkpt>
      <trkpt lat="39.839247" lon="-8.737909">
        <ele>165.4</ele>
        <time>1970-01-01T01:16:30.000Z</time>
      </trkpt>
      <trkpt lat="39.839298" lon="-8.737973">
        <ele>165.5</ele>
        <time>1970-01-01T01:16:31.000Z</time>
      </trkpt>
      <trkpt lat="39.839347" lon="-8.738036">
        <ele>165.6</ele>
        <time>1970-01-01T01:16:32.000Z</time>
      </trkpt>
      <trkpt lat="39.839397" lon="-8.738096">
        <ele>165.8</ele>
        <time>1970-01-01T01:16:33.000Z</time>
      </trkpt>
      <trkpt lat="39.839444" lon="-8.738154">
        <ele>165.9</ele>
        <time>1970-01-01T01:16:34.000Z</time>
      </trkpt>
      <trkpt lat="39.839485" lon="-8.738207">
        <ele>166.1</ele>
        <time>1970-01-01T01:16:35.000Z</time>
      </trkpt>
      <trkpt lat="39.839527" lon="-8.738259">
        <ele>166.3</ele>
        <time>1970-01-01T01:16:36.000Z</time>
      </trkpt>
      <trkpt lat="39.83957" lon="-8.738313">
        <ele>166.5</ele>
        <time>1970-01-01T01:16:37.000Z</time>
      </trkpt>
      <trkpt lat="39.839612" lon="-8.738363">
        <ele>166.6</ele>
        <time>1970-01-01T01:16:38.000Z</time>
      </trkpt>
      <trkpt lat="39.839653" lon="-8.738411">
        <ele>166.8</ele>
        <time>1970-01-01T01:16:39.000Z</time>
      </trkpt>
      <trkpt lat="39.839691" lon="-8.73846">
        <ele>167</ele>
        <time>1970-01-01T01:16:40.000Z</time>
      </trkpt>
      <trkpt lat="39.839727" lon="-8.73851">
        <ele>167.2</ele>
        <time>1970-01-01T01:16:41.000Z</time>
      </trkpt>
      <trkpt lat="39.839762" lon="-8.73856">
        <ele>167.4</ele>
        <time>1970-01-01T01:16:42.000Z</time>
      </trkpt>
      <trkpt lat="39.839793" lon="-8.738608">
        <ele>167.5</ele>
        <time>1970-01-01T01:16:43.000Z</time>
      </trkpt>
      <trkpt lat="39.839826" lon="-8.738659">
        <ele>167.7</ele>
        <time>1970-01-01T01:16:44.000Z</time>
      </trkpt>
      <trkpt lat="39.839861" lon="-8.738716">
        <ele>167.9</ele>
        <time>1970-01-01T01:16:45.000Z</time>
      </trkpt>
      <trkpt lat="39.839894" lon="-8.738774">
        <ele>168.1</ele>
        <time>1970-01-01T01:16:47.000Z</time>
      </trkpt>
      <trkpt lat="39.839925" lon="-8.738829">
        <ele>168.3</ele>
        <time>1970-01-01T01:16:47.000Z</time>
      </trkpt>
      <trkpt lat="39.839952" lon="-8.738882">
        <ele>168.4</ele>
        <time>1970-01-01T01:16:48.000Z</time>
      </trkpt>
      <trkpt lat="39.839976" lon="-8.738935">
        <ele>168.5</ele>
        <time>1970-01-01T01:16:49.000Z</time>
      </trkpt>
      <trkpt lat="39.839999" lon="-8.738986">
        <ele>168.6</ele>
        <time>1970-01-01T01:16:50.000Z</time>
      </trkpt>
      <trkpt lat="39.840018" lon="-8.739037">
        <ele>168.6</ele>
        <time>1970-01-01T01:16:52.000Z</time>
      </trkpt>
      <trkpt lat="39.840035" lon="-8.739089">
        <ele>168.5</ele>
        <time>1970-01-01T01:16:52.000Z</time>
      </trkpt>
      <trkpt lat="39.840052" lon="-8.739143">
        <ele>168.5</ele>
        <time>1970-01-01T01:16:53.000Z</time>
      </trkpt>
      <trkpt lat="39.840071" lon="-8.739197">
        <ele>168.3</ele>
        <time>1970-01-01T01:16:54.000Z</time>
      </trkpt>
      <trkpt lat="39.840092" lon="-8.739252">
        <ele>168.2</ele>
        <time>1970-01-01T01:16:56.000Z</time>
      </trkpt>
      <trkpt lat="39.840111" lon="-8.73931">
        <ele>167.9</ele>
        <time>1970-01-01T01:16:56.000Z</time>
      </trkpt>
      <trkpt lat="39.840129" lon="-8.73937">
        <ele>167.7</ele>
        <time>1970-01-01T01:16:57.000Z</time>
      </trkpt>
      <trkpt lat="39.84015" lon="-8.739435">
        <ele>167.4</ele>
        <time>1970-01-01T01:16:58.000Z</time>
      </trkpt>
      <trkpt lat="39.840172" lon="-8.739505">
        <ele>167.1</ele>
        <time>1970-01-01T01:16:59.000Z</time>
      </trkpt>
      <trkpt lat="39.840195" lon="-8.739579">
        <ele>166.8</ele>
        <time>1970-01-01T01:17:00.000Z</time>
      </trkpt>
      <trkpt lat="39.840221" lon="-8.739655">
        <ele>166.4</ele>
        <time>1970-01-01T01:17:02.000Z</time>
      </trkpt>
      <trkpt lat="39.840248" lon="-8.739731">
        <ele>166.1</ele>
        <time>1970-01-01T01:17:02.000Z</time>
      </trkpt>
      <trkpt lat="39.840279" lon="-8.739811">
        <ele>165.8</ele>
        <time>1970-01-01T01:17:03.000Z</time>
      </trkpt>
      <trkpt lat="39.840313" lon="-8.739895">
        <ele>165.5</ele>
        <time>1970-01-01T01:17:04.000Z</time>
      </trkpt>
      <trkpt lat="39.84035" lon="-8.739983">
        <ele>165.2</ele>
        <time>1970-01-01T01:17:05.000Z</time>
      </trkpt>
      <trkpt lat="39.84039" lon="-8.740069">
        <ele>164.9</ele>
        <time>1970-01-01T01:17:06.000Z</time>
      </trkpt>
      <trkpt lat="39.840433" lon="-8.740153">
        <ele>164.6</ele>
        <time>1970-01-01T01:17:07.000Z</time>
      </trkpt>
      <trkpt lat="39.840479" lon="-8.740234">
        <ele>164.4</ele>
        <time>1970-01-01T01:17:08.000Z</time>
      </trkpt>
      <trkpt lat="39.840527" lon="-8.740316">
        <ele>164.2</ele>
        <time>1970-01-01T01:17:09.000Z</time>
      </trkpt>
      <trkpt lat="39.840576" lon="-8.740397">
        <ele>164</ele>
        <time>1970-01-01T01:17:10.000Z</time>
      </trkpt>
      <trkpt lat="39.840626" lon="-8.74048">
        <ele>163.9</ele>
        <time>1970-01-01T01:17:11.000Z</time>
      </trkpt>
      <trkpt lat="39.840677" lon="-8.740567">
        <ele>163.7</ele>
        <time>1970-01-01T01:17:12.000Z</time>
      </trkpt>
      <trkpt lat="39.840726" lon="-8.74065">
        <ele>163.6</ele>
        <time>1970-01-01T01:17:13.000Z</time>
      </trkpt>
      <trkpt lat="39.840778" lon="-8.740738">
        <ele>163.4</ele>
        <time>1970-01-01T01:17:14.000Z</time>
      </trkpt>
      <trkpt lat="39.840829" lon="-8.740823">
        <ele>163.3</ele>
        <time>1970-01-01T01:17:15.000Z</time>
      </trkpt>
      <trkpt lat="39.840878" lon="-8.740904">
        <ele>163.2</ele>
        <time>1970-01-01T01:17:16.000Z</time>
      </trkpt>
      <trkpt lat="39.840926" lon="-8.740982">
        <ele>163.1</ele>
        <time>1970-01-01T01:17:18.000Z</time>
      </trkpt>
      <trkpt lat="39.840973" lon="-8.741058">
        <ele>163</ele>
        <time>1970-01-01T01:17:18.000Z</time>
      </trkpt>
      <trkpt lat="39.841019" lon="-8.741135">
        <ele>162.9</ele>
        <time>1970-01-01T01:17:19.000Z</time>
      </trkpt>
      <trkpt lat="39.841061" lon="-8.741204">
        <ele>162.9</ele>
        <time>1970-01-01T01:17:20.000Z</time>
      </trkpt>
      <trkpt lat="39.841105" lon="-8.741274">
        <ele>162.8</ele>
        <time>1970-01-01T01:17:21.000Z</time>
      </trkpt>
      <trkpt lat="39.841151" lon="-8.741338">
        <ele>162.8</ele>
        <time>1970-01-01T01:17:22.000Z</time>
      </trkpt>
      <trkpt lat="39.841197" lon="-8.741401">
        <ele>162.7</ele>
        <time>1970-01-01T01:17:23.000Z</time>
      </trkpt>
      <trkpt lat="39.841241" lon="-8.741459">
        <ele>162.7</ele>
        <time>1970-01-01T01:17:24.000Z</time>
      </trkpt>
      <trkpt lat="39.841285" lon="-8.741518">
        <ele>162.7</ele>
        <time>1970-01-01T01:17:25.000Z</time>
      </trkpt>
      <trkpt lat="39.841327" lon="-8.741578">
        <ele>162.6</ele>
        <time>1970-01-01T01:17:26.000Z</time>
      </trkpt>
      <trkpt lat="39.841368" lon="-8.741642">
        <ele>162.5</ele>
        <time>1970-01-01T01:17:27.000Z</time>
      </trkpt>
      <trkpt lat="39.841408" lon="-8.741709">
        <ele>162.4</ele>
        <time>1970-01-01T01:17:28.000Z</time>
      </trkpt>
      <trkpt lat="39.841449" lon="-8.741777">
        <ele>162.2</ele>
        <time>1970-01-01T01:17:29.000Z</time>
      </trkpt>
      <trkpt lat="39.84149" lon="-8.741848">
        <ele>162</ele>
        <time>1970-01-01T01:17:30.000Z</time>
      </trkpt>
      <trkpt lat="39.841532" lon="-8.741921">
        <ele>161.8</ele>
        <time>1970-01-01T01:17:31.000Z</time>
      </trkpt>
      <trkpt lat="39.841578" lon="-8.741994">
        <ele>161.5</ele>
        <time>1970-01-01T01:17:32.000Z</time>
      </trkpt>
      <trkpt lat="39.841625" lon="-8.742065">
        <ele>161.3</ele>
        <time>1970-01-01T01:17:33.000Z</time>
      </trkpt>
      <trkpt lat="39.841669" lon="-8.742131">
        <ele>161</ele>
        <time>1970-01-01T01:17:34.000Z</time>
      </trkpt>
      <trkpt lat="39.841716" lon="-8.742202">
        <ele>160.7</ele>
        <time>1970-01-01T01:17:35.000Z</time>
      </trkpt>
      <trkpt lat="39.841761" lon="-8.742267">
        <ele>160.5</ele>
        <time>1970-01-01T01:17:36.000Z</time>
      </trkpt>
      <trkpt lat="39.841807" lon="-8.742331">
        <ele>160.3</ele>
        <time>1970-01-01T01:17:37.000Z</time>
      </trkpt>
      <trkpt lat="39.841851" lon="-8.742396">
        <ele>160.1</ele>
        <time>1970-01-01T01:17:38.000Z</time>
      </trkpt>
      <trkpt lat="39.841894" lon="-8.742462">
        <ele>159.8</ele>
        <time>1970-01-01T01:17:39.000Z</time>
      </trkpt>
      <trkpt lat="39.841938" lon="-8.742529">
        <ele>159.6</ele>
        <time>1970-01-01T01:17:41.000Z</time>
      </trkpt>
      <trkpt lat="39.841982" lon="-8.742595">
        <ele>159.3</ele>
        <time>1970-01-01T01:17:41.000Z</time>
      </trkpt>
      <trkpt lat="39.842029" lon="-8.742659">
        <ele>159</ele>
        <time>1970-01-01T01:17:42.000Z</time>
      </trkpt>
      <trkpt lat="39.842076" lon="-8.742724">
        <ele>158.7</ele>
        <time>1970-01-01T01:17:43.000Z</time>
      </trkpt>
      <trkpt lat="39.842122" lon="-8.742787">
        <ele>158.4</ele>
        <time>1970-01-01T01:17:44.000Z</time>
      </trkpt>
      <trkpt lat="39.842169" lon="-8.742852">
        <ele>158</ele>
        <time>1970-01-01T01:17:45.000Z</time>
      </trkpt>
      <trkpt lat="39.842216" lon="-8.74292">
        <ele>157.6</ele>
        <time>1970-01-01T01:17:46.000Z</time>
      </trkpt>
      <trkpt lat="39.842267" lon="-8.742987">
        <ele>157.2</ele>
        <time>1970-01-01T01:17:47.000Z</time>
      </trkpt>
      <trkpt lat="39.84232" lon="-8.743054">
        <ele>156.8</ele>
        <time>1970-01-01T01:17:48.000Z</time>
      </trkpt>
      <trkpt lat="39.842374" lon="-8.74312">
        <ele>156.3</ele>
        <time>1970-01-01T01:17:50.000Z</time>
      </trkpt>
      <trkpt lat="39.84243" lon="-8.74319">
        <ele>155.9</ele>
        <time>1970-01-01T01:17:50.000Z</time>
      </trkpt>
      <trkpt lat="39.842488" lon="-8.743262">
        <ele>155.5</ele>
        <time>1970-01-01T01:17:51.000Z</time>
      </trkpt>
      <trkpt lat="39.842548" lon="-8.743337">
        <ele>155.2</ele>
        <time>1970-01-01T01:17:52.000Z</time>
      </trkpt>
      <trkpt lat="39.842609" lon="-8.743418">
        <ele>154.8</ele>
        <time>1970-01-01T01:17:53.000Z</time>
      </trkpt>
      <trkpt lat="39.842672" lon="-8.743505">
        <ele>154.4</ele>
        <time>1970-01-01T01:17:54.000Z</time>
      </trkpt>
      <trkpt lat="39.842738" lon="-8.743599">
        <ele>154</ele>
        <time>1970-01-01T01:17:55.000Z</time>
      </trkpt>
      <trkpt lat="39.842804" lon="-8.7437">
        <ele>153.6</ele>
        <time>1970-01-01T01:17:56.000Z</time>
      </trkpt>
      <trkpt lat="39.842868" lon="-8.743807">
        <ele>153.2</ele>
        <time>1970-01-01T01:17:57.000Z</time>
      </trkpt>
      <trkpt lat="39.842926" lon="-8.743918">
        <ele>153</ele>
        <time>1970-01-01T01:17:58.000Z</time>
      </trkpt>
      <trkpt lat="39.842977" lon="-8.744036">
        <ele>152.7</ele>
        <time>1970-01-01T01:17:59.000Z</time>
      </trkpt>
      <trkpt lat="39.84302" lon="-8.744157">
        <ele>152.5</ele>
        <time>1970-01-01T01:18:00.000Z</time>
      </trkpt>
      <trkpt lat="39.843052" lon="-8.744282">
        <ele>152.3</ele>
        <time>1970-01-01T01:18:01.000Z</time>
      </trkpt>
      <trkpt lat="39.843072" lon="-8.744408">
        <ele>152</ele>
        <time>1970-01-01T01:18:02.000Z</time>
      </trkpt>
      <trkpt lat="39.843079" lon="-8.744535">
        <ele>151.6</ele>
        <time>1970-01-01T01:18:03.000Z</time>
      </trkpt>
      <trkpt lat="39.843075" lon="-8.74466">
        <ele>151.3</ele>
        <time>1970-01-01T01:18:04.000Z</time>
      </trkpt>
      <trkpt lat="39.843068" lon="-8.744783">
        <ele>151</ele>
        <time>1970-01-01T01:18:06.000Z</time>
      </trkpt>
      <trkpt lat="39.843055" lon="-8.744906">
        <ele>150.8</ele>
        <time>1970-01-01T01:18:06.000Z</time>
      </trkpt>
      <trkpt lat="39.843039" lon="-8.745027">
        <ele>150.6</ele>
        <time>1970-01-01T01:18:07.000Z</time>
      </trkpt>
      <trkpt lat="39.843022" lon="-8.745146">
        <ele>150.5</ele>
        <time>1970-01-01T01:18:08.000Z</time>
      </trkpt>
      <trkpt lat="39.843007" lon="-8.745261">
        <ele>150.5</ele>
        <time>1970-01-01T01:18:09.000Z</time>
      </trkpt>
      <trkpt lat="39.842991" lon="-8.745371">
        <ele>150.5</ele>
        <time>1970-01-01T01:18:10.000Z</time>
      </trkpt>
      <trkpt lat="39.842975" lon="-8.745473">
        <ele>150.6</ele>
        <time>1970-01-01T01:18:11.000Z</time>
      </trkpt>
      <trkpt lat="39.842961" lon="-8.74557">
        <ele>150.8</ele>
        <time>1970-01-01T01:18:13.000Z</time>
      </trkpt>
      <trkpt lat="39.842952" lon="-8.745664">
        <ele>151.1</ele>
        <time>1970-01-01T01:18:13.000Z</time>
      </trkpt>
      <trkpt lat="39.842948" lon="-8.745752">
        <ele>151.3</ele>
        <time>1970-01-01T01:18:14.000Z</time>
      </trkpt>
      <trkpt lat="39.842949" lon="-8.745835">
        <ele>151.5</ele>
        <time>1970-01-01T01:18:15.000Z</time>
      </trkpt>
      <trkpt lat="39.842955" lon="-8.745916">
        <ele>151.7</ele>
        <time>1970-01-01T01:18:16.000Z</time>
      </trkpt>
      <trkpt lat="39.842971" lon="-8.745991">
        <ele>151.8</ele>
        <time>1970-01-01T01:18:17.000Z</time>
      </trkpt>
      <trkpt lat="39.842992" lon="-8.746066">
        <ele>151.9</ele>
        <time>1970-01-01T01:18:18.000Z</time>
      </trkpt>
      <trkpt lat="39.843018" lon="-8.746139">
        <ele>151.9</ele>
        <time>1970-01-01T01:18:19.000Z</time>
      </trkpt>
      <trkpt lat="39.843046" lon="-8.746209">
        <ele>151.9</ele>
        <time>1970-01-01T01:18:20.000Z</time>
      </trkpt>
      <trkpt lat="39.843076" lon="-8.74628">
        <ele>151.9</ele>
        <time>1970-01-01T01:18:21.000Z</time>
      </trkpt>
      <trkpt lat="39.843107" lon="-8.74635">
        <ele>151.9</ele>
        <time>1970-01-01T01:18:22.000Z</time>
      </trkpt>
      <trkpt lat="39.843136" lon="-8.746417">
        <ele>152</ele>
        <time>1970-01-01T01:18:23.000Z</time>
      </trkpt>
      <trkpt lat="39.843162" lon="-8.746481">
        <ele>152</ele>
        <time>1970-01-01T01:18:24.000Z</time>
      </trkpt>
      <trkpt lat="39.843182" lon="-8.746546">
        <ele>152.1</ele>
        <time>1970-01-01T01:18:25.000Z</time>
      </trkpt>
      <trkpt lat="39.843198" lon="-8.746615">
        <ele>152.3</ele>
        <time>1970-01-01T01:18:26.000Z</time>
      </trkpt>
      <trkpt lat="39.843211" lon="-8.746686">
        <ele>152.4</ele>
        <time>1970-01-01T01:18:27.000Z</time>
      </trkpt>
      <trkpt lat="39.843222" lon="-8.746757">
        <ele>152.6</ele>
        <time>1970-01-01T01:18:28.000Z</time>
      </trkpt>
      <trkpt lat="39.843234" lon="-8.746834">
        <ele>152.7</ele>
        <time>1970-01-01T01:18:29.000Z</time>
      </trkpt>
      <trkpt lat="39.843243" lon="-8.746912">
        <ele>152.8</ele>
        <time>1970-01-01T01:18:30.000Z</time>
      </trkpt>
      <trkpt lat="39.84325" lon="-8.74699">
        <ele>152.9</ele>
        <time>1970-01-01T01:18:31.000Z</time>
      </trkpt>
      <trkpt lat="39.843257" lon="-8.747066">
        <ele>152.9</ele>
        <time>1970-01-01T01:18:32.000Z</time>
      </trkpt>
      <trkpt lat="39.843265" lon="-8.747136">
        <ele>152.9</ele>
        <time>1970-01-01T01:18:33.000Z</time>
      </trkpt>
      <trkpt lat="39.843278" lon="-8.747211">
        <ele>152.9</ele>
        <time>1970-01-01T01:18:34.000Z</time>
      </trkpt>
      <trkpt lat="39.843295" lon="-8.747285">
        <ele>152.9</ele>
        <time>1970-01-01T01:18:35.000Z</time>
      </trkpt>
      <trkpt lat="39.843315" lon="-8.747356">
        <ele>152.8</ele>
        <time>1970-01-01T01:18:37.000Z</time>
      </trkpt>
      <trkpt lat="39.843335" lon="-8.747424">
        <ele>152.8</ele>
        <time>1970-01-01T01:18:37.000Z</time>
      </trkpt>
      <trkpt lat="39.843357" lon="-8.747489">
        <ele>152.7</ele>
        <time>1970-01-01T01:18:38.000Z</time>
      </trkpt>
      <trkpt lat="39.843383" lon="-8.74755">
        <ele>152.5</ele>
        <time>1970-01-01T01:18:39.000Z</time>
      </trkpt>
      <trkpt lat="39.843411" lon="-8.747607">
        <ele>152.3</ele>
        <time>1970-01-01T01:18:40.000Z</time>
      </trkpt>
      <trkpt lat="39.843442" lon="-8.747664">
        <ele>152.1</ele>
        <time>1970-01-01T01:18:41.000Z</time>
      </trkpt>
      <trkpt lat="39.843476" lon="-8.747722">
        <ele>151.8</ele>
        <time>1970-01-01T01:18:42.000Z</time>
      </trkpt>
      <trkpt lat="39.843512" lon="-8.747783">
        <ele>151.4</ele>
        <time>1970-01-01T01:18:43.000Z</time>
      </trkpt>
      <trkpt lat="39.84355" lon="-8.747848">
        <ele>150.9</ele>
        <time>1970-01-01T01:18:44.000Z</time>
      </trkpt>
      <trkpt lat="39.84359" lon="-8.74792">
        <ele>150.2</ele>
        <time>1970-01-01T01:18:45.000Z</time>
      </trkpt>
      <trkpt lat="39.843632" lon="-8.748002">
        <ele>149.4</ele>
        <time>1970-01-01T01:18:46.000Z</time>
      </trkpt>
      <trkpt lat="39.843675" lon="-8.748092">
        <ele>148.5</ele>
        <time>1970-01-01T01:18:47.000Z</time>
      </trkpt>
      <trkpt lat="39.843716" lon="-8.748191">
        <ele>147.6</ele>
        <time>1970-01-01T01:18:48.000Z</time>
      </trkpt>
      <trkpt lat="39.843751" lon="-8.748299">
        <ele>147.2</ele>
        <time>1970-01-01T01:18:50.000Z</time>
      </trkpt>
      <trkpt lat="39.84378" lon="-8.748416">
        <ele>146.9</ele>
        <time>1970-01-01T01:18:50.000Z</time>
      </trkpt>
      <trkpt lat="39.843803" lon="-8.748536">
        <ele>146.7</ele>
        <time>1970-01-01T01:18:51.000Z</time>
      </trkpt>
      <trkpt lat="39.843822" lon="-8.748656">
        <ele>146.7</ele>
        <time>1970-01-01T01:18:52.000Z</time>
      </trkpt>
      <trkpt lat="39.843838" lon="-8.748766">
        <ele>146.7</ele>
        <time>1970-01-01T01:18:53.000Z</time>
      </trkpt>
      <trkpt lat="39.843857" lon="-8.748882">
        <ele>146.8</ele>
        <time>1970-01-01T01:18:54.000Z</time>
      </trkpt>
      <trkpt lat="39.843881" lon="-8.748991">
        <ele>147</ele>
        <time>1970-01-01T01:18:55.000Z</time>
      </trkpt>
      <trkpt lat="39.843908" lon="-8.749085">
        <ele>147.1</ele>
        <time>1970-01-01T01:18:57.000Z</time>
      </trkpt>
      <trkpt lat="39.843942" lon="-8.749175">
        <ele>147.4</ele>
        <time>1970-01-01T01:18:57.000Z</time>
      </trkpt>
      <trkpt lat="39.843976" lon="-8.749249">
        <ele>147.6</ele>
        <time>1970-01-01T01:18:58.000Z</time>
      </trkpt>
      <trkpt lat="39.84401" lon="-8.749317">
        <ele>147.8</ele>
        <time>1970-01-01T01:18:59.000Z</time>
      </trkpt>
      <trkpt lat="39.844046" lon="-8.749385">
        <ele>148</ele>
        <time>1970-01-01T01:19:00.000Z</time>
      </trkpt>
      <trkpt lat="39.844081" lon="-8.749448">
        <ele>148.2</ele>
        <time>1970-01-01T01:19:01.000Z</time>
      </trkpt>
      <trkpt lat="39.844113" lon="-8.74951">
        <ele>148.5</ele>
        <time>1970-01-01T01:19:03.000Z</time>
      </trkpt>
      <trkpt lat="39.844144" lon="-8.749575">
        <ele>148.7</ele>
        <time>1970-01-01T01:19:03.000Z</time>
      </trkpt>
      <trkpt lat="39.844172" lon="-8.749638">
        <ele>148.9</ele>
        <time>1970-01-01T01:19:04.000Z</time>
      </trkpt>
      <trkpt lat="39.844198" lon="-8.749697">
        <ele>149.1</ele>
        <time>1970-01-01T01:19:05.000Z</time>
      </trkpt>
      <trkpt lat="39.84422" lon="-8.749751">
        <ele>149.2</ele>
        <time>1970-01-01T01:19:06.000Z</time>
      </trkpt>
      <trkpt lat="39.844237" lon="-8.749801">
        <ele>149.4</ele>
        <time>1970-01-01T01:19:07.000Z</time>
      </trkpt>
      <trkpt lat="39.844252" lon="-8.749846">
        <ele>149.5</ele>
        <time>1970-01-01T01:19:08.000Z</time>
      </trkpt>
      <trkpt lat="39.844266" lon="-8.749893">
        <ele>149.6</ele>
        <time>1970-01-01T01:19:09.000Z</time>
      </trkpt>
      <trkpt lat="39.844279" lon="-8.749943">
        <ele>149.7</ele>
        <time>1970-01-01T01:19:10.000Z</time>
      </trkpt>
      <trkpt lat="39.844291" lon="-8.749997">
        <ele>149.8</ele>
        <time>1970-01-01T01:19:11.000Z</time>
      </trkpt>
      <trkpt lat="39.844299" lon="-8.750052">
        <ele>149.9</ele>
        <time>1970-01-01T01:19:12.000Z</time>
      </trkpt>
      <trkpt lat="39.844304" lon="-8.750106">
        <ele>149.9</ele>
        <time>1970-01-01T01:19:13.000Z</time>
      </trkpt>
      <trkpt lat="39.844305" lon="-8.750161">
        <ele>150</ele>
        <time>1970-01-01T01:19:14.000Z</time>
      </trkpt>
      <trkpt lat="39.844306" lon="-8.750225">
        <ele>150.1</ele>
        <time>1970-01-01T01:19:15.000Z</time>
      </trkpt>
      <trkpt lat="39.844307" lon="-8.750291">
        <ele>150.2</ele>
        <time>1970-01-01T01:19:16.000Z</time>
      </trkpt>
      <trkpt lat="39.844313" lon="-8.750355">
        <ele>150.2</ele>
        <time>1970-01-01T01:19:17.000Z</time>
      </trkpt>
      <trkpt lat="39.844325" lon="-8.750411">
        <ele>150.3</ele>
        <time>1970-01-01T01:19:18.000Z</time>
      </trkpt>
      <trkpt lat="39.844345" lon="-8.750459">
        <ele>150.5</ele>
        <time>1970-01-01T01:19:19.000Z</time>
      </trkpt>
      <trkpt lat="39.84437" lon="-8.750499">
        <ele>150.6</ele>
        <time>1970-01-01T01:19:21.000Z</time>
      </trkpt>
      <trkpt lat="39.844399" lon="-8.750534">
        <ele>150.6</ele>
        <time>1970-01-01T01:19:21.000Z</time>
      </trkpt>
      <trkpt lat="39.844429" lon="-8.750567">
        <ele>150.7</ele>
        <time>1970-01-01T01:19:23.000Z</time>
      </trkpt>
      <trkpt lat="39.844458" lon="-8.7506">
        <ele>150.7</ele>
        <time>1970-01-01T01:19:23.000Z</time>
      </trkpt>
      <trkpt lat="39.844488" lon="-8.750635">
        <ele>150.8</ele>
        <time>1970-01-01T01:19:24.000Z</time>
      </trkpt>
      <trkpt lat="39.844518" lon="-8.750673">
        <ele>150.8</ele>
        <time>1970-01-01T01:19:25.000Z</time>
      </trkpt>
      <trkpt lat="39.844545" lon="-8.750712">
        <ele>150.9</ele>
        <time>1970-01-01T01:19:26.000Z</time>
      </trkpt>
      <trkpt lat="39.844569" lon="-8.750747">
        <ele>150.9</ele>
        <time>1970-01-01T01:19:27.000Z</time>
      </trkpt>
      <trkpt lat="39.844587" lon="-8.75078">
        <ele>151</ele>
        <time>1970-01-01T01:19:28.000Z</time>
      </trkpt>
      <trkpt lat="39.8446" lon="-8.750807">
        <ele>151</ele>
        <time>1970-01-01T01:19:29.000Z</time>
      </trkpt>
      <trkpt lat="39.844611" lon="-8.75083">
        <ele>151</ele>
        <time>1970-01-01T01:19:30.000Z</time>
      </trkpt>
      <trkpt lat="39.844622" lon="-8.750852">
        <ele>151.1</ele>
        <time>1970-01-01T01:19:31.000Z</time>
      </trkpt>
      <trkpt lat="39.844634" lon="-8.750873">
        <ele>151.1</ele>
        <time>1970-01-01T01:19:32.000Z</time>
      </trkpt>
      <trkpt lat="39.844647" lon="-8.750896">
        <ele>151.1</ele>
        <time>1970-01-01T01:19:33.000Z</time>
      </trkpt>
      <trkpt lat="39.844662" lon="-8.750918">
        <ele>151.1</ele>
        <time>1970-01-01T01:19:34.000Z</time>
      </trkpt>
      <trkpt lat="39.844676" lon="-8.750935">
        <ele>151.1</ele>
        <time>1970-01-01T01:19:35.000Z</time>
      </trkpt>
      <trkpt lat="39.844688" lon="-8.750951">
        <ele>151.1</ele>
        <time>1970-01-01T01:19:36.000Z</time>
      </trkpt>
      <trkpt lat="39.844701" lon="-8.750975">
        <ele>151.1</ele>
        <time>1970-01-01T01:19:37.000Z</time>
      </trkpt>
      <trkpt lat="39.844705" lon="-8.750991">
        <ele>151.1</ele>
        <time>1970-01-01T01:19:39.000Z</time>
      </trkpt>
      <trkpt lat="39.844706" lon="-8.750996">
        <ele>151.1</ele>
        <time>1970-01-01T01:19:39.000Z</time>
      </trkpt>
      <trkpt lat="39.844696" lon="-8.75102">
        <ele>151.1</ele>
        <time>1970-01-01T01:19:40.000Z</time>
      </trkpt>
      <trkpt lat="39.844679" lon="-8.751033">
        <ele>151.1</ele>
        <time>1970-01-01T01:19:41.000Z</time>
      </trkpt>
      <trkpt lat="39.844672" lon="-8.75104">
        <ele>151.1</ele>
        <time>1970-01-01T01:19:42.000Z</time>
      </trkpt>
      <trkpt lat="39.844664" lon="-8.751046">
        <ele>151.1</ele>
        <time>1970-01-01T01:19:43.000Z</time>
      </trkpt>
      <trkpt lat="39.844656" lon="-8.751053">
        <ele>151.1</ele>
        <time>1970-01-01T01:19:44.000Z</time>
      </trkpt>
      <trkpt lat="39.844648" lon="-8.751059">
        <ele>151.1</ele>
        <time>1970-01-01T01:19:45.000Z</time>
      </trkpt>
      <trkpt lat="39.844641" lon="-8.751065">
        <ele>151.1</ele>
        <time>1970-01-01T01:19:46.000Z</time>
      </trkpt>
      <trkpt lat="39.844633" lon="-8.751072">
        <ele>151.1</ele>
        <time>1970-01-01T01:19:48.000Z</time>
      </trkpt>
      <trkpt lat="39.844625" lon="-8.751078">
        <ele>151.1</ele>
        <time>1970-01-01T01:19:48.000Z</time>
      </trkpt>
      <trkpt lat="39.844618" lon="-8.751088">
        <ele>151.2</ele>
        <time>1970-01-01T01:19:49.000Z</time>
      </trkpt>
      <trkpt lat="39.844616" lon="-8.751089">
        <ele>151.2</ele>
        <time>1970-01-01T01:19:50.000Z</time>
      </trkpt>
      <trkpt lat="39.844614" lon="-8.751091">
        <ele>151.2</ele>
        <time>1970-01-01T01:19:51.000Z</time>
      </trkpt>
      <trkpt lat="39.844613" lon="-8.751092">
        <ele>151.2</ele>
        <time>1970-01-01T01:19:52.000Z</time>
      </trkpt>
      <trkpt lat="39.844611" lon="-8.751094">
        <ele>151.2</ele>
        <time>1970-01-01T01:19:53.000Z</time>
      </trkpt>
      <trkpt lat="39.844609" lon="-8.751095">
        <ele>151.2</ele>
        <time>1970-01-01T01:19:55.000Z</time>
      </trkpt>
      <trkpt lat="39.844607" lon="-8.751097">
        <ele>151.2</ele>
        <time>1970-01-01T01:19:55.000Z</time>
      </trkpt>
      <trkpt lat="39.844612" lon="-8.751088">
        <ele>151.2</ele>
        <time>1970-01-01T01:19:56.000Z</time>
      </trkpt>
      <trkpt lat="39.844614" lon="-8.751085">
        <ele>151.2</ele>
        <time>1970-01-01T01:19:57.000Z</time>
      </trkpt>
      <trkpt lat="39.844616" lon="-8.751082">
        <ele>151.2</ele>
        <time>1970-01-01T01:19:58.000Z</time>
      </trkpt>
      <trkpt lat="39.844618" lon="-8.751079">
        <ele>151.2</ele>
        <time>1970-01-01T01:19:59.000Z</time>
      </trkpt>
      <trkpt lat="39.84462" lon="-8.751075">
        <ele>151.2</ele>
        <time>1970-01-01T01:20:00.000Z</time>
      </trkpt>
      <trkpt lat="39.844622" lon="-8.751072">
        <ele>151.2</ele>
        <time>1970-01-01T01:20:02.000Z</time>
      </trkpt>
      <trkpt lat="39.844624" lon="-8.751069">
        <ele>151.2</ele>
        <time>1970-01-01T01:20:03.000Z</time>
      </trkpt>
      <trkpt lat="39.844626" lon="-8.751066">
        <ele>151.2</ele>
        <time>1970-01-01T01:20:05.000Z</time>
      </trkpt>
      <trkpt lat="39.844628" lon="-8.751063">
        <ele>151.2</ele>
        <time>1970-01-01T01:20:05.000Z</time>
      </trkpt>
      <trkpt lat="39.844623" lon="-8.75106">
        <ele>151.2</ele>
        <time>1970-01-01T01:20:06.000Z</time>
      </trkpt>
      <trkpt lat="39.844621" lon="-8.751059">
        <ele>151.2</ele>
        <time>1970-01-01T01:20:07.000Z</time>
      </trkpt>
      <trkpt lat="39.844619" lon="-8.751059">
        <ele>151.2</ele>
        <time>1970-01-01T01:20:08.000Z</time>
      </trkpt>
      <trkpt lat="39.844616" lon="-8.751059">
        <ele>151.2</ele>
        <time>1970-01-01T01:20:09.000Z</time>
      </trkpt>
      <trkpt lat="39.844614" lon="-8.751059">
        <ele>151.2</ele>
        <time>1970-01-01T01:20:10.000Z</time>
      </trkpt>
      <trkpt lat="39.844612" lon="-8.751058">
        <ele>151.2</ele>
        <time>1970-01-01T01:20:12.000Z</time>
      </trkpt>
      <trkpt lat="39.84461" lon="-8.751058">
        <ele>151.2</ele>
        <time>1970-01-01T01:20:12.000Z</time>
      </trkpt>
      <trkpt lat="39.844604" lon="-8.75106">
        <ele>151.2</ele>
        <time>1970-01-01T01:20:14.000Z</time>
      </trkpt>
      <trkpt lat="39.844603" lon="-8.75106">
        <ele>151.2</ele>
        <time>1970-01-01T01:20:14.000Z</time>
      </trkpt>
      <trkpt lat="39.844593" lon="-8.75107">
        <ele>151.2</ele>
        <time>1970-01-01T01:20:15.000Z</time>
      </trkpt>
      <trkpt lat="39.84459" lon="-8.751074">
        <ele>151.2</ele>
        <time>1970-01-01T01:20:16.000Z</time>
      </trkpt>
      <trkpt lat="39.844587" lon="-8.751079">
        <ele>151.2</ele>
        <time>1970-01-01T01:20:17.000Z</time>
      </trkpt>
      <trkpt lat="39.844584" lon="-8.751083">
        <ele>151.2</ele>
        <time>1970-01-01T01:20:18.000Z</time>
      </trkpt>
      <trkpt lat="39.844581" lon="-8.751087">
        <ele>151.2</ele>
        <time>1970-01-01T01:20:20.000Z</time>
      </trkpt>
      <trkpt lat="39.844578" lon="-8.751091">
        <ele>151.2</ele>
        <time>1970-01-01T01:20:20.000Z</time>
      </trkpt>
      <trkpt lat="39.844578" lon="-8.751096">
        <ele>151.2</ele>
        <time>1970-01-01T01:20:21.000Z</time>
      </trkpt>
      <trkpt lat="39.844585" lon="-8.751102">
        <ele>151.2</ele>
        <time>1970-01-01T01:20:22.000Z</time>
      </trkpt>
      <trkpt lat="39.844594" lon="-8.75111">
        <ele>151.2</ele>
        <time>1970-01-01T01:20:23.000Z</time>
      </trkpt>
      <trkpt lat="39.8446" lon="-8.751115">
        <ele>151.2</ele>
        <time>1970-01-01T01:20:24.000Z</time>
      </trkpt>
      <trkpt lat="39.844615" lon="-8.751115">
        <ele>151.2</ele>
        <time>1970-01-01T01:20:40.000Z</time>
      </trkpt>
      <trkpt lat="39.844609" lon="-8.751115">
        <ele>151.2</ele>
        <time>1970-01-01T01:20:54.000Z</time>
      </trkpt>
      <trkpt lat="39.844604" lon="-8.751114">
        <ele>151.2</ele>
        <time>1970-01-01T01:20:57.000Z</time>
      </trkpt>
      <trkpt lat="39.844603" lon="-8.751113">
        <ele>151.2</ele>
        <time>1970-01-01T01:20:58.000Z</time>
      </trkpt>
      <trkpt lat="39.844601" lon="-8.751111">
        <ele>151.2</ele>
        <time>1970-01-01T01:20:59.000Z</time>
      </trkpt>
      <trkpt lat="39.844602" lon="-8.751111">
        <ele>151.2</ele>
        <time>1970-01-01T01:21:00.000Z</time>
      </trkpt>
      <trkpt lat="39.844602" lon="-8.751113">
        <ele>151.2</ele>
        <time>1970-01-01T01:21:01.000Z</time>
      </trkpt>
      <trkpt lat="39.844601" lon="-8.751115">
        <ele>151.2</ele>
        <time>1970-01-01T01:21:03.000Z</time>
      </trkpt>
      <trkpt lat="39.844602" lon="-8.75112">
        <ele>151.2</ele>
        <time>1970-01-01T01:21:04.000Z</time>
      </trkpt>
      <trkpt lat="39.844602" lon="-8.751121">
        <ele>151.2</ele>
        <time>1970-01-01T01:21:05.000Z</time>
      </trkpt>
      <trkpt lat="39.844603" lon="-8.751121">
        <ele>151.2</ele>
        <time>1970-01-01T01:21:06.000Z</time>
      </trkpt>
      <trkpt lat="39.844602" lon="-8.75112">
        <ele>151.2</ele>
        <time>1970-01-01T01:21:07.000Z</time>
      </trkpt>
      <trkpt lat="39.844623" lon="-8.75109">
        <ele>151.2</ele>
        <time>1970-01-01T00:00:00.000Z</time>
      </trkpt>
      <trkpt lat="39.844622" lon="-8.751091">
        <ele>151.2</ele>
        <time>1970-01-01T00:00:01.000Z</time>
      </trkpt>
      <trkpt lat="39.844621" lon="-8.751093">
        <ele>151.2</ele>
        <time>1970-01-01T00:00:02.000Z</time>
      </trkpt>
      <trkpt lat="39.84462" lon="-8.751097">
        <ele>151.2</ele>
        <time>1970-01-01T00:00:03.000Z</time>
      </trkpt>
      <trkpt lat="39.84462" lon="-8.751099">
        <ele>151.2</ele>
        <time>1970-01-01T00:00:04.000Z</time>
      </trkpt>
      <trkpt lat="39.844625" lon="-8.751098">
        <ele>151.2</ele>
        <time>1970-01-01T00:00:05.000Z</time>
      </trkpt>
      <trkpt lat="39.84463" lon="-8.751096">
        <ele>151.2</ele>
        <time>1970-01-01T00:00:06.000Z</time>
      </trkpt>
      <trkpt lat="39.844635" lon="-8.751092">
        <ele>151.2</ele>
        <time>1970-01-01T00:00:07.000Z</time>
      </trkpt>
      <trkpt lat="39.844644" lon="-8.751089">
        <ele>151.2</ele>
        <time>1970-01-01T00:00:08.000Z</time>
      </trkpt>
      <trkpt lat="39.844652" lon="-8.751087">
        <ele>151.2</ele>
        <time>1970-01-01T00:00:09.000Z</time>
      </trkpt>
      <trkpt lat="39.844666" lon="-8.751085">
        <ele>151.2</ele>
        <time>1970-01-01T00:00:10.000Z</time>
      </trkpt>
      <trkpt lat="39.84469" lon="-8.751068">
        <ele>151.2</ele>
        <time>1970-01-01T00:00:11.000Z</time>
      </trkpt>
      <trkpt lat="39.844691" lon="-8.751066">
        <ele>151.2</ele>
        <time>1970-01-01T00:00:12.000Z</time>
      </trkpt>
      <trkpt lat="39.844689" lon="-8.75106">
        <ele>151.2</ele>
        <time>1970-01-01T00:00:13.000Z</time>
      </trkpt>
      <trkpt lat="39.844686" lon="-8.751048">
        <ele>151.1</ele>
        <time>1970-01-01T00:00:14.000Z</time>
      </trkpt>
      <trkpt lat="39.844681" lon="-8.751031">
        <ele>151.1</ele>
        <time>1970-01-01T00:00:15.000Z</time>
      </trkpt>
      <trkpt lat="39.844676" lon="-8.751009">
        <ele>151.1</ele>
        <time>1970-01-01T00:00:16.000Z</time>
      </trkpt>
      <trkpt lat="39.844671" lon="-8.750987">
        <ele>151.1</ele>
        <time>1970-01-01T00:00:18.000Z</time>
      </trkpt>
      <trkpt lat="39.844654" lon="-8.75096">
        <ele>151.1</ele>
        <time>1970-01-01T00:00:19.000Z</time>
      </trkpt>
      <trkpt lat="39.844637" lon="-8.750934">
        <ele>151.1</ele>
        <time>1970-01-01T00:00:20.000Z</time>
      </trkpt>
      <trkpt lat="39.84462" lon="-8.750908">
        <ele>151.1</ele>
        <time>1970-01-01T00:00:21.000Z</time>
      </trkpt>
      <trkpt lat="39.844603" lon="-8.750884">
        <ele>151.1</ele>
        <time>1970-01-01T00:00:22.000Z</time>
      </trkpt>
      <trkpt lat="39.844584" lon="-8.750862">
        <ele>151</ele>
        <time>1970-01-01T00:00:23.000Z</time>
      </trkpt>
      <trkpt lat="39.844565" lon="-8.75084">
        <ele>151</ele>
        <time>1970-01-01T00:00:24.000Z</time>
      </trkpt>
      <trkpt lat="39.844546" lon="-8.750815">
        <ele>151</ele>
        <time>1970-01-01T00:00:25.000Z</time>
      </trkpt>
      <trkpt lat="39.844528" lon="-8.750788">
        <ele>150.9</ele>
        <time>1970-01-01T00:00:26.000Z</time>
      </trkpt>
      <trkpt lat="39.84451" lon="-8.750762">
        <ele>150.9</ele>
        <time>1970-01-01T00:00:27.000Z</time>
      </trkpt>
      <trkpt lat="39.844492" lon="-8.750734">
        <ele>150.8</ele>
        <time>1970-01-01T00:00:28.000Z</time>
      </trkpt>
      <trkpt lat="39.844473" lon="-8.750707">
        <ele>150.8</ele>
        <time>1970-01-01T00:00:29.000Z</time>
      </trkpt>
      <trkpt lat="39.844453" lon="-8.750684">
        <ele>150.8</ele>
        <time>1970-01-01T00:00:30.000Z</time>
      </trkpt>
      <trkpt lat="39.844433" lon="-8.750663">
        <ele>150.7</ele>
        <time>1970-01-01T00:00:31.000Z</time>
      </trkpt>
      <trkpt lat="39.84441" lon="-8.750645">
        <ele>150.7</ele>
        <time>1970-01-01T00:00:32.000Z</time>
      </trkpt>
      <trkpt lat="39.844388" lon="-8.750629">
        <ele>150.7</ele>
        <time>1970-01-01T00:00:33.000Z</time>
      </trkpt>
      <trkpt lat="39.844367" lon="-8.750613">
        <ele>150.6</ele>
        <time>1970-01-01T00:00:34.000Z</time>
      </trkpt>
      <trkpt lat="39.844346" lon="-8.750597">
        <ele>150.6</ele>
        <time>1970-01-01T00:00:35.000Z</time>
      </trkpt>
      <trkpt lat="39.844324" lon="-8.75058">
        <ele>150.5</ele>
        <time>1970-01-01T00:00:36.000Z</time>
      </trkpt>
      <trkpt lat="39.844299" lon="-8.750565">
        <ele>150.5</ele>
        <time>1970-01-01T00:00:37.000Z</time>
      </trkpt>
      <trkpt lat="39.844275" lon="-8.750546">
        <ele>150.4</ele>
        <time>1970-01-01T00:00:38.000Z</time>
      </trkpt>
      <trkpt lat="39.844255" lon="-8.750521">
        <ele>150.4</ele>
        <time>1970-01-01T00:00:39.000Z</time>
      </trkpt>
      <trkpt lat="39.844243" lon="-8.750488">
        <ele>150.3</ele>
        <time>1970-01-01T00:00:40.000Z</time>
      </trkpt>
      <trkpt lat="39.844237" lon="-8.75045">
        <ele>150.3</ele>
        <time>1970-01-01T00:00:41.000Z</time>
      </trkpt>
      <trkpt lat="39.844233" lon="-8.750409">
        <ele>150.3</ele>
        <time>1970-01-01T00:00:42.000Z</time>
      </trkpt>
      <trkpt lat="39.84423" lon="-8.750365">
        <ele>150.2</ele>
        <time>1970-01-01T00:00:43.000Z</time>
      </trkpt>
      <trkpt lat="39.844228" lon="-8.750319">
        <ele>150.2</ele>
        <time>1970-01-01T00:00:44.000Z</time>
      </trkpt>
      <trkpt lat="39.844225" lon="-8.750269">
        <ele>150.1</ele>
        <time>1970-01-01T00:00:45.000Z</time>
      </trkpt>
      <trkpt lat="39.844223" lon="-8.750219">
        <ele>150.1</ele>
        <time>1970-01-01T00:00:46.000Z</time>
      </trkpt>
      <trkpt lat="39.844221" lon="-8.750169">
        <ele>150</ele>
        <time>1970-01-01T00:00:47.000Z</time>
      </trkpt>
      <trkpt lat="39.844217" lon="-8.750119">
        <ele>149.9</ele>
        <time>1970-01-01T00:00:48.000Z</time>
      </trkpt>
      <trkpt lat="39.844211" lon="-8.75007">
        <ele>149.9</ele>
        <time>1970-01-01T00:00:49.000Z</time>
      </trkpt>
      <trkpt lat="39.844205" lon="-8.750022">
        <ele>149.8</ele>
        <time>1970-01-01T00:00:50.000Z</time>
      </trkpt>
      <trkpt lat="39.844196" lon="-8.749977">
        <ele>149.7</ele>
        <time>1970-01-01T00:00:51.000Z</time>
      </trkpt>
      <trkpt lat="39.84416" lon="-8.749817">
        <ele>149.1</ele>
        <time>1970-01-01T00:00:53.000Z</time>
      </trkpt>
      <trkpt lat="39.844166" lon="-8.749802">
        <ele>149</ele>
        <time>1970-01-01T00:00:54.000Z</time>
      </trkpt>
      <trkpt lat="39.844171" lon="-8.749798">
        <ele>149</ele>
        <time>1970-01-01T00:00:55.000Z</time>
      </trkpt>
      <trkpt lat="39.844175" lon="-8.749793">
        <ele>148.9</ele>
        <time>1970-01-01T00:00:56.000Z</time>
      </trkpt>
      <trkpt lat="39.84418" lon="-8.749789">
        <ele>148.9</ele>
        <time>1970-01-01T00:00:57.000Z</time>
      </trkpt>
      <trkpt lat="39.844185" lon="-8.749784">
        <ele>148.9</ele>
        <time>1970-01-01T00:00:58.000Z</time>
      </trkpt>
      <trkpt lat="39.84419" lon="-8.74978">
        <ele>148.8</ele>
        <time>1970-01-01T00:00:59.000Z</time>
      </trkpt>
      <trkpt lat="39.844195" lon="-8.749775">
        <ele>148.8</ele>
        <time>1970-01-01T00:01:00.000Z</time>
      </trkpt>
      <trkpt lat="39.8442" lon="-8.749771">
        <ele>148.7</ele>
        <time>1970-01-01T00:01:01.000Z</time>
      </trkpt>
      <trkpt lat="39.844204" lon="-8.749766">
        <ele>148.7</ele>
        <time>1970-01-01T00:01:02.000Z</time>
      </trkpt>
      <trkpt lat="39.844209" lon="-8.749762">
        <ele>148.7</ele>
        <time>1970-01-01T00:01:03.000Z</time>
      </trkpt>
      <trkpt lat="39.844214" lon="-8.749757">
        <ele>148.6</ele>
        <time>1970-01-01T00:01:04.000Z</time>
      </trkpt>
      <trkpt lat="39.844219" lon="-8.749752">
        <ele>148.6</ele>
        <time>1970-01-01T00:01:05.000Z</time>
      </trkpt>
      <trkpt lat="39.844224" lon="-8.749748">
        <ele>148.5</ele>
        <time>1970-01-01T00:01:06.000Z</time>
      </trkpt>
      <trkpt lat="39.844229" lon="-8.749743">
        <ele>148.5</ele>
        <time>1970-01-01T00:01:09.000Z</time>
      </trkpt>
      <trkpt lat="39.844233" lon="-8.749739">
        <ele>148.4</ele>
        <time>1970-01-01T00:01:10.000Z</time>
      </trkpt>
      <trkpt lat="39.844238" lon="-8.749734">
        <ele>148.4</ele>
        <time>1970-01-01T00:01:11.000Z</time>
      </trkpt>
      <trkpt lat="39.844243" lon="-8.74973">
        <ele>148.4</ele>
        <time>1970-01-01T00:01:12.000Z</time>
      </trkpt>
      <trkpt lat="39.844248" lon="-8.749725">
        <ele>148.3</ele>
        <time>1970-01-01T00:01:13.000Z</time>
      </trkpt>
      <trkpt lat="39.844253" lon="-8.749721">
        <ele>148.3</ele>
        <time>1970-01-01T00:01:14.000Z</time>
      </trkpt>
      <trkpt lat="39.844258" lon="-8.749716">
        <ele>148.2</ele>
        <time>1970-01-01T00:01:15.000Z</time>
      </trkpt>
      <trkpt lat="39.844262" lon="-8.749711">
        <ele>148.2</ele>
        <time>1970-01-01T00:01:17.000Z</time>
      </trkpt>
      <trkpt lat="39.844267" lon="-8.749707">
        <ele>148.2</ele>
        <time>1970-01-01T00:01:18.000Z</time>
      </trkpt>
      <trkpt lat="39.844272" lon="-8.749702">
        <ele>148.1</ele>
        <time>1970-01-01T00:01:19.000Z</time>
      </trkpt>
      <trkpt lat="39.844277" lon="-8.749698">
        <ele>148.1</ele>
        <time>1970-01-01T00:01:21.000Z</time>
      </trkpt>
      <trkpt lat="39.844282" lon="-8.749693">
        <ele>148</ele>
        <time>1970-01-01T00:01:22.000Z</time>
      </trkpt>
      <trkpt lat="39.844286" lon="-8.749689">
        <ele>148</ele>
        <time>1970-01-01T00:01:23.000Z</time>
      </trkpt>
      <trkpt lat="39.844291" lon="-8.749684">
        <ele>148</ele>
        <time>1970-01-01T00:01:27.000Z</time>
      </trkpt>
      <trkpt lat="39.844296" lon="-8.74968">
        <ele>147.9</ele>
        <time>1970-01-01T00:01:28.000Z</time>
      </trkpt>
      <trkpt lat="39.844301" lon="-8.749675">
        <ele>147.9</ele>
        <time>1970-01-01T00:01:29.000Z</time>
      </trkpt>
      <trkpt lat="39.844306" lon="-8.749671">
        <ele>147.8</ele>
        <time>1970-01-01T00:01:30.000Z</time>
      </trkpt>
      <trkpt lat="39.844311" lon="-8.749666">
        <ele>147.8</ele>
        <time>1970-01-01T00:01:51.000Z</time>
      </trkpt>
      <trkpt lat="39.844315" lon="-8.749661">
        <ele>147.8</ele>
        <time>1970-01-01T00:01:53.000Z</time>
      </trkpt>
      <trkpt lat="39.84432" lon="-8.749657">
        <ele>147.8</ele>
        <time>1970-01-01T00:01:55.000Z</time>
      </trkpt>
      <trkpt lat="39.844325" lon="-8.749652">
        <ele>147.7</ele>
        <time>1970-01-01T00:01:59.000Z</time>
      </trkpt>
      <trkpt lat="39.84433" lon="-8.749648">
        <ele>147.7</ele>
        <time>1970-01-01T00:02:01.000Z</time>
      </trkpt>
      <trkpt lat="39.844335" lon="-8.749643">
        <ele>147.6</ele>
        <time>1970-01-01T00:02:03.000Z</time>
      </trkpt>
      <trkpt lat="39.84434" lon="-8.749639">
        <ele>147.6</ele>
        <time>1970-01-01T00:02:39.000Z</time>
      </trkpt>
      <trkpt lat="39.844344" lon="-8.749634">
        <ele>147.6</ele>
        <time>1970-01-01T00:02:40.000Z</time>
      </trkpt>
      <trkpt lat="39.844349" lon="-8.74963">
        <ele>147.6</ele>
        <time>1970-01-01T00:02:41.000Z</time>
      </trkpt>
      <trkpt lat="39.844354" lon="-8.749625">
        <ele>147.5</ele>
        <time>1970-01-01T00:02:42.000Z</time>
      </trkpt>
      <trkpt lat="39.844361" lon="-8.749621">
        <ele>147.5</ele>
        <time>1970-01-01T00:02:43.000Z</time>
      </trkpt>
      <trkpt lat="39.844376" lon="-8.749612">
        <ele>147.4</ele>
        <time>1970-01-01T00:02:44.000Z</time>
      </trkpt>
      <trkpt lat="39.844398" lon="-8.749598">
        <ele>147.3</ele>
        <time>1970-01-01T00:02:45.000Z</time>
      </trkpt>
      <trkpt lat="39.844425" lon="-8.749582">
        <ele>147.2</ele>
        <time>1970-01-01T00:02:46.000Z</time>
      </trkpt>
      <trkpt lat="39.844453" lon="-8.749568">
        <ele>147.1</ele>
        <time>1970-01-01T00:02:47.000Z</time>
      </trkpt>
      <trkpt lat="39.844482" lon="-8.749557">
        <ele>147.1</ele>
        <time>1970-01-01T00:02:48.000Z</time>
      </trkpt>
      <trkpt lat="39.844513" lon="-8.749549">
        <ele>147</ele>
        <time>1970-01-01T00:02:49.000Z</time>
      </trkpt>
      <trkpt lat="39.844544" lon="-8.749544">
        <ele>146.9</ele>
        <time>1970-01-01T00:02:50.000Z</time>
      </trkpt>
      <trkpt lat="39.844574" lon="-8.74954">
        <ele>146.8</ele>
        <time>1970-01-01T00:02:51.000Z</time>
      </trkpt>
      <trkpt lat="39.844605" lon="-8.749535">
        <ele>146.7</ele>
        <time>1970-01-01T00:02:52.000Z</time>
      </trkpt>
      <trkpt lat="39.844636" lon="-8.749532">
        <ele>146.6</ele>
        <time>1970-01-01T00:02:53.000Z</time>
      </trkpt>
      <trkpt lat="39.844667" lon="-8.749527">
        <ele>146.5</ele>
        <time>1970-01-01T00:02:54.000Z</time>
      </trkpt>
      <trkpt lat="39.844698" lon="-8.749521">
        <ele>146.4</ele>
        <time>1970-01-01T00:02:55.000Z</time>
      </trkpt>
      <trkpt lat="39.844729" lon="-8.749513">
        <ele>146.3</ele>
        <time>1970-01-01T00:02:56.000Z</time>
      </trkpt>
      <trkpt lat="39.844759" lon="-8.749506">
        <ele>146.3</ele>
        <time>1970-01-01T00:02:57.000Z</time>
      </trkpt>
      <trkpt lat="39.84479" lon="-8.749498">
        <ele>146.3</ele>
        <time>1970-01-01T00:02:58.000Z</time>
      </trkpt>
      <trkpt lat="39.844823" lon="-8.74949">
        <ele>146.3</ele>
        <time>1970-01-01T00:02:59.000Z</time>
      </trkpt>
      <trkpt lat="39.844856" lon="-8.749481">
        <ele>146.4</ele>
        <time>1970-01-01T00:03:00.000Z</time>
      </trkpt>
      <trkpt lat="39.844894" lon="-8.749471">
        <ele>146.3</ele>
        <time>1970-01-01T00:03:01.000Z</time>
      </trkpt>
      <trkpt lat="39.844934" lon="-8.749459">
        <ele>146.2</ele>
        <time>1970-01-01T00:03:02.000Z</time>
      </trkpt>
      <trkpt lat="39.844978" lon="-8.749446">
        <ele>146</ele>
        <time>1970-01-01T00:03:03.000Z</time>
      </trkpt>
      <trkpt lat="39.845022" lon="-8.74943">
        <ele>145.8</ele>
        <time>1970-01-01T00:03:04.000Z</time>
      </trkpt>
      <trkpt lat="39.845068" lon="-8.749414">
        <ele>145.5</ele>
        <time>1970-01-01T00:03:05.000Z</time>
      </trkpt>
      <trkpt lat="39.845115" lon="-8.749397">
        <ele>145.3</ele>
        <time>1970-01-01T00:03:06.000Z</time>
      </trkpt>
      <trkpt lat="39.845162" lon="-8.749383">
        <ele>144.6</ele>
        <time>1970-01-01T00:03:07.000Z</time>
      </trkpt>
      <trkpt lat="39.845208" lon="-8.749373">
        <ele>144</ele>
        <time>1970-01-01T00:03:08.000Z</time>
      </trkpt>
      <trkpt lat="39.845252" lon="-8.749365">
        <ele>143.4</ele>
        <time>1970-01-01T00:03:09.000Z</time>
      </trkpt>
      <trkpt lat="39.845296" lon="-8.749358">
        <ele>143</ele>
        <time>1970-01-01T00:03:10.000Z</time>
      </trkpt>
      <trkpt lat="39.845339" lon="-8.749356">
        <ele>142.5</ele>
        <time>1970-01-01T00:03:11.000Z</time>
      </trkpt>
      <trkpt lat="39.845379" lon="-8.74936">
        <ele>142.1</ele>
        <time>1970-01-01T00:03:12.000Z</time>
      </trkpt>
      <trkpt lat="39.845416" lon="-8.749369">
        <ele>141.8</ele>
        <time>1970-01-01T00:03:13.000Z</time>
      </trkpt>
      <trkpt lat="39.845453" lon="-8.74938">
        <ele>141.5</ele>
        <time>1970-01-01T00:03:14.000Z</time>
      </trkpt>
      <trkpt lat="39.845492" lon="-8.749392">
        <ele>141.2</ele>
        <time>1970-01-01T00:03:15.000Z</time>
      </trkpt>
      <trkpt lat="39.845533" lon="-8.749406">
        <ele>140.8</ele>
        <time>1970-01-01T00:03:16.000Z</time>
      </trkpt>
      <trkpt lat="39.845576" lon="-8.74942">
        <ele>140.5</ele>
        <time>1970-01-01T00:03:17.000Z</time>
      </trkpt>
      <trkpt lat="39.84562" lon="-8.749432">
        <ele>140.1</ele>
        <time>1970-01-01T00:03:18.000Z</time>
      </trkpt>
      <trkpt lat="39.845664" lon="-8.749445">
        <ele>139.8</ele>
        <time>1970-01-01T00:03:19.000Z</time>
      </trkpt>
      <trkpt lat="39.845709" lon="-8.749458">
        <ele>139.4</ele>
        <time>1970-01-01T00:03:20.000Z</time>
      </trkpt>
      <trkpt lat="39.845753" lon="-8.749469">
        <ele>139</ele>
        <time>1970-01-01T00:03:21.000Z</time>
      </trkpt>
      <trkpt lat="39.845798" lon="-8.74948">
        <ele>138.7</ele>
        <time>1970-01-01T00:03:22.000Z</time>
      </trkpt>
      <trkpt lat="39.845844" lon="-8.74949">
        <ele>138.3</ele>
        <time>1970-01-01T00:03:23.000Z</time>
      </trkpt>
      <trkpt lat="39.84589" lon="-8.7495">
        <ele>137.9</ele>
        <time>1970-01-01T00:03:24.000Z</time>
      </trkpt>
      <trkpt lat="39.845935" lon="-8.749511">
        <ele>137.5</ele>
        <time>1970-01-01T00:03:25.000Z</time>
      </trkpt>
      <trkpt lat="39.84598" lon="-8.749519">
        <ele>137</ele>
        <time>1970-01-01T00:03:26.000Z</time>
      </trkpt>
      <trkpt lat="39.846023" lon="-8.749528">
        <ele>136.5</ele>
        <time>1970-01-01T00:03:27.000Z</time>
      </trkpt>
      <trkpt lat="39.846062" lon="-8.749536">
        <ele>136.1</ele>
        <time>1970-01-01T00:03:28.000Z</time>
      </trkpt>
      <trkpt lat="39.846094" lon="-8.749544">
        <ele>135.7</ele>
        <time>1970-01-01T00:03:29.000Z</time>
      </trkpt>
      <trkpt lat="39.846121" lon="-8.74955">
        <ele>135.4</ele>
        <time>1970-01-01T00:03:30.000Z</time>
      </trkpt>
      <trkpt lat="39.846143" lon="-8.749554">
        <ele>135.1</ele>
        <time>1970-01-01T00:03:31.000Z</time>
      </trkpt>
      <trkpt lat="39.84616" lon="-8.749555">
        <ele>135</ele>
        <time>1970-01-01T00:03:32.000Z</time>
      </trkpt>
      <trkpt lat="39.846174" lon="-8.749551">
        <ele>134.8</ele>
        <time>1970-01-01T00:03:33.000Z</time>
      </trkpt>
      <trkpt lat="39.846235" lon="-8.749501">
        <ele>134.1</ele>
        <time>1970-01-01T00:03:35.000Z</time>
      </trkpt>
      <trkpt lat="39.846257" lon="-8.749467">
        <ele>133.5</ele>
        <time>1970-01-01T00:03:36.000Z</time>
      </trkpt>
      <trkpt lat="39.846275" lon="-8.74944">
        <ele>133.4</ele>
        <time>1970-01-01T00:03:37.000Z</time>
      </trkpt>
      <trkpt lat="39.846292" lon="-8.749412">
        <ele>133.4</ele>
        <time>1970-01-01T00:03:38.000Z</time>
      </trkpt>
      <trkpt lat="39.846298" lon="-8.749402">
        <ele>133.4</ele>
        <time>1970-01-01T00:03:39.000Z</time>
      </trkpt>
      <trkpt lat="39.846309" lon="-8.749381">
        <ele>133.4</ele>
        <time>1970-01-01T00:03:40.000Z</time>
      </trkpt>
      <trkpt lat="39.846324" lon="-8.749353">
        <ele>133.4</ele>
        <time>1970-01-01T00:03:41.000Z</time>
      </trkpt>
      <trkpt lat="39.846345" lon="-8.749319">
        <ele>133.4</ele>
        <time>1970-01-01T00:03:42.000Z</time>
      </trkpt>
      <trkpt lat="39.846369" lon="-8.749282">
        <ele>133.4</ele>
        <time>1970-01-01T00:03:43.000Z</time>
      </trkpt>
      <trkpt lat="39.84639" lon="-8.749246">
        <ele>133.4</ele>
        <time>1970-01-01T00:03:44.000Z</time>
      </trkpt>
      <trkpt lat="39.846412" lon="-8.749206">
        <ele>133.5</ele>
        <time>1970-01-01T00:03:45.000Z</time>
      </trkpt>
      <trkpt lat="39.846435" lon="-8.749168">
        <ele>133.5</ele>
        <time>1970-01-01T00:03:46.000Z</time>
      </trkpt>
      <trkpt lat="39.846458" lon="-8.749132">
        <ele>133.5</ele>
        <time>1970-01-01T00:03:47.000Z</time>
      </trkpt>
      <trkpt lat="39.84648" lon="-8.749098">
        <ele>133.6</ele>
        <time>1970-01-01T00:03:48.000Z</time>
      </trkpt>
      <trkpt lat="39.8465" lon="-8.749066">
        <ele>133.6</ele>
        <time>1970-01-01T00:03:49.000Z</time>
      </trkpt>
      <trkpt lat="39.846522" lon="-8.749034">
        <ele>133.7</ele>
        <time>1970-01-01T00:03:50.000Z</time>
      </trkpt>
      <trkpt lat="39.846545" lon="-8.749001">
        <ele>133.7</ele>
        <time>1970-01-01T00:03:51.000Z</time>
      </trkpt>
      <trkpt lat="39.846571" lon="-8.748965">
        <ele>133.8</ele>
        <time>1970-01-01T00:03:52.000Z</time>
      </trkpt>
      <trkpt lat="39.846598" lon="-8.748929">
        <ele>133.9</ele>
        <time>1970-01-01T00:03:53.000Z</time>
      </trkpt>
      <trkpt lat="39.846625" lon="-8.748895">
        <ele>134.1</ele>
        <time>1970-01-01T00:03:54.000Z</time>
      </trkpt>
      <trkpt lat="39.84671" lon="-8.748759">
        <ele>134.7</ele>
        <time>1970-01-01T00:03:56.000Z</time>
      </trkpt>
      <trkpt lat="39.846711" lon="-8.748753">
        <ele>134.7</ele>
        <time>1970-01-01T00:03:57.000Z</time>
      </trkpt>
      <trkpt lat="39.846713" lon="-8.748741">
        <ele>134.7</ele>
        <time>1970-01-01T00:03:58.000Z</time>
      </trkpt>
      <trkpt lat="39.846714" lon="-8.748726">
        <ele>134.8</ele>
        <time>1970-01-01T00:03:59.000Z</time>
      </trkpt>
      <trkpt lat="39.846717" lon="-8.748705">
        <ele>134.8</ele>
        <time>1970-01-01T00:04:00.000Z</time>
      </trkpt>
      <trkpt lat="39.846725" lon="-8.748679">
        <ele>134.9</ele>
        <time>1970-01-01T00:04:01.000Z</time>
      </trkpt>
      <trkpt lat="39.846738" lon="-8.748647">
        <ele>134.9</ele>
        <time>1970-01-01T00:04:02.000Z</time>
      </trkpt>
      <trkpt lat="39.846755" lon="-8.748613">
        <ele>135</ele>
        <time>1970-01-01T00:04:03.000Z</time>
      </trkpt>
      <trkpt lat="39.846773" lon="-8.748575">
        <ele>134.9</ele>
        <time>1970-01-01T00:04:04.000Z</time>
      </trkpt>
      <trkpt lat="39.846795" lon="-8.748534">
        <ele>134.8</ele>
        <time>1970-01-01T00:04:05.000Z</time>
      </trkpt>
      <trkpt lat="39.846818" lon="-8.748492">
        <ele>134.7</ele>
        <time>1970-01-01T00:04:06.000Z</time>
      </trkpt>
      <trkpt lat="39.846837" lon="-8.74845">
        <ele>134.5</ele>
        <time>1970-01-01T00:04:07.000Z</time>
      </trkpt>
      <trkpt lat="39.846849" lon="-8.748409">
        <ele>134.3</ele>
        <time>1970-01-01T00:04:08.000Z</time>
      </trkpt>
      <trkpt lat="39.846855" lon="-8.748367">
        <ele>134.1</ele>
        <time>1970-01-01T00:04:09.000Z</time>
      </trkpt>
      <trkpt lat="39.846856" lon="-8.748324">
        <ele>134</ele>
        <time>1970-01-01T00:04:10.000Z</time>
      </trkpt>
      <trkpt lat="39.846857" lon="-8.74828">
        <ele>133.8</ele>
        <time>1970-01-01T00:04:11.000Z</time>
      </trkpt>
      <trkpt lat="39.846859" lon="-8.748236">
        <ele>133.7</ele>
        <time>1970-01-01T00:04:12.000Z</time>
      </trkpt>
      <trkpt lat="39.846863" lon="-8.748195">
        <ele>133.6</ele>
        <time>1970-01-01T00:04:13.000Z</time>
      </trkpt>
      <trkpt lat="39.846869" lon="-8.748153">
        <ele>133.6</ele>
        <time>1970-01-01T00:04:14.000Z</time>
      </trkpt>
      <trkpt lat="39.846875" lon="-8.748115">
        <ele>133.5</ele>
        <time>1970-01-01T00:04:15.000Z</time>
      </trkpt>
      <trkpt lat="39.846886" lon="-8.748079">
        <ele>133.5</ele>
        <time>1970-01-01T00:04:16.000Z</time>
      </trkpt>
      <trkpt lat="39.846898" lon="-8.748047">
        <ele>133.4</ele>
        <time>1970-01-01T00:04:17.000Z</time>
      </trkpt>
      <trkpt lat="39.846911" lon="-8.748019">
        <ele>133.4</ele>
        <time>1970-01-01T00:04:18.000Z</time>
      </trkpt>
      <trkpt lat="39.846927" lon="-8.747995">
        <ele>133.4</ele>
        <time>1970-01-01T00:04:19.000Z</time>
      </trkpt>
      <trkpt lat="39.846944" lon="-8.747974">
        <ele>133.4</ele>
        <time>1970-01-01T00:04:20.000Z</time>
      </trkpt>
      <trkpt lat="39.846965" lon="-8.747954">
        <ele>133.4</ele>
        <time>1970-01-01T00:04:21.000Z</time>
      </trkpt>
      <trkpt lat="39.846991" lon="-8.747935">
        <ele>133.3</ele>
        <time>1970-01-01T00:04:22.000Z</time>
      </trkpt>
      <trkpt lat="39.847019" lon="-8.747917">
        <ele>133.3</ele>
        <time>1970-01-01T00:04:23.000Z</time>
      </trkpt>
      <trkpt lat="39.847045" lon="-8.747899">
        <ele>133.3</ele>
        <time>1970-01-01T00:04:24.000Z</time>
      </trkpt>
      <trkpt lat="39.84707" lon="-8.74788">
        <ele>133.3</ele>
        <time>1970-01-01T00:04:25.000Z</time>
      </trkpt>
      <trkpt lat="39.847095" lon="-8.747857">
        <ele>133.3</ele>
        <time>1970-01-01T00:04:26.000Z</time>
      </trkpt>
      <trkpt lat="39.847122" lon="-8.747831">
        <ele>133.3</ele>
        <time>1970-01-01T00:04:27.000Z</time>
      </trkpt>
      <trkpt lat="39.84715" lon="-8.747805">
        <ele>133.3</ele>
        <time>1970-01-01T00:04:28.000Z</time>
      </trkpt>
      <trkpt lat="39.847179" lon="-8.747779">
        <ele>133.4</ele>
        <time>1970-01-01T00:04:29.000Z</time>
      </trkpt>
      <trkpt lat="39.847203" lon="-8.747752">
        <ele>133.5</ele>
        <time>1970-01-01T00:04:30.000Z</time>
      </trkpt>
      <trkpt lat="39.847226" lon="-8.747725">
        <ele>133.6</ele>
        <time>1970-01-01T00:04:31.000Z</time>
      </trkpt>
      <trkpt lat="39.847249" lon="-8.747701">
        <ele>133.6</ele>
        <time>1970-01-01T00:04:32.000Z</time>
      </trkpt>
      <trkpt lat="39.847269" lon="-8.747679">
        <ele>133.7</ele>
        <time>1970-01-01T00:04:33.000Z</time>
      </trkpt>
      <trkpt lat="39.847289" lon="-8.747661">
        <ele>133.8</ele>
        <time>1970-01-01T00:04:34.000Z</time>
      </trkpt>
      <trkpt lat="39.84731" lon="-8.747649">
        <ele>133.8</ele>
        <time>1970-01-01T00:04:35.000Z</time>
      </trkpt>
      <trkpt lat="39.847331" lon="-8.747643">
        <ele>133.9</ele>
        <time>1970-01-01T00:04:36.000Z</time>
      </trkpt>
      <trkpt lat="39.847352" lon="-8.747642">
        <ele>134</ele>
        <time>1970-01-01T00:04:37.000Z</time>
      </trkpt>
      <trkpt lat="39.847373" lon="-8.747643">
        <ele>134</ele>
        <time>1970-01-01T00:04:38.000Z</time>
      </trkpt>
      <trkpt lat="39.847393" lon="-8.747647">
        <ele>134</ele>
        <time>1970-01-01T00:04:39.000Z</time>
      </trkpt>
      <trkpt lat="39.847412" lon="-8.747653">
        <ele>134.1</ele>
        <time>1970-01-01T00:04:40.000Z</time>
      </trkpt>
      <trkpt lat="39.847429" lon="-8.747658">
        <ele>134.1</ele>
        <time>1970-01-01T00:04:41.000Z</time>
      </trkpt>
      <trkpt lat="39.847447" lon="-8.747664">
        <ele>134.2</ele>
        <time>1970-01-01T00:04:42.000Z</time>
      </trkpt>
      <trkpt lat="39.847465" lon="-8.747672">
        <ele>134.2</ele>
        <time>1970-01-01T00:04:43.000Z</time>
      </trkpt>
      <trkpt lat="39.847484" lon="-8.747682">
        <ele>134.2</ele>
        <time>1970-01-01T00:04:44.000Z</time>
      </trkpt>
      <trkpt lat="39.847504" lon="-8.747691">
        <ele>134.3</ele>
        <time>1970-01-01T00:04:45.000Z</time>
      </trkpt>
      <trkpt lat="39.847526" lon="-8.747699">
        <ele>134.3</ele>
        <time>1970-01-01T00:04:46.000Z</time>
      </trkpt>
      <trkpt lat="39.847548" lon="-8.747706">
        <ele>134.4</ele>
        <time>1970-01-01T00:04:47.000Z</time>
      </trkpt>
      <trkpt lat="39.847569" lon="-8.747711">
        <ele>134.4</ele>
        <time>1970-01-01T00:04:48.000Z</time>
      </trkpt>
      <trkpt lat="39.847589" lon="-8.747719">
        <ele>134.5</ele>
        <time>1970-01-01T00:04:49.000Z</time>
      </trkpt>
      <trkpt lat="39.847606" lon="-8.74773">
        <ele>134.5</ele>
        <time>1970-01-01T00:04:50.000Z</time>
      </trkpt>
      <trkpt lat="39.847621" lon="-8.747744">
        <ele>134.6</ele>
        <time>1970-01-01T00:04:51.000Z</time>
      </trkpt>
      <trkpt lat="39.847638" lon="-8.747756">
        <ele>134.7</ele>
        <time>1970-01-01T00:04:52.000Z</time>
      </trkpt>
      <trkpt lat="39.847655" lon="-8.747764">
        <ele>134.8</ele>
        <time>1970-01-01T00:04:53.000Z</time>
      </trkpt>
      <trkpt lat="39.847673" lon="-8.747771">
        <ele>134.9</ele>
        <time>1970-01-01T00:04:54.000Z</time>
      </trkpt>
      <trkpt lat="39.847687" lon="-8.747779">
        <ele>134.9</ele>
        <time>1970-01-01T00:04:55.000Z</time>
      </trkpt>
      <trkpt lat="39.8477" lon="-8.747787">
        <ele>135</ele>
        <time>1970-01-01T00:04:56.000Z</time>
      </trkpt>
      <trkpt lat="39.847717" lon="-8.747793">
        <ele>135.1</ele>
        <time>1970-01-01T00:04:57.000Z</time>
      </trkpt>
      <trkpt lat="39.847735" lon="-8.747801">
        <ele>135.3</ele>
        <time>1970-01-01T00:04:58.000Z</time>
      </trkpt>
      <trkpt lat="39.847752" lon="-8.747811">
        <ele>135.4</ele>
        <time>1970-01-01T00:04:59.000Z</time>
      </trkpt>
      <trkpt lat="39.847805" lon="-8.747843">
        <ele>135.9</ele>
        <time>1970-01-01T00:05:00.000Z</time>
      </trkpt>
      <trkpt lat="39.847811" lon="-8.747846">
        <ele>136</ele>
        <time>1970-01-01T00:05:01.000Z</time>
      </trkpt>
      <trkpt lat="39.847824" lon="-8.747849">
        <ele>136.1</ele>
        <time>1970-01-01T00:05:02.000Z</time>
      </trkpt>
      <trkpt lat="39.847841" lon="-8.747849">
        <ele>136.2</ele>
        <time>1970-01-01T00:05:03.000Z</time>
      </trkpt>
      <trkpt lat="39.84786" lon="-8.747847">
        <ele>136.4</ele>
        <time>1970-01-01T00:05:04.000Z</time>
      </trkpt>
      <trkpt lat="39.847881" lon="-8.747847">
        <ele>136.6</ele>
        <time>1970-01-01T00:05:05.000Z</time>
      </trkpt>
      <trkpt lat="39.847902" lon="-8.747846">
        <ele>136.7</ele>
        <time>1970-01-01T00:05:06.000Z</time>
      </trkpt>
      <trkpt lat="39.847925" lon="-8.747847">
        <ele>136.9</ele>
        <time>1970-01-01T00:05:07.000Z</time>
      </trkpt>
      <trkpt lat="39.847946" lon="-8.747849">
        <ele>137.1</ele>
        <time>1970-01-01T00:05:08.000Z</time>
      </trkpt>
      <trkpt lat="39.847967" lon="-8.74785">
        <ele>137.3</ele>
        <time>1970-01-01T00:05:09.000Z</time>
      </trkpt>
      <trkpt lat="39.847986" lon="-8.74785">
        <ele>137.4</ele>
        <time>1970-01-01T00:05:10.000Z</time>
      </trkpt>
      <trkpt lat="39.848001" lon="-8.74785">
        <ele>137.5</ele>
        <time>1970-01-01T00:05:11.000Z</time>
      </trkpt>
      <trkpt lat="39.848032" lon="-8.747851">
        <ele>137.8</ele>
        <time>1970-01-01T00:05:17.000Z</time>
      </trkpt>
      <trkpt lat="39.84804" lon="-8.747851">
        <ele>137.8</ele>
        <time>1970-01-01T00:05:24.000Z</time>
      </trkpt>
      <trkpt lat="39.848045" lon="-8.747856">
        <ele>137.9</ele>
        <time>1970-01-01T00:05:29.000Z</time>
      </trkpt>
      <trkpt lat="39.848047" lon="-8.747857">
        <ele>137.9</ele>
        <time>1970-01-01T00:05:30.000Z</time>
      </trkpt>
      <trkpt lat="39.848051" lon="-8.747858">
        <ele>137.9</ele>
        <time>1970-01-01T00:05:31.000Z</time>
      </trkpt>
      <trkpt lat="39.848057" lon="-8.74786">
        <ele>138</ele>
        <time>1970-01-01T00:05:32.000Z</time>
      </trkpt>
      <trkpt lat="39.848065" lon="-8.747862">
        <ele>138</ele>
        <time>1970-01-01T00:05:33.000Z</time>
      </trkpt>
      <trkpt lat="39.848095" lon="-8.74786">
        <ele>138.2</ele>
        <time>1970-01-01T00:05:34.000Z</time>
      </trkpt>
      <trkpt lat="39.848101" lon="-8.747859">
        <ele>138.3</ele>
        <time>1970-01-01T00:05:35.000Z</time>
      </trkpt>
      <trkpt lat="39.848114" lon="-8.747856">
        <ele>138.4</ele>
        <time>1970-01-01T00:05:36.000Z</time>
      </trkpt>
      <trkpt lat="39.848132" lon="-8.747851">
        <ele>138.5</ele>
        <time>1970-01-01T00:05:37.000Z</time>
      </trkpt>
      <trkpt lat="39.848152" lon="-8.747845">
        <ele>138.7</ele>
        <time>1970-01-01T00:05:38.000Z</time>
      </trkpt>
      <trkpt lat="39.848172" lon="-8.747834">
        <ele>138.8</ele>
        <time>1970-01-01T00:05:39.000Z</time>
      </trkpt>
      <trkpt lat="39.848187" lon="-8.747822">
        <ele>140.2</ele>
        <time>1970-01-01T00:05:40.000Z</time>
      </trkpt>
      <trkpt lat="39.848195" lon="-8.747807">
        <ele>140.2</ele>
        <time>1970-01-01T00:05:41.000Z</time>
      </trkpt>
      <trkpt lat="39.848197" lon="-8.747791">
        <ele>140.2</ele>
        <time>1970-01-01T00:05:42.000Z</time>
      </trkpt>
      <trkpt lat="39.848197" lon="-8.747777">
        <ele>140.2</ele>
        <time>1970-01-01T00:05:43.000Z</time>
      </trkpt>
      <trkpt lat="39.848194" lon="-8.747764">
        <ele>140.2</ele>
        <time>1970-01-01T00:05:44.000Z</time>
      </trkpt>
      <trkpt lat="39.848188" lon="-8.747753">
        <ele>140.2</ele>
        <time>1970-01-01T00:05:45.000Z</time>
      </trkpt>
      <trkpt lat="39.848182" lon="-8.747743">
        <ele>140.2</ele>
        <time>1970-01-01T00:05:46.000Z</time>
      </trkpt>
      <trkpt lat="39.848175" lon="-8.747734">
        <ele>140.2</ele>
        <time>1970-01-01T00:05:47.000Z</time>
      </trkpt>
      <trkpt lat="39.848164" lon="-8.747726">
        <ele>140.2</ele>
        <time>1970-01-01T00:05:48.000Z</time>
      </trkpt>
      <trkpt lat="39.848153" lon="-8.74772">
        <ele>140.2</ele>
        <time>1970-01-01T00:05:49.000Z</time>
      </trkpt>
      <trkpt lat="39.84814" lon="-8.747712">
        <ele>140.2</ele>
        <time>1970-01-01T00:05:50.000Z</time>
      </trkpt>
      <trkpt lat="39.848129" lon="-8.747702">
        <ele>142.5</ele>
        <time>1970-01-01T00:05:51.000Z</time>
      </trkpt>
      <trkpt lat="39.848118" lon="-8.74769">
        <ele>142.7</ele>
        <time>1970-01-01T00:05:52.000Z</time>
      </trkpt>
      <trkpt lat="39.848106" lon="-8.747673">
        <ele>142.8</ele>
        <time>1970-01-01T00:05:53.000Z</time>
      </trkpt>
      <trkpt lat="39.848094" lon="-8.747653">
        <ele>143.1</ele>
        <time>1970-01-01T00:05:54.000Z</time>
      </trkpt>
      <trkpt lat="39.848087" lon="-8.74763">
        <ele>143.3</ele>
        <time>1970-01-01T00:05:55.000Z</time>
      </trkpt>
      <trkpt lat="39.848082" lon="-8.747606">
        <ele>143.5</ele>
        <time>1970-01-01T00:05:56.000Z</time>
      </trkpt>
      <trkpt lat="39.848078" lon="-8.747582">
        <ele>143.7</ele>
        <time>1970-01-01T00:05:57.000Z</time>
      </trkpt>
      <trkpt lat="39.848078" lon="-8.747557">
        <ele>143.9</ele>
        <time>1970-01-01T00:05:58.000Z</time>
      </trkpt>
      <trkpt lat="39.848078" lon="-8.747531">
        <ele>144.1</ele>
        <time>1970-01-01T00:05:59.000Z</time>
      </trkpt>
      <trkpt lat="39.848081" lon="-8.747503">
        <ele>144.3</ele>
        <time>1970-01-01T00:06:00.000Z</time>
      </trkpt>
      <trkpt lat="39.848081" lon="-8.747476">
        <ele>144.5</ele>
        <time>1970-01-01T00:06:01.000Z</time>
      </trkpt>
      <trkpt lat="39.848078" lon="-8.747446">
        <ele>144.7</ele>
        <time>1970-01-01T00:06:02.000Z</time>
      </trkpt>
      <trkpt lat="39.848073" lon="-8.747416">
        <ele>145</ele>
        <time>1970-01-01T00:06:03.000Z</time>
      </trkpt>
      <trkpt lat="39.848066" lon="-8.747386">
        <ele>145.2</ele>
        <time>1970-01-01T00:06:04.000Z</time>
      </trkpt>
      <trkpt lat="39.848058" lon="-8.747355">
        <ele>145.5</ele>
        <time>1970-01-01T00:06:05.000Z</time>
      </trkpt>
      <trkpt lat="39.848047" lon="-8.747327">
        <ele>145.7</ele>
        <time>1970-01-01T00:06:06.000Z</time>
      </trkpt>
      <trkpt lat="39.848036" lon="-8.747301">
        <ele>145.9</ele>
        <time>1970-01-01T00:06:07.000Z</time>
      </trkpt>
      <trkpt lat="39.848024" lon="-8.747277">
        <ele>146.2</ele>
        <time>1970-01-01T00:06:08.000Z</time>
      </trkpt>
      <trkpt lat="39.848011" lon="-8.747255">
        <ele>146.4</ele>
        <time>1970-01-01T00:06:09.000Z</time>
      </trkpt>
      <trkpt lat="39.847998" lon="-8.747235">
        <ele>146.5</ele>
        <time>1970-01-01T00:06:10.000Z</time>
      </trkpt>
      <trkpt lat="39.847987" lon="-8.747217">
        <ele>146.7</ele>
        <time>1970-01-01T00:06:11.000Z</time>
      </trkpt>
      <trkpt lat="39.847978" lon="-8.7472">
        <ele>146.8</ele>
        <time>1970-01-01T00:06:12.000Z</time>
      </trkpt>
      <trkpt lat="39.84797" lon="-8.747181">
        <ele>147</ele>
        <time>1970-01-01T00:06:13.000Z</time>
      </trkpt>
      <trkpt lat="39.847962" lon="-8.747162">
        <ele>147.1</ele>
        <time>1970-01-01T00:06:14.000Z</time>
      </trkpt>
      <trkpt lat="39.847954" lon="-8.747143">
        <ele>147.2</ele>
        <time>1970-01-01T00:06:15.000Z</time>
      </trkpt>
      <trkpt lat="39.847945" lon="-8.747124">
        <ele>147.3</ele>
        <time>1970-01-01T00:06:16.000Z</time>
      </trkpt>
      <trkpt lat="39.847934" lon="-8.747103">
        <ele>147.5</ele>
        <time>1970-01-01T00:06:17.000Z</time>
      </trkpt>
      <trkpt lat="39.847923" lon="-8.747084">
        <ele>147.6</ele>
        <time>1970-01-01T00:06:18.000Z</time>
      </trkpt>
      <trkpt lat="39.847911" lon="-8.747066">
        <ele>147.7</ele>
        <time>1970-01-01T00:06:19.000Z</time>
      </trkpt>
      <trkpt lat="39.847898" lon="-8.747048">
        <ele>147.8</ele>
        <time>1970-01-01T00:06:20.000Z</time>
      </trkpt>
      <trkpt lat="39.847884" lon="-8.74703">
        <ele>147.9</ele>
        <time>1970-01-01T00:06:21.000Z</time>
      </trkpt>
      <trkpt lat="39.847869" lon="-8.747012">
        <ele>147.9</ele>
        <time>1970-01-01T00:06:22.000Z</time>
      </trkpt>
      <trkpt lat="39.847851" lon="-8.746994">
        <ele>148</ele>
        <time>1970-01-01T00:06:23.000Z</time>
      </trkpt>
      <trkpt lat="39.847831" lon="-8.746977">
        <ele>148.1</ele>
        <time>1970-01-01T00:06:24.000Z</time>
      </trkpt>
      <trkpt lat="39.84781" lon="-8.74696">
        <ele>148.2</ele>
        <time>1970-01-01T00:06:25.000Z</time>
      </trkpt>
      <trkpt lat="39.847789" lon="-8.746942">
        <ele>148.3</ele>
        <time>1970-01-01T00:06:26.000Z</time>
      </trkpt>
      <trkpt lat="39.847767" lon="-8.746921">
        <ele>148.3</ele>
        <time>1970-01-01T00:06:27.000Z</time>
      </trkpt>
      <trkpt lat="39.847744" lon="-8.7469">
        <ele>148.4</ele>
        <time>1970-01-01T00:06:28.000Z</time>
      </trkpt>
      <trkpt lat="39.847721" lon="-8.746877">
        <ele>148.5</ele>
        <time>1970-01-01T00:06:29.000Z</time>
      </trkpt>
      <trkpt lat="39.847694" lon="-8.746854">
        <ele>148.5</ele>
        <time>1970-01-01T00:06:30.000Z</time>
      </trkpt>
      <trkpt lat="39.847664" lon="-8.746831">
        <ele>148.6</ele>
        <time>1970-01-01T00:06:31.000Z</time>
      </trkpt>
      <trkpt lat="39.847633" lon="-8.74681">
        <ele>148.7</ele>
        <time>1970-01-01T00:06:32.000Z</time>
      </trkpt>
      <trkpt lat="39.847601" lon="-8.746789">
        <ele>148.8</ele>
        <time>1970-01-01T00:06:33.000Z</time>
      </trkpt>
      <trkpt lat="39.84757" lon="-8.746767">
        <ele>148.9</ele>
        <time>1970-01-01T00:06:34.000Z</time>
      </trkpt>
      <trkpt lat="39.84754" lon="-8.746743">
        <ele>149</ele>
        <time>1970-01-01T00:06:35.000Z</time>
      </trkpt>
      <trkpt lat="39.847512" lon="-8.746718">
        <ele>149.1</ele>
        <time>1970-01-01T00:06:36.000Z</time>
      </trkpt>
      <trkpt lat="39.847486" lon="-8.746691">
        <ele>149.2</ele>
        <time>1970-01-01T00:06:37.000Z</time>
      </trkpt>
      <trkpt lat="39.84746" lon="-8.746666">
        <ele>149.3</ele>
        <time>1970-01-01T00:06:38.000Z</time>
      </trkpt>
      <trkpt lat="39.847432" lon="-8.746642">
        <ele>149.4</ele>
        <time>1970-01-01T00:06:39.000Z</time>
      </trkpt>
      <trkpt lat="39.847405" lon="-8.746622">
        <ele>149.6</ele>
        <time>1970-01-01T00:06:40.000Z</time>
      </trkpt>
      <trkpt lat="39.847376" lon="-8.746598">
        <ele>149.7</ele>
        <time>1970-01-01T00:06:41.000Z</time>
      </trkpt>
      <trkpt lat="39.847346" lon="-8.746575">
        <ele>149.8</ele>
        <time>1970-01-01T00:06:42.000Z</time>
      </trkpt>
      <trkpt lat="39.847317" lon="-8.746551">
        <ele>149.9</ele>
        <time>1970-01-01T00:06:43.000Z</time>
      </trkpt>
      <trkpt lat="39.84729" lon="-8.746529">
        <ele>150</ele>
        <time>1970-01-01T00:06:44.000Z</time>
      </trkpt>
      <trkpt lat="39.847265" lon="-8.746504">
        <ele>150.1</ele>
        <time>1970-01-01T00:06:45.000Z</time>
      </trkpt>
      <trkpt lat="39.84724" lon="-8.746481">
        <ele>150.1</ele>
        <time>1970-01-01T00:06:46.000Z</time>
      </trkpt>
      <trkpt lat="39.847213" lon="-8.746462">
        <ele>150.2</ele>
        <time>1970-01-01T00:06:47.000Z</time>
      </trkpt>
      <trkpt lat="39.847179" lon="-8.746441">
        <ele>150.2</ele>
        <time>1970-01-01T00:06:48.000Z</time>
      </trkpt>
      <trkpt lat="39.847139" lon="-8.746418">
        <ele>150.1</ele>
        <time>1970-01-01T00:06:49.000Z</time>
      </trkpt>
      <trkpt lat="39.847095" lon="-8.74639">
        <ele>149.9</ele>
        <time>1970-01-01T00:06:50.000Z</time>
      </trkpt>
      <trkpt lat="39.847052" lon="-8.746362">
        <ele>149.7</ele>
        <time>1970-01-01T00:06:51.000Z</time>
      </trkpt>
      <trkpt lat="39.847014" lon="-8.746333">
        <ele>149.4</ele>
        <time>1970-01-01T00:06:52.000Z</time>
      </trkpt>
      <trkpt lat="39.84698" lon="-8.746304">
        <ele>149.2</ele>
        <time>1970-01-01T00:06:53.000Z</time>
      </trkpt>
      <trkpt lat="39.846947" lon="-8.746276">
        <ele>148.9</ele>
        <time>1970-01-01T00:06:54.000Z</time>
      </trkpt>
      <trkpt lat="39.846914" lon="-8.74625">
        <ele>148.7</ele>
        <time>1970-01-01T00:06:55.000Z</time>
      </trkpt>
      <trkpt lat="39.84688" lon="-8.746227">
        <ele>148.5</ele>
        <time>1970-01-01T00:06:56.000Z</time>
      </trkpt>
      <trkpt lat="39.846845" lon="-8.746209">
        <ele>148.3</ele>
        <time>1970-01-01T00:06:57.000Z</time>
      </trkpt>
      <trkpt lat="39.846806" lon="-8.746194">
        <ele>148.2</ele>
        <time>1970-01-01T00:06:58.000Z</time>
      </trkpt>
      <trkpt lat="39.846765" lon="-8.74618">
        <ele>148.2</ele>
        <time>1970-01-01T00:06:59.000Z</time>
      </trkpt>
      <trkpt lat="39.846723" lon="-8.746165">
        <ele>148.2</ele>
        <time>1970-01-01T00:07:00.000Z</time>
      </trkpt>
      <trkpt lat="39.84668" lon="-8.746149">
        <ele>148.3</ele>
        <time>1970-01-01T00:07:01.000Z</time>
      </trkpt>
      <trkpt lat="39.846636" lon="-8.746129">
        <ele>148.4</ele>
        <time>1970-01-01T00:07:02.000Z</time>
      </trkpt>
      <trkpt lat="39.846593" lon="-8.746107">
        <ele>148.6</ele>
        <time>1970-01-01T00:07:03.000Z</time>
      </trkpt>
      <trkpt lat="39.846552" lon="-8.746083">
        <ele>148.8</ele>
        <time>1970-01-01T00:07:04.000Z</time>
      </trkpt>
      <trkpt lat="39.846512" lon="-8.746058">
        <ele>149.1</ele>
        <time>1970-01-01T00:07:05.000Z</time>
      </trkpt>
      <trkpt lat="39.846473" lon="-8.746034">
        <ele>149.3</ele>
        <time>1970-01-01T00:07:06.000Z</time>
      </trkpt>
      <trkpt lat="39.846435" lon="-8.746005">
        <ele>149.5</ele>
        <time>1970-01-01T00:07:07.000Z</time>
      </trkpt>
      <trkpt lat="39.8464" lon="-8.74597">
        <ele>149.7</ele>
        <time>1970-01-01T00:07:08.000Z</time>
      </trkpt>
      <trkpt lat="39.846367" lon="-8.745933">
        <ele>149.8</ele>
        <time>1970-01-01T00:07:09.000Z</time>
      </trkpt>
      <trkpt lat="39.846336" lon="-8.745898">
        <ele>150</ele>
        <time>1970-01-01T00:07:10.000Z</time>
      </trkpt>
      <trkpt lat="39.846304" lon="-8.745867">
        <ele>150.1</ele>
        <time>1970-01-01T00:07:11.000Z</time>
      </trkpt>
      <trkpt lat="39.84627" lon="-8.745835">
        <ele>150.3</ele>
        <time>1970-01-01T00:07:12.000Z</time>
      </trkpt>
      <trkpt lat="39.846234" lon="-8.745803">
        <ele>150.4</ele>
        <time>1970-01-01T00:07:13.000Z</time>
      </trkpt>
      <trkpt lat="39.846203" lon="-8.745772">
        <ele>150.5</ele>
        <time>1970-01-01T00:07:14.000Z</time>
      </trkpt>
      <trkpt lat="39.846172" lon="-8.745739">
        <ele>150.7</ele>
        <time>1970-01-01T00:07:15.000Z</time>
      </trkpt>
      <trkpt lat="39.846138" lon="-8.745705">
        <ele>150.8</ele>
        <time>1970-01-01T00:07:16.000Z</time>
      </trkpt>
      <trkpt lat="39.846102" lon="-8.745671">
        <ele>150.9</ele>
        <time>1970-01-01T00:07:17.000Z</time>
      </trkpt>
      <trkpt lat="39.846066" lon="-8.745638">
        <ele>151</ele>
        <time>1970-01-01T00:07:18.000Z</time>
      </trkpt>
      <trkpt lat="39.846033" lon="-8.745605">
        <ele>151.1</ele>
        <time>1970-01-01T00:07:19.000Z</time>
      </trkpt>
      <trkpt lat="39.846004" lon="-8.745569">
        <ele>151.1</ele>
        <time>1970-01-01T00:07:20.000Z</time>
      </trkpt>
      <trkpt lat="39.845982" lon="-8.745532">
        <ele>151.1</ele>
        <time>1970-01-01T00:07:21.000Z</time>
      </trkpt>
      <trkpt lat="39.845972" lon="-8.745499">
        <ele>151.2</ele>
        <time>1970-01-01T00:07:22.000Z</time>
      </trkpt>
      <trkpt lat="39.845969" lon="-8.745465">
        <ele>151.2</ele>
        <time>1970-01-01T00:07:23.000Z</time>
      </trkpt>
      <trkpt lat="39.845981" lon="-8.745431">
        <ele>151.3</ele>
        <time>1970-01-01T00:07:24.000Z</time>
      </trkpt>
      <trkpt lat="39.846002" lon="-8.7454">
        <ele>150.9</ele>
        <time>1970-01-01T00:07:25.000Z</time>
      </trkpt>
      <trkpt lat="39.846028" lon="-8.745368">
        <ele>150.7</ele>
        <time>1970-01-01T00:07:26.000Z</time>
      </trkpt>
      <trkpt lat="39.846054" lon="-8.745338">
        <ele>150.5</ele>
        <time>1970-01-01T00:07:27.000Z</time>
      </trkpt>
      <trkpt lat="39.846085" lon="-8.745306">
        <ele>150.2</ele>
        <time>1970-01-01T00:07:28.000Z</time>
      </trkpt>
      <trkpt lat="39.846116" lon="-8.745269">
        <ele>149.9</ele>
        <time>1970-01-01T00:07:29.000Z</time>
      </trkpt>
      <trkpt lat="39.846145" lon="-8.745228">
        <ele>149.7</ele>
        <time>1970-01-01T00:07:30.000Z</time>
      </trkpt>
      <trkpt lat="39.846172" lon="-8.74518">
        <ele>149.4</ele>
        <time>1970-01-01T00:07:31.000Z</time>
      </trkpt>
      <trkpt lat="39.846194" lon="-8.745126">
        <ele>149.1</ele>
        <time>1970-01-01T00:07:32.000Z</time>
      </trkpt>
      <trkpt lat="39.846212" lon="-8.745065">
        <ele>148.7</ele>
        <time>1970-01-01T00:07:33.000Z</time>
      </trkpt>
      <trkpt lat="39.846229" lon="-8.745003">
        <ele>148.4</ele>
        <time>1970-01-01T00:07:34.000Z</time>
      </trkpt>
      <trkpt lat="39.846245" lon="-8.74494">
        <ele>148.1</ele>
        <time>1970-01-01T00:07:35.000Z</time>
      </trkpt>
      <trkpt lat="39.846266" lon="-8.744879">
        <ele>147.7</ele>
        <time>1970-01-01T00:07:36.000Z</time>
      </trkpt>
      <trkpt lat="39.846287" lon="-8.744819">
        <ele>147.4</ele>
        <time>1970-01-01T00:07:37.000Z</time>
      </trkpt>
      <trkpt lat="39.84631" lon="-8.74476">
        <ele>147.1</ele>
        <time>1970-01-01T00:07:38.000Z</time>
      </trkpt>
      <trkpt lat="39.84633" lon="-8.744702">
        <ele>146.8</ele>
        <time>1970-01-01T00:07:39.000Z</time>
      </trkpt>
      <trkpt lat="39.84635" lon="-8.744646">
        <ele>146.5</ele>
        <time>1970-01-01T00:07:40.000Z</time>
      </trkpt>
      <trkpt lat="39.84637" lon="-8.744594">
        <ele>146.2</ele>
        <time>1970-01-01T00:07:41.000Z</time>
      </trkpt>
      <trkpt lat="39.84639" lon="-8.744546">
        <ele>145.9</ele>
        <time>1970-01-01T00:07:42.000Z</time>
      </trkpt>
      <trkpt lat="39.846413" lon="-8.744504">
        <ele>145.6</ele>
        <time>1970-01-01T00:07:43.000Z</time>
      </trkpt>
      <trkpt lat="39.846442" lon="-8.74447">
        <ele>145.4</ele>
        <time>1970-01-01T00:07:44.000Z</time>
      </trkpt>
      <trkpt lat="39.846476" lon="-8.744444">
        <ele>145.1</ele>
        <time>1970-01-01T00:07:45.000Z</time>
      </trkpt>
      <trkpt lat="39.846509" lon="-8.744421">
        <ele>144.9</ele>
        <time>1970-01-01T00:07:46.000Z</time>
      </trkpt>
      <trkpt lat="39.846542" lon="-8.744397">
        <ele>144.6</ele>
        <time>1970-01-01T00:07:47.000Z</time>
      </trkpt>
      <trkpt lat="39.846571" lon="-8.744368">
        <ele>144.4</ele>
        <time>1970-01-01T00:07:48.000Z</time>
      </trkpt>
      <trkpt lat="39.8466" lon="-8.744335">
        <ele>144.1</ele>
        <time>1970-01-01T00:07:49.000Z</time>
      </trkpt>
      <trkpt lat="39.846627" lon="-8.7443">
        <ele>143.9</ele>
        <time>1970-01-01T00:07:50.000Z</time>
      </trkpt>
      <trkpt lat="39.846654" lon="-8.744265">
        <ele>143.7</ele>
        <time>1970-01-01T00:07:51.000Z</time>
      </trkpt>
      <trkpt lat="39.846681" lon="-8.744233">
        <ele>143.4</ele>
        <time>1970-01-01T00:07:52.000Z</time>
      </trkpt>
      <trkpt lat="39.846712" lon="-8.744206">
        <ele>143.2</ele>
        <time>1970-01-01T00:07:53.000Z</time>
      </trkpt>
      <trkpt lat="39.846743" lon="-8.744186">
        <ele>142.9</ele>
        <time>1970-01-01T00:07:54.000Z</time>
      </trkpt>
      <trkpt lat="39.846775" lon="-8.744173">
        <ele>142.7</ele>
        <time>1970-01-01T00:07:55.000Z</time>
      </trkpt>
      <trkpt lat="39.846809" lon="-8.744167">
        <ele>142.5</ele>
        <time>1970-01-01T00:07:56.000Z</time>
      </trkpt>
      <trkpt lat="39.846846" lon="-8.744166">
        <ele>142</ele>
        <time>1970-01-01T00:07:57.000Z</time>
      </trkpt>
      <trkpt lat="39.846885" lon="-8.744167">
        <ele>141.4</ele>
        <time>1970-01-01T00:07:58.000Z</time>
      </trkpt>
      <trkpt lat="39.846927" lon="-8.744167">
        <ele>140.8</ele>
        <time>1970-01-01T00:07:59.000Z</time>
      </trkpt>
      <trkpt lat="39.846967" lon="-8.744163">
        <ele>139.6</ele>
        <time>1970-01-01T00:08:00.000Z</time>
      </trkpt>
      <trkpt lat="39.847006" lon="-8.744154">
        <ele>139</ele>
        <time>1970-01-01T00:08:01.000Z</time>
      </trkpt>
      <trkpt lat="39.84704" lon="-8.744142">
        <ele>138.4</ele>
        <time>1970-01-01T00:08:02.000Z</time>
      </trkpt>
      <trkpt lat="39.847071" lon="-8.744128">
        <ele>137.5</ele>
        <time>1970-01-01T00:08:03.000Z</time>
      </trkpt>
      <trkpt lat="39.847097" lon="-8.744114">
        <ele>136.9</ele>
        <time>1970-01-01T00:08:04.000Z</time>
      </trkpt>
      <trkpt lat="39.84712" lon="-8.744102">
        <ele>136.9</ele>
        <time>1970-01-01T00:08:05.000Z</time>
      </trkpt>
      <trkpt lat="39.84714" lon="-8.744095">
        <ele>136.3</ele>
        <time>1970-01-01T00:08:06.000Z</time>
      </trkpt>
      <trkpt lat="39.847158" lon="-8.744095">
        <ele>136.3</ele>
        <time>1970-01-01T00:08:07.000Z</time>
      </trkpt>
      <trkpt lat="39.847178" lon="-8.744099">
        <ele>135.7</ele>
        <time>1970-01-01T00:08:08.000Z</time>
      </trkpt>
      <trkpt lat="39.847197" lon="-8.744108">
        <ele>135</ele>
        <time>1970-01-01T00:08:09.000Z</time>
      </trkpt>
      <trkpt lat="39.847214" lon="-8.744123">
        <ele>135</ele>
        <time>1970-01-01T00:08:10.000Z</time>
      </trkpt>
      <trkpt lat="39.84723" lon="-8.744146">
        <ele>134.9</ele>
        <time>1970-01-01T00:08:11.000Z</time>
      </trkpt>
      <trkpt lat="39.847245" lon="-8.744171">
        <ele>134.9</ele>
        <time>1970-01-01T00:08:12.000Z</time>
      </trkpt>
      <trkpt lat="39.847261" lon="-8.744199">
        <ele>135.3</ele>
        <time>1970-01-01T00:08:13.000Z</time>
      </trkpt>
      <trkpt lat="39.847283" lon="-8.744226">
        <ele>135.1</ele>
        <time>1970-01-01T00:08:14.000Z</time>
      </trkpt>
      <trkpt lat="39.847308" lon="-8.744247">
        <ele>134.6</ele>
        <time>1970-01-01T00:08:15.000Z</time>
      </trkpt>
      <trkpt lat="39.84733" lon="-8.744266">
        <ele>134.5</ele>
        <time>1970-01-01T00:08:16.000Z</time>
      </trkpt>
      <trkpt lat="39.847353" lon="-8.744288">
        <ele>134.5</ele>
        <time>1970-01-01T00:08:17.000Z</time>
      </trkpt>
      <trkpt lat="39.847373" lon="-8.74431">
        <ele>134.4</ele>
        <time>1970-01-01T00:08:18.000Z</time>
      </trkpt>
      <trkpt lat="39.847393" lon="-8.744328">
        <ele>134.4</ele>
        <time>1970-01-01T00:08:19.000Z</time>
      </trkpt>
      <trkpt lat="39.847412" lon="-8.744345">
        <ele>134.3</ele>
        <time>1970-01-01T00:08:20.000Z</time>
      </trkpt>
      <trkpt lat="39.847425" lon="-8.744359">
        <ele>134.3</ele>
        <time>1970-01-01T00:08:21.000Z</time>
      </trkpt>
      <trkpt lat="39.84744" lon="-8.744366">
        <ele>133.8</ele>
        <time>1970-01-01T00:08:22.000Z</time>
      </trkpt>
      <trkpt lat="39.847457" lon="-8.744363">
        <ele>133.8</ele>
        <time>1970-01-01T00:08:23.000Z</time>
      </trkpt>
      <trkpt lat="39.84748" lon="-8.744352">
        <ele>133.2</ele>
        <time>1970-01-01T00:08:24.000Z</time>
      </trkpt>
      <trkpt lat="39.847504" lon="-8.744335">
        <ele>132.2</ele>
        <time>1970-01-01T00:08:25.000Z</time>
      </trkpt>
      <trkpt lat="39.847526" lon="-8.744317">
        <ele>131.6</ele>
        <time>1970-01-01T00:08:26.000Z</time>
      </trkpt>
      <trkpt lat="39.847549" lon="-8.744295">
        <ele>131.2</ele>
        <time>1970-01-01T00:08:27.000Z</time>
      </trkpt>
      <trkpt lat="39.84758" lon="-8.744262">
        <ele>130.7</ele>
        <time>1970-01-01T00:08:28.000Z</time>
      </trkpt>
      <trkpt lat="39.847615" lon="-8.744223">
        <ele>129.8</ele>
        <time>1970-01-01T00:08:29.000Z</time>
      </trkpt>
      <trkpt lat="39.84765" lon="-8.744187">
        <ele>129</ele>
        <time>1970-01-01T00:08:30.000Z</time>
      </trkpt>
      <trkpt lat="39.847682" lon="-8.744156">
        <ele>128.1</ele>
        <time>1970-01-01T00:08:31.000Z</time>
      </trkpt>
      <trkpt lat="39.847711" lon="-8.744131">
        <ele>127.6</ele>
        <time>1970-01-01T00:08:32.000Z</time>
      </trkpt>
      <trkpt lat="39.847735" lon="-8.744112">
        <ele>126.9</ele>
        <time>1970-01-01T00:08:33.000Z</time>
      </trkpt>
      <trkpt lat="39.847755" lon="-8.744099">
        <ele>126.9</ele>
        <time>1970-01-01T00:08:34.000Z</time>
      </trkpt>
      <trkpt lat="39.847777" lon="-8.744091">
        <ele>126.4</ele>
        <time>1970-01-01T00:08:35.000Z</time>
      </trkpt>
      <trkpt lat="39.847802" lon="-8.744083">
        <ele>125.7</ele>
        <time>1970-01-01T00:08:36.000Z</time>
      </trkpt>
      <trkpt lat="39.847825" lon="-8.744078">
        <ele>125.3</ele>
        <time>1970-01-01T00:08:37.000Z</time>
      </trkpt>
      <trkpt lat="39.847844" lon="-8.744079">
        <ele>125.3</ele>
        <time>1970-01-01T00:08:38.000Z</time>
      </trkpt>
      <trkpt lat="39.847864" lon="-8.744085">
        <ele>125</ele>
        <time>1970-01-01T00:08:39.000Z</time>
      </trkpt>
      <trkpt lat="39.847883" lon="-8.744097">
        <ele>125.1</ele>
        <time>1970-01-01T00:08:40.000Z</time>
      </trkpt>
      <trkpt lat="39.8479" lon="-8.74411">
        <ele>124.8</ele>
        <time>1970-01-01T00:08:41.000Z</time>
      </trkpt>
      <trkpt lat="39.847919" lon="-8.744122">
        <ele>124.8</ele>
        <time>1970-01-01T00:08:42.000Z</time>
      </trkpt>
      <trkpt lat="39.847941" lon="-8.744132">
        <ele>124.7</ele>
        <time>1970-01-01T00:08:43.000Z</time>
      </trkpt>
      <trkpt lat="39.847968" lon="-8.744142">
        <ele>124.5</ele>
        <time>1970-01-01T00:08:44.000Z</time>
      </trkpt>
      <trkpt lat="39.847996" lon="-8.744148">
        <ele>124.4</ele>
        <time>1970-01-01T00:08:45.000Z</time>
      </trkpt>
      <trkpt lat="39.848023" lon="-8.744151">
        <ele>124.3</ele>
        <time>1970-01-01T00:08:46.000Z</time>
      </trkpt>
      <trkpt lat="39.84805" lon="-8.744153">
        <ele>124.3</ele>
        <time>1970-01-01T00:08:47.000Z</time>
      </trkpt>
      <trkpt lat="39.848073" lon="-8.744156">
        <ele>124.2</ele>
        <time>1970-01-01T00:08:48.000Z</time>
      </trkpt>
      <trkpt lat="39.848095" lon="-8.744163">
        <ele>124.1</ele>
        <time>1970-01-01T00:08:49.000Z</time>
      </trkpt>
      <trkpt lat="39.848117" lon="-8.744176">
        <ele>124.2</ele>
        <time>1970-01-01T00:08:50.000Z</time>
      </trkpt>
      <trkpt lat="39.848138" lon="-8.744191">
        <ele>124.1</ele>
        <time>1970-01-01T00:08:51.000Z</time>
      </trkpt>
      <trkpt lat="39.84816" lon="-8.744206">
        <ele>124.1</ele>
        <time>1970-01-01T00:08:52.000Z</time>
      </trkpt>
      <trkpt lat="39.84818" lon="-8.744223">
        <ele>124.1</ele>
        <time>1970-01-01T00:08:53.000Z</time>
      </trkpt>
      <trkpt lat="39.848198" lon="-8.744238">
        <ele>124.1</ele>
        <time>1970-01-01T00:08:54.000Z</time>
      </trkpt>
      <trkpt lat="39.848217" lon="-8.744248">
        <ele>124.1</ele>
        <time>1970-01-01T00:08:55.000Z</time>
      </trkpt>
      <trkpt lat="39.848238" lon="-8.744256">
        <ele>124.1</ele>
        <time>1970-01-01T00:08:56.000Z</time>
      </trkpt>
      <trkpt lat="39.848258" lon="-8.744259">
        <ele>124</ele>
        <time>1970-01-01T00:08:57.000Z</time>
      </trkpt>
      <trkpt lat="39.848275" lon="-8.744261">
        <ele>124</ele>
        <time>1970-01-01T00:08:58.000Z</time>
      </trkpt>
      <trkpt lat="39.848289" lon="-8.744265">
        <ele>124.1</ele>
        <time>1970-01-01T00:08:59.000Z</time>
      </trkpt>
      <trkpt lat="39.848301" lon="-8.744272">
        <ele>124.1</ele>
        <time>1970-01-01T00:09:00.000Z</time>
      </trkpt>
      <trkpt lat="39.848309" lon="-8.744279">
        <ele>124.1</ele>
        <time>1970-01-01T00:09:01.000Z</time>
      </trkpt>
      <trkpt lat="39.848318" lon="-8.744288">
        <ele>124.1</ele>
        <time>1970-01-01T00:09:02.000Z</time>
      </trkpt>
      <trkpt lat="39.848328" lon="-8.7443">
        <ele>124.1</ele>
        <time>1970-01-01T00:09:03.000Z</time>
      </trkpt>
      <trkpt lat="39.848337" lon="-8.744315">
        <ele>124</ele>
        <time>1970-01-01T00:09:04.000Z</time>
      </trkpt>
      <trkpt lat="39.848342" lon="-8.744336">
        <ele>124</ele>
        <time>1970-01-01T00:09:05.000Z</time>
      </trkpt>
      <trkpt lat="39.848346" lon="-8.744359">
        <ele>123.9</ele>
        <time>1970-01-01T00:09:06.000Z</time>
      </trkpt>
      <trkpt lat="39.84835" lon="-8.74438">
        <ele>123.9</ele>
        <time>1970-01-01T00:09:07.000Z</time>
      </trkpt>
      <trkpt lat="39.848364" lon="-8.744438">
        <ele>123.8</ele>
        <time>1970-01-01T00:09:08.000Z</time>
      </trkpt>
      <trkpt lat="39.848369" lon="-8.744439">
        <ele>123.8</ele>
        <time>1970-01-01T00:09:09.000Z</time>
      </trkpt>
      <trkpt lat="39.848375" lon="-8.74444">
        <ele>123.8</ele>
        <time>1970-01-01T00:09:10.000Z</time>
      </trkpt>
      <trkpt lat="39.848385" lon="-8.744444">
        <ele>123.8</ele>
        <time>1970-01-01T00:09:11.000Z</time>
      </trkpt>
      <trkpt lat="39.848399" lon="-8.74445">
        <ele>123.8</ele>
        <time>1970-01-01T00:09:12.000Z</time>
      </trkpt>
      <trkpt lat="39.848414" lon="-8.744461">
        <ele>123.8</ele>
        <time>1970-01-01T00:09:13.000Z</time>
      </trkpt>
      <trkpt lat="39.848428" lon="-8.744476">
        <ele>123.8</ele>
        <time>1970-01-01T00:09:14.000Z</time>
      </trkpt>
      <trkpt lat="39.848444" lon="-8.744494">
        <ele>123.8</ele>
        <time>1970-01-01T00:09:15.000Z</time>
      </trkpt>
      <trkpt lat="39.84846" lon="-8.744515">
        <ele>123.8</ele>
        <time>1970-01-01T00:09:16.000Z</time>
      </trkpt>
      <trkpt lat="39.848481" lon="-8.744537">
        <ele>123.7</ele>
        <time>1970-01-01T00:09:17.000Z</time>
      </trkpt>
      <trkpt lat="39.848508" lon="-8.744559">
        <ele>123.7</ele>
        <time>1970-01-01T00:09:18.000Z</time>
      </trkpt>
      <trkpt lat="39.848541" lon="-8.744581">
        <ele>123.6</ele>
        <time>1970-01-01T00:09:19.000Z</time>
      </trkpt>
      <trkpt lat="39.848575" lon="-8.744606">
        <ele>123.4</ele>
        <time>1970-01-01T00:09:20.000Z</time>
      </trkpt>
      <trkpt lat="39.848606" lon="-8.744631">
        <ele>123.3</ele>
        <time>1970-01-01T00:09:21.000Z</time>
      </trkpt>
      <trkpt lat="39.848635" lon="-8.744656">
        <ele>123.1</ele>
        <time>1970-01-01T00:09:22.000Z</time>
      </trkpt>
      <trkpt lat="39.84866" lon="-8.744681">
        <ele>123.1</ele>
        <time>1970-01-01T00:09:23.000Z</time>
      </trkpt>
      <trkpt lat="39.848683" lon="-8.744704">
        <ele>122.9</ele>
        <time>1970-01-01T00:09:24.000Z</time>
      </trkpt>
      <trkpt lat="39.848708" lon="-8.744726">
        <ele>122.9</ele>
        <time>1970-01-01T00:09:25.000Z</time>
      </trkpt>
      <trkpt lat="39.848734" lon="-8.744749">
        <ele>122.8</ele>
        <time>1970-01-01T00:09:26.000Z</time>
      </trkpt>
      <trkpt lat="39.848765" lon="-8.74477">
        <ele>122.8</ele>
        <time>1970-01-01T00:09:27.000Z</time>
      </trkpt>
      <trkpt lat="39.848801" lon="-8.744791">
        <ele>122.7</ele>
        <time>1970-01-01T00:09:28.000Z</time>
      </trkpt>
      <trkpt lat="39.848836" lon="-8.744812">
        <ele>122.7</ele>
        <time>1970-01-01T00:09:29.000Z</time>
      </trkpt>
      <trkpt lat="39.848866" lon="-8.744835">
        <ele>122.5</ele>
        <time>1970-01-01T00:09:30.000Z</time>
      </trkpt>
      <trkpt lat="39.848892" lon="-8.744855">
        <ele>122.4</ele>
        <time>1970-01-01T00:09:31.000Z</time>
      </trkpt>
      <trkpt lat="39.848915" lon="-8.744869">
        <ele>122.1</ele>
        <time>1970-01-01T00:09:32.000Z</time>
      </trkpt>
      <trkpt lat="39.848937" lon="-8.744885">
        <ele>122.1</ele>
        <time>1970-01-01T00:09:33.000Z</time>
      </trkpt>
      <trkpt lat="39.848959" lon="-8.744901">
        <ele>122.1</ele>
        <time>1970-01-01T00:09:34.000Z</time>
      </trkpt>
      <trkpt lat="39.848983" lon="-8.744915">
        <ele>121.8</ele>
        <time>1970-01-01T00:09:35.000Z</time>
      </trkpt>
      <trkpt lat="39.849007" lon="-8.744923">
        <ele>121.8</ele>
        <time>1970-01-01T00:09:36.000Z</time>
      </trkpt>
      <trkpt lat="39.849028" lon="-8.744929">
        <ele>121.8</ele>
        <time>1970-01-01T00:09:37.000Z</time>
      </trkpt>
      <trkpt lat="39.849043" lon="-8.744934">
        <ele>121.7</ele>
        <time>1970-01-01T00:09:38.000Z</time>
      </trkpt>
      <trkpt lat="39.849056" lon="-8.744943">
        <ele>121.7</ele>
        <time>1970-01-01T00:09:39.000Z</time>
      </trkpt>
      <trkpt lat="39.84907" lon="-8.744955">
        <ele>121.6</ele>
        <time>1970-01-01T00:09:40.000Z</time>
      </trkpt>
      <trkpt lat="39.849084" lon="-8.74497">
        <ele>121.6</ele>
        <time>1970-01-01T00:09:41.000Z</time>
      </trkpt>
      <trkpt lat="39.8491" lon="-8.744986">
        <ele>121.6</ele>
        <time>1970-01-01T00:09:42.000Z</time>
      </trkpt>
      <trkpt lat="39.849117" lon="-8.745003">
        <ele>121.5</ele>
        <time>1970-01-01T00:09:43.000Z</time>
      </trkpt>
      <trkpt lat="39.849138" lon="-8.745023">
        <ele>121.5</ele>
        <time>1970-01-01T00:09:44.000Z</time>
      </trkpt>
      <trkpt lat="39.849162" lon="-8.745044">
        <ele>121.5</ele>
        <time>1970-01-01T00:09:45.000Z</time>
      </trkpt>
      <trkpt lat="39.849188" lon="-8.745066">
        <ele>121.4</ele>
        <time>1970-01-01T00:09:46.000Z</time>
      </trkpt>
      <trkpt lat="39.849217" lon="-8.745089">
        <ele>121.4</ele>
        <time>1970-01-01T00:09:47.000Z</time>
      </trkpt>
      <trkpt lat="39.849245" lon="-8.745117">
        <ele>121.3</ele>
        <time>1970-01-01T00:09:48.000Z</time>
      </trkpt>
      <trkpt lat="39.84927" lon="-8.745146">
        <ele>121.2</ele>
        <time>1970-01-01T00:09:49.000Z</time>
      </trkpt>
      <trkpt lat="39.849296" lon="-8.745175">
        <ele>121.1</ele>
        <time>1970-01-01T00:09:50.000Z</time>
      </trkpt>
      <trkpt lat="39.849322" lon="-8.745206">
        <ele>120.8</ele>
        <time>1970-01-01T00:09:51.000Z</time>
      </trkpt>
      <trkpt lat="39.849352" lon="-8.745241">
        <ele>120.7</ele>
        <time>1970-01-01T00:09:52.000Z</time>
      </trkpt>
      <trkpt lat="39.849381" lon="-8.745275">
        <ele>120.4</ele>
        <time>1970-01-01T00:09:53.000Z</time>
      </trkpt>
      <trkpt lat="39.84941" lon="-8.745305">
        <ele>120.2</ele>
        <time>1970-01-01T00:09:54.000Z</time>
      </trkpt>
      <trkpt lat="39.849436" lon="-8.745333">
        <ele>120</ele>
        <time>1970-01-01T00:09:55.000Z</time>
      </trkpt>
      <trkpt lat="39.849461" lon="-8.745359">
        <ele>120</ele>
        <time>1970-01-01T00:09:56.000Z</time>
      </trkpt>
      <trkpt lat="39.849485" lon="-8.745383">
        <ele>119.8</ele>
        <time>1970-01-01T00:09:57.000Z</time>
      </trkpt>
      <trkpt lat="39.849504" lon="-8.745404">
        <ele>119.6</ele>
        <time>1970-01-01T00:09:58.000Z</time>
      </trkpt>
      <trkpt lat="39.849521" lon="-8.745424">
        <ele>119.6</ele>
        <time>1970-01-01T00:09:59.000Z</time>
      </trkpt>
      <trkpt lat="39.849535" lon="-8.745443">
        <ele>119.4</ele>
        <time>1970-01-01T00:10:00.000Z</time>
      </trkpt>
      <trkpt lat="39.849546" lon="-8.745462">
        <ele>119.4</ele>
        <time>1970-01-01T00:10:01.000Z</time>
      </trkpt>
      <trkpt lat="39.849557" lon="-8.745481">
        <ele>119.4</ele>
        <time>1970-01-01T00:10:02.000Z</time>
      </trkpt>
      <trkpt lat="39.849566" lon="-8.745496">
        <ele>119.4</ele>
        <time>1970-01-01T00:10:03.000Z</time>
      </trkpt>
      <trkpt lat="39.849573" lon="-8.745516">
        <ele>119.2</ele>
        <time>1970-01-01T00:10:04.000Z</time>
      </trkpt>
      <trkpt lat="39.84958" lon="-8.745538">
        <ele>119.2</ele>
        <time>1970-01-01T00:10:05.000Z</time>
      </trkpt>
      <trkpt lat="39.849587" lon="-8.745563">
        <ele>119</ele>
        <time>1970-01-01T00:10:06.000Z</time>
      </trkpt>
      <trkpt lat="39.849619" lon="-8.745656">
        <ele>118.7</ele>
        <time>1970-01-01T00:10:07.000Z</time>
      </trkpt>
      <trkpt lat="39.849625" lon="-8.745665">
        <ele>118.7</ele>
        <time>1970-01-01T00:10:08.000Z</time>
      </trkpt>
      <trkpt lat="39.849638" lon="-8.745683">
        <ele>118.6</ele>
        <time>1970-01-01T00:10:09.000Z</time>
      </trkpt>
      <trkpt lat="39.849653" lon="-8.745706">
        <ele>118.6</ele>
        <time>1970-01-01T00:10:10.000Z</time>
      </trkpt>
      <trkpt lat="39.849671" lon="-8.745732">
        <ele>118.5</ele>
        <time>1970-01-01T00:10:11.000Z</time>
      </trkpt>
      <trkpt lat="39.849689" lon="-8.745766">
        <ele>118.4</ele>
        <time>1970-01-01T00:10:12.000Z</time>
      </trkpt>
      <trkpt lat="39.84971" lon="-8.745808">
        <ele>118.4</ele>
        <time>1970-01-01T00:10:13.000Z</time>
      </trkpt>
      <trkpt lat="39.849729" lon="-8.745853">
        <ele>118.3</ele>
        <time>1970-01-01T00:10:14.000Z</time>
      </trkpt>
      <trkpt lat="39.849749" lon="-8.745896">
        <ele>118.3</ele>
        <time>1970-01-01T00:10:15.000Z</time>
      </trkpt>
      <trkpt lat="39.84977" lon="-8.745935">
        <ele>118.2</ele>
        <time>1970-01-01T00:10:16.000Z</time>
      </trkpt>
      <trkpt lat="39.849791" lon="-8.745971">
        <ele>118.2</ele>
        <time>1970-01-01T00:10:17.000Z</time>
      </trkpt>
      <trkpt lat="39.849812" lon="-8.746005">
        <ele>118.2</ele>
        <time>1970-01-01T00:10:18.000Z</time>
      </trkpt>
      <trkpt lat="39.849835" lon="-8.74604">
        <ele>118.1</ele>
        <time>1970-01-01T00:10:19.000Z</time>
      </trkpt>
      <trkpt lat="39.84986" lon="-8.746077">
        <ele>118</ele>
        <time>1970-01-01T00:10:20.000Z</time>
      </trkpt>
      <trkpt lat="39.849886" lon="-8.746116">
        <ele>118</ele>
        <time>1970-01-01T00:10:21.000Z</time>
      </trkpt>
      <trkpt lat="39.849916" lon="-8.746153">
        <ele>117.9</ele>
        <time>1970-01-01T00:10:22.000Z</time>
      </trkpt>
      <trkpt lat="39.849946" lon="-8.746183">
        <ele>117.9</ele>
        <time>1970-01-01T00:10:23.000Z</time>
      </trkpt>
      <trkpt lat="39.849978" lon="-8.746205">
        <ele>117.8</ele>
        <time>1970-01-01T00:10:24.000Z</time>
      </trkpt>
      <trkpt lat="39.850007" lon="-8.746226">
        <ele>117.9</ele>
        <time>1970-01-01T00:10:25.000Z</time>
      </trkpt>
      <trkpt lat="39.850033" lon="-8.746246">
        <ele>117.9</ele>
        <time>1970-01-01T00:10:26.000Z</time>
      </trkpt>
      <trkpt lat="39.850053" lon="-8.746261">
        <ele>117.9</ele>
        <time>1970-01-01T00:10:27.000Z</time>
      </trkpt>
      <trkpt lat="39.85007" lon="-8.746277">
        <ele>117.9</ele>
        <time>1970-01-01T00:10:28.000Z</time>
      </trkpt>
      <trkpt lat="39.850086" lon="-8.746294">
        <ele>117.9</ele>
        <time>1970-01-01T00:10:29.000Z</time>
      </trkpt>
      <trkpt lat="39.850102" lon="-8.746312">
        <ele>118</ele>
        <time>1970-01-01T00:10:30.000Z</time>
      </trkpt>
      <trkpt lat="39.850115" lon="-8.746332">
        <ele>118</ele>
        <time>1970-01-01T00:10:31.000Z</time>
      </trkpt>
      <trkpt lat="39.850127" lon="-8.746353">
        <ele>118</ele>
        <time>1970-01-01T00:10:32.000Z</time>
      </trkpt>
      <trkpt lat="39.850139" lon="-8.746375">
        <ele>118.1</ele>
        <time>1970-01-01T00:10:33.000Z</time>
      </trkpt>
      <trkpt lat="39.850152" lon="-8.746401">
        <ele>118.1</ele>
        <time>1970-01-01T00:10:34.000Z</time>
      </trkpt>
      <trkpt lat="39.850167" lon="-8.746428">
        <ele>118.2</ele>
        <time>1970-01-01T00:10:35.000Z</time>
      </trkpt>
      <trkpt lat="39.850185" lon="-8.746454">
        <ele>118.1</ele>
        <time>1970-01-01T00:10:36.000Z</time>
      </trkpt>
      <trkpt lat="39.850205" lon="-8.746476">
        <ele>118.3</ele>
        <time>1970-01-01T00:10:37.000Z</time>
      </trkpt>
      <trkpt lat="39.850222" lon="-8.746496">
        <ele>118.2</ele>
        <time>1970-01-01T00:10:38.000Z</time>
      </trkpt>
      <trkpt lat="39.850237" lon="-8.746517">
        <ele>118.4</ele>
        <time>1970-01-01T00:10:39.000Z</time>
      </trkpt>
      <trkpt lat="39.850256" lon="-8.746541">
        <ele>118.4</ele>
        <time>1970-01-01T00:10:40.000Z</time>
      </trkpt>
      <trkpt lat="39.850281" lon="-8.746565">
        <ele>118.6</ele>
        <time>1970-01-01T00:10:41.000Z</time>
      </trkpt>
      <trkpt lat="39.850307" lon="-8.746587">
        <ele>118.7</ele>
        <time>1970-01-01T00:10:42.000Z</time>
      </trkpt>
      <trkpt lat="39.850336" lon="-8.746612">
        <ele>118.9</ele>
        <time>1970-01-01T00:10:43.000Z</time>
      </trkpt>
      <trkpt lat="39.850364" lon="-8.746642">
        <ele>119</ele>
        <time>1970-01-01T00:10:44.000Z</time>
      </trkpt>
      <trkpt lat="39.850387" lon="-8.746675">
        <ele>118.9</ele>
        <time>1970-01-01T00:10:45.000Z</time>
      </trkpt>
      <trkpt lat="39.850409" lon="-8.746705">
        <ele>119.1</ele>
        <time>1970-01-01T00:10:46.000Z</time>
      </trkpt>
      <trkpt lat="39.850429" lon="-8.746732">
        <ele>119.2</ele>
        <time>1970-01-01T00:10:47.000Z</time>
      </trkpt>
      <trkpt lat="39.850445" lon="-8.746756">
        <ele>119.1</ele>
        <time>1970-01-01T00:10:48.000Z</time>
      </trkpt>
      <trkpt lat="39.850458" lon="-8.746782">
        <ele>119.3</ele>
        <time>1970-01-01T00:10:49.000Z</time>
      </trkpt>
      <trkpt lat="39.850466" lon="-8.746807">
        <ele>119.2</ele>
        <time>1970-01-01T00:10:50.000Z</time>
      </trkpt>
      <trkpt lat="39.850471" lon="-8.746831">
        <ele>119.2</ele>
        <time>1970-01-01T00:10:51.000Z</time>
      </trkpt>
      <trkpt lat="39.850475" lon="-8.746856">
        <ele>119.1</ele>
        <time>1970-01-01T00:10:52.000Z</time>
      </trkpt>
      <trkpt lat="39.850478" lon="-8.746876">
        <ele>119.1</ele>
        <time>1970-01-01T00:10:53.000Z</time>
      </trkpt>
      <trkpt lat="39.850477" lon="-8.746889">
        <ele>119</ele>
        <time>1970-01-01T00:10:54.000Z</time>
      </trkpt>
      <trkpt lat="39.850472" lon="-8.746899">
        <ele>119</ele>
        <time>1970-01-01T00:10:55.000Z</time>
      </trkpt>
      <trkpt lat="39.850467" lon="-8.746911">
        <ele>119</ele>
        <time>1970-01-01T00:10:56.000Z</time>
      </trkpt>
      <trkpt lat="39.850462" lon="-8.746926">
        <ele>118.9</ele>
        <time>1970-01-01T00:10:57.000Z</time>
      </trkpt>
      <trkpt lat="39.850456" lon="-8.746948">
        <ele>118.8</ele>
        <time>1970-01-01T00:10:58.000Z</time>
      </trkpt>
      <trkpt lat="39.850451" lon="-8.746968">
        <ele>118.7</ele>
        <time>1970-01-01T00:10:59.000Z</time>
      </trkpt>
      <trkpt lat="39.850444" lon="-8.746995">
        <ele>118.7</ele>
        <time>1970-01-01T00:11:00.000Z</time>
      </trkpt>
      <trkpt lat="39.850441" lon="-8.747027">
        <ele>118.6</ele>
        <time>1970-01-01T00:11:01.000Z</time>
      </trkpt>
      <trkpt lat="39.850439" lon="-8.747065">
        <ele>118.5</ele>
        <time>1970-01-01T00:11:02.000Z</time>
      </trkpt>
      <trkpt lat="39.85044" lon="-8.747103">
        <ele>118.4</ele>
        <time>1970-01-01T00:11:03.000Z</time>
      </trkpt>
      <trkpt lat="39.850443" lon="-8.747141">
        <ele>118.3</ele>
        <time>1970-01-01T00:11:04.000Z</time>
      </trkpt>
      <trkpt lat="39.850447" lon="-8.747181">
        <ele>118.2</ele>
        <time>1970-01-01T00:11:05.000Z</time>
      </trkpt>
      <trkpt lat="39.850452" lon="-8.747221">
        <ele>118.1</ele>
        <time>1970-01-01T00:11:06.000Z</time>
      </trkpt>
      <trkpt lat="39.850458" lon="-8.747263">
        <ele>118</ele>
        <time>1970-01-01T00:11:07.000Z</time>
      </trkpt>
      <trkpt lat="39.850465" lon="-8.747302">
        <ele>118</ele>
        <time>1970-01-01T00:11:08.000Z</time>
      </trkpt>
      <trkpt lat="39.850472" lon="-8.747341">
        <ele>117.9</ele>
        <time>1970-01-01T00:11:09.000Z</time>
      </trkpt>
      <trkpt lat="39.85048" lon="-8.747379">
        <ele>117.8</ele>
        <time>1970-01-01T00:11:10.000Z</time>
      </trkpt>
      <trkpt lat="39.85049" lon="-8.74742">
        <ele>117.7</ele>
        <time>1970-01-01T00:11:11.000Z</time>
      </trkpt>
      <trkpt lat="39.8505" lon="-8.747466">
        <ele>117.7</ele>
        <time>1970-01-01T00:11:12.000Z</time>
      </trkpt>
      <trkpt lat="39.85051" lon="-8.747518">
        <ele>117.5</ele>
        <time>1970-01-01T00:11:13.000Z</time>
      </trkpt>
      <trkpt lat="39.85052" lon="-8.74757">
        <ele>117.3</ele>
        <time>1970-01-01T00:11:14.000Z</time>
      </trkpt>
      <trkpt lat="39.850529" lon="-8.747624">
        <ele>117.2</ele>
        <time>1970-01-01T00:11:15.000Z</time>
      </trkpt>
      <trkpt lat="39.850539" lon="-8.747677">
        <ele>117.1</ele>
        <time>1970-01-01T00:11:16.000Z</time>
      </trkpt>
      <trkpt lat="39.850549" lon="-8.747731">
        <ele>117</ele>
        <time>1970-01-01T00:11:17.000Z</time>
      </trkpt>
      <trkpt lat="39.850559" lon="-8.747786">
        <ele>116.9</ele>
        <time>1970-01-01T00:11:18.000Z</time>
      </trkpt>
      <trkpt lat="39.850567" lon="-8.747841">
        <ele>116.9</ele>
        <time>1970-01-01T00:11:19.000Z</time>
      </trkpt>
      <trkpt lat="39.850572" lon="-8.747901">
        <ele>116.8</ele>
        <time>1970-01-01T00:11:20.000Z</time>
      </trkpt>
      <trkpt lat="39.850577" lon="-8.747962">
        <ele>116.5</ele>
        <time>1970-01-01T00:11:21.000Z</time>
      </trkpt>
      <trkpt lat="39.85058" lon="-8.748022">
        <ele>116.4</ele>
        <time>1970-01-01T00:11:22.000Z</time>
      </trkpt>
      <trkpt lat="39.850582" lon="-8.748075">
        <ele>116.3</ele>
        <time>1970-01-01T00:11:23.000Z</time>
      </trkpt>
      <trkpt lat="39.850584" lon="-8.748124">
        <ele>116.1</ele>
        <time>1970-01-01T00:11:24.000Z</time>
      </trkpt>
      <trkpt lat="39.850582" lon="-8.748167">
        <ele>116.1</ele>
        <time>1970-01-01T00:11:25.000Z</time>
      </trkpt>
      <trkpt lat="39.850582" lon="-8.748201">
        <ele>116.1</ele>
        <time>1970-01-01T00:11:26.000Z</time>
      </trkpt>
      <trkpt lat="39.850581" lon="-8.748227">
        <ele>116</ele>
        <time>1970-01-01T00:11:27.000Z</time>
      </trkpt>
      <trkpt lat="39.850581" lon="-8.748245">
        <ele>116</ele>
        <time>1970-01-01T00:11:28.000Z</time>
      </trkpt>
      <trkpt lat="39.850583" lon="-8.748259">
        <ele>116</ele>
        <time>1970-01-01T00:11:29.000Z</time>
      </trkpt>
      <trkpt lat="39.850585" lon="-8.748269">
        <ele>116</ele>
        <time>1970-01-01T00:11:30.000Z</time>
      </trkpt>
      <trkpt lat="39.850587" lon="-8.748278">
        <ele>116</ele>
        <time>1970-01-01T00:11:31.000Z</time>
      </trkpt>
      <trkpt lat="39.850588" lon="-8.748286">
        <ele>116</ele>
        <time>1970-01-01T00:11:32.000Z</time>
      </trkpt>
      <trkpt lat="39.85059" lon="-8.748295">
        <ele>116.2</ele>
        <time>1970-01-01T00:11:33.000Z</time>
      </trkpt>
      <trkpt lat="39.850591" lon="-8.748303">
        <ele>116.2</ele>
        <time>1970-01-01T00:11:34.000Z</time>
      </trkpt>
      <trkpt lat="39.850592" lon="-8.748312">
        <ele>116.2</ele>
        <time>1970-01-01T00:11:35.000Z</time>
      </trkpt>
      <trkpt lat="39.850592" lon="-8.748321">
        <ele>116.2</ele>
        <time>1970-01-01T00:11:36.000Z</time>
      </trkpt>
      <trkpt lat="39.850594" lon="-8.748329">
        <ele>116.2</ele>
        <time>1970-01-01T00:11:37.000Z</time>
      </trkpt>
      <trkpt lat="39.850597" lon="-8.748335">
        <ele>116.2</ele>
        <time>1970-01-01T00:11:38.000Z</time>
      </trkpt>
      <trkpt lat="39.850603" lon="-8.748353">
        <ele>116.2</ele>
        <time>1970-01-01T00:11:40.000Z</time>
      </trkpt>
      <trkpt lat="39.850603" lon="-8.748353">
        <ele>116.2</ele>
        <time>1970-01-01T00:11:41.000Z</time>
      </trkpt>
      <trkpt lat="39.850604" lon="-8.748351">
        <ele>116.2</ele>
        <time>1970-01-01T00:11:42.000Z</time>
      </trkpt>
      <trkpt lat="39.850604" lon="-8.748349">
        <ele>116.2</ele>
        <time>1970-01-01T00:11:43.000Z</time>
      </trkpt>
      <trkpt lat="39.850606" lon="-8.748347">
        <ele>116.2</ele>
        <time>1970-01-01T00:11:44.000Z</time>
      </trkpt>
      <trkpt lat="39.850608" lon="-8.748343">
        <ele>116.2</ele>
        <time>1970-01-01T00:11:45.000Z</time>
      </trkpt>
      <trkpt lat="39.850609" lon="-8.748333">
        <ele>116.2</ele>
        <time>1970-01-01T00:11:46.000Z</time>
      </trkpt>
      <trkpt lat="39.850615" lon="-8.748303">
        <ele>116.2</ele>
        <time>1970-01-01T00:11:47.000Z</time>
      </trkpt>
      <trkpt lat="39.850622" lon="-8.748307">
        <ele>116.2</ele>
        <time>1970-01-01T00:11:49.000Z</time>
      </trkpt>
      <trkpt lat="39.850624" lon="-8.748314">
        <ele>116.3</ele>
        <time>1970-01-01T00:11:51.000Z</time>
      </trkpt>
      <trkpt lat="39.850626" lon="-8.74832">
        <ele>116.3</ele>
        <time>1970-01-01T00:11:52.000Z</time>
      </trkpt>
      <trkpt lat="39.850627" lon="-8.748327">
        <ele>116.3</ele>
        <time>1970-01-01T00:11:55.000Z</time>
      </trkpt>
      <trkpt lat="39.850629" lon="-8.748333">
        <ele>116.3</ele>
        <time>1970-01-01T00:11:56.000Z</time>
      </trkpt>
      <trkpt lat="39.850631" lon="-8.74834">
        <ele>116.4</ele>
        <time>1970-01-01T00:11:57.000Z</time>
      </trkpt>
      <trkpt lat="39.850633" lon="-8.748346">
        <ele>116.4</ele>
        <time>1970-01-01T00:12:02.000Z</time>
      </trkpt>
      <trkpt lat="39.850635" lon="-8.748353">
        <ele>116.4</ele>
        <time>1970-01-01T00:12:03.000Z</time>
      </trkpt>
      <trkpt lat="39.850637" lon="-8.748359">
        <ele>116.4</ele>
        <time>1970-01-01T00:12:04.000Z</time>
      </trkpt>
      <trkpt lat="39.850639" lon="-8.748365">
        <ele>116.4</ele>
        <time>1970-01-01T00:12:05.000Z</time>
      </trkpt>
      <trkpt lat="39.850641" lon="-8.748372">
        <ele>116.4</ele>
        <time>1970-01-01T00:12:06.000Z</time>
      </trkpt>
      <trkpt lat="39.850642" lon="-8.748378">
        <ele>116.4</ele>
        <time>1970-01-01T00:12:07.000Z</time>
      </trkpt>
      <trkpt lat="39.850644" lon="-8.748385">
        <ele>116.4</ele>
        <time>1970-01-01T00:12:08.000Z</time>
      </trkpt>
      <trkpt lat="39.850646" lon="-8.748391">
        <ele>116.4</ele>
        <time>1970-01-01T00:12:09.000Z</time>
      </trkpt>
      <trkpt lat="39.850648" lon="-8.748398">
        <ele>116.4</ele>
        <time>1970-01-01T00:12:10.000Z</time>
      </trkpt>
      <trkpt lat="39.85065" lon="-8.748404">
        <ele>116.4</ele>
        <time>1970-01-01T00:12:11.000Z</time>
      </trkpt>
      <trkpt lat="39.850652" lon="-8.748411">
        <ele>116.4</ele>
        <time>1970-01-01T00:12:12.000Z</time>
      </trkpt>
      <trkpt lat="39.850654" lon="-8.748417">
        <ele>116.4</ele>
        <time>1970-01-01T00:12:13.000Z</time>
      </trkpt>
      <trkpt lat="39.850656" lon="-8.748423">
        <ele>116.7</ele>
        <time>1970-01-01T00:12:16.000Z</time>
      </trkpt>
      <trkpt lat="39.850657" lon="-8.74843">
        <ele>116.7</ele>
        <time>1970-01-01T00:12:18.000Z</time>
      </trkpt>
      <trkpt lat="39.850659" lon="-8.748436">
        <ele>116.7</ele>
        <time>1970-01-01T00:12:20.000Z</time>
      </trkpt>
      <trkpt lat="39.850661" lon="-8.748443">
        <ele>116.7</ele>
        <time>1970-01-01T00:12:21.000Z</time>
      </trkpt>
      <trkpt lat="39.850663" lon="-8.748449">
        <ele>116.7</ele>
        <time>1970-01-01T00:12:23.000Z</time>
      </trkpt>
      <trkpt lat="39.850665" lon="-8.748456">
        <ele>116.7</ele>
        <time>1970-01-01T00:12:24.000Z</time>
      </trkpt>
      <trkpt lat="39.850667" lon="-8.748462">
        <ele>116.7</ele>
        <time>1970-01-01T00:12:25.000Z</time>
      </trkpt>
      <trkpt lat="39.850669" lon="-8.748469">
        <ele>116.7</ele>
        <time>1970-01-01T00:12:26.000Z</time>
      </trkpt>
      <trkpt lat="39.85067" lon="-8.748475">
        <ele>116.7</ele>
        <time>1970-01-01T00:12:28.000Z</time>
      </trkpt>
      <trkpt lat="39.850672" lon="-8.748482">
        <ele>116.7</ele>
        <time>1970-01-01T00:12:31.000Z</time>
      </trkpt>
      <trkpt lat="39.850674" lon="-8.748488">
        <ele>116.7</ele>
        <time>1970-01-01T00:12:32.000Z</time>
      </trkpt>
      <trkpt lat="39.850676" lon="-8.748494">
        <ele>116.7</ele>
        <time>1970-01-01T00:12:33.000Z</time>
      </trkpt>
      <trkpt lat="39.850678" lon="-8.748501">
        <ele>116.7</ele>
        <time>1970-01-01T00:12:34.000Z</time>
      </trkpt>
      <trkpt lat="39.85068" lon="-8.748507">
        <ele>116.7</ele>
        <time>1970-01-01T00:12:35.000Z</time>
      </trkpt>
      <trkpt lat="39.850682" lon="-8.748514">
        <ele>116.7</ele>
        <time>1970-01-01T00:12:36.000Z</time>
      </trkpt>
      <trkpt lat="39.850684" lon="-8.74852">
        <ele>116.7</ele>
        <time>1970-01-01T00:13:14.000Z</time>
      </trkpt>
      <trkpt lat="39.850685" lon="-8.748527">
        <ele>116.7</ele>
        <time>1970-01-01T00:13:15.000Z</time>
      </trkpt>
      <trkpt lat="39.850687" lon="-8.748533">
        <ele>116.7</ele>
        <time>1970-01-01T00:13:16.000Z</time>
      </trkpt>
      <trkpt lat="39.850689" lon="-8.74854">
        <ele>117</ele>
        <time>1970-01-01T00:13:17.000Z</time>
      </trkpt>
      <trkpt lat="39.850691" lon="-8.748546">
        <ele>117</ele>
        <time>1970-01-01T00:13:18.000Z</time>
      </trkpt>
      <trkpt lat="39.850694" lon="-8.748552">
        <ele>117</ele>
        <time>1970-01-01T00:13:19.000Z</time>
      </trkpt>
      <trkpt lat="39.8507" lon="-8.748564">
        <ele>117</ele>
        <time>1970-01-01T00:13:20.000Z</time>
      </trkpt>
      <trkpt lat="39.850707" lon="-8.748582">
        <ele>117</ele>
        <time>1970-01-01T00:13:21.000Z</time>
      </trkpt>
      <trkpt lat="39.850712" lon="-8.748603">
        <ele>117</ele>
        <time>1970-01-01T00:13:22.000Z</time>
      </trkpt>
      <trkpt lat="39.850716" lon="-8.748624">
        <ele>117</ele>
        <time>1970-01-01T00:13:23.000Z</time>
      </trkpt>
      <trkpt lat="39.850717" lon="-8.748644">
        <ele>117</ele>
        <time>1970-01-01T00:13:24.000Z</time>
      </trkpt>
      <trkpt lat="39.850717" lon="-8.748665">
        <ele>117</ele>
        <time>1970-01-01T00:13:25.000Z</time>
      </trkpt>
      <trkpt lat="39.850714" lon="-8.748691">
        <ele>117</ele>
        <time>1970-01-01T00:13:26.000Z</time>
      </trkpt>
      <trkpt lat="39.850711" lon="-8.748721">
        <ele>117</ele>
        <time>1970-01-01T00:13:27.000Z</time>
      </trkpt>
      <trkpt lat="39.850708" lon="-8.74875">
        <ele>116.9</ele>
        <time>1970-01-01T00:13:28.000Z</time>
      </trkpt>
      <trkpt lat="39.850705" lon="-8.748779">
        <ele>116.9</ele>
        <time>1970-01-01T00:13:29.000Z</time>
      </trkpt>
      <trkpt lat="39.850702" lon="-8.748809">
        <ele>116.9</ele>
        <time>1970-01-01T00:13:30.000Z</time>
      </trkpt>
      <trkpt lat="39.850701" lon="-8.748839">
        <ele>116.9</ele>
        <time>1970-01-01T00:13:31.000Z</time>
      </trkpt>
      <trkpt lat="39.8507" lon="-8.748868">
        <ele>116.9</ele>
        <time>1970-01-01T00:13:32.000Z</time>
      </trkpt>
      <trkpt lat="39.850699" lon="-8.748897">
        <ele>117</ele>
        <time>1970-01-01T00:13:33.000Z</time>
      </trkpt>
      <trkpt lat="39.850698" lon="-8.748927">
        <ele>117</ele>
        <time>1970-01-01T00:13:34.000Z</time>
      </trkpt>
      <trkpt lat="39.850699" lon="-8.748958">
        <ele>117</ele>
        <time>1970-01-01T00:13:35.000Z</time>
      </trkpt>
      <trkpt lat="39.850698" lon="-8.748988">
        <ele>117</ele>
        <time>1970-01-01T00:13:36.000Z</time>
      </trkpt>
      <trkpt lat="39.850697" lon="-8.749022">
        <ele>117</ele>
        <time>1970-01-01T00:13:37.000Z</time>
      </trkpt>
      <trkpt lat="39.850696" lon="-8.74906">
        <ele>117</ele>
        <time>1970-01-01T00:13:38.000Z</time>
      </trkpt>
      <trkpt lat="39.850695" lon="-8.749102">
        <ele>117.1</ele>
        <time>1970-01-01T00:13:39.000Z</time>
      </trkpt>
      <trkpt lat="39.850692" lon="-8.749152">
        <ele>117.2</ele>
        <time>1970-01-01T00:13:40.000Z</time>
      </trkpt>
      <trkpt lat="39.850692" lon="-8.749206">
        <ele>117.3</ele>
        <time>1970-01-01T00:13:41.000Z</time>
      </trkpt>
      <trkpt lat="39.850695" lon="-8.749261">
        <ele>117.4</ele>
        <time>1970-01-01T00:13:42.000Z</time>
      </trkpt>
      <trkpt lat="39.850698" lon="-8.749315">
        <ele>117.5</ele>
        <time>1970-01-01T00:13:43.000Z</time>
      </trkpt>
      <trkpt lat="39.8507" lon="-8.749365">
        <ele>117.6</ele>
        <time>1970-01-01T00:13:44.000Z</time>
      </trkpt>
      <trkpt lat="39.8507" lon="-8.749412">
        <ele>117.8</ele>
        <time>1970-01-01T00:13:45.000Z</time>
      </trkpt>
      <trkpt lat="39.850696" lon="-8.749454">
        <ele>117.9</ele>
        <time>1970-01-01T00:13:46.000Z</time>
      </trkpt>
      <trkpt lat="39.85069" lon="-8.749492">
        <ele>117.9</ele>
        <time>1970-01-01T00:13:47.000Z</time>
      </trkpt>
      <trkpt lat="39.850686" lon="-8.749526">
        <ele>117.7</ele>
        <time>1970-01-01T00:13:48.000Z</time>
      </trkpt>
      <trkpt lat="39.850684" lon="-8.749556">
        <ele>117.8</ele>
        <time>1970-01-01T00:13:49.000Z</time>
      </trkpt>
      <trkpt lat="39.850686" lon="-8.749591">
        <ele>117.8</ele>
        <time>1970-01-01T00:13:50.000Z</time>
      </trkpt>
      <trkpt lat="39.850686" lon="-8.74963">
        <ele>117.9</ele>
        <time>1970-01-01T00:13:51.000Z</time>
      </trkpt>
      <trkpt lat="39.850682" lon="-8.749673">
        <ele>117.9</ele>
        <time>1970-01-01T00:13:52.000Z</time>
      </trkpt>
      <trkpt lat="39.850672" lon="-8.749718">
        <ele>117.9</ele>
        <time>1970-01-01T00:13:53.000Z</time>
      </trkpt>
      <trkpt lat="39.85066" lon="-8.749763">
        <ele>117.8</ele>
        <time>1970-01-01T00:13:54.000Z</time>
      </trkpt>
      <trkpt lat="39.850644" lon="-8.749806">
        <ele>117.5</ele>
        <time>1970-01-01T00:13:55.000Z</time>
      </trkpt>
      <trkpt lat="39.850628" lon="-8.749847">
        <ele>117.4</ele>
        <time>1970-01-01T00:13:56.000Z</time>
      </trkpt>
      <trkpt lat="39.850612" lon="-8.749887">
        <ele>117.1</ele>
        <time>1970-01-01T00:13:57.000Z</time>
      </trkpt>
      <trkpt lat="39.8506" lon="-8.749924">
        <ele>117</ele>
        <time>1970-01-01T00:13:58.000Z</time>
      </trkpt>
      <trkpt lat="39.850589" lon="-8.749958">
        <ele>116.8</ele>
        <time>1970-01-01T00:13:59.000Z</time>
      </trkpt>
      <trkpt lat="39.850581" lon="-8.74999">
        <ele>116.7</ele>
        <time>1970-01-01T00:14:00.000Z</time>
      </trkpt>
      <trkpt lat="39.850574" lon="-8.750021">
        <ele>116.5</ele>
        <time>1970-01-01T00:14:01.000Z</time>
      </trkpt>
      <trkpt lat="39.850568" lon="-8.75005">
        <ele>116.5</ele>
        <time>1970-01-01T00:14:02.000Z</time>
      </trkpt>
      <trkpt lat="39.850562" lon="-8.75008">
        <ele>116.3</ele>
        <time>1970-01-01T00:14:03.000Z</time>
      </trkpt>
      <trkpt lat="39.850555" lon="-8.750111">
        <ele>116</ele>
        <time>1970-01-01T00:14:04.000Z</time>
      </trkpt>
      <trkpt lat="39.850543" lon="-8.750146">
        <ele>115.8</ele>
        <time>1970-01-01T00:14:05.000Z</time>
      </trkpt>
      <trkpt lat="39.85053" lon="-8.750183">
        <ele>115.6</ele>
        <time>1970-01-01T00:14:06.000Z</time>
      </trkpt>
      <trkpt lat="39.850515" lon="-8.75022">
        <ele>115.5</ele>
        <time>1970-01-01T00:14:07.000Z</time>
      </trkpt>
      <trkpt lat="39.850502" lon="-8.750252">
        <ele>115.3</ele>
        <time>1970-01-01T00:14:08.000Z</time>
      </trkpt>
      <trkpt lat="39.850488" lon="-8.750282">
        <ele>114.9</ele>
        <time>1970-01-01T00:14:09.000Z</time>
      </trkpt>
      <trkpt lat="39.850473" lon="-8.750311">
        <ele>114.7</ele>
        <time>1970-01-01T00:14:10.000Z</time>
      </trkpt>
      <trkpt lat="39.850459" lon="-8.75034">
        <ele>114.7</ele>
        <time>1970-01-01T00:14:11.000Z</time>
      </trkpt>
      <trkpt lat="39.850449" lon="-8.750364">
        <ele>114.3</ele>
        <time>1970-01-01T00:14:12.000Z</time>
      </trkpt>
      <trkpt lat="39.850442" lon="-8.750386">
        <ele>114.3</ele>
        <time>1970-01-01T00:14:13.000Z</time>
      </trkpt>
      <trkpt lat="39.850439" lon="-8.750406">
        <ele>114.1</ele>
        <time>1970-01-01T00:14:14.000Z</time>
      </trkpt>
      <trkpt lat="39.850437" lon="-8.750423">
        <ele>114.1</ele>
        <time>1970-01-01T00:14:15.000Z</time>
      </trkpt>
      <trkpt lat="39.850433" lon="-8.750443">
        <ele>113.9</ele>
        <time>1970-01-01T00:14:16.000Z</time>
      </trkpt>
      <trkpt lat="39.850426" lon="-8.750468">
        <ele>113.9</ele>
        <time>1970-01-01T00:14:17.000Z</time>
      </trkpt>
      <trkpt lat="39.85042" lon="-8.750498">
        <ele>113.5</ele>
        <time>1970-01-01T00:14:18.000Z</time>
      </trkpt>
      <trkpt lat="39.850417" lon="-8.750534">
        <ele>113.4</ele>
        <time>1970-01-01T00:14:19.000Z</time>
      </trkpt>
      <trkpt lat="39.85042" lon="-8.750659">
        <ele>112.9</ele>
        <time>1970-01-01T00:14:20.000Z</time>
      </trkpt>
      <trkpt lat="39.850424" lon="-8.750671">
        <ele>112.9</ele>
        <time>1970-01-01T00:14:21.000Z</time>
      </trkpt>
      <trkpt lat="39.850432" lon="-8.750694">
        <ele>113.1</ele>
        <time>1970-01-01T00:14:22.000Z</time>
      </trkpt>
      <trkpt lat="39.850445" lon="-8.750724">
        <ele>112.9</ele>
        <time>1970-01-01T00:14:23.000Z</time>
      </trkpt>
      <trkpt lat="39.85046" lon="-8.750757">
        <ele>113</ele>
        <time>1970-01-01T00:14:24.000Z</time>
      </trkpt>
      <trkpt lat="39.850477" lon="-8.750793">
        <ele>112.8</ele>
        <time>1970-01-01T00:14:25.000Z</time>
      </trkpt>
      <trkpt lat="39.850494" lon="-8.75083">
        <ele>112.8</ele>
        <time>1970-01-01T00:14:26.000Z</time>
      </trkpt>
      <trkpt lat="39.850509" lon="-8.750869">
        <ele>112.7</ele>
        <time>1970-01-01T00:14:27.000Z</time>
      </trkpt>
      <trkpt lat="39.850529" lon="-8.750911">
        <ele>112.8</ele>
        <time>1970-01-01T00:14:28.000Z</time>
      </trkpt>
      <trkpt lat="39.850554" lon="-8.75096">
        <ele>112.6</ele>
        <time>1970-01-01T00:14:29.000Z</time>
      </trkpt>
      <trkpt lat="39.85058" lon="-8.751015">
        <ele>112.6</ele>
        <time>1970-01-01T00:14:30.000Z</time>
      </trkpt>
      <trkpt lat="39.850605" lon="-8.751072">
        <ele>112.6</ele>
        <time>1970-01-01T00:14:31.000Z</time>
      </trkpt>
      <trkpt lat="39.850631" lon="-8.751127">
        <ele>112.3</ele>
        <time>1970-01-01T00:14:32.000Z</time>
      </trkpt>
      <trkpt lat="39.850656" lon="-8.751178">
        <ele>112.2</ele>
        <time>1970-01-01T00:14:33.000Z</time>
      </trkpt>
      <trkpt lat="39.85068" lon="-8.751224">
        <ele>111.9</ele>
        <time>1970-01-01T00:14:34.000Z</time>
      </trkpt>
      <trkpt lat="39.850701" lon="-8.751268">
        <ele>111.8</ele>
        <time>1970-01-01T00:14:35.000Z</time>
      </trkpt>
      <trkpt lat="39.85072" lon="-8.751311">
        <ele>111.6</ele>
        <time>1970-01-01T00:14:36.000Z</time>
      </trkpt>
      <trkpt lat="39.850738" lon="-8.751352">
        <ele>111.6</ele>
        <time>1970-01-01T00:14:37.000Z</time>
      </trkpt>
      <trkpt lat="39.850754" lon="-8.751392">
        <ele>111.6</ele>
        <time>1970-01-01T00:14:38.000Z</time>
      </trkpt>
      <trkpt lat="39.85077" lon="-8.751431">
        <ele>111.4</ele>
        <time>1970-01-01T00:14:39.000Z</time>
      </trkpt>
      <trkpt lat="39.850785" lon="-8.751468">
        <ele>111.4</ele>
        <time>1970-01-01T00:14:40.000Z</time>
      </trkpt>
      <trkpt lat="39.850797" lon="-8.751503">
        <ele>111.5</ele>
        <time>1970-01-01T00:14:41.000Z</time>
      </trkpt>
      <trkpt lat="39.850807" lon="-8.751537">
        <ele>111.3</ele>
        <time>1970-01-01T00:14:42.000Z</time>
      </trkpt>
      <trkpt lat="39.850812" lon="-8.751571">
        <ele>111</ele>
        <time>1970-01-01T00:14:43.000Z</time>
      </trkpt>
      <trkpt lat="39.850815" lon="-8.751603">
        <ele>110.8</ele>
        <time>1970-01-01T00:14:44.000Z</time>
      </trkpt>
      <trkpt lat="39.850815" lon="-8.751632">
        <ele>110.8</ele>
        <time>1970-01-01T00:14:45.000Z</time>
      </trkpt>
      <trkpt lat="39.850811" lon="-8.751659">
        <ele>110.5</ele>
        <time>1970-01-01T00:14:46.000Z</time>
      </trkpt>
      <trkpt lat="39.850807" lon="-8.751685">
        <ele>110.3</ele>
        <time>1970-01-01T00:14:47.000Z</time>
      </trkpt>
      <trkpt lat="39.850802" lon="-8.75171">
        <ele>110.3</ele>
        <time>1970-01-01T00:14:48.000Z</time>
      </trkpt>
      <trkpt lat="39.850798" lon="-8.751737">
        <ele>110</ele>
        <time>1970-01-01T00:14:49.000Z</time>
      </trkpt>
      <trkpt lat="39.850795" lon="-8.751767">
        <ele>110</ele>
        <time>1970-01-01T00:14:50.000Z</time>
      </trkpt>
      <trkpt lat="39.850794" lon="-8.751798">
        <ele>109.8</ele>
        <time>1970-01-01T00:14:51.000Z</time>
      </trkpt>
      <trkpt lat="39.850793" lon="-8.75183">
        <ele>109.7</ele>
        <time>1970-01-01T00:14:52.000Z</time>
      </trkpt>
      <trkpt lat="39.850793" lon="-8.751861">
        <ele>109.5</ele>
        <time>1970-01-01T00:14:53.000Z</time>
      </trkpt>
      <trkpt lat="39.850794" lon="-8.751895">
        <ele>109.5</ele>
        <time>1970-01-01T00:14:54.000Z</time>
      </trkpt>
      <trkpt lat="39.850795" lon="-8.751928">
        <ele>109.4</ele>
        <time>1970-01-01T00:14:55.000Z</time>
      </trkpt>
      <trkpt lat="39.850798" lon="-8.751961">
        <ele>109.3</ele>
        <time>1970-01-01T00:14:56.000Z</time>
      </trkpt>
      <trkpt lat="39.850804" lon="-8.751993">
        <ele>109.2</ele>
        <time>1970-01-01T00:14:57.000Z</time>
      </trkpt>
      <trkpt lat="39.850814" lon="-8.752025">
        <ele>109.2</ele>
        <time>1970-01-01T00:14:58.000Z</time>
      </trkpt>
      <trkpt lat="39.850823" lon="-8.752059">
        <ele>109</ele>
        <time>1970-01-01T00:14:59.000Z</time>
      </trkpt>
      <trkpt lat="39.850826" lon="-8.752094">
        <ele>108.9</ele>
        <time>1970-01-01T00:15:00.000Z</time>
      </trkpt>
      <trkpt lat="39.850826" lon="-8.752132">
        <ele>108.7</ele>
        <time>1970-01-01T00:15:01.000Z</time>
      </trkpt>
      <trkpt lat="39.850825" lon="-8.752168">
        <ele>108.6</ele>
        <time>1970-01-01T00:15:02.000Z</time>
      </trkpt>
      <trkpt lat="39.850827" lon="-8.752201">
        <ele>108.4</ele>
        <time>1970-01-01T00:15:03.000Z</time>
      </trkpt>
      <trkpt lat="39.850829" lon="-8.752229">
        <ele>108.4</ele>
        <time>1970-01-01T00:15:04.000Z</time>
      </trkpt>
      <trkpt lat="39.850835" lon="-8.752253">
        <ele>108.3</ele>
        <time>1970-01-01T00:15:05.000Z</time>
      </trkpt>
      <trkpt lat="39.850843" lon="-8.752273">
        <ele>108.3</ele>
        <time>1970-01-01T00:15:06.000Z</time>
      </trkpt>
      <trkpt lat="39.85085" lon="-8.752289">
        <ele>108.3</ele>
        <time>1970-01-01T00:15:07.000Z</time>
      </trkpt>
      <trkpt lat="39.850857" lon="-8.752301">
        <ele>108.2</ele>
        <time>1970-01-01T00:15:08.000Z</time>
      </trkpt>
      <trkpt lat="39.850863" lon="-8.752312">
        <ele>108.2</ele>
        <time>1970-01-01T00:15:09.000Z</time>
      </trkpt>
      <trkpt lat="39.850872" lon="-8.752322">
        <ele>108.2</ele>
        <time>1970-01-01T00:15:10.000Z</time>
      </trkpt>
      <trkpt lat="39.850886" lon="-8.752333">
        <ele>108.1</ele>
        <time>1970-01-01T00:15:11.000Z</time>
      </trkpt>
      <trkpt lat="39.850902" lon="-8.752348">
        <ele>108.1</ele>
        <time>1970-01-01T00:15:12.000Z</time>
      </trkpt>
      <trkpt lat="39.850953" lon="-8.752401">
        <ele>108.1</ele>
        <time>1970-01-01T00:15:13.000Z</time>
      </trkpt>
      <trkpt lat="39.850957" lon="-8.752406">
        <ele>108.1</ele>
        <time>1970-01-01T00:15:14.000Z</time>
      </trkpt>
      <trkpt lat="39.850965" lon="-8.752416">
        <ele>108.2</ele>
        <time>1970-01-01T00:15:15.000Z</time>
      </trkpt>
      <trkpt lat="39.850977" lon="-8.752429">
        <ele>108.2</ele>
        <time>1970-01-01T00:15:16.000Z</time>
      </trkpt>
      <trkpt lat="39.850991" lon="-8.752442">
        <ele>108.2</ele>
        <time>1970-01-01T00:15:17.000Z</time>
      </trkpt>
      <trkpt lat="39.851009" lon="-8.752456">
        <ele>108.3</ele>
        <time>1970-01-01T00:15:18.000Z</time>
      </trkpt>
      <trkpt lat="39.851026" lon="-8.752474">
        <ele>108.3</ele>
        <time>1970-01-01T00:15:19.000Z</time>
      </trkpt>
      <trkpt lat="39.851044" lon="-8.752492">
        <ele>108.3</ele>
        <time>1970-01-01T00:15:20.000Z</time>
      </trkpt>
      <trkpt lat="39.851064" lon="-8.752511">
        <ele>108.6</ele>
        <time>1970-01-01T00:15:21.000Z</time>
      </trkpt>
      <trkpt lat="39.851084" lon="-8.75253">
        <ele>108.7</ele>
        <time>1970-01-01T00:15:22.000Z</time>
      </trkpt>
      <trkpt lat="39.851106" lon="-8.752549">
        <ele>108.9</ele>
        <time>1970-01-01T00:15:23.000Z</time>
      </trkpt>
      <trkpt lat="39.851127" lon="-8.752571">
        <ele>109</ele>
        <time>1970-01-01T00:15:24.000Z</time>
      </trkpt>
      <trkpt lat="39.851146" lon="-8.752594">
        <ele>109.2</ele>
        <time>1970-01-01T00:15:25.000Z</time>
      </trkpt>
      <trkpt lat="39.851168" lon="-8.75262">
        <ele>109.3</ele>
        <time>1970-01-01T00:15:26.000Z</time>
      </trkpt>
      <trkpt lat="39.851191" lon="-8.752646">
        <ele>109.7</ele>
        <time>1970-01-01T00:15:27.000Z</time>
      </trkpt>
      <trkpt lat="39.851215" lon="-8.752671">
        <ele>109.9</ele>
        <time>1970-01-01T00:15:28.000Z</time>
      </trkpt>
      <trkpt lat="39.851241" lon="-8.752696">
        <ele>109.9</ele>
        <time>1970-01-01T00:15:29.000Z</time>
      </trkpt>
      <trkpt lat="39.851272" lon="-8.752725">
        <ele>110.2</ele>
        <time>1970-01-01T00:15:30.000Z</time>
      </trkpt>
      <trkpt lat="39.851307" lon="-8.752757">
        <ele>110.4</ele>
        <time>1970-01-01T00:15:31.000Z</time>
      </trkpt>
      <trkpt lat="39.851343" lon="-8.752785">
        <ele>110.5</ele>
        <time>1970-01-01T00:15:32.000Z</time>
      </trkpt>
      <trkpt lat="39.851378" lon="-8.75281">
        <ele>110.8</ele>
        <time>1970-01-01T00:15:33.000Z</time>
      </trkpt>
      <trkpt lat="39.851411" lon="-8.752833">
        <ele>111</ele>
        <time>1970-01-01T00:15:34.000Z</time>
      </trkpt>
      <trkpt lat="39.851441" lon="-8.752856">
        <ele>111.3</ele>
        <time>1970-01-01T00:15:35.000Z</time>
      </trkpt>
      <trkpt lat="39.851471" lon="-8.752885">
        <ele>111.6</ele>
        <time>1970-01-01T00:15:36.000Z</time>
      </trkpt>
      <trkpt lat="39.851502" lon="-8.752913">
        <ele>111.7</ele>
        <time>1970-01-01T00:15:37.000Z</time>
      </trkpt>
      <trkpt lat="39.851532" lon="-8.752937">
        <ele>111.9</ele>
        <time>1970-01-01T00:15:38.000Z</time>
      </trkpt>
      <trkpt lat="39.851565" lon="-8.752956">
        <ele>112</ele>
        <time>1970-01-01T00:15:39.000Z</time>
      </trkpt>
      <trkpt lat="39.851601" lon="-8.752974">
        <ele>112.2</ele>
        <time>1970-01-01T00:15:40.000Z</time>
      </trkpt>
      <trkpt lat="39.851637" lon="-8.752991">
        <ele>112.3</ele>
        <time>1970-01-01T00:15:41.000Z</time>
      </trkpt>
      <trkpt lat="39.85167" lon="-8.753007">
        <ele>112.4</ele>
        <time>1970-01-01T00:15:42.000Z</time>
      </trkpt>
      <trkpt lat="39.851699" lon="-8.753022">
        <ele>112.5</ele>
        <time>1970-01-01T00:15:43.000Z</time>
      </trkpt>
      <trkpt lat="39.851723" lon="-8.753037">
        <ele>112.6</ele>
        <time>1970-01-01T00:15:44.000Z</time>
      </trkpt>
      <trkpt lat="39.851744" lon="-8.753053">
        <ele>112.8</ele>
        <time>1970-01-01T00:15:45.000Z</time>
      </trkpt>
      <trkpt lat="39.85176" lon="-8.753068">
        <ele>112.7</ele>
        <time>1970-01-01T00:15:46.000Z</time>
      </trkpt>
      <trkpt lat="39.851772" lon="-8.753079">
        <ele>112.7</ele>
        <time>1970-01-01T00:15:47.000Z</time>
      </trkpt>
      <trkpt lat="39.851784" lon="-8.753089">
        <ele>112.8</ele>
        <time>1970-01-01T00:15:48.000Z</time>
      </trkpt>
      <trkpt lat="39.851798" lon="-8.7531">
        <ele>112.7</ele>
        <time>1970-01-01T00:15:49.000Z</time>
      </trkpt>
      <trkpt lat="39.851813" lon="-8.753111">
        <ele>112.9</ele>
        <time>1970-01-01T00:15:50.000Z</time>
      </trkpt>
      <trkpt lat="39.851831" lon="-8.753126">
        <ele>112.9</ele>
        <time>1970-01-01T00:15:51.000Z</time>
      </trkpt>
      <trkpt lat="39.851893" lon="-8.753181">
        <ele>113.1</ele>
        <time>1970-01-01T00:15:52.000Z</time>
      </trkpt>
      <trkpt lat="39.851899" lon="-8.753186">
        <ele>113</ele>
        <time>1970-01-01T00:15:53.000Z</time>
      </trkpt>
      <trkpt lat="39.85191" lon="-8.753198">
        <ele>113.1</ele>
        <time>1970-01-01T00:15:54.000Z</time>
      </trkpt>
      <trkpt lat="39.851923" lon="-8.753214">
        <ele>113.1</ele>
        <time>1970-01-01T00:15:55.000Z</time>
      </trkpt>
      <trkpt lat="39.851935" lon="-8.753231">
        <ele>113.1</ele>
        <time>1970-01-01T00:15:56.000Z</time>
      </trkpt>
      <trkpt lat="39.851946" lon="-8.753249">
        <ele>113.1</ele>
        <time>1970-01-01T00:15:57.000Z</time>
      </trkpt>
      <trkpt lat="39.851959" lon="-8.753262">
        <ele>113.1</ele>
        <time>1970-01-01T00:15:58.000Z</time>
      </trkpt>
      <trkpt lat="39.851972" lon="-8.753271">
        <ele>113.1</ele>
        <time>1970-01-01T00:15:59.000Z</time>
      </trkpt>
      <trkpt lat="39.851987" lon="-8.753277">
        <ele>113.2</ele>
        <time>1970-01-01T00:16:00.000Z</time>
      </trkpt>
      <trkpt lat="39.852001" lon="-8.753283">
        <ele>113.2</ele>
        <time>1970-01-01T00:16:01.000Z</time>
      </trkpt>
      <trkpt lat="39.852016" lon="-8.753289">
        <ele>113.2</ele>
        <time>1970-01-01T00:16:02.000Z</time>
      </trkpt>
      <trkpt lat="39.85203" lon="-8.753294">
        <ele>113.2</ele>
        <time>1970-01-01T00:16:03.000Z</time>
      </trkpt>
      <trkpt lat="39.852042" lon="-8.753298">
        <ele>113.3</ele>
        <time>1970-01-01T00:16:04.000Z</time>
      </trkpt>
      <trkpt lat="39.852056" lon="-8.753303">
        <ele>113.3</ele>
        <time>1970-01-01T00:16:05.000Z</time>
      </trkpt>
      <trkpt lat="39.852072" lon="-8.75331">
        <ele>113.3</ele>
        <time>1970-01-01T00:16:06.000Z</time>
      </trkpt>
      <trkpt lat="39.852091" lon="-8.753322">
        <ele>113.2</ele>
        <time>1970-01-01T00:16:07.000Z</time>
      </trkpt>
      <trkpt lat="39.852152" lon="-8.753376">
        <ele>113.2</ele>
        <time>1970-01-01T00:16:08.000Z</time>
      </trkpt>
      <trkpt lat="39.852157" lon="-8.753384">
        <ele>113.2</ele>
        <time>1970-01-01T00:16:09.000Z</time>
      </trkpt>
      <trkpt lat="39.852168" lon="-8.7534">
        <ele>113.2</ele>
        <time>1970-01-01T00:16:10.000Z</time>
      </trkpt>
      <trkpt lat="39.852186" lon="-8.753418">
        <ele>113.2</ele>
        <time>1970-01-01T00:16:11.000Z</time>
      </trkpt>
      <trkpt lat="39.852209" lon="-8.753433">
        <ele>113.2</ele>
        <time>1970-01-01T00:16:12.000Z</time>
      </trkpt>
      <trkpt lat="39.852234" lon="-8.753443">
        <ele>113.2</ele>
        <time>1970-01-01T00:16:13.000Z</time>
      </trkpt>
      <trkpt lat="39.852261" lon="-8.753451">
        <ele>113.2</ele>
        <time>1970-01-01T00:16:14.000Z</time>
      </trkpt>
      <trkpt lat="39.852284" lon="-8.753461">
        <ele>113.2</ele>
        <time>1970-01-01T00:16:15.000Z</time>
      </trkpt>
      <trkpt lat="39.852305" lon="-8.753471">
        <ele>113.2</ele>
        <time>1970-01-01T00:16:16.000Z</time>
      </trkpt>
      <trkpt lat="39.852321" lon="-8.753485">
        <ele>113.2</ele>
        <time>1970-01-01T00:16:17.000Z</time>
      </trkpt>
      <trkpt lat="39.852334" lon="-8.753501">
        <ele>113.2</ele>
        <time>1970-01-01T00:16:18.000Z</time>
      </trkpt>
      <trkpt lat="39.852347" lon="-8.75352">
        <ele>113.2</ele>
        <time>1970-01-01T00:16:19.000Z</time>
      </trkpt>
      <trkpt lat="39.852358" lon="-8.753541">
        <ele>113.2</ele>
        <time>1970-01-01T00:16:20.000Z</time>
      </trkpt>
      <trkpt lat="39.85239" lon="-8.753619">
        <ele>113.2</ele>
        <time>1970-01-01T00:16:21.000Z</time>
      </trkpt>
      <trkpt lat="39.852391" lon="-8.753627">
        <ele>113.2</ele>
        <time>1970-01-01T00:16:22.000Z</time>
      </trkpt>
      <trkpt lat="39.852395" lon="-8.753642">
        <ele>113.2</ele>
        <time>1970-01-01T00:16:23.000Z</time>
      </trkpt>
      <trkpt lat="39.852404" lon="-8.753662">
        <ele>113.2</ele>
        <time>1970-01-01T00:16:24.000Z</time>
      </trkpt>
      <trkpt lat="39.852417" lon="-8.753683">
        <ele>113.2</ele>
        <time>1970-01-01T00:16:25.000Z</time>
      </trkpt>
      <trkpt lat="39.852432" lon="-8.753707">
        <ele>113.3</ele>
        <time>1970-01-01T00:16:26.000Z</time>
      </trkpt>
      <trkpt lat="39.852445" lon="-8.75373">
        <ele>113.2</ele>
        <time>1970-01-01T00:16:27.000Z</time>
      </trkpt>
      <trkpt lat="39.852457" lon="-8.753748">
        <ele>113.3</ele>
        <time>1970-01-01T00:16:28.000Z</time>
      </trkpt>
      <trkpt lat="39.85246" lon="-8.75377">
        <ele>113.3</ele>
        <time>1970-01-01T00:16:29.000Z</time>
      </trkpt>
      <trkpt lat="39.852464" lon="-8.753796">
        <ele>113.5</ele>
        <time>1970-01-01T00:16:30.000Z</time>
      </trkpt>
      <trkpt lat="39.852467" lon="-8.753823">
        <ele>113.5</ele>
        <time>1970-01-01T00:16:31.000Z</time>
      </trkpt>
      <trkpt lat="39.85247" lon="-8.75385">
        <ele>113.4</ele>
        <time>1970-01-01T00:16:32.000Z</time>
      </trkpt>
      <trkpt lat="39.852476" lon="-8.753873">
        <ele>113.6</ele>
        <time>1970-01-01T00:16:33.000Z</time>
      </trkpt>
      <trkpt lat="39.852483" lon="-8.753897">
        <ele>113.6</ele>
        <time>1970-01-01T00:16:34.000Z</time>
      </trkpt>
      <trkpt lat="39.852492" lon="-8.753919">
        <ele>113.7</ele>
        <time>1970-01-01T00:16:35.000Z</time>
      </trkpt>
      <trkpt lat="39.852495" lon="-8.75394">
        <ele>113.7</ele>
        <time>1970-01-01T00:16:36.000Z</time>
      </trkpt>
      <trkpt lat="39.852494" lon="-8.753962">
        <ele>113.8</ele>
        <time>1970-01-01T00:16:37.000Z</time>
      </trkpt>
      <trkpt lat="39.852494" lon="-8.753983">
        <ele>113.8</ele>
        <time>1970-01-01T00:16:38.000Z</time>
      </trkpt>
      <trkpt lat="39.8525" lon="-8.754002">
        <ele>113.8</ele>
        <time>1970-01-01T00:16:39.000Z</time>
      </trkpt>
      <trkpt lat="39.852509" lon="-8.75402">
        <ele>113.5</ele>
        <time>1970-01-01T00:16:40.000Z</time>
      </trkpt>
      <trkpt lat="39.85252" lon="-8.754038">
        <ele>113.5</ele>
        <time>1970-01-01T00:16:41.000Z</time>
      </trkpt>
      <trkpt lat="39.852532" lon="-8.754056">
        <ele>113.5</ele>
        <time>1970-01-01T00:16:42.000Z</time>
      </trkpt>
      <trkpt lat="39.852544" lon="-8.754075">
        <ele>113.2</ele>
        <time>1970-01-01T00:16:43.000Z</time>
      </trkpt>
      <trkpt lat="39.852554" lon="-8.754091">
        <ele>113.2</ele>
        <time>1970-01-01T00:16:44.000Z</time>
      </trkpt>
      <trkpt lat="39.852563" lon="-8.754108">
        <ele>113.2</ele>
        <time>1970-01-01T00:16:45.000Z</time>
      </trkpt>
      <trkpt lat="39.852571" lon="-8.754126">
        <ele>112.9</ele>
        <time>1970-01-01T00:16:46.000Z</time>
      </trkpt>
      <trkpt lat="39.852578" lon="-8.754149">
        <ele>112.7</ele>
        <time>1970-01-01T00:16:47.000Z</time>
      </trkpt>
      <trkpt lat="39.852584" lon="-8.754175">
        <ele>112.6</ele>
        <time>1970-01-01T00:16:48.000Z</time>
      </trkpt>
      <trkpt lat="39.85259" lon="-8.754202">
        <ele>112.6</ele>
        <time>1970-01-01T00:16:49.000Z</time>
      </trkpt>
      <trkpt lat="39.852598" lon="-8.754226">
        <ele>112.4</ele>
        <time>1970-01-01T00:16:50.000Z</time>
      </trkpt>
      <trkpt lat="39.852607" lon="-8.754247">
        <ele>112.1</ele>
        <time>1970-01-01T00:16:51.000Z</time>
      </trkpt>
      <trkpt lat="39.852619" lon="-8.754265">
        <ele>111.9</ele>
        <time>1970-01-01T00:16:52.000Z</time>
      </trkpt>
      <trkpt lat="39.852635" lon="-8.754282">
        <ele>111.5</ele>
        <time>1970-01-01T00:16:53.000Z</time>
      </trkpt>
      <trkpt lat="39.852651" lon="-8.754299">
        <ele>111.5</ele>
        <time>1970-01-01T00:16:54.000Z</time>
      </trkpt>
      <trkpt lat="39.852673" lon="-8.75432">
        <ele>111</ele>
        <time>1970-01-01T00:16:55.000Z</time>
      </trkpt>
      <trkpt lat="39.852697" lon="-8.75435">
        <ele>110.9</ele>
        <time>1970-01-01T00:16:56.000Z</time>
      </trkpt>
      <trkpt lat="39.85272" lon="-8.754384">
        <ele>110.5</ele>
        <time>1970-01-01T00:16:57.000Z</time>
      </trkpt>
      <trkpt lat="39.852737" lon="-8.754417">
        <ele>110</ele>
        <time>1970-01-01T00:16:58.000Z</time>
      </trkpt>
      <trkpt lat="39.852751" lon="-8.754449">
        <ele>109.9</ele>
        <time>1970-01-01T00:16:59.000Z</time>
      </trkpt>
      <trkpt lat="39.852762" lon="-8.754476">
        <ele>109.8</ele>
        <time>1970-01-01T00:17:00.000Z</time>
      </trkpt>
      <trkpt lat="39.852773" lon="-8.754499">
        <ele>109.3</ele>
        <time>1970-01-01T00:17:01.000Z</time>
      </trkpt>
      <trkpt lat="39.852781" lon="-8.75452">
        <ele>109.2</ele>
        <time>1970-01-01T00:17:02.000Z</time>
      </trkpt>
      <trkpt lat="39.852789" lon="-8.754539">
        <ele>109.2</ele>
        <time>1970-01-01T00:17:03.000Z</time>
      </trkpt>
      <trkpt lat="39.8528" lon="-8.754556">
        <ele>108.7</ele>
        <time>1970-01-01T00:17:04.000Z</time>
      </trkpt>
      <trkpt lat="39.85281" lon="-8.75457">
        <ele>108.5</ele>
        <time>1970-01-01T00:17:05.000Z</time>
      </trkpt>
      <trkpt lat="39.852822" lon="-8.754583">
        <ele>108.5</ele>
        <time>1970-01-01T00:17:06.000Z</time>
      </trkpt>
      <trkpt lat="39.852834" lon="-8.754596">
        <ele>108</ele>
        <time>1970-01-01T00:17:07.000Z</time>
      </trkpt>
      <trkpt lat="39.852844" lon="-8.754608">
        <ele>107.8</ele>
        <time>1970-01-01T00:17:08.000Z</time>
      </trkpt>
      <trkpt lat="39.852856" lon="-8.75462">
        <ele>107.8</ele>
        <time>1970-01-01T00:17:09.000Z</time>
      </trkpt>
      <trkpt lat="39.852872" lon="-8.75463">
        <ele>107.4</ele>
        <time>1970-01-01T00:17:10.000Z</time>
      </trkpt>
      <trkpt lat="39.852889" lon="-8.754639">
        <ele>107.4</ele>
        <time>1970-01-01T00:17:11.000Z</time>
      </trkpt>
      <trkpt lat="39.852905" lon="-8.754649">
        <ele>106.7</ele>
        <time>1970-01-01T00:17:12.000Z</time>
      </trkpt>
      <trkpt lat="39.852925" lon="-8.754661">
        <ele>106.7</ele>
        <time>1970-01-01T00:17:13.000Z</time>
      </trkpt>
      <trkpt lat="39.852947" lon="-8.754673">
        <ele>106.2</ele>
        <time>1970-01-01T00:17:14.000Z</time>
      </trkpt>
      <trkpt lat="39.852968" lon="-8.75469">
        <ele>105.5</ele>
        <time>1970-01-01T00:17:15.000Z</time>
      </trkpt>
      <trkpt lat="39.852992" lon="-8.754711">
        <ele>105.5</ele>
        <time>1970-01-01T00:17:16.000Z</time>
      </trkpt>
      <trkpt lat="39.853016" lon="-8.754734">
        <ele>104.9</ele>
        <time>1970-01-01T00:17:17.000Z</time>
      </trkpt>
      <trkpt lat="39.853035" lon="-8.754756">
        <ele>104.5</ele>
        <time>1970-01-01T00:17:18.000Z</time>
      </trkpt>
      <trkpt lat="39.853047" lon="-8.754778">
        <ele>104.3</ele>
        <time>1970-01-01T00:17:19.000Z</time>
      </trkpt>
      <trkpt lat="39.853054" lon="-8.754798">
        <ele>104.3</ele>
        <time>1970-01-01T00:17:20.000Z</time>
      </trkpt>
      <trkpt lat="39.85306" lon="-8.754814">
        <ele>104.3</ele>
        <time>1970-01-01T00:17:21.000Z</time>
      </trkpt>
      <trkpt lat="39.853068" lon="-8.754826">
        <ele>103.7</ele>
        <time>1970-01-01T00:17:22.000Z</time>
      </trkpt>
      <trkpt lat="39.853074" lon="-8.754831">
        <ele>103.7</ele>
        <time>1970-01-01T00:17:23.000Z</time>
      </trkpt>
      <trkpt lat="39.853076" lon="-8.754836">
        <ele>103.7</ele>
        <time>1970-01-01T00:17:24.000Z</time>
      </trkpt>
      <trkpt lat="39.853076" lon="-8.754842">
        <ele>103.7</ele>
        <time>1970-01-01T00:17:25.000Z</time>
      </trkpt>
      <trkpt lat="39.85307" lon="-8.754858">
        <ele>103.7</ele>
        <time>1970-01-01T00:17:26.000Z</time>
      </trkpt>
      <trkpt lat="39.853071" lon="-8.754858">
        <ele>103.7</ele>
        <time>1970-01-01T00:17:27.000Z</time>
      </trkpt>
      <trkpt lat="39.853077" lon="-8.754862">
        <ele>103.5</ele>
        <time>1970-01-01T00:17:28.000Z</time>
      </trkpt>
      <trkpt lat="39.853085" lon="-8.754868">
        <ele>103.5</ele>
        <time>1970-01-01T00:17:29.000Z</time>
      </trkpt>
      <trkpt lat="39.853096" lon="-8.754876">
        <ele>103.2</ele>
        <time>1970-01-01T00:17:30.000Z</time>
      </trkpt>
      <trkpt lat="39.853109" lon="-8.754888">
        <ele>103.2</ele>
        <time>1970-01-01T00:17:31.000Z</time>
      </trkpt>
      <trkpt lat="39.853124" lon="-8.754906">
        <ele>103</ele>
        <time>1970-01-01T00:17:32.000Z</time>
      </trkpt>
      <trkpt lat="39.853141" lon="-8.754926">
        <ele>102.7</ele>
        <time>1970-01-01T00:17:33.000Z</time>
      </trkpt>
      <trkpt lat="39.853157" lon="-8.754949">
        <ele>102.6</ele>
        <time>1970-01-01T00:17:34.000Z</time>
      </trkpt>
      <trkpt lat="39.853177" lon="-8.754972">
        <ele>102.4</ele>
        <time>1970-01-01T00:17:35.000Z</time>
      </trkpt>
      <trkpt lat="39.853197" lon="-8.754995">
        <ele>102.1</ele>
        <time>1970-01-01T00:17:36.000Z</time>
      </trkpt>
      <trkpt lat="39.853217" lon="-8.755019">
        <ele>102.1</ele>
        <time>1970-01-01T00:17:37.000Z</time>
      </trkpt>
      <trkpt lat="39.853238" lon="-8.755044">
        <ele>101.9</ele>
        <time>1970-01-01T00:17:38.000Z</time>
      </trkpt>
      <trkpt lat="39.853257" lon="-8.75507">
        <ele>101.9</ele>
        <time>1970-01-01T00:17:39.000Z</time>
      </trkpt>
      <trkpt lat="39.853275" lon="-8.755099">
        <ele>101.7</ele>
        <time>1970-01-01T00:17:40.000Z</time>
      </trkpt>
      <trkpt lat="39.85329" lon="-8.755131">
        <ele>101.7</ele>
        <time>1970-01-01T00:17:41.000Z</time>
      </trkpt>
      <trkpt lat="39.853304" lon="-8.755167">
        <ele>101.5</ele>
        <time>1970-01-01T00:17:42.000Z</time>
      </trkpt>
      <trkpt lat="39.853317" lon="-8.755209">
        <ele>101.5</ele>
        <time>1970-01-01T00:17:43.000Z</time>
      </trkpt>
      <trkpt lat="39.853332" lon="-8.755262">
        <ele>101.3</ele>
        <time>1970-01-01T00:17:44.000Z</time>
      </trkpt>
      <trkpt lat="39.853352" lon="-8.755319">
        <ele>101.4</ele>
        <time>1970-01-01T00:17:45.000Z</time>
      </trkpt>
      <trkpt lat="39.853374" lon="-8.755379">
        <ele>101.2</ele>
        <time>1970-01-01T00:17:46.000Z</time>
      </trkpt>
      <trkpt lat="39.853395" lon="-8.755442">
        <ele>101.1</ele>
        <time>1970-01-01T00:17:47.000Z</time>
      </trkpt>
      <trkpt lat="39.853412" lon="-8.755504">
        <ele>101.2</ele>
        <time>1970-01-01T00:17:48.000Z</time>
      </trkpt>
      <trkpt lat="39.853422" lon="-8.755564">
        <ele>101.2</ele>
        <time>1970-01-01T00:17:49.000Z</time>
      </trkpt>
      <trkpt lat="39.85343" lon="-8.75562">
        <ele>101</ele>
        <time>1970-01-01T00:17:50.000Z</time>
      </trkpt>
      <trkpt lat="39.853438" lon="-8.75567">
        <ele>101.1</ele>
        <time>1970-01-01T00:17:51.000Z</time>
      </trkpt>
      <trkpt lat="39.853445" lon="-8.755716">
        <ele>101.1</ele>
        <time>1970-01-01T00:17:52.000Z</time>
      </trkpt>
      <trkpt lat="39.853453" lon="-8.755759">
        <ele>101.2</ele>
        <time>1970-01-01T00:17:53.000Z</time>
      </trkpt>
      <trkpt lat="39.853458" lon="-8.755799">
        <ele>101.1</ele>
        <time>1970-01-01T00:17:54.000Z</time>
      </trkpt>
      <trkpt lat="39.85346" lon="-8.755838">
        <ele>101.3</ele>
        <time>1970-01-01T00:17:55.000Z</time>
      </trkpt>
      <trkpt lat="39.853461" lon="-8.755877">
        <ele>101.4</ele>
        <time>1970-01-01T00:17:56.000Z</time>
      </trkpt>
      <trkpt lat="39.853461" lon="-8.755913">
        <ele>101.5</ele>
        <time>1970-01-01T00:17:57.000Z</time>
      </trkpt>
      <trkpt lat="39.853456" lon="-8.755949">
        <ele>101.6</ele>
        <time>1970-01-01T00:17:58.000Z</time>
      </trkpt>
      <trkpt lat="39.853449" lon="-8.755987">
        <ele>102</ele>
        <time>1970-01-01T00:17:59.000Z</time>
      </trkpt>
      <trkpt lat="39.853442" lon="-8.756026">
        <ele>102.1</ele>
        <time>1970-01-01T00:18:00.000Z</time>
      </trkpt>
      <trkpt lat="39.853436" lon="-8.756062">
        <ele>102.2</ele>
        <time>1970-01-01T00:18:01.000Z</time>
      </trkpt>
      <trkpt lat="39.853431" lon="-8.756094">
        <ele>102.2</ele>
        <time>1970-01-01T00:18:02.000Z</time>
      </trkpt>
      <trkpt lat="39.853425" lon="-8.756124">
        <ele>102.3</ele>
        <time>1970-01-01T00:18:03.000Z</time>
      </trkpt>
      <trkpt lat="39.853415" lon="-8.756152">
        <ele>102.6</ele>
        <time>1970-01-01T00:18:04.000Z</time>
      </trkpt>
      <trkpt lat="39.853405" lon="-8.756179">
        <ele>102.6</ele>
        <time>1970-01-01T00:18:05.000Z</time>
      </trkpt>
      <trkpt lat="39.853392" lon="-8.756207">
        <ele>102.7</ele>
        <time>1970-01-01T00:18:06.000Z</time>
      </trkpt>
      <trkpt lat="39.85338" lon="-8.756232">
        <ele>103.1</ele>
        <time>1970-01-01T00:18:07.000Z</time>
      </trkpt>
      <trkpt lat="39.853368" lon="-8.756255">
        <ele>103.2</ele>
        <time>1970-01-01T00:18:08.000Z</time>
      </trkpt>
      <trkpt lat="39.85336" lon="-8.756274">
        <ele>103.2</ele>
        <time>1970-01-01T00:18:09.000Z</time>
      </trkpt>
      <trkpt lat="39.853355" lon="-8.756289">
        <ele>103.7</ele>
        <time>1970-01-01T00:18:10.000Z</time>
      </trkpt>
      <trkpt lat="39.853353" lon="-8.756302">
        <ele>103.7</ele>
        <time>1970-01-01T00:18:11.000Z</time>
      </trkpt>
      <trkpt lat="39.853353" lon="-8.756312">
        <ele>103.7</ele>
        <time>1970-01-01T00:18:12.000Z</time>
      </trkpt>
      <trkpt lat="39.853355" lon="-8.756319">
        <ele>103.7</ele>
        <time>1970-01-01T00:18:13.000Z</time>
      </trkpt>
      <trkpt lat="39.853357" lon="-8.756323">
        <ele>103.3</ele>
        <time>1970-01-01T00:18:14.000Z</time>
      </trkpt>
      <trkpt lat="39.85336" lon="-8.756327">
        <ele>103.3</ele>
        <time>1970-01-01T00:18:15.000Z</time>
      </trkpt>
      <trkpt lat="39.85336" lon="-8.756333">
        <ele>103.3</ele>
        <time>1970-01-01T00:18:17.000Z</time>
      </trkpt>
      <trkpt lat="39.853359" lon="-8.756333">
        <ele>103.3</ele>
        <time>1970-01-01T00:18:18.000Z</time>
      </trkpt>
      <trkpt lat="39.853355" lon="-8.756336">
        <ele>103.7</ele>
        <time>1970-01-01T00:18:20.000Z</time>
      </trkpt>
      <trkpt lat="39.853354" lon="-8.756337">
        <ele>103.7</ele>
        <time>1970-01-01T00:18:21.000Z</time>
      </trkpt>
      <trkpt lat="39.853352" lon="-8.756339">
        <ele>103.7</ele>
        <time>1970-01-01T00:18:22.000Z</time>
      </trkpt>
      <trkpt lat="39.853351" lon="-8.756343">
        <ele>103.7</ele>
        <time>1970-01-01T00:18:23.000Z</time>
      </trkpt>
      <trkpt lat="39.853349" lon="-8.756347">
        <ele>103.7</ele>
        <time>1970-01-01T00:18:24.000Z</time>
      </trkpt>
      <trkpt lat="39.853344" lon="-8.756352">
        <ele>103.7</ele>
        <time>1970-01-01T00:18:25.000Z</time>
      </trkpt>
      <trkpt lat="39.853342" lon="-8.756357">
        <ele>103.7</ele>
        <time>1970-01-01T00:18:26.000Z</time>
      </trkpt>
      <trkpt lat="39.853339" lon="-8.756361">
        <ele>103.7</ele>
        <time>1970-01-01T00:18:27.000Z</time>
      </trkpt>
      <trkpt lat="39.853336" lon="-8.756362">
        <ele>103.8</ele>
        <time>1970-01-01T00:18:28.000Z</time>
      </trkpt>
      <trkpt lat="39.853331" lon="-8.756365">
        <ele>103.8</ele>
        <time>1970-01-01T00:18:29.000Z</time>
      </trkpt>
      <trkpt lat="39.853323" lon="-8.756364">
        <ele>104.3</ele>
        <time>1970-01-01T00:18:30.000Z</time>
      </trkpt>
      <trkpt lat="39.853316" lon="-8.756365">
        <ele>104.3</ele>
        <time>1970-01-01T00:18:31.000Z</time>
      </trkpt>
      <trkpt lat="39.853315" lon="-8.756366">
        <ele>104.3</ele>
        <time>1970-01-01T00:18:32.000Z</time>
      </trkpt>
      <trkpt lat="39.853317" lon="-8.756367">
        <ele>104.3</ele>
        <time>1970-01-01T00:18:33.000Z</time>
      </trkpt>
      <trkpt lat="39.853321" lon="-8.756365">
        <ele>104.3</ele>
        <time>1970-01-01T00:18:34.000Z</time>
      </trkpt>
      <trkpt lat="39.853329" lon="-8.756364">
        <ele>103.8</ele>
        <time>1970-01-01T00:18:36.000Z</time>
      </trkpt>
      <trkpt lat="39.853327" lon="-8.756366">
        <ele>103.8</ele>
        <time>1970-01-01T00:18:37.000Z</time>
      </trkpt>
      <trkpt lat="39.853325" lon="-8.756371">
        <ele>103.8</ele>
        <time>1970-01-01T00:18:38.000Z</time>
      </trkpt>
      <trkpt lat="39.853321" lon="-8.756377">
        <ele>104.3</ele>
        <time>1970-01-01T00:18:39.000Z</time>
      </trkpt>
      <trkpt lat="39.85333" lon="-8.756414">
        <ele>103.8</ele>
        <time>1970-01-01T00:18:45.000Z</time>
      </trkpt>
      <trkpt lat="39.85333" lon="-8.756415">
        <ele>103.8</ele>
        <time>1970-01-01T00:18:46.000Z</time>
      </trkpt>
      <trkpt lat="39.853332" lon="-8.756415">
        <ele>103.8</ele>
        <time>1970-01-01T00:18:47.000Z</time>
      </trkpt>
      <trkpt lat="39.853336" lon="-8.756417">
        <ele>103.8</ele>
        <time>1970-01-01T00:18:48.000Z</time>
      </trkpt>
      <trkpt lat="39.85334" lon="-8.756418">
        <ele>103.8</ele>
        <time>1970-01-01T00:18:49.000Z</time>
      </trkpt>
      <trkpt lat="39.853343" lon="-8.75642">
        <ele>103.8</ele>
        <time>1970-01-01T00:18:50.000Z</time>
      </trkpt>
      <trkpt lat="39.853347" lon="-8.756422">
        <ele>103.8</ele>
        <time>1970-01-01T00:18:51.000Z</time>
      </trkpt>
      <trkpt lat="39.853353" lon="-8.756423">
        <ele>103.8</ele>
        <time>1970-01-01T00:18:52.000Z</time>
      </trkpt>
      <trkpt lat="39.853358" lon="-8.756423">
        <ele>103.3</ele>
        <time>1970-01-01T00:18:53.000Z</time>
      </trkpt>
      <trkpt lat="39.853361" lon="-8.756424">
        <ele>103.3</ele>
        <time>1970-01-01T00:18:54.000Z</time>
      </trkpt>
      <trkpt lat="39.853359" lon="-8.756424">
        <ele>103.3</ele>
        <time>1970-01-01T00:18:55.000Z</time>
      </trkpt>
      <trkpt lat="39.853356" lon="-8.756424">
        <ele>103.8</ele>
        <time>1970-01-01T00:18:56.000Z</time>
      </trkpt>
      <trkpt lat="39.853351" lon="-8.756425">
        <ele>103.8</ele>
        <time>1970-01-01T00:18:57.000Z</time>
      </trkpt>
      <trkpt lat="39.853347" lon="-8.756425">
        <ele>103.8</ele>
        <time>1970-01-01T00:18:58.000Z</time>
      </trkpt>
      <trkpt lat="39.85335" lon="-8.756433">
        <ele>103.8</ele>
        <time>1970-01-01T00:19:00.000Z</time>
      </trkpt>
      <trkpt lat="39.853354" lon="-8.756434">
        <ele>103.8</ele>
        <time>1970-01-01T00:19:01.000Z</time>
      </trkpt>
      <trkpt lat="39.853361" lon="-8.756436">
        <ele>103.3</ele>
        <time>1970-01-01T00:19:02.000Z</time>
      </trkpt>
      <trkpt lat="39.853382" lon="-8.756433">
        <ele>103.3</ele>
        <time>1970-01-01T00:19:03.000Z</time>
      </trkpt>
      <trkpt lat="39.853383" lon="-8.756433">
        <ele>103.3</ele>
        <time>1970-01-01T00:19:04.000Z</time>
      </trkpt>
      <trkpt lat="39.853382" lon="-8.756434">
        <ele>103.3</ele>
        <time>1970-01-01T00:19:06.000Z</time>
      </trkpt>
      <trkpt lat="39.853381" lon="-8.756433">
        <ele>103.3</ele>
        <time>1970-01-01T00:19:07.000Z</time>
      </trkpt>
      <trkpt lat="39.85338" lon="-8.756434">
        <ele>103.3</ele>
        <time>1970-01-01T00:19:08.000Z</time>
      </trkpt>
      <trkpt lat="39.853378" lon="-8.756433">
        <ele>103.3</ele>
        <time>1970-01-01T00:19:09.000Z</time>
      </trkpt>
      <trkpt lat="39.853377" lon="-8.756432">
        <ele>103.3</ele>
        <time>1970-01-01T00:19:10.000Z</time>
      </trkpt>
      <trkpt lat="39.853375" lon="-8.756431">
        <ele>103.3</ele>
        <time>1970-01-01T00:19:11.000Z</time>
      </trkpt>
      <trkpt lat="39.853375" lon="-8.756432">
        <ele>103.3</ele>
        <time>1970-01-01T00:19:12.000Z</time>
      </trkpt>
      <trkpt lat="39.853367" lon="-8.756431">
        <ele>103.3</ele>
        <time>1970-01-01T00:19:14.000Z</time>
      </trkpt>
      <trkpt lat="39.853366" lon="-8.75643">
        <ele>103.3</ele>
        <time>1970-01-01T00:19:15.000Z</time>
      </trkpt>
      <trkpt lat="39.853366" lon="-8.756432">
        <ele>103.3</ele>
        <time>1970-01-01T00:19:16.000Z</time>
      </trkpt>
      <trkpt lat="39.853366" lon="-8.756434">
        <ele>103.3</ele>
        <time>1970-01-01T00:19:17.000Z</time>
      </trkpt>
      <trkpt lat="39.853364" lon="-8.756436">
        <ele>103.3</ele>
        <time>1970-01-01T00:19:18.000Z</time>
      </trkpt>
      <trkpt lat="39.853357" lon="-8.756439">
        <ele>103.3</ele>
        <time>1970-01-01T00:19:20.000Z</time>
      </trkpt>
      <trkpt lat="39.853356" lon="-8.75644">
        <ele>103.8</ele>
        <time>1970-01-01T00:19:21.000Z</time>
      </trkpt>
      <trkpt lat="39.853355" lon="-8.75644">
        <ele>103.8</ele>
        <time>1970-01-01T00:19:22.000Z</time>
      </trkpt>
      <trkpt lat="39.853356" lon="-8.756441">
        <ele>103.8</ele>
        <time>1970-01-01T00:19:23.000Z</time>
      </trkpt>
      <trkpt lat="39.853356" lon="-8.756442">
        <ele>103.8</ele>
        <time>1970-01-01T00:19:24.000Z</time>
      </trkpt>
      <trkpt lat="39.853357" lon="-8.756451">
        <ele>103.4</ele>
        <time>1970-01-01T00:19:26.000Z</time>
      </trkpt>
      <trkpt lat="39.853358" lon="-8.756453">
        <ele>103.4</ele>
        <time>1970-01-01T00:19:27.000Z</time>
      </trkpt>
      <trkpt lat="39.853359" lon="-8.756457">
        <ele>103.4</ele>
        <time>1970-01-01T00:19:28.000Z</time>
      </trkpt>
      <trkpt lat="39.853361" lon="-8.756461">
        <ele>103.4</ele>
        <time>1970-01-01T00:19:29.000Z</time>
      </trkpt>
      <trkpt lat="39.853361" lon="-8.756464">
        <ele>103.4</ele>
        <time>1970-01-01T00:19:30.000Z</time>
      </trkpt>
      <trkpt lat="39.853366" lon="-8.756467">
        <ele>103.4</ele>
        <time>1970-01-01T00:19:31.000Z</time>
      </trkpt>
      <trkpt lat="39.853375" lon="-8.756468">
        <ele>103.4</ele>
        <time>1970-01-01T00:19:32.000Z</time>
      </trkpt>
      <trkpt lat="39.853384" lon="-8.756469">
        <ele>103.4</ele>
        <time>1970-01-01T00:19:33.000Z</time>
      </trkpt>
      <trkpt lat="39.853391" lon="-8.756471">
        <ele>102.9</ele>
        <time>1970-01-01T00:19:34.000Z</time>
      </trkpt>
      <trkpt lat="39.853422" lon="-8.756479">
        <ele>102.9</ele>
        <time>1970-01-01T00:19:36.000Z</time>
      </trkpt>
      <trkpt lat="39.853425" lon="-8.75648">
        <ele>102.5</ele>
        <time>1970-01-01T00:19:37.000Z</time>
      </trkpt>
      <trkpt lat="39.853428" lon="-8.756482">
        <ele>102.5</ele>
        <time>1970-01-01T00:19:38.000Z</time>
      </trkpt>
      <trkpt lat="39.853429" lon="-8.756484">
        <ele>102.5</ele>
        <time>1970-01-01T00:19:39.000Z</time>
      </trkpt>
      <trkpt lat="39.853428" lon="-8.756486">
        <ele>102.5</ele>
        <time>1970-01-01T00:19:40.000Z</time>
      </trkpt>
      <trkpt lat="39.853428" lon="-8.75649">
        <ele>102.6</ele>
        <time>1970-01-01T00:19:41.000Z</time>
      </trkpt>
      <trkpt lat="39.853427" lon="-8.756497">
        <ele>102.6</ele>
        <time>1970-01-01T00:19:42.000Z</time>
      </trkpt>
      <trkpt lat="39.853428" lon="-8.756502">
        <ele>102.6</ele>
        <time>1970-01-01T00:19:43.000Z</time>
      </trkpt>
      <trkpt lat="39.853429" lon="-8.756504">
        <ele>102.6</ele>
        <time>1970-01-01T00:19:44.000Z</time>
      </trkpt>
      <trkpt lat="39.853431" lon="-8.756502">
        <ele>102.6</ele>
        <time>1970-01-01T00:19:45.000Z</time>
      </trkpt>
      <trkpt lat="39.853433" lon="-8.756499">
        <ele>102.6</ele>
        <time>1970-01-01T00:19:46.000Z</time>
      </trkpt>
      <trkpt lat="39.853435" lon="-8.756499">
        <ele>102.6</ele>
        <time>1970-01-01T00:19:47.000Z</time>
      </trkpt>
      <trkpt lat="39.853438" lon="-8.756503">
        <ele>102.6</ele>
        <time>1970-01-01T00:19:48.000Z</time>
      </trkpt>
      <trkpt lat="39.853442" lon="-8.756509">
        <ele>102.6</ele>
        <time>1970-01-01T00:19:49.000Z</time>
      </trkpt>
      <trkpt lat="39.85345" lon="-8.756516">
        <ele>102.6</ele>
        <time>1970-01-01T00:19:50.000Z</time>
      </trkpt>
      <trkpt lat="39.853458" lon="-8.756527">
        <ele>102.2</ele>
        <time>1970-01-01T00:19:51.000Z</time>
      </trkpt>
      <trkpt lat="39.853464" lon="-8.756541">
        <ele>102.2</ele>
        <time>1970-01-01T00:19:52.000Z</time>
      </trkpt>
      <trkpt lat="39.853468" lon="-8.756558">
        <ele>102.2</ele>
        <time>1970-01-01T00:19:53.000Z</time>
      </trkpt>
      <trkpt lat="39.853472" lon="-8.756611">
        <ele>102.3</ele>
        <time>1970-01-01T00:19:54.000Z</time>
      </trkpt>
      <trkpt lat="39.853462" lon="-8.756631">
        <ele>102.3</ele>
        <time>1970-01-01T00:19:55.000Z</time>
      </trkpt>
      <trkpt lat="39.853461" lon="-8.756637">
        <ele>102.3</ele>
        <time>1970-01-01T00:19:56.000Z</time>
      </trkpt>
      <trkpt lat="39.853456" lon="-8.756649">
        <ele>102.3</ele>
        <time>1970-01-01T00:19:57.000Z</time>
      </trkpt>
      <trkpt lat="39.853449" lon="-8.756663">
        <ele>102.7</ele>
        <time>1970-01-01T00:19:58.000Z</time>
      </trkpt>
      <trkpt lat="39.853438" lon="-8.75668">
        <ele>102.7</ele>
        <time>1970-01-01T00:19:59.000Z</time>
      </trkpt>
      <trkpt lat="39.853428" lon="-8.756699">
        <ele>102.7</ele>
        <time>1970-01-01T00:20:00.000Z</time>
      </trkpt>
      <trkpt lat="39.853421" lon="-8.756717">
        <ele>103.1</ele>
        <time>1970-01-01T00:20:01.000Z</time>
      </trkpt>
      <trkpt lat="39.853414" lon="-8.756733">
        <ele>103.1</ele>
        <time>1970-01-01T00:20:02.000Z</time>
      </trkpt>
      <trkpt lat="39.853408" lon="-8.756749">
        <ele>103.2</ele>
        <time>1970-01-01T00:20:03.000Z</time>
      </trkpt>
      <trkpt lat="39.853401" lon="-8.756765">
        <ele>103.2</ele>
        <time>1970-01-01T00:20:04.000Z</time>
      </trkpt>
      <trkpt lat="39.853394" lon="-8.756782">
        <ele>103.2</ele>
        <time>1970-01-01T00:20:05.000Z</time>
      </trkpt>
      <trkpt lat="39.85339" lon="-8.756799">
        <ele>103.1</ele>
        <time>1970-01-01T00:20:06.000Z</time>
      </trkpt>
      <trkpt lat="39.85339" lon="-8.756818">
        <ele>103.1</ele>
        <time>1970-01-01T00:20:07.000Z</time>
      </trkpt>
      <trkpt lat="39.853391" lon="-8.756845">
        <ele>103.1</ele>
        <time>1970-01-01T00:20:08.000Z</time>
      </trkpt>
      <trkpt lat="39.853394" lon="-8.756875">
        <ele>103.1</ele>
        <time>1970-01-01T00:20:09.000Z</time>
      </trkpt>
      <trkpt lat="39.853396" lon="-8.756909">
        <ele>103</ele>
        <time>1970-01-01T00:20:10.000Z</time>
      </trkpt>
      <trkpt lat="39.853398" lon="-8.756947">
        <ele>102.9</ele>
        <time>1970-01-01T00:20:11.000Z</time>
      </trkpt>
      <trkpt lat="39.853402" lon="-8.756993">
        <ele>102.8</ele>
        <time>1970-01-01T00:20:12.000Z</time>
      </trkpt>
      <trkpt lat="39.853399" lon="-8.757046">
        <ele>102.7</ele>
        <time>1970-01-01T00:20:13.000Z</time>
      </trkpt>
      <trkpt lat="39.85339" lon="-8.757105">
        <ele>102.3</ele>
        <time>1970-01-01T00:20:14.000Z</time>
      </trkpt>
      <trkpt lat="39.853379" lon="-8.757168">
        <ele>102.5</ele>
        <time>1970-01-01T00:20:15.000Z</time>
      </trkpt>
      <trkpt lat="39.853364" lon="-8.75723">
        <ele>102.1</ele>
        <time>1970-01-01T00:20:16.000Z</time>
      </trkpt>
      <trkpt lat="39.853348" lon="-8.757291">
        <ele>102.3</ele>
        <time>1970-01-01T00:20:17.000Z</time>
      </trkpt>
      <trkpt lat="39.853333" lon="-8.757349">
        <ele>101.9</ele>
        <time>1970-01-01T00:20:18.000Z</time>
      </trkpt>
      <trkpt lat="39.853317" lon="-8.757402">
        <ele>102.2</ele>
        <time>1970-01-01T00:20:19.000Z</time>
      </trkpt>
      <trkpt lat="39.853301" lon="-8.757451">
        <ele>101.9</ele>
        <time>1970-01-01T00:20:20.000Z</time>
      </trkpt>
      <trkpt lat="39.853285" lon="-8.757496">
        <ele>102.2</ele>
        <time>1970-01-01T00:20:21.000Z</time>
      </trkpt>
      <trkpt lat="39.853267" lon="-8.757538">
        <ele>101.9</ele>
        <time>1970-01-01T00:20:22.000Z</time>
      </trkpt>
      <trkpt lat="39.853246" lon="-8.757579">
        <ele>102.1</ele>
        <time>1970-01-01T00:20:23.000Z</time>
      </trkpt>
      <trkpt lat="39.853224" lon="-8.757619">
        <ele>102.4</ele>
        <time>1970-01-01T00:20:24.000Z</time>
      </trkpt>
      <trkpt lat="39.853205" lon="-8.757658">
        <ele>102.1</ele>
        <time>1970-01-01T00:20:25.000Z</time>
      </trkpt>
      <trkpt lat="39.853193" lon="-8.757695">
        <ele>101.9</ele>
        <time>1970-01-01T00:20:26.000Z</time>
      </trkpt>
      <trkpt lat="39.85319" lon="-8.757728">
        <ele>102.4</ele>
        <time>1970-01-01T00:20:27.000Z</time>
      </trkpt>
      <trkpt lat="39.853193" lon="-8.757756">
        <ele>101.6</ele>
        <time>1970-01-01T00:20:28.000Z</time>
      </trkpt>
      <trkpt lat="39.8532" lon="-8.757782">
        <ele>101.3</ele>
        <time>1970-01-01T00:20:29.000Z</time>
      </trkpt>
      <trkpt lat="39.853208" lon="-8.757813">
        <ele>101.3</ele>
        <time>1970-01-01T00:20:30.000Z</time>
      </trkpt>
      <trkpt lat="39.853214" lon="-8.757848">
        <ele>101.1</ele>
        <time>1970-01-01T00:20:31.000Z</time>
      </trkpt>
      <trkpt lat="39.853217" lon="-8.757887">
        <ele>100.8</ele>
        <time>1970-01-01T00:20:32.000Z</time>
      </trkpt>
      <trkpt lat="39.853215" lon="-8.757929">
        <ele>100.6</ele>
        <time>1970-01-01T00:20:33.000Z</time>
      </trkpt>
      <trkpt lat="39.853208" lon="-8.757971">
        <ele>100.4</ele>
        <time>1970-01-01T00:20:34.000Z</time>
      </trkpt>
      <trkpt lat="39.853194" lon="-8.758013">
        <ele>100.2</ele>
        <time>1970-01-01T00:20:35.000Z</time>
      </trkpt>
      <trkpt lat="39.853177" lon="-8.758056">
        <ele>100.7</ele>
        <time>1970-01-01T00:20:36.000Z</time>
      </trkpt>
      <trkpt lat="39.853153" lon="-8.758101">
        <ele>101.1</ele>
        <time>1970-01-01T00:20:37.000Z</time>
      </trkpt>
      <trkpt lat="39.853127" lon="-8.758147">
        <ele>101</ele>
        <time>1970-01-01T00:20:38.000Z</time>
      </trkpt>
      <trkpt lat="39.853102" lon="-8.758193">
        <ele>101.5</ele>
        <time>1970-01-01T00:20:39.000Z</time>
      </trkpt>
      <trkpt lat="39.853078" lon="-8.75824">
        <ele>102</ele>
        <time>1970-01-01T00:20:40.000Z</time>
      </trkpt>
      <trkpt lat="39.853059" lon="-8.75829">
        <ele>102.4</ele>
        <time>1970-01-01T00:20:41.000Z</time>
      </trkpt>
      <trkpt lat="39.853042" lon="-8.758342">
        <ele>102.1</ele>
        <time>1970-01-01T00:20:42.000Z</time>
      </trkpt>
      <trkpt lat="39.85303" lon="-8.758395">
        <ele>101.9</ele>
        <time>1970-01-01T00:20:43.000Z</time>
      </trkpt>
      <trkpt lat="39.853019" lon="-8.758449">
        <ele>102.2</ele>
        <time>1970-01-01T00:20:44.000Z</time>
      </trkpt>
      <trkpt lat="39.853012" lon="-8.7585">
        <ele>102.1</ele>
        <time>1970-01-01T00:20:45.000Z</time>
      </trkpt>
      <trkpt lat="39.853013" lon="-8.758543">
        <ele>102</ele>
        <time>1970-01-01T00:20:46.000Z</time>
      </trkpt>
      <trkpt lat="39.85302" lon="-8.75857">
        <ele>101.9</ele>
        <time>1970-01-01T00:20:47.000Z</time>
      </trkpt>
      <trkpt lat="39.853032" lon="-8.758587">
        <ele>101.4</ele>
        <time>1970-01-01T00:20:48.000Z</time>
      </trkpt>
      <trkpt lat="39.853054" lon="-8.758598">
        <ele>101.3</ele>
        <time>1970-01-01T00:20:49.000Z</time>
      </trkpt>
      <trkpt lat="39.853083" lon="-8.758614">
        <ele>100.9</ele>
        <time>1970-01-01T00:20:50.000Z</time>
      </trkpt>
      <trkpt lat="39.853118" lon="-8.758638">
        <ele>100.3</ele>
        <time>1970-01-01T00:20:51.000Z</time>
      </trkpt>
      <trkpt lat="39.853152" lon="-8.758667">
        <ele>99.8</ele>
        <time>1970-01-01T00:20:52.000Z</time>
      </trkpt>
      <trkpt lat="39.853179" lon="-8.758699">
        <ele>99.2</ele>
        <time>1970-01-01T00:20:53.000Z</time>
      </trkpt>
      <trkpt lat="39.8532" lon="-8.758736">
        <ele>98.6</ele>
        <time>1970-01-01T00:20:54.000Z</time>
      </trkpt>
      <trkpt lat="39.853217" lon="-8.758779">
        <ele>98.4</ele>
        <time>1970-01-01T00:20:55.000Z</time>
      </trkpt>
      <trkpt lat="39.853228" lon="-8.758824">
        <ele>97.8</ele>
        <time>1970-01-01T00:20:56.000Z</time>
      </trkpt>
      <trkpt lat="39.853238" lon="-8.758869">
        <ele>97.6</ele>
        <time>1970-01-01T00:20:57.000Z</time>
      </trkpt>
      <trkpt lat="39.853244" lon="-8.758911">
        <ele>97.4</ele>
        <time>1970-01-01T00:20:58.000Z</time>
      </trkpt>
      <trkpt lat="39.853248" lon="-8.75895">
        <ele>97.2</ele>
        <time>1970-01-01T00:20:59.000Z</time>
      </trkpt>
      <trkpt lat="39.85325" lon="-8.758984">
        <ele>96.9</ele>
        <time>1970-01-01T00:21:00.000Z</time>
      </trkpt>
      <trkpt lat="39.853249" lon="-8.759014">
        <ele>96.9</ele>
        <time>1970-01-01T00:21:01.000Z</time>
      </trkpt>
      <trkpt lat="39.853245" lon="-8.759042">
        <ele>96.7</ele>
        <time>1970-01-01T00:21:02.000Z</time>
      </trkpt>
      <trkpt lat="39.85324" lon="-8.75907">
        <ele>96.4</ele>
        <time>1970-01-01T00:21:03.000Z</time>
      </trkpt>
      <trkpt lat="39.853236" lon="-8.759099">
        <ele>96.4</ele>
        <time>1970-01-01T00:21:04.000Z</time>
      </trkpt>
      <trkpt lat="39.853234" lon="-8.759128">
        <ele>96.2</ele>
        <time>1970-01-01T00:21:05.000Z</time>
      </trkpt>
      <trkpt lat="39.853236" lon="-8.759156">
        <ele>96</ele>
        <time>1970-01-01T00:21:06.000Z</time>
      </trkpt>
      <trkpt lat="39.85324" lon="-8.759182">
        <ele>96</ele>
        <time>1970-01-01T00:21:07.000Z</time>
      </trkpt>
      <trkpt lat="39.853246" lon="-8.759205">
        <ele>95.7</ele>
        <time>1970-01-01T00:21:08.000Z</time>
      </trkpt>
      <trkpt lat="39.85325" lon="-8.759227">
        <ele>95.7</ele>
        <time>1970-01-01T00:21:09.000Z</time>
      </trkpt>
      <trkpt lat="39.853252" lon="-8.759245">
        <ele>95.5</ele>
        <time>1970-01-01T00:21:10.000Z</time>
      </trkpt>
      <trkpt lat="39.853252" lon="-8.759262">
        <ele>95.5</ele>
        <time>1970-01-01T00:21:11.000Z</time>
      </trkpt>
      <trkpt lat="39.853253" lon="-8.759278">
        <ele>95.5</ele>
        <time>1970-01-01T00:21:12.000Z</time>
      </trkpt>
      <trkpt lat="39.853257" lon="-8.759295">
        <ele>95.3</ele>
        <time>1970-01-01T00:21:13.000Z</time>
      </trkpt>
      <trkpt lat="39.853262" lon="-8.759311">
        <ele>95.2</ele>
        <time>1970-01-01T00:21:14.000Z</time>
      </trkpt>
      <trkpt lat="39.85327" lon="-8.759325">
        <ele>95</ele>
        <time>1970-01-01T00:21:15.000Z</time>
      </trkpt>
      <trkpt lat="39.85328" lon="-8.75934">
        <ele>95</ele>
        <time>1970-01-01T00:21:16.000Z</time>
      </trkpt>
      <trkpt lat="39.853293" lon="-8.759354">
        <ele>94.9</ele>
        <time>1970-01-01T00:21:17.000Z</time>
      </trkpt>
      <trkpt lat="39.853306" lon="-8.759371">
        <ele>94.7</ele>
        <time>1970-01-01T00:21:18.000Z</time>
      </trkpt>
      <trkpt lat="39.853315" lon="-8.759394">
        <ele>94.7</ele>
        <time>1970-01-01T00:21:19.000Z</time>
      </trkpt>
      <trkpt lat="39.853319" lon="-8.759419">
        <ele>94.5</ele>
        <time>1970-01-01T00:21:20.000Z</time>
      </trkpt>
      <trkpt lat="39.85332" lon="-8.759448">
        <ele>94.6</ele>
        <time>1970-01-01T00:21:21.000Z</time>
      </trkpt>
      <trkpt lat="39.853319" lon="-8.75948">
        <ele>94.4</ele>
        <time>1970-01-01T00:21:22.000Z</time>
      </trkpt>
      <trkpt lat="39.853317" lon="-8.759511">
        <ele>94.3</ele>
        <time>1970-01-01T00:21:23.000Z</time>
      </trkpt>
      <trkpt lat="39.853312" lon="-8.759542">
        <ele>94.1</ele>
        <time>1970-01-01T00:21:24.000Z</time>
      </trkpt>
      <trkpt lat="39.853303" lon="-8.759577">
        <ele>94.1</ele>
        <time>1970-01-01T00:21:25.000Z</time>
      </trkpt>
      <trkpt lat="39.853293" lon="-8.759615">
        <ele>94</ele>
        <time>1970-01-01T00:21:26.000Z</time>
      </trkpt>
      <trkpt lat="39.853283" lon="-8.759652">
        <ele>93.9</ele>
        <time>1970-01-01T00:21:27.000Z</time>
      </trkpt>
      <trkpt lat="39.853275" lon="-8.759688">
        <ele>93.8</ele>
        <time>1970-01-01T00:21:28.000Z</time>
      </trkpt>
      <trkpt lat="39.853268" lon="-8.75972">
        <ele>93.7</ele>
        <time>1970-01-01T00:21:29.000Z</time>
      </trkpt>
      <trkpt lat="39.853264" lon="-8.759748">
        <ele>93.7</ele>
        <time>1970-01-01T00:21:30.000Z</time>
      </trkpt>
      <trkpt lat="39.853261" lon="-8.759771">
        <ele>93.5</ele>
        <time>1970-01-01T00:21:31.000Z</time>
      </trkpt>
      <trkpt lat="39.853256" lon="-8.759791">
        <ele>93.6</ele>
        <time>1970-01-01T00:21:32.000Z</time>
      </trkpt>
      <trkpt lat="39.853248" lon="-8.759811">
        <ele>93.4</ele>
        <time>1970-01-01T00:21:33.000Z</time>
      </trkpt>
      <trkpt lat="39.853239" lon="-8.75983">
        <ele>93.4</ele>
        <time>1970-01-01T00:21:34.000Z</time>
      </trkpt>
      <trkpt lat="39.853227" lon="-8.759852">
        <ele>93.3</ele>
        <time>1970-01-01T00:21:35.000Z</time>
      </trkpt>
      <trkpt lat="39.853214" lon="-8.759875">
        <ele>93.3</ele>
        <time>1970-01-01T00:21:36.000Z</time>
      </trkpt>
      <trkpt lat="39.853198" lon="-8.759901">
        <ele>93.2</ele>
        <time>1970-01-01T00:21:37.000Z</time>
      </trkpt>
      <trkpt lat="39.853183" lon="-8.759928">
        <ele>93.1</ele>
        <time>1970-01-01T00:21:38.000Z</time>
      </trkpt>
      <trkpt lat="39.853168" lon="-8.75996">
        <ele>93.1</ele>
        <time>1970-01-01T00:21:39.000Z</time>
      </trkpt>
      <trkpt lat="39.853153" lon="-8.759996">
        <ele>93</ele>
        <time>1970-01-01T00:21:40.000Z</time>
      </trkpt>
      <trkpt lat="39.853136" lon="-8.760036">
        <ele>92.9</ele>
        <time>1970-01-01T00:21:41.000Z</time>
      </trkpt>
      <trkpt lat="39.85312" lon="-8.760077">
        <ele>92.9</ele>
        <time>1970-01-01T00:21:42.000Z</time>
      </trkpt>
      <trkpt lat="39.853104" lon="-8.760117">
        <ele>92.8</ele>
        <time>1970-01-01T00:21:43.000Z</time>
      </trkpt>
      <trkpt lat="39.853087" lon="-8.760156">
        <ele>92.8</ele>
        <time>1970-01-01T00:21:44.000Z</time>
      </trkpt>
      <trkpt lat="39.853071" lon="-8.760191">
        <ele>92.9</ele>
        <time>1970-01-01T00:21:45.000Z</time>
      </trkpt>
      <trkpt lat="39.853059" lon="-8.760222">
        <ele>93</ele>
        <time>1970-01-01T00:21:46.000Z</time>
      </trkpt>
      <trkpt lat="39.853053" lon="-8.76025">
        <ele>93</ele>
        <time>1970-01-01T00:21:47.000Z</time>
      </trkpt>
      <trkpt lat="39.85305" lon="-8.760273">
        <ele>93</ele>
        <time>1970-01-01T00:21:48.000Z</time>
      </trkpt>
      <trkpt lat="39.853052" lon="-8.760297">
        <ele>93</ele>
        <time>1970-01-01T00:21:49.000Z</time>
      </trkpt>
      <trkpt lat="39.853054" lon="-8.760322">
        <ele>93</ele>
        <time>1970-01-01T00:21:50.000Z</time>
      </trkpt>
      <trkpt lat="39.853058" lon="-8.760351">
        <ele>93</ele>
        <time>1970-01-01T00:21:51.000Z</time>
      </trkpt>
      <trkpt lat="39.853061" lon="-8.760383">
        <ele>93</ele>
        <time>1970-01-01T00:21:52.000Z</time>
      </trkpt>
      <trkpt lat="39.853064" lon="-8.760418">
        <ele>93</ele>
        <time>1970-01-01T00:21:53.000Z</time>
      </trkpt>
      <trkpt lat="39.853065" lon="-8.760456">
        <ele>93</ele>
        <time>1970-01-01T00:21:54.000Z</time>
      </trkpt>
      <trkpt lat="39.853064" lon="-8.760491">
        <ele>92.9</ele>
        <time>1970-01-01T00:21:55.000Z</time>
      </trkpt>
      <trkpt lat="39.85306" lon="-8.760522">
        <ele>93</ele>
        <time>1970-01-01T00:21:56.000Z</time>
      </trkpt>
      <trkpt lat="39.853053" lon="-8.760553">
        <ele>93</ele>
        <time>1970-01-01T00:21:57.000Z</time>
      </trkpt>
      <trkpt lat="39.853043" lon="-8.760585">
        <ele>92.9</ele>
        <time>1970-01-01T00:21:58.000Z</time>
      </trkpt>
      <trkpt lat="39.853031" lon="-8.760618">
        <ele>92.9</ele>
        <time>1970-01-01T00:21:59.000Z</time>
      </trkpt>
      <trkpt lat="39.853016" lon="-8.760651">
        <ele>93</ele>
        <time>1970-01-01T00:22:00.000Z</time>
      </trkpt>
      <trkpt lat="39.852999" lon="-8.760688">
        <ele>92.9</ele>
        <time>1970-01-01T00:22:01.000Z</time>
      </trkpt>
      <trkpt lat="39.852979" lon="-8.760727">
        <ele>93</ele>
        <time>1970-01-01T00:22:02.000Z</time>
      </trkpt>
      <trkpt lat="39.852959" lon="-8.760768">
        <ele>93</ele>
        <time>1970-01-01T00:22:03.000Z</time>
      </trkpt>
      <trkpt lat="39.852936" lon="-8.76081">
        <ele>93</ele>
        <time>1970-01-01T00:22:04.000Z</time>
      </trkpt>
      <trkpt lat="39.85291" lon="-8.760852">
        <ele>93.1</ele>
        <time>1970-01-01T00:22:05.000Z</time>
      </trkpt>
      <trkpt lat="39.852886" lon="-8.760893">
        <ele>93.1</ele>
        <time>1970-01-01T00:22:06.000Z</time>
      </trkpt>
      <trkpt lat="39.852861" lon="-8.760932">
        <ele>93.2</ele>
        <time>1970-01-01T00:22:07.000Z</time>
      </trkpt>
      <trkpt lat="39.85284" lon="-8.760969">
        <ele>93.3</ele>
        <time>1970-01-01T00:22:08.000Z</time>
      </trkpt>
      <trkpt lat="39.852824" lon="-8.761003">
        <ele>93.4</ele>
        <time>1970-01-01T00:22:09.000Z</time>
      </trkpt>
      <trkpt lat="39.852811" lon="-8.761031">
        <ele>93.4</ele>
        <time>1970-01-01T00:22:10.000Z</time>
      </trkpt>
      <trkpt lat="39.852798" lon="-8.761057">
        <ele>93.5</ele>
        <time>1970-01-01T00:22:11.000Z</time>
      </trkpt>
      <trkpt lat="39.852785" lon="-8.761079">
        <ele>93.5</ele>
        <time>1970-01-01T00:22:12.000Z</time>
      </trkpt>
      <trkpt lat="39.852772" lon="-8.761099">
        <ele>93.6</ele>
        <time>1970-01-01T00:22:13.000Z</time>
      </trkpt>
      <trkpt lat="39.852759" lon="-8.761117">
        <ele>93.5</ele>
        <time>1970-01-01T00:22:14.000Z</time>
      </trkpt>
      <trkpt lat="39.852746" lon="-8.761135">
        <ele>93.7</ele>
        <time>1970-01-01T00:22:15.000Z</time>
      </trkpt>
      <trkpt lat="39.852731" lon="-8.761153">
        <ele>93.7</ele>
        <time>1970-01-01T00:22:16.000Z</time>
      </trkpt>
      <trkpt lat="39.852717" lon="-8.761169">
        <ele>93.7</ele>
        <time>1970-01-01T00:22:17.000Z</time>
      </trkpt>
      <trkpt lat="39.852704" lon="-8.761186">
        <ele>93.7</ele>
        <time>1970-01-01T00:22:18.000Z</time>
      </trkpt>
      <trkpt lat="39.852692" lon="-8.7612">
        <ele>93.6</ele>
        <time>1970-01-01T00:22:19.000Z</time>
      </trkpt>
      <trkpt lat="39.852678" lon="-8.761213">
        <ele>93.7</ele>
        <time>1970-01-01T00:22:20.000Z</time>
      </trkpt>
      <trkpt lat="39.852665" lon="-8.761226">
        <ele>93.7</ele>
        <time>1970-01-01T00:22:21.000Z</time>
      </trkpt>
      <trkpt lat="39.852651" lon="-8.76124">
        <ele>93.5</ele>
        <time>1970-01-01T00:22:22.000Z</time>
      </trkpt>
      <trkpt lat="39.852637" lon="-8.761256">
        <ele>93.6</ele>
        <time>1970-01-01T00:22:23.000Z</time>
      </trkpt>
      <trkpt lat="39.852622" lon="-8.761277">
        <ele>93.5</ele>
        <time>1970-01-01T00:22:24.000Z</time>
      </trkpt>
      <trkpt lat="39.852607" lon="-8.761299">
        <ele>93.6</ele>
        <time>1970-01-01T00:22:25.000Z</time>
      </trkpt>
      <trkpt lat="39.852592" lon="-8.761322">
        <ele>93.4</ele>
        <time>1970-01-01T00:22:26.000Z</time>
      </trkpt>
      <trkpt lat="39.852575" lon="-8.761347">
        <ele>93.5</ele>
        <time>1970-01-01T00:22:27.000Z</time>
      </trkpt>
      <trkpt lat="39.852554" lon="-8.761374">
        <ele>93.4</ele>
        <time>1970-01-01T00:22:28.000Z</time>
      </trkpt>
      <trkpt lat="39.852529" lon="-8.761404">
        <ele>93.3</ele>
        <time>1970-01-01T00:22:29.000Z</time>
      </trkpt>
      <trkpt lat="39.852503" lon="-8.761437">
        <ele>93.4</ele>
        <time>1970-01-01T00:22:30.000Z</time>
      </trkpt>
      <trkpt lat="39.852477" lon="-8.761469">
        <ele>93.3</ele>
        <time>1970-01-01T00:22:31.000Z</time>
      </trkpt>
      <trkpt lat="39.852457" lon="-8.761501">
        <ele>93.3</ele>
        <time>1970-01-01T00:22:32.000Z</time>
      </trkpt>
      <trkpt lat="39.852438" lon="-8.761534">
        <ele>93.3</ele>
        <time>1970-01-01T00:22:33.000Z</time>
      </trkpt>
      <trkpt lat="39.852419" lon="-8.761567">
        <ele>93.3</ele>
        <time>1970-01-01T00:22:34.000Z</time>
      </trkpt>
      <trkpt lat="39.8524" lon="-8.761602">
        <ele>93.2</ele>
        <time>1970-01-01T00:22:35.000Z</time>
      </trkpt>
      <trkpt lat="39.85238" lon="-8.761638">
        <ele>93.2</ele>
        <time>1970-01-01T00:22:36.000Z</time>
      </trkpt>
      <trkpt lat="39.85236" lon="-8.761675">
        <ele>93.1</ele>
        <time>1970-01-01T00:22:37.000Z</time>
      </trkpt>
      <trkpt lat="39.85234" lon="-8.761712">
        <ele>93.1</ele>
        <time>1970-01-01T00:22:38.000Z</time>
      </trkpt>
      <trkpt lat="39.852324" lon="-8.761749">
        <ele>93</ele>
        <time>1970-01-01T00:22:39.000Z</time>
      </trkpt>
      <trkpt lat="39.852309" lon="-8.761787">
        <ele>92.9</ele>
        <time>1970-01-01T00:22:40.000Z</time>
      </trkpt>
      <trkpt lat="39.852297" lon="-8.761828">
        <ele>92.8</ele>
        <time>1970-01-01T00:22:41.000Z</time>
      </trkpt>
      <trkpt lat="39.852289" lon="-8.761871">
        <ele>92.7</ele>
        <time>1970-01-01T00:22:42.000Z</time>
      </trkpt>
      <trkpt lat="39.852284" lon="-8.761914">
        <ele>92.6</ele>
        <time>1970-01-01T00:22:43.000Z</time>
      </trkpt>
      <trkpt lat="39.85228" lon="-8.761956">
        <ele>92.4</ele>
        <time>1970-01-01T00:22:44.000Z</time>
      </trkpt>
      <trkpt lat="39.852275" lon="-8.761996">
        <ele>92.3</ele>
        <time>1970-01-01T00:22:45.000Z</time>
      </trkpt>
      <trkpt lat="39.852267" lon="-8.762036">
        <ele>92.1</ele>
        <time>1970-01-01T00:22:46.000Z</time>
      </trkpt>
      <trkpt lat="39.852255" lon="-8.762075">
        <ele>92</ele>
        <time>1970-01-01T00:22:47.000Z</time>
      </trkpt>
      <trkpt lat="39.85224" lon="-8.762115">
        <ele>91.8</ele>
        <time>1970-01-01T00:22:48.000Z</time>
      </trkpt>
      <trkpt lat="39.852221" lon="-8.762155">
        <ele>91.6</ele>
        <time>1970-01-01T00:22:49.000Z</time>
      </trkpt>
      <trkpt lat="39.852201" lon="-8.762195">
        <ele>91.5</ele>
        <time>1970-01-01T00:22:50.000Z</time>
      </trkpt>
      <trkpt lat="39.852183" lon="-8.762235">
        <ele>91.4</ele>
        <time>1970-01-01T00:22:51.000Z</time>
      </trkpt>
      <trkpt lat="39.852167" lon="-8.762275">
        <ele>91.1</ele>
        <time>1970-01-01T00:22:52.000Z</time>
      </trkpt>
      <trkpt lat="39.852153" lon="-8.762312">
        <ele>91</ele>
        <time>1970-01-01T00:22:53.000Z</time>
      </trkpt>
      <trkpt lat="39.852142" lon="-8.762349">
        <ele>90.9</ele>
        <time>1970-01-01T00:22:54.000Z</time>
      </trkpt>
      <trkpt lat="39.852131" lon="-8.762387">
        <ele>90.6</ele>
        <time>1970-01-01T00:22:55.000Z</time>
      </trkpt>
      <trkpt lat="39.85212" lon="-8.762424">
        <ele>90.5</ele>
        <time>1970-01-01T00:22:56.000Z</time>
      </trkpt>
      <trkpt lat="39.85211" lon="-8.762459">
        <ele>90.4</ele>
        <time>1970-01-01T00:22:57.000Z</time>
      </trkpt>
      <trkpt lat="39.852097" lon="-8.762495">
        <ele>90.2</ele>
        <time>1970-01-01T00:22:58.000Z</time>
      </trkpt>
      <trkpt lat="39.852082" lon="-8.762532">
        <ele>90.1</ele>
        <time>1970-01-01T00:22:59.000Z</time>
      </trkpt>
      <trkpt lat="39.852065" lon="-8.762567">
        <ele>89.9</ele>
        <time>1970-01-01T00:23:00.000Z</time>
      </trkpt>
      <trkpt lat="39.852045" lon="-8.762605">
        <ele>89.8</ele>
        <time>1970-01-01T00:23:01.000Z</time>
      </trkpt>
      <trkpt lat="39.852023" lon="-8.762646">
        <ele>89.6</ele>
        <time>1970-01-01T00:23:02.000Z</time>
      </trkpt>
      <trkpt lat="39.852003" lon="-8.762691">
        <ele>89.3</ele>
        <time>1970-01-01T00:23:03.000Z</time>
      </trkpt>
      <trkpt lat="39.851981" lon="-8.762738">
        <ele>89.3</ele>
        <time>1970-01-01T00:23:04.000Z</time>
      </trkpt>
      <trkpt lat="39.851958" lon="-8.762785">
        <ele>89.1</ele>
        <time>1970-01-01T00:23:05.000Z</time>
      </trkpt>
      <trkpt lat="39.851937" lon="-8.762833">
        <ele>88.9</ele>
        <time>1970-01-01T00:23:06.000Z</time>
      </trkpt>
      <trkpt lat="39.851916" lon="-8.76288">
        <ele>88.8</ele>
        <time>1970-01-01T00:23:07.000Z</time>
      </trkpt>
      <trkpt lat="39.851897" lon="-8.762928">
        <ele>88.6</ele>
        <time>1970-01-01T00:23:08.000Z</time>
      </trkpt>
      <trkpt lat="39.851881" lon="-8.762975">
        <ele>88.7</ele>
        <time>1970-01-01T00:23:09.000Z</time>
      </trkpt>
      <trkpt lat="39.851867" lon="-8.763025">
        <ele>88.5</ele>
        <time>1970-01-01T00:23:10.000Z</time>
      </trkpt>
      <trkpt lat="39.851855" lon="-8.763076">
        <ele>88.5</ele>
        <time>1970-01-01T00:23:11.000Z</time>
      </trkpt>
      <trkpt lat="39.851846" lon="-8.763132">
        <ele>88.6</ele>
        <time>1970-01-01T00:23:12.000Z</time>
      </trkpt>
      <trkpt lat="39.851839" lon="-8.763193">
        <ele>88.4</ele>
        <time>1970-01-01T00:23:13.000Z</time>
      </trkpt>
      <trkpt lat="39.851834" lon="-8.763257">
        <ele>88.5</ele>
        <time>1970-01-01T00:23:14.000Z</time>
      </trkpt>
      <trkpt lat="39.851829" lon="-8.763323">
        <ele>88.6</ele>
        <time>1970-01-01T00:23:15.000Z</time>
      </trkpt>
      <trkpt lat="39.851827" lon="-8.763392">
        <ele>88.7</ele>
        <time>1970-01-01T00:23:16.000Z</time>
      </trkpt>
      <trkpt lat="39.851824" lon="-8.763459">
        <ele>88.8</ele>
        <time>1970-01-01T00:23:17.000Z</time>
      </trkpt>
      <trkpt lat="39.851823" lon="-8.763519">
        <ele>88.8</ele>
        <time>1970-01-01T00:23:18.000Z</time>
      </trkpt>
      <trkpt lat="39.851819" lon="-8.763573">
        <ele>88.9</ele>
        <time>1970-01-01T00:23:19.000Z</time>
      </trkpt>
      <trkpt lat="39.851811" lon="-8.763625">
        <ele>88.9</ele>
        <time>1970-01-01T00:23:20.000Z</time>
      </trkpt>
      <trkpt lat="39.851803" lon="-8.763675">
        <ele>88.7</ele>
        <time>1970-01-01T00:23:21.000Z</time>
      </trkpt>
      <trkpt lat="39.851792" lon="-8.763725">
        <ele>88.7</ele>
        <time>1970-01-01T00:23:22.000Z</time>
      </trkpt>
      <trkpt lat="39.851776" lon="-8.763778">
        <ele>88.7</ele>
        <time>1970-01-01T00:23:23.000Z</time>
      </trkpt>
      <trkpt lat="39.851756" lon="-8.763834">
        <ele>88.5</ele>
        <time>1970-01-01T00:23:24.000Z</time>
      </trkpt>
      <trkpt lat="39.851736" lon="-8.763892">
        <ele>88.2</ele>
        <time>1970-01-01T00:23:25.000Z</time>
      </trkpt>
      <trkpt lat="39.851716" lon="-8.763946">
        <ele>88.2</ele>
        <time>1970-01-01T00:23:26.000Z</time>
      </trkpt>
      <trkpt lat="39.851699" lon="-8.763993">
        <ele>88</ele>
        <time>1970-01-01T00:23:27.000Z</time>
      </trkpt>
      <trkpt lat="39.851685" lon="-8.764036">
        <ele>88</ele>
        <time>1970-01-01T00:23:28.000Z</time>
      </trkpt>
      <trkpt lat="39.851674" lon="-8.764076">
        <ele>87.8</ele>
        <time>1970-01-01T00:23:29.000Z</time>
      </trkpt>
      <trkpt lat="39.851663" lon="-8.764117">
        <ele>87.8</ele>
        <time>1970-01-01T00:23:30.000Z</time>
      </trkpt>
      <trkpt lat="39.851651" lon="-8.764156">
        <ele>87.9</ele>
        <time>1970-01-01T00:23:31.000Z</time>
      </trkpt>
      <trkpt lat="39.851637" lon="-8.764197">
        <ele>87.8</ele>
        <time>1970-01-01T00:23:32.000Z</time>
      </trkpt>
      <trkpt lat="39.851624" lon="-8.764238">
        <ele>87.9</ele>
        <time>1970-01-01T00:23:33.000Z</time>
      </trkpt>
      <trkpt lat="39.851614" lon="-8.764279">
        <ele>87.9</ele>
        <time>1970-01-01T00:23:34.000Z</time>
      </trkpt>
      <trkpt lat="39.851606" lon="-8.764322">
        <ele>87.9</ele>
        <time>1970-01-01T00:23:35.000Z</time>
      </trkpt>
      <trkpt lat="39.851601" lon="-8.764365">
        <ele>87.9</ele>
        <time>1970-01-01T00:23:36.000Z</time>
      </trkpt>
      <trkpt lat="39.851597" lon="-8.764408">
        <ele>88</ele>
        <time>1970-01-01T00:23:37.000Z</time>
      </trkpt>
      <trkpt lat="39.851591" lon="-8.764447">
        <ele>88</ele>
        <time>1970-01-01T00:23:38.000Z</time>
      </trkpt>
      <trkpt lat="39.851582" lon="-8.764482">
        <ele>88</ele>
        <time>1970-01-01T00:23:39.000Z</time>
      </trkpt>
      <trkpt lat="39.85157" lon="-8.764518">
        <ele>88</ele>
        <time>1970-01-01T00:23:40.000Z</time>
      </trkpt>
      <trkpt lat="39.851564" lon="-8.76455">
        <ele>88</ele>
        <time>1970-01-01T00:23:41.000Z</time>
      </trkpt>
      <trkpt lat="39.851563" lon="-8.764577">
        <ele>88</ele>
        <time>1970-01-01T00:23:42.000Z</time>
      </trkpt>
      <trkpt lat="39.851566" lon="-8.764604">
        <ele>88</ele>
        <time>1970-01-01T00:23:43.000Z</time>
      </trkpt>
      <trkpt lat="39.85157" lon="-8.764631">
        <ele>88</ele>
        <time>1970-01-01T00:23:44.000Z</time>
      </trkpt>
      <trkpt lat="39.851574" lon="-8.764658">
        <ele>88.1</ele>
        <time>1970-01-01T00:23:45.000Z</time>
      </trkpt>
      <trkpt lat="39.851577" lon="-8.764687">
        <ele>88.1</ele>
        <time>1970-01-01T00:23:46.000Z</time>
      </trkpt>
      <trkpt lat="39.851578" lon="-8.764714">
        <ele>88.2</ele>
        <time>1970-01-01T00:23:47.000Z</time>
      </trkpt>
      <trkpt lat="39.851576" lon="-8.76474">
        <ele>88.2</ele>
        <time>1970-01-01T00:23:48.000Z</time>
      </trkpt>
      <trkpt lat="39.851574" lon="-8.764766">
        <ele>88.2</ele>
        <time>1970-01-01T00:23:49.000Z</time>
      </trkpt>
      <trkpt lat="39.85157" lon="-8.764794">
        <ele>88.2</ele>
        <time>1970-01-01T00:23:50.000Z</time>
      </trkpt>
      <trkpt lat="39.851565" lon="-8.764823">
        <ele>88.2</ele>
        <time>1970-01-01T00:23:51.000Z</time>
      </trkpt>
      <trkpt lat="39.851557" lon="-8.764853">
        <ele>88.2</ele>
        <time>1970-01-01T00:23:52.000Z</time>
      </trkpt>
      <trkpt lat="39.851549" lon="-8.764882">
        <ele>88.1</ele>
        <time>1970-01-01T00:23:53.000Z</time>
      </trkpt>
      <trkpt lat="39.851539" lon="-8.764908">
        <ele>88.1</ele>
        <time>1970-01-01T00:23:54.000Z</time>
      </trkpt>
      <trkpt lat="39.851528" lon="-8.764936">
        <ele>88.1</ele>
        <time>1970-01-01T00:23:55.000Z</time>
      </trkpt>
      <trkpt lat="39.851518" lon="-8.764967">
        <ele>88</ele>
        <time>1970-01-01T00:23:56.000Z</time>
      </trkpt>
      <trkpt lat="39.851509" lon="-8.765004">
        <ele>87.9</ele>
        <time>1970-01-01T00:23:57.000Z</time>
      </trkpt>
      <trkpt lat="39.8515" lon="-8.765047">
        <ele>87.7</ele>
        <time>1970-01-01T00:23:58.000Z</time>
      </trkpt>
      <trkpt lat="39.851492" lon="-8.765096">
        <ele>87.6</ele>
        <time>1970-01-01T00:23:59.000Z</time>
      </trkpt>
      <trkpt lat="39.851485" lon="-8.765146">
        <ele>87.5</ele>
        <time>1970-01-01T00:24:00.000Z</time>
      </trkpt>
      <trkpt lat="39.85148" lon="-8.765193">
        <ele>87.5</ele>
        <time>1970-01-01T00:24:01.000Z</time>
      </trkpt>
      <trkpt lat="39.851476" lon="-8.765238">
        <ele>87.4</ele>
        <time>1970-01-01T00:24:02.000Z</time>
      </trkpt>
      <trkpt lat="39.851473" lon="-8.765281">
        <ele>87.4</ele>
        <time>1970-01-01T00:24:03.000Z</time>
      </trkpt>
      <trkpt lat="39.85147" lon="-8.765324">
        <ele>87.4</ele>
        <time>1970-01-01T00:24:04.000Z</time>
      </trkpt>
      <trkpt lat="39.851469" lon="-8.765366">
        <ele>87.4</ele>
        <time>1970-01-01T00:24:05.000Z</time>
      </trkpt>
      <trkpt lat="39.851467" lon="-8.765407">
        <ele>87.5</ele>
        <time>1970-01-01T00:24:06.000Z</time>
      </trkpt>
      <trkpt lat="39.851463" lon="-8.765448">
        <ele>87.5</ele>
        <time>1970-01-01T00:24:07.000Z</time>
      </trkpt>
      <trkpt lat="39.851458" lon="-8.765489">
        <ele>87.5</ele>
        <time>1970-01-01T00:24:08.000Z</time>
      </trkpt>
      <trkpt lat="39.851452" lon="-8.765529">
        <ele>87.5</ele>
        <time>1970-01-01T00:24:09.000Z</time>
      </trkpt>
      <trkpt lat="39.851448" lon="-8.765571">
        <ele>87.6</ele>
        <time>1970-01-01T00:24:10.000Z</time>
      </trkpt>
      <trkpt lat="39.851441" lon="-8.765616">
        <ele>87.5</ele>
        <time>1970-01-01T00:24:11.000Z</time>
      </trkpt>
      <trkpt lat="39.851432" lon="-8.765664">
        <ele>87.5</ele>
        <time>1970-01-01T00:24:12.000Z</time>
      </trkpt>
      <trkpt lat="39.851419" lon="-8.76571">
        <ele>87.6</ele>
        <time>1970-01-01T00:24:13.000Z</time>
      </trkpt>
      <trkpt lat="39.851402" lon="-8.765754">
        <ele>87.5</ele>
        <time>1970-01-01T00:24:14.000Z</time>
      </trkpt>
      <trkpt lat="39.851382" lon="-8.765801">
        <ele>87.6</ele>
        <time>1970-01-01T00:24:15.000Z</time>
      </trkpt>
      <trkpt lat="39.851363" lon="-8.765845">
        <ele>87.5</ele>
        <time>1970-01-01T00:24:16.000Z</time>
      </trkpt>
      <trkpt lat="39.851348" lon="-8.765887">
        <ele>87.7</ele>
        <time>1970-01-01T00:24:17.000Z</time>
      </trkpt>
      <trkpt lat="39.851337" lon="-8.765923">
        <ele>87.7</ele>
        <time>1970-01-01T00:24:18.000Z</time>
      </trkpt>
      <trkpt lat="39.851323" lon="-8.765953">
        <ele>87.8</ele>
        <time>1970-01-01T00:24:19.000Z</time>
      </trkpt>
      <trkpt lat="39.851307" lon="-8.765981">
        <ele>87.8</ele>
        <time>1970-01-01T00:24:20.000Z</time>
      </trkpt>
      <trkpt lat="39.851288" lon="-8.76601">
        <ele>87.8</ele>
        <time>1970-01-01T00:24:21.000Z</time>
      </trkpt>
      <trkpt lat="39.851268" lon="-8.766037">
        <ele>87.9</ele>
        <time>1970-01-01T00:24:22.000Z</time>
      </trkpt>
      <trkpt lat="39.851246" lon="-8.766064">
        <ele>87.9</ele>
        <time>1970-01-01T00:24:23.000Z</time>
      </trkpt>
      <trkpt lat="39.851224" lon="-8.766089">
        <ele>87.9</ele>
        <time>1970-01-01T00:24:24.000Z</time>
      </trkpt>
      <trkpt lat="39.851197" lon="-8.766118">
        <ele>88</ele>
        <time>1970-01-01T00:24:25.000Z</time>
      </trkpt>
      <trkpt lat="39.851171" lon="-8.766151">
        <ele>88.1</ele>
        <time>1970-01-01T00:24:26.000Z</time>
      </trkpt>
      <trkpt lat="39.851149" lon="-8.766184">
        <ele>88.2</ele>
        <time>1970-01-01T00:24:27.000Z</time>
      </trkpt>
      <trkpt lat="39.851133" lon="-8.766218">
        <ele>88.2</ele>
        <time>1970-01-01T00:24:28.000Z</time>
      </trkpt>
      <trkpt lat="39.851123" lon="-8.766255">
        <ele>88.3</ele>
        <time>1970-01-01T00:24:29.000Z</time>
      </trkpt>
      <trkpt lat="39.851117" lon="-8.766295">
        <ele>88.3</ele>
        <time>1970-01-01T00:24:30.000Z</time>
      </trkpt>
      <trkpt lat="39.851113" lon="-8.766335">
        <ele>88.4</ele>
        <time>1970-01-01T00:24:31.000Z</time>
      </trkpt>
      <trkpt lat="39.851111" lon="-8.766374">
        <ele>88.4</ele>
        <time>1970-01-01T00:24:32.000Z</time>
      </trkpt>
      <trkpt lat="39.851109" lon="-8.76641">
        <ele>88.5</ele>
        <time>1970-01-01T00:24:33.000Z</time>
      </trkpt>
      <trkpt lat="39.851105" lon="-8.766445">
        <ele>88.5</ele>
        <time>1970-01-01T00:24:34.000Z</time>
      </trkpt>
      <trkpt lat="39.851098" lon="-8.766482">
        <ele>88.6</ele>
        <time>1970-01-01T00:24:35.000Z</time>
      </trkpt>
      <trkpt lat="39.851088" lon="-8.766519">
        <ele>88.7</ele>
        <time>1970-01-01T00:24:36.000Z</time>
      </trkpt>
      <trkpt lat="39.851078" lon="-8.766553">
        <ele>88.7</ele>
        <time>1970-01-01T00:24:37.000Z</time>
      </trkpt>
      <trkpt lat="39.851064" lon="-8.76659">
        <ele>88.8</ele>
        <time>1970-01-01T00:24:38.000Z</time>
      </trkpt>
      <trkpt lat="39.851049" lon="-8.766627">
        <ele>88.7</ele>
        <time>1970-01-01T00:24:39.000Z</time>
      </trkpt>
      <trkpt lat="39.851031" lon="-8.766668">
        <ele>88.8</ele>
        <time>1970-01-01T00:24:40.000Z</time>
      </trkpt>
      <trkpt lat="39.851012" lon="-8.766709">
        <ele>88.6</ele>
        <time>1970-01-01T00:24:41.000Z</time>
      </trkpt>
      <trkpt lat="39.850993" lon="-8.766747">
        <ele>88.7</ele>
        <time>1970-01-01T00:24:42.000Z</time>
      </trkpt>
      <trkpt lat="39.850977" lon="-8.766783">
        <ele>88.4</ele>
        <time>1970-01-01T00:24:43.000Z</time>
      </trkpt>
      <trkpt lat="39.850963" lon="-8.766816">
        <ele>88.5</ele>
        <time>1970-01-01T00:24:44.000Z</time>
      </trkpt>
      <trkpt lat="39.85095" lon="-8.766847">
        <ele>88.2</ele>
        <time>1970-01-01T00:24:45.000Z</time>
      </trkpt>
      <trkpt lat="39.850938" lon="-8.766879">
        <ele>88.3</ele>
        <time>1970-01-01T00:24:46.000Z</time>
      </trkpt>
      <trkpt lat="39.850928" lon="-8.766916">
        <ele>88.3</ele>
        <time>1970-01-01T00:24:47.000Z</time>
      </trkpt>
      <trkpt lat="39.850921" lon="-8.766959">
        <ele>88.3</ele>
        <time>1970-01-01T00:24:48.000Z</time>
      </trkpt>
      <trkpt lat="39.850917" lon="-8.767003">
        <ele>88</ele>
        <time>1970-01-01T00:24:49.000Z</time>
      </trkpt>
      <trkpt lat="39.850918" lon="-8.767045">
        <ele>88</ele>
        <time>1970-01-01T00:24:50.000Z</time>
      </trkpt>
      <trkpt lat="39.85092" lon="-8.767084">
        <ele>88.3</ele>
        <time>1970-01-01T00:24:51.000Z</time>
      </trkpt>
      <trkpt lat="39.850922" lon="-8.767128">
        <ele>88.2</ele>
        <time>1970-01-01T00:24:52.000Z</time>
      </trkpt>
      <trkpt lat="39.850923" lon="-8.767174">
        <ele>88.2</ele>
        <time>1970-01-01T00:24:53.000Z</time>
      </trkpt>
      <trkpt lat="39.850925" lon="-8.767215">
        <ele>88</ele>
        <time>1970-01-01T00:24:54.000Z</time>
      </trkpt>
      <trkpt lat="39.850926" lon="-8.767252">
        <ele>87.9</ele>
        <time>1970-01-01T00:24:55.000Z</time>
      </trkpt>
      <trkpt lat="39.850927" lon="-8.767288">
        <ele>87.8</ele>
        <time>1970-01-01T00:24:56.000Z</time>
      </trkpt>
      <trkpt lat="39.85093" lon="-8.767322">
        <ele>87.7</ele>
        <time>1970-01-01T00:24:57.000Z</time>
      </trkpt>
      <trkpt lat="39.850933" lon="-8.767351">
        <ele>87.6</ele>
        <time>1970-01-01T00:24:58.000Z</time>
      </trkpt>
      <trkpt lat="39.850935" lon="-8.767379">
        <ele>87.6</ele>
        <time>1970-01-01T00:24:59.000Z</time>
      </trkpt>
      <trkpt lat="39.85094" lon="-8.767406">
        <ele>87.6</ele>
        <time>1970-01-01T00:25:00.000Z</time>
      </trkpt>
      <trkpt lat="39.850945" lon="-8.767431">
        <ele>87.6</ele>
        <time>1970-01-01T00:25:01.000Z</time>
      </trkpt>
      <trkpt lat="39.850951" lon="-8.767454">
        <ele>87.5</ele>
        <time>1970-01-01T00:25:02.000Z</time>
      </trkpt>
      <trkpt lat="39.850956" lon="-8.76748">
        <ele>87.8</ele>
        <time>1970-01-01T00:25:03.000Z</time>
      </trkpt>
      <trkpt lat="39.850955" lon="-8.767505">
        <ele>87.8</ele>
        <time>1970-01-01T00:25:04.000Z</time>
      </trkpt>
      <trkpt lat="39.850951" lon="-8.767532">
        <ele>87.4</ele>
        <time>1970-01-01T00:25:05.000Z</time>
      </trkpt>
      <trkpt lat="39.850945" lon="-8.76756">
        <ele>87.4</ele>
        <time>1970-01-01T00:25:06.000Z</time>
      </trkpt>
      <trkpt lat="39.850939" lon="-8.767586">
        <ele>87.4</ele>
        <time>1970-01-01T00:25:07.000Z</time>
      </trkpt>
      <trkpt lat="39.850932" lon="-8.767615">
        <ele>87.3</ele>
        <time>1970-01-01T00:25:08.000Z</time>
      </trkpt>
      <trkpt lat="39.850926" lon="-8.767647">
        <ele>87.3</ele>
        <time>1970-01-01T00:25:09.000Z</time>
      </trkpt>
      <trkpt lat="39.85092" lon="-8.767681">
        <ele>87.2</ele>
        <time>1970-01-01T00:25:10.000Z</time>
      </trkpt>
      <trkpt lat="39.850916" lon="-8.767721">
        <ele>86.8</ele>
        <time>1970-01-01T00:25:11.000Z</time>
      </trkpt>
      <trkpt lat="39.850917" lon="-8.767766">
        <ele>86.6</ele>
        <time>1970-01-01T00:25:12.000Z</time>
      </trkpt>
      <trkpt lat="39.850923" lon="-8.767817">
        <ele>86.9</ele>
        <time>1970-01-01T00:25:13.000Z</time>
      </trkpt>
      <trkpt lat="39.850929" lon="-8.767874">
        <ele>86.6</ele>
        <time>1970-01-01T00:25:14.000Z</time>
      </trkpt>
      <trkpt lat="39.850938" lon="-8.767929">
        <ele>86.5</ele>
        <time>1970-01-01T00:25:15.000Z</time>
      </trkpt>
      <trkpt lat="39.850949" lon="-8.767979">
        <ele>86.3</ele>
        <time>1970-01-01T00:25:16.000Z</time>
      </trkpt>
      <trkpt lat="39.850961" lon="-8.768024">
        <ele>86.6</ele>
        <time>1970-01-01T00:25:17.000Z</time>
      </trkpt>
      <trkpt lat="39.850973" lon="-8.768067">
        <ele>86.4</ele>
        <time>1970-01-01T00:25:18.000Z</time>
      </trkpt>
      <trkpt lat="39.850983" lon="-8.768113">
        <ele>86.3</ele>
        <time>1970-01-01T00:25:19.000Z</time>
      </trkpt>
      <trkpt lat="39.850987" lon="-8.768156">
        <ele>86.4</ele>
        <time>1970-01-01T00:25:20.000Z</time>
      </trkpt>
      <trkpt lat="39.850984" lon="-8.768196">
        <ele>85.9</ele>
        <time>1970-01-01T00:25:21.000Z</time>
      </trkpt>
      <trkpt lat="39.850975" lon="-8.768235">
        <ele>85.6</ele>
        <time>1970-01-01T00:25:22.000Z</time>
      </trkpt>
      <trkpt lat="39.85096" lon="-8.768273">
        <ele>85.3</ele>
        <time>1970-01-01T00:25:23.000Z</time>
      </trkpt>
      <trkpt lat="39.850937" lon="-8.768314">
        <ele>84.7</ele>
        <time>1970-01-01T00:25:24.000Z</time>
      </trkpt>
      <trkpt lat="39.850904" lon="-8.768358">
        <ele>84</ele>
        <time>1970-01-01T00:25:25.000Z</time>
      </trkpt>
      <trkpt lat="39.850862" lon="-8.768403">
        <ele>83.4</ele>
        <time>1970-01-01T00:25:26.000Z</time>
      </trkpt>
      <trkpt lat="39.850812" lon="-8.768442">
        <ele>82.3</ele>
        <time>1970-01-01T00:25:27.000Z</time>
      </trkpt>
      <trkpt lat="39.850753" lon="-8.768475">
        <ele>81.4</ele>
        <time>1970-01-01T00:25:28.000Z</time>
      </trkpt>
      <trkpt lat="39.850689" lon="-8.768501">
        <ele>81</ele>
        <time>1970-01-01T00:25:29.000Z</time>
      </trkpt>
      <trkpt lat="39.850624" lon="-8.768521">
        <ele>80.3</ele>
        <time>1970-01-01T00:25:30.000Z</time>
      </trkpt>
      <trkpt lat="39.850563" lon="-8.768537">
        <ele>79.8</ele>
        <time>1970-01-01T00:25:31.000Z</time>
      </trkpt>
      <trkpt lat="39.850505" lon="-8.768547">
        <ele>79.4</ele>
        <time>1970-01-01T00:25:32.000Z</time>
      </trkpt>
      <trkpt lat="39.850451" lon="-8.768551">
        <ele>78.9</ele>
        <time>1970-01-01T00:25:33.000Z</time>
      </trkpt>
      <trkpt lat="39.850402" lon="-8.768552">
        <ele>78.8</ele>
        <time>1970-01-01T00:25:34.000Z</time>
      </trkpt>
      <trkpt lat="39.850356" lon="-8.768554">
        <ele>78.7</ele>
        <time>1970-01-01T00:25:35.000Z</time>
      </trkpt>
      <trkpt lat="39.850317" lon="-8.768557">
        <ele>78.6</ele>
        <time>1970-01-01T00:25:36.000Z</time>
      </trkpt>
      <trkpt lat="39.850288" lon="-8.768561">
        <ele>78.5</ele>
        <time>1970-01-01T00:25:37.000Z</time>
      </trkpt>
      <trkpt lat="39.85027" lon="-8.768568">
        <ele>78.5</ele>
        <time>1970-01-01T00:25:38.000Z</time>
      </trkpt>
      <trkpt lat="39.850261" lon="-8.768575">
        <ele>78.5</ele>
        <time>1970-01-01T00:25:39.000Z</time>
      </trkpt>
      <trkpt lat="39.850246" lon="-8.768589">
        <ele>78.5</ele>
        <time>1970-01-01T00:25:41.000Z</time>
      </trkpt>
      <trkpt lat="39.850244" lon="-8.768596">
        <ele>78.2</ele>
        <time>1970-01-01T00:25:43.000Z</time>
      </trkpt>
      <trkpt lat="39.850243" lon="-8.768597">
        <ele>78.2</ele>
        <time>1970-01-01T00:25:44.000Z</time>
      </trkpt>
      <trkpt lat="39.850239" lon="-8.768596">
        <ele>78.2</ele>
        <time>1970-01-01T00:25:45.000Z</time>
      </trkpt>
      <trkpt lat="39.850234" lon="-8.768594">
        <ele>78.2</ele>
        <time>1970-01-01T00:25:46.000Z</time>
      </trkpt>
      <trkpt lat="39.850228" lon="-8.768593">
        <ele>78.2</ele>
        <time>1970-01-01T00:25:47.000Z</time>
      </trkpt>
      <trkpt lat="39.850221" lon="-8.768592">
        <ele>78.2</ele>
        <time>1970-01-01T00:25:48.000Z</time>
      </trkpt>
      <trkpt lat="39.850214" lon="-8.768591">
        <ele>78.4</ele>
        <time>1970-01-01T00:25:49.000Z</time>
      </trkpt>
      <trkpt lat="39.850208" lon="-8.76859">
        <ele>78.4</ele>
        <time>1970-01-01T00:25:50.000Z</time>
      </trkpt>
      <trkpt lat="39.850203" lon="-8.768592">
        <ele>78.2</ele>
        <time>1970-01-01T00:25:51.000Z</time>
      </trkpt>
      <trkpt lat="39.850202" lon="-8.768598">
        <ele>78.2</ele>
        <time>1970-01-01T00:25:52.000Z</time>
      </trkpt>
      <trkpt lat="39.850205" lon="-8.768608">
        <ele>78.2</ele>
        <time>1970-01-01T00:25:53.000Z</time>
      </trkpt>
      <trkpt lat="39.850231" lon="-8.768643">
        <ele>78</ele>
        <time>1970-01-01T00:25:54.000Z</time>
      </trkpt>
      <trkpt lat="39.850236" lon="-8.768648">
        <ele>78</ele>
        <time>1970-01-01T00:25:55.000Z</time>
      </trkpt>
      <trkpt lat="39.850249" lon="-8.768659">
        <ele>78</ele>
        <time>1970-01-01T00:25:56.000Z</time>
      </trkpt>
      <trkpt lat="39.850269" lon="-8.768676">
        <ele>78.1</ele>
        <time>1970-01-01T00:25:57.000Z</time>
      </trkpt>
      <trkpt lat="39.850295" lon="-8.768696">
        <ele>77.9</ele>
        <time>1970-01-01T00:25:58.000Z</time>
      </trkpt>
      <trkpt lat="39.850323" lon="-8.768717">
        <ele>77.9</ele>
        <time>1970-01-01T00:25:59.000Z</time>
      </trkpt>
      <trkpt lat="39.850348" lon="-8.768741">
        <ele>77.8</ele>
        <time>1970-01-01T00:26:00.000Z</time>
      </trkpt>
      <trkpt lat="39.850371" lon="-8.768766">
        <ele>77.7</ele>
        <time>1970-01-01T00:26:01.000Z</time>
      </trkpt>
      <trkpt lat="39.850393" lon="-8.768791">
        <ele>77.7</ele>
        <time>1970-01-01T00:26:02.000Z</time>
      </trkpt>
      <trkpt lat="39.850413" lon="-8.768813">
        <ele>77.5</ele>
        <time>1970-01-01T00:26:03.000Z</time>
      </trkpt>
      <trkpt lat="39.850429" lon="-8.76883">
        <ele>77.6</ele>
        <time>1970-01-01T00:26:04.000Z</time>
      </trkpt>
      <trkpt lat="39.850447" lon="-8.768842">
        <ele>77.6</ele>
        <time>1970-01-01T00:26:05.000Z</time>
      </trkpt>
      <trkpt lat="39.850468" lon="-8.768856">
        <ele>77.5</ele>
        <time>1970-01-01T00:26:06.000Z</time>
      </trkpt>
      <trkpt lat="39.850494" lon="-8.768877">
        <ele>77.6</ele>
        <time>1970-01-01T00:26:07.000Z</time>
      </trkpt>
      <trkpt lat="39.850523" lon="-8.76891">
        <ele>77.4</ele>
        <time>1970-01-01T00:26:08.000Z</time>
      </trkpt>
      <trkpt lat="39.850552" lon="-8.768948">
        <ele>77.4</ele>
        <time>1970-01-01T00:26:09.000Z</time>
      </trkpt>
      <trkpt lat="39.850578" lon="-8.768986">
        <ele>77.4</ele>
        <time>1970-01-01T00:26:10.000Z</time>
      </trkpt>
      <trkpt lat="39.850604" lon="-8.769021">
        <ele>77.6</ele>
        <time>1970-01-01T00:26:11.000Z</time>
      </trkpt>
      <trkpt lat="39.850629" lon="-8.769055">
        <ele>77.7</ele>
        <time>1970-01-01T00:26:12.000Z</time>
      </trkpt>
      <trkpt lat="39.850652" lon="-8.769091">
        <ele>77.5</ele>
        <time>1970-01-01T00:26:13.000Z</time>
      </trkpt>
      <trkpt lat="39.850676" lon="-8.769131">
        <ele>77.6</ele>
        <time>1970-01-01T00:26:14.000Z</time>
      </trkpt>
      <trkpt lat="39.8507" lon="-8.769175">
        <ele>77.6</ele>
        <time>1970-01-01T00:26:15.000Z</time>
      </trkpt>
      <trkpt lat="39.850722" lon="-8.769221">
        <ele>77.9</ele>
        <time>1970-01-01T00:26:16.000Z</time>
      </trkpt>
      <trkpt lat="39.850742" lon="-8.769269">
        <ele>77.7</ele>
        <time>1970-01-01T00:26:17.000Z</time>
      </trkpt>
      <trkpt lat="39.850762" lon="-8.769317">
        <ele>77.8</ele>
        <time>1970-01-01T00:26:18.000Z</time>
      </trkpt>
      <trkpt lat="39.850779" lon="-8.769367">
        <ele>77.6</ele>
        <time>1970-01-01T00:26:19.000Z</time>
      </trkpt>
      <trkpt lat="39.850796" lon="-8.769421">
        <ele>77.8</ele>
        <time>1970-01-01T00:26:20.000Z</time>
      </trkpt>
      <trkpt lat="39.850814" lon="-8.769479">
        <ele>77.8</ele>
        <time>1970-01-01T00:26:21.000Z</time>
      </trkpt>
      <trkpt lat="39.850831" lon="-8.769538">
        <ele>78</ele>
        <time>1970-01-01T00:26:22.000Z</time>
      </trkpt>
      <trkpt lat="39.850847" lon="-8.7696">
        <ele>77.9</ele>
        <time>1970-01-01T00:26:23.000Z</time>
      </trkpt>
      <trkpt lat="39.850855" lon="-8.769666">
        <ele>78</ele>
        <time>1970-01-01T00:26:24.000Z</time>
      </trkpt>
      <trkpt lat="39.850856" lon="-8.76973">
        <ele>78</ele>
        <time>1970-01-01T00:26:25.000Z</time>
      </trkpt>
      <trkpt lat="39.850852" lon="-8.769791">
        <ele>77.6</ele>
        <time>1970-01-01T00:26:26.000Z</time>
      </trkpt>
      <trkpt lat="39.850846" lon="-8.769845">
        <ele>77.5</ele>
        <time>1970-01-01T00:26:27.000Z</time>
      </trkpt>
      <trkpt lat="39.850838" lon="-8.769896">
        <ele>77.4</ele>
        <time>1970-01-01T00:26:28.000Z</time>
      </trkpt>
      <trkpt lat="39.850831" lon="-8.769946">
        <ele>77.3</ele>
        <time>1970-01-01T00:26:29.000Z</time>
      </trkpt>
      <trkpt lat="39.850823" lon="-8.769997">
        <ele>77.2</ele>
        <time>1970-01-01T00:26:30.000Z</time>
      </trkpt>
      <trkpt lat="39.850814" lon="-8.770049">
        <ele>76.9</ele>
        <time>1970-01-01T00:26:31.000Z</time>
      </trkpt>
      <trkpt lat="39.850802" lon="-8.770102">
        <ele>76.7</ele>
        <time>1970-01-01T00:26:32.000Z</time>
      </trkpt>
      <trkpt lat="39.850788" lon="-8.770153">
        <ele>76.6</ele>
        <time>1970-01-01T00:26:33.000Z</time>
      </trkpt>
      <trkpt lat="39.850772" lon="-8.770203">
        <ele>76.3</ele>
        <time>1970-01-01T00:26:34.000Z</time>
      </trkpt>
      <trkpt lat="39.850755" lon="-8.770251">
        <ele>76.2</ele>
        <time>1970-01-01T00:26:35.000Z</time>
      </trkpt>
      <trkpt lat="39.85074" lon="-8.770295">
        <ele>75.9</ele>
        <time>1970-01-01T00:26:36.000Z</time>
      </trkpt>
      <trkpt lat="39.850726" lon="-8.770338">
        <ele>75.8</ele>
        <time>1970-01-01T00:26:37.000Z</time>
      </trkpt>
      <trkpt lat="39.850712" lon="-8.770377">
        <ele>75.4</ele>
        <time>1970-01-01T00:26:38.000Z</time>
      </trkpt>
      <trkpt lat="39.850699" lon="-8.770415">
        <ele>75.3</ele>
        <time>1970-01-01T00:26:39.000Z</time>
      </trkpt>
      <trkpt lat="39.850688" lon="-8.770451">
        <ele>75.1</ele>
        <time>1970-01-01T00:26:40.000Z</time>
      </trkpt>
      <trkpt lat="39.850679" lon="-8.770485">
        <ele>74.9</ele>
        <time>1970-01-01T00:26:41.000Z</time>
      </trkpt>
      <trkpt lat="39.850673" lon="-8.770518">
        <ele>74.9</ele>
        <time>1970-01-01T00:26:42.000Z</time>
      </trkpt>
      <trkpt lat="39.85067" lon="-8.77055">
        <ele>74.8</ele>
        <time>1970-01-01T00:26:43.000Z</time>
      </trkpt>
      <trkpt lat="39.850665" lon="-8.770581">
        <ele>74.7</ele>
        <time>1970-01-01T00:26:44.000Z</time>
      </trkpt>
      <trkpt lat="39.850657" lon="-8.77061">
        <ele>74.6</ele>
        <time>1970-01-01T00:26:45.000Z</time>
      </trkpt>
      <trkpt lat="39.850645" lon="-8.770636">
        <ele>74.5</ele>
        <time>1970-01-01T00:26:46.000Z</time>
      </trkpt>
      <trkpt lat="39.850632" lon="-8.770661">
        <ele>74.5</ele>
        <time>1970-01-01T00:26:47.000Z</time>
      </trkpt>
      <trkpt lat="39.85062" lon="-8.770685">
        <ele>74.5</ele>
        <time>1970-01-01T00:26:48.000Z</time>
      </trkpt>
      <trkpt lat="39.850609" lon="-8.770712">
        <ele>74.5</ele>
        <time>1970-01-01T00:26:49.000Z</time>
      </trkpt>
      <trkpt lat="39.850601" lon="-8.770741">
        <ele>74.5</ele>
        <time>1970-01-01T00:26:50.000Z</time>
      </trkpt>
      <trkpt lat="39.850596" lon="-8.770773">
        <ele>74.5</ele>
        <time>1970-01-01T00:26:51.000Z</time>
      </trkpt>
      <trkpt lat="39.850593" lon="-8.770804">
        <ele>74.6</ele>
        <time>1970-01-01T00:26:52.000Z</time>
      </trkpt>
      <trkpt lat="39.850592" lon="-8.770833">
        <ele>74.7</ele>
        <time>1970-01-01T00:26:53.000Z</time>
      </trkpt>
      <trkpt lat="39.850591" lon="-8.770861">
        <ele>74.7</ele>
        <time>1970-01-01T00:26:54.000Z</time>
      </trkpt>
      <trkpt lat="39.850595" lon="-8.770888">
        <ele>74.8</ele>
        <time>1970-01-01T00:26:55.000Z</time>
      </trkpt>
      <trkpt lat="39.850598" lon="-8.770914">
        <ele>74.9</ele>
        <time>1970-01-01T00:26:56.000Z</time>
      </trkpt>
      <trkpt lat="39.850596" lon="-8.770941">
        <ele>74.9</ele>
        <time>1970-01-01T00:26:57.000Z</time>
      </trkpt>
      <trkpt lat="39.850592" lon="-8.770967">
        <ele>75</ele>
        <time>1970-01-01T00:26:58.000Z</time>
      </trkpt>
      <trkpt lat="39.850588" lon="-8.770999">
        <ele>75.3</ele>
        <time>1970-01-01T00:26:59.000Z</time>
      </trkpt>
      <trkpt lat="39.850585" lon="-8.771036">
        <ele>75.3</ele>
        <time>1970-01-01T00:27:00.000Z</time>
      </trkpt>
      <trkpt lat="39.850582" lon="-8.771075">
        <ele>75.4</ele>
        <time>1970-01-01T00:27:01.000Z</time>
      </trkpt>
      <trkpt lat="39.850578" lon="-8.771115">
        <ele>75.6</ele>
        <time>1970-01-01T00:27:02.000Z</time>
      </trkpt>
      <trkpt lat="39.850574" lon="-8.771155">
        <ele>75.7</ele>
        <time>1970-01-01T00:27:03.000Z</time>
      </trkpt>
      <trkpt lat="39.85057" lon="-8.771194">
        <ele>75.8</ele>
        <time>1970-01-01T00:27:04.000Z</time>
      </trkpt>
      <trkpt lat="39.850562" lon="-8.771232">
        <ele>75.9</ele>
        <time>1970-01-01T00:27:05.000Z</time>
      </trkpt>
      <trkpt lat="39.850553" lon="-8.771269">
        <ele>76.2</ele>
        <time>1970-01-01T00:27:06.000Z</time>
      </trkpt>
      <trkpt lat="39.850541" lon="-8.771304">
        <ele>76.2</ele>
        <time>1970-01-01T00:27:07.000Z</time>
      </trkpt>
      <trkpt lat="39.850527" lon="-8.771339">
        <ele>76.3</ele>
        <time>1970-01-01T00:27:08.000Z</time>
      </trkpt>
      <trkpt lat="39.850512" lon="-8.771376">
        <ele>76.5</ele>
        <time>1970-01-01T00:27:09.000Z</time>
      </trkpt>
      <trkpt lat="39.850493" lon="-8.771416">
        <ele>76.5</ele>
        <time>1970-01-01T00:27:10.000Z</time>
      </trkpt>
      <trkpt lat="39.850476" lon="-8.771459">
        <ele>76.7</ele>
        <time>1970-01-01T00:27:11.000Z</time>
      </trkpt>
      <trkpt lat="39.850462" lon="-8.771506">
        <ele>76.8</ele>
        <time>1970-01-01T00:27:12.000Z</time>
      </trkpt>
      <trkpt lat="39.850449" lon="-8.771553">
        <ele>76.9</ele>
        <time>1970-01-01T00:27:13.000Z</time>
      </trkpt>
      <trkpt lat="39.85044" lon="-8.771601">
        <ele>77</ele>
        <time>1970-01-01T00:27:14.000Z</time>
      </trkpt>
      <trkpt lat="39.850437" lon="-8.771648">
        <ele>77</ele>
        <time>1970-01-01T00:27:15.000Z</time>
      </trkpt>
      <trkpt lat="39.850439" lon="-8.771695">
        <ele>77</ele>
        <time>1970-01-01T00:27:16.000Z</time>
      </trkpt>
      <trkpt lat="39.850441" lon="-8.771741">
        <ele>77</ele>
        <time>1970-01-01T00:27:17.000Z</time>
      </trkpt>
      <trkpt lat="39.850446" lon="-8.771784">
        <ele>77.1</ele>
        <time>1970-01-01T00:27:18.000Z</time>
      </trkpt>
      <trkpt lat="39.850451" lon="-8.771828">
        <ele>77.1</ele>
        <time>1970-01-01T00:27:19.000Z</time>
      </trkpt>
      <trkpt lat="39.850457" lon="-8.771871">
        <ele>77.2</ele>
        <time>1970-01-01T00:27:20.000Z</time>
      </trkpt>
      <trkpt lat="39.850464" lon="-8.771912">
        <ele>77.1</ele>
        <time>1970-01-01T00:27:21.000Z</time>
      </trkpt>
      <trkpt lat="39.850475" lon="-8.771955">
        <ele>77.1</ele>
        <time>1970-01-01T00:27:22.000Z</time>
      </trkpt>
      <trkpt lat="39.850489" lon="-8.771998">
        <ele>77.1</ele>
        <time>1970-01-01T00:27:23.000Z</time>
      </trkpt>
      <trkpt lat="39.850508" lon="-8.772044">
        <ele>77</ele>
        <time>1970-01-01T00:27:24.000Z</time>
      </trkpt>
      <trkpt lat="39.850525" lon="-8.772093">
        <ele>76.9</ele>
        <time>1970-01-01T00:27:25.000Z</time>
      </trkpt>
      <trkpt lat="39.85054" lon="-8.772142">
        <ele>76.8</ele>
        <time>1970-01-01T00:27:26.000Z</time>
      </trkpt>
      <trkpt lat="39.85055" lon="-8.772192">
        <ele>76.7</ele>
        <time>1970-01-01T00:27:27.000Z</time>
      </trkpt>
      <trkpt lat="39.850557" lon="-8.77224">
        <ele>76.4</ele>
        <time>1970-01-01T00:27:28.000Z</time>
      </trkpt>
      <trkpt lat="39.850564" lon="-8.772284">
        <ele>76.3</ele>
        <time>1970-01-01T00:27:29.000Z</time>
      </trkpt>
      <trkpt lat="39.850569" lon="-8.772326">
        <ele>76.2</ele>
        <time>1970-01-01T00:27:30.000Z</time>
      </trkpt>
      <trkpt lat="39.850575" lon="-8.772368">
        <ele>76.2</ele>
        <time>1970-01-01T00:27:31.000Z</time>
      </trkpt>
      <trkpt lat="39.850584" lon="-8.772411">
        <ele>76.1</ele>
        <time>1970-01-01T00:27:32.000Z</time>
      </trkpt>
      <trkpt lat="39.850596" lon="-8.772455">
        <ele>76</ele>
        <time>1970-01-01T00:27:33.000Z</time>
      </trkpt>
      <trkpt lat="39.850614" lon="-8.772504">
        <ele>76</ele>
        <time>1970-01-01T00:27:34.000Z</time>
      </trkpt>
      <trkpt lat="39.850631" lon="-8.772549">
        <ele>75.9</ele>
        <time>1970-01-01T00:27:35.000Z</time>
      </trkpt>
      <trkpt lat="39.850648" lon="-8.772591">
        <ele>75.9</ele>
        <time>1970-01-01T00:27:36.000Z</time>
      </trkpt>
      <trkpt lat="39.850663" lon="-8.772634">
        <ele>75.9</ele>
        <time>1970-01-01T00:27:37.000Z</time>
      </trkpt>
      <trkpt lat="39.850678" lon="-8.772676">
        <ele>75.8</ele>
        <time>1970-01-01T00:27:38.000Z</time>
      </trkpt>
      <trkpt lat="39.850695" lon="-8.772721">
        <ele>75.7</ele>
        <time>1970-01-01T00:27:39.000Z</time>
      </trkpt>
      <trkpt lat="39.850712" lon="-8.772769">
        <ele>75.6</ele>
        <time>1970-01-01T00:27:40.000Z</time>
      </trkpt>
      <trkpt lat="39.850731" lon="-8.772816">
        <ele>75.5</ele>
        <time>1970-01-01T00:27:41.000Z</time>
      </trkpt>
      <trkpt lat="39.85075" lon="-8.772864">
        <ele>75.4</ele>
        <time>1970-01-01T00:27:42.000Z</time>
      </trkpt>
      <trkpt lat="39.850768" lon="-8.772912">
        <ele>75.3</ele>
        <time>1970-01-01T00:27:43.000Z</time>
      </trkpt>
      <trkpt lat="39.850786" lon="-8.772956">
        <ele>75.3</ele>
        <time>1970-01-01T00:27:44.000Z</time>
      </trkpt>
      <trkpt lat="39.850804" lon="-8.773001">
        <ele>75.2</ele>
        <time>1970-01-01T00:27:45.000Z</time>
      </trkpt>
      <trkpt lat="39.850819" lon="-8.773048">
        <ele>75.1</ele>
        <time>1970-01-01T00:27:46.000Z</time>
      </trkpt>
      <trkpt lat="39.850834" lon="-8.773098">
        <ele>75</ele>
        <time>1970-01-01T00:27:47.000Z</time>
      </trkpt>
      <trkpt lat="39.850846" lon="-8.77315">
        <ele>74.9</ele>
        <time>1970-01-01T00:27:48.000Z</time>
      </trkpt>
      <trkpt lat="39.850854" lon="-8.773203">
        <ele>74.7</ele>
        <time>1970-01-01T00:27:49.000Z</time>
      </trkpt>
      <trkpt lat="39.850858" lon="-8.773258">
        <ele>74.6</ele>
        <time>1970-01-01T00:27:50.000Z</time>
      </trkpt>
      <trkpt lat="39.850859" lon="-8.773316">
        <ele>74.4</ele>
        <time>1970-01-01T00:27:51.000Z</time>
      </trkpt>
      <trkpt lat="39.850858" lon="-8.773375">
        <ele>74.3</ele>
        <time>1970-01-01T00:27:52.000Z</time>
      </trkpt>
      <trkpt lat="39.850861" lon="-8.773434">
        <ele>74.3</ele>
        <time>1970-01-01T00:27:53.000Z</time>
      </trkpt>
      <trkpt lat="39.850864" lon="-8.773492">
        <ele>74.2</ele>
        <time>1970-01-01T00:27:54.000Z</time>
      </trkpt>
      <trkpt lat="39.850869" lon="-8.773548">
        <ele>74.3</ele>
        <time>1970-01-01T00:27:55.000Z</time>
      </trkpt>
      <trkpt lat="39.850876" lon="-8.773602">
        <ele>74.3</ele>
        <time>1970-01-01T00:27:56.000Z</time>
      </trkpt>
      <trkpt lat="39.850883" lon="-8.773654">
        <ele>74.3</ele>
        <time>1970-01-01T00:27:57.000Z</time>
      </trkpt>
      <trkpt lat="39.850893" lon="-8.773706">
        <ele>74.2</ele>
        <time>1970-01-01T00:27:58.000Z</time>
      </trkpt>
      <trkpt lat="39.850907" lon="-8.77376">
        <ele>74.1</ele>
        <time>1970-01-01T00:27:59.000Z</time>
      </trkpt>
      <trkpt lat="39.850925" lon="-8.773814">
        <ele>74</ele>
        <time>1970-01-01T00:28:00.000Z</time>
      </trkpt>
      <trkpt lat="39.850944" lon="-8.773869">
        <ele>73.9</ele>
        <time>1970-01-01T00:28:01.000Z</time>
      </trkpt>
      <trkpt lat="39.850967" lon="-8.773928">
        <ele>73.6</ele>
        <time>1970-01-01T00:28:02.000Z</time>
      </trkpt>
      <trkpt lat="39.850986" lon="-8.77399">
        <ele>73.5</ele>
        <time>1970-01-01T00:28:03.000Z</time>
      </trkpt>
      <trkpt lat="39.851006" lon="-8.774054">
        <ele>73.4</ele>
        <time>1970-01-01T00:28:04.000Z</time>
      </trkpt>
      <trkpt lat="39.851024" lon="-8.774115">
        <ele>73.3</ele>
        <time>1970-01-01T00:28:05.000Z</time>
      </trkpt>
      <trkpt lat="39.851039" lon="-8.774173">
        <ele>73.3</ele>
        <time>1970-01-01T00:28:06.000Z</time>
      </trkpt>
      <trkpt lat="39.851055" lon="-8.774231">
        <ele>73.4</ele>
        <time>1970-01-01T00:28:07.000Z</time>
      </trkpt>
      <trkpt lat="39.851069" lon="-8.774285">
        <ele>73.4</ele>
        <time>1970-01-01T00:28:08.000Z</time>
      </trkpt>
      <trkpt lat="39.851081" lon="-8.774336">
        <ele>73.4</ele>
        <time>1970-01-01T00:28:09.000Z</time>
      </trkpt>
      <trkpt lat="39.851089" lon="-8.774384">
        <ele>73.6</ele>
        <time>1970-01-01T00:28:10.000Z</time>
      </trkpt>
      <trkpt lat="39.851096" lon="-8.774431">
        <ele>73.8</ele>
        <time>1970-01-01T00:28:11.000Z</time>
      </trkpt>
      <trkpt lat="39.851099" lon="-8.774478">
        <ele>74</ele>
        <time>1970-01-01T00:28:12.000Z</time>
      </trkpt>
      <trkpt lat="39.851104" lon="-8.77452">
        <ele>74.1</ele>
        <time>1970-01-01T00:28:13.000Z</time>
      </trkpt>
      <trkpt lat="39.851112" lon="-8.774556">
        <ele>74.1</ele>
        <time>1970-01-01T00:28:14.000Z</time>
      </trkpt>
      <trkpt lat="39.851124" lon="-8.774584">
        <ele>74.3</ele>
        <time>1970-01-01T00:28:15.000Z</time>
      </trkpt>
      <trkpt lat="39.851136" lon="-8.774605">
        <ele>74.4</ele>
        <time>1970-01-01T00:28:16.000Z</time>
      </trkpt>
      <trkpt lat="39.85115" lon="-8.774618">
        <ele>74.5</ele>
        <time>1970-01-01T00:28:17.000Z</time>
      </trkpt>
      <trkpt lat="39.851167" lon="-8.774624">
        <ele>74.5</ele>
        <time>1970-01-01T00:28:18.000Z</time>
      </trkpt>
      <trkpt lat="39.851186" lon="-8.774628">
        <ele>74.5</ele>
        <time>1970-01-01T00:28:19.000Z</time>
      </trkpt>
      <trkpt lat="39.851209" lon="-8.774629">
        <ele>74.5</ele>
        <time>1970-01-01T00:28:20.000Z</time>
      </trkpt>
      <trkpt lat="39.851236" lon="-8.77463">
        <ele>74.5</ele>
        <time>1970-01-01T00:28:21.000Z</time>
      </trkpt>
      <trkpt lat="39.851265" lon="-8.774631">
        <ele>74.6</ele>
        <time>1970-01-01T00:28:22.000Z</time>
      </trkpt>
      <trkpt lat="39.851295" lon="-8.774637">
        <ele>74.6</ele>
        <time>1970-01-01T00:28:23.000Z</time>
      </trkpt>
      <trkpt lat="39.851326" lon="-8.774645">
        <ele>74.7</ele>
        <time>1970-01-01T00:28:24.000Z</time>
      </trkpt>
      <trkpt lat="39.85136" lon="-8.774658">
        <ele>74.7</ele>
        <time>1970-01-01T00:28:25.000Z</time>
      </trkpt>
      <trkpt lat="39.851397" lon="-8.774672">
        <ele>74.7</ele>
        <time>1970-01-01T00:28:26.000Z</time>
      </trkpt>
      <trkpt lat="39.851434" lon="-8.774689">
        <ele>74.9</ele>
        <time>1970-01-01T00:28:27.000Z</time>
      </trkpt>
      <trkpt lat="39.851472" lon="-8.774707">
        <ele>74.9</ele>
        <time>1970-01-01T00:28:28.000Z</time>
      </trkpt>
      <trkpt lat="39.851509" lon="-8.774728">
        <ele>75</ele>
        <time>1970-01-01T00:28:29.000Z</time>
      </trkpt>
      <trkpt lat="39.851543" lon="-8.774753">
        <ele>75.2</ele>
        <time>1970-01-01T00:28:30.000Z</time>
      </trkpt>
      <trkpt lat="39.851576" lon="-8.774781">
        <ele>75.5</ele>
        <time>1970-01-01T00:28:31.000Z</time>
      </trkpt>
      <trkpt lat="39.851611" lon="-8.77481">
        <ele>75.7</ele>
        <time>1970-01-01T00:28:32.000Z</time>
      </trkpt>
      <trkpt lat="39.851644" lon="-8.774836">
        <ele>75.9</ele>
        <time>1970-01-01T00:28:33.000Z</time>
      </trkpt>
      <trkpt lat="39.85168" lon="-8.774857">
        <ele>76</ele>
        <time>1970-01-01T00:28:34.000Z</time>
      </trkpt>
      <trkpt lat="39.851716" lon="-8.774874">
        <ele>76.2</ele>
        <time>1970-01-01T00:28:35.000Z</time>
      </trkpt>
      <trkpt lat="39.851752" lon="-8.774886">
        <ele>76.3</ele>
        <time>1970-01-01T00:28:36.000Z</time>
      </trkpt>
      <trkpt lat="39.851787" lon="-8.774896">
        <ele>76.4</ele>
        <time>1970-01-01T00:28:37.000Z</time>
      </trkpt>
      <trkpt lat="39.85182" lon="-8.774902">
        <ele>76.6</ele>
        <time>1970-01-01T00:28:38.000Z</time>
      </trkpt>
      <trkpt lat="39.851852" lon="-8.774907">
        <ele>76.6</ele>
        <time>1970-01-01T00:28:39.000Z</time>
      </trkpt>
      <trkpt lat="39.851879" lon="-8.774909">
        <ele>76.7</ele>
        <time>1970-01-01T00:28:40.000Z</time>
      </trkpt>
      <trkpt lat="39.851905" lon="-8.774911">
        <ele>76.7</ele>
        <time>1970-01-01T00:28:41.000Z</time>
      </trkpt>
      <trkpt lat="39.85193" lon="-8.774911">
        <ele>76.8</ele>
        <time>1970-01-01T00:28:42.000Z</time>
      </trkpt>
      <trkpt lat="39.851955" lon="-8.774909">
        <ele>76.9</ele>
        <time>1970-01-01T00:28:43.000Z</time>
      </trkpt>
      <trkpt lat="39.851977" lon="-8.774905">
        <ele>76.9</ele>
        <time>1970-01-01T00:28:44.000Z</time>
      </trkpt>
      <trkpt lat="39.851999" lon="-8.774897">
        <ele>76.9</ele>
        <time>1970-01-01T00:28:45.000Z</time>
      </trkpt>
      <trkpt lat="39.85202" lon="-8.774889">
        <ele>77</ele>
        <time>1970-01-01T00:28:46.000Z</time>
      </trkpt>
      <trkpt lat="39.85204" lon="-8.774883">
        <ele>77</ele>
        <time>1970-01-01T00:28:47.000Z</time>
      </trkpt>
      <trkpt lat="39.852056" lon="-8.774878">
        <ele>77</ele>
        <time>1970-01-01T00:28:48.000Z</time>
      </trkpt>
      <trkpt lat="39.852068" lon="-8.77487">
        <ele>77</ele>
        <time>1970-01-01T00:28:49.000Z</time>
      </trkpt>
      <trkpt lat="39.85208" lon="-8.774859">
        <ele>77.1</ele>
        <time>1970-01-01T00:28:50.000Z</time>
      </trkpt>
      <trkpt lat="39.852093" lon="-8.77485">
        <ele>77.1</ele>
        <time>1970-01-01T00:28:51.000Z</time>
      </trkpt>
      <trkpt lat="39.852109" lon="-8.774838">
        <ele>77.1</ele>
        <time>1970-01-01T00:28:52.000Z</time>
      </trkpt>
      <trkpt lat="39.852129" lon="-8.774828">
        <ele>77.1</ele>
        <time>1970-01-01T00:28:53.000Z</time>
      </trkpt>
      <trkpt lat="39.852148" lon="-8.774817">
        <ele>77.2</ele>
        <time>1970-01-01T00:28:54.000Z</time>
      </trkpt>
      <trkpt lat="39.852163" lon="-8.774807">
        <ele>77.2</ele>
        <time>1970-01-01T00:28:55.000Z</time>
      </trkpt>
      <trkpt lat="39.852175" lon="-8.774797">
        <ele>77.3</ele>
        <time>1970-01-01T00:28:56.000Z</time>
      </trkpt>
      <trkpt lat="39.852186" lon="-8.774789">
        <ele>77.3</ele>
        <time>1970-01-01T00:28:57.000Z</time>
      </trkpt>
      <trkpt lat="39.852194" lon="-8.774781">
        <ele>77.3</ele>
        <time>1970-01-01T00:28:58.000Z</time>
      </trkpt>
      <trkpt lat="39.852203" lon="-8.774775">
        <ele>77.3</ele>
        <time>1970-01-01T00:28:59.000Z</time>
      </trkpt>
      <trkpt lat="39.85221" lon="-8.774772">
        <ele>77.5</ele>
        <time>1970-01-01T00:29:00.000Z</time>
      </trkpt>
      <trkpt lat="39.852219" lon="-8.774771">
        <ele>77.5</ele>
        <time>1970-01-01T00:29:01.000Z</time>
      </trkpt>
      <trkpt lat="39.852227" lon="-8.774773">
        <ele>77.5</ele>
        <time>1970-01-01T00:29:02.000Z</time>
      </trkpt>
      <trkpt lat="39.852235" lon="-8.774777">
        <ele>77.5</ele>
        <time>1970-01-01T00:29:03.000Z</time>
      </trkpt>
      <trkpt lat="39.852241" lon="-8.774785">
        <ele>77.6</ele>
        <time>1970-01-01T00:29:04.000Z</time>
      </trkpt>
      <trkpt lat="39.852246" lon="-8.774797">
        <ele>77.6</ele>
        <time>1970-01-01T00:29:05.000Z</time>
      </trkpt>
      <trkpt lat="39.852249" lon="-8.774813">
        <ele>77.6</ele>
        <time>1970-01-01T00:29:06.000Z</time>
      </trkpt>
      <trkpt lat="39.852251" lon="-8.774832">
        <ele>77.6</ele>
        <time>1970-01-01T00:29:07.000Z</time>
      </trkpt>
      <trkpt lat="39.852252" lon="-8.774856">
        <ele>77.5</ele>
        <time>1970-01-01T00:29:08.000Z</time>
      </trkpt>
      <trkpt lat="39.852253" lon="-8.774882">
        <ele>77.4</ele>
        <time>1970-01-01T00:29:09.000Z</time>
      </trkpt>
      <trkpt lat="39.852251" lon="-8.774911">
        <ele>77.3</ele>
        <time>1970-01-01T00:29:10.000Z</time>
      </trkpt>
      <trkpt lat="39.85225" lon="-8.774945">
        <ele>77.2</ele>
        <time>1970-01-01T00:29:11.000Z</time>
      </trkpt>
      <trkpt lat="39.852252" lon="-8.774983">
        <ele>77.1</ele>
        <time>1970-01-01T00:29:12.000Z</time>
      </trkpt>
      <trkpt lat="39.852256" lon="-8.775025">
        <ele>77</ele>
        <time>1970-01-01T00:29:13.000Z</time>
      </trkpt>
      <trkpt lat="39.852258" lon="-8.77507">
        <ele>76.8</ele>
        <time>1970-01-01T00:29:14.000Z</time>
      </trkpt>
      <trkpt lat="39.852259" lon="-8.775116">
        <ele>76.6</ele>
        <time>1970-01-01T00:29:15.000Z</time>
      </trkpt>
      <trkpt lat="39.852261" lon="-8.775164">
        <ele>76.4</ele>
        <time>1970-01-01T00:29:16.000Z</time>
      </trkpt>
      <trkpt lat="39.852264" lon="-8.775216">
        <ele>76.2</ele>
        <time>1970-01-01T00:29:17.000Z</time>
      </trkpt>
      <trkpt lat="39.852266" lon="-8.775271">
        <ele>76</ele>
        <time>1970-01-01T00:29:18.000Z</time>
      </trkpt>
      <trkpt lat="39.852268" lon="-8.77533">
        <ele>75.7</ele>
        <time>1970-01-01T00:29:19.000Z</time>
      </trkpt>
      <trkpt lat="39.852269" lon="-8.775393">
        <ele>75.4</ele>
        <time>1970-01-01T00:29:20.000Z</time>
      </trkpt>
      <trkpt lat="39.852271" lon="-8.775457">
        <ele>75.1</ele>
        <time>1970-01-01T00:29:21.000Z</time>
      </trkpt>
      <trkpt lat="39.852273" lon="-8.775521">
        <ele>74.7</ele>
        <time>1970-01-01T00:29:22.000Z</time>
      </trkpt>
      <trkpt lat="39.852277" lon="-8.775587">
        <ele>74.4</ele>
        <time>1970-01-01T00:29:23.000Z</time>
      </trkpt>
      <trkpt lat="39.852283" lon="-8.775655">
        <ele>74.1</ele>
        <time>1970-01-01T00:29:24.000Z</time>
      </trkpt>
      <trkpt lat="39.852292" lon="-8.775725">
        <ele>73.7</ele>
        <time>1970-01-01T00:29:25.000Z</time>
      </trkpt>
      <trkpt lat="39.852302" lon="-8.775799">
        <ele>73.4</ele>
        <time>1970-01-01T00:29:26.000Z</time>
      </trkpt>
      <trkpt lat="39.852317" lon="-8.775875">
        <ele>73</ele>
        <time>1970-01-01T00:29:27.000Z</time>
      </trkpt>
      <trkpt lat="39.852336" lon="-8.775954">
        <ele>72.7</ele>
        <time>1970-01-01T00:29:28.000Z</time>
      </trkpt>
      <trkpt lat="39.852357" lon="-8.776033">
        <ele>72.3</ele>
        <time>1970-01-01T00:29:29.000Z</time>
      </trkpt>
      <trkpt lat="39.852381" lon="-8.776113">
        <ele>72</ele>
        <time>1970-01-01T00:29:30.000Z</time>
      </trkpt>
      <trkpt lat="39.852404" lon="-8.776195">
        <ele>71.7</ele>
        <time>1970-01-01T00:29:31.000Z</time>
      </trkpt>
      <trkpt lat="39.852421" lon="-8.776281">
        <ele>71.5</ele>
        <time>1970-01-01T00:29:32.000Z</time>
      </trkpt>
      <trkpt lat="39.852433" lon="-8.776369">
        <ele>71.3</ele>
        <time>1970-01-01T00:29:33.000Z</time>
      </trkpt>
      <trkpt lat="39.852442" lon="-8.776456">
        <ele>71.2</ele>
        <time>1970-01-01T00:29:34.000Z</time>
      </trkpt>
      <trkpt lat="39.852446" lon="-8.776542">
        <ele>71.1</ele>
        <time>1970-01-01T00:29:35.000Z</time>
      </trkpt>
      <trkpt lat="39.852448" lon="-8.776624">
        <ele>71</ele>
        <time>1970-01-01T00:29:36.000Z</time>
      </trkpt>
      <trkpt lat="39.852455" lon="-8.776704">
        <ele>71</ele>
        <time>1970-01-01T00:29:37.000Z</time>
      </trkpt>
      <trkpt lat="39.852464" lon="-8.776783">
        <ele>71.1</ele>
        <time>1970-01-01T00:29:39.000Z</time>
      </trkpt>
      <trkpt lat="39.852483" lon="-8.776878">
        <ele>71.1</ele>
        <time>1970-01-01T00:29:40.000Z</time>
      </trkpt>
      <trkpt lat="39.852503" lon="-8.776962">
        <ele>71</ele>
        <time>1970-01-01T00:29:41.000Z</time>
      </trkpt>
      <trkpt lat="39.852521" lon="-8.777038">
        <ele>70.9</ele>
        <time>1970-01-01T00:29:42.000Z</time>
      </trkpt>
      <trkpt lat="39.852531" lon="-8.777103">
        <ele>70.8</ele>
        <time>1970-01-01T00:29:43.000Z</time>
      </trkpt>
      <trkpt lat="39.852534" lon="-8.777158">
        <ele>70.8</ele>
        <time>1970-01-01T00:29:44.000Z</time>
      </trkpt>
      <trkpt lat="39.852532" lon="-8.777205">
        <ele>70.7</ele>
        <time>1970-01-01T00:29:45.000Z</time>
      </trkpt>
      <trkpt lat="39.852527" lon="-8.777243">
        <ele>70.7</ele>
        <time>1970-01-01T00:29:46.000Z</time>
      </trkpt>
      <trkpt lat="39.852518" lon="-8.777277">
        <ele>70.6</ele>
        <time>1970-01-01T00:29:47.000Z</time>
      </trkpt>
      <trkpt lat="39.852511" lon="-8.777309">
        <ele>70.5</ele>
        <time>1970-01-01T00:29:48.000Z</time>
      </trkpt>
      <trkpt lat="39.852504" lon="-8.777339">
        <ele>70.5</ele>
        <time>1970-01-01T00:29:49.000Z</time>
      </trkpt>
      <trkpt lat="39.852495" lon="-8.777371">
        <ele>70.3</ele>
        <time>1970-01-01T00:29:50.000Z</time>
      </trkpt>
      <trkpt lat="39.852484" lon="-8.777409">
        <ele>70.1</ele>
        <time>1970-01-01T00:29:51.000Z</time>
      </trkpt>
      <trkpt lat="39.852471" lon="-8.777455">
        <ele>69.8</ele>
        <time>1970-01-01T00:29:52.000Z</time>
      </trkpt>
      <trkpt lat="39.852456" lon="-8.777512">
        <ele>69.4</ele>
        <time>1970-01-01T00:29:53.000Z</time>
      </trkpt>
      <trkpt lat="39.852443" lon="-8.777578">
        <ele>68.8</ele>
        <time>1970-01-01T00:29:54.000Z</time>
      </trkpt>
      <trkpt lat="39.852431" lon="-8.777649">
        <ele>68.2</ele>
        <time>1970-01-01T00:29:55.000Z</time>
      </trkpt>
      <trkpt lat="39.852422" lon="-8.777725">
        <ele>67.6</ele>
        <time>1970-01-01T00:29:56.000Z</time>
      </trkpt>
      <trkpt lat="39.852421" lon="-8.777808">
        <ele>67</ele>
        <time>1970-01-01T00:29:57.000Z</time>
      </trkpt>
      <trkpt lat="39.852429" lon="-8.777892">
        <ele>66.3</ele>
        <time>1970-01-01T00:29:58.000Z</time>
      </trkpt>
      <trkpt lat="39.852441" lon="-8.777975">
        <ele>65.8</ele>
        <time>1970-01-01T00:29:59.000Z</time>
      </trkpt>
      <trkpt lat="39.852464" lon="-8.778056">
        <ele>65.4</ele>
        <time>1970-01-01T00:30:00.000Z</time>
      </trkpt>
      <trkpt lat="39.852497" lon="-8.778131">
        <ele>65.1</ele>
        <time>1970-01-01T00:30:01.000Z</time>
      </trkpt>
      <trkpt lat="39.852537" lon="-8.778199">
        <ele>64.9</ele>
        <time>1970-01-01T00:30:02.000Z</time>
      </trkpt>
      <trkpt lat="39.852582" lon="-8.778263">
        <ele>64.8</ele>
        <time>1970-01-01T00:30:03.000Z</time>
      </trkpt>
      <trkpt lat="39.852629" lon="-8.778322">
        <ele>64.8</ele>
        <time>1970-01-01T00:30:04.000Z</time>
      </trkpt>
      <trkpt lat="39.852676" lon="-8.778375">
        <ele>64.9</ele>
        <time>1970-01-01T00:30:05.000Z</time>
      </trkpt>
      <trkpt lat="39.852722" lon="-8.778423">
        <ele>65</ele>
        <time>1970-01-01T00:30:06.000Z</time>
      </trkpt>
      <trkpt lat="39.852762" lon="-8.778465">
        <ele>65.1</ele>
        <time>1970-01-01T00:30:07.000Z</time>
      </trkpt>
      <trkpt lat="39.852795" lon="-8.778502">
        <ele>65.2</ele>
        <time>1970-01-01T00:30:08.000Z</time>
      </trkpt>
      <trkpt lat="39.852821" lon="-8.77853">
        <ele>65.3</ele>
        <time>1970-01-01T00:30:09.000Z</time>
      </trkpt>
      <trkpt lat="39.852839" lon="-8.778555">
        <ele>65.3</ele>
        <time>1970-01-01T00:30:10.000Z</time>
      </trkpt>
      <trkpt lat="39.852849" lon="-8.778581">
        <ele>65.4</ele>
        <time>1970-01-01T00:30:11.000Z</time>
      </trkpt>
      <trkpt lat="39.852849" lon="-8.778604">
        <ele>65.4</ele>
        <time>1970-01-01T00:30:12.000Z</time>
      </trkpt>
      <trkpt lat="39.85284" lon="-8.778625">
        <ele>65.5</ele>
        <time>1970-01-01T00:30:13.000Z</time>
      </trkpt>
      <trkpt lat="39.852825" lon="-8.778643">
        <ele>65.6</ele>
        <time>1970-01-01T00:30:14.000Z</time>
      </trkpt>
      <trkpt lat="39.852807" lon="-8.77866">
        <ele>65.7</ele>
        <time>1970-01-01T00:30:15.000Z</time>
      </trkpt>
      <trkpt lat="39.852788" lon="-8.778679">
        <ele>66.4</ele>
        <time>1970-01-01T00:30:16.000Z</time>
      </trkpt>
      <trkpt lat="39.852768" lon="-8.778699">
        <ele>67.1</ele>
        <time>1970-01-01T00:30:17.000Z</time>
      </trkpt>
      <trkpt lat="39.852745" lon="-8.778721">
        <ele>67.9</ele>
        <time>1970-01-01T00:30:18.000Z</time>
      </trkpt>
      <trkpt lat="39.852721" lon="-8.778745">
        <ele>68.8</ele>
        <time>1970-01-01T00:30:19.000Z</time>
      </trkpt>
      <trkpt lat="39.852698" lon="-8.778772">
        <ele>69.6</ele>
        <time>1970-01-01T00:30:20.000Z</time>
      </trkpt>
      <trkpt lat="39.852679" lon="-8.778805">
        <ele>70.6</ele>
        <time>1970-01-01T00:30:21.000Z</time>
      </trkpt>
      <trkpt lat="39.852665" lon="-8.778845">
        <ele>71.5</ele>
        <time>1970-01-01T00:30:22.000Z</time>
      </trkpt>
      <trkpt lat="39.852656" lon="-8.778887">
        <ele>73</ele>
        <time>1970-01-01T00:30:23.000Z</time>
      </trkpt>
      <trkpt lat="39.85265" lon="-8.778932">
        <ele>72.6</ele>
        <time>1970-01-01T00:30:24.000Z</time>
      </trkpt>
      <trkpt lat="39.852643" lon="-8.778977">
        <ele>72.2</ele>
        <time>1970-01-01T00:30:25.000Z</time>
      </trkpt>
      <trkpt lat="39.852635" lon="-8.779021">
        <ele>71.8</ele>
        <time>1970-01-01T00:30:26.000Z</time>
      </trkpt>
      <trkpt lat="39.852626" lon="-8.779068">
        <ele>71.5</ele>
        <time>1970-01-01T00:30:27.000Z</time>
      </trkpt>
      <trkpt lat="39.852618" lon="-8.779116">
        <ele>71.4</ele>
        <time>1970-01-01T00:30:28.000Z</time>
      </trkpt>
      <trkpt lat="39.85261" lon="-8.779165">
        <ele>71.3</ele>
        <time>1970-01-01T00:30:29.000Z</time>
      </trkpt>
      <trkpt lat="39.852598" lon="-8.779214">
        <ele>71.3</ele>
        <time>1970-01-01T00:30:30.000Z</time>
      </trkpt>
      <trkpt lat="39.852582" lon="-8.77926">
        <ele>71.3</ele>
        <time>1970-01-01T00:30:31.000Z</time>
      </trkpt>
      <trkpt lat="39.852563" lon="-8.779306">
        <ele>71.4</ele>
        <time>1970-01-01T00:30:32.000Z</time>
      </trkpt>
      <trkpt lat="39.852543" lon="-8.77935">
        <ele>71.5</ele>
        <time>1970-01-01T00:30:33.000Z</time>
      </trkpt>
      <trkpt lat="39.85252" lon="-8.779395">
        <ele>71.6</ele>
        <time>1970-01-01T00:30:34.000Z</time>
      </trkpt>
      <trkpt lat="39.852497" lon="-8.779437">
        <ele>71.7</ele>
        <time>1970-01-01T00:30:35.000Z</time>
      </trkpt>
      <trkpt lat="39.852475" lon="-8.779478">
        <ele>71.3</ele>
        <time>1970-01-01T00:30:36.000Z</time>
      </trkpt>
      <trkpt lat="39.852459" lon="-8.77952">
        <ele>70.9</ele>
        <time>1970-01-01T00:30:37.000Z</time>
      </trkpt>
      <trkpt lat="39.852448" lon="-8.779562">
        <ele>70.6</ele>
        <time>1970-01-01T00:30:38.000Z</time>
      </trkpt>
      <trkpt lat="39.852441" lon="-8.779603">
        <ele>70.2</ele>
        <time>1970-01-01T00:30:39.000Z</time>
      </trkpt>
      <trkpt lat="39.852439" lon="-8.779643">
        <ele>69.9</ele>
        <time>1970-01-01T00:30:40.000Z</time>
      </trkpt>
      <trkpt lat="39.852438" lon="-8.779681">
        <ele>69.6</ele>
        <time>1970-01-01T00:30:41.000Z</time>
      </trkpt>
      <trkpt lat="39.852439" lon="-8.779717">
        <ele>69.4</ele>
        <time>1970-01-01T00:30:42.000Z</time>
      </trkpt>
      <trkpt lat="39.852443" lon="-8.77975">
        <ele>69.2</ele>
        <time>1970-01-01T00:30:43.000Z</time>
      </trkpt>
      <trkpt lat="39.85245" lon="-8.779782">
        <ele>69.2</ele>
        <time>1970-01-01T00:30:44.000Z</time>
      </trkpt>
      <trkpt lat="39.852459" lon="-8.779812">
        <ele>69.1</ele>
        <time>1970-01-01T00:30:45.000Z</time>
      </trkpt>
      <trkpt lat="39.852466" lon="-8.779835">
        <ele>69.1</ele>
        <time>1970-01-01T00:30:46.000Z</time>
      </trkpt>
      <trkpt lat="39.852471" lon="-8.779857">
        <ele>68.8</ele>
        <time>1970-01-01T00:30:47.000Z</time>
      </trkpt>
      <trkpt lat="39.852472" lon="-8.77988">
        <ele>68.7</ele>
        <time>1970-01-01T00:30:48.000Z</time>
      </trkpt>
      <trkpt lat="39.852471" lon="-8.779904">
        <ele>68.7</ele>
        <time>1970-01-01T00:30:49.000Z</time>
      </trkpt>
      <trkpt lat="39.852466" lon="-8.779926">
        <ele>69</ele>
        <time>1970-01-01T00:30:50.000Z</time>
      </trkpt>
      <trkpt lat="39.852461" lon="-8.779945">
        <ele>69</ele>
        <time>1970-01-01T00:30:51.000Z</time>
      </trkpt>
      <trkpt lat="39.852454" lon="-8.779958">
        <ele>69</ele>
        <time>1970-01-01T00:30:52.000Z</time>
      </trkpt>
      <trkpt lat="39.852449" lon="-8.779963">
        <ele>69</ele>
        <time>1970-01-01T00:30:53.000Z</time>
      </trkpt>
      <trkpt lat="39.852444" lon="-8.779967">
        <ele>69.1</ele>
        <time>1970-01-01T00:30:54.000Z</time>
      </trkpt>
      <trkpt lat="39.852439" lon="-8.779969">
        <ele>69.1</ele>
        <time>1970-01-01T00:30:55.000Z</time>
      </trkpt>
      <trkpt lat="39.852436" lon="-8.779971">
        <ele>69.1</ele>
        <time>1970-01-01T00:30:56.000Z</time>
      </trkpt>
      <trkpt lat="39.852431" lon="-8.779972">
        <ele>69.4</ele>
        <time>1970-01-01T00:30:57.000Z</time>
      </trkpt>
      <trkpt lat="39.852412" lon="-8.779971">
        <ele>69.4</ele>
        <time>1970-01-01T00:30:58.000Z</time>
      </trkpt>
      <trkpt lat="39.852409" lon="-8.77997">
        <ele>69.4</ele>
        <time>1970-01-01T00:30:59.000Z</time>
      </trkpt>
      <trkpt lat="39.852403" lon="-8.779965">
        <ele>69.4</ele>
        <time>1970-01-01T00:31:00.000Z</time>
      </trkpt>
      <trkpt lat="39.852393" lon="-8.779954">
        <ele>69.6</ele>
        <time>1970-01-01T00:31:01.000Z</time>
      </trkpt>
      <trkpt lat="39.852381" lon="-8.779942">
        <ele>69.6</ele>
        <time>1970-01-01T00:31:02.000Z</time>
      </trkpt>
      <trkpt lat="39.852366" lon="-8.779932">
        <ele>69.9</ele>
        <time>1970-01-01T00:31:03.000Z</time>
      </trkpt>
      <trkpt lat="39.85235" lon="-8.779923">
        <ele>69.9</ele>
        <time>1970-01-01T00:31:04.000Z</time>
      </trkpt>
      <trkpt lat="39.852338" lon="-8.779916">
        <ele>69.8</ele>
        <time>1970-01-01T00:31:05.000Z</time>
      </trkpt>
      <trkpt lat="39.852328" lon="-8.779912">
        <ele>70.2</ele>
        <time>1970-01-01T00:31:06.000Z</time>
      </trkpt>
      <trkpt lat="39.852319" lon="-8.779911">
        <ele>70.2</ele>
        <time>1970-01-01T00:31:07.000Z</time>
      </trkpt>
      <trkpt lat="39.85231" lon="-8.779912">
        <ele>70.2</ele>
        <time>1970-01-01T00:31:08.000Z</time>
      </trkpt>
      <trkpt lat="39.852297" lon="-8.779911">
        <ele>70.5</ele>
        <time>1970-01-01T00:31:09.000Z</time>
      </trkpt>
      <trkpt lat="39.852284" lon="-8.779908">
        <ele>70.5</ele>
        <time>1970-01-01T00:31:10.000Z</time>
      </trkpt>
      <trkpt lat="39.852269" lon="-8.779906">
        <ele>70.8</ele>
        <time>1970-01-01T00:31:11.000Z</time>
      </trkpt>
      <trkpt lat="39.852254" lon="-8.779904">
        <ele>70.8</ele>
        <time>1970-01-01T00:31:12.000Z</time>
      </trkpt>
      <trkpt lat="39.852238" lon="-8.779904">
        <ele>70.8</ele>
        <time>1970-01-01T00:31:13.000Z</time>
      </trkpt>
      <trkpt lat="39.852199" lon="-8.7799">
        <ele>71.4</ele>
        <time>1970-01-01T00:31:15.000Z</time>
      </trkpt>
      <trkpt lat="39.852199" lon="-8.779899">
        <ele>71.4</ele>
        <time>1970-01-01T00:31:16.000Z</time>
      </trkpt>
      <trkpt lat="39.8522" lon="-8.779897">
        <ele>71.4</ele>
        <time>1970-01-01T00:31:17.000Z</time>
      </trkpt>
      <trkpt lat="39.852203" lon="-8.779896">
        <ele>71.4</ele>
        <time>1970-01-01T00:31:18.000Z</time>
      </trkpt>
      <trkpt lat="39.852203" lon="-8.779897">
        <ele>71.4</ele>
        <time>1970-01-01T00:31:19.000Z</time>
      </trkpt>
      <trkpt lat="39.852202" lon="-8.779898">
        <ele>71.4</ele>
        <time>1970-01-01T00:31:20.000Z</time>
      </trkpt>
      <trkpt lat="39.852201" lon="-8.7799">
        <ele>71.4</ele>
        <time>1970-01-01T00:31:21.000Z</time>
      </trkpt>
      <trkpt lat="39.852199" lon="-8.779902">
        <ele>71.4</ele>
        <time>1970-01-01T00:31:22.000Z</time>
      </trkpt>
      <trkpt lat="39.852194" lon="-8.779907">
        <ele>71.4</ele>
        <time>1970-01-01T00:31:23.000Z</time>
      </trkpt>
      <trkpt lat="39.852186" lon="-8.779912">
        <ele>71.4</ele>
        <time>1970-01-01T00:31:24.000Z</time>
      </trkpt>
      <trkpt lat="39.852178" lon="-8.779915">
        <ele>71.4</ele>
        <time>1970-01-01T00:31:25.000Z</time>
      </trkpt>
      <trkpt lat="39.852171" lon="-8.77992">
        <ele>71.4</ele>
        <time>1970-01-01T00:31:26.000Z</time>
      </trkpt>
      <trkpt lat="39.852164" lon="-8.779923">
        <ele>72</ele>
        <time>1970-01-01T00:31:27.000Z</time>
      </trkpt>
      <trkpt lat="39.852157" lon="-8.779925">
        <ele>72</ele>
        <time>1970-01-01T00:31:28.000Z</time>
      </trkpt>
      <trkpt lat="39.85215" lon="-8.779928">
        <ele>72</ele>
        <time>1970-01-01T00:31:29.000Z</time>
      </trkpt>
      <trkpt lat="39.852141" lon="-8.779931">
        <ele>72</ele>
        <time>1970-01-01T00:31:30.000Z</time>
      </trkpt>
      <trkpt lat="39.852132" lon="-8.779936">
        <ele>72.3</ele>
        <time>1970-01-01T00:31:31.000Z</time>
      </trkpt>
      <trkpt lat="39.852122" lon="-8.779941">
        <ele>72.3</ele>
        <time>1970-01-01T00:31:32.000Z</time>
      </trkpt>
      <trkpt lat="39.852115" lon="-8.779945">
        <ele>72.3</ele>
        <time>1970-01-01T00:31:33.000Z</time>
      </trkpt>
      <trkpt lat="39.852106" lon="-8.779951">
        <ele>72.3</ele>
        <time>1970-01-01T00:31:34.000Z</time>
      </trkpt>
      <trkpt lat="39.852096" lon="-8.779959">
        <ele>72.7</ele>
        <time>1970-01-01T00:31:35.000Z</time>
      </trkpt>
      <trkpt lat="39.852086" lon="-8.779969">
        <ele>72.9</ele>
        <time>1970-01-01T00:31:36.000Z</time>
      </trkpt>
      <trkpt lat="39.852075" lon="-8.779977">
        <ele>72.9</ele>
        <time>1970-01-01T00:31:37.000Z</time>
      </trkpt>
      <trkpt lat="39.852051" lon="-8.779995">
        <ele>73.3</ele>
        <time>1970-01-01T00:31:38.000Z</time>
      </trkpt>
      <trkpt lat="39.85205" lon="-8.779995">
        <ele>73.3</ele>
        <time>1970-01-01T00:31:39.000Z</time>
      </trkpt>
      <trkpt lat="39.852048" lon="-8.779994">
        <ele>73.3</ele>
        <time>1970-01-01T00:31:40.000Z</time>
      </trkpt>
      <trkpt lat="39.852043" lon="-8.779994">
        <ele>73.3</ele>
        <time>1970-01-01T00:31:41.000Z</time>
      </trkpt>
      <trkpt lat="39.852034" lon="-8.779997">
        <ele>73.7</ele>
        <time>1970-01-01T00:31:42.000Z</time>
      </trkpt>
      <trkpt lat="39.852023" lon="-8.780001">
        <ele>73.7</ele>
        <time>1970-01-01T00:31:43.000Z</time>
      </trkpt>
      <trkpt lat="39.85201" lon="-8.780006">
        <ele>73.7</ele>
        <time>1970-01-01T00:31:44.000Z</time>
      </trkpt>
      <trkpt lat="39.851998" lon="-8.780012">
        <ele>74.3</ele>
        <time>1970-01-01T00:31:45.000Z</time>
      </trkpt>
      <trkpt lat="39.851988" lon="-8.780021">
        <ele>74.3</ele>
        <time>1970-01-01T00:31:46.000Z</time>
      </trkpt>
      <trkpt lat="39.851979" lon="-8.78003">
        <ele>74.3</ele>
        <time>1970-01-01T00:31:47.000Z</time>
      </trkpt>
      <trkpt lat="39.85197" lon="-8.780039">
        <ele>74.7</ele>
        <time>1970-01-01T00:31:48.000Z</time>
      </trkpt>
      <trkpt lat="39.85196" lon="-8.780049">
        <ele>74.7</ele>
        <time>1970-01-01T00:31:49.000Z</time>
      </trkpt>
      <trkpt lat="39.851926" lon="-8.780078">
        <ele>75.5</ele>
        <time>1970-01-01T00:31:50.000Z</time>
      </trkpt>
      <trkpt lat="39.851921" lon="-8.78008">
        <ele>75.5</ele>
        <time>1970-01-01T00:31:51.000Z</time>
      </trkpt>
      <trkpt lat="39.851912" lon="-8.780084">
        <ele>75.5</ele>
        <time>1970-01-01T00:31:52.000Z</time>
      </trkpt>
      <trkpt lat="39.851901" lon="-8.78009">
        <ele>75.9</ele>
        <time>1970-01-01T00:31:53.000Z</time>
      </trkpt>
      <trkpt lat="39.85189" lon="-8.780097">
        <ele>76.2</ele>
        <time>1970-01-01T00:31:54.000Z</time>
      </trkpt>
      <trkpt lat="39.851879" lon="-8.780105">
        <ele>76.2</ele>
        <time>1970-01-01T00:31:55.000Z</time>
      </trkpt>
      <trkpt lat="39.851867" lon="-8.780114">
        <ele>76.7</ele>
        <time>1970-01-01T00:31:56.000Z</time>
      </trkpt>
      <trkpt lat="39.851856" lon="-8.780122">
        <ele>76.7</ele>
        <time>1970-01-01T00:31:57.000Z</time>
      </trkpt>
      <trkpt lat="39.851844" lon="-8.780129">
        <ele>76.7</ele>
        <time>1970-01-01T00:31:58.000Z</time>
      </trkpt>
      <trkpt lat="39.851832" lon="-8.780138">
        <ele>77.5</ele>
        <time>1970-01-01T00:31:59.000Z</time>
      </trkpt>
      <trkpt lat="39.851816" lon="-8.780149">
        <ele>77.5</ele>
        <time>1970-01-01T00:32:00.000Z</time>
      </trkpt>
      <trkpt lat="39.851799" lon="-8.78016">
        <ele>77.9</ele>
        <time>1970-01-01T00:32:01.000Z</time>
      </trkpt>
      <trkpt lat="39.851783" lon="-8.78017">
        <ele>77.9</ele>
        <time>1970-01-01T00:32:02.000Z</time>
      </trkpt>
      <trkpt lat="39.851767" lon="-8.780178">
        <ele>78.4</ele>
        <time>1970-01-01T00:32:03.000Z</time>
      </trkpt>
      <trkpt lat="39.851749" lon="-8.780189">
        <ele>78.7</ele>
        <time>1970-01-01T00:32:04.000Z</time>
      </trkpt>
      <trkpt lat="39.851731" lon="-8.780203">
        <ele>79.2</ele>
        <time>1970-01-01T00:32:05.000Z</time>
      </trkpt>
      <trkpt lat="39.851716" lon="-8.780222">
        <ele>79.5</ele>
        <time>1970-01-01T00:32:06.000Z</time>
      </trkpt>
      <trkpt lat="39.851703" lon="-8.780242">
        <ele>80</ele>
        <time>1970-01-01T00:32:07.000Z</time>
      </trkpt>
      <trkpt lat="39.85169" lon="-8.780263">
        <ele>80</ele>
        <time>1970-01-01T00:32:08.000Z</time>
      </trkpt>
      <trkpt lat="39.851676" lon="-8.780285">
        <ele>81</ele>
        <time>1970-01-01T00:32:09.000Z</time>
      </trkpt>
      <trkpt lat="39.851659" lon="-8.780311">
        <ele>81.4</ele>
        <time>1970-01-01T00:32:10.000Z</time>
      </trkpt>
      <trkpt lat="39.851639" lon="-8.780338">
        <ele>82.1</ele>
        <time>1970-01-01T00:32:11.000Z</time>
      </trkpt>
      <trkpt lat="39.851619" lon="-8.780367">
        <ele>82.6</ele>
        <time>1970-01-01T00:32:12.000Z</time>
      </trkpt>
      <trkpt lat="39.851596" lon="-8.780398">
        <ele>83.8</ele>
        <time>1970-01-01T00:32:13.000Z</time>
      </trkpt>
      <trkpt lat="39.851573" lon="-8.780431">
        <ele>84.5</ele>
        <time>1970-01-01T00:32:14.000Z</time>
      </trkpt>
      <trkpt lat="39.851551" lon="-8.780466">
        <ele>85.2</ele>
        <time>1970-01-01T00:32:15.000Z</time>
      </trkpt>
      <trkpt lat="39.85153" lon="-8.780503">
        <ele>86.6</ele>
        <time>1970-01-01T00:32:16.000Z</time>
      </trkpt>
      <trkpt lat="39.85151" lon="-8.780541">
        <ele>88</ele>
        <time>1970-01-01T00:32:17.000Z</time>
      </trkpt>
      <trkpt lat="39.85149" lon="-8.78058">
        <ele>88.6</ele>
        <time>1970-01-01T00:32:18.000Z</time>
      </trkpt>
      <trkpt lat="39.85147" lon="-8.780618">
        <ele>90</ele>
        <time>1970-01-01T00:32:19.000Z</time>
      </trkpt>
      <trkpt lat="39.851452" lon="-8.780656">
        <ele>90.5</ele>
        <time>1970-01-01T00:32:20.000Z</time>
      </trkpt>
      <trkpt lat="39.851437" lon="-8.780696">
        <ele>91.7</ele>
        <time>1970-01-01T00:32:21.000Z</time>
      </trkpt>
      <trkpt lat="39.851425" lon="-8.780737">
        <ele>92.1</ele>
        <time>1970-01-01T00:32:22.000Z</time>
      </trkpt>
      <trkpt lat="39.851415" lon="-8.780781">
        <ele>92.4</ele>
        <time>1970-01-01T00:32:23.000Z</time>
      </trkpt>
      <trkpt lat="39.851405" lon="-8.780825">
        <ele>93.3</ele>
        <time>1970-01-01T00:32:24.000Z</time>
      </trkpt>
      <trkpt lat="39.851395" lon="-8.780867">
        <ele>93.4</ele>
        <time>1970-01-01T00:32:25.000Z</time>
      </trkpt>
      <trkpt lat="39.851382" lon="-8.780906">
        <ele>93.4</ele>
        <time>1970-01-01T00:32:26.000Z</time>
      </trkpt>
      <trkpt lat="39.851367" lon="-8.780942">
        <ele>94.2</ele>
        <time>1970-01-01T00:32:27.000Z</time>
      </trkpt>
      <trkpt lat="39.851351" lon="-8.780973">
        <ele>94.3</ele>
        <time>1970-01-01T00:32:28.000Z</time>
      </trkpt>
      <trkpt lat="39.851332" lon="-8.781">
        <ele>95</ele>
        <time>1970-01-01T00:32:29.000Z</time>
      </trkpt>
      <trkpt lat="39.851311" lon="-8.781026">
        <ele>95.4</ele>
        <time>1970-01-01T00:32:30.000Z</time>
      </trkpt>
      <trkpt lat="39.851289" lon="-8.781049">
        <ele>95.5</ele>
        <time>1970-01-01T00:32:31.000Z</time>
      </trkpt>
      <trkpt lat="39.851266" lon="-8.781071">
        <ele>95.9</ele>
        <time>1970-01-01T00:32:32.000Z</time>
      </trkpt>
      <trkpt lat="39.851244" lon="-8.781096">
        <ele>96.2</ele>
        <time>1970-01-01T00:32:33.000Z</time>
      </trkpt>
      <trkpt lat="39.851224" lon="-8.781123">
        <ele>96.2</ele>
        <time>1970-01-01T00:32:34.000Z</time>
      </trkpt>
      <trkpt lat="39.851206" lon="-8.781151">
        <ele>96.5</ele>
        <time>1970-01-01T00:32:35.000Z</time>
      </trkpt>
      <trkpt lat="39.85119" lon="-8.781178">
        <ele>96.5</ele>
        <time>1970-01-01T00:32:36.000Z</time>
      </trkpt>
      <trkpt lat="39.851174" lon="-8.781204">
        <ele>96.8</ele>
        <time>1970-01-01T00:32:37.000Z</time>
      </trkpt>
      <trkpt lat="39.851159" lon="-8.781228">
        <ele>96.8</ele>
        <time>1970-01-01T00:32:38.000Z</time>
      </trkpt>
      <trkpt lat="39.851145" lon="-8.781251">
        <ele>97.1</ele>
        <time>1970-01-01T00:32:39.000Z</time>
      </trkpt>
      <trkpt lat="39.851132" lon="-8.781274">
        <ele>97</ele>
        <time>1970-01-01T00:32:40.000Z</time>
      </trkpt>
      <trkpt lat="39.851117" lon="-8.781299">
        <ele>96.9</ele>
        <time>1970-01-01T00:32:41.000Z</time>
      </trkpt>
      <trkpt lat="39.851101" lon="-8.781326">
        <ele>97.2</ele>
        <time>1970-01-01T00:32:42.000Z</time>
      </trkpt>
      <trkpt lat="39.851083" lon="-8.781352">
        <ele>97.5</ele>
        <time>1970-01-01T00:32:43.000Z</time>
      </trkpt>
      <trkpt lat="39.851064" lon="-8.781378">
        <ele>97.5</ele>
        <time>1970-01-01T00:32:44.000Z</time>
      </trkpt>
      <trkpt lat="39.851041" lon="-8.781403">
        <ele>97.6</ele>
        <time>1970-01-01T00:32:45.000Z</time>
      </trkpt>
      <trkpt lat="39.851018" lon="-8.781427">
        <ele>97.6</ele>
        <time>1970-01-01T00:32:46.000Z</time>
      </trkpt>
      <trkpt lat="39.850994" lon="-8.781451">
        <ele>97.8</ele>
        <time>1970-01-01T00:32:47.000Z</time>
      </trkpt>
      <trkpt lat="39.850971" lon="-8.781478">
        <ele>98</ele>
        <time>1970-01-01T00:32:48.000Z</time>
      </trkpt>
      <trkpt lat="39.850949" lon="-8.781509">
        <ele>98.2</ele>
        <time>1970-01-01T00:32:49.000Z</time>
      </trkpt>
      <trkpt lat="39.850931" lon="-8.781542">
        <ele>98.1</ele>
        <time>1970-01-01T00:32:50.000Z</time>
      </trkpt>
      <trkpt lat="39.850913" lon="-8.781575">
        <ele>98.4</ele>
        <time>1970-01-01T00:32:51.000Z</time>
      </trkpt>
      <trkpt lat="39.850895" lon="-8.781608">
        <ele>98.3</ele>
        <time>1970-01-01T00:32:52.000Z</time>
      </trkpt>
      <trkpt lat="39.850879" lon="-8.781643">
        <ele>98.5</ele>
        <time>1970-01-01T00:32:53.000Z</time>
      </trkpt>
      <trkpt lat="39.850865" lon="-8.781678">
        <ele>98.5</ele>
        <time>1970-01-01T00:32:54.000Z</time>
      </trkpt>
      <trkpt lat="39.85085" lon="-8.781715">
        <ele>98.8</ele>
        <time>1970-01-01T00:32:55.000Z</time>
      </trkpt>
      <trkpt lat="39.850834" lon="-8.781752">
        <ele>98.7</ele>
        <time>1970-01-01T00:32:56.000Z</time>
      </trkpt>
      <trkpt lat="39.85082" lon="-8.781789">
        <ele>98.7</ele>
        <time>1970-01-01T00:32:57.000Z</time>
      </trkpt>
      <trkpt lat="39.850809" lon="-8.781825">
        <ele>99</ele>
        <time>1970-01-01T00:32:58.000Z</time>
      </trkpt>
      <trkpt lat="39.850801" lon="-8.781861">
        <ele>98.9</ele>
        <time>1970-01-01T00:32:59.000Z</time>
      </trkpt>
      <trkpt lat="39.850794" lon="-8.781894">
        <ele>98.9</ele>
        <time>1970-01-01T00:33:00.000Z</time>
      </trkpt>
      <trkpt lat="39.850789" lon="-8.781926">
        <ele>98.8</ele>
        <time>1970-01-01T00:33:01.000Z</time>
      </trkpt>
      <trkpt lat="39.850784" lon="-8.781959">
        <ele>99.1</ele>
        <time>1970-01-01T00:33:02.000Z</time>
      </trkpt>
      <trkpt lat="39.85078" lon="-8.781992">
        <ele>99.1</ele>
        <time>1970-01-01T00:33:03.000Z</time>
      </trkpt>
      <trkpt lat="39.850776" lon="-8.782024">
        <ele>99.1</ele>
        <time>1970-01-01T00:33:04.000Z</time>
      </trkpt>
      <trkpt lat="39.850773" lon="-8.782055">
        <ele>99</ele>
        <time>1970-01-01T00:33:05.000Z</time>
      </trkpt>
      <trkpt lat="39.850772" lon="-8.782084">
        <ele>98.9</ele>
        <time>1970-01-01T00:33:06.000Z</time>
      </trkpt>
      <trkpt lat="39.850772" lon="-8.782111">
        <ele>98.9</ele>
        <time>1970-01-01T00:33:07.000Z</time>
      </trkpt>
      <trkpt lat="39.850771" lon="-8.78214">
        <ele>98.9</ele>
        <time>1970-01-01T00:33:08.000Z</time>
      </trkpt>
      <trkpt lat="39.850773" lon="-8.782171">
        <ele>98.8</ele>
        <time>1970-01-01T00:33:09.000Z</time>
      </trkpt>
      <trkpt lat="39.850775" lon="-8.782205">
        <ele>98.7</ele>
        <time>1970-01-01T00:33:10.000Z</time>
      </trkpt>
      <trkpt lat="39.85078" lon="-8.782239">
        <ele>98.6</ele>
        <time>1970-01-01T00:33:11.000Z</time>
      </trkpt>
      <trkpt lat="39.850787" lon="-8.782279">
        <ele>98.3</ele>
        <time>1970-01-01T00:33:12.000Z</time>
      </trkpt>
      <trkpt lat="39.850792" lon="-8.782321">
        <ele>98.2</ele>
        <time>1970-01-01T00:33:13.000Z</time>
      </trkpt>
      <trkpt lat="39.850796" lon="-8.782363">
        <ele>98.1</ele>
        <time>1970-01-01T00:33:14.000Z</time>
      </trkpt>
      <trkpt lat="39.850801" lon="-8.782408">
        <ele>98</ele>
        <time>1970-01-01T00:33:15.000Z</time>
      </trkpt>
      <trkpt lat="39.850804" lon="-8.782455">
        <ele>97.9</ele>
        <time>1970-01-01T00:33:16.000Z</time>
      </trkpt>
      <trkpt lat="39.850804" lon="-8.782502">
        <ele>97.9</ele>
        <time>1970-01-01T00:33:17.000Z</time>
      </trkpt>
      <trkpt lat="39.850805" lon="-8.782546">
        <ele>97.9</ele>
        <time>1970-01-01T00:33:18.000Z</time>
      </trkpt>
      <trkpt lat="39.850806" lon="-8.782589">
        <ele>97.9</ele>
        <time>1970-01-01T00:33:19.000Z</time>
      </trkpt>
      <trkpt lat="39.850808" lon="-8.782633">
        <ele>98</ele>
        <time>1970-01-01T00:33:20.000Z</time>
      </trkpt>
      <trkpt lat="39.850811" lon="-8.782678">
        <ele>98.1</ele>
        <time>1970-01-01T00:33:21.000Z</time>
      </trkpt>
      <trkpt lat="39.850817" lon="-8.782723">
        <ele>98.2</ele>
        <time>1970-01-01T00:33:22.000Z</time>
      </trkpt>
      <trkpt lat="39.850825" lon="-8.782769">
        <ele>97.8</ele>
        <time>1970-01-01T00:33:23.000Z</time>
      </trkpt>
      <trkpt lat="39.850836" lon="-8.782817">
        <ele>97.9</ele>
        <time>1970-01-01T00:33:24.000Z</time>
      </trkpt>
      <trkpt lat="39.850851" lon="-8.782866">
        <ele>98.1</ele>
        <time>1970-01-01T00:33:25.000Z</time>
      </trkpt>
      <trkpt lat="39.850867" lon="-8.782913">
        <ele>97.7</ele>
        <time>1970-01-01T00:33:26.000Z</time>
      </trkpt>
      <trkpt lat="39.850883" lon="-8.78296">
        <ele>97.9</ele>
        <time>1970-01-01T00:33:27.000Z</time>
      </trkpt>
      <trkpt lat="39.850897" lon="-8.783008">
        <ele>97.6</ele>
        <time>1970-01-01T00:33:28.000Z</time>
      </trkpt>
      <trkpt lat="39.850912" lon="-8.783056">
        <ele>98</ele>
        <time>1970-01-01T00:33:29.000Z</time>
      </trkpt>
      <trkpt lat="39.850929" lon="-8.78311">
        <ele>97.7</ele>
        <time>1970-01-01T00:33:30.000Z</time>
      </trkpt>
      <trkpt lat="39.850946" lon="-8.783165">
        <ele>97.9</ele>
        <time>1970-01-01T00:33:31.000Z</time>
      </trkpt>
      <trkpt lat="39.850965" lon="-8.783219">
        <ele>97.5</ele>
        <time>1970-01-01T00:33:32.000Z</time>
      </trkpt>
      <trkpt lat="39.850987" lon="-8.78327">
        <ele>97.4</ele>
        <time>1970-01-01T00:33:33.000Z</time>
      </trkpt>
      <trkpt lat="39.85101" lon="-8.783317">
        <ele>97.6</ele>
        <time>1970-01-01T00:33:34.000Z</time>
      </trkpt>
      <trkpt lat="39.851033" lon="-8.783358">
        <ele>97.3</ele>
        <time>1970-01-01T00:33:35.000Z</time>
      </trkpt>
      <trkpt lat="39.851057" lon="-8.783395">
        <ele>96.8</ele>
        <time>1970-01-01T00:33:36.000Z</time>
      </trkpt>
      <trkpt lat="39.851082" lon="-8.783432">
        <ele>97</ele>
        <time>1970-01-01T00:33:37.000Z</time>
      </trkpt>
      <trkpt lat="39.851109" lon="-8.783471">
        <ele>96.7</ele>
        <time>1970-01-01T00:33:38.000Z</time>
      </trkpt>
      <trkpt lat="39.851136" lon="-8.783513">
        <ele>96.5</ele>
        <time>1970-01-01T00:33:39.000Z</time>
      </trkpt>
      <trkpt lat="39.851163" lon="-8.783561">
        <ele>96.2</ele>
        <time>1970-01-01T00:33:40.000Z</time>
      </trkpt>
      <trkpt lat="39.851192" lon="-8.783612">
        <ele>95.9</ele>
        <time>1970-01-01T00:33:41.000Z</time>
      </trkpt>
      <trkpt lat="39.851224" lon="-8.783669">
        <ele>95.9</ele>
        <time>1970-01-01T00:33:42.000Z</time>
      </trkpt>
      <trkpt lat="39.851261" lon="-8.783729">
        <ele>95.7</ele>
        <time>1970-01-01T00:33:43.000Z</time>
      </trkpt>
      <trkpt lat="39.851298" lon="-8.783787">
        <ele>95.6</ele>
        <time>1970-01-01T00:33:44.000Z</time>
      </trkpt>
      <trkpt lat="39.851335" lon="-8.783842">
        <ele>95.4</ele>
        <time>1970-01-01T00:33:45.000Z</time>
      </trkpt>
      <trkpt lat="39.85137" lon="-8.783898">
        <ele>95.3</ele>
        <time>1970-01-01T00:33:46.000Z</time>
      </trkpt>
      <trkpt lat="39.851405" lon="-8.783955">
        <ele>95.1</ele>
        <time>1970-01-01T00:33:47.000Z</time>
      </trkpt>
      <trkpt lat="39.851444" lon="-8.784015">
        <ele>95.3</ele>
        <time>1970-01-01T00:33:48.000Z</time>
      </trkpt>
      <trkpt lat="39.851489" lon="-8.784074">
        <ele>94.9</ele>
        <time>1970-01-01T00:33:49.000Z</time>
      </trkpt>
      <trkpt lat="39.851541" lon="-8.784131">
        <ele>94.9</ele>
        <time>1970-01-01T00:33:50.000Z</time>
      </trkpt>
      <trkpt lat="39.851593" lon="-8.784186">
        <ele>94.3</ele>
        <time>1970-01-01T00:33:51.000Z</time>
      </trkpt>
      <trkpt lat="39.851642" lon="-8.784239">
        <ele>94</ele>
        <time>1970-01-01T00:33:52.000Z</time>
      </trkpt>
      <trkpt lat="39.851686" lon="-8.784293">
        <ele>93.3</ele>
        <time>1970-01-01T00:33:53.000Z</time>
      </trkpt>
      <trkpt lat="39.851729" lon="-8.784345">
        <ele>93.2</ele>
        <time>1970-01-01T00:33:54.000Z</time>
      </trkpt>
      <trkpt lat="39.851765" lon="-8.784392">
        <ele>93</ele>
        <time>1970-01-01T00:33:55.000Z</time>
      </trkpt>
      <trkpt lat="39.851792" lon="-8.784431">
        <ele>92.8</ele>
        <time>1970-01-01T00:33:56.000Z</time>
      </trkpt>
      <trkpt lat="39.851813" lon="-8.784464">
        <ele>92.6</ele>
        <time>1970-01-01T00:33:57.000Z</time>
      </trkpt>
      <trkpt lat="39.851827" lon="-8.784489">
        <ele>92.6</ele>
        <time>1970-01-01T00:33:58.000Z</time>
      </trkpt>
      <trkpt lat="39.851839" lon="-8.784514">
        <ele>92.6</ele>
        <time>1970-01-01T00:33:59.000Z</time>
      </trkpt>
      <trkpt lat="39.851843" lon="-8.78452">
        <ele>92.4</ele>
        <time>1970-01-01T00:34:00.000Z</time>
      </trkpt>
      <trkpt lat="39.851846" lon="-8.784527">
        <ele>92.4</ele>
        <time>1970-01-01T00:34:01.000Z</time>
      </trkpt>
      <trkpt lat="39.851849" lon="-8.784533">
        <ele>92.4</ele>
        <time>1970-01-01T00:34:02.000Z</time>
      </trkpt>
      <trkpt lat="39.851853" lon="-8.784539">
        <ele>92.4</ele>
        <time>1970-01-01T00:34:03.000Z</time>
      </trkpt>
      <trkpt lat="39.851856" lon="-8.784545">
        <ele>92.4</ele>
        <time>1970-01-01T00:34:04.000Z</time>
      </trkpt>
      <trkpt lat="39.851859" lon="-8.784551">
        <ele>92.4</ele>
        <time>1970-01-01T00:34:05.000Z</time>
      </trkpt>
      <trkpt lat="39.851862" lon="-8.784557">
        <ele>92.4</ele>
        <time>1970-01-01T00:34:06.000Z</time>
      </trkpt>
      <trkpt lat="39.851866" lon="-8.784564">
        <ele>92.4</ele>
        <time>1970-01-01T00:34:07.000Z</time>
      </trkpt>
      <trkpt lat="39.851869" lon="-8.78457">
        <ele>92.4</ele>
        <time>1970-01-01T00:34:10.000Z</time>
      </trkpt>
      <trkpt lat="39.851872" lon="-8.784576">
        <ele>92.4</ele>
        <time>1970-01-01T00:34:11.000Z</time>
      </trkpt>
      <trkpt lat="39.851876" lon="-8.784582">
        <ele>92.2</ele>
        <time>1970-01-01T00:34:12.000Z</time>
      </trkpt>
      <trkpt lat="39.851879" lon="-8.784588">
        <ele>92.2</ele>
        <time>1970-01-01T00:34:13.000Z</time>
      </trkpt>
      <trkpt lat="39.851882" lon="-8.784594">
        <ele>92.2</ele>
        <time>1970-01-01T00:34:18.000Z</time>
      </trkpt>
      <trkpt lat="39.851886" lon="-8.784601">
        <ele>92.2</ele>
        <time>1970-01-01T00:34:19.000Z</time>
      </trkpt>
      <trkpt lat="39.851889" lon="-8.784607">
        <ele>92.2</ele>
        <time>1970-01-01T00:34:20.000Z</time>
      </trkpt>
      <trkpt lat="39.851892" lon="-8.784613">
        <ele>92.2</ele>
        <time>1970-01-01T00:34:21.000Z</time>
      </trkpt>
      <trkpt lat="39.851895" lon="-8.784619">
        <ele>92.2</ele>
        <time>1970-01-01T00:34:23.000Z</time>
      </trkpt>
      <trkpt lat="39.851899" lon="-8.784625">
        <ele>92.2</ele>
        <time>1970-01-01T00:34:26.000Z</time>
      </trkpt>
      <trkpt lat="39.851902" lon="-8.784631">
        <ele>92.2</ele>
        <time>1970-01-01T00:34:27.000Z</time>
      </trkpt>
      <trkpt lat="39.851905" lon="-8.784638">
        <ele>92.2</ele>
        <time>1970-01-01T00:34:28.000Z</time>
      </trkpt>
      <trkpt lat="39.851909" lon="-8.784644">
        <ele>91.9</ele>
        <time>1970-01-01T00:34:29.000Z</time>
      </trkpt>
      <trkpt lat="39.851912" lon="-8.78465">
        <ele>91.9</ele>
        <time>1970-01-01T00:34:30.000Z</time>
      </trkpt>
      <trkpt lat="39.851915" lon="-8.784656">
        <ele>91.9</ele>
        <time>1970-01-01T00:34:31.000Z</time>
      </trkpt>
      <trkpt lat="39.851919" lon="-8.784662">
        <ele>91.9</ele>
        <time>1970-01-01T00:34:40.000Z</time>
      </trkpt>
      <trkpt lat="39.851922" lon="-8.784668">
        <ele>91.9</ele>
        <time>1970-01-01T00:34:42.000Z</time>
      </trkpt>
      <trkpt lat="39.851925" lon="-8.784675">
        <ele>91.9</ele>
        <time>1970-01-01T00:34:44.000Z</time>
      </trkpt>
      <trkpt lat="39.851928" lon="-8.784681">
        <ele>91.9</ele>
        <time>1970-01-01T00:34:47.000Z</time>
      </trkpt>
      <trkpt lat="39.851932" lon="-8.784687">
        <ele>91.8</ele>
        <time>1970-01-01T00:34:48.000Z</time>
      </trkpt>
      <trkpt lat="39.851935" lon="-8.784693">
        <ele>91.8</ele>
        <time>1970-01-01T00:34:55.000Z</time>
      </trkpt>
      <trkpt lat="39.851938" lon="-8.784699">
        <ele>91.8</ele>
        <time>1970-01-01T00:34:57.000Z</time>
      </trkpt>
      <trkpt lat="39.851942" lon="-8.784705">
        <ele>91.6</ele>
        <time>1970-01-01T00:35:20.000Z</time>
      </trkpt>
      <trkpt lat="39.851945" lon="-8.784712">
        <ele>91.6</ele>
        <time>1970-01-01T00:35:32.000Z</time>
      </trkpt>
      <trkpt lat="39.851948" lon="-8.784718">
        <ele>91.6</ele>
        <time>1970-01-01T00:35:36.000Z</time>
      </trkpt>
      <trkpt lat="39.851952" lon="-8.784724">
        <ele>91.6</ele>
        <time>1970-01-01T00:35:50.000Z</time>
      </trkpt>
      <trkpt lat="39.851955" lon="-8.78473">
        <ele>91.5</ele>
        <time>1970-01-01T00:35:51.000Z</time>
      </trkpt>
      <trkpt lat="39.851958" lon="-8.784736">
        <ele>91.5</ele>
        <time>1970-01-01T00:35:54.000Z</time>
      </trkpt>
      <trkpt lat="39.851961" lon="-8.784742">
        <ele>91.5</ele>
        <time>1970-01-01T00:36:39.000Z</time>
      </trkpt>
      <trkpt lat="39.851965" lon="-8.784749">
        <ele>91.5</ele>
        <time>1970-01-01T00:36:41.000Z</time>
      </trkpt>
      <trkpt lat="39.851968" lon="-8.784755">
        <ele>91.5</ele>
        <time>1970-01-01T00:36:44.000Z</time>
      </trkpt>
      <trkpt lat="39.851971" lon="-8.784761">
        <ele>91.5</ele>
        <time>1970-01-01T00:36:45.000Z</time>
      </trkpt>
      <trkpt lat="39.851975" lon="-8.784767">
        <ele>91.3</ele>
        <time>1970-01-01T00:36:46.000Z</time>
      </trkpt>
      <trkpt lat="39.851978" lon="-8.784773">
        <ele>91.3</ele>
        <time>1970-01-01T00:36:47.000Z</time>
      </trkpt>
      <trkpt lat="39.851981" lon="-8.784779">
        <ele>91.3</ele>
        <time>1970-01-01T00:36:48.000Z</time>
      </trkpt>
      <trkpt lat="39.851985" lon="-8.784786">
        <ele>91.3</ele>
        <time>1970-01-01T00:36:49.000Z</time>
      </trkpt>
      <trkpt lat="39.851988" lon="-8.784792">
        <ele>91.3</ele>
        <time>1970-01-01T00:36:54.000Z</time>
      </trkpt>
      <trkpt lat="39.851991" lon="-8.784798">
        <ele>91.3</ele>
        <time>1970-01-01T00:36:55.000Z</time>
      </trkpt>
      <trkpt lat="39.851994" lon="-8.784804">
        <ele>91.3</ele>
        <time>1970-01-01T00:36:56.000Z</time>
      </trkpt>
      <trkpt lat="39.851998" lon="-8.78481">
        <ele>91.3</ele>
        <time>1970-01-01T00:36:57.000Z</time>
      </trkpt>
      <trkpt lat="39.852001" lon="-8.784816">
        <ele>91.2</ele>
        <time>1970-01-01T00:36:58.000Z</time>
      </trkpt>
      <trkpt lat="39.852004" lon="-8.784823">
        <ele>91.2</ele>
        <time>1970-01-01T00:36:59.000Z</time>
      </trkpt>
      <trkpt lat="39.852008" lon="-8.784829">
        <ele>90.9</ele>
        <time>1970-01-01T00:37:00.000Z</time>
      </trkpt>
      <trkpt lat="39.852011" lon="-8.784835">
        <ele>90.9</ele>
        <time>1970-01-01T00:37:01.000Z</time>
      </trkpt>
      <trkpt lat="39.852016" lon="-8.78484">
        <ele>90.9</ele>
        <time>1970-01-01T00:37:02.000Z</time>
      </trkpt>
      <trkpt lat="39.852025" lon="-8.784849">
        <ele>90.9</ele>
        <time>1970-01-01T00:37:03.000Z</time>
      </trkpt>
      <trkpt lat="39.852036" lon="-8.78486">
        <ele>90.9</ele>
        <time>1970-01-01T00:37:04.000Z</time>
      </trkpt>
      <trkpt lat="39.852048" lon="-8.784872">
        <ele>90.6</ele>
        <time>1970-01-01T00:37:05.000Z</time>
      </trkpt>
      <trkpt lat="39.852059" lon="-8.784886">
        <ele>90.6</ele>
        <time>1970-01-01T00:37:06.000Z</time>
      </trkpt>
      <trkpt lat="39.852073" lon="-8.784901">
        <ele>90.2</ele>
        <time>1970-01-01T00:37:07.000Z</time>
      </trkpt>
      <trkpt lat="39.852089" lon="-8.784917">
        <ele>90.2</ele>
        <time>1970-01-01T00:37:08.000Z</time>
      </trkpt>
      <trkpt lat="39.852105" lon="-8.784934">
        <ele>89.8</ele>
        <time>1970-01-01T00:37:09.000Z</time>
      </trkpt>
      <trkpt lat="39.852123" lon="-8.784953">
        <ele>89.8</ele>
        <time>1970-01-01T00:37:10.000Z</time>
      </trkpt>
      <trkpt lat="39.852143" lon="-8.784975">
        <ele>89.3</ele>
        <time>1970-01-01T00:37:11.000Z</time>
      </trkpt>
      <trkpt lat="39.852165" lon="-8.784997">
        <ele>89.3</ele>
        <time>1970-01-01T00:37:12.000Z</time>
      </trkpt>
      <trkpt lat="39.852188" lon="-8.785019">
        <ele>88.7</ele>
        <time>1970-01-01T00:37:13.000Z</time>
      </trkpt>
      <trkpt lat="39.85221" lon="-8.785044">
        <ele>88</ele>
        <time>1970-01-01T00:37:14.000Z</time>
      </trkpt>
      <trkpt lat="39.852234" lon="-8.785075">
        <ele>88</ele>
        <time>1970-01-01T00:37:15.000Z</time>
      </trkpt>
      <trkpt lat="39.852258" lon="-8.785111">
        <ele>87.3</ele>
        <time>1970-01-01T00:37:16.000Z</time>
      </trkpt>
      <trkpt lat="39.852282" lon="-8.785151">
        <ele>86.6</ele>
        <time>1970-01-01T00:37:17.000Z</time>
      </trkpt>
      <trkpt lat="39.852307" lon="-8.785192">
        <ele>85.9</ele>
        <time>1970-01-01T00:37:18.000Z</time>
      </trkpt>
      <trkpt lat="39.85233" lon="-8.785235">
        <ele>85.7</ele>
        <time>1970-01-01T00:37:19.000Z</time>
      </trkpt>
      <trkpt lat="39.852353" lon="-8.785277">
        <ele>85</ele>
        <time>1970-01-01T00:37:20.000Z</time>
      </trkpt>
      <trkpt lat="39.852376" lon="-8.785317">
        <ele>84.2</ele>
        <time>1970-01-01T00:37:21.000Z</time>
      </trkpt>
      <trkpt lat="39.852395" lon="-8.785356">
        <ele>84</ele>
        <time>1970-01-01T00:37:22.000Z</time>
      </trkpt>
      <trkpt lat="39.852412" lon="-8.785393">
        <ele>83.3</ele>
        <time>1970-01-01T00:37:23.000Z</time>
      </trkpt>
      <trkpt lat="39.852428" lon="-8.785427">
        <ele>83.1</ele>
        <time>1970-01-01T00:37:24.000Z</time>
      </trkpt>
      <trkpt lat="39.852443" lon="-8.785462">
        <ele>82.3</ele>
        <time>1970-01-01T00:37:25.000Z</time>
      </trkpt>
      <trkpt lat="39.852455" lon="-8.785499">
        <ele>82.3</ele>
        <time>1970-01-01T00:37:26.000Z</time>
      </trkpt>
      <trkpt lat="39.852464" lon="-8.785538">
        <ele>82.2</ele>
        <time>1970-01-01T00:37:27.000Z</time>
      </trkpt>
      <trkpt lat="39.852473" lon="-8.785579">
        <ele>81.4</ele>
        <time>1970-01-01T00:37:28.000Z</time>
      </trkpt>
      <trkpt lat="39.852481" lon="-8.785625">
        <ele>81.2</ele>
        <time>1970-01-01T00:37:29.000Z</time>
      </trkpt>
      <trkpt lat="39.852488" lon="-8.785671">
        <ele>81.1</ele>
        <time>1970-01-01T00:37:30.000Z</time>
      </trkpt>
      <trkpt lat="39.852494" lon="-8.785711">
        <ele>80.9</ele>
        <time>1970-01-01T00:37:31.000Z</time>
      </trkpt>
      <trkpt lat="39.852496" lon="-8.785749">
        <ele>80.7</ele>
        <time>1970-01-01T00:37:32.000Z</time>
      </trkpt>
      <trkpt lat="39.852493" lon="-8.785788">
        <ele>80.5</ele>
        <time>1970-01-01T00:37:33.000Z</time>
      </trkpt>
      <trkpt lat="39.852487" lon="-8.785832">
        <ele>80.3</ele>
        <time>1970-01-01T00:37:34.000Z</time>
      </trkpt>
      <trkpt lat="39.85248" lon="-8.78588">
        <ele>80.1</ele>
        <time>1970-01-01T00:37:35.000Z</time>
      </trkpt>
      <trkpt lat="39.852475" lon="-8.78593">
        <ele>79.7</ele>
        <time>1970-01-01T00:37:36.000Z</time>
      </trkpt>
      <trkpt lat="39.852473" lon="-8.785978">
        <ele>79.5</ele>
        <time>1970-01-01T00:37:37.000Z</time>
      </trkpt>
      <trkpt lat="39.85247" lon="-8.786026">
        <ele>79.3</ele>
        <time>1970-01-01T00:37:38.000Z</time>
      </trkpt>
      <trkpt lat="39.852466" lon="-8.786074">
        <ele>79.6</ele>
        <time>1970-01-01T00:37:39.000Z</time>
      </trkpt>
      <trkpt lat="39.852461" lon="-8.786121">
        <ele>79.3</ele>
        <time>1970-01-01T00:37:40.000Z</time>
      </trkpt>
      <trkpt lat="39.852455" lon="-8.786168">
        <ele>79</ele>
        <time>1970-01-01T00:37:41.000Z</time>
      </trkpt>
      <trkpt lat="39.85245" lon="-8.786213">
        <ele>78.7</ele>
        <time>1970-01-01T00:37:42.000Z</time>
      </trkpt>
      <trkpt lat="39.852443" lon="-8.786257">
        <ele>78.5</ele>
        <time>1970-01-01T00:37:43.000Z</time>
      </trkpt>
      <trkpt lat="39.852436" lon="-8.786301">
        <ele>78.2</ele>
        <time>1970-01-01T00:37:44.000Z</time>
      </trkpt>
      <trkpt lat="39.85243" lon="-8.786342">
        <ele>78.5</ele>
        <time>1970-01-01T00:37:45.000Z</time>
      </trkpt>
      <trkpt lat="39.852423" lon="-8.786389">
        <ele>78.3</ele>
        <time>1970-01-01T00:37:46.000Z</time>
      </trkpt>
      <trkpt lat="39.852414" lon="-8.786442">
        <ele>78.2</ele>
        <time>1970-01-01T00:37:47.000Z</time>
      </trkpt>
      <trkpt lat="39.852403" lon="-8.7865">
        <ele>77.8</ele>
        <time>1970-01-01T00:37:48.000Z</time>
      </trkpt>
      <trkpt lat="39.852389" lon="-8.786559">
        <ele>78</ele>
        <time>1970-01-01T00:37:49.000Z</time>
      </trkpt>
      <trkpt lat="39.852371" lon="-8.786628">
        <ele>77.5</ele>
        <time>1970-01-01T00:37:50.000Z</time>
      </trkpt>
      <trkpt lat="39.852351" lon="-8.786699">
        <ele>77.4</ele>
        <time>1970-01-01T00:37:51.000Z</time>
      </trkpt>
      <trkpt lat="39.852328" lon="-8.786776">
        <ele>77</ele>
        <time>1970-01-01T00:37:52.000Z</time>
      </trkpt>
      <trkpt lat="39.852305" lon="-8.786855">
        <ele>76.5</ele>
        <time>1970-01-01T00:37:53.000Z</time>
      </trkpt>
      <trkpt lat="39.852277" lon="-8.786933">
        <ele>76.2</ele>
        <time>1970-01-01T00:37:54.000Z</time>
      </trkpt>
      <trkpt lat="39.852245" lon="-8.787014">
        <ele>75.8</ele>
        <time>1970-01-01T00:37:55.000Z</time>
      </trkpt>
      <trkpt lat="39.852207" lon="-8.787102">
        <ele>75.2</ele>
        <time>1970-01-01T00:37:56.000Z</time>
      </trkpt>
      <trkpt lat="39.852164" lon="-8.787196">
        <ele>74.5</ele>
        <time>1970-01-01T00:37:57.000Z</time>
      </trkpt>
      <trkpt lat="39.852113" lon="-8.78729">
        <ele>73.8</ele>
        <time>1970-01-01T00:37:58.000Z</time>
      </trkpt>
      <trkpt lat="39.852057" lon="-8.787384">
        <ele>73.3</ele>
        <time>1970-01-01T00:37:59.000Z</time>
      </trkpt>
      <trkpt lat="39.851998" lon="-8.787478">
        <ele>72.8</ele>
        <time>1970-01-01T00:38:00.000Z</time>
      </trkpt>
      <trkpt lat="39.851933" lon="-8.787577">
        <ele>72.5</ele>
        <time>1970-01-01T00:38:01.000Z</time>
      </trkpt>
      <trkpt lat="39.851871" lon="-8.787675">
        <ele>71.9</ele>
        <time>1970-01-01T00:38:02.000Z</time>
      </trkpt>
      <trkpt lat="39.851816" lon="-8.787771">
        <ele>71.2</ele>
        <time>1970-01-01T00:38:03.000Z</time>
      </trkpt>
      <trkpt lat="39.851768" lon="-8.787864">
        <ele>70.1</ele>
        <time>1970-01-01T00:38:04.000Z</time>
      </trkpt>
      <trkpt lat="39.851726" lon="-8.787957">
        <ele>69.4</ele>
        <time>1970-01-01T00:38:05.000Z</time>
      </trkpt>
      <trkpt lat="39.851689" lon="-8.788048">
        <ele>68.8</ele>
        <time>1970-01-01T00:38:06.000Z</time>
      </trkpt>
      <trkpt lat="39.851655" lon="-8.788135">
        <ele>68.4</ele>
        <time>1970-01-01T00:38:07.000Z</time>
      </trkpt>
      <trkpt lat="39.851627" lon="-8.788209">
        <ele>68.2</ele>
        <time>1970-01-01T00:38:08.000Z</time>
      </trkpt>
      <trkpt lat="39.851603" lon="-8.78827">
        <ele>68.2</ele>
        <time>1970-01-01T00:38:09.000Z</time>
      </trkpt>
      <trkpt lat="39.851588" lon="-8.788317">
        <ele>68.1</ele>
        <time>1970-01-01T00:38:10.000Z</time>
      </trkpt>
      <trkpt lat="39.851582" lon="-8.788354">
        <ele>67.9</ele>
        <time>1970-01-01T00:38:11.000Z</time>
      </trkpt>
      <trkpt lat="39.851584" lon="-8.788382">
        <ele>67.8</ele>
        <time>1970-01-01T00:38:12.000Z</time>
      </trkpt>
      <trkpt lat="39.85159" lon="-8.788404">
        <ele>67.8</ele>
        <time>1970-01-01T00:38:13.000Z</time>
      </trkpt>
      <trkpt lat="39.8516" lon="-8.788424">
        <ele>67.6</ele>
        <time>1970-01-01T00:38:14.000Z</time>
      </trkpt>
      <trkpt lat="39.851612" lon="-8.788441">
        <ele>67.4</ele>
        <time>1970-01-01T00:38:15.000Z</time>
      </trkpt>
      <trkpt lat="39.851626" lon="-8.788459">
        <ele>67.4</ele>
        <time>1970-01-01T00:38:16.000Z</time>
      </trkpt>
      <trkpt lat="39.85164" lon="-8.788477">
        <ele>67.3</ele>
        <time>1970-01-01T00:38:17.000Z</time>
      </trkpt>
      <trkpt lat="39.851655" lon="-8.788495">
        <ele>67.1</ele>
        <time>1970-01-01T00:38:18.000Z</time>
      </trkpt>
      <trkpt lat="39.851676" lon="-8.788513">
        <ele>67</ele>
        <time>1970-01-01T00:38:19.000Z</time>
      </trkpt>
      <trkpt lat="39.851699" lon="-8.788528">
        <ele>66.8</ele>
        <time>1970-01-01T00:38:20.000Z</time>
      </trkpt>
      <trkpt lat="39.851723" lon="-8.788541">
        <ele>66.6</ele>
        <time>1970-01-01T00:38:21.000Z</time>
      </trkpt>
      <trkpt lat="39.851747" lon="-8.788554">
        <ele>66.2</ele>
        <time>1970-01-01T00:38:22.000Z</time>
      </trkpt>
      <trkpt lat="39.851772" lon="-8.788567">
        <ele>66.2</ele>
        <time>1970-01-01T00:38:23.000Z</time>
      </trkpt>
      <trkpt lat="39.851796" lon="-8.788578">
        <ele>66</ele>
        <time>1970-01-01T00:38:24.000Z</time>
      </trkpt>
      <trkpt lat="39.851819" lon="-8.788588">
        <ele>65.8</ele>
        <time>1970-01-01T00:38:25.000Z</time>
      </trkpt>
      <trkpt lat="39.85184" lon="-8.788596">
        <ele>65.7</ele>
        <time>1970-01-01T00:38:26.000Z</time>
      </trkpt>
      <trkpt lat="39.851861" lon="-8.788602">
        <ele>65.5</ele>
        <time>1970-01-01T00:38:27.000Z</time>
      </trkpt>
      <trkpt lat="39.851882" lon="-8.788607">
        <ele>65.3</ele>
        <time>1970-01-01T00:38:28.000Z</time>
      </trkpt>
      <trkpt lat="39.851901" lon="-8.78861">
        <ele>65.3</ele>
        <time>1970-01-01T00:38:29.000Z</time>
      </trkpt>
      <trkpt lat="39.851919" lon="-8.788611">
        <ele>65.1</ele>
        <time>1970-01-01T00:38:30.000Z</time>
      </trkpt>
      <trkpt lat="39.851937" lon="-8.78861">
        <ele>65.1</ele>
        <time>1970-01-01T00:38:31.000Z</time>
      </trkpt>
      <trkpt lat="39.851957" lon="-8.788608">
        <ele>64.9</ele>
        <time>1970-01-01T00:38:32.000Z</time>
      </trkpt>
      <trkpt lat="39.85198" lon="-8.788604">
        <ele>64.7</ele>
        <time>1970-01-01T00:38:33.000Z</time>
      </trkpt>
      <trkpt lat="39.852001" lon="-8.788597">
        <ele>64.7</ele>
        <time>1970-01-01T00:38:34.000Z</time>
      </trkpt>
      <trkpt lat="39.852021" lon="-8.788588">
        <ele>64.6</ele>
        <time>1970-01-01T00:38:35.000Z</time>
      </trkpt>
      <trkpt lat="39.852038" lon="-8.788579">
        <ele>64.6</ele>
        <time>1970-01-01T00:38:36.000Z</time>
      </trkpt>
      <trkpt lat="39.852051" lon="-8.788567">
        <ele>64.4</ele>
        <time>1970-01-01T00:38:37.000Z</time>
      </trkpt>
      <trkpt lat="39.852063" lon="-8.788558">
        <ele>64.4</ele>
        <time>1970-01-01T00:38:38.000Z</time>
      </trkpt>
      <trkpt lat="39.852071" lon="-8.78855">
        <ele>64.4</ele>
        <time>1970-01-01T00:38:39.000Z</time>
      </trkpt>
      <trkpt lat="39.852077" lon="-8.788546">
        <ele>64.3</ele>
        <time>1970-01-01T00:38:40.000Z</time>
      </trkpt>
      <trkpt lat="39.852083" lon="-8.788543">
        <ele>64.3</ele>
        <time>1970-01-01T00:38:41.000Z</time>
      </trkpt>
      <trkpt lat="39.852088" lon="-8.78854">
        <ele>64.3</ele>
        <time>1970-01-01T00:38:43.000Z</time>
      </trkpt>
      <trkpt lat="39.852091" lon="-8.788544">
        <ele>64.3</ele>
        <time>1970-01-01T00:38:44.000Z</time>
      </trkpt>
      <trkpt lat="39.852097" lon="-8.788548">
        <ele>64.2</ele>
        <time>1970-01-01T00:38:45.000Z</time>
      </trkpt>
      <trkpt lat="39.852102" lon="-8.788554">
        <ele>64.2</ele>
        <time>1970-01-01T00:38:46.000Z</time>
      </trkpt>
      <trkpt lat="39.852105" lon="-8.78856">
        <ele>64</ele>
        <time>1970-01-01T00:38:47.000Z</time>
      </trkpt>
      <trkpt lat="39.852105" lon="-8.788563">
        <ele>64</ele>
        <time>1970-01-01T00:38:48.000Z</time>
      </trkpt>
      <trkpt lat="39.852098" lon="-8.788567">
        <ele>64.2</ele>
        <time>1970-01-01T00:38:49.000Z</time>
      </trkpt>
      <trkpt lat="39.852097" lon="-8.788563">
        <ele>64.2</ele>
        <time>1970-01-01T00:38:51.000Z</time>
      </trkpt>
      <trkpt lat="39.852096" lon="-8.788564">
        <ele>64.2</ele>
        <time>1970-01-01T00:38:52.000Z</time>
      </trkpt>
      <trkpt lat="39.852094" lon="-8.788565">
        <ele>64.2</ele>
        <time>1970-01-01T00:38:53.000Z</time>
      </trkpt>
      <trkpt lat="39.852091" lon="-8.788566">
        <ele>64.2</ele>
        <time>1970-01-01T00:38:54.000Z</time>
      </trkpt>
      <trkpt lat="39.852087" lon="-8.788568">
        <ele>64.2</ele>
        <time>1970-01-01T00:38:56.000Z</time>
      </trkpt>
      <trkpt lat="39.852087" lon="-8.788569">
        <ele>64.2</ele>
        <time>1970-01-01T00:38:57.000Z</time>
      </trkpt>
      <trkpt lat="39.852083" lon="-8.788568">
        <ele>64.2</ele>
        <time>1970-01-01T00:38:59.000Z</time>
      </trkpt>
      <trkpt lat="39.852083" lon="-8.788568">
        <ele>64.2</ele>
        <time>1970-01-01T00:39:00.000Z</time>
      </trkpt>
      <trkpt lat="39.852081" lon="-8.788568">
        <ele>64.2</ele>
        <time>1970-01-01T00:39:01.000Z</time>
      </trkpt>
      <trkpt lat="39.85208" lon="-8.788568">
        <ele>64.2</ele>
        <time>1970-01-01T00:39:02.000Z</time>
      </trkpt>
      <trkpt lat="39.852079" lon="-8.788567">
        <ele>64.2</ele>
        <time>1970-01-01T00:39:03.000Z</time>
      </trkpt>
      <trkpt lat="39.852078" lon="-8.788563">
        <ele>64.2</ele>
        <time>1970-01-01T00:39:04.000Z</time>
      </trkpt>
      <trkpt lat="39.852077" lon="-8.788558">
        <ele>64.2</ele>
        <time>1970-01-01T00:39:05.000Z</time>
      </trkpt>
      <trkpt lat="39.852077" lon="-8.788556">
        <ele>64.2</ele>
        <time>1970-01-01T00:39:06.000Z</time>
      </trkpt>
      <trkpt lat="39.852077" lon="-8.788555">
        <ele>64.2</ele>
        <time>1970-01-01T00:39:07.000Z</time>
      </trkpt>
      <trkpt lat="39.852072" lon="-8.788555">
        <ele>64.2</ele>
        <time>1970-01-01T00:39:09.000Z</time>
      </trkpt>
      <trkpt lat="39.852073" lon="-8.788556">
        <ele>64.2</ele>
        <time>1970-01-01T00:39:10.000Z</time>
      </trkpt>
      <trkpt lat="39.852075" lon="-8.788558">
        <ele>64.2</ele>
        <time>1970-01-01T00:39:11.000Z</time>
      </trkpt>
      <trkpt lat="39.852087" lon="-8.788562">
        <ele>64.2</ele>
        <time>1970-01-01T00:39:13.000Z</time>
      </trkpt>
      <trkpt lat="39.852092" lon="-8.788562">
        <ele>64.2</ele>
        <time>1970-01-01T00:39:15.000Z</time>
      </trkpt>
      <trkpt lat="39.85209" lon="-8.78856">
        <ele>64.2</ele>
        <time>1970-01-01T00:39:17.000Z</time>
      </trkpt>
      <trkpt lat="39.852089" lon="-8.788559">
        <ele>64.2</ele>
        <time>1970-01-01T00:39:18.000Z</time>
      </trkpt>
      <trkpt lat="39.852085" lon="-8.788558">
        <ele>64.2</ele>
        <time>1970-01-01T00:39:19.000Z</time>
      </trkpt>
      <trkpt lat="39.852081" lon="-8.788556">
        <ele>64.2</ele>
        <time>1970-01-01T00:39:20.000Z</time>
      </trkpt>
      <trkpt lat="39.852067" lon="-8.788543">
        <ele>64.5</ele>
        <time>1970-01-01T00:39:21.000Z</time>
      </trkpt>
      <trkpt lat="39.852065" lon="-8.78854">
        <ele>64.5</ele>
        <time>1970-01-01T00:39:23.000Z</time>
      </trkpt>
      <trkpt lat="39.852065" lon="-8.788539">
        <ele>64.5</ele>
        <time>1970-01-01T00:39:24.000Z</time>
      </trkpt>
      <trkpt lat="39.852063" lon="-8.788538">
        <ele>64.5</ele>
        <time>1970-01-01T00:39:25.000Z</time>
      </trkpt>
      <trkpt lat="39.852065" lon="-8.788537">
        <ele>64.5</ele>
        <time>1970-01-01T00:39:26.000Z</time>
      </trkpt>
      <trkpt lat="39.852072" lon="-8.788538">
        <ele>64.3</ele>
        <time>1970-01-01T00:39:28.000Z</time>
      </trkpt>
      <trkpt lat="39.852065" lon="-8.788537">
        <ele>64.5</ele>
        <time>1970-01-01T00:39:32.000Z</time>
      </trkpt>
      <trkpt lat="39.852066" lon="-8.788535">
        <ele>64.5</ele>
        <time>1970-01-01T00:39:33.000Z</time>
      </trkpt>
      <trkpt lat="39.852066" lon="-8.788535">
        <ele>64.5</ele>
        <time>1970-01-01T00:39:34.000Z</time>
      </trkpt>
      <trkpt lat="39.852065" lon="-8.788535">
        <ele>64.5</ele>
        <time>1970-01-01T00:39:35.000Z</time>
      </trkpt>
      <trkpt lat="39.852065" lon="-8.788534">
        <ele>64.5</ele>
        <time>1970-01-01T00:39:36.000Z</time>
      </trkpt>
      <trkpt lat="39.852068" lon="-8.788533">
        <ele>64.5</ele>
        <time>1970-01-01T00:39:37.000Z</time>
      </trkpt>
      <trkpt lat="39.85207" lon="-8.788534">
        <ele>64.5</ele>
        <time>1970-01-01T00:39:38.000Z</time>
      </trkpt>
      <trkpt lat="39.852072" lon="-8.788535">
        <ele>64.3</ele>
        <time>1970-01-01T00:39:39.000Z</time>
      </trkpt>
      <trkpt lat="39.852075" lon="-8.788535">
        <ele>64.3</ele>
        <time>1970-01-01T00:39:40.000Z</time>
      </trkpt>
      <trkpt lat="39.852076" lon="-8.788537">
        <ele>64.3</ele>
        <time>1970-01-01T00:39:41.000Z</time>
      </trkpt>
      <trkpt lat="39.852077" lon="-8.788539">
        <ele>64.3</ele>
        <time>1970-01-01T00:39:42.000Z</time>
      </trkpt>
      <trkpt lat="39.852078" lon="-8.788542">
        <ele>64.3</ele>
        <time>1970-01-01T00:39:43.000Z</time>
      </trkpt>
      <trkpt lat="39.852081" lon="-8.78855">
        <ele>64.2</ele>
        <time>1970-01-01T00:39:44.000Z</time>
      </trkpt>
      <trkpt lat="39.852085" lon="-8.78856">
        <ele>64.2</ele>
        <time>1970-01-01T00:39:45.000Z</time>
      </trkpt>
      <trkpt lat="39.852087" lon="-8.788569">
        <ele>64.2</ele>
        <time>1970-01-01T00:39:46.000Z</time>
      </trkpt>
      <trkpt lat="39.852087" lon="-8.788576">
        <ele>64.2</ele>
        <time>1970-01-01T00:39:47.000Z</time>
      </trkpt>
      <trkpt lat="39.852088" lon="-8.788581">
        <ele>64.2</ele>
        <time>1970-01-01T00:39:48.000Z</time>
      </trkpt>
      <trkpt lat="39.85209" lon="-8.788584">
        <ele>64.2</ele>
        <time>1970-01-01T00:39:49.000Z</time>
      </trkpt>
      <trkpt lat="39.852093" lon="-8.788588">
        <ele>64.2</ele>
        <time>1970-01-01T00:39:50.000Z</time>
      </trkpt>
      <trkpt lat="39.852107" lon="-8.788598">
        <ele>63.9</ele>
        <time>1970-01-01T00:39:53.000Z</time>
      </trkpt>
      <trkpt lat="39.85211" lon="-8.788597">
        <ele>63.9</ele>
        <time>1970-01-01T00:39:54.000Z</time>
      </trkpt>
      <trkpt lat="39.852113" lon="-8.788593">
        <ele>63.9</ele>
        <time>1970-01-01T00:39:55.000Z</time>
      </trkpt>
      <trkpt lat="39.852116" lon="-8.788588">
        <ele>64</ele>
        <time>1970-01-01T00:39:56.000Z</time>
      </trkpt>
      <trkpt lat="39.852139" lon="-8.788565">
        <ele>63.8</ele>
        <time>1970-01-01T00:39:57.000Z</time>
      </trkpt>
      <trkpt lat="39.852145" lon="-8.788564">
        <ele>63.8</ele>
        <time>1970-01-01T00:39:58.000Z</time>
      </trkpt>
      <trkpt lat="39.852159" lon="-8.788563">
        <ele>63.8</ele>
        <time>1970-01-01T00:39:59.000Z</time>
      </trkpt>
      <trkpt lat="39.852176" lon="-8.788564">
        <ele>63.5</ele>
        <time>1970-01-01T00:40:00.000Z</time>
      </trkpt>
      <trkpt lat="39.852196" lon="-8.788561">
        <ele>63.5</ele>
        <time>1970-01-01T00:40:01.000Z</time>
      </trkpt>
      <trkpt lat="39.852214" lon="-8.788555">
        <ele>63.3</ele>
        <time>1970-01-01T00:40:02.000Z</time>
      </trkpt>
      <trkpt lat="39.852227" lon="-8.788549">
        <ele>63.3</ele>
        <time>1970-01-01T00:40:03.000Z</time>
      </trkpt>
      <trkpt lat="39.852254" lon="-8.788538">
        <ele>63.3</ele>
        <time>1970-01-01T00:40:05.000Z</time>
      </trkpt>
      <trkpt lat="39.852253" lon="-8.788538">
        <ele>63.3</ele>
        <time>1970-01-01T00:40:06.000Z</time>
      </trkpt>
      <trkpt lat="39.852247" lon="-8.78854">
        <ele>63.3</ele>
        <time>1970-01-01T00:40:08.000Z</time>
      </trkpt>
      <trkpt lat="39.852247" lon="-8.788539">
        <ele>63.3</ele>
        <time>1970-01-01T00:40:09.000Z</time>
      </trkpt>
      <trkpt lat="39.852249" lon="-8.78854">
        <ele>63.3</ele>
        <time>1970-01-01T00:40:10.000Z</time>
      </trkpt>
      <trkpt lat="39.852252" lon="-8.788539">
        <ele>63.3</ele>
        <time>1970-01-01T00:40:11.000Z</time>
      </trkpt>
      <trkpt lat="39.852258" lon="-8.788538">
        <ele>63.3</ele>
        <time>1970-01-01T00:40:12.000Z</time>
      </trkpt>
      <trkpt lat="39.852264" lon="-8.788536">
        <ele>63.3</ele>
        <time>1970-01-01T00:40:13.000Z</time>
      </trkpt>
      <trkpt lat="39.852272" lon="-8.788535">
        <ele>63</ele>
        <time>1970-01-01T00:40:14.000Z</time>
      </trkpt>
      <trkpt lat="39.852289" lon="-8.788539">
        <ele>63</ele>
        <time>1970-01-01T00:40:16.000Z</time>
      </trkpt>
      <trkpt lat="39.852289" lon="-8.788539">
        <ele>63</ele>
        <time>1970-01-01T00:40:17.000Z</time>
      </trkpt>
      <trkpt lat="39.852299" lon="-8.788539">
        <ele>63</ele>
        <time>1970-01-01T00:40:19.000Z</time>
      </trkpt>
      <trkpt lat="39.852299" lon="-8.788538">
        <ele>63</ele>
        <time>1970-01-01T00:40:20.000Z</time>
      </trkpt>
      <trkpt lat="39.852299" lon="-8.788538">
        <ele>63</ele>
        <time>1970-01-01T00:40:21.000Z</time>
      </trkpt>
      <trkpt lat="39.852295" lon="-8.788542">
        <ele>63</ele>
        <time>1970-01-01T00:40:23.000Z</time>
      </trkpt>
      <trkpt lat="39.852295" lon="-8.788541">
        <ele>63</ele>
        <time>1970-01-01T00:40:24.000Z</time>
      </trkpt>
      <trkpt lat="39.852295" lon="-8.78854">
        <ele>63</ele>
        <time>1970-01-01T00:40:26.000Z</time>
      </trkpt>
      <trkpt lat="39.852296" lon="-8.788541">
        <ele>63</ele>
        <time>1970-01-01T00:40:27.000Z</time>
      </trkpt>
      <trkpt lat="39.852298" lon="-8.788542">
        <ele>63</ele>
        <time>1970-01-01T00:40:28.000Z</time>
      </trkpt>
      <trkpt lat="39.852301" lon="-8.788544">
        <ele>63</ele>
        <time>1970-01-01T00:40:29.000Z</time>
      </trkpt>
      <trkpt lat="39.852303" lon="-8.788546">
        <ele>62.8</ele>
        <time>1970-01-01T00:40:30.000Z</time>
      </trkpt>
      <trkpt lat="39.852305" lon="-8.788552">
        <ele>62.6</ele>
        <time>1970-01-01T00:40:53.000Z</time>
      </trkpt>
      <trkpt lat="39.852312" lon="-8.788562">
        <ele>62.6</ele>
        <time>1970-01-01T00:41:40.000Z</time>
      </trkpt>
      <trkpt lat="39.852315" lon="-8.788557">
        <ele>62.6</ele>
        <time>1970-01-01T00:41:42.000Z</time>
      </trkpt>
      <trkpt lat="39.852315" lon="-8.788556">
        <ele>62.6</ele>
        <time>1970-01-01T00:41:43.000Z</time>
      </trkpt>
      <trkpt lat="39.852316" lon="-8.788554">
        <ele>62.6</ele>
        <time>1970-01-01T00:41:44.000Z</time>
      </trkpt>
      <trkpt lat="39.852319" lon="-8.788547">
        <ele>62.8</ele>
        <time>1970-01-01T00:41:48.000Z</time>
      </trkpt>
      <trkpt lat="39.852327" lon="-8.788549">
        <ele>62.6</ele>
        <time>1970-01-01T00:42:02.000Z</time>
      </trkpt>
      <trkpt lat="39.85233" lon="-8.788549">
        <ele>62.6</ele>
        <time>1970-01-01T00:42:26.000Z</time>
      </trkpt>
      <trkpt lat="39.852319" lon="-8.78854">
        <ele>62.8</ele>
        <time>1970-01-01T00:42:55.000Z</time>
      </trkpt>
      <trkpt lat="39.852319" lon="-8.788539">
        <ele>62.8</ele>
        <time>1970-01-01T00:42:56.000Z</time>
      </trkpt>
      <trkpt lat="39.852319" lon="-8.788532">
        <ele>62.8</ele>
        <time>1970-01-01T00:42:57.000Z</time>
      </trkpt>
      <trkpt lat="39.85232" lon="-8.788525">
        <ele>62.8</ele>
        <time>1970-01-01T00:42:58.000Z</time>
      </trkpt>
      <trkpt lat="39.852322" lon="-8.788517">
        <ele>62.8</ele>
        <time>1970-01-01T00:42:59.000Z</time>
      </trkpt>
      <trkpt lat="39.852324" lon="-8.788508">
        <ele>62.8</ele>
        <time>1970-01-01T00:43:00.000Z</time>
      </trkpt>
      <trkpt lat="39.852328" lon="-8.788501">
        <ele>63.1</ele>
        <time>1970-01-01T00:43:01.000Z</time>
      </trkpt>
      <trkpt lat="39.852334" lon="-8.788495">
        <ele>63.1</ele>
        <time>1970-01-01T00:43:02.000Z</time>
      </trkpt>
      <trkpt lat="39.852339" lon="-8.788488">
        <ele>62.8</ele>
        <time>1970-01-01T00:43:03.000Z</time>
      </trkpt>
      <trkpt lat="39.852342" lon="-8.788482">
        <ele>62.8</ele>
        <time>1970-01-01T00:43:04.000Z</time>
      </trkpt>
      <trkpt lat="39.852352" lon="-8.78847">
        <ele>62.8</ele>
        <time>1970-01-01T00:43:06.000Z</time>
      </trkpt>
      <trkpt lat="39.852351" lon="-8.788471">
        <ele>62.8</ele>
        <time>1970-01-01T00:43:07.000Z</time>
      </trkpt>
      <trkpt lat="39.852349" lon="-8.788475">
        <ele>62.8</ele>
        <time>1970-01-01T00:43:44.000Z</time>
      </trkpt>
      <trkpt lat="39.85235" lon="-8.788477">
        <ele>62.8</ele>
        <time>1970-01-01T00:43:47.000Z</time>
      </trkpt>
      <trkpt lat="39.85235" lon="-8.788472">
        <ele>62.8</ele>
        <time>1970-01-01T00:44:00.000Z</time>
      </trkpt>
      <trkpt lat="39.852349" lon="-8.788469">
        <ele>62.8</ele>
        <time>1970-01-01T00:44:02.000Z</time>
      </trkpt>
      <trkpt lat="39.852349" lon="-8.788464">
        <ele>62.8</ele>
        <time>1970-01-01T00:44:04.000Z</time>
      </trkpt>
      <trkpt lat="39.852345" lon="-8.788472">
        <ele>62.8</ele>
        <time>1970-01-01T00:44:20.000Z</time>
      </trkpt>
      <trkpt lat="39.852345" lon="-8.788473">
        <ele>62.8</ele>
        <time>1970-01-01T00:44:21.000Z</time>
      </trkpt>
      <trkpt lat="39.852346" lon="-8.788474">
        <ele>62.8</ele>
        <time>1970-01-01T00:44:22.000Z</time>
      </trkpt>
      <trkpt lat="39.852347" lon="-8.788477">
        <ele>62.8</ele>
        <time>1970-01-01T00:44:23.000Z</time>
      </trkpt>
      <trkpt lat="39.852347" lon="-8.788479">
        <ele>62.8</ele>
        <time>1970-01-01T00:44:24.000Z</time>
      </trkpt>
      <trkpt lat="39.852348" lon="-8.788482">
        <ele>62.8</ele>
        <time>1970-01-01T00:44:25.000Z</time>
      </trkpt>
      <trkpt lat="39.85235" lon="-8.78849">
        <ele>62.8</ele>
        <time>1970-01-01T00:44:28.000Z</time>
      </trkpt>
      <trkpt lat="39.852351" lon="-8.78849">
        <ele>62.8</ele>
        <time>1970-01-01T00:44:29.000Z</time>
      </trkpt>
      <trkpt lat="39.852356" lon="-8.788483">
        <ele>62.7</ele>
        <time>1970-01-01T00:44:30.000Z</time>
      </trkpt>
      <trkpt lat="39.852374" lon="-8.788449">
        <ele>62.8</ele>
        <time>1970-01-01T00:44:31.000Z</time>
      </trkpt>
      <trkpt lat="39.85239" lon="-8.788439">
        <ele>62.8</ele>
        <time>1970-01-01T00:44:32.000Z</time>
      </trkpt>
      <trkpt lat="39.852395" lon="-8.788437">
        <ele>62.8</ele>
        <time>1970-01-01T00:44:33.000Z</time>
      </trkpt>
      <trkpt lat="39.852403" lon="-8.788437">
        <ele>62.6</ele>
        <time>1970-01-01T00:44:34.000Z</time>
      </trkpt>
      <trkpt lat="39.852416" lon="-8.788439">
        <ele>62.5</ele>
        <time>1970-01-01T00:44:35.000Z</time>
      </trkpt>
      <trkpt lat="39.852435" lon="-8.788443">
        <ele>62.3</ele>
        <time>1970-01-01T00:44:36.000Z</time>
      </trkpt>
      <trkpt lat="39.852456" lon="-8.788448">
        <ele>62.3</ele>
        <time>1970-01-01T00:44:37.000Z</time>
      </trkpt>
      <trkpt lat="39.852479" lon="-8.788453">
        <ele>62.1</ele>
        <time>1970-01-01T00:44:38.000Z</time>
      </trkpt>
      <trkpt lat="39.852499" lon="-8.788458">
        <ele>62.1</ele>
        <time>1970-01-01T00:44:39.000Z</time>
      </trkpt>
      <trkpt lat="39.852518" lon="-8.788465">
        <ele>61.5</ele>
        <time>1970-01-01T00:44:40.000Z</time>
      </trkpt>
      <trkpt lat="39.852538" lon="-8.788473">
        <ele>61.3</ele>
        <time>1970-01-01T00:44:41.000Z</time>
      </trkpt>
      <trkpt lat="39.85256" lon="-8.788484">
        <ele>61.3</ele>
        <time>1970-01-01T00:44:42.000Z</time>
      </trkpt>
      <trkpt lat="39.852582" lon="-8.788498">
        <ele>61</ele>
        <time>1970-01-01T00:44:43.000Z</time>
      </trkpt>
      <trkpt lat="39.852601" lon="-8.788512">
        <ele>60.5</ele>
        <time>1970-01-01T00:44:44.000Z</time>
      </trkpt>
      <trkpt lat="39.852616" lon="-8.788528">
        <ele>60.5</ele>
        <time>1970-01-01T00:44:45.000Z</time>
      </trkpt>
      <trkpt lat="39.85263" lon="-8.788548">
        <ele>60.3</ele>
        <time>1970-01-01T00:44:46.000Z</time>
      </trkpt>
      <trkpt lat="39.852644" lon="-8.788567">
        <ele>60.1</ele>
        <time>1970-01-01T00:44:47.000Z</time>
      </trkpt>
      <trkpt lat="39.852658" lon="-8.788586">
        <ele>60.1</ele>
        <time>1970-01-01T00:44:48.000Z</time>
      </trkpt>
      <trkpt lat="39.85267" lon="-8.788604">
        <ele>59.7</ele>
        <time>1970-01-01T00:44:49.000Z</time>
      </trkpt>
      <trkpt lat="39.852676" lon="-8.788624">
        <ele>59.6</ele>
        <time>1970-01-01T00:44:50.000Z</time>
      </trkpt>
      <trkpt lat="39.852677" lon="-8.788647">
        <ele>59.5</ele>
        <time>1970-01-01T00:44:51.000Z</time>
      </trkpt>
      <trkpt lat="39.852672" lon="-8.788673">
        <ele>59.5</ele>
        <time>1970-01-01T00:44:52.000Z</time>
      </trkpt>
      <trkpt lat="39.852662" lon="-8.788699">
        <ele>59.6</ele>
        <time>1970-01-01T00:44:53.000Z</time>
      </trkpt>
      <trkpt lat="39.852651" lon="-8.788727">
        <ele>59.6</ele>
        <time>1970-01-01T00:44:54.000Z</time>
      </trkpt>
      <trkpt lat="39.852644" lon="-8.788756">
        <ele>59.5</ele>
        <time>1970-01-01T00:44:55.000Z</time>
      </trkpt>
      <trkpt lat="39.852641" lon="-8.788789">
        <ele>59.5</ele>
        <time>1970-01-01T00:44:56.000Z</time>
      </trkpt>
      <trkpt lat="39.852641" lon="-8.788824">
        <ele>59.5</ele>
        <time>1970-01-01T00:44:57.000Z</time>
      </trkpt>
      <trkpt lat="39.852646" lon="-8.788861">
        <ele>59.4</ele>
        <time>1970-01-01T00:44:58.000Z</time>
      </trkpt>
      <trkpt lat="39.852654" lon="-8.788899">
        <ele>59.4</ele>
        <time>1970-01-01T00:44:59.000Z</time>
      </trkpt>
      <trkpt lat="39.852664" lon="-8.788934">
        <ele>59.4</ele>
        <time>1970-01-01T00:45:00.000Z</time>
      </trkpt>
      <trkpt lat="39.852676" lon="-8.788967">
        <ele>59.2</ele>
        <time>1970-01-01T00:45:01.000Z</time>
      </trkpt>
      <trkpt lat="39.852688" lon="-8.788999">
        <ele>59.2</ele>
        <time>1970-01-01T00:45:02.000Z</time>
      </trkpt>
      <trkpt lat="39.852699" lon="-8.789029">
        <ele>59.1</ele>
        <time>1970-01-01T00:45:03.000Z</time>
      </trkpt>
      <trkpt lat="39.852712" lon="-8.789055">
        <ele>59.1</ele>
        <time>1970-01-01T00:45:04.000Z</time>
      </trkpt>
      <trkpt lat="39.852725" lon="-8.789078">
        <ele>59.1</ele>
        <time>1970-01-01T00:45:05.000Z</time>
      </trkpt>
      <trkpt lat="39.852739" lon="-8.789103">
        <ele>59</ele>
        <time>1970-01-01T00:45:06.000Z</time>
      </trkpt>
      <trkpt lat="39.852754" lon="-8.789131">
        <ele>59.1</ele>
        <time>1970-01-01T00:45:07.000Z</time>
      </trkpt>
      <trkpt lat="39.852768" lon="-8.78916">
        <ele>59</ele>
        <time>1970-01-01T00:45:08.000Z</time>
      </trkpt>
      <trkpt lat="39.852782" lon="-8.789192">
        <ele>59</ele>
        <time>1970-01-01T00:45:09.000Z</time>
      </trkpt>
      <trkpt lat="39.852795" lon="-8.789222">
        <ele>59</ele>
        <time>1970-01-01T00:45:10.000Z</time>
      </trkpt>
      <trkpt lat="39.852808" lon="-8.789253">
        <ele>58.9</ele>
        <time>1970-01-01T00:45:11.000Z</time>
      </trkpt>
      <trkpt lat="39.85282" lon="-8.789285">
        <ele>59</ele>
        <time>1970-01-01T00:45:12.000Z</time>
      </trkpt>
      <trkpt lat="39.852834" lon="-8.789318">
        <ele>58.8</ele>
        <time>1970-01-01T00:45:13.000Z</time>
      </trkpt>
      <trkpt lat="39.852847" lon="-8.789352">
        <ele>58.9</ele>
        <time>1970-01-01T00:45:14.000Z</time>
      </trkpt>
      <trkpt lat="39.852859" lon="-8.789387">
        <ele>58.9</ele>
        <time>1970-01-01T00:45:15.000Z</time>
      </trkpt>
      <trkpt lat="39.852872" lon="-8.789426">
        <ele>58.8</ele>
        <time>1970-01-01T00:45:16.000Z</time>
      </trkpt>
      <trkpt lat="39.852884" lon="-8.789467">
        <ele>58.8</ele>
        <time>1970-01-01T00:45:17.000Z</time>
      </trkpt>
      <trkpt lat="39.852896" lon="-8.789507">
        <ele>58.7</ele>
        <time>1970-01-01T00:45:18.000Z</time>
      </trkpt>
      <trkpt lat="39.852908" lon="-8.789548">
        <ele>58.7</ele>
        <time>1970-01-01T00:45:19.000Z</time>
      </trkpt>
      <trkpt lat="39.85292" lon="-8.789588">
        <ele>58.7</ele>
        <time>1970-01-01T00:45:20.000Z</time>
      </trkpt>
      <trkpt lat="39.852933" lon="-8.789627">
        <ele>58.5</ele>
        <time>1970-01-01T00:45:21.000Z</time>
      </trkpt>
      <trkpt lat="39.852946" lon="-8.789663">
        <ele>58.5</ele>
        <time>1970-01-01T00:45:22.000Z</time>
      </trkpt>
      <trkpt lat="39.852959" lon="-8.789693">
        <ele>58.5</ele>
        <time>1970-01-01T00:45:23.000Z</time>
      </trkpt>
      <trkpt lat="39.852973" lon="-8.789721">
        <ele>58.3</ele>
        <time>1970-01-01T00:45:24.000Z</time>
      </trkpt>
      <trkpt lat="39.852987" lon="-8.789749">
        <ele>58.3</ele>
        <time>1970-01-01T00:45:25.000Z</time>
      </trkpt>
      <trkpt lat="39.852999" lon="-8.78978">
        <ele>58.1</ele>
        <time>1970-01-01T00:45:26.000Z</time>
      </trkpt>
      <trkpt lat="39.853011" lon="-8.789811">
        <ele>58.1</ele>
        <time>1970-01-01T00:45:27.000Z</time>
      </trkpt>
      <trkpt lat="39.853023" lon="-8.789844">
        <ele>58.1</ele>
        <time>1970-01-01T00:45:28.000Z</time>
      </trkpt>
      <trkpt lat="39.853034" lon="-8.789879">
        <ele>58</ele>
        <time>1970-01-01T00:45:29.000Z</time>
      </trkpt>
      <trkpt lat="39.853044" lon="-8.789917">
        <ele>57.9</ele>
        <time>1970-01-01T00:45:30.000Z</time>
      </trkpt>
      <trkpt lat="39.853053" lon="-8.789959">
        <ele>57.9</ele>
        <time>1970-01-01T00:45:31.000Z</time>
      </trkpt>
      <trkpt lat="39.853063" lon="-8.790001">
        <ele>57.8</ele>
        <time>1970-01-01T00:45:32.000Z</time>
      </trkpt>
      <trkpt lat="39.853071" lon="-8.790042">
        <ele>57.9</ele>
        <time>1970-01-01T00:45:33.000Z</time>
      </trkpt>
      <trkpt lat="39.853081" lon="-8.790087">
        <ele>57.9</ele>
        <time>1970-01-01T00:45:34.000Z</time>
      </trkpt>
      <trkpt lat="39.853091" lon="-8.79013">
        <ele>57.9</ele>
        <time>1970-01-01T00:45:35.000Z</time>
      </trkpt>
      <trkpt lat="39.8531" lon="-8.79017">
        <ele>57.8</ele>
        <time>1970-01-01T00:45:36.000Z</time>
      </trkpt>
      <trkpt lat="39.853111" lon="-8.790208">
        <ele>57.8</ele>
        <time>1970-01-01T00:45:37.000Z</time>
      </trkpt>
      <trkpt lat="39.853124" lon="-8.790245">
        <ele>57.8</ele>
        <time>1970-01-01T00:45:38.000Z</time>
      </trkpt>
      <trkpt lat="39.853141" lon="-8.790283">
        <ele>57.7</ele>
        <time>1970-01-01T00:45:39.000Z</time>
      </trkpt>
      <trkpt lat="39.853162" lon="-8.790319">
        <ele>57.6</ele>
        <time>1970-01-01T00:45:40.000Z</time>
      </trkpt>
      <trkpt lat="39.853184" lon="-8.79035">
        <ele>57.6</ele>
        <time>1970-01-01T00:45:41.000Z</time>
      </trkpt>
      <trkpt lat="39.853207" lon="-8.790376">
        <ele>57.5</ele>
        <time>1970-01-01T00:45:42.000Z</time>
      </trkpt>
      <trkpt lat="39.85323" lon="-8.790396">
        <ele>57.5</ele>
        <time>1970-01-01T00:45:43.000Z</time>
      </trkpt>
      <trkpt lat="39.853254" lon="-8.790412">
        <ele>57.5</ele>
        <time>1970-01-01T00:45:44.000Z</time>
      </trkpt>
      <trkpt lat="39.853278" lon="-8.790426">
        <ele>57.5</ele>
        <time>1970-01-01T00:45:45.000Z</time>
      </trkpt>
      <trkpt lat="39.853299" lon="-8.790442">
        <ele>57.6</ele>
        <time>1970-01-01T00:45:46.000Z</time>
      </trkpt>
      <trkpt lat="39.853319" lon="-8.79046">
        <ele>57.6</ele>
        <time>1970-01-01T00:45:47.000Z</time>
      </trkpt>
      <trkpt lat="39.853339" lon="-8.790481">
        <ele>57.7</ele>
        <time>1970-01-01T00:45:48.000Z</time>
      </trkpt>
      <trkpt lat="39.853361" lon="-8.790504">
        <ele>57.9</ele>
        <time>1970-01-01T00:45:49.000Z</time>
      </trkpt>
      <trkpt lat="39.853384" lon="-8.790524">
        <ele>57.8</ele>
        <time>1970-01-01T00:45:50.000Z</time>
      </trkpt>
      <trkpt lat="39.853409" lon="-8.790543">
        <ele>57.9</ele>
        <time>1970-01-01T00:45:51.000Z</time>
      </trkpt>
      <trkpt lat="39.853434" lon="-8.790561">
        <ele>58.2</ele>
        <time>1970-01-01T00:45:52.000Z</time>
      </trkpt>
      <trkpt lat="39.853462" lon="-8.790577">
        <ele>58.4</ele>
        <time>1970-01-01T00:45:53.000Z</time>
      </trkpt>
      <trkpt lat="39.853489" lon="-8.790592">
        <ele>58.6</ele>
        <time>1970-01-01T00:45:54.000Z</time>
      </trkpt>
      <trkpt lat="39.853515" lon="-8.79061">
        <ele>58.5</ele>
        <time>1970-01-01T00:45:55.000Z</time>
      </trkpt>
      <trkpt lat="39.853538" lon="-8.790632">
        <ele>58.7</ele>
        <time>1970-01-01T00:45:56.000Z</time>
      </trkpt>
      <trkpt lat="39.85356" lon="-8.790658">
        <ele>59</ele>
        <time>1970-01-01T00:45:57.000Z</time>
      </trkpt>
      <trkpt lat="39.853577" lon="-8.790695">
        <ele>58.9</ele>
        <time>1970-01-01T00:45:58.000Z</time>
      </trkpt>
      <trkpt lat="39.853592" lon="-8.790737">
        <ele>59.2</ele>
        <time>1970-01-01T00:45:59.000Z</time>
      </trkpt>
      <trkpt lat="39.853606" lon="-8.790782">
        <ele>59.1</ele>
        <time>1970-01-01T00:46:00.000Z</time>
      </trkpt>
      <trkpt lat="39.853619" lon="-8.790827">
        <ele>59.1</ele>
        <time>1970-01-01T00:46:01.000Z</time>
      </trkpt>
      <trkpt lat="39.853633" lon="-8.790868">
        <ele>59.3</ele>
        <time>1970-01-01T00:46:02.000Z</time>
      </trkpt>
      <trkpt lat="39.853648" lon="-8.790909">
        <ele>59.3</ele>
        <time>1970-01-01T00:46:03.000Z</time>
      </trkpt>
      <trkpt lat="39.85366" lon="-8.790951">
        <ele>59.5</ele>
        <time>1970-01-01T00:46:04.000Z</time>
      </trkpt>
      <trkpt lat="39.853675" lon="-8.790993">
        <ele>59.4</ele>
        <time>1970-01-01T00:46:05.000Z</time>
      </trkpt>
      <trkpt lat="39.853687" lon="-8.791037">
        <ele>59.6</ele>
        <time>1970-01-01T00:46:06.000Z</time>
      </trkpt>
      <trkpt lat="39.853698" lon="-8.79108">
        <ele>59.7</ele>
        <time>1970-01-01T00:46:07.000Z</time>
      </trkpt>
      <trkpt lat="39.853706" lon="-8.791126">
        <ele>59.7</ele>
        <time>1970-01-01T00:46:08.000Z</time>
      </trkpt>
      <trkpt lat="39.853715" lon="-8.79117">
        <ele>59.7</ele>
        <time>1970-01-01T00:46:09.000Z</time>
      </trkpt>
      <trkpt lat="39.853724" lon="-8.791209">
        <ele>59.9</ele>
        <time>1970-01-01T00:46:10.000Z</time>
      </trkpt>
      <trkpt lat="39.853737" lon="-8.791243">
        <ele>59.9</ele>
        <time>1970-01-01T00:46:11.000Z</time>
      </trkpt>
      <trkpt lat="39.853755" lon="-8.791276">
        <ele>60.1</ele>
        <time>1970-01-01T00:46:12.000Z</time>
      </trkpt>
      <trkpt lat="39.853772" lon="-8.791309">
        <ele>60.2</ele>
        <time>1970-01-01T00:46:13.000Z</time>
      </trkpt>
      <trkpt lat="39.853789" lon="-8.791343">
        <ele>60.4</ele>
        <time>1970-01-01T00:46:14.000Z</time>
      </trkpt>
      <trkpt lat="39.853803" lon="-8.791376">
        <ele>60.4</ele>
        <time>1970-01-01T00:46:15.000Z</time>
      </trkpt>
      <trkpt lat="39.853816" lon="-8.791406">
        <ele>60.5</ele>
        <time>1970-01-01T00:46:16.000Z</time>
      </trkpt>
      <trkpt lat="39.853828" lon="-8.791432">
        <ele>60.6</ele>
        <time>1970-01-01T00:46:17.000Z</time>
      </trkpt>
      <trkpt lat="39.85384" lon="-8.791455">
        <ele>60.6</ele>
        <time>1970-01-01T00:46:18.000Z</time>
      </trkpt>
      <trkpt lat="39.853856" lon="-8.791478">
        <ele>60.7</ele>
        <time>1970-01-01T00:46:19.000Z</time>
      </trkpt>
      <trkpt lat="39.853873" lon="-8.791503">
        <ele>60.7</ele>
        <time>1970-01-01T00:46:20.000Z</time>
      </trkpt>
      <trkpt lat="39.853892" lon="-8.791529">
        <ele>60.7</ele>
        <time>1970-01-01T00:46:21.000Z</time>
      </trkpt>
      <trkpt lat="39.853914" lon="-8.791557">
        <ele>60.7</ele>
        <time>1970-01-01T00:46:22.000Z</time>
      </trkpt>
      <trkpt lat="39.853939" lon="-8.791586">
        <ele>60.7</ele>
        <time>1970-01-01T00:46:23.000Z</time>
      </trkpt>
      <trkpt lat="39.853967" lon="-8.791614">
        <ele>60.7</ele>
        <time>1970-01-01T00:46:24.000Z</time>
      </trkpt>
      <trkpt lat="39.853996" lon="-8.791639">
        <ele>60.6</ele>
        <time>1970-01-01T00:46:25.000Z</time>
      </trkpt>
      <trkpt lat="39.854027" lon="-8.791661">
        <ele>60.6</ele>
        <time>1970-01-01T00:46:26.000Z</time>
      </trkpt>
      <trkpt lat="39.854058" lon="-8.791679">
        <ele>60.7</ele>
        <time>1970-01-01T00:46:27.000Z</time>
      </trkpt>
      <trkpt lat="39.85409" lon="-8.791695">
        <ele>60.7</ele>
        <time>1970-01-01T00:46:28.000Z</time>
      </trkpt>
      <trkpt lat="39.854123" lon="-8.791712">
        <ele>60.7</ele>
        <time>1970-01-01T00:46:29.000Z</time>
      </trkpt>
      <trkpt lat="39.854155" lon="-8.79173">
        <ele>60.7</ele>
        <time>1970-01-01T00:46:30.000Z</time>
      </trkpt>
      <trkpt lat="39.854187" lon="-8.791749">
        <ele>60.7</ele>
        <time>1970-01-01T00:46:31.000Z</time>
      </trkpt>
      <trkpt lat="39.854219" lon="-8.791765">
        <ele>60.6</ele>
        <time>1970-01-01T00:46:32.000Z</time>
      </trkpt>
      <trkpt lat="39.85425" lon="-8.791781">
        <ele>60.5</ele>
        <time>1970-01-01T00:46:33.000Z</time>
      </trkpt>
      <trkpt lat="39.85428" lon="-8.7918">
        <ele>60.5</ele>
        <time>1970-01-01T00:46:34.000Z</time>
      </trkpt>
      <trkpt lat="39.854307" lon="-8.791823">
        <ele>60.4</ele>
        <time>1970-01-01T00:46:35.000Z</time>
      </trkpt>
      <trkpt lat="39.854332" lon="-8.791847">
        <ele>60.3</ele>
        <time>1970-01-01T00:46:36.000Z</time>
      </trkpt>
      <trkpt lat="39.854357" lon="-8.791869">
        <ele>60</ele>
        <time>1970-01-01T00:46:37.000Z</time>
      </trkpt>
      <trkpt lat="39.854382" lon="-8.79189">
        <ele>59.9</ele>
        <time>1970-01-01T00:46:38.000Z</time>
      </trkpt>
      <trkpt lat="39.854409" lon="-8.791911">
        <ele>59.7</ele>
        <time>1970-01-01T00:46:39.000Z</time>
      </trkpt>
      <trkpt lat="39.854437" lon="-8.79193">
        <ele>59.6</ele>
        <time>1970-01-01T00:46:40.000Z</time>
      </trkpt>
      <trkpt lat="39.854461" lon="-8.79195">
        <ele>59.2</ele>
        <time>1970-01-01T00:46:41.000Z</time>
      </trkpt>
      <trkpt lat="39.854482" lon="-8.79197">
        <ele>59.1</ele>
        <time>1970-01-01T00:46:42.000Z</time>
      </trkpt>
      <trkpt lat="39.854502" lon="-8.79199">
        <ele>58.8</ele>
        <time>1970-01-01T00:46:43.000Z</time>
      </trkpt>
      <trkpt lat="39.854523" lon="-8.79201">
        <ele>58.7</ele>
        <time>1970-01-01T00:46:44.000Z</time>
      </trkpt>
      <trkpt lat="39.854544" lon="-8.792032">
        <ele>58.4</ele>
        <time>1970-01-01T00:46:45.000Z</time>
      </trkpt>
      <trkpt lat="39.854563" lon="-8.792055">
        <ele>58.4</ele>
        <time>1970-01-01T00:46:46.000Z</time>
      </trkpt>
      <trkpt lat="39.854579" lon="-8.79208">
        <ele>58.2</ele>
        <time>1970-01-01T00:46:47.000Z</time>
      </trkpt>
      <trkpt lat="39.854593" lon="-8.792104">
        <ele>58.2</ele>
        <time>1970-01-01T00:46:48.000Z</time>
      </trkpt>
      <trkpt lat="39.854603" lon="-8.792133">
        <ele>57.9</ele>
        <time>1970-01-01T00:46:49.000Z</time>
      </trkpt>
      <trkpt lat="39.85461" lon="-8.792161">
        <ele>57.8</ele>
        <time>1970-01-01T00:46:50.000Z</time>
      </trkpt>
      <trkpt lat="39.854617" lon="-8.792187">
        <ele>57.8</ele>
        <time>1970-01-01T00:46:51.000Z</time>
      </trkpt>
      <trkpt lat="39.854627" lon="-8.79221">
        <ele>57.5</ele>
        <time>1970-01-01T00:46:52.000Z</time>
      </trkpt>
      <trkpt lat="39.854639" lon="-8.792232">
        <ele>57.5</ele>
        <time>1970-01-01T00:46:53.000Z</time>
      </trkpt>
      <trkpt lat="39.85465" lon="-8.792264">
        <ele>57.5</ele>
        <time>1970-01-01T00:46:54.000Z</time>
      </trkpt>
      <trkpt lat="39.854661" lon="-8.792299">
        <ele>57.3</ele>
        <time>1970-01-01T00:46:55.000Z</time>
      </trkpt>
      <trkpt lat="39.85467" lon="-8.792339">
        <ele>57.1</ele>
        <time>1970-01-01T00:46:56.000Z</time>
      </trkpt>
      <trkpt lat="39.854679" lon="-8.79238">
        <ele>57</ele>
        <time>1970-01-01T00:46:57.000Z</time>
      </trkpt>
      <trkpt lat="39.854688" lon="-8.792422">
        <ele>56.8</ele>
        <time>1970-01-01T00:46:58.000Z</time>
      </trkpt>
      <trkpt lat="39.854696" lon="-8.792466">
        <ele>56.5</ele>
        <time>1970-01-01T00:46:59.000Z</time>
      </trkpt>
      <trkpt lat="39.854704" lon="-8.792513">
        <ele>56.3</ele>
        <time>1970-01-01T00:47:00.000Z</time>
      </trkpt>
      <trkpt lat="39.854711" lon="-8.792559">
        <ele>56.1</ele>
        <time>1970-01-01T00:47:01.000Z</time>
      </trkpt>
      <trkpt lat="39.854719" lon="-8.792607">
        <ele>55.9</ele>
        <time>1970-01-01T00:47:02.000Z</time>
      </trkpt>
      <trkpt lat="39.854726" lon="-8.792657">
        <ele>55.7</ele>
        <time>1970-01-01T00:47:03.000Z</time>
      </trkpt>
      <trkpt lat="39.854731" lon="-8.792708">
        <ele>55.5</ele>
        <time>1970-01-01T00:47:04.000Z</time>
      </trkpt>
      <trkpt lat="39.854733" lon="-8.792757">
        <ele>55.3</ele>
        <time>1970-01-01T00:47:05.000Z</time>
      </trkpt>
      <trkpt lat="39.854734" lon="-8.792807">
        <ele>55.2</ele>
        <time>1970-01-01T00:47:06.000Z</time>
      </trkpt>
      <trkpt lat="39.854733" lon="-8.792857">
        <ele>55.1</ele>
        <time>1970-01-01T00:47:07.000Z</time>
      </trkpt>
      <trkpt lat="39.854728" lon="-8.792907">
        <ele>55.1</ele>
        <time>1970-01-01T00:47:08.000Z</time>
      </trkpt>
      <trkpt lat="39.854724" lon="-8.792954">
        <ele>55.1</ele>
        <time>1970-01-01T00:47:09.000Z</time>
      </trkpt>
      <trkpt lat="39.854719" lon="-8.792997">
        <ele>55.1</ele>
        <time>1970-01-01T00:47:10.000Z</time>
      </trkpt>
      <trkpt lat="39.854715" lon="-8.793037">
        <ele>55.1</ele>
        <time>1970-01-01T00:47:11.000Z</time>
      </trkpt>
      <trkpt lat="39.85471" lon="-8.793075">
        <ele>55.2</ele>
        <time>1970-01-01T00:47:12.000Z</time>
      </trkpt>
      <trkpt lat="39.854707" lon="-8.793111">
        <ele>55.2</ele>
        <time>1970-01-01T00:47:13.000Z</time>
      </trkpt>
      <trkpt lat="39.854708" lon="-8.793145">
        <ele>55.3</ele>
        <time>1970-01-01T00:47:14.000Z</time>
      </trkpt>
      <trkpt lat="39.85471" lon="-8.793178">
        <ele>55.3</ele>
        <time>1970-01-01T00:47:15.000Z</time>
      </trkpt>
      <trkpt lat="39.854714" lon="-8.793213">
        <ele>55.4</ele>
        <time>1970-01-01T00:47:16.000Z</time>
      </trkpt>
      <trkpt lat="39.85472" lon="-8.79325">
        <ele>55.5</ele>
        <time>1970-01-01T00:47:17.000Z</time>
      </trkpt>
      <trkpt lat="39.854725" lon="-8.793288">
        <ele>55.7</ele>
        <time>1970-01-01T00:47:18.000Z</time>
      </trkpt>
      <trkpt lat="39.854728" lon="-8.793327">
        <ele>55.8</ele>
        <time>1970-01-01T00:47:19.000Z</time>
      </trkpt>
      <trkpt lat="39.854731" lon="-8.793364">
        <ele>55.9</ele>
        <time>1970-01-01T00:47:20.000Z</time>
      </trkpt>
      <trkpt lat="39.854733" lon="-8.793398">
        <ele>56</ele>
        <time>1970-01-01T00:47:21.000Z</time>
      </trkpt>
      <trkpt lat="39.854731" lon="-8.79343">
        <ele>56</ele>
        <time>1970-01-01T00:47:22.000Z</time>
      </trkpt>
      <trkpt lat="39.854726" lon="-8.79346">
        <ele>56</ele>
        <time>1970-01-01T00:47:23.000Z</time>
      </trkpt>
      <trkpt lat="39.854719" lon="-8.793489">
        <ele>56.1</ele>
        <time>1970-01-01T00:47:24.000Z</time>
      </trkpt>
      <trkpt lat="39.854712" lon="-8.79352">
        <ele>56.1</ele>
        <time>1970-01-01T00:47:25.000Z</time>
      </trkpt>
      <trkpt lat="39.854704" lon="-8.793557">
        <ele>56.4</ele>
        <time>1970-01-01T00:47:26.000Z</time>
      </trkpt>
      <trkpt lat="39.854696" lon="-8.793597">
        <ele>56.5</ele>
        <time>1970-01-01T00:47:27.000Z</time>
      </trkpt>
      <trkpt lat="39.854692" lon="-8.793634">
        <ele>56.5</ele>
        <time>1970-01-01T00:47:28.000Z</time>
      </trkpt>
      <trkpt lat="39.854692" lon="-8.793666">
        <ele>56.5</ele>
        <time>1970-01-01T00:47:29.000Z</time>
      </trkpt>
      <trkpt lat="39.854694" lon="-8.793693">
        <ele>56.5</ele>
        <time>1970-01-01T00:47:30.000Z</time>
      </trkpt>
      <trkpt lat="39.854694" lon="-8.793718">
        <ele>56.5</ele>
        <time>1970-01-01T00:47:31.000Z</time>
      </trkpt>
      <trkpt lat="39.85469" lon="-8.793742">
        <ele>56.5</ele>
        <time>1970-01-01T00:47:32.000Z</time>
      </trkpt>
      <trkpt lat="39.854682" lon="-8.793765">
        <ele>56.5</ele>
        <time>1970-01-01T00:47:33.000Z</time>
      </trkpt>
      <trkpt lat="39.85467" lon="-8.79379">
        <ele>56.8</ele>
        <time>1970-01-01T00:47:34.000Z</time>
      </trkpt>
      <trkpt lat="39.854657" lon="-8.793816">
        <ele>56.8</ele>
        <time>1970-01-01T00:47:35.000Z</time>
      </trkpt>
      <trkpt lat="39.854644" lon="-8.793842">
        <ele>56.8</ele>
        <time>1970-01-01T00:47:36.000Z</time>
      </trkpt>
      <trkpt lat="39.854631" lon="-8.793869">
        <ele>57.2</ele>
        <time>1970-01-01T00:47:37.000Z</time>
      </trkpt>
      <trkpt lat="39.854617" lon="-8.793898">
        <ele>57.2</ele>
        <time>1970-01-01T00:47:38.000Z</time>
      </trkpt>
      <trkpt lat="39.854604" lon="-8.793927">
        <ele>57.5</ele>
        <time>1970-01-01T00:47:39.000Z</time>
      </trkpt>
      <trkpt lat="39.85459" lon="-8.793955">
        <ele>57.5</ele>
        <time>1970-01-01T00:47:40.000Z</time>
      </trkpt>
      <trkpt lat="39.854577" lon="-8.793982">
        <ele>57.5</ele>
        <time>1970-01-01T00:47:41.000Z</time>
      </trkpt>
      <trkpt lat="39.854566" lon="-8.79401">
        <ele>57.8</ele>
        <time>1970-01-01T00:47:42.000Z</time>
      </trkpt>
      <trkpt lat="39.854556" lon="-8.794037">
        <ele>57.8</ele>
        <time>1970-01-01T00:47:43.000Z</time>
      </trkpt>
      <trkpt lat="39.854545" lon="-8.794066">
        <ele>57.7</ele>
        <time>1970-01-01T00:47:44.000Z</time>
      </trkpt>
      <trkpt lat="39.854534" lon="-8.794093">
        <ele>57.9</ele>
        <time>1970-01-01T00:47:45.000Z</time>
      </trkpt>
      <trkpt lat="39.854522" lon="-8.794123">
        <ele>57.9</ele>
        <time>1970-01-01T00:47:46.000Z</time>
      </trkpt>
      <trkpt lat="39.85451" lon="-8.794154">
        <ele>57.8</ele>
        <time>1970-01-01T00:47:47.000Z</time>
      </trkpt>
      <trkpt lat="39.8545" lon="-8.794186">
        <ele>57.9</ele>
        <time>1970-01-01T00:47:48.000Z</time>
      </trkpt>
      <trkpt lat="39.85449" lon="-8.794219">
        <ele>57.8</ele>
        <time>1970-01-01T00:47:49.000Z</time>
      </trkpt>
      <trkpt lat="39.854481" lon="-8.794254">
        <ele>57.8</ele>
        <time>1970-01-01T00:47:50.000Z</time>
      </trkpt>
      <trkpt lat="39.854472" lon="-8.794293">
        <ele>57.9</ele>
        <time>1970-01-01T00:47:51.000Z</time>
      </trkpt>
      <trkpt lat="39.854464" lon="-8.794332">
        <ele>57.7</ele>
        <time>1970-01-01T00:47:52.000Z</time>
      </trkpt>
      <trkpt lat="39.854459" lon="-8.794372">
        <ele>57.6</ele>
        <time>1970-01-01T00:47:53.000Z</time>
      </trkpt>
      <trkpt lat="39.854454" lon="-8.794412">
        <ele>57.5</ele>
        <time>1970-01-01T00:47:54.000Z</time>
      </trkpt>
      <trkpt lat="39.854447" lon="-8.794454">
        <ele>57.3</ele>
        <time>1970-01-01T00:47:55.000Z</time>
      </trkpt>
      <trkpt lat="39.854441" lon="-8.794499">
        <ele>57.4</ele>
        <time>1970-01-01T00:47:56.000Z</time>
      </trkpt>
      <trkpt lat="39.854434" lon="-8.794543">
        <ele>57.2</ele>
        <time>1970-01-01T00:47:57.000Z</time>
      </trkpt>
      <trkpt lat="39.85443" lon="-8.794585">
        <ele>57</ele>
        <time>1970-01-01T00:47:58.000Z</time>
      </trkpt>
      <trkpt lat="39.854429" lon="-8.794624">
        <ele>56.8</ele>
        <time>1970-01-01T00:47:59.000Z</time>
      </trkpt>
      <trkpt lat="39.854429" lon="-8.79466">
        <ele>56.5</ele>
        <time>1970-01-01T00:48:00.000Z</time>
      </trkpt>
      <trkpt lat="39.854432" lon="-8.794695">
        <ele>56.2</ele>
        <time>1970-01-01T00:48:01.000Z</time>
      </trkpt>
      <trkpt lat="39.854436" lon="-8.794728">
        <ele>56</ele>
        <time>1970-01-01T00:48:02.000Z</time>
      </trkpt>
      <trkpt lat="39.854442" lon="-8.794758">
        <ele>56</ele>
        <time>1970-01-01T00:48:03.000Z</time>
      </trkpt>
      <trkpt lat="39.854448" lon="-8.794789">
        <ele>55.4</ele>
        <time>1970-01-01T00:48:04.000Z</time>
      </trkpt>
      <trkpt lat="39.854456" lon="-8.794823">
        <ele>55.2</ele>
        <time>1970-01-01T00:48:05.000Z</time>
      </trkpt>
      <trkpt lat="39.854461" lon="-8.794858">
        <ele>55</ele>
        <time>1970-01-01T00:48:06.000Z</time>
      </trkpt>
      <trkpt lat="39.854466" lon="-8.794895">
        <ele>55</ele>
        <time>1970-01-01T00:48:07.000Z</time>
      </trkpt>
      <trkpt lat="39.854471" lon="-8.794932">
        <ele>54.8</ele>
        <time>1970-01-01T00:48:08.000Z</time>
      </trkpt>
      <trkpt lat="39.854477" lon="-8.794968">
        <ele>54.4</ele>
        <time>1970-01-01T00:48:09.000Z</time>
      </trkpt>
      <trkpt lat="39.854483" lon="-8.795">
        <ele>54.3</ele>
        <time>1970-01-01T00:48:10.000Z</time>
      </trkpt>
      <trkpt lat="39.85449" lon="-8.795031">
        <ele>54.2</ele>
        <time>1970-01-01T00:48:11.000Z</time>
      </trkpt>
      <trkpt lat="39.854499" lon="-8.795059">
        <ele>54.2</ele>
        <time>1970-01-01T00:48:12.000Z</time>
      </trkpt>
      <trkpt lat="39.854512" lon="-8.795083">
        <ele>53.9</ele>
        <time>1970-01-01T00:48:13.000Z</time>
      </trkpt>
      <trkpt lat="39.854529" lon="-8.795104">
        <ele>53.9</ele>
        <time>1970-01-01T00:48:14.000Z</time>
      </trkpt>
      <trkpt lat="39.854548" lon="-8.79512">
        <ele>53.7</ele>
        <time>1970-01-01T00:48:15.000Z</time>
      </trkpt>
      <trkpt lat="39.854569" lon="-8.795134">
        <ele>53.7</ele>
        <time>1970-01-01T00:48:16.000Z</time>
      </trkpt>
      <trkpt lat="39.854592" lon="-8.795149">
        <ele>53.7</ele>
        <time>1970-01-01T00:48:17.000Z</time>
      </trkpt>
      <trkpt lat="39.854614" lon="-8.795171">
        <ele>53.5</ele>
        <time>1970-01-01T00:48:18.000Z</time>
      </trkpt>
      <trkpt lat="39.854637" lon="-8.795196">
        <ele>53.5</ele>
        <time>1970-01-01T00:48:19.000Z</time>
      </trkpt>
      <trkpt lat="39.854659" lon="-8.795226">
        <ele>53.3</ele>
        <time>1970-01-01T00:48:20.000Z</time>
      </trkpt>
      <trkpt lat="39.854679" lon="-8.795259">
        <ele>53.1</ele>
        <time>1970-01-01T00:48:21.000Z</time>
      </trkpt>
      <trkpt lat="39.854696" lon="-8.795294">
        <ele>53</ele>
        <time>1970-01-01T00:48:22.000Z</time>
      </trkpt>
      <trkpt lat="39.854714" lon="-8.79533">
        <ele>52.9</ele>
        <time>1970-01-01T00:48:23.000Z</time>
      </trkpt>
      <trkpt lat="39.854732" lon="-8.795368">
        <ele>52.9</ele>
        <time>1970-01-01T00:48:24.000Z</time>
      </trkpt>
      <trkpt lat="39.854749" lon="-8.795407">
        <ele>52.7</ele>
        <time>1970-01-01T00:48:25.000Z</time>
      </trkpt>
      <trkpt lat="39.854766" lon="-8.795447">
        <ele>52.6</ele>
        <time>1970-01-01T00:48:26.000Z</time>
      </trkpt>
      <trkpt lat="39.854785" lon="-8.795486">
        <ele>52.5</ele>
        <time>1970-01-01T00:48:27.000Z</time>
      </trkpt>
      <trkpt lat="39.854804" lon="-8.795522">
        <ele>52.4</ele>
        <time>1970-01-01T00:48:28.000Z</time>
      </trkpt>
      <trkpt lat="39.854823" lon="-8.795555">
        <ele>52.3</ele>
        <time>1970-01-01T00:48:29.000Z</time>
      </trkpt>
      <trkpt lat="39.85484" lon="-8.795586">
        <ele>52.2</ele>
        <time>1970-01-01T00:48:30.000Z</time>
      </trkpt>
      <trkpt lat="39.854857" lon="-8.795616">
        <ele>52.2</ele>
        <time>1970-01-01T00:48:31.000Z</time>
      </trkpt>
      <trkpt lat="39.854874" lon="-8.795648">
        <ele>52.1</ele>
        <time>1970-01-01T00:48:32.000Z</time>
      </trkpt>
      <trkpt lat="39.85489" lon="-8.795682">
        <ele>52</ele>
        <time>1970-01-01T00:48:33.000Z</time>
      </trkpt>
      <trkpt lat="39.854906" lon="-8.795716">
        <ele>51.9</ele>
        <time>1970-01-01T00:48:34.000Z</time>
      </trkpt>
      <trkpt lat="39.854924" lon="-8.795754">
        <ele>51.9</ele>
        <time>1970-01-01T00:48:35.000Z</time>
      </trkpt>
      <trkpt lat="39.854939" lon="-8.795794">
        <ele>51.8</ele>
        <time>1970-01-01T00:48:36.000Z</time>
      </trkpt>
      <trkpt lat="39.854955" lon="-8.795835">
        <ele>51.7</ele>
        <time>1970-01-01T00:48:37.000Z</time>
      </trkpt>
      <trkpt lat="39.85497" lon="-8.795877">
        <ele>51.6</ele>
        <time>1970-01-01T00:48:38.000Z</time>
      </trkpt>
      <trkpt lat="39.854985" lon="-8.795916">
        <ele>51.5</ele>
        <time>1970-01-01T00:48:39.000Z</time>
      </trkpt>
      <trkpt lat="39.855002" lon="-8.795953">
        <ele>51.5</ele>
        <time>1970-01-01T00:48:40.000Z</time>
      </trkpt>
      <trkpt lat="39.855021" lon="-8.795988">
        <ele>51.4</ele>
        <time>1970-01-01T00:48:41.000Z</time>
      </trkpt>
      <trkpt lat="39.85504" lon="-8.796023">
        <ele>51.4</ele>
        <time>1970-01-01T00:48:42.000Z</time>
      </trkpt>
      <trkpt lat="39.855057" lon="-8.796058">
        <ele>51.3</ele>
        <time>1970-01-01T00:48:43.000Z</time>
      </trkpt>
      <trkpt lat="39.855069" lon="-8.796096">
        <ele>51.3</ele>
        <time>1970-01-01T00:48:44.000Z</time>
      </trkpt>
      <trkpt lat="39.855076" lon="-8.796137">
        <ele>51.3</ele>
        <time>1970-01-01T00:48:45.000Z</time>
      </trkpt>
      <trkpt lat="39.85508" lon="-8.796181">
        <ele>51.2</ele>
        <time>1970-01-01T00:48:46.000Z</time>
      </trkpt>
      <trkpt lat="39.855085" lon="-8.796226">
        <ele>51.1</ele>
        <time>1970-01-01T00:48:47.000Z</time>
      </trkpt>
      <trkpt lat="39.855092" lon="-8.796274">
        <ele>51</ele>
        <time>1970-01-01T00:48:48.000Z</time>
      </trkpt>
      <trkpt lat="39.855098" lon="-8.796321">
        <ele>50.9</ele>
        <time>1970-01-01T00:48:49.000Z</time>
      </trkpt>
      <trkpt lat="39.855102" lon="-8.79637">
        <ele>50.9</ele>
        <time>1970-01-01T00:48:50.000Z</time>
      </trkpt>
      <trkpt lat="39.855103" lon="-8.796419">
        <ele>50.9</ele>
        <time>1970-01-01T00:48:51.000Z</time>
      </trkpt>
      <trkpt lat="39.8551" lon="-8.796465">
        <ele>50.7</ele>
        <time>1970-01-01T00:48:52.000Z</time>
      </trkpt>
      <trkpt lat="39.855097" lon="-8.796509">
        <ele>50.7</ele>
        <time>1970-01-01T00:48:53.000Z</time>
      </trkpt>
      <trkpt lat="39.855095" lon="-8.796546">
        <ele>50.6</ele>
        <time>1970-01-01T00:48:54.000Z</time>
      </trkpt>
      <trkpt lat="39.855095" lon="-8.796578">
        <ele>50.6</ele>
        <time>1970-01-01T00:48:55.000Z</time>
      </trkpt>
      <trkpt lat="39.855096" lon="-8.796609">
        <ele>50.6</ele>
        <time>1970-01-01T00:48:56.000Z</time>
      </trkpt>
      <trkpt lat="39.855098" lon="-8.796638">
        <ele>50.6</ele>
        <time>1970-01-01T00:48:57.000Z</time>
      </trkpt>
      <trkpt lat="39.855101" lon="-8.796667">
        <ele>50.6</ele>
        <time>1970-01-01T00:48:58.000Z</time>
      </trkpt>
      <trkpt lat="39.855107" lon="-8.796698">
        <ele>50.6</ele>
        <time>1970-01-01T00:48:59.000Z</time>
      </trkpt>
      <trkpt lat="39.855117" lon="-8.796732">
        <ele>50.6</ele>
        <time>1970-01-01T00:49:00.000Z</time>
      </trkpt>
      <trkpt lat="39.855129" lon="-8.796769">
        <ele>50.6</ele>
        <time>1970-01-01T00:49:01.000Z</time>
      </trkpt>
      <trkpt lat="39.855142" lon="-8.796808">
        <ele>50.7</ele>
        <time>1970-01-01T00:49:02.000Z</time>
      </trkpt>
      <trkpt lat="39.855156" lon="-8.796846">
        <ele>50.7</ele>
        <time>1970-01-01T00:49:03.000Z</time>
      </trkpt>
      <trkpt lat="39.855172" lon="-8.796881">
        <ele>50.8</ele>
        <time>1970-01-01T00:49:04.000Z</time>
      </trkpt>
      <trkpt lat="39.855189" lon="-8.796914">
        <ele>50.8</ele>
        <time>1970-01-01T00:49:05.000Z</time>
      </trkpt>
      <trkpt lat="39.855205" lon="-8.796947">
        <ele>50.8</ele>
        <time>1970-01-01T00:49:06.000Z</time>
      </trkpt>
      <trkpt lat="39.85522" lon="-8.796981">
        <ele>50.8</ele>
        <time>1970-01-01T00:49:07.000Z</time>
      </trkpt>
      <trkpt lat="39.855234" lon="-8.797017">
        <ele>50.7</ele>
        <time>1970-01-01T00:49:08.000Z</time>
      </trkpt>
      <trkpt lat="39.855248" lon="-8.797055">
        <ele>50.8</ele>
        <time>1970-01-01T00:49:09.000Z</time>
      </trkpt>
      <trkpt lat="39.85526" lon="-8.797092">
        <ele>50.7</ele>
        <time>1970-01-01T00:49:10.000Z</time>
      </trkpt>
      <trkpt lat="39.85527" lon="-8.797128">
        <ele>50.8</ele>
        <time>1970-01-01T00:49:11.000Z</time>
      </trkpt>
      <trkpt lat="39.855281" lon="-8.797159">
        <ele>50.7</ele>
        <time>1970-01-01T00:49:12.000Z</time>
      </trkpt>
      <trkpt lat="39.855295" lon="-8.797188">
        <ele>50.7</ele>
        <time>1970-01-01T00:49:13.000Z</time>
      </trkpt>
      <trkpt lat="39.855312" lon="-8.797217">
        <ele>50.7</ele>
        <time>1970-01-01T00:49:14.000Z</time>
      </trkpt>
      <trkpt lat="39.85533" lon="-8.797248">
        <ele>50.7</ele>
        <time>1970-01-01T00:49:15.000Z</time>
      </trkpt>
      <trkpt lat="39.855347" lon="-8.79728">
        <ele>50.7</ele>
        <time>1970-01-01T00:49:16.000Z</time>
      </trkpt>
      <trkpt lat="39.855363" lon="-8.797314">
        <ele>50.7</ele>
        <time>1970-01-01T00:49:17.000Z</time>
      </trkpt>
      <trkpt lat="39.855378" lon="-8.797347">
        <ele>50.7</ele>
        <time>1970-01-01T00:49:18.000Z</time>
      </trkpt>
      <trkpt lat="39.855396" lon="-8.797377">
        <ele>50.7</ele>
        <time>1970-01-01T00:49:19.000Z</time>
      </trkpt>
      <trkpt lat="39.855419" lon="-8.797404">
        <ele>50.7</ele>
        <time>1970-01-01T00:49:20.000Z</time>
      </trkpt>
      <trkpt lat="39.855442" lon="-8.797431">
        <ele>50.6</ele>
        <time>1970-01-01T00:49:21.000Z</time>
      </trkpt>
      <trkpt lat="39.855463" lon="-8.797459">
        <ele>50.6</ele>
        <time>1970-01-01T00:49:22.000Z</time>
      </trkpt>
      <trkpt lat="39.855481" lon="-8.797489">
        <ele>50.6</ele>
        <time>1970-01-01T00:49:23.000Z</time>
      </trkpt>
      <trkpt lat="39.855497" lon="-8.79752">
        <ele>50.5</ele>
        <time>1970-01-01T00:49:24.000Z</time>
      </trkpt>
      <trkpt lat="39.855511" lon="-8.797552">
        <ele>50.5</ele>
        <time>1970-01-01T00:49:25.000Z</time>
      </trkpt>
      <trkpt lat="39.855523" lon="-8.797586">
        <ele>50.4</ele>
        <time>1970-01-01T00:49:26.000Z</time>
      </trkpt>
      <trkpt lat="39.855532" lon="-8.797622">
        <ele>50.4</ele>
        <time>1970-01-01T00:49:27.000Z</time>
      </trkpt>
      <trkpt lat="39.85554" lon="-8.797663">
        <ele>50.3</ele>
        <time>1970-01-01T00:49:28.000Z</time>
      </trkpt>
      <trkpt lat="39.85555" lon="-8.797704">
        <ele>50.3</ele>
        <time>1970-01-01T00:49:29.000Z</time>
      </trkpt>
      <trkpt lat="39.855561" lon="-8.797743">
        <ele>50.2</ele>
        <time>1970-01-01T00:49:30.000Z</time>
      </trkpt>
      <trkpt lat="39.855573" lon="-8.797779">
        <ele>50.2</ele>
        <time>1970-01-01T00:49:31.000Z</time>
      </trkpt>
      <trkpt lat="39.855586" lon="-8.797815">
        <ele>50.2</ele>
        <time>1970-01-01T00:49:32.000Z</time>
      </trkpt>
      <trkpt lat="39.855601" lon="-8.797855">
        <ele>50.1</ele>
        <time>1970-01-01T00:49:33.000Z</time>
      </trkpt>
      <trkpt lat="39.855616" lon="-8.797893">
        <ele>50.1</ele>
        <time>1970-01-01T00:49:34.000Z</time>
      </trkpt>
      <trkpt lat="39.85563" lon="-8.797928">
        <ele>50</ele>
        <time>1970-01-01T00:49:35.000Z</time>
      </trkpt>
      <trkpt lat="39.855644" lon="-8.79796">
        <ele>49.9</ele>
        <time>1970-01-01T00:49:36.000Z</time>
      </trkpt>
      <trkpt lat="39.85566" lon="-8.797993">
        <ele>49.9</ele>
        <time>1970-01-01T00:49:37.000Z</time>
      </trkpt>
      <trkpt lat="39.855677" lon="-8.798023">
        <ele>49.8</ele>
        <time>1970-01-01T00:49:38.000Z</time>
      </trkpt>
      <trkpt lat="39.855694" lon="-8.798053">
        <ele>49.8</ele>
        <time>1970-01-01T00:49:39.000Z</time>
      </trkpt>
      <trkpt lat="39.855714" lon="-8.798081">
        <ele>49.7</ele>
        <time>1970-01-01T00:49:40.000Z</time>
      </trkpt>
      <trkpt lat="39.855734" lon="-8.798109">
        <ele>49.6</ele>
        <time>1970-01-01T00:49:41.000Z</time>
      </trkpt>
      <trkpt lat="39.855754" lon="-8.798137">
        <ele>49.6</ele>
        <time>1970-01-01T00:49:42.000Z</time>
      </trkpt>
      <trkpt lat="39.855773" lon="-8.798165">
        <ele>49.5</ele>
        <time>1970-01-01T00:49:43.000Z</time>
      </trkpt>
      <trkpt lat="39.855793" lon="-8.798194">
        <ele>49.5</ele>
        <time>1970-01-01T00:49:44.000Z</time>
      </trkpt>
      <trkpt lat="39.855811" lon="-8.798224">
        <ele>49.4</ele>
        <time>1970-01-01T00:49:45.000Z</time>
      </trkpt>
      <trkpt lat="39.855828" lon="-8.798257">
        <ele>49.2</ele>
        <time>1970-01-01T00:49:46.000Z</time>
      </trkpt>
      <trkpt lat="39.855849" lon="-8.798292">
        <ele>49.1</ele>
        <time>1970-01-01T00:49:47.000Z</time>
      </trkpt>
      <trkpt lat="39.855872" lon="-8.79833">
        <ele>49.1</ele>
        <time>1970-01-01T00:49:48.000Z</time>
      </trkpt>
      <trkpt lat="39.855897" lon="-8.798371">
        <ele>49</ele>
        <time>1970-01-01T00:49:49.000Z</time>
      </trkpt>
      <trkpt lat="39.855918" lon="-8.798413">
        <ele>48.9</ele>
        <time>1970-01-01T00:49:50.000Z</time>
      </trkpt>
      <trkpt lat="39.855933" lon="-8.798453">
        <ele>48.8</ele>
        <time>1970-01-01T00:49:51.000Z</time>
      </trkpt>
      <trkpt lat="39.855946" lon="-8.798493">
        <ele>48.6</ele>
        <time>1970-01-01T00:49:52.000Z</time>
      </trkpt>
      <trkpt lat="39.855956" lon="-8.798532">
        <ele>48.5</ele>
        <time>1970-01-01T00:49:53.000Z</time>
      </trkpt>
      <trkpt lat="39.855965" lon="-8.798571">
        <ele>48.4</ele>
        <time>1970-01-01T00:49:54.000Z</time>
      </trkpt>
      <trkpt lat="39.855971" lon="-8.798608">
        <ele>48.2</ele>
        <time>1970-01-01T00:49:55.000Z</time>
      </trkpt>
      <trkpt lat="39.855978" lon="-8.798644">
        <ele>48.1</ele>
        <time>1970-01-01T00:49:56.000Z</time>
      </trkpt>
      <trkpt lat="39.855986" lon="-8.798681">
        <ele>48</ele>
        <time>1970-01-01T00:49:57.000Z</time>
      </trkpt>
      <trkpt lat="39.855995" lon="-8.798715">
        <ele>48</ele>
        <time>1970-01-01T00:49:58.000Z</time>
      </trkpt>
      <trkpt lat="39.856006" lon="-8.798748">
        <ele>47.9</ele>
        <time>1970-01-01T00:49:59.000Z</time>
      </trkpt>
      <trkpt lat="39.856018" lon="-8.798779">
        <ele>47.7</ele>
        <time>1970-01-01T00:50:00.000Z</time>
      </trkpt>
      <trkpt lat="39.856027" lon="-8.798812">
        <ele>47.6</ele>
        <time>1970-01-01T00:50:01.000Z</time>
      </trkpt>
      <trkpt lat="39.856036" lon="-8.798847">
        <ele>47.6</ele>
        <time>1970-01-01T00:50:02.000Z</time>
      </trkpt>
      <trkpt lat="39.856044" lon="-8.798889">
        <ele>47.5</ele>
        <time>1970-01-01T00:50:03.000Z</time>
      </trkpt>
      <trkpt lat="39.856049" lon="-8.798933">
        <ele>47.4</ele>
        <time>1970-01-01T00:50:04.000Z</time>
      </trkpt>
      <trkpt lat="39.856056" lon="-8.798981">
        <ele>47.3</ele>
        <time>1970-01-01T00:50:05.000Z</time>
      </trkpt>
      <trkpt lat="39.856061" lon="-8.799031">
        <ele>47.3</ele>
        <time>1970-01-01T00:50:06.000Z</time>
      </trkpt>
      <trkpt lat="39.856064" lon="-8.799081">
        <ele>47.2</ele>
        <time>1970-01-01T00:50:07.000Z</time>
      </trkpt>
      <trkpt lat="39.856069" lon="-8.799133">
        <ele>47.3</ele>
        <time>1970-01-01T00:50:08.000Z</time>
      </trkpt>
      <trkpt lat="39.856068" lon="-8.799184">
        <ele>47.3</ele>
        <time>1970-01-01T00:50:09.000Z</time>
      </trkpt>
      <trkpt lat="39.856063" lon="-8.799234">
        <ele>47.4</ele>
        <time>1970-01-01T00:50:10.000Z</time>
      </trkpt>
      <trkpt lat="39.856058" lon="-8.799281">
        <ele>47.5</ele>
        <time>1970-01-01T00:50:11.000Z</time>
      </trkpt>
      <trkpt lat="39.856055" lon="-8.799326">
        <ele>47.6</ele>
        <time>1970-01-01T00:50:12.000Z</time>
      </trkpt>
      <trkpt lat="39.856054" lon="-8.799366">
        <ele>47.6</ele>
        <time>1970-01-01T00:50:13.000Z</time>
      </trkpt>
      <trkpt lat="39.856055" lon="-8.799405">
        <ele>47.6</ele>
        <time>1970-01-01T00:50:14.000Z</time>
      </trkpt>
      <trkpt lat="39.856058" lon="-8.799445">
        <ele>47.7</ele>
        <time>1970-01-01T00:50:15.000Z</time>
      </trkpt>
      <trkpt lat="39.856062" lon="-8.799478">
        <ele>47.6</ele>
        <time>1970-01-01T00:50:16.000Z</time>
      </trkpt>
      <trkpt lat="39.856066" lon="-8.799507">
        <ele>47.6</ele>
        <time>1970-01-01T00:50:17.000Z</time>
      </trkpt>
      <trkpt lat="39.856074" lon="-8.799537">
        <ele>47.7</ele>
        <time>1970-01-01T00:50:18.000Z</time>
      </trkpt>
      <trkpt lat="39.856085" lon="-8.799565">
        <ele>47.7</ele>
        <time>1970-01-01T00:50:19.000Z</time>
      </trkpt>
      <trkpt lat="39.856098" lon="-8.799593">
        <ele>47.5</ele>
        <time>1970-01-01T00:50:20.000Z</time>
      </trkpt>
      <trkpt lat="39.856115" lon="-8.79962">
        <ele>47.6</ele>
        <time>1970-01-01T00:50:21.000Z</time>
      </trkpt>
      <trkpt lat="39.856135" lon="-8.799649">
        <ele>47.4</ele>
        <time>1970-01-01T00:50:22.000Z</time>
      </trkpt>
      <trkpt lat="39.856154" lon="-8.799681">
        <ele>47.5</ele>
        <time>1970-01-01T00:50:23.000Z</time>
      </trkpt>
      <trkpt lat="39.856171" lon="-8.799715">
        <ele>47.4</ele>
        <time>1970-01-01T00:50:24.000Z</time>
      </trkpt>
      <trkpt lat="39.856188" lon="-8.799749">
        <ele>47.4</ele>
        <time>1970-01-01T00:50:25.000Z</time>
      </trkpt>
      <trkpt lat="39.856203" lon="-8.799784">
        <ele>47.2</ele>
        <time>1970-01-01T00:50:26.000Z</time>
      </trkpt>
      <trkpt lat="39.856217" lon="-8.799817">
        <ele>47.3</ele>
        <time>1970-01-01T00:50:27.000Z</time>
      </trkpt>
      <trkpt lat="39.85623" lon="-8.79985">
        <ele>47.1</ele>
        <time>1970-01-01T00:50:28.000Z</time>
      </trkpt>
      <trkpt lat="39.856242" lon="-8.799887">
        <ele>47.1</ele>
        <time>1970-01-01T00:50:29.000Z</time>
      </trkpt>
      <trkpt lat="39.856254" lon="-8.799926">
        <ele>47.1</ele>
        <time>1970-01-01T00:50:30.000Z</time>
      </trkpt>
      <trkpt lat="39.856267" lon="-8.799966">
        <ele>47</ele>
        <time>1970-01-01T00:50:31.000Z</time>
      </trkpt>
      <trkpt lat="39.856287" lon="-8.800009">
        <ele>47</ele>
        <time>1970-01-01T00:50:32.000Z</time>
      </trkpt>
      <trkpt lat="39.856314" lon="-8.800054">
        <ele>46.9</ele>
        <time>1970-01-01T00:50:33.000Z</time>
      </trkpt>
      <trkpt lat="39.856344" lon="-8.800101">
        <ele>46.8</ele>
        <time>1970-01-01T00:50:34.000Z</time>
      </trkpt>
      <trkpt lat="39.856371" lon="-8.800145">
        <ele>46.8</ele>
        <time>1970-01-01T00:50:35.000Z</time>
      </trkpt>
      <trkpt lat="39.856394" lon="-8.800186">
        <ele>46.7</ele>
        <time>1970-01-01T00:50:36.000Z</time>
      </trkpt>
      <trkpt lat="39.85641" lon="-8.800229">
        <ele>46.7</ele>
        <time>1970-01-01T00:50:37.000Z</time>
      </trkpt>
      <trkpt lat="39.856421" lon="-8.800274">
        <ele>46.7</ele>
        <time>1970-01-01T00:50:38.000Z</time>
      </trkpt>
      <trkpt lat="39.85643" lon="-8.800318">
        <ele>46.7</ele>
        <time>1970-01-01T00:50:39.000Z</time>
      </trkpt>
      <trkpt lat="39.856441" lon="-8.800363">
        <ele>46.8</ele>
        <time>1970-01-01T00:50:40.000Z</time>
      </trkpt>
      <trkpt lat="39.856455" lon="-8.800405">
        <ele>46.7</ele>
        <time>1970-01-01T00:50:41.000Z</time>
      </trkpt>
      <trkpt lat="39.85647" lon="-8.800447">
        <ele>46.8</ele>
        <time>1970-01-01T00:50:42.000Z</time>
      </trkpt>
      <trkpt lat="39.856485" lon="-8.800488">
        <ele>46.8</ele>
        <time>1970-01-01T00:50:43.000Z</time>
      </trkpt>
      <trkpt lat="39.856499" lon="-8.800527">
        <ele>46.9</ele>
        <time>1970-01-01T00:50:44.000Z</time>
      </trkpt>
      <trkpt lat="39.856514" lon="-8.800563">
        <ele>46.9</ele>
        <time>1970-01-01T00:50:45.000Z</time>
      </trkpt>
      <trkpt lat="39.856529" lon="-8.800596">
        <ele>46.9</ele>
        <time>1970-01-01T00:50:46.000Z</time>
      </trkpt>
      <trkpt lat="39.856544" lon="-8.800622">
        <ele>47</ele>
        <time>1970-01-01T00:50:47.000Z</time>
      </trkpt>
      <trkpt lat="39.85656" lon="-8.800646">
        <ele>47</ele>
        <time>1970-01-01T00:50:48.000Z</time>
      </trkpt>
      <trkpt lat="39.856579" lon="-8.800668">
        <ele>47</ele>
        <time>1970-01-01T00:50:49.000Z</time>
      </trkpt>
      <trkpt lat="39.856602" lon="-8.800691">
        <ele>47</ele>
        <time>1970-01-01T00:50:50.000Z</time>
      </trkpt>
      <trkpt lat="39.856627" lon="-8.800714">
        <ele>47</ele>
        <time>1970-01-01T00:50:51.000Z</time>
      </trkpt>
      <trkpt lat="39.856652" lon="-8.800738">
        <ele>47</ele>
        <time>1970-01-01T00:50:52.000Z</time>
      </trkpt>
      <trkpt lat="39.856677" lon="-8.800767">
        <ele>47</ele>
        <time>1970-01-01T00:50:53.000Z</time>
      </trkpt>
      <trkpt lat="39.856704" lon="-8.800801">
        <ele>47.1</ele>
        <time>1970-01-01T00:50:54.000Z</time>
      </trkpt>
      <trkpt lat="39.856733" lon="-8.800837">
        <ele>47.1</ele>
        <time>1970-01-01T00:50:55.000Z</time>
      </trkpt>
      <trkpt lat="39.856762" lon="-8.800872">
        <ele>47.1</ele>
        <time>1970-01-01T00:50:56.000Z</time>
      </trkpt>
      <trkpt lat="39.856791" lon="-8.800907">
        <ele>47.1</ele>
        <time>1970-01-01T00:50:57.000Z</time>
      </trkpt>
      <trkpt lat="39.856821" lon="-8.800942">
        <ele>47.1</ele>
        <time>1970-01-01T00:50:58.000Z</time>
      </trkpt>
      <trkpt lat="39.856851" lon="-8.800977">
        <ele>47.2</ele>
        <time>1970-01-01T00:50:59.000Z</time>
      </trkpt>
      <trkpt lat="39.856882" lon="-8.801012">
        <ele>47.2</ele>
        <time>1970-01-01T00:51:00.000Z</time>
      </trkpt>
      <trkpt lat="39.856914" lon="-8.801045">
        <ele>47.3</ele>
        <time>1970-01-01T00:51:01.000Z</time>
      </trkpt>
      <trkpt lat="39.856944" lon="-8.801073">
        <ele>47.3</ele>
        <time>1970-01-01T00:51:02.000Z</time>
      </trkpt>
      <trkpt lat="39.856976" lon="-8.801097">
        <ele>47.3</ele>
        <time>1970-01-01T00:51:03.000Z</time>
      </trkpt>
      <trkpt lat="39.857011" lon="-8.801124">
        <ele>47.3</ele>
        <time>1970-01-01T00:51:04.000Z</time>
      </trkpt>
      <trkpt lat="39.857047" lon="-8.80115">
        <ele>47.2</ele>
        <time>1970-01-01T00:51:05.000Z</time>
      </trkpt>
      <trkpt lat="39.857083" lon="-8.80118">
        <ele>47.2</ele>
        <time>1970-01-01T00:51:06.000Z</time>
      </trkpt>
      <trkpt lat="39.857117" lon="-8.801213">
        <ele>47.2</ele>
        <time>1970-01-01T00:51:07.000Z</time>
      </trkpt>
      <trkpt lat="39.85715" lon="-8.801249">
        <ele>47.1</ele>
        <time>1970-01-01T00:51:08.000Z</time>
      </trkpt>
      <trkpt lat="39.857175" lon="-8.801284">
        <ele>47.3</ele>
        <time>1970-01-01T00:51:09.000Z</time>
      </trkpt>
      <trkpt lat="39.857197" lon="-8.801317">
        <ele>47.3</ele>
        <time>1970-01-01T00:51:10.000Z</time>
      </trkpt>
      <trkpt lat="39.857219" lon="-8.801347">
        <ele>47.4</ele>
        <time>1970-01-01T00:51:11.000Z</time>
      </trkpt>
      <trkpt lat="39.857236" lon="-8.801371">
        <ele>47.4</ele>
        <time>1970-01-01T00:51:12.000Z</time>
      </trkpt>
      <trkpt lat="39.857251" lon="-8.801389">
        <ele>47.5</ele>
        <time>1970-01-01T00:51:13.000Z</time>
      </trkpt>
      <trkpt lat="39.857264" lon="-8.801402">
        <ele>47.5</ele>
        <time>1970-01-01T00:51:14.000Z</time>
      </trkpt>
      <trkpt lat="39.857274" lon="-8.801407">
        <ele>47.5</ele>
        <time>1970-01-01T00:51:15.000Z</time>
      </trkpt>
      <trkpt lat="39.857286" lon="-8.801407">
        <ele>47.3</ele>
        <time>1970-01-01T00:51:16.000Z</time>
      </trkpt>
      <trkpt lat="39.8573" lon="-8.801409">
        <ele>47.3</ele>
        <time>1970-01-01T00:51:17.000Z</time>
      </trkpt>
      <trkpt lat="39.857316" lon="-8.801412">
        <ele>47.1</ele>
        <time>1970-01-01T00:51:18.000Z</time>
      </trkpt>
      <trkpt lat="39.85733" lon="-8.801417">
        <ele>47.1</ele>
        <time>1970-01-01T00:51:19.000Z</time>
      </trkpt>
      <trkpt lat="39.857345" lon="-8.801426">
        <ele>47.2</ele>
        <time>1970-01-01T00:51:20.000Z</time>
      </trkpt>
      <trkpt lat="39.857361" lon="-8.801437">
        <ele>47.2</ele>
        <time>1970-01-01T00:51:21.000Z</time>
      </trkpt>
      <trkpt lat="39.857376" lon="-8.801448">
        <ele>47</ele>
        <time>1970-01-01T00:51:22.000Z</time>
      </trkpt>
      <trkpt lat="39.857392" lon="-8.801459">
        <ele>47</ele>
        <time>1970-01-01T00:51:23.000Z</time>
      </trkpt>
      <trkpt lat="39.857408" lon="-8.801472">
        <ele>47.3</ele>
        <time>1970-01-01T00:51:24.000Z</time>
      </trkpt>
      <trkpt lat="39.857424" lon="-8.801487">
        <ele>47.1</ele>
        <time>1970-01-01T00:51:25.000Z</time>
      </trkpt>
      <trkpt lat="39.857439" lon="-8.8015">
        <ele>47.1</ele>
        <time>1970-01-01T00:51:26.000Z</time>
      </trkpt>
      <trkpt lat="39.857456" lon="-8.801511">
        <ele>47.1</ele>
        <time>1970-01-01T00:51:27.000Z</time>
      </trkpt>
      <trkpt lat="39.857477" lon="-8.801524">
        <ele>46.9</ele>
        <time>1970-01-01T00:51:28.000Z</time>
      </trkpt>
      <trkpt lat="39.857503" lon="-8.801538">
        <ele>46.9</ele>
        <time>1970-01-01T00:51:29.000Z</time>
      </trkpt>
      <trkpt lat="39.857533" lon="-8.801553">
        <ele>47</ele>
        <time>1970-01-01T00:51:30.000Z</time>
      </trkpt>
      <trkpt lat="39.857566" lon="-8.801568">
        <ele>46.8</ele>
        <time>1970-01-01T00:51:31.000Z</time>
      </trkpt>
      <trkpt lat="39.857601" lon="-8.801585">
        <ele>46.6</ele>
        <time>1970-01-01T00:51:32.000Z</time>
      </trkpt>
      <trkpt lat="39.857636" lon="-8.801603">
        <ele>46.6</ele>
        <time>1970-01-01T00:51:33.000Z</time>
      </trkpt>
      <trkpt lat="39.85767" lon="-8.801622">
        <ele>46.4</ele>
        <time>1970-01-01T00:51:34.000Z</time>
      </trkpt>
      <trkpt lat="39.857702" lon="-8.801641">
        <ele>46.4</ele>
        <time>1970-01-01T00:51:35.000Z</time>
      </trkpt>
      <trkpt lat="39.857731" lon="-8.80166">
        <ele>46.3</ele>
        <time>1970-01-01T00:51:36.000Z</time>
      </trkpt>
      <trkpt lat="39.857758" lon="-8.801679">
        <ele>46.1</ele>
        <time>1970-01-01T00:51:37.000Z</time>
      </trkpt>
      <trkpt lat="39.857784" lon="-8.801701">
        <ele>46</ele>
        <time>1970-01-01T00:51:38.000Z</time>
      </trkpt>
      <trkpt lat="39.857809" lon="-8.801725">
        <ele>46</ele>
        <time>1970-01-01T00:51:39.000Z</time>
      </trkpt>
      <trkpt lat="39.857834" lon="-8.801751">
        <ele>46</ele>
        <time>1970-01-01T00:51:40.000Z</time>
      </trkpt>
      <trkpt lat="39.857856" lon="-8.801779">
        <ele>45.9</ele>
        <time>1970-01-01T00:51:41.000Z</time>
      </trkpt>
      <trkpt lat="39.857876" lon="-8.80181">
        <ele>45.9</ele>
        <time>1970-01-01T00:51:42.000Z</time>
      </trkpt>
      <trkpt lat="39.857895" lon="-8.801842">
        <ele>45.9</ele>
        <time>1970-01-01T00:51:43.000Z</time>
      </trkpt>
      <trkpt lat="39.857916" lon="-8.801878">
        <ele>45.8</ele>
        <time>1970-01-01T00:51:44.000Z</time>
      </trkpt>
      <trkpt lat="39.857939" lon="-8.80192">
        <ele>45.7</ele>
        <time>1970-01-01T00:51:45.000Z</time>
      </trkpt>
      <trkpt lat="39.85796" lon="-8.801962">
        <ele>45.9</ele>
        <time>1970-01-01T00:51:46.000Z</time>
      </trkpt>
      <trkpt lat="39.857986" lon="-8.802006">
        <ele>45.8</ele>
        <time>1970-01-01T00:51:47.000Z</time>
      </trkpt>
      <trkpt lat="39.858018" lon="-8.802045">
        <ele>45.7</ele>
        <time>1970-01-01T00:51:48.000Z</time>
      </trkpt>
      <trkpt lat="39.858055" lon="-8.802086">
        <ele>45.7</ele>
        <time>1970-01-01T00:51:49.000Z</time>
      </trkpt>
      <trkpt lat="39.858087" lon="-8.802124">
        <ele>45.7</ele>
        <time>1970-01-01T00:51:50.000Z</time>
      </trkpt>
      <trkpt lat="39.858116" lon="-8.802156">
        <ele>45.6</ele>
        <time>1970-01-01T00:51:51.000Z</time>
      </trkpt>
      <trkpt lat="39.858142" lon="-8.802184">
        <ele>45.4</ele>
        <time>1970-01-01T00:51:52.000Z</time>
      </trkpt>
      <trkpt lat="39.858167" lon="-8.802213">
        <ele>45.4</ele>
        <time>1970-01-01T00:51:53.000Z</time>
      </trkpt>
      <trkpt lat="39.858192" lon="-8.80224">
        <ele>45.6</ele>
        <time>1970-01-01T00:51:54.000Z</time>
      </trkpt>
      <trkpt lat="39.858219" lon="-8.802268">
        <ele>45.4</ele>
        <time>1970-01-01T00:51:55.000Z</time>
      </trkpt>
      <trkpt lat="39.858245" lon="-8.802294">
        <ele>45.4</ele>
        <time>1970-01-01T00:51:56.000Z</time>
      </trkpt>
      <trkpt lat="39.85827" lon="-8.802319">
        <ele>45.1</ele>
        <time>1970-01-01T00:51:57.000Z</time>
      </trkpt>
      <trkpt lat="39.858294" lon="-8.802344">
        <ele>45.3</ele>
        <time>1970-01-01T00:51:58.000Z</time>
      </trkpt>
      <trkpt lat="39.858317" lon="-8.802367">
        <ele>45.3</ele>
        <time>1970-01-01T00:51:59.000Z</time>
      </trkpt>
      <trkpt lat="39.858338" lon="-8.80239">
        <ele>45</ele>
        <time>1970-01-01T00:52:00.000Z</time>
      </trkpt>
      <trkpt lat="39.858359" lon="-8.802417">
        <ele>45.2</ele>
        <time>1970-01-01T00:52:01.000Z</time>
      </trkpt>
      <trkpt lat="39.858381" lon="-8.802451">
        <ele>44.9</ele>
        <time>1970-01-01T00:52:02.000Z</time>
      </trkpt>
      <trkpt lat="39.858402" lon="-8.802485">
        <ele>44.9</ele>
        <time>1970-01-01T00:52:03.000Z</time>
      </trkpt>
      <trkpt lat="39.858423" lon="-8.802522">
        <ele>45</ele>
        <time>1970-01-01T00:52:04.000Z</time>
      </trkpt>
      <trkpt lat="39.858444" lon="-8.802562">
        <ele>44.9</ele>
        <time>1970-01-01T00:52:05.000Z</time>
      </trkpt>
      <trkpt lat="39.858467" lon="-8.802603">
        <ele>44.9</ele>
        <time>1970-01-01T00:52:06.000Z</time>
      </trkpt>
      <trkpt lat="39.85849" lon="-8.802641">
        <ele>45</ele>
        <time>1970-01-01T00:52:07.000Z</time>
      </trkpt>
      <trkpt lat="39.858513" lon="-8.802674">
        <ele>45</ele>
        <time>1970-01-01T00:52:08.000Z</time>
      </trkpt>
      <trkpt lat="39.858533" lon="-8.802704">
        <ele>44.8</ele>
        <time>1970-01-01T00:52:09.000Z</time>
      </trkpt>
      <trkpt lat="39.858553" lon="-8.802737">
        <ele>44.9</ele>
        <time>1970-01-01T00:52:10.000Z</time>
      </trkpt>
      <trkpt lat="39.858572" lon="-8.802768">
        <ele>44.8</ele>
        <time>1970-01-01T00:52:11.000Z</time>
      </trkpt>
      <trkpt lat="39.858592" lon="-8.802798">
        <ele>45</ele>
        <time>1970-01-01T00:52:12.000Z</time>
      </trkpt>
      <trkpt lat="39.85861" lon="-8.802824">
        <ele>44.7</ele>
        <time>1970-01-01T00:52:13.000Z</time>
      </trkpt>
      <trkpt lat="39.858622" lon="-8.80285">
        <ele>44.8</ele>
        <time>1970-01-01T00:52:14.000Z</time>
      </trkpt>
      <trkpt lat="39.858627" lon="-8.802877">
        <ele>44.8</ele>
        <time>1970-01-01T00:52:15.000Z</time>
      </trkpt>
      <trkpt lat="39.858629" lon="-8.802899">
        <ele>44.6</ele>
        <time>1970-01-01T00:52:16.000Z</time>
      </trkpt>
      <trkpt lat="39.858628" lon="-8.802915">
        <ele>44.6</ele>
        <time>1970-01-01T00:52:17.000Z</time>
      </trkpt>
      <trkpt lat="39.858627" lon="-8.802927">
        <ele>45.1</ele>
        <time>1970-01-01T00:52:18.000Z</time>
      </trkpt>
      <trkpt lat="39.858627" lon="-8.80294">
        <ele>45.1</ele>
        <time>1970-01-01T00:52:19.000Z</time>
      </trkpt>
      <trkpt lat="39.858631" lon="-8.802956">
        <ele>44.7</ele>
        <time>1970-01-01T00:52:20.000Z</time>
      </trkpt>
      <trkpt lat="39.858641" lon="-8.80297">
        <ele>44.9</ele>
        <time>1970-01-01T00:52:21.000Z</time>
      </trkpt>
      <trkpt lat="39.858654" lon="-8.802985">
        <ele>44.9</ele>
        <time>1970-01-01T00:52:22.000Z</time>
      </trkpt>
      <trkpt lat="39.858665" lon="-8.803002">
        <ele>44.5</ele>
        <time>1970-01-01T00:52:23.000Z</time>
      </trkpt>
      <trkpt lat="39.858684" lon="-8.80301">
        <ele>44.6</ele>
        <time>1970-01-01T00:52:24.000Z</time>
      </trkpt>
      <trkpt lat="39.858744" lon="-8.802997">
        <ele>44</ele>
        <time>1970-01-01T00:52:26.000Z</time>
      </trkpt>
      <trkpt lat="39.858741" lon="-8.802996">
        <ele>44</ele>
        <time>1970-01-01T00:52:27.000Z</time>
      </trkpt>
      <trkpt lat="39.858734" lon="-8.802999">
        <ele>44</ele>
        <time>1970-01-01T00:52:28.000Z</time>
      </trkpt>
      <trkpt lat="39.858725" lon="-8.803011">
        <ele>44.4</ele>
        <time>1970-01-01T00:52:29.000Z</time>
      </trkpt>
      <trkpt lat="39.858716" lon="-8.803023">
        <ele>44.4</ele>
        <time>1970-01-01T00:52:30.000Z</time>
      </trkpt>
      <trkpt lat="39.858711" lon="-8.803039">
        <ele>44.4</ele>
        <time>1970-01-01T00:52:31.000Z</time>
      </trkpt>
      <trkpt lat="39.858708" lon="-8.803056">
        <ele>44.4</ele>
        <time>1970-01-01T00:52:32.000Z</time>
      </trkpt>
      <trkpt lat="39.858704" lon="-8.803073">
        <ele>44.4</ele>
        <time>1970-01-01T00:52:33.000Z</time>
      </trkpt>
      <trkpt lat="39.858701" lon="-8.803087">
        <ele>44.4</ele>
        <time>1970-01-01T00:52:34.000Z</time>
      </trkpt>
      <trkpt lat="39.8587" lon="-8.803103">
        <ele>44.5</ele>
        <time>1970-01-01T00:52:35.000Z</time>
      </trkpt>
      <trkpt lat="39.858679" lon="-8.803152">
        <ele>45</ele>
        <time>1970-01-01T00:52:37.000Z</time>
      </trkpt>
      <trkpt lat="39.858675" lon="-8.803153">
        <ele>45</ele>
        <time>1970-01-01T00:52:38.000Z</time>
      </trkpt>
      <trkpt lat="39.858671" lon="-8.803155">
        <ele>45</ele>
        <time>1970-01-01T00:52:39.000Z</time>
      </trkpt>
      <trkpt lat="39.858671" lon="-8.803157">
        <ele>45</ele>
        <time>1970-01-01T00:52:40.000Z</time>
      </trkpt>
      <trkpt lat="39.858674" lon="-8.803159">
        <ele>45</ele>
        <time>1970-01-01T00:52:41.000Z</time>
      </trkpt>
      <trkpt lat="39.858683" lon="-8.803175">
        <ele>45</ele>
        <time>1970-01-01T00:52:44.000Z</time>
      </trkpt>
      <trkpt lat="39.858663" lon="-8.803179">
        <ele>45</ele>
        <time>1970-01-01T00:52:45.000Z</time>
      </trkpt>
      <trkpt lat="39.858593" lon="-8.803199">
        <ele>46.3</ele>
        <time>1970-01-01T00:52:47.000Z</time>
      </trkpt>
      <trkpt lat="39.8587" lon="-8.803264">
        <ele>45</ele>
        <time>1970-01-01T00:53:00.000Z</time>
      </trkpt>
      <trkpt lat="39.858834" lon="-8.803315">
        <ele>44</ele>
        <time>1970-01-01T00:53:02.000Z</time>
      </trkpt>
      <trkpt lat="39.858968" lon="-8.803366">
        <ele>42.9</ele>
        <time>1970-01-01T00:53:03.000Z</time>
      </trkpt>
      <trkpt lat="39.858969" lon="-8.803354">
        <ele>42.9</ele>
        <time>1970-01-01T00:53:04.000Z</time>
      </trkpt>
      <trkpt lat="39.858974" lon="-8.803344">
        <ele>42.9</ele>
        <time>1970-01-01T00:53:05.000Z</time>
      </trkpt>
      <trkpt lat="39.858975" lon="-8.803314">
        <ele>42.9</ele>
        <time>1970-01-01T00:53:06.000Z</time>
      </trkpt>
      <trkpt lat="39.858964" lon="-8.803284">
        <ele>42.8</ele>
        <time>1970-01-01T00:53:07.000Z</time>
      </trkpt>
      <trkpt lat="39.858955" lon="-8.803257">
        <ele>43</ele>
        <time>1970-01-01T00:53:08.000Z</time>
      </trkpt>
      <trkpt lat="39.858936" lon="-8.803179">
        <ele>43</ele>
        <time>1970-01-01T00:53:10.000Z</time>
      </trkpt>
      <trkpt lat="39.858923" lon="-8.80315">
        <ele>43.2</ele>
        <time>1970-01-01T00:53:12.000Z</time>
      </trkpt>
      <trkpt lat="39.858918" lon="-8.803149">
        <ele>43.2</ele>
        <time>1970-01-01T00:53:13.000Z</time>
      </trkpt>
      <trkpt lat="39.858913" lon="-8.803147">
        <ele>43.2</ele>
        <time>1970-01-01T00:53:14.000Z</time>
      </trkpt>
      <trkpt lat="39.858926" lon="-8.803174">
        <ele>43</ele>
        <time>1970-01-01T00:53:17.000Z</time>
      </trkpt>
      <trkpt lat="39.858927" lon="-8.803183">
        <ele>43</ele>
        <time>1970-01-01T00:53:18.000Z</time>
      </trkpt>
      <trkpt lat="39.858926" lon="-8.803197">
        <ele>43</ele>
        <time>1970-01-01T00:53:19.000Z</time>
      </trkpt>
      <trkpt lat="39.85892" lon="-8.80322">
        <ele>43.2</ele>
        <time>1970-01-01T00:53:20.000Z</time>
      </trkpt>
      <trkpt lat="39.858913" lon="-8.803241">
        <ele>43.2</ele>
        <time>1970-01-01T00:53:21.000Z</time>
      </trkpt>
      <trkpt lat="39.858907" lon="-8.803258">
        <ele>43.2</ele>
        <time>1970-01-01T00:53:22.000Z</time>
      </trkpt>
      <trkpt lat="39.858903" lon="-8.803267">
        <ele>43.2</ele>
        <time>1970-01-01T00:53:23.000Z</time>
      </trkpt>
      <trkpt lat="39.858901" lon="-8.803269">
        <ele>43.3</ele>
        <time>1970-01-01T00:53:24.000Z</time>
      </trkpt>
      <trkpt lat="39.858896" lon="-8.803262">
        <ele>43.2</ele>
        <time>1970-01-01T00:53:25.000Z</time>
      </trkpt>
      <trkpt lat="39.858895" lon="-8.803258">
        <ele>43.2</ele>
        <time>1970-01-01T00:53:26.000Z</time>
      </trkpt>
      <trkpt lat="39.858895" lon="-8.803252">
        <ele>43.2</ele>
        <time>1970-01-01T00:53:27.000Z</time>
      </trkpt>
      <trkpt lat="39.858892" lon="-8.803245">
        <ele>43.2</ele>
        <time>1970-01-01T00:53:28.000Z</time>
      </trkpt>
      <trkpt lat="39.85889" lon="-8.803237">
        <ele>43.5</ele>
        <time>1970-01-01T00:53:29.000Z</time>
      </trkpt>
      <trkpt lat="39.85889" lon="-8.803232">
        <ele>43.5</ele>
        <time>1970-01-01T00:53:30.000Z</time>
      </trkpt>
      <trkpt lat="39.858889" lon="-8.803227">
        <ele>43.5</ele>
        <time>1970-01-01T00:53:31.000Z</time>
      </trkpt>
      <trkpt lat="39.85889" lon="-8.803226">
        <ele>43.5</ele>
        <time>1970-01-01T00:53:32.000Z</time>
      </trkpt>
      <trkpt lat="39.858892" lon="-8.803226">
        <ele>43.2</ele>
        <time>1970-01-01T00:53:33.000Z</time>
      </trkpt>
      <trkpt lat="39.858898" lon="-8.803215">
        <ele>43.2</ele>
        <time>1970-01-01T00:53:34.000Z</time>
      </trkpt>
      <trkpt lat="39.858904" lon="-8.803199">
        <ele>43.2</ele>
        <time>1970-01-01T00:53:35.000Z</time>
      </trkpt>
      <trkpt lat="39.858908" lon="-8.803186">
        <ele>43.2</ele>
        <time>1970-01-01T00:53:36.000Z</time>
      </trkpt>
      <trkpt lat="39.858911" lon="-8.803181">
        <ele>43.2</ele>
        <time>1970-01-01T00:53:37.000Z</time>
      </trkpt>
      <trkpt lat="39.858913" lon="-8.803179">
        <ele>43.2</ele>
        <time>1970-01-01T00:53:38.000Z</time>
      </trkpt>
      <trkpt lat="39.858913" lon="-8.803179">
        <ele>43.2</ele>
        <time>1970-01-01T00:53:39.000Z</time>
      </trkpt>
      <trkpt lat="39.858916" lon="-8.803179">
        <ele>43.2</ele>
        <time>1970-01-01T00:53:40.000Z</time>
      </trkpt>
      <trkpt lat="39.85892" lon="-8.803181">
        <ele>43.2</ele>
        <time>1970-01-01T00:53:41.000Z</time>
      </trkpt>
      <trkpt lat="39.858924" lon="-8.803184">
        <ele>43.2</ele>
        <time>1970-01-01T00:53:42.000Z</time>
      </trkpt>
      <trkpt lat="39.858924" lon="-8.803188">
        <ele>43.2</ele>
        <time>1970-01-01T00:53:43.000Z</time>
      </trkpt>
      <trkpt lat="39.858923" lon="-8.80319">
        <ele>43.2</ele>
        <time>1970-01-01T00:53:44.000Z</time>
      </trkpt>
      <trkpt lat="39.858923" lon="-8.803194">
        <ele>43.2</ele>
        <time>1970-01-01T00:53:45.000Z</time>
      </trkpt>
      <trkpt lat="39.858922" lon="-8.803198">
        <ele>43.2</ele>
        <time>1970-01-01T00:53:46.000Z</time>
      </trkpt>
      <trkpt lat="39.858919" lon="-8.803231">
        <ele>43.2</ele>
        <time>1970-01-01T00:53:47.000Z</time>
      </trkpt>
      <trkpt lat="39.858919" lon="-8.803237">
        <ele>43.2</ele>
        <time>1970-01-01T00:53:48.000Z</time>
      </trkpt>
      <trkpt lat="39.858923" lon="-8.803252">
        <ele>43.2</ele>
        <time>1970-01-01T00:53:49.000Z</time>
      </trkpt>
      <trkpt lat="39.858931" lon="-8.803267">
        <ele>43</ele>
        <time>1970-01-01T00:53:50.000Z</time>
      </trkpt>
      <trkpt lat="39.858947" lon="-8.803281">
        <ele>43</ele>
        <time>1970-01-01T00:53:51.000Z</time>
      </trkpt>
      <trkpt lat="39.858967" lon="-8.803294">
        <ele>42.8</ele>
        <time>1970-01-01T00:53:52.000Z</time>
      </trkpt>
      <trkpt lat="39.858991" lon="-8.803309">
        <ele>42.7</ele>
        <time>1970-01-01T00:53:53.000Z</time>
      </trkpt>
      <trkpt lat="39.859015" lon="-8.803329">
        <ele>42.7</ele>
        <time>1970-01-01T00:53:54.000Z</time>
      </trkpt>
      <trkpt lat="39.85904" lon="-8.803353">
        <ele>42.6</ele>
        <time>1970-01-01T00:53:55.000Z</time>
      </trkpt>
      <trkpt lat="39.859062" lon="-8.803381">
        <ele>42.6</ele>
        <time>1970-01-01T00:53:56.000Z</time>
      </trkpt>
      <trkpt lat="39.85908" lon="-8.803414">
        <ele>42.6</ele>
        <time>1970-01-01T00:53:57.000Z</time>
      </trkpt>
      <trkpt lat="39.859095" lon="-8.803447">
        <ele>42.6</ele>
        <time>1970-01-01T00:53:58.000Z</time>
      </trkpt>
      <trkpt lat="39.859108" lon="-8.803477">
        <ele>42.6</ele>
        <time>1970-01-01T00:53:59.000Z</time>
      </trkpt>
      <trkpt lat="39.859119" lon="-8.803504">
        <ele>42.6</ele>
        <time>1970-01-01T00:54:00.000Z</time>
      </trkpt>
      <trkpt lat="39.859129" lon="-8.803528">
        <ele>42.6</ele>
        <time>1970-01-01T00:54:01.000Z</time>
      </trkpt>
      <trkpt lat="39.85914" lon="-8.803548">
        <ele>42.6</ele>
        <time>1970-01-01T00:54:02.000Z</time>
      </trkpt>
      <trkpt lat="39.859155" lon="-8.803569">
        <ele>42.6</ele>
        <time>1970-01-01T00:54:03.000Z</time>
      </trkpt>
      <trkpt lat="39.859173" lon="-8.803587">
        <ele>42.6</ele>
        <time>1970-01-01T00:54:04.000Z</time>
      </trkpt>
      <trkpt lat="39.859198" lon="-8.803603">
        <ele>42.6</ele>
        <time>1970-01-01T00:54:05.000Z</time>
      </trkpt>
      <trkpt lat="39.859219" lon="-8.803616">
        <ele>42.7</ele>
        <time>1970-01-01T00:54:06.000Z</time>
      </trkpt>
      <trkpt lat="39.859237" lon="-8.803626">
        <ele>42.7</ele>
        <time>1970-01-01T00:54:07.000Z</time>
      </trkpt>
      <trkpt lat="39.859253" lon="-8.803638">
        <ele>42.7</ele>
        <time>1970-01-01T00:54:08.000Z</time>
      </trkpt>
      <trkpt lat="39.85927" lon="-8.803651">
        <ele>42.8</ele>
        <time>1970-01-01T00:54:09.000Z</time>
      </trkpt>
      <trkpt lat="39.859287" lon="-8.803661">
        <ele>42.9</ele>
        <time>1970-01-01T00:54:10.000Z</time>
      </trkpt>
      <trkpt lat="39.859308" lon="-8.803672">
        <ele>42.9</ele>
        <time>1970-01-01T00:54:11.000Z</time>
      </trkpt>
      <trkpt lat="39.85933" lon="-8.803686">
        <ele>42.9</ele>
        <time>1970-01-01T00:54:12.000Z</time>
      </trkpt>
      <trkpt lat="39.859353" lon="-8.803701">
        <ele>43</ele>
        <time>1970-01-01T00:54:13.000Z</time>
      </trkpt>
      <trkpt lat="39.859376" lon="-8.803714">
        <ele>43</ele>
        <time>1970-01-01T00:54:14.000Z</time>
      </trkpt>
      <trkpt lat="39.859401" lon="-8.803728">
        <ele>43</ele>
        <time>1970-01-01T00:54:15.000Z</time>
      </trkpt>
      <trkpt lat="39.859426" lon="-8.803743">
        <ele>43</ele>
        <time>1970-01-01T00:54:16.000Z</time>
      </trkpt>
      <trkpt lat="39.859452" lon="-8.803758">
        <ele>43.1</ele>
        <time>1970-01-01T00:54:17.000Z</time>
      </trkpt>
      <trkpt lat="39.85948" lon="-8.803776">
        <ele>43.1</ele>
        <time>1970-01-01T00:54:18.000Z</time>
      </trkpt>
      <trkpt lat="39.859506" lon="-8.803794">
        <ele>43.1</ele>
        <time>1970-01-01T00:54:19.000Z</time>
      </trkpt>
      <trkpt lat="39.859532" lon="-8.803814">
        <ele>43.2</ele>
        <time>1970-01-01T00:54:20.000Z</time>
      </trkpt>
      <trkpt lat="39.859558" lon="-8.803835">
        <ele>43.3</ele>
        <time>1970-01-01T00:54:21.000Z</time>
      </trkpt>
      <trkpt lat="39.859583" lon="-8.803859">
        <ele>43.3</ele>
        <time>1970-01-01T00:54:22.000Z</time>
      </trkpt>
      <trkpt lat="39.859609" lon="-8.803889">
        <ele>43.3</ele>
        <time>1970-01-01T00:54:23.000Z</time>
      </trkpt>
      <trkpt lat="39.859636" lon="-8.80392">
        <ele>43.4</ele>
        <time>1970-01-01T00:54:24.000Z</time>
      </trkpt>
      <trkpt lat="39.859666" lon="-8.803946">
        <ele>43.4</ele>
        <time>1970-01-01T00:54:25.000Z</time>
      </trkpt>
      <trkpt lat="39.859694" lon="-8.803969">
        <ele>43.3</ele>
        <time>1970-01-01T00:54:26.000Z</time>
      </trkpt>
      <trkpt lat="39.859719" lon="-8.803992">
        <ele>43.3</ele>
        <time>1970-01-01T00:54:27.000Z</time>
      </trkpt>
      <trkpt lat="39.859743" lon="-8.804012">
        <ele>43.3</ele>
        <time>1970-01-01T00:54:28.000Z</time>
      </trkpt>
      <trkpt lat="39.85977" lon="-8.804025">
        <ele>43.3</ele>
        <time>1970-01-01T00:54:29.000Z</time>
      </trkpt>
      <trkpt lat="39.859796" lon="-8.804039">
        <ele>43.2</ele>
        <time>1970-01-01T00:54:30.000Z</time>
      </trkpt>
      <trkpt lat="39.85982" lon="-8.804058">
        <ele>43.2</ele>
        <time>1970-01-01T00:54:31.000Z</time>
      </trkpt>
      <trkpt lat="39.859841" lon="-8.80408">
        <ele>43.2</ele>
        <time>1970-01-01T00:54:32.000Z</time>
      </trkpt>
      <trkpt lat="39.859862" lon="-8.804103">
        <ele>43.2</ele>
        <time>1970-01-01T00:54:33.000Z</time>
      </trkpt>
      <trkpt lat="39.859881" lon="-8.80413">
        <ele>43.3</ele>
        <time>1970-01-01T00:54:34.000Z</time>
      </trkpt>
      <trkpt lat="39.859903" lon="-8.804151">
        <ele>43.3</ele>
        <time>1970-01-01T00:54:35.000Z</time>
      </trkpt>
      <trkpt lat="39.859926" lon="-8.804168">
        <ele>43.3</ele>
        <time>1970-01-01T00:54:36.000Z</time>
      </trkpt>
      <trkpt lat="39.859952" lon="-8.804175">
        <ele>43.4</ele>
        <time>1970-01-01T00:54:37.000Z</time>
      </trkpt>
      <trkpt lat="39.859981" lon="-8.804181">
        <ele>43.4</ele>
        <time>1970-01-01T00:54:38.000Z</time>
      </trkpt>
      <trkpt lat="39.86001" lon="-8.804194">
        <ele>43.4</ele>
        <time>1970-01-01T00:54:39.000Z</time>
      </trkpt>
      <trkpt lat="39.860042" lon="-8.80421">
        <ele>43.4</ele>
        <time>1970-01-01T00:54:40.000Z</time>
      </trkpt>
      <trkpt lat="39.860069" lon="-8.804228">
        <ele>43.5</ele>
        <time>1970-01-01T00:54:41.000Z</time>
      </trkpt>
      <trkpt lat="39.860094" lon="-8.804249">
        <ele>43.5</ele>
        <time>1970-01-01T00:54:42.000Z</time>
      </trkpt>
      <trkpt lat="39.860123" lon="-8.804274">
        <ele>43.6</ele>
        <time>1970-01-01T00:54:43.000Z</time>
      </trkpt>
      <trkpt lat="39.860157" lon="-8.80431">
        <ele>43.6</ele>
        <time>1970-01-01T00:54:44.000Z</time>
      </trkpt>
      <trkpt lat="39.860191" lon="-8.804345">
        <ele>43.7</ele>
        <time>1970-01-01T00:54:45.000Z</time>
      </trkpt>
      <trkpt lat="39.860226" lon="-8.804397">
        <ele>43.8</ele>
        <time>1970-01-01T00:54:46.000Z</time>
      </trkpt>
      <trkpt lat="39.860261" lon="-8.80447">
        <ele>43.9</ele>
        <time>1970-01-01T00:54:47.000Z</time>
      </trkpt>
      <trkpt lat="39.860291" lon="-8.804554">
        <ele>44</ele>
        <time>1970-01-01T00:54:48.000Z</time>
      </trkpt>
      <trkpt lat="39.860319" lon="-8.804652">
        <ele>44.3</ele>
        <time>1970-01-01T00:54:49.000Z</time>
      </trkpt>
      <trkpt lat="39.860344" lon="-8.804753">
        <ele>44.4</ele>
        <time>1970-01-01T00:54:50.000Z</time>
      </trkpt>
      <trkpt lat="39.860373" lon="-8.804856">
        <ele>44.6</ele>
        <time>1970-01-01T00:54:51.000Z</time>
      </trkpt>
      <trkpt lat="39.860406" lon="-8.804958">
        <ele>44.8</ele>
        <time>1970-01-01T00:54:52.000Z</time>
      </trkpt>
      <trkpt lat="39.860438" lon="-8.805052">
        <ele>45</ele>
        <time>1970-01-01T00:54:53.000Z</time>
      </trkpt>
      <trkpt lat="39.860466" lon="-8.805131">
        <ele>45.2</ele>
        <time>1970-01-01T00:54:54.000Z</time>
      </trkpt>
      <trkpt lat="39.860491" lon="-8.8052">
        <ele>45.4</ele>
        <time>1970-01-01T00:54:55.000Z</time>
      </trkpt>
      <trkpt lat="39.860513" lon="-8.805258">
        <ele>45.5</ele>
        <time>1970-01-01T00:54:56.000Z</time>
      </trkpt>
      <trkpt lat="39.860537" lon="-8.80531">
        <ele>45.5</ele>
        <time>1970-01-01T00:54:57.000Z</time>
      </trkpt>
      <trkpt lat="39.860561" lon="-8.805355">
        <ele>45.6</ele>
        <time>1970-01-01T00:54:58.000Z</time>
      </trkpt>
      <trkpt lat="39.860583" lon="-8.805394">
        <ele>45.6</ele>
        <time>1970-01-01T00:54:59.000Z</time>
      </trkpt>
      <trkpt lat="39.860606" lon="-8.805428">
        <ele>45.5</ele>
        <time>1970-01-01T00:55:00.000Z</time>
      </trkpt>
      <trkpt lat="39.860632" lon="-8.805464">
        <ele>45.6</ele>
        <time>1970-01-01T00:55:01.000Z</time>
      </trkpt>
      <trkpt lat="39.86066" lon="-8.805499">
        <ele>45.5</ele>
        <time>1970-01-01T00:55:02.000Z</time>
      </trkpt>
      <trkpt lat="39.860691" lon="-8.805532">
        <ele>45.4</ele>
        <time>1970-01-01T00:55:03.000Z</time>
      </trkpt>
      <trkpt lat="39.860723" lon="-8.805563">
        <ele>45.4</ele>
        <time>1970-01-01T00:55:04.000Z</time>
      </trkpt>
      <trkpt lat="39.860756" lon="-8.805594">
        <ele>45.3</ele>
        <time>1970-01-01T00:55:05.000Z</time>
      </trkpt>
      <trkpt lat="39.860792" lon="-8.805626">
        <ele>45.2</ele>
        <time>1970-01-01T00:55:06.000Z</time>
      </trkpt>
      <trkpt lat="39.860823" lon="-8.805659">
        <ele>45.1</ele>
        <time>1970-01-01T00:55:07.000Z</time>
      </trkpt>
      <trkpt lat="39.86085" lon="-8.805691">
        <ele>44.9</ele>
        <time>1970-01-01T00:55:08.000Z</time>
      </trkpt>
      <trkpt lat="39.860878" lon="-8.805721">
        <ele>44.7</ele>
        <time>1970-01-01T00:55:09.000Z</time>
      </trkpt>
      <trkpt lat="39.860908" lon="-8.805752">
        <ele>44.6</ele>
        <time>1970-01-01T00:55:10.000Z</time>
      </trkpt>
      <trkpt lat="39.860937" lon="-8.805786">
        <ele>44.4</ele>
        <time>1970-01-01T00:55:11.000Z</time>
      </trkpt>
      <trkpt lat="39.860967" lon="-8.805825">
        <ele>44.3</ele>
        <time>1970-01-01T00:55:12.000Z</time>
      </trkpt>
      <trkpt lat="39.860997" lon="-8.805863">
        <ele>44.2</ele>
        <time>1970-01-01T00:55:13.000Z</time>
      </trkpt>
      <trkpt lat="39.861028" lon="-8.805903">
        <ele>44.1</ele>
        <time>1970-01-01T00:55:14.000Z</time>
      </trkpt>
      <trkpt lat="39.861059" lon="-8.805936">
        <ele>44.1</ele>
        <time>1970-01-01T00:55:15.000Z</time>
      </trkpt>
      <trkpt lat="39.861098" lon="-8.80596">
        <ele>44</ele>
        <time>1970-01-01T00:55:16.000Z</time>
      </trkpt>
      <trkpt lat="39.861141" lon="-8.805979">
        <ele>43.9</ele>
        <time>1970-01-01T00:55:17.000Z</time>
      </trkpt>
      <trkpt lat="39.86119" lon="-8.80599">
        <ele>43.9</ele>
        <time>1970-01-01T00:55:18.000Z</time>
      </trkpt>
      <trkpt lat="39.861236" lon="-8.806005">
        <ele>43.8</ele>
        <time>1970-01-01T00:55:19.000Z</time>
      </trkpt>
      <trkpt lat="39.861277" lon="-8.806023">
        <ele>43.7</ele>
        <time>1970-01-01T00:55:20.000Z</time>
      </trkpt>
      <trkpt lat="39.861318" lon="-8.806046">
        <ele>43.6</ele>
        <time>1970-01-01T00:55:21.000Z</time>
      </trkpt>
      <trkpt lat="39.861359" lon="-8.806072">
        <ele>43.6</ele>
        <time>1970-01-01T00:55:22.000Z</time>
      </trkpt>
      <trkpt lat="39.861397" lon="-8.806098">
        <ele>43.5</ele>
        <time>1970-01-01T00:55:23.000Z</time>
      </trkpt>
      <trkpt lat="39.861431" lon="-8.806126">
        <ele>43.4</ele>
        <time>1970-01-01T00:55:24.000Z</time>
      </trkpt>
      <trkpt lat="39.86146" lon="-8.806156">
        <ele>43.4</ele>
        <time>1970-01-01T00:55:25.000Z</time>
      </trkpt>
      <trkpt lat="39.86149" lon="-8.806187">
        <ele>43.4</ele>
        <time>1970-01-01T00:55:26.000Z</time>
      </trkpt>
      <trkpt lat="39.861526" lon="-8.806222">
        <ele>43.4</ele>
        <time>1970-01-01T00:55:27.000Z</time>
      </trkpt>
      <trkpt lat="39.861564" lon="-8.806257">
        <ele>43.4</ele>
        <time>1970-01-01T00:55:28.000Z</time>
      </trkpt>
      <trkpt lat="39.861603" lon="-8.8063">
        <ele>43.4</ele>
        <time>1970-01-01T00:55:29.000Z</time>
      </trkpt>
      <trkpt lat="39.861643" lon="-8.806348">
        <ele>43.4</ele>
        <time>1970-01-01T00:55:30.000Z</time>
      </trkpt>
      <trkpt lat="39.861687" lon="-8.806399">
        <ele>43.4</ele>
        <time>1970-01-01T00:55:31.000Z</time>
      </trkpt>
      <trkpt lat="39.861728" lon="-8.80645">
        <ele>43.5</ele>
        <time>1970-01-01T00:55:32.000Z</time>
      </trkpt>
      <trkpt lat="39.861771" lon="-8.8065">
        <ele>43.5</ele>
        <time>1970-01-01T00:55:33.000Z</time>
      </trkpt>
      <trkpt lat="39.861817" lon="-8.806554">
        <ele>43.6</ele>
        <time>1970-01-01T00:55:34.000Z</time>
      </trkpt>
      <trkpt lat="39.86186" lon="-8.806603">
        <ele>43.7</ele>
        <time>1970-01-01T00:55:35.000Z</time>
      </trkpt>
      <trkpt lat="39.861905" lon="-8.806651">
        <ele>43.7</ele>
        <time>1970-01-01T00:55:36.000Z</time>
      </trkpt>
      <trkpt lat="39.861951" lon="-8.806698">
        <ele>43.8</ele>
        <time>1970-01-01T00:55:37.000Z</time>
      </trkpt>
      <trkpt lat="39.861995" lon="-8.806738">
        <ele>43.8</ele>
        <time>1970-01-01T00:55:38.000Z</time>
      </trkpt>
      <trkpt lat="39.862041" lon="-8.806777">
        <ele>43.7</ele>
        <time>1970-01-01T00:55:39.000Z</time>
      </trkpt>
      <trkpt lat="39.862088" lon="-8.806815">
        <ele>43.6</ele>
        <time>1970-01-01T00:55:40.000Z</time>
      </trkpt>
      <trkpt lat="39.862133" lon="-8.806851">
        <ele>43.5</ele>
        <time>1970-01-01T00:55:41.000Z</time>
      </trkpt>
      <trkpt lat="39.862173" lon="-8.806886">
        <ele>43.4</ele>
        <time>1970-01-01T00:55:42.000Z</time>
      </trkpt>
      <trkpt lat="39.862205" lon="-8.806929">
        <ele>43.3</ele>
        <time>1970-01-01T00:55:43.000Z</time>
      </trkpt>
      <trkpt lat="39.862233" lon="-8.806968">
        <ele>43.2</ele>
        <time>1970-01-01T00:55:44.000Z</time>
      </trkpt>
      <trkpt lat="39.86226" lon="-8.806999">
        <ele>43.2</ele>
        <time>1970-01-01T00:55:45.000Z</time>
      </trkpt>
      <trkpt lat="39.862285" lon="-8.807025">
        <ele>43</ele>
        <time>1970-01-01T00:55:46.000Z</time>
      </trkpt>
      <trkpt lat="39.862311" lon="-8.807048">
        <ele>42.9</ele>
        <time>1970-01-01T00:55:47.000Z</time>
      </trkpt>
      <trkpt lat="39.862342" lon="-8.80707">
        <ele>42.9</ele>
        <time>1970-01-01T00:55:48.000Z</time>
      </trkpt>
      <trkpt lat="39.862376" lon="-8.807095">
        <ele>42.8</ele>
        <time>1970-01-01T00:55:49.000Z</time>
      </trkpt>
      <trkpt lat="39.862409" lon="-8.807124">
        <ele>42.9</ele>
        <time>1970-01-01T00:55:50.000Z</time>
      </trkpt>
      <trkpt lat="39.862445" lon="-8.807156">
        <ele>42.9</ele>
        <time>1970-01-01T00:55:51.000Z</time>
      </trkpt>
      <trkpt lat="39.862476" lon="-8.807187">
        <ele>42.8</ele>
        <time>1970-01-01T00:55:52.000Z</time>
      </trkpt>
      <trkpt lat="39.862507" lon="-8.807218">
        <ele>42.8</ele>
        <time>1970-01-01T00:55:53.000Z</time>
      </trkpt>
      <trkpt lat="39.862539" lon="-8.80725">
        <ele>42.9</ele>
        <time>1970-01-01T00:55:54.000Z</time>
      </trkpt>
      <trkpt lat="39.862567" lon="-8.807284">
        <ele>42.8</ele>
        <time>1970-01-01T00:55:55.000Z</time>
      </trkpt>
      <trkpt lat="39.862596" lon="-8.80732">
        <ele>42.8</ele>
        <time>1970-01-01T00:55:56.000Z</time>
      </trkpt>
      <trkpt lat="39.862627" lon="-8.807357">
        <ele>42.7</ele>
        <time>1970-01-01T00:55:57.000Z</time>
      </trkpt>
      <trkpt lat="39.862659" lon="-8.807396">
        <ele>42.7</ele>
        <time>1970-01-01T00:55:58.000Z</time>
      </trkpt>
      <trkpt lat="39.862691" lon="-8.807437">
        <ele>42.7</ele>
        <time>1970-01-01T00:55:59.000Z</time>
      </trkpt>
      <trkpt lat="39.862724" lon="-8.807482">
        <ele>42.7</ele>
        <time>1970-01-01T00:56:00.000Z</time>
      </trkpt>
      <trkpt lat="39.862755" lon="-8.807531">
        <ele>42.8</ele>
        <time>1970-01-01T00:56:01.000Z</time>
      </trkpt>
      <trkpt lat="39.862788" lon="-8.807584">
        <ele>42.8</ele>
        <time>1970-01-01T00:56:02.000Z</time>
      </trkpt>
      <trkpt lat="39.862822" lon="-8.807632">
        <ele>42.8</ele>
        <time>1970-01-01T00:56:03.000Z</time>
      </trkpt>
      <trkpt lat="39.862856" lon="-8.807675">
        <ele>42.8</ele>
        <time>1970-01-01T00:56:04.000Z</time>
      </trkpt>
      <trkpt lat="39.862887" lon="-8.807719">
        <ele>42.8</ele>
        <time>1970-01-01T00:56:05.000Z</time>
      </trkpt>
      <trkpt lat="39.862916" lon="-8.807768">
        <ele>42.7</ele>
        <time>1970-01-01T00:56:06.000Z</time>
      </trkpt>
      <trkpt lat="39.862943" lon="-8.807817">
        <ele>42.2</ele>
        <time>1970-01-01T00:56:07.000Z</time>
      </trkpt>
      <trkpt lat="39.862969" lon="-8.807872">
        <ele>42.1</ele>
        <time>1970-01-01T00:56:08.000Z</time>
      </trkpt>
      <trkpt lat="39.862994" lon="-8.807928">
        <ele>42</ele>
        <time>1970-01-01T00:56:09.000Z</time>
      </trkpt>
      <trkpt lat="39.86302" lon="-8.807969">
        <ele>42</ele>
        <time>1970-01-01T00:56:10.000Z</time>
      </trkpt>
      <trkpt lat="39.863045" lon="-8.807997">
        <ele>42</ele>
        <time>1970-01-01T00:56:11.000Z</time>
      </trkpt>
      <trkpt lat="39.863073" lon="-8.80802">
        <ele>42</ele>
        <time>1970-01-01T00:56:12.000Z</time>
      </trkpt>
      <trkpt lat="39.8631" lon="-8.808043">
        <ele>42</ele>
        <time>1970-01-01T00:56:13.000Z</time>
      </trkpt>
      <trkpt lat="39.863129" lon="-8.808066">
        <ele>42.3</ele>
        <time>1970-01-01T00:56:14.000Z</time>
      </trkpt>
      <trkpt lat="39.863158" lon="-8.80809">
        <ele>42.3</ele>
        <time>1970-01-01T00:56:15.000Z</time>
      </trkpt>
      <trkpt lat="39.863188" lon="-8.808119">
        <ele>42.4</ele>
        <time>1970-01-01T00:56:16.000Z</time>
      </trkpt>
      <trkpt lat="39.863215" lon="-8.808148">
        <ele>42.6</ele>
        <time>1970-01-01T00:56:17.000Z</time>
      </trkpt>
      <trkpt lat="39.863245" lon="-8.808179">
        <ele>42.7</ele>
        <time>1970-01-01T00:56:18.000Z</time>
      </trkpt>
      <trkpt lat="39.863274" lon="-8.808207">
        <ele>42.7</ele>
        <time>1970-01-01T00:56:19.000Z</time>
      </trkpt>
      <trkpt lat="39.863301" lon="-8.808239">
        <ele>42.7</ele>
        <time>1970-01-01T00:56:20.000Z</time>
      </trkpt>
      <trkpt lat="39.863328" lon="-8.808275">
        <ele>42.9</ele>
        <time>1970-01-01T00:56:21.000Z</time>
      </trkpt>
      <trkpt lat="39.863359" lon="-8.808318">
        <ele>43</ele>
        <time>1970-01-01T00:56:22.000Z</time>
      </trkpt>
      <trkpt lat="39.863392" lon="-8.808359">
        <ele>43.3</ele>
        <time>1970-01-01T00:56:23.000Z</time>
      </trkpt>
      <trkpt lat="39.863426" lon="-8.808397">
        <ele>43.6</ele>
        <time>1970-01-01T00:56:24.000Z</time>
      </trkpt>
      <trkpt lat="39.86346" lon="-8.808434">
        <ele>43.8</ele>
        <time>1970-01-01T00:56:25.000Z</time>
      </trkpt>
      <trkpt lat="39.863493" lon="-8.808468">
        <ele>44</ele>
        <time>1970-01-01T00:56:26.000Z</time>
      </trkpt>
      <trkpt lat="39.863527" lon="-8.8085">
        <ele>44.3</ele>
        <time>1970-01-01T00:56:27.000Z</time>
      </trkpt>
      <trkpt lat="39.863565" lon="-8.80853">
        <ele>44.4</ele>
        <time>1970-01-01T00:56:28.000Z</time>
      </trkpt>
      <trkpt lat="39.863604" lon="-8.808558">
        <ele>44.8</ele>
        <time>1970-01-01T00:56:29.000Z</time>
      </trkpt>
      <trkpt lat="39.863645" lon="-8.808586">
        <ele>45</ele>
        <time>1970-01-01T00:56:30.000Z</time>
      </trkpt>
      <trkpt lat="39.863681" lon="-8.808613">
        <ele>45.1</ele>
        <time>1970-01-01T00:56:31.000Z</time>
      </trkpt>
      <trkpt lat="39.863717" lon="-8.808635">
        <ele>45.1</ele>
        <time>1970-01-01T00:56:32.000Z</time>
      </trkpt>
      <trkpt lat="39.863749" lon="-8.808658">
        <ele>45.3</ele>
        <time>1970-01-01T00:56:33.000Z</time>
      </trkpt>
      <trkpt lat="39.863778" lon="-8.808684">
        <ele>45.3</ele>
        <time>1970-01-01T00:56:34.000Z</time>
      </trkpt>
      <trkpt lat="39.863806" lon="-8.808711">
        <ele>45.5</ele>
        <time>1970-01-01T00:56:35.000Z</time>
      </trkpt>
      <trkpt lat="39.863829" lon="-8.808738">
        <ele>45.2</ele>
        <time>1970-01-01T00:56:36.000Z</time>
      </trkpt>
      <trkpt lat="39.863849" lon="-8.808761">
        <ele>45</ele>
        <time>1970-01-01T00:56:37.000Z</time>
      </trkpt>
      <trkpt lat="39.863869" lon="-8.808779">
        <ele>45.1</ele>
        <time>1970-01-01T00:56:38.000Z</time>
      </trkpt>
      <trkpt lat="39.863893" lon="-8.808797">
        <ele>45.1</ele>
        <time>1970-01-01T00:56:39.000Z</time>
      </trkpt>
      <trkpt lat="39.863926" lon="-8.808825">
        <ele>44.8</ele>
        <time>1970-01-01T00:56:40.000Z</time>
      </trkpt>
      <trkpt lat="39.863962" lon="-8.808858">
        <ele>44.6</ele>
        <time>1970-01-01T00:56:41.000Z</time>
      </trkpt>
      <trkpt lat="39.864001" lon="-8.80889">
        <ele>44.5</ele>
        <time>1970-01-01T00:56:42.000Z</time>
      </trkpt>
      <trkpt lat="39.864039" lon="-8.80892">
        <ele>44.6</ele>
        <time>1970-01-01T00:56:43.000Z</time>
      </trkpt>
      <trkpt lat="39.86408" lon="-8.808952">
        <ele>44.4</ele>
        <time>1970-01-01T00:56:44.000Z</time>
      </trkpt>
      <trkpt lat="39.864118" lon="-8.808983">
        <ele>44.2</ele>
        <time>1970-01-01T00:56:45.000Z</time>
      </trkpt>
      <trkpt lat="39.864152" lon="-8.809009">
        <ele>44.3</ele>
        <time>1970-01-01T00:56:46.000Z</time>
      </trkpt>
      <trkpt lat="39.86418" lon="-8.809029">
        <ele>44.1</ele>
        <time>1970-01-01T00:56:47.000Z</time>
      </trkpt>
      <trkpt lat="39.8642" lon="-8.809048">
        <ele>44.2</ele>
        <time>1970-01-01T00:56:48.000Z</time>
      </trkpt>
      <trkpt lat="39.864218" lon="-8.809067">
        <ele>43.9</ele>
        <time>1970-01-01T00:56:49.000Z</time>
      </trkpt>
      <trkpt lat="39.864235" lon="-8.809085">
        <ele>43.9</ele>
        <time>1970-01-01T00:56:50.000Z</time>
      </trkpt>
      <trkpt lat="39.864254" lon="-8.8091">
        <ele>43.9</ele>
        <time>1970-01-01T00:56:51.000Z</time>
      </trkpt>
      <trkpt lat="39.864272" lon="-8.809116">
        <ele>43.7</ele>
        <time>1970-01-01T00:56:52.000Z</time>
      </trkpt>
      <trkpt lat="39.864292" lon="-8.809133">
        <ele>43.7</ele>
        <time>1970-01-01T00:56:53.000Z</time>
      </trkpt>
      <trkpt lat="39.864316" lon="-8.80915">
        <ele>43.4</ele>
        <time>1970-01-01T00:56:54.000Z</time>
      </trkpt>
      <trkpt lat="39.86434" lon="-8.809168">
        <ele>43.5</ele>
        <time>1970-01-01T00:56:55.000Z</time>
      </trkpt>
      <trkpt lat="39.864366" lon="-8.809182">
        <ele>43.5</ele>
        <time>1970-01-01T00:56:56.000Z</time>
      </trkpt>
      <trkpt lat="39.864395" lon="-8.809196">
        <ele>43.3</ele>
        <time>1970-01-01T00:56:57.000Z</time>
      </trkpt>
      <trkpt lat="39.864423" lon="-8.809216">
        <ele>43.3</ele>
        <time>1970-01-01T00:56:58.000Z</time>
      </trkpt>
      <trkpt lat="39.864452" lon="-8.809243">
        <ele>43</ele>
        <time>1970-01-01T00:56:59.000Z</time>
      </trkpt>
      <trkpt lat="39.864478" lon="-8.809269">
        <ele>43</ele>
        <time>1970-01-01T00:57:00.000Z</time>
      </trkpt>
      <trkpt lat="39.864507" lon="-8.809296">
        <ele>42.7</ele>
        <time>1970-01-01T00:57:01.000Z</time>
      </trkpt>
      <trkpt lat="39.86454" lon="-8.809323">
        <ele>42.5</ele>
        <time>1970-01-01T00:57:02.000Z</time>
      </trkpt>
      <trkpt lat="39.864571" lon="-8.809346">
        <ele>42.4</ele>
        <time>1970-01-01T00:57:03.000Z</time>
      </trkpt>
      <trkpt lat="39.864603" lon="-8.809366">
        <ele>42.2</ele>
        <time>1970-01-01T00:57:04.000Z</time>
      </trkpt>
      <trkpt lat="39.864634" lon="-8.809385">
        <ele>42.1</ele>
        <time>1970-01-01T00:57:05.000Z</time>
      </trkpt>
      <trkpt lat="39.864665" lon="-8.809406">
        <ele>41.9</ele>
        <time>1970-01-01T00:57:06.000Z</time>
      </trkpt>
      <trkpt lat="39.864698" lon="-8.809427">
        <ele>41.9</ele>
        <time>1970-01-01T00:57:07.000Z</time>
      </trkpt>
      <trkpt lat="39.864729" lon="-8.809446">
        <ele>42</ele>
        <time>1970-01-01T00:57:08.000Z</time>
      </trkpt>
      <trkpt lat="39.864761" lon="-8.809463">
        <ele>41.8</ele>
        <time>1970-01-01T00:57:09.000Z</time>
      </trkpt>
      <trkpt lat="39.864788" lon="-8.809475">
        <ele>41.8</ele>
        <time>1970-01-01T00:57:10.000Z</time>
      </trkpt>
      <trkpt lat="39.864813" lon="-8.809486">
        <ele>41.8</ele>
        <time>1970-01-01T00:57:11.000Z</time>
      </trkpt>
      <trkpt lat="39.864835" lon="-8.809498">
        <ele>41.7</ele>
        <time>1970-01-01T00:57:12.000Z</time>
      </trkpt>
      <trkpt lat="39.864857" lon="-8.80951">
        <ele>41.7</ele>
        <time>1970-01-01T00:57:13.000Z</time>
      </trkpt>
      <trkpt lat="39.864878" lon="-8.809522">
        <ele>41.7</ele>
        <time>1970-01-01T00:57:14.000Z</time>
      </trkpt>
      <trkpt lat="39.864902" lon="-8.809537">
        <ele>41.5</ele>
        <time>1970-01-01T00:57:15.000Z</time>
      </trkpt>
      <trkpt lat="39.864929" lon="-8.809562">
        <ele>41.5</ele>
        <time>1970-01-01T00:57:16.000Z</time>
      </trkpt>
      <trkpt lat="39.864956" lon="-8.809593">
        <ele>41.2</ele>
        <time>1970-01-01T00:57:17.000Z</time>
      </trkpt>
      <trkpt lat="39.864986" lon="-8.809629">
        <ele>41</ele>
        <time>1970-01-01T00:57:18.000Z</time>
      </trkpt>
      <trkpt lat="39.865016" lon="-8.809664">
        <ele>40.6</ele>
        <time>1970-01-01T00:57:19.000Z</time>
      </trkpt>
      <trkpt lat="39.865042" lon="-8.809697">
        <ele>40.7</ele>
        <time>1970-01-01T00:57:20.000Z</time>
      </trkpt>
      <trkpt lat="39.865064" lon="-8.809733">
        <ele>40.5</ele>
        <time>1970-01-01T00:57:21.000Z</time>
      </trkpt>
      <trkpt lat="39.865082" lon="-8.809775">
        <ele>40.2</ele>
        <time>1970-01-01T00:57:22.000Z</time>
      </trkpt>
      <trkpt lat="39.865098" lon="-8.809821">
        <ele>40</ele>
        <time>1970-01-01T00:57:23.000Z</time>
      </trkpt>
      <trkpt lat="39.865118" lon="-8.809867">
        <ele>39.9</ele>
        <time>1970-01-01T00:57:24.000Z</time>
      </trkpt>
      <trkpt lat="39.865143" lon="-8.80991">
        <ele>39.8</ele>
        <time>1970-01-01T00:57:25.000Z</time>
      </trkpt>
      <trkpt lat="39.865169" lon="-8.809949">
        <ele>39.7</ele>
        <time>1970-01-01T00:57:26.000Z</time>
      </trkpt>
      <trkpt lat="39.865198" lon="-8.809983">
        <ele>39.8</ele>
        <time>1970-01-01T00:57:27.000Z</time>
      </trkpt>
      <trkpt lat="39.865226" lon="-8.810012">
        <ele>39.8</ele>
        <time>1970-01-01T00:57:28.000Z</time>
      </trkpt>
      <trkpt lat="39.865253" lon="-8.810038">
        <ele>39.9</ele>
        <time>1970-01-01T00:57:29.000Z</time>
      </trkpt>
      <trkpt lat="39.86528" lon="-8.810059">
        <ele>39.9</ele>
        <time>1970-01-01T00:57:30.000Z</time>
      </trkpt>
      <trkpt lat="39.865305" lon="-8.810074">
        <ele>40</ele>
        <time>1970-01-01T00:57:31.000Z</time>
      </trkpt>
      <trkpt lat="39.865335" lon="-8.810088">
        <ele>40.1</ele>
        <time>1970-01-01T00:57:32.000Z</time>
      </trkpt>
      <trkpt lat="39.865371" lon="-8.8101">
        <ele>40.2</ele>
        <time>1970-01-01T00:57:33.000Z</time>
      </trkpt>
      <trkpt lat="39.86541" lon="-8.810108">
        <ele>40.2</ele>
        <time>1970-01-01T00:57:34.000Z</time>
      </trkpt>
      <trkpt lat="39.865448" lon="-8.810112">
        <ele>40.3</ele>
        <time>1970-01-01T00:57:35.000Z</time>
      </trkpt>
      <trkpt lat="39.865483" lon="-8.810113">
        <ele>40.4</ele>
        <time>1970-01-01T00:57:36.000Z</time>
      </trkpt>
      <trkpt lat="39.865517" lon="-8.810114">
        <ele>40.4</ele>
        <time>1970-01-01T00:57:37.000Z</time>
      </trkpt>
      <trkpt lat="39.865553" lon="-8.810112">
        <ele>40.4</ele>
        <time>1970-01-01T00:57:38.000Z</time>
      </trkpt>
      <trkpt lat="39.865588" lon="-8.81011">
        <ele>40.3</ele>
        <time>1970-01-01T00:57:39.000Z</time>
      </trkpt>
      <trkpt lat="39.865627" lon="-8.810102">
        <ele>40.3</ele>
        <time>1970-01-01T00:57:40.000Z</time>
      </trkpt>
      <trkpt lat="39.865663" lon="-8.810091">
        <ele>40.3</ele>
        <time>1970-01-01T00:57:41.000Z</time>
      </trkpt>
      <trkpt lat="39.865694" lon="-8.810074">
        <ele>40.2</ele>
        <time>1970-01-01T00:57:42.000Z</time>
      </trkpt>
      <trkpt lat="39.865721" lon="-8.81005">
        <ele>40</ele>
        <time>1970-01-01T00:57:43.000Z</time>
      </trkpt>
      <trkpt lat="39.865748" lon="-8.810027">
        <ele>40</ele>
        <time>1970-01-01T00:57:44.000Z</time>
      </trkpt>
      <trkpt lat="39.865777" lon="-8.810008">
        <ele>39.8</ele>
        <time>1970-01-01T00:57:45.000Z</time>
      </trkpt>
      <trkpt lat="39.86581" lon="-8.809998">
        <ele>39.8</ele>
        <time>1970-01-01T00:57:46.000Z</time>
      </trkpt>
      <trkpt lat="39.865846" lon="-8.809991">
        <ele>39.6</ele>
        <time>1970-01-01T00:57:47.000Z</time>
      </trkpt>
      <trkpt lat="39.865884" lon="-8.809988">
        <ele>39.4</ele>
        <time>1970-01-01T00:57:48.000Z</time>
      </trkpt>
      <trkpt lat="39.865922" lon="-8.809989">
        <ele>39.2</ele>
        <time>1970-01-01T00:57:49.000Z</time>
      </trkpt>
      <trkpt lat="39.86596" lon="-8.81">
        <ele>39</ele>
        <time>1970-01-01T00:57:50.000Z</time>
      </trkpt>
      <trkpt lat="39.866" lon="-8.810024">
        <ele>38.6</ele>
        <time>1970-01-01T00:57:51.000Z</time>
      </trkpt>
      <trkpt lat="39.866043" lon="-8.81006">
        <ele>38.1</ele>
        <time>1970-01-01T00:57:52.000Z</time>
      </trkpt>
      <trkpt lat="39.86609" lon="-8.810102">
        <ele>37.6</ele>
        <time>1970-01-01T00:57:53.000Z</time>
      </trkpt>
      <trkpt lat="39.866138" lon="-8.810148">
        <ele>37.1</ele>
        <time>1970-01-01T00:57:54.000Z</time>
      </trkpt>
      <trkpt lat="39.866187" lon="-8.810191">
        <ele>36.4</ele>
        <time>1970-01-01T00:57:55.000Z</time>
      </trkpt>
      <trkpt lat="39.866234" lon="-8.810234">
        <ele>35.8</ele>
        <time>1970-01-01T00:57:56.000Z</time>
      </trkpt>
      <trkpt lat="39.866283" lon="-8.810278">
        <ele>35</ele>
        <time>1970-01-01T00:57:57.000Z</time>
      </trkpt>
      <trkpt lat="39.866335" lon="-8.810321">
        <ele>34.5</ele>
        <time>1970-01-01T00:57:58.000Z</time>
      </trkpt>
      <trkpt lat="39.866388" lon="-8.810364">
        <ele>34</ele>
        <time>1970-01-01T00:57:59.000Z</time>
      </trkpt>
      <trkpt lat="39.866443" lon="-8.810402">
        <ele>33.7</ele>
        <time>1970-01-01T00:58:00.000Z</time>
      </trkpt>
      <trkpt lat="39.866498" lon="-8.810437">
        <ele>33.5</ele>
        <time>1970-01-01T00:58:01.000Z</time>
      </trkpt>
      <trkpt lat="39.86655" lon="-8.810475">
        <ele>33.9</ele>
        <time>1970-01-01T00:58:02.000Z</time>
      </trkpt>
      <trkpt lat="39.866605" lon="-8.810512">
        <ele>34.2</ele>
        <time>1970-01-01T00:58:03.000Z</time>
      </trkpt>
      <trkpt lat="39.866657" lon="-8.810542">
        <ele>34.3</ele>
        <time>1970-01-01T00:58:04.000Z</time>
      </trkpt>
      <trkpt lat="39.866709" lon="-8.810572">
        <ele>34.5</ele>
        <time>1970-01-01T00:58:05.000Z</time>
      </trkpt>
      <trkpt lat="39.866761" lon="-8.810595">
        <ele>34.8</ele>
        <time>1970-01-01T00:58:06.000Z</time>
      </trkpt>
      <trkpt lat="39.866812" lon="-8.810614">
        <ele>35</ele>
        <time>1970-01-01T00:58:07.000Z</time>
      </trkpt>
      <trkpt lat="39.866864" lon="-8.810627">
        <ele>35.5</ele>
        <time>1970-01-01T00:58:08.000Z</time>
      </trkpt>
      <trkpt lat="39.866912" lon="-8.810636">
        <ele>35.7</ele>
        <time>1970-01-01T00:58:09.000Z</time>
      </trkpt>
      <trkpt lat="39.866956" lon="-8.810646">
        <ele>35.8</ele>
        <time>1970-01-01T00:58:10.000Z</time>
      </trkpt>
      <trkpt lat="39.866995" lon="-8.810658">
        <ele>36</ele>
        <time>1970-01-01T00:58:11.000Z</time>
      </trkpt>
      <trkpt lat="39.867025" lon="-8.810676">
        <ele>36</ele>
        <time>1970-01-01T00:58:12.000Z</time>
      </trkpt>
      <trkpt lat="39.867044" lon="-8.810701">
        <ele>36</ele>
        <time>1970-01-01T00:58:13.000Z</time>
      </trkpt>
      <trkpt lat="39.867049" lon="-8.810731">
        <ele>36</ele>
        <time>1970-01-01T00:58:14.000Z</time>
      </trkpt>
      <trkpt lat="39.867045" lon="-8.810773">
        <ele>36</ele>
        <time>1970-01-01T00:58:15.000Z</time>
      </trkpt>
      <trkpt lat="39.867037" lon="-8.810815">
        <ele>36</ele>
        <time>1970-01-01T00:58:16.000Z</time>
      </trkpt>
      <trkpt lat="39.86703" lon="-8.810853">
        <ele>36.1</ele>
        <time>1970-01-01T00:58:17.000Z</time>
      </trkpt>
      <trkpt lat="39.867026" lon="-8.810889">
        <ele>36.1</ele>
        <time>1970-01-01T00:58:18.000Z</time>
      </trkpt>
      <trkpt lat="39.867029" lon="-8.810921">
        <ele>36.6</ele>
        <time>1970-01-01T00:58:19.000Z</time>
      </trkpt>
      <trkpt lat="39.867041" lon="-8.810951">
        <ele>36.9</ele>
        <time>1970-01-01T00:58:20.000Z</time>
      </trkpt>
      <trkpt lat="39.867059" lon="-8.810984">
        <ele>36.9</ele>
        <time>1970-01-01T00:58:21.000Z</time>
      </trkpt>
      <trkpt lat="39.867088" lon="-8.811018">
        <ele>37.4</ele>
        <time>1970-01-01T00:58:22.000Z</time>
      </trkpt>
      <trkpt lat="39.86712" lon="-8.811048">
        <ele>38.1</ele>
        <time>1970-01-01T00:58:23.000Z</time>
      </trkpt>
      <trkpt lat="39.867154" lon="-8.811079">
        <ele>38.5</ele>
        <time>1970-01-01T00:58:24.000Z</time>
      </trkpt>
      <trkpt lat="39.867189" lon="-8.811111">
        <ele>38.5</ele>
        <time>1970-01-01T00:58:25.000Z</time>
      </trkpt>
      <trkpt lat="39.867222" lon="-8.81114">
        <ele>38.8</ele>
        <time>1970-01-01T00:58:26.000Z</time>
      </trkpt>
      <trkpt lat="39.867256" lon="-8.811162">
        <ele>38.7</ele>
        <time>1970-01-01T00:58:27.000Z</time>
      </trkpt>
      <trkpt lat="39.867289" lon="-8.811176">
        <ele>38.9</ele>
        <time>1970-01-01T00:58:28.000Z</time>
      </trkpt>
      <trkpt lat="39.867322" lon="-8.811181">
        <ele>38.8</ele>
        <time>1970-01-01T00:58:29.000Z</time>
      </trkpt>
      <trkpt lat="39.867355" lon="-8.811179">
        <ele>38.8</ele>
        <time>1970-01-01T00:58:30.000Z</time>
      </trkpt>
      <trkpt lat="39.867391" lon="-8.811173">
        <ele>38.6</ele>
        <time>1970-01-01T00:58:31.000Z</time>
      </trkpt>
      <trkpt lat="39.867428" lon="-8.811166">
        <ele>38.6</ele>
        <time>1970-01-01T00:58:32.000Z</time>
      </trkpt>
      <trkpt lat="39.867467" lon="-8.81116">
        <ele>38.4</ele>
        <time>1970-01-01T00:58:33.000Z</time>
      </trkpt>
      <trkpt lat="39.867505" lon="-8.811158">
        <ele>38.4</ele>
        <time>1970-01-01T00:58:34.000Z</time>
      </trkpt>
      <trkpt lat="39.867545" lon="-8.811158">
        <ele>38.3</ele>
        <time>1970-01-01T00:58:35.000Z</time>
      </trkpt>
      <trkpt lat="39.867583" lon="-8.811159">
        <ele>38.3</ele>
        <time>1970-01-01T00:58:36.000Z</time>
      </trkpt>
      <trkpt lat="39.867619" lon="-8.811158">
        <ele>38.2</ele>
        <time>1970-01-01T00:58:37.000Z</time>
      </trkpt>
      <trkpt lat="39.867652" lon="-8.811155">
        <ele>38.1</ele>
        <time>1970-01-01T00:58:38.000Z</time>
      </trkpt>
      <trkpt lat="39.867683" lon="-8.81115">
        <ele>38</ele>
        <time>1970-01-01T00:58:39.000Z</time>
      </trkpt>
      <trkpt lat="39.867712" lon="-8.811144">
        <ele>37.8</ele>
        <time>1970-01-01T00:58:40.000Z</time>
      </trkpt>
      <trkpt lat="39.867737" lon="-8.811136">
        <ele>37.7</ele>
        <time>1970-01-01T00:58:41.000Z</time>
      </trkpt>
      <trkpt lat="39.867761" lon="-8.811128">
        <ele>37.5</ele>
        <time>1970-01-01T00:58:42.000Z</time>
      </trkpt>
      <trkpt lat="39.867783" lon="-8.811126">
        <ele>37.5</ele>
        <time>1970-01-01T00:58:43.000Z</time>
      </trkpt>
      <trkpt lat="39.867804" lon="-8.811132">
        <ele>37.3</ele>
        <time>1970-01-01T00:58:44.000Z</time>
      </trkpt>
      <trkpt lat="39.867825" lon="-8.811144">
        <ele>37.1</ele>
        <time>1970-01-01T00:58:45.000Z</time>
      </trkpt>
      <trkpt lat="39.867845" lon="-8.811161">
        <ele>37.1</ele>
        <time>1970-01-01T00:58:46.000Z</time>
      </trkpt>
      <trkpt lat="39.867866" lon="-8.811182">
        <ele>37</ele>
        <time>1970-01-01T00:58:47.000Z</time>
      </trkpt>
      <trkpt lat="39.867883" lon="-8.81121">
        <ele>37</ele>
        <time>1970-01-01T00:58:48.000Z</time>
      </trkpt>
      <trkpt lat="39.867902" lon="-8.811242">
        <ele>36.9</ele>
        <time>1970-01-01T00:58:49.000Z</time>
      </trkpt>
      <trkpt lat="39.867919" lon="-8.811278">
        <ele>36.7</ele>
        <time>1970-01-01T00:58:50.000Z</time>
      </trkpt>
      <trkpt lat="39.867931" lon="-8.811315">
        <ele>36.7</ele>
        <time>1970-01-01T00:58:51.000Z</time>
      </trkpt>
      <trkpt lat="39.867939" lon="-8.811356">
        <ele>36.7</ele>
        <time>1970-01-01T00:58:52.000Z</time>
      </trkpt>
      <trkpt lat="39.867944" lon="-8.811404">
        <ele>36.7</ele>
        <time>1970-01-01T00:58:54.000Z</time>
      </trkpt>
      <trkpt lat="39.867952" lon="-8.811458">
        <ele>36.5</ele>
        <time>1970-01-01T00:58:55.000Z</time>
      </trkpt>
      <trkpt lat="39.867963" lon="-8.811505">
        <ele>36.4</ele>
        <time>1970-01-01T00:58:56.000Z</time>
      </trkpt>
      <trkpt lat="39.867977" lon="-8.811548">
        <ele>36.4</ele>
        <time>1970-01-01T00:58:57.000Z</time>
      </trkpt>
      <trkpt lat="39.867993" lon="-8.811583">
        <ele>36</ele>
        <time>1970-01-01T00:58:58.000Z</time>
      </trkpt>
      <trkpt lat="39.868005" lon="-8.811619">
        <ele>35.9</ele>
        <time>1970-01-01T00:58:59.000Z</time>
      </trkpt>
      <trkpt lat="39.868011" lon="-8.811651">
        <ele>35.8</ele>
        <time>1970-01-01T00:59:00.000Z</time>
      </trkpt>
      <trkpt lat="39.86801" lon="-8.81168">
        <ele>35.7</ele>
        <time>1970-01-01T00:59:01.000Z</time>
      </trkpt>
      <trkpt lat="39.868003" lon="-8.811705">
        <ele>35.7</ele>
        <time>1970-01-01T00:59:02.000Z</time>
      </trkpt>
      <trkpt lat="39.86799" lon="-8.811725">
        <ele>35.6</ele>
        <time>1970-01-01T00:59:03.000Z</time>
      </trkpt>
      <trkpt lat="39.867973" lon="-8.81174">
        <ele>35.9</ele>
        <time>1970-01-01T00:59:04.000Z</time>
      </trkpt>
      <trkpt lat="39.867954" lon="-8.811752">
        <ele>35.9</ele>
        <time>1970-01-01T00:59:05.000Z</time>
      </trkpt>
      <trkpt lat="39.867937" lon="-8.811763">
        <ele>36.2</ele>
        <time>1970-01-01T00:59:06.000Z</time>
      </trkpt>
      <trkpt lat="39.867921" lon="-8.811771">
        <ele>36</ele>
        <time>1970-01-01T00:59:07.000Z</time>
      </trkpt>
      <trkpt lat="39.867876" lon="-8.811794">
        <ele>36.7</ele>
        <time>1970-01-01T00:59:09.000Z</time>
      </trkpt>
      <trkpt lat="39.867876" lon="-8.811797">
        <ele>36.7</ele>
        <time>1970-01-01T00:59:10.000Z</time>
      </trkpt>
      <trkpt lat="39.867877" lon="-8.811804">
        <ele>36.7</ele>
        <time>1970-01-01T00:59:11.000Z</time>
      </trkpt>
      <trkpt lat="39.867879" lon="-8.811814">
        <ele>36.5</ele>
        <time>1970-01-01T00:59:12.000Z</time>
      </trkpt>
      <trkpt lat="39.867882" lon="-8.811821">
        <ele>36.5</ele>
        <time>1970-01-01T00:59:13.000Z</time>
      </trkpt>
      <trkpt lat="39.867887" lon="-8.811823">
        <ele>36.2</ele>
        <time>1970-01-01T00:59:14.000Z</time>
      </trkpt>
      <trkpt lat="39.867894" lon="-8.811825">
        <ele>36.2</ele>
        <time>1970-01-01T00:59:15.000Z</time>
      </trkpt>
      <trkpt lat="39.867899" lon="-8.811828">
        <ele>36.2</ele>
        <time>1970-01-01T00:59:16.000Z</time>
      </trkpt>
      <trkpt lat="39.867916" lon="-8.811856">
        <ele>36</ele>
        <time>1970-01-01T00:59:17.000Z</time>
      </trkpt>
      <trkpt lat="39.867917" lon="-8.811856">
        <ele>36</ele>
        <time>1970-01-01T00:59:18.000Z</time>
      </trkpt>
      <trkpt lat="39.867919" lon="-8.811857">
        <ele>35.7</ele>
        <time>1970-01-01T00:59:19.000Z</time>
      </trkpt>
      <trkpt lat="39.867925" lon="-8.811858">
        <ele>35.7</ele>
        <time>1970-01-01T00:59:20.000Z</time>
      </trkpt>
      <trkpt lat="39.867931" lon="-8.81186">
        <ele>35.7</ele>
        <time>1970-01-01T00:59:21.000Z</time>
      </trkpt>
      <trkpt lat="39.867936" lon="-8.811861">
        <ele>35.7</ele>
        <time>1970-01-01T00:59:22.000Z</time>
      </trkpt>
      <trkpt lat="39.867943" lon="-8.811859">
        <ele>35.7</ele>
        <time>1970-01-01T00:59:24.000Z</time>
      </trkpt>
      <trkpt lat="39.867942" lon="-8.81186">
        <ele>35.7</ele>
        <time>1970-01-01T00:59:25.000Z</time>
      </trkpt>
      <trkpt lat="39.867941" lon="-8.811862">
        <ele>35.7</ele>
        <time>1970-01-01T00:59:26.000Z</time>
      </trkpt>
      <trkpt lat="39.867938" lon="-8.811865">
        <ele>35.7</ele>
        <time>1970-01-01T00:59:27.000Z</time>
      </trkpt>
      <trkpt lat="39.867936" lon="-8.811867">
        <ele>35.7</ele>
        <time>1970-01-01T00:59:28.000Z</time>
      </trkpt>
      <trkpt lat="39.867931" lon="-8.81187">
        <ele>35.7</ele>
        <time>1970-01-01T00:59:29.000Z</time>
      </trkpt>
      <trkpt lat="39.867923" lon="-8.811874">
        <ele>35.7</ele>
        <time>1970-01-01T00:59:30.000Z</time>
      </trkpt>
      <trkpt lat="39.867913" lon="-8.811877">
        <ele>36</ele>
        <time>1970-01-01T00:59:31.000Z</time>
      </trkpt>
      <trkpt lat="39.867902" lon="-8.81188">
        <ele>36</ele>
        <time>1970-01-01T00:59:32.000Z</time>
      </trkpt>
      <trkpt lat="39.867888" lon="-8.811883">
        <ele>36</ele>
        <time>1970-01-01T00:59:33.000Z</time>
      </trkpt>
      <trkpt lat="39.867872" lon="-8.811885">
        <ele>36.4</ele>
        <time>1970-01-01T00:59:34.000Z</time>
      </trkpt>
      <trkpt lat="39.867855" lon="-8.811888">
        <ele>36.4</ele>
        <time>1970-01-01T00:59:35.000Z</time>
      </trkpt>
      <trkpt lat="39.86782" lon="-8.811909">
        <ele>36.6</ele>
        <time>1970-01-01T00:59:38.000Z</time>
      </trkpt>
      <trkpt lat="39.867819" lon="-8.811909">
        <ele>36.6</ele>
        <time>1970-01-01T00:59:39.000Z</time>
      </trkpt>
      <trkpt lat="39.867819" lon="-8.811912">
        <ele>36.6</ele>
        <time>1970-01-01T00:59:40.000Z</time>
      </trkpt>
      <trkpt lat="39.867817" lon="-8.811915">
        <ele>36.9</ele>
        <time>1970-01-01T00:59:41.000Z</time>
      </trkpt>
      <trkpt lat="39.867816" lon="-8.81192">
        <ele>36.9</ele>
        <time>1970-01-01T00:59:42.000Z</time>
      </trkpt>
      <trkpt lat="39.867814" lon="-8.811927">
        <ele>36.9</ele>
        <time>1970-01-01T00:59:43.000Z</time>
      </trkpt>
      <trkpt lat="39.867811" lon="-8.811935">
        <ele>36.9</ele>
        <time>1970-01-01T00:59:44.000Z</time>
      </trkpt>
      <trkpt lat="39.867435" lon="-8.812936">
        <ele>42</ele>
        <time>1970-01-01T01:00:35.000Z</time>
      </trkpt>
      <trkpt lat="39.86747" lon="-8.812827">
        <ele>41.6</ele>
        <time>1970-01-01T01:00:36.000Z</time>
      </trkpt>
      <trkpt lat="39.867553" lon="-8.81268">
        <ele>40.3</ele>
        <time>1970-01-01T01:00:37.000Z</time>
      </trkpt>
      <trkpt lat="39.867615" lon="-8.812556">
        <ele>38.9</ele>
        <time>1970-01-01T01:00:38.000Z</time>
      </trkpt>
      <trkpt lat="39.867682" lon="-8.812456">
        <ele>38</ele>
        <time>1970-01-01T01:00:39.000Z</time>
      </trkpt>
      <trkpt lat="39.867764" lon="-8.812331">
        <ele>36.8</ele>
        <time>1970-01-01T01:00:40.000Z</time>
      </trkpt>
      <trkpt lat="39.867845" lon="-8.812206">
        <ele>36</ele>
        <time>1970-01-01T01:00:41.000Z</time>
      </trkpt>
      <trkpt lat="39.867841" lon="-8.812186">
        <ele>36</ele>
        <time>1970-01-01T01:00:42.000Z</time>
      </trkpt>
      <trkpt lat="39.867793" lon="-8.812109">
        <ele>36.4</ele>
        <time>1970-01-01T01:00:44.000Z</time>
      </trkpt>
      <trkpt lat="39.867786" lon="-8.812106">
        <ele>36.5</ele>
        <time>1970-01-01T01:00:46.000Z</time>
      </trkpt>
      <trkpt lat="39.867787" lon="-8.812105">
        <ele>36.5</ele>
        <time>1970-01-01T01:00:47.000Z</time>
      </trkpt>
      <trkpt lat="39.867789" lon="-8.812101">
        <ele>36.5</ele>
        <time>1970-01-01T01:00:48.000Z</time>
      </trkpt>
      <trkpt lat="39.867796" lon="-8.812092">
        <ele>36.5</ele>
        <time>1970-01-01T01:00:49.000Z</time>
      </trkpt>
      <trkpt lat="39.867806" lon="-8.812079">
        <ele>36.5</ele>
        <time>1970-01-01T01:00:50.000Z</time>
      </trkpt>
      <trkpt lat="39.867846" lon="-8.812049">
        <ele>36.2</ele>
        <time>1970-01-01T01:00:52.000Z</time>
      </trkpt>
      <trkpt lat="39.86785" lon="-8.812049">
        <ele>36.2</ele>
        <time>1970-01-01T01:00:53.000Z</time>
      </trkpt>
      <trkpt lat="39.867851" lon="-8.812049">
        <ele>36.2</ele>
        <time>1970-01-01T01:00:54.000Z</time>
      </trkpt>
      <trkpt lat="39.867853" lon="-8.812048">
        <ele>35.8</ele>
        <time>1970-01-01T01:00:55.000Z</time>
      </trkpt>
      <trkpt lat="39.867854" lon="-8.812048">
        <ele>35.8</ele>
        <time>1970-01-01T01:00:56.000Z</time>
      </trkpt>
      <trkpt lat="39.867855" lon="-8.812048">
        <ele>35.8</ele>
        <time>1970-01-01T01:00:57.000Z</time>
      </trkpt>
      <trkpt lat="39.867856" lon="-8.812048">
        <ele>35.8</ele>
        <time>1970-01-01T01:00:58.000Z</time>
      </trkpt>
      <trkpt lat="39.867857" lon="-8.812047">
        <ele>35.8</ele>
        <time>1970-01-01T01:00:59.000Z</time>
      </trkpt>
      <trkpt lat="39.867858" lon="-8.812047">
        <ele>35.8</ele>
        <time>1970-01-01T01:01:00.000Z</time>
      </trkpt>
      <trkpt lat="39.86786" lon="-8.812047">
        <ele>35.8</ele>
        <time>1970-01-01T01:01:02.000Z</time>
      </trkpt>
      <trkpt lat="39.867861" lon="-8.812047">
        <ele>35.8</ele>
        <time>1970-01-01T01:01:03.000Z</time>
      </trkpt>
      <trkpt lat="39.867862" lon="-8.812047">
        <ele>35.8</ele>
        <time>1970-01-01T01:01:04.000Z</time>
      </trkpt>
      <trkpt lat="39.867863" lon="-8.812046">
        <ele>35.8</ele>
        <time>1970-01-01T01:01:05.000Z</time>
      </trkpt>
      <trkpt lat="39.867864" lon="-8.812046">
        <ele>35.8</ele>
        <time>1970-01-01T01:01:06.000Z</time>
      </trkpt>
      <trkpt lat="39.867865" lon="-8.812046">
        <ele>35.8</ele>
        <time>1970-01-01T01:01:08.000Z</time>
      </trkpt>
      <trkpt lat="39.867867" lon="-8.812046">
        <ele>35.8</ele>
        <time>1970-01-01T01:01:10.000Z</time>
      </trkpt>
      <trkpt lat="39.867868" lon="-8.812045">
        <ele>35.8</ele>
        <time>1970-01-01T01:01:11.000Z</time>
      </trkpt>
      <trkpt lat="39.867869" lon="-8.812045">
        <ele>35.8</ele>
        <time>1970-01-01T01:01:12.000Z</time>
      </trkpt>
      <trkpt lat="39.86787" lon="-8.812045">
        <ele>35.8</ele>
        <time>1970-01-01T01:01:13.000Z</time>
      </trkpt>
      <trkpt lat="39.867871" lon="-8.812045">
        <ele>35.8</ele>
        <time>1970-01-01T01:01:16.000Z</time>
      </trkpt>
      <trkpt lat="39.867872" lon="-8.812044">
        <ele>35.8</ele>
        <time>1970-01-01T01:01:23.000Z</time>
      </trkpt>
      <trkpt lat="39.867874" lon="-8.812044">
        <ele>35.8</ele>
        <time>1970-01-01T01:01:24.000Z</time>
      </trkpt>
      <trkpt lat="39.867875" lon="-8.812044">
        <ele>35.8</ele>
        <time>1970-01-01T01:01:25.000Z</time>
      </trkpt>
      <trkpt lat="39.867876" lon="-8.812044">
        <ele>35.8</ele>
        <time>1970-01-01T01:01:26.000Z</time>
      </trkpt>
      <trkpt lat="39.867877" lon="-8.812044">
        <ele>35.8</ele>
        <time>1970-01-01T01:01:28.000Z</time>
      </trkpt>
      <trkpt lat="39.867878" lon="-8.812043">
        <ele>35.8</ele>
        <time>1970-01-01T01:01:30.000Z</time>
      </trkpt>
      <trkpt lat="39.867879" lon="-8.812043">
        <ele>35.8</ele>
        <time>1970-01-01T01:01:31.000Z</time>
      </trkpt>
      <trkpt lat="39.867881" lon="-8.812043">
        <ele>35.8</ele>
        <time>1970-01-01T01:01:32.000Z</time>
      </trkpt>
      <trkpt lat="39.867882" lon="-8.812043">
        <ele>35.8</ele>
        <time>1970-01-01T01:01:36.000Z</time>
      </trkpt>
      <trkpt lat="39.867883" lon="-8.812042">
        <ele>35.8</ele>
        <time>1970-01-01T01:01:37.000Z</time>
      </trkpt>
      <trkpt lat="39.867884" lon="-8.812042">
        <ele>35.8</ele>
        <time>1970-01-01T01:01:38.000Z</time>
      </trkpt>
      <trkpt lat="39.867885" lon="-8.812042">
        <ele>35.5</ele>
        <time>1970-01-01T01:01:40.000Z</time>
      </trkpt>
      <trkpt lat="39.867886" lon="-8.812042">
        <ele>35.5</ele>
        <time>1970-01-01T01:01:42.000Z</time>
      </trkpt>
      <trkpt lat="39.867888" lon="-8.812042">
        <ele>35.5</ele>
        <time>1970-01-01T01:01:43.000Z</time>
      </trkpt>
      <trkpt lat="39.867889" lon="-8.812041">
        <ele>35.5</ele>
        <time>1970-01-01T01:01:44.000Z</time>
      </trkpt>
      <trkpt lat="39.86789" lon="-8.812041">
        <ele>35.5</ele>
        <time>1970-01-01T01:01:45.000Z</time>
      </trkpt>
      <trkpt lat="39.867891" lon="-8.812041">
        <ele>35.5</ele>
        <time>1970-01-01T01:01:46.000Z</time>
      </trkpt>
      <trkpt lat="39.867892" lon="-8.812041">
        <ele>35.5</ele>
        <time>1970-01-01T01:01:48.000Z</time>
      </trkpt>
      <trkpt lat="39.867893" lon="-8.81204">
        <ele>35.5</ele>
        <time>1970-01-01T01:01:49.000Z</time>
      </trkpt>
      <trkpt lat="39.867895" lon="-8.81204">
        <ele>35.5</ele>
        <time>1970-01-01T01:01:50.000Z</time>
      </trkpt>
      <trkpt lat="39.867896" lon="-8.81204">
        <ele>35.5</ele>
        <time>1970-01-01T01:01:51.000Z</time>
      </trkpt>
      <trkpt lat="39.867897" lon="-8.81204">
        <ele>35.5</ele>
        <time>1970-01-01T01:01:52.000Z</time>
      </trkpt>
      <trkpt lat="39.867898" lon="-8.81204">
        <ele>35.5</ele>
        <time>1970-01-01T01:01:53.000Z</time>
      </trkpt>
      <trkpt lat="39.867899" lon="-8.812039">
        <ele>35.5</ele>
        <time>1970-01-01T01:01:54.000Z</time>
      </trkpt>
      <trkpt lat="39.8679" lon="-8.812039">
        <ele>35.5</ele>
        <time>1970-01-01T01:01:55.000Z</time>
      </trkpt>
      <trkpt lat="39.867902" lon="-8.812039">
        <ele>35.5</ele>
        <time>1970-01-01T01:01:57.000Z</time>
      </trkpt>
      <trkpt lat="39.867903" lon="-8.812039">
        <ele>35.5</ele>
        <time>1970-01-01T01:01:58.000Z</time>
      </trkpt>
      <trkpt lat="39.867904" lon="-8.812038">
        <ele>35.5</ele>
        <time>1970-01-01T01:01:59.000Z</time>
      </trkpt>
      <trkpt lat="39.867905" lon="-8.812038">
        <ele>35.5</ele>
        <time>1970-01-01T01:02:00.000Z</time>
      </trkpt>
      <trkpt lat="39.867906" lon="-8.812038">
        <ele>35.5</ele>
        <time>1970-01-01T01:02:01.000Z</time>
      </trkpt>
      <trkpt lat="39.867907" lon="-8.812038">
        <ele>35.5</ele>
        <time>1970-01-01T01:02:20.000Z</time>
      </trkpt>
      <trkpt lat="39.867909" lon="-8.812038">
        <ele>35.5</ele>
        <time>1970-01-01T01:02:22.000Z</time>
      </trkpt>
      <trkpt lat="39.86791" lon="-8.812037">
        <ele>35.5</ele>
        <time>1970-01-01T01:02:23.000Z</time>
      </trkpt>
      <trkpt lat="39.867911" lon="-8.812037">
        <ele>35.5</ele>
        <time>1970-01-01T01:02:28.000Z</time>
      </trkpt>
      <trkpt lat="39.867912" lon="-8.812037">
        <ele>35.5</ele>
        <time>1970-01-01T01:02:33.000Z</time>
      </trkpt>
      <trkpt lat="39.867913" lon="-8.812037">
        <ele>35.5</ele>
        <time>1970-01-01T01:02:34.000Z</time>
      </trkpt>
      <trkpt lat="39.867914" lon="-8.812036">
        <ele>35.5</ele>
        <time>1970-01-01T01:02:35.000Z</time>
      </trkpt>
      <trkpt lat="39.867916" lon="-8.812036">
        <ele>35.5</ele>
        <time>1970-01-01T01:02:36.000Z</time>
      </trkpt>
      <trkpt lat="39.867917" lon="-8.812036">
        <ele>35.5</ele>
        <time>1970-01-01T01:02:37.000Z</time>
      </trkpt>
      <trkpt lat="39.867918" lon="-8.812036">
        <ele>35.1</ele>
        <time>1970-01-01T01:02:38.000Z</time>
      </trkpt>
      <trkpt lat="39.867919" lon="-8.812035">
        <ele>35.1</ele>
        <time>1970-01-01T01:02:39.000Z</time>
      </trkpt>
      <trkpt lat="39.86792" lon="-8.812035">
        <ele>35.1</ele>
        <time>1970-01-01T01:02:40.000Z</time>
      </trkpt>
      <trkpt lat="39.867921" lon="-8.812035">
        <ele>35.1</ele>
        <time>1970-01-01T01:02:41.000Z</time>
      </trkpt>
      <trkpt lat="39.867923" lon="-8.812035">
        <ele>35.1</ele>
        <time>1970-01-01T01:02:45.000Z</time>
      </trkpt>
      <trkpt lat="39.867924" lon="-8.812035">
        <ele>35.1</ele>
        <time>1970-01-01T01:02:47.000Z</time>
      </trkpt>
      <trkpt lat="39.867925" lon="-8.812034">
        <ele>35.1</ele>
        <time>1970-01-01T01:02:48.000Z</time>
      </trkpt>
      <trkpt lat="39.867926" lon="-8.812034">
        <ele>35.1</ele>
        <time>1970-01-01T01:03:09.000Z</time>
      </trkpt>
      <trkpt lat="39.867927" lon="-8.812034">
        <ele>35.1</ele>
        <time>1970-01-01T01:03:10.000Z</time>
      </trkpt>
      <trkpt lat="39.867928" lon="-8.812034">
        <ele>35.1</ele>
        <time>1970-01-01T01:03:15.000Z</time>
      </trkpt>
      <trkpt lat="39.86793" lon="-8.812033">
        <ele>35.1</ele>
        <time>1970-01-01T01:03:16.000Z</time>
      </trkpt>
      <trkpt lat="39.867931" lon="-8.812033">
        <ele>35.1</ele>
        <time>1970-01-01T01:03:17.000Z</time>
      </trkpt>
      <trkpt lat="39.867932" lon="-8.812033">
        <ele>35.1</ele>
        <time>1970-01-01T01:03:18.000Z</time>
      </trkpt>
      <trkpt lat="39.867938" lon="-8.812033">
        <ele>35.1</ele>
        <time>1970-01-01T01:03:19.000Z</time>
      </trkpt>
      <trkpt lat="39.867952" lon="-8.812034">
        <ele>34.8</ele>
        <time>1970-01-01T01:03:20.000Z</time>
      </trkpt>
      <trkpt lat="39.867969" lon="-8.81204">
        <ele>34.8</ele>
        <time>1970-01-01T01:03:21.000Z</time>
      </trkpt>
      <trkpt lat="39.867986" lon="-8.812052">
        <ele>34.6</ele>
        <time>1970-01-01T01:03:22.000Z</time>
      </trkpt>
      <trkpt lat="39.868" lon="-8.812071">
        <ele>34.5</ele>
        <time>1970-01-01T01:03:23.000Z</time>
      </trkpt>
      <trkpt lat="39.868011" lon="-8.812097">
        <ele>34.5</ele>
        <time>1970-01-01T01:03:24.000Z</time>
      </trkpt>
      <trkpt lat="39.868019" lon="-8.812126">
        <ele>34.2</ele>
        <time>1970-01-01T01:03:25.000Z</time>
      </trkpt>
      <trkpt lat="39.868023" lon="-8.812156">
        <ele>34.1</ele>
        <time>1970-01-01T01:03:26.000Z</time>
      </trkpt>
      <trkpt lat="39.868025" lon="-8.812188">
        <ele>34.1</ele>
        <time>1970-01-01T01:03:27.000Z</time>
      </trkpt>
      <trkpt lat="39.868025" lon="-8.812221">
        <ele>34.1</ele>
        <time>1970-01-01T01:03:28.000Z</time>
      </trkpt>
      <trkpt lat="39.868022" lon="-8.812256">
        <ele>34</ele>
        <time>1970-01-01T01:03:29.000Z</time>
      </trkpt>
      <trkpt lat="39.868018" lon="-8.812292">
        <ele>34</ele>
        <time>1970-01-01T01:03:30.000Z</time>
      </trkpt>
      <trkpt lat="39.868012" lon="-8.81233">
        <ele>34.3</ele>
        <time>1970-01-01T01:03:31.000Z</time>
      </trkpt>
      <trkpt lat="39.868005" lon="-8.812372">
        <ele>34.2</ele>
        <time>1970-01-01T01:03:32.000Z</time>
      </trkpt>
      <trkpt lat="39.867996" lon="-8.812415">
        <ele>34.2</ele>
        <time>1970-01-01T01:03:33.000Z</time>
      </trkpt>
      <trkpt lat="39.867985" lon="-8.812457">
        <ele>34.2</ele>
        <time>1970-01-01T01:03:34.000Z</time>
      </trkpt>
      <trkpt lat="39.86797" lon="-8.812493">
        <ele>34.5</ele>
        <time>1970-01-01T01:03:35.000Z</time>
      </trkpt>
      <trkpt lat="39.867954" lon="-8.812525">
        <ele>34.5</ele>
        <time>1970-01-01T01:03:36.000Z</time>
      </trkpt>
      <trkpt lat="39.867936" lon="-8.812552">
        <ele>34.8</ele>
        <time>1970-01-01T01:03:37.000Z</time>
      </trkpt>
      <trkpt lat="39.867918" lon="-8.812577">
        <ele>34.8</ele>
        <time>1970-01-01T01:03:38.000Z</time>
      </trkpt>
      <trkpt lat="39.867899" lon="-8.812598">
        <ele>35</ele>
        <time>1970-01-01T01:03:39.000Z</time>
      </trkpt>
      <trkpt lat="39.867878" lon="-8.812617">
        <ele>35.3</ele>
        <time>1970-01-01T01:03:40.000Z</time>
      </trkpt>
      <trkpt lat="39.867858" lon="-8.812638">
        <ele>35.3</ele>
        <time>1970-01-01T01:03:41.000Z</time>
      </trkpt>
      <trkpt lat="39.867837" lon="-8.812664">
        <ele>35.6</ele>
        <time>1970-01-01T01:03:42.000Z</time>
      </trkpt>
      <trkpt lat="39.867815" lon="-8.812695">
        <ele>35.9</ele>
        <time>1970-01-01T01:03:43.000Z</time>
      </trkpt>
      <trkpt lat="39.867794" lon="-8.812725">
        <ele>35.9</ele>
        <time>1970-01-01T01:03:44.000Z</time>
      </trkpt>
      <trkpt lat="39.867776" lon="-8.812753">
        <ele>36.3</ele>
        <time>1970-01-01T01:03:45.000Z</time>
      </trkpt>
      <trkpt lat="39.867759" lon="-8.812783">
        <ele>36.3</ele>
        <time>1970-01-01T01:03:46.000Z</time>
      </trkpt>
      <trkpt lat="39.867744" lon="-8.812813">
        <ele>36.7</ele>
        <time>1970-01-01T01:03:47.000Z</time>
      </trkpt>
      <trkpt lat="39.867733" lon="-8.812846">
        <ele>36.7</ele>
        <time>1970-01-01T01:03:48.000Z</time>
      </trkpt>
      <trkpt lat="39.867721" lon="-8.812879">
        <ele>36.7</ele>
        <time>1970-01-01T01:03:49.000Z</time>
      </trkpt>
      <trkpt lat="39.86771" lon="-8.812913">
        <ele>37.2</ele>
        <time>1970-01-01T01:03:50.000Z</time>
      </trkpt>
      <trkpt lat="39.867698" lon="-8.812949">
        <ele>37.2</ele>
        <time>1970-01-01T01:03:51.000Z</time>
      </trkpt>
      <trkpt lat="39.867681" lon="-8.812991">
        <ele>37.7</ele>
        <time>1970-01-01T01:03:52.000Z</time>
      </trkpt>
      <trkpt lat="39.867663" lon="-8.813034">
        <ele>37.6</ele>
        <time>1970-01-01T01:03:53.000Z</time>
      </trkpt>
      <trkpt lat="39.867644" lon="-8.813073">
        <ele>38</ele>
        <time>1970-01-01T01:03:54.000Z</time>
      </trkpt>
      <trkpt lat="39.867626" lon="-8.813108">
        <ele>37.8</ele>
        <time>1970-01-01T01:03:55.000Z</time>
      </trkpt>
      <trkpt lat="39.867612" lon="-8.813139">
        <ele>38.1</ele>
        <time>1970-01-01T01:03:56.000Z</time>
      </trkpt>
      <trkpt lat="39.867602" lon="-8.813168">
        <ele>38.1</ele>
        <time>1970-01-01T01:03:57.000Z</time>
      </trkpt>
      <trkpt lat="39.867594" lon="-8.813201">
        <ele>37.9</ele>
        <time>1970-01-01T01:03:58.000Z</time>
      </trkpt>
      <trkpt lat="39.86759" lon="-8.813238">
        <ele>37.6</ele>
        <time>1970-01-01T01:03:59.000Z</time>
      </trkpt>
      <trkpt lat="39.86759" lon="-8.813274">
        <ele>37.3</ele>
        <time>1970-01-01T01:04:00.000Z</time>
      </trkpt>
      <trkpt lat="39.867597" lon="-8.813305">
        <ele>37.3</ele>
        <time>1970-01-01T01:04:01.000Z</time>
      </trkpt>
      <trkpt lat="39.86761" lon="-8.813331">
        <ele>37</ele>
        <time>1970-01-01T01:04:02.000Z</time>
      </trkpt>
      <trkpt lat="39.867625" lon="-8.813354">
        <ele>36.2</ele>
        <time>1970-01-01T01:04:03.000Z</time>
      </trkpt>
      <trkpt lat="39.867642" lon="-8.813374">
        <ele>36.2</ele>
        <time>1970-01-01T01:04:04.000Z</time>
      </trkpt>
      <trkpt lat="39.867659" lon="-8.81339">
        <ele>35.8</ele>
        <time>1970-01-01T01:04:05.000Z</time>
      </trkpt>
      <trkpt lat="39.867678" lon="-8.813405">
        <ele>35.5</ele>
        <time>1970-01-01T01:04:06.000Z</time>
      </trkpt>
      <trkpt lat="39.867697" lon="-8.81342">
        <ele>35.2</ele>
        <time>1970-01-01T01:04:07.000Z</time>
      </trkpt>
      <trkpt lat="39.867716" lon="-8.813435">
        <ele>35.2</ele>
        <time>1970-01-01T01:04:08.000Z</time>
      </trkpt>
      <trkpt lat="39.867734" lon="-8.813452">
        <ele>34.6</ele>
        <time>1970-01-01T01:04:09.000Z</time>
      </trkpt>
      <trkpt lat="39.867751" lon="-8.813467">
        <ele>34.6</ele>
        <time>1970-01-01T01:04:10.000Z</time>
      </trkpt>
      <trkpt lat="39.867772" lon="-8.813483">
        <ele>34.2</ele>
        <time>1970-01-01T01:04:11.000Z</time>
      </trkpt>
      <trkpt lat="39.867795" lon="-8.813499">
        <ele>34</ele>
        <time>1970-01-01T01:04:12.000Z</time>
      </trkpt>
      <trkpt lat="39.86782" lon="-8.813516">
        <ele>33.9</ele>
        <time>1970-01-01T01:04:13.000Z</time>
      </trkpt>
      <trkpt lat="39.867845" lon="-8.813535">
        <ele>33.8</ele>
        <time>1970-01-01T01:04:14.000Z</time>
      </trkpt>
      <trkpt lat="39.867871" lon="-8.813553">
        <ele>33.7</ele>
        <time>1970-01-01T01:04:15.000Z</time>
      </trkpt>
      <trkpt lat="39.867896" lon="-8.813571">
        <ele>33.6</ele>
        <time>1970-01-01T01:04:16.000Z</time>
      </trkpt>
      <trkpt lat="39.867917" lon="-8.813588">
        <ele>33.6</ele>
        <time>1970-01-01T01:04:17.000Z</time>
      </trkpt>
      <trkpt lat="39.867934" lon="-8.813607">
        <ele>33.6</ele>
        <time>1970-01-01T01:04:18.000Z</time>
      </trkpt>
      <trkpt lat="39.867945" lon="-8.813625">
        <ele>33.6</ele>
        <time>1970-01-01T01:04:19.000Z</time>
      </trkpt>
      <trkpt lat="39.867952" lon="-8.813646">
        <ele>33.7</ele>
        <time>1970-01-01T01:04:20.000Z</time>
      </trkpt>
      <trkpt lat="39.867954" lon="-8.813669">
        <ele>33.7</ele>
        <time>1970-01-01T01:04:21.000Z</time>
      </trkpt>
      <trkpt lat="39.867953" lon="-8.813696">
        <ele>33.7</ele>
        <time>1970-01-01T01:04:22.000Z</time>
      </trkpt>
      <trkpt lat="39.867952" lon="-8.813723">
        <ele>33.7</ele>
        <time>1970-01-01T01:04:23.000Z</time>
      </trkpt>
      <trkpt lat="39.867952" lon="-8.813754">
        <ele>33.7</ele>
        <time>1970-01-01T01:04:24.000Z</time>
      </trkpt>
      <trkpt lat="39.867953" lon="-8.813785">
        <ele>33.7</ele>
        <time>1970-01-01T01:04:25.000Z</time>
      </trkpt>
      <trkpt lat="39.867959" lon="-8.813814">
        <ele>33.7</ele>
        <time>1970-01-01T01:04:26.000Z</time>
      </trkpt>
      <trkpt lat="39.867968" lon="-8.813839">
        <ele>33.7</ele>
        <time>1970-01-01T01:04:27.000Z</time>
      </trkpt>
      <trkpt lat="39.867981" lon="-8.813858">
        <ele>33.7</ele>
        <time>1970-01-01T01:04:28.000Z</time>
      </trkpt>
      <trkpt lat="39.867996" lon="-8.813872">
        <ele>33.8</ele>
        <time>1970-01-01T01:04:29.000Z</time>
      </trkpt>
      <trkpt lat="39.868012" lon="-8.813886">
        <ele>33.8</ele>
        <time>1970-01-01T01:04:30.000Z</time>
      </trkpt>
      <trkpt lat="39.868024" lon="-8.813901">
        <ele>33.9</ele>
        <time>1970-01-01T01:04:31.000Z</time>
      </trkpt>
      <trkpt lat="39.868033" lon="-8.813919">
        <ele>33.9</ele>
        <time>1970-01-01T01:04:32.000Z</time>
      </trkpt>
      <trkpt lat="39.868038" lon="-8.813941">
        <ele>33.9</ele>
        <time>1970-01-01T01:04:33.000Z</time>
      </trkpt>
      <trkpt lat="39.86804" lon="-8.813967">
        <ele>33.9</ele>
        <time>1970-01-01T01:04:34.000Z</time>
      </trkpt>
      <trkpt lat="39.86804" lon="-8.813996">
        <ele>33.9</ele>
        <time>1970-01-01T01:04:35.000Z</time>
      </trkpt>
      <trkpt lat="39.868039" lon="-8.814029">
        <ele>33.9</ele>
        <time>1970-01-01T01:04:36.000Z</time>
      </trkpt>
      <trkpt lat="39.868037" lon="-8.814061">
        <ele>33.9</ele>
        <time>1970-01-01T01:04:37.000Z</time>
      </trkpt>
      <trkpt lat="39.868036" lon="-8.814093">
        <ele>33.8</ele>
        <time>1970-01-01T01:04:38.000Z</time>
      </trkpt>
      <trkpt lat="39.868036" lon="-8.814126">
        <ele>33.8</ele>
        <time>1970-01-01T01:04:39.000Z</time>
      </trkpt>
      <trkpt lat="39.868039" lon="-8.814157">
        <ele>33.8</ele>
        <time>1970-01-01T01:04:40.000Z</time>
      </trkpt>
      <trkpt lat="39.868043" lon="-8.814187">
        <ele>33.7</ele>
        <time>1970-01-01T01:04:41.000Z</time>
      </trkpt>
      <trkpt lat="39.868049" lon="-8.814214">
        <ele>33.7</ele>
        <time>1970-01-01T01:04:42.000Z</time>
      </trkpt>
      <trkpt lat="39.868055" lon="-8.814238">
        <ele>33.7</ele>
        <time>1970-01-01T01:04:43.000Z</time>
      </trkpt>
      <trkpt lat="39.868066" lon="-8.814263">
        <ele>33.6</ele>
        <time>1970-01-01T01:04:44.000Z</time>
      </trkpt>
      <trkpt lat="39.868074" lon="-8.814267">
        <ele>33.6</ele>
        <time>1970-01-01T01:04:45.000Z</time>
      </trkpt>
      <trkpt lat="39.868082" lon="-8.81427">
        <ele>33.7</ele>
        <time>1970-01-01T01:04:46.000Z</time>
      </trkpt>
      <trkpt lat="39.86809" lon="-8.814273">
        <ele>33.7</ele>
        <time>1970-01-01T01:04:48.000Z</time>
      </trkpt>
      <trkpt lat="39.868098" lon="-8.814277">
        <ele>33.7</ele>
        <time>1970-01-01T01:04:49.000Z</time>
      </trkpt>
      <trkpt lat="39.868106" lon="-8.81428">
        <ele>33.7</ele>
        <time>1970-01-01T01:04:50.000Z</time>
      </trkpt>
      <trkpt lat="39.868114" lon="-8.814283">
        <ele>33.7</ele>
        <time>1970-01-01T01:04:51.000Z</time>
      </trkpt>
      <trkpt lat="39.868122" lon="-8.814286">
        <ele>33.8</ele>
        <time>1970-01-01T01:04:52.000Z</time>
      </trkpt>
      <trkpt lat="39.868129" lon="-8.81429">
        <ele>33.8</ele>
        <time>1970-01-01T01:04:53.000Z</time>
      </trkpt>
      <trkpt lat="39.868137" lon="-8.814293">
        <ele>33.8</ele>
        <time>1970-01-01T01:04:54.000Z</time>
      </trkpt>
      <trkpt lat="39.868145" lon="-8.814296">
        <ele>33.8</ele>
        <time>1970-01-01T01:04:55.000Z</time>
      </trkpt>
      <trkpt lat="39.868153" lon="-8.8143">
        <ele>33.8</ele>
        <time>1970-01-01T01:04:56.000Z</time>
      </trkpt>
      <trkpt lat="39.868161" lon="-8.814303">
        <ele>33.8</ele>
        <time>1970-01-01T01:04:57.000Z</time>
      </trkpt>
      <trkpt lat="39.868169" lon="-8.814306">
        <ele>33.8</ele>
        <time>1970-01-01T01:04:58.000Z</time>
      </trkpt>
      <trkpt lat="39.868177" lon="-8.81431">
        <ele>33.8</ele>
        <time>1970-01-01T01:04:59.000Z</time>
      </trkpt>
      <trkpt lat="39.868185" lon="-8.814313">
        <ele>33.9</ele>
        <time>1970-01-01T01:05:00.000Z</time>
      </trkpt>
      <trkpt lat="39.868192" lon="-8.814309">
        <ele>33.9</ele>
        <time>1970-01-01T01:05:01.000Z</time>
      </trkpt>
      <trkpt lat="39.868206" lon="-8.814303">
        <ele>33.9</ele>
        <time>1970-01-01T01:05:02.000Z</time>
      </trkpt>
      <trkpt lat="39.868227" lon="-8.814297">
        <ele>34</ele>
        <time>1970-01-01T01:05:03.000Z</time>
      </trkpt>
      <trkpt lat="39.868252" lon="-8.814289">
        <ele>34.3</ele>
        <time>1970-01-01T01:05:04.000Z</time>
      </trkpt>
      <trkpt lat="39.868279" lon="-8.81428">
        <ele>34.3</ele>
        <time>1970-01-01T01:05:05.000Z</time>
      </trkpt>
      <trkpt lat="39.868306" lon="-8.814267">
        <ele>34.4</ele>
        <time>1970-01-01T01:05:06.000Z</time>
      </trkpt>
      <trkpt lat="39.868335" lon="-8.814254">
        <ele>34.4</ele>
        <time>1970-01-01T01:05:07.000Z</time>
      </trkpt>
      <trkpt lat="39.868361" lon="-8.814244">
        <ele>34.6</ele>
        <time>1970-01-01T01:05:08.000Z</time>
      </trkpt>
      <trkpt lat="39.868383" lon="-8.814238">
        <ele>34.7</ele>
        <time>1970-01-01T01:05:09.000Z</time>
      </trkpt>
      <trkpt lat="39.868401" lon="-8.814237">
        <ele>34.7</ele>
        <time>1970-01-01T01:05:10.000Z</time>
      </trkpt>
      <trkpt lat="39.868411" lon="-8.814242">
        <ele>34.7</ele>
        <time>1970-01-01T01:05:11.000Z</time>
      </trkpt>
      <trkpt lat="39.868413" lon="-8.814252">
        <ele>34.7</ele>
        <time>1970-01-01T01:05:12.000Z</time>
      </trkpt>
      <trkpt lat="39.868409" lon="-8.814266">
        <ele>34.6</ele>
        <time>1970-01-01T01:05:13.000Z</time>
      </trkpt>
      <trkpt lat="39.868401" lon="-8.814281">
        <ele>34.6</ele>
        <time>1970-01-01T01:05:14.000Z</time>
      </trkpt>
      <trkpt lat="39.86839" lon="-8.814297">
        <ele>34.5</ele>
        <time>1970-01-01T01:05:15.000Z</time>
      </trkpt>
      <trkpt lat="39.868375" lon="-8.814318">
        <ele>34.4</ele>
        <time>1970-01-01T01:05:16.000Z</time>
      </trkpt>
      <trkpt lat="39.868359" lon="-8.814345">
        <ele>34.3</ele>
        <time>1970-01-01T01:05:17.000Z</time>
      </trkpt>
      <trkpt lat="39.868344" lon="-8.814379">
        <ele>34.2</ele>
        <time>1970-01-01T01:05:18.000Z</time>
      </trkpt>
      <trkpt lat="39.868328" lon="-8.81442">
        <ele>34.1</ele>
        <time>1970-01-01T01:05:19.000Z</time>
      </trkpt>
      <trkpt lat="39.868312" lon="-8.814468">
        <ele>33.8</ele>
        <time>1970-01-01T01:05:20.000Z</time>
      </trkpt>
      <trkpt lat="39.868298" lon="-8.814518">
        <ele>33.4</ele>
        <time>1970-01-01T01:05:21.000Z</time>
      </trkpt>
      <trkpt lat="39.868286" lon="-8.814569">
        <ele>33.1</ele>
        <time>1970-01-01T01:05:22.000Z</time>
      </trkpt>
      <trkpt lat="39.868279" lon="-8.814615">
        <ele>32.8</ele>
        <time>1970-01-01T01:05:23.000Z</time>
      </trkpt>
      <trkpt lat="39.868276" lon="-8.814658">
        <ele>32.5</ele>
        <time>1970-01-01T01:05:24.000Z</time>
      </trkpt>
      <trkpt lat="39.868275" lon="-8.814699">
        <ele>32.2</ele>
        <time>1970-01-01T01:05:25.000Z</time>
      </trkpt>
      <trkpt lat="39.868273" lon="-8.814745">
        <ele>31.9</ele>
        <time>1970-01-01T01:05:26.000Z</time>
      </trkpt>
      <trkpt lat="39.868271" lon="-8.814794">
        <ele>31.6</ele>
        <time>1970-01-01T01:05:27.000Z</time>
      </trkpt>
      <trkpt lat="39.868266" lon="-8.814843">
        <ele>31.3</ele>
        <time>1970-01-01T01:05:28.000Z</time>
      </trkpt>
      <trkpt lat="39.868259" lon="-8.814892">
        <ele>31</ele>
        <time>1970-01-01T01:05:29.000Z</time>
      </trkpt>
      <trkpt lat="39.868252" lon="-8.814941">
        <ele>30.4</ele>
        <time>1970-01-01T01:05:30.000Z</time>
      </trkpt>
      <trkpt lat="39.868244" lon="-8.814993">
        <ele>30</ele>
        <time>1970-01-01T01:05:31.000Z</time>
      </trkpt>
      <trkpt lat="39.868237" lon="-8.815044">
        <ele>29.7</ele>
        <time>1970-01-01T01:05:32.000Z</time>
      </trkpt>
      <trkpt lat="39.868234" lon="-8.815091">
        <ele>29.4</ele>
        <time>1970-01-01T01:05:33.000Z</time>
      </trkpt>
      <trkpt lat="39.868234" lon="-8.815135">
        <ele>29.2</ele>
        <time>1970-01-01T01:05:34.000Z</time>
      </trkpt>
      <trkpt lat="39.868232" lon="-8.815177">
        <ele>29</ele>
        <time>1970-01-01T01:05:35.000Z</time>
      </trkpt>
      <trkpt lat="39.868228" lon="-8.815223">
        <ele>28.9</ele>
        <time>1970-01-01T01:05:36.000Z</time>
      </trkpt>
      <trkpt lat="39.868223" lon="-8.815271">
        <ele>28.7</ele>
        <time>1970-01-01T01:05:37.000Z</time>
      </trkpt>
      <trkpt lat="39.868218" lon="-8.815319">
        <ele>28.6</ele>
        <time>1970-01-01T01:05:38.000Z</time>
      </trkpt>
      <trkpt lat="39.868212" lon="-8.815364">
        <ele>28.5</ele>
        <time>1970-01-01T01:05:39.000Z</time>
      </trkpt>
      <trkpt lat="39.868205" lon="-8.815413">
        <ele>28.3</ele>
        <time>1970-01-01T01:05:40.000Z</time>
      </trkpt>
      <trkpt lat="39.868198" lon="-8.815462">
        <ele>28.2</ele>
        <time>1970-01-01T01:05:41.000Z</time>
      </trkpt>
      <trkpt lat="39.868195" lon="-8.815503">
        <ele>28.1</ele>
        <time>1970-01-01T01:05:42.000Z</time>
      </trkpt>
      <trkpt lat="39.868189" lon="-8.815539">
        <ele>28.1</ele>
        <time>1970-01-01T01:05:43.000Z</time>
      </trkpt>
      <trkpt lat="39.868182" lon="-8.81557">
        <ele>28.1</ele>
        <time>1970-01-01T01:05:44.000Z</time>
      </trkpt>
      <trkpt lat="39.868177" lon="-8.815599">
        <ele>28.2</ele>
        <time>1970-01-01T01:05:45.000Z</time>
      </trkpt>
      <trkpt lat="39.868175" lon="-8.815628">
        <ele>28.2</ele>
        <time>1970-01-01T01:05:46.000Z</time>
      </trkpt>
      <trkpt lat="39.868174" lon="-8.815658">
        <ele>28.2</ele>
        <time>1970-01-01T01:05:47.000Z</time>
      </trkpt>
      <trkpt lat="39.868171" lon="-8.815695">
        <ele>28.1</ele>
        <time>1970-01-01T01:05:48.000Z</time>
      </trkpt>
      <trkpt lat="39.868166" lon="-8.815734">
        <ele>28.1</ele>
        <time>1970-01-01T01:05:49.000Z</time>
      </trkpt>
      <trkpt lat="39.868158" lon="-8.815773">
        <ele>28.1</ele>
        <time>1970-01-01T01:05:50.000Z</time>
      </trkpt>
      <trkpt lat="39.868149" lon="-8.815811">
        <ele>28.1</ele>
        <time>1970-01-01T01:05:51.000Z</time>
      </trkpt>
      <trkpt lat="39.868141" lon="-8.81585">
        <ele>28.4</ele>
        <time>1970-01-01T01:05:52.000Z</time>
      </trkpt>
      <trkpt lat="39.868134" lon="-8.815889">
        <ele>28.5</ele>
        <time>1970-01-01T01:05:53.000Z</time>
      </trkpt>
      <trkpt lat="39.868126" lon="-8.815927">
        <ele>28.5</ele>
        <time>1970-01-01T01:05:54.000Z</time>
      </trkpt>
      <trkpt lat="39.868119" lon="-8.815968">
        <ele>28.5</ele>
        <time>1970-01-01T01:05:55.000Z</time>
      </trkpt>
      <trkpt lat="39.868112" lon="-8.816009">
        <ele>28.9</ele>
        <time>1970-01-01T01:05:56.000Z</time>
      </trkpt>
      <trkpt lat="39.868103" lon="-8.816051">
        <ele>29</ele>
        <time>1970-01-01T01:05:57.000Z</time>
      </trkpt>
      <trkpt lat="39.868094" lon="-8.816094">
        <ele>29.1</ele>
        <time>1970-01-01T01:05:58.000Z</time>
      </trkpt>
      <trkpt lat="39.868084" lon="-8.81614">
        <ele>29.2</ele>
        <time>1970-01-01T01:05:59.000Z</time>
      </trkpt>
      <trkpt lat="39.868075" lon="-8.816189">
        <ele>29.3</ele>
        <time>1970-01-01T01:06:00.000Z</time>
      </trkpt>
      <trkpt lat="39.868062" lon="-8.816244">
        <ele>29.4</ele>
        <time>1970-01-01T01:06:01.000Z</time>
      </trkpt>
      <trkpt lat="39.868045" lon="-8.816305">
        <ele>29.5</ele>
        <time>1970-01-01T01:06:02.000Z</time>
      </trkpt>
      <trkpt lat="39.868025" lon="-8.816375">
        <ele>29.7</ele>
        <time>1970-01-01T01:06:03.000Z</time>
      </trkpt>
      <trkpt lat="39.868006" lon="-8.816446">
        <ele>29.8</ele>
        <time>1970-01-01T01:06:04.000Z</time>
      </trkpt>
      <trkpt lat="39.86799" lon="-8.816517">
        <ele>30</ele>
        <time>1970-01-01T01:06:05.000Z</time>
      </trkpt>
      <trkpt lat="39.867976" lon="-8.816589">
        <ele>30.2</ele>
        <time>1970-01-01T01:06:06.000Z</time>
      </trkpt>
      <trkpt lat="39.867963" lon="-8.816659">
        <ele>30.4</ele>
        <time>1970-01-01T01:06:07.000Z</time>
      </trkpt>
      <trkpt lat="39.867951" lon="-8.816728">
        <ele>30.6</ele>
        <time>1970-01-01T01:06:08.000Z</time>
      </trkpt>
      <trkpt lat="39.86794" lon="-8.816795">
        <ele>30.8</ele>
        <time>1970-01-01T01:06:09.000Z</time>
      </trkpt>
      <trkpt lat="39.867931" lon="-8.816862">
        <ele>31</ele>
        <time>1970-01-01T01:06:10.000Z</time>
      </trkpt>
      <trkpt lat="39.867925" lon="-8.816929">
        <ele>31.2</ele>
        <time>1970-01-01T01:06:11.000Z</time>
      </trkpt>
      <trkpt lat="39.867919" lon="-8.816993">
        <ele>31.4</ele>
        <time>1970-01-01T01:06:12.000Z</time>
      </trkpt>
      <trkpt lat="39.867914" lon="-8.817055">
        <ele>31.6</ele>
        <time>1970-01-01T01:06:13.000Z</time>
      </trkpt>
      <trkpt lat="39.867908" lon="-8.81712">
        <ele>31.8</ele>
        <time>1970-01-01T01:06:14.000Z</time>
      </trkpt>
      <trkpt lat="39.867899" lon="-8.817184">
        <ele>32</ele>
        <time>1970-01-01T01:06:15.000Z</time>
      </trkpt>
      <trkpt lat="39.867887" lon="-8.817246">
        <ele>32.2</ele>
        <time>1970-01-01T01:06:16.000Z</time>
      </trkpt>
      <trkpt lat="39.867873" lon="-8.817308">
        <ele>32.4</ele>
        <time>1970-01-01T01:06:17.000Z</time>
      </trkpt>
      <trkpt lat="39.867859" lon="-8.817365">
        <ele>32.6</ele>
        <time>1970-01-01T01:06:18.000Z</time>
      </trkpt>
      <trkpt lat="39.867845" lon="-8.817418">
        <ele>32.8</ele>
        <time>1970-01-01T01:06:19.000Z</time>
      </trkpt>
      <trkpt lat="39.867834" lon="-8.817473">
        <ele>33</ele>
        <time>1970-01-01T01:06:20.000Z</time>
      </trkpt>
      <trkpt lat="39.867822" lon="-8.817535">
        <ele>33.2</ele>
        <time>1970-01-01T01:06:21.000Z</time>
      </trkpt>
      <trkpt lat="39.867809" lon="-8.817599">
        <ele>33.5</ele>
        <time>1970-01-01T01:06:22.000Z</time>
      </trkpt>
      <trkpt lat="39.867796" lon="-8.817666">
        <ele>33.7</ele>
        <time>1970-01-01T01:06:23.000Z</time>
      </trkpt>
      <trkpt lat="39.867778" lon="-8.817735">
        <ele>34</ele>
        <time>1970-01-01T01:06:24.000Z</time>
      </trkpt>
      <trkpt lat="39.867758" lon="-8.817804">
        <ele>34.2</ele>
        <time>1970-01-01T01:06:25.000Z</time>
      </trkpt>
      <trkpt lat="39.867735" lon="-8.817873">
        <ele>34.4</ele>
        <time>1970-01-01T01:06:26.000Z</time>
      </trkpt>
      <trkpt lat="39.867715" lon="-8.817941">
        <ele>34.7</ele>
        <time>1970-01-01T01:06:27.000Z</time>
      </trkpt>
      <trkpt lat="39.867695" lon="-8.818005">
        <ele>34.9</ele>
        <time>1970-01-01T01:06:28.000Z</time>
      </trkpt>
      <trkpt lat="39.867673" lon="-8.818066">
        <ele>35.1</ele>
        <time>1970-01-01T01:06:29.000Z</time>
      </trkpt>
      <trkpt lat="39.867649" lon="-8.818126">
        <ele>35.3</ele>
        <time>1970-01-01T01:06:30.000Z</time>
      </trkpt>
      <trkpt lat="39.867625" lon="-8.818183">
        <ele>35.5</ele>
        <time>1970-01-01T01:06:31.000Z</time>
      </trkpt>
      <trkpt lat="39.867602" lon="-8.818241">
        <ele>35.7</ele>
        <time>1970-01-01T01:06:32.000Z</time>
      </trkpt>
      <trkpt lat="39.867578" lon="-8.818298">
        <ele>35.9</ele>
        <time>1970-01-01T01:06:33.000Z</time>
      </trkpt>
      <trkpt lat="39.867554" lon="-8.818353">
        <ele>36.5</ele>
        <time>1970-01-01T01:06:34.000Z</time>
      </trkpt>
      <trkpt lat="39.867531" lon="-8.818408">
        <ele>36.2</ele>
        <time>1970-01-01T01:06:35.000Z</time>
      </trkpt>
      <trkpt lat="39.867512" lon="-8.818462">
        <ele>36.6</ele>
        <time>1970-01-01T01:06:36.000Z</time>
      </trkpt>
      <trkpt lat="39.867495" lon="-8.818517">
        <ele>36.2</ele>
        <time>1970-01-01T01:06:37.000Z</time>
      </trkpt>
      <trkpt lat="39.867479" lon="-8.818567">
        <ele>36.8</ele>
        <time>1970-01-01T01:06:38.000Z</time>
      </trkpt>
      <trkpt lat="39.867466" lon="-8.818612">
        <ele>36.4</ele>
        <time>1970-01-01T01:06:39.000Z</time>
      </trkpt>
      <trkpt lat="39.867452" lon="-8.818662">
        <ele>36.8</ele>
        <time>1970-01-01T01:06:40.000Z</time>
      </trkpt>
      <trkpt lat="39.867441" lon="-8.818715">
        <ele>36.4</ele>
        <time>1970-01-01T01:06:41.000Z</time>
      </trkpt>
      <trkpt lat="39.86743" lon="-8.818772">
        <ele>35.6</ele>
        <time>1970-01-01T01:06:42.000Z</time>
      </trkpt>
      <trkpt lat="39.86742" lon="-8.81883">
        <ele>36</ele>
        <time>1970-01-01T01:06:43.000Z</time>
      </trkpt>
      <trkpt lat="39.867411" lon="-8.818889">
        <ele>35.1</ele>
        <time>1970-01-01T01:06:44.000Z</time>
      </trkpt>
      <trkpt lat="39.867402" lon="-8.818952">
        <ele>34.6</ele>
        <time>1970-01-01T01:06:45.000Z</time>
      </trkpt>
      <trkpt lat="39.867396" lon="-8.819019">
        <ele>33.8</ele>
        <time>1970-01-01T01:06:46.000Z</time>
      </trkpt>
      <trkpt lat="39.86739" lon="-8.819088">
        <ele>33.3</ele>
        <time>1970-01-01T01:06:47.000Z</time>
      </trkpt>
      <trkpt lat="39.867386" lon="-8.819157">
        <ele>33.3</ele>
        <time>1970-01-01T01:06:48.000Z</time>
      </trkpt>
      <trkpt lat="39.867383" lon="-8.819227">
        <ele>32.9</ele>
        <time>1970-01-01T01:06:49.000Z</time>
      </trkpt>
      <trkpt lat="39.867379" lon="-8.819294">
        <ele>32.2</ele>
        <time>1970-01-01T01:06:50.000Z</time>
      </trkpt>
      <trkpt lat="39.867372" lon="-8.819357">
        <ele>31.9</ele>
        <time>1970-01-01T01:06:51.000Z</time>
      </trkpt>
      <trkpt lat="39.867363" lon="-8.819417">
        <ele>31.1</ele>
        <time>1970-01-01T01:06:52.000Z</time>
      </trkpt>
      <trkpt lat="39.867349" lon="-8.819472">
        <ele>31.3</ele>
        <time>1970-01-01T01:06:53.000Z</time>
      </trkpt>
      <trkpt lat="39.867334" lon="-8.819524">
        <ele>30.9</ele>
        <time>1970-01-01T01:06:54.000Z</time>
      </trkpt>
      <trkpt lat="39.867318" lon="-8.819576">
        <ele>30.8</ele>
        <time>1970-01-01T01:06:55.000Z</time>
      </trkpt>
      <trkpt lat="39.867299" lon="-8.819628">
        <ele>30.4</ele>
        <time>1970-01-01T01:06:56.000Z</time>
      </trkpt>
      <trkpt lat="39.867282" lon="-8.819684">
        <ele>30.6</ele>
        <time>1970-01-01T01:06:57.000Z</time>
      </trkpt>
      <trkpt lat="39.867269" lon="-8.819744">
        <ele>30.2</ele>
        <time>1970-01-01T01:06:58.000Z</time>
      </trkpt>
      <trkpt lat="39.867257" lon="-8.819806">
        <ele>30</ele>
        <time>1970-01-01T01:06:59.000Z</time>
      </trkpt>
      <trkpt lat="39.867251" lon="-8.819868">
        <ele>29.5</ele>
        <time>1970-01-01T01:07:00.000Z</time>
      </trkpt>
      <trkpt lat="39.867248" lon="-8.819933">
        <ele>28.6</ele>
        <time>1970-01-01T01:07:01.000Z</time>
      </trkpt>
      <trkpt lat="39.867247" lon="-8.819998">
        <ele>28.2</ele>
        <time>1970-01-01T01:07:02.000Z</time>
      </trkpt>
      <trkpt lat="39.867246" lon="-8.820059">
        <ele>27.4</ele>
        <time>1970-01-01T01:07:03.000Z</time>
      </trkpt>
      <trkpt lat="39.867239" lon="-8.820111">
        <ele>27</ele>
        <time>1970-01-01T01:07:04.000Z</time>
      </trkpt>
      <trkpt lat="39.867226" lon="-8.820153">
        <ele>26.7</ele>
        <time>1970-01-01T01:07:05.000Z</time>
      </trkpt>
      <trkpt lat="39.867207" lon="-8.820187">
        <ele>26.8</ele>
        <time>1970-01-01T01:07:06.000Z</time>
      </trkpt>
      <trkpt lat="39.867181" lon="-8.820217">
        <ele>27.1</ele>
        <time>1970-01-01T01:07:07.000Z</time>
      </trkpt>
      <trkpt lat="39.867152" lon="-8.820242">
        <ele>27.2</ele>
        <time>1970-01-01T01:07:08.000Z</time>
      </trkpt>
      <trkpt lat="39.867123" lon="-8.820268">
        <ele>27.1</ele>
        <time>1970-01-01T01:07:09.000Z</time>
      </trkpt>
      <trkpt lat="39.867094" lon="-8.820295">
        <ele>27</ele>
        <time>1970-01-01T01:07:10.000Z</time>
      </trkpt>
      <trkpt lat="39.867066" lon="-8.820324">
        <ele>26.9</ele>
        <time>1970-01-01T01:07:11.000Z</time>
      </trkpt>
      <trkpt lat="39.867037" lon="-8.820354">
        <ele>26.8</ele>
        <time>1970-01-01T01:07:12.000Z</time>
      </trkpt>
      <trkpt lat="39.867007" lon="-8.820387">
        <ele>27</ele>
        <time>1970-01-01T01:07:13.000Z</time>
      </trkpt>
      <trkpt lat="39.866977" lon="-8.820416">
        <ele>26.9</ele>
        <time>1970-01-01T01:07:14.000Z</time>
      </trkpt>
      <trkpt lat="39.866942" lon="-8.820447">
        <ele>26.7</ele>
        <time>1970-01-01T01:07:15.000Z</time>
      </trkpt>
      <trkpt lat="39.866909" lon="-8.820472">
        <ele>27</ele>
        <time>1970-01-01T01:07:16.000Z</time>
      </trkpt>
      <trkpt lat="39.866871" lon="-8.820489">
        <ele>26.8</ele>
        <time>1970-01-01T01:07:17.000Z</time>
      </trkpt>
      <trkpt lat="39.866834" lon="-8.820497">
        <ele>27</ele>
        <time>1970-01-01T01:07:18.000Z</time>
      </trkpt>
      <trkpt lat="39.866799" lon="-8.820498">
        <ele>27.2</ele>
        <time>1970-01-01T01:07:19.000Z</time>
      </trkpt>
      <trkpt lat="39.866765" lon="-8.820494">
        <ele>27.3</ele>
        <time>1970-01-01T01:07:20.000Z</time>
      </trkpt>
      <trkpt lat="39.866733" lon="-8.820487">
        <ele>27.5</ele>
        <time>1970-01-01T01:07:21.000Z</time>
      </trkpt>
      <trkpt lat="39.866702" lon="-8.820478">
        <ele>27.6</ele>
        <time>1970-01-01T01:07:22.000Z</time>
      </trkpt>
      <trkpt lat="39.866674" lon="-8.820471">
        <ele>28.3</ele>
        <time>1970-01-01T01:07:23.000Z</time>
      </trkpt>
      <trkpt lat="39.866643" lon="-8.820463">
        <ele>28.4</ele>
        <time>1970-01-01T01:07:24.000Z</time>
      </trkpt>
      <trkpt lat="39.866612" lon="-8.820461">
        <ele>28.6</ele>
        <time>1970-01-01T01:07:25.000Z</time>
      </trkpt>
      <trkpt lat="39.866581" lon="-8.82046">
        <ele>28.7</ele>
        <time>1970-01-01T01:07:26.000Z</time>
      </trkpt>
      <trkpt lat="39.866552" lon="-8.820456">
        <ele>28.8</ele>
        <time>1970-01-01T01:07:27.000Z</time>
      </trkpt>
      <trkpt lat="39.866523" lon="-8.820448">
        <ele>28.8</ele>
        <time>1970-01-01T01:07:28.000Z</time>
      </trkpt>
      <trkpt lat="39.86649" lon="-8.820441">
        <ele>28.9</ele>
        <time>1970-01-01T01:07:29.000Z</time>
      </trkpt>
      <trkpt lat="39.866456" lon="-8.820435">
        <ele>29</ele>
        <time>1970-01-01T01:07:30.000Z</time>
      </trkpt>
      <trkpt lat="39.866422" lon="-8.820429">
        <ele>29.6</ele>
        <time>1970-01-01T01:07:31.000Z</time>
      </trkpt>
      <trkpt lat="39.86639" lon="-8.820421">
        <ele>29.6</ele>
        <time>1970-01-01T01:07:32.000Z</time>
      </trkpt>
      <trkpt lat="39.866362" lon="-8.820412">
        <ele>29.7</ele>
        <time>1970-01-01T01:07:33.000Z</time>
      </trkpt>
      <trkpt lat="39.866338" lon="-8.820405">
        <ele>29.6</ele>
        <time>1970-01-01T01:07:34.000Z</time>
      </trkpt>
      <trkpt lat="39.866312" lon="-8.820399">
        <ele>29.6</ele>
        <time>1970-01-01T01:07:35.000Z</time>
      </trkpt>
      <trkpt lat="39.866287" lon="-8.820396">
        <ele>29.6</ele>
        <time>1970-01-01T01:07:36.000Z</time>
      </trkpt>
      <trkpt lat="39.866261" lon="-8.820398">
        <ele>29.5</ele>
        <time>1970-01-01T01:07:37.000Z</time>
      </trkpt>
      <trkpt lat="39.866235" lon="-8.820404">
        <ele>29.5</ele>
        <time>1970-01-01T01:07:38.000Z</time>
      </trkpt>
      <trkpt lat="39.866208" lon="-8.82041">
        <ele>29.4</ele>
        <time>1970-01-01T01:07:39.000Z</time>
      </trkpt>
      <trkpt lat="39.866181" lon="-8.820415">
        <ele>29.4</ele>
        <time>1970-01-01T01:07:40.000Z</time>
      </trkpt>
      <trkpt lat="39.866154" lon="-8.820419">
        <ele>29.1</ele>
        <time>1970-01-01T01:07:41.000Z</time>
      </trkpt>
      <trkpt lat="39.866126" lon="-8.820425">
        <ele>28.9</ele>
        <time>1970-01-01T01:07:42.000Z</time>
      </trkpt>
      <trkpt lat="39.866096" lon="-8.820433">
        <ele>28.6</ele>
        <time>1970-01-01T01:07:43.000Z</time>
      </trkpt>
      <trkpt lat="39.866062" lon="-8.820442">
        <ele>28.4</ele>
        <time>1970-01-01T01:07:44.000Z</time>
      </trkpt>
      <trkpt lat="39.866026" lon="-8.820454">
        <ele>28.2</ele>
        <time>1970-01-01T01:07:45.000Z</time>
      </trkpt>
      <trkpt lat="39.865986" lon="-8.820467">
        <ele>27.9</ele>
        <time>1970-01-01T01:07:46.000Z</time>
      </trkpt>
      <trkpt lat="39.865944" lon="-8.820481">
        <ele>27.7</ele>
        <time>1970-01-01T01:07:47.000Z</time>
      </trkpt>
      <trkpt lat="39.865901" lon="-8.820493">
        <ele>27.6</ele>
        <time>1970-01-01T01:07:48.000Z</time>
      </trkpt>
      <trkpt lat="39.865858" lon="-8.820506">
        <ele>27.4</ele>
        <time>1970-01-01T01:07:49.000Z</time>
      </trkpt>
      <trkpt lat="39.865813" lon="-8.820523">
        <ele>27.3</ele>
        <time>1970-01-01T01:07:50.000Z</time>
      </trkpt>
      <trkpt lat="39.865766" lon="-8.820548">
        <ele>27.2</ele>
        <time>1970-01-01T01:07:51.000Z</time>
      </trkpt>
      <trkpt lat="39.865723" lon="-8.820576">
        <ele>27.1</ele>
        <time>1970-01-01T01:07:52.000Z</time>
      </trkpt>
      <trkpt lat="39.865682" lon="-8.820607">
        <ele>27</ele>
        <time>1970-01-01T01:07:53.000Z</time>
      </trkpt>
      <trkpt lat="39.865647" lon="-8.820645">
        <ele>26.7</ele>
        <time>1970-01-01T01:07:54.000Z</time>
      </trkpt>
      <trkpt lat="39.865613" lon="-8.820687">
        <ele>26.6</ele>
        <time>1970-01-01T01:07:55.000Z</time>
      </trkpt>
      <trkpt lat="39.865583" lon="-8.820732">
        <ele>26.5</ele>
        <time>1970-01-01T01:07:56.000Z</time>
      </trkpt>
      <trkpt lat="39.865554" lon="-8.820782">
        <ele>26.4</ele>
        <time>1970-01-01T01:07:57.000Z</time>
      </trkpt>
      <trkpt lat="39.865528" lon="-8.820837">
        <ele>26.4</ele>
        <time>1970-01-01T01:07:58.000Z</time>
      </trkpt>
      <trkpt lat="39.865504" lon="-8.820894">
        <ele>26.3</ele>
        <time>1970-01-01T01:07:59.000Z</time>
      </trkpt>
      <trkpt lat="39.865482" lon="-8.820953">
        <ele>26.3</ele>
        <time>1970-01-01T01:08:00.000Z</time>
      </trkpt>
      <trkpt lat="39.865463" lon="-8.821014">
        <ele>26.3</ele>
        <time>1970-01-01T01:08:01.000Z</time>
      </trkpt>
      <trkpt lat="39.865444" lon="-8.821074">
        <ele>26.2</ele>
        <time>1970-01-01T01:08:02.000Z</time>
      </trkpt>
      <trkpt lat="39.865426" lon="-8.821135">
        <ele>26.2</ele>
        <time>1970-01-01T01:08:03.000Z</time>
      </trkpt>
      <trkpt lat="39.865407" lon="-8.821197">
        <ele>26.2</ele>
        <time>1970-01-01T01:08:04.000Z</time>
      </trkpt>
      <trkpt lat="39.865391" lon="-8.82126">
        <ele>26.2</ele>
        <time>1970-01-01T01:08:05.000Z</time>
      </trkpt>
      <trkpt lat="39.865376" lon="-8.821324">
        <ele>26.2</ele>
        <time>1970-01-01T01:08:06.000Z</time>
      </trkpt>
      <trkpt lat="39.86536" lon="-8.821387">
        <ele>26.2</ele>
        <time>1970-01-01T01:08:07.000Z</time>
      </trkpt>
      <trkpt lat="39.865341" lon="-8.821446">
        <ele>26.2</ele>
        <time>1970-01-01T01:08:08.000Z</time>
      </trkpt>
      <trkpt lat="39.865322" lon="-8.821505">
        <ele>26.2</ele>
        <time>1970-01-01T01:08:09.000Z</time>
      </trkpt>
      <trkpt lat="39.865302" lon="-8.821562">
        <ele>26.2</ele>
        <time>1970-01-01T01:08:10.000Z</time>
      </trkpt>
      <trkpt lat="39.865282" lon="-8.821619">
        <ele>26.2</ele>
        <time>1970-01-01T01:08:11.000Z</time>
      </trkpt>
      <trkpt lat="39.865261" lon="-8.821677">
        <ele>26.2</ele>
        <time>1970-01-01T01:08:12.000Z</time>
      </trkpt>
      <trkpt lat="39.86524" lon="-8.821735">
        <ele>26.2</ele>
        <time>1970-01-01T01:08:13.000Z</time>
      </trkpt>
      <trkpt lat="39.865222" lon="-8.821794">
        <ele>26.2</ele>
        <time>1970-01-01T01:08:14.000Z</time>
      </trkpt>
      <trkpt lat="39.865207" lon="-8.82185">
        <ele>26.1</ele>
        <time>1970-01-01T01:08:15.000Z</time>
      </trkpt>
      <trkpt lat="39.865196" lon="-8.821907">
        <ele>26.1</ele>
        <time>1970-01-01T01:08:16.000Z</time>
      </trkpt>
      <trkpt lat="39.865183" lon="-8.821967">
        <ele>26.1</ele>
        <time>1970-01-01T01:08:17.000Z</time>
      </trkpt>
      <trkpt lat="39.865172" lon="-8.822029">
        <ele>26.1</ele>
        <time>1970-01-01T01:08:18.000Z</time>
      </trkpt>
      <trkpt lat="39.865162" lon="-8.822094">
        <ele>26</ele>
        <time>1970-01-01T01:08:19.000Z</time>
      </trkpt>
      <trkpt lat="39.865151" lon="-8.822156">
        <ele>26</ele>
        <time>1970-01-01T01:08:20.000Z</time>
      </trkpt>
      <trkpt lat="39.86514" lon="-8.822215">
        <ele>26</ele>
        <time>1970-01-01T01:08:21.000Z</time>
      </trkpt>
      <trkpt lat="39.865131" lon="-8.82227">
        <ele>26</ele>
        <time>1970-01-01T01:08:22.000Z</time>
      </trkpt>
      <trkpt lat="39.865122" lon="-8.822321">
        <ele>26.1</ele>
        <time>1970-01-01T01:08:23.000Z</time>
      </trkpt>
      <trkpt lat="39.865115" lon="-8.822366">
        <ele>26.1</ele>
        <time>1970-01-01T01:08:24.000Z</time>
      </trkpt>
      <trkpt lat="39.865108" lon="-8.822407">
        <ele>26.1</ele>
        <time>1970-01-01T01:08:25.000Z</time>
      </trkpt>
      <trkpt lat="39.865102" lon="-8.822444">
        <ele>26.1</ele>
        <time>1970-01-01T01:08:26.000Z</time>
      </trkpt>
      <trkpt lat="39.865093" lon="-8.822477">
        <ele>26.1</ele>
        <time>1970-01-01T01:08:27.000Z</time>
      </trkpt>
      <trkpt lat="39.865084" lon="-8.822508">
        <ele>26.2</ele>
        <time>1970-01-01T01:08:28.000Z</time>
      </trkpt>
      <trkpt lat="39.865075" lon="-8.822539">
        <ele>26.2</ele>
        <time>1970-01-01T01:08:29.000Z</time>
      </trkpt>
      <trkpt lat="39.86507" lon="-8.822569">
        <ele>26.2</ele>
        <time>1970-01-01T01:08:30.000Z</time>
      </trkpt>
      <trkpt lat="39.865068" lon="-8.822602">
        <ele>26.2</ele>
        <time>1970-01-01T01:08:31.000Z</time>
      </trkpt>
      <trkpt lat="39.865067" lon="-8.822638">
        <ele>26.2</ele>
        <time>1970-01-01T01:08:32.000Z</time>
      </trkpt>
      <trkpt lat="39.865066" lon="-8.822677">
        <ele>26.2</ele>
        <time>1970-01-01T01:08:33.000Z</time>
      </trkpt>
      <trkpt lat="39.865065" lon="-8.822719">
        <ele>26.1</ele>
        <time>1970-01-01T01:08:34.000Z</time>
      </trkpt>
      <trkpt lat="39.865064" lon="-8.822761">
        <ele>26.1</ele>
        <time>1970-01-01T01:08:35.000Z</time>
      </trkpt>
      <trkpt lat="39.865063" lon="-8.822804">
        <ele>26</ele>
        <time>1970-01-01T01:08:36.000Z</time>
      </trkpt>
      <trkpt lat="39.86506" lon="-8.822849">
        <ele>26</ele>
        <time>1970-01-01T01:08:37.000Z</time>
      </trkpt>
      <trkpt lat="39.865056" lon="-8.822893">
        <ele>26</ele>
        <time>1970-01-01T01:08:38.000Z</time>
      </trkpt>
      <trkpt lat="39.865052" lon="-8.822938">
        <ele>25.9</ele>
        <time>1970-01-01T01:08:39.000Z</time>
      </trkpt>
      <trkpt lat="39.865047" lon="-8.822986">
        <ele>25.9</ele>
        <time>1970-01-01T01:08:40.000Z</time>
      </trkpt>
      <trkpt lat="39.865039" lon="-8.823035">
        <ele>25.9</ele>
        <time>1970-01-01T01:08:41.000Z</time>
      </trkpt>
      <trkpt lat="39.865028" lon="-8.823082">
        <ele>25.9</ele>
        <time>1970-01-01T01:08:42.000Z</time>
      </trkpt>
      <trkpt lat="39.865016" lon="-8.823126">
        <ele>26</ele>
        <time>1970-01-01T01:08:43.000Z</time>
      </trkpt>
      <trkpt lat="39.865003" lon="-8.823168">
        <ele>26</ele>
        <time>1970-01-01T01:08:44.000Z</time>
      </trkpt>
      <trkpt lat="39.864987" lon="-8.823211">
        <ele>26</ele>
        <time>1970-01-01T01:08:45.000Z</time>
      </trkpt>
      <trkpt lat="39.864971" lon="-8.823254">
        <ele>26.1</ele>
        <time>1970-01-01T01:08:46.000Z</time>
      </trkpt>
      <trkpt lat="39.864956" lon="-8.823296">
        <ele>26.1</ele>
        <time>1970-01-01T01:08:47.000Z</time>
      </trkpt>
      <trkpt lat="39.864937" lon="-8.823339">
        <ele>26.2</ele>
        <time>1970-01-01T01:08:48.000Z</time>
      </trkpt>
      <trkpt lat="39.864918" lon="-8.823384">
        <ele>26.3</ele>
        <time>1970-01-01T01:08:49.000Z</time>
      </trkpt>
      <trkpt lat="39.8649" lon="-8.823432">
        <ele>26.4</ele>
        <time>1970-01-01T01:08:50.000Z</time>
      </trkpt>
      <trkpt lat="39.86488" lon="-8.82348">
        <ele>26.4</ele>
        <time>1970-01-01T01:08:51.000Z</time>
      </trkpt>
      <trkpt lat="39.864862" lon="-8.823528">
        <ele>26.5</ele>
        <time>1970-01-01T01:08:52.000Z</time>
      </trkpt>
      <trkpt lat="39.864845" lon="-8.823576">
        <ele>26.6</ele>
        <time>1970-01-01T01:08:53.000Z</time>
      </trkpt>
      <trkpt lat="39.86483" lon="-8.823623">
        <ele>26.7</ele>
        <time>1970-01-01T01:08:54.000Z</time>
      </trkpt>
      <trkpt lat="39.864819" lon="-8.823668">
        <ele>26.7</ele>
        <time>1970-01-01T01:08:55.000Z</time>
      </trkpt>
      <trkpt lat="39.86481" lon="-8.823714">
        <ele>26.8</ele>
        <time>1970-01-01T01:08:56.000Z</time>
      </trkpt>
      <trkpt lat="39.8648" lon="-8.823756">
        <ele>26.9</ele>
        <time>1970-01-01T01:08:57.000Z</time>
      </trkpt>
      <trkpt lat="39.864789" lon="-8.8238">
        <ele>26.9</ele>
        <time>1970-01-01T01:08:58.000Z</time>
      </trkpt>
      <trkpt lat="39.864778" lon="-8.823843">
        <ele>27</ele>
        <time>1970-01-01T01:08:59.000Z</time>
      </trkpt>
      <trkpt lat="39.864769" lon="-8.823882">
        <ele>27.1</ele>
        <time>1970-01-01T01:09:00.000Z</time>
      </trkpt>
      <trkpt lat="39.864761" lon="-8.823922">
        <ele>27.1</ele>
        <time>1970-01-01T01:09:01.000Z</time>
      </trkpt>
      <trkpt lat="39.864753" lon="-8.823966">
        <ele>27.2</ele>
        <time>1970-01-01T01:09:02.000Z</time>
      </trkpt>
      <trkpt lat="39.864743" lon="-8.824015">
        <ele>27.3</ele>
        <time>1970-01-01T01:09:03.000Z</time>
      </trkpt>
      <trkpt lat="39.864731" lon="-8.824061">
        <ele>27.4</ele>
        <time>1970-01-01T01:09:04.000Z</time>
      </trkpt>
      <trkpt lat="39.864722" lon="-8.824101">
        <ele>27.5</ele>
        <time>1970-01-01T01:09:05.000Z</time>
      </trkpt>
      <trkpt lat="39.864715" lon="-8.824137">
        <ele>27.6</ele>
        <time>1970-01-01T01:09:06.000Z</time>
      </trkpt>
      <trkpt lat="39.864707" lon="-8.824176">
        <ele>27.7</ele>
        <time>1970-01-01T01:09:07.000Z</time>
      </trkpt>
      <trkpt lat="39.864697" lon="-8.824214">
        <ele>27.8</ele>
        <time>1970-01-01T01:09:08.000Z</time>
      </trkpt>
      <trkpt lat="39.864685" lon="-8.824255">
        <ele>27.9</ele>
        <time>1970-01-01T01:09:09.000Z</time>
      </trkpt>
      <trkpt lat="39.864675" lon="-8.824298">
        <ele>28</ele>
        <time>1970-01-01T01:09:10.000Z</time>
      </trkpt>
      <trkpt lat="39.864668" lon="-8.824342">
        <ele>27.8</ele>
        <time>1970-01-01T01:09:11.000Z</time>
      </trkpt>
      <trkpt lat="39.864663" lon="-8.824384">
        <ele>27.6</ele>
        <time>1970-01-01T01:09:12.000Z</time>
      </trkpt>
      <trkpt lat="39.864231" lon="-8.825071">
        <ele>24.7</ele>
        <time>1970-01-01T01:10:41.000Z</time>
      </trkpt>
      <trkpt lat="39.864229" lon="-8.825084">
        <ele>24.6</ele>
        <time>1970-01-01T01:10:42.000Z</time>
      </trkpt>
      <trkpt lat="39.864245" lon="-8.825128">
        <ele>24.5</ele>
        <time>1970-01-01T01:10:43.000Z</time>
      </trkpt>
      <trkpt lat="39.864263" lon="-8.825169">
        <ele>24.3</ele>
        <time>1970-01-01T01:10:44.000Z</time>
      </trkpt>
      <trkpt lat="39.864285" lon="-8.825227">
        <ele>24.1</ele>
        <time>1970-01-01T01:10:45.000Z</time>
      </trkpt>
      <trkpt lat="39.864304" lon="-8.825284">
        <ele>23.9</ele>
        <time>1970-01-01T01:10:46.000Z</time>
      </trkpt>
      <trkpt lat="39.864316" lon="-8.825346">
        <ele>23.7</ele>
        <time>1970-01-01T01:10:47.000Z</time>
      </trkpt>
      <trkpt lat="39.864321" lon="-8.825415">
        <ele>23.5</ele>
        <time>1970-01-01T01:10:48.000Z</time>
      </trkpt>
      <trkpt lat="39.864319" lon="-8.825479">
        <ele>23.4</ele>
        <time>1970-01-01T01:10:49.000Z</time>
      </trkpt>
      <trkpt lat="39.864312" lon="-8.825544">
        <ele>23.3</ele>
        <time>1970-01-01T01:10:50.000Z</time>
      </trkpt>
      <trkpt lat="39.864301" lon="-8.825606">
        <ele>23.1</ele>
        <time>1970-01-01T01:10:51.000Z</time>
      </trkpt>
      <trkpt lat="39.864285" lon="-8.825661">
        <ele>23.1</ele>
        <time>1970-01-01T01:10:52.000Z</time>
      </trkpt>
      <trkpt lat="39.864259" lon="-8.825712">
        <ele>23</ele>
        <time>1970-01-01T01:10:53.000Z</time>
      </trkpt>
      <trkpt lat="39.864235" lon="-8.825761">
        <ele>23</ele>
        <time>1970-01-01T01:10:54.000Z</time>
      </trkpt>
      <trkpt lat="39.864213" lon="-8.825803">
        <ele>22.9</ele>
        <time>1970-01-01T01:10:55.000Z</time>
      </trkpt>
      <trkpt lat="39.864195" lon="-8.825844">
        <ele>22.9</ele>
        <time>1970-01-01T01:10:56.000Z</time>
      </trkpt>
      <trkpt lat="39.864183" lon="-8.825886">
        <ele>22.9</ele>
        <time>1970-01-01T01:10:57.000Z</time>
      </trkpt>
      <trkpt lat="39.864176" lon="-8.825929">
        <ele>22.9</ele>
        <time>1970-01-01T01:10:58.000Z</time>
      </trkpt>
      <trkpt lat="39.864172" lon="-8.825973">
        <ele>22.8</ele>
        <time>1970-01-01T01:10:59.000Z</time>
      </trkpt>
      <trkpt lat="39.864174" lon="-8.826022">
        <ele>22.8</ele>
        <time>1970-01-01T01:11:00.000Z</time>
      </trkpt>
      <trkpt lat="39.864179" lon="-8.826064">
        <ele>22.8</ele>
        <time>1970-01-01T01:11:01.000Z</time>
      </trkpt>
      <trkpt lat="39.864183" lon="-8.826102">
        <ele>22.7</ele>
        <time>1970-01-01T01:11:02.000Z</time>
      </trkpt>
      <trkpt lat="39.86419" lon="-8.826136">
        <ele>22.7</ele>
        <time>1970-01-01T01:11:03.000Z</time>
      </trkpt>
      <trkpt lat="39.864197" lon="-8.826169">
        <ele>22.6</ele>
        <time>1970-01-01T01:11:04.000Z</time>
      </trkpt>
      <trkpt lat="39.8642" lon="-8.826202">
        <ele>22.6</ele>
        <time>1970-01-01T01:11:05.000Z</time>
      </trkpt>
      <trkpt lat="39.864202" lon="-8.826236">
        <ele>22.6</ele>
        <time>1970-01-01T01:11:06.000Z</time>
      </trkpt>
      <trkpt lat="39.864203" lon="-8.82627">
        <ele>22.5</ele>
        <time>1970-01-01T01:11:07.000Z</time>
      </trkpt>
      <trkpt lat="39.864203" lon="-8.826308">
        <ele>22.5</ele>
        <time>1970-01-01T01:11:08.000Z</time>
      </trkpt>
      <trkpt lat="39.8642" lon="-8.826348">
        <ele>22.4</ele>
        <time>1970-01-01T01:11:09.000Z</time>
      </trkpt>
      <trkpt lat="39.864196" lon="-8.826393">
        <ele>22.4</ele>
        <time>1970-01-01T01:11:10.000Z</time>
      </trkpt>
      <trkpt lat="39.864191" lon="-8.82644">
        <ele>22.4</ele>
        <time>1970-01-01T01:11:11.000Z</time>
      </trkpt>
      <trkpt lat="39.864183" lon="-8.82649">
        <ele>22.3</ele>
        <time>1970-01-01T01:11:12.000Z</time>
      </trkpt>
      <trkpt lat="39.864174" lon="-8.826541">
        <ele>22.2</ele>
        <time>1970-01-01T01:11:13.000Z</time>
      </trkpt>
      <trkpt lat="39.864164" lon="-8.826597">
        <ele>22.1</ele>
        <time>1970-01-01T01:11:14.000Z</time>
      </trkpt>
      <trkpt lat="39.864155" lon="-8.826655">
        <ele>22.1</ele>
        <time>1970-01-01T01:11:15.000Z</time>
      </trkpt>
      <trkpt lat="39.864147" lon="-8.826713">
        <ele>22</ele>
        <time>1970-01-01T01:11:16.000Z</time>
      </trkpt>
      <trkpt lat="39.864138" lon="-8.826768">
        <ele>21.9</ele>
        <time>1970-01-01T01:11:17.000Z</time>
      </trkpt>
      <trkpt lat="39.864126" lon="-8.82682">
        <ele>21.8</ele>
        <time>1970-01-01T01:11:18.000Z</time>
      </trkpt>
      <trkpt lat="39.864113" lon="-8.826869">
        <ele>21.7</ele>
        <time>1970-01-01T01:11:19.000Z</time>
      </trkpt>
      <trkpt lat="39.864096" lon="-8.82692">
        <ele>21.7</ele>
        <time>1970-01-01T01:11:20.000Z</time>
      </trkpt>
      <trkpt lat="39.864077" lon="-8.826975">
        <ele>21.6</ele>
        <time>1970-01-01T01:11:21.000Z</time>
      </trkpt>
      <trkpt lat="39.864056" lon="-8.827031">
        <ele>21.5</ele>
        <time>1970-01-01T01:11:22.000Z</time>
      </trkpt>
      <trkpt lat="39.864035" lon="-8.827088">
        <ele>21.5</ele>
        <time>1970-01-01T01:11:23.000Z</time>
      </trkpt>
      <trkpt lat="39.864012" lon="-8.827145">
        <ele>21.5</ele>
        <time>1970-01-01T01:11:24.000Z</time>
      </trkpt>
      <trkpt lat="39.863988" lon="-8.827201">
        <ele>21.4</ele>
        <time>1970-01-01T01:11:25.000Z</time>
      </trkpt>
      <trkpt lat="39.863966" lon="-8.827253">
        <ele>21.4</ele>
        <time>1970-01-01T01:11:26.000Z</time>
      </trkpt>
      <trkpt lat="39.863948" lon="-8.827305">
        <ele>21.4</ele>
        <time>1970-01-01T01:11:27.000Z</time>
      </trkpt>
      <trkpt lat="39.863928" lon="-8.827355">
        <ele>21.4</ele>
        <time>1970-01-01T01:11:28.000Z</time>
      </trkpt>
      <trkpt lat="39.863905" lon="-8.827408">
        <ele>21.4</ele>
        <time>1970-01-01T01:11:29.000Z</time>
      </trkpt>
      <trkpt lat="39.86388" lon="-8.827462">
        <ele>21.4</ele>
        <time>1970-01-01T01:11:30.000Z</time>
      </trkpt>
      <trkpt lat="39.863856" lon="-8.827522">
        <ele>21.4</ele>
        <time>1970-01-01T01:11:31.000Z</time>
      </trkpt>
      <trkpt lat="39.863832" lon="-8.827583">
        <ele>21.4</ele>
        <time>1970-01-01T01:11:32.000Z</time>
      </trkpt>
      <trkpt lat="39.8638" lon="-8.827647">
        <ele>21.4</ele>
        <time>1970-01-01T01:11:33.000Z</time>
      </trkpt>
      <trkpt lat="39.863766" lon="-8.827714">
        <ele>21.4</ele>
        <time>1970-01-01T01:11:34.000Z</time>
      </trkpt>
      <trkpt lat="39.863733" lon="-8.82778">
        <ele>21.4</ele>
        <time>1970-01-01T01:11:35.000Z</time>
      </trkpt>
      <trkpt lat="39.863705" lon="-8.827843">
        <ele>21.4</ele>
        <time>1970-01-01T01:11:36.000Z</time>
      </trkpt>
      <trkpt lat="39.863681" lon="-8.827901">
        <ele>21.4</ele>
        <time>1970-01-01T01:11:37.000Z</time>
      </trkpt>
      <trkpt lat="39.863659" lon="-8.827959">
        <ele>21.4</ele>
        <time>1970-01-01T01:11:38.000Z</time>
      </trkpt>
      <trkpt lat="39.863641" lon="-8.828017">
        <ele>21.3</ele>
        <time>1970-01-01T01:11:39.000Z</time>
      </trkpt>
      <trkpt lat="39.863627" lon="-8.828073">
        <ele>21.3</ele>
        <time>1970-01-01T01:11:40.000Z</time>
      </trkpt>
      <trkpt lat="39.863612" lon="-8.828135">
        <ele>21.3</ele>
        <time>1970-01-01T01:11:41.000Z</time>
      </trkpt>
      <trkpt lat="39.863598" lon="-8.828196">
        <ele>21.3</ele>
        <time>1970-01-01T01:11:42.000Z</time>
      </trkpt>
      <trkpt lat="39.863585" lon="-8.828259">
        <ele>21.3</ele>
        <time>1970-01-01T01:11:43.000Z</time>
      </trkpt>
      <trkpt lat="39.86357" lon="-8.828323">
        <ele>21.3</ele>
        <time>1970-01-01T01:11:44.000Z</time>
      </trkpt>
      <trkpt lat="39.863555" lon="-8.828387">
        <ele>21.3</ele>
        <time>1970-01-01T01:11:45.000Z</time>
      </trkpt>
      <trkpt lat="39.86354" lon="-8.828449">
        <ele>21.3</ele>
        <time>1970-01-01T01:11:46.000Z</time>
      </trkpt>
      <trkpt lat="39.863521" lon="-8.828503">
        <ele>21.3</ele>
        <time>1970-01-01T01:11:47.000Z</time>
      </trkpt>
      <trkpt lat="39.863497" lon="-8.828556">
        <ele>21.3</ele>
        <time>1970-01-01T01:11:48.000Z</time>
      </trkpt>
      <trkpt lat="39.86347" lon="-8.828603">
        <ele>21.3</ele>
        <time>1970-01-01T01:11:49.000Z</time>
      </trkpt>
      <trkpt lat="39.863443" lon="-8.828642">
        <ele>21.4</ele>
        <time>1970-01-01T01:11:50.000Z</time>
      </trkpt>
      <trkpt lat="39.863417" lon="-8.828677">
        <ele>21.4</ele>
        <time>1970-01-01T01:11:51.000Z</time>
      </trkpt>
      <trkpt lat="39.863389" lon="-8.82871">
        <ele>21.4</ele>
        <time>1970-01-01T01:11:52.000Z</time>
      </trkpt>
      <trkpt lat="39.863362" lon="-8.828741">
        <ele>21.4</ele>
        <time>1970-01-01T01:11:53.000Z</time>
      </trkpt>
      <trkpt lat="39.863335" lon="-8.828768">
        <ele>21.4</ele>
        <time>1970-01-01T01:11:54.000Z</time>
      </trkpt>
      <trkpt lat="39.863309" lon="-8.828793">
        <ele>21.3</ele>
        <time>1970-01-01T01:11:55.000Z</time>
      </trkpt>
      <trkpt lat="39.863289" lon="-8.828815">
        <ele>21.3</ele>
        <time>1970-01-01T01:11:56.000Z</time>
      </trkpt>
      <trkpt lat="39.863268" lon="-8.828837">
        <ele>21.3</ele>
        <time>1970-01-01T01:11:57.000Z</time>
      </trkpt>
      <trkpt lat="39.863245" lon="-8.828859">
        <ele>21.3</ele>
        <time>1970-01-01T01:11:58.000Z</time>
      </trkpt>
      <trkpt lat="39.863219" lon="-8.828887">
        <ele>21.2</ele>
        <time>1970-01-01T01:11:59.000Z</time>
      </trkpt>
      <trkpt lat="39.863191" lon="-8.82892">
        <ele>21.2</ele>
        <time>1970-01-01T01:12:00.000Z</time>
      </trkpt>
      <trkpt lat="39.863165" lon="-8.828948">
        <ele>21.2</ele>
        <time>1970-01-01T01:12:01.000Z</time>
      </trkpt>
      <trkpt lat="39.863142" lon="-8.828974">
        <ele>21.1</ele>
        <time>1970-01-01T01:12:02.000Z</time>
      </trkpt>
      <trkpt lat="39.86312" lon="-8.828998">
        <ele>21.1</ele>
        <time>1970-01-01T01:12:03.000Z</time>
      </trkpt>
      <trkpt lat="39.863097" lon="-8.829022">
        <ele>21.1</ele>
        <time>1970-01-01T01:12:04.000Z</time>
      </trkpt>
      <trkpt lat="39.863074" lon="-8.829051">
        <ele>21.1</ele>
        <time>1970-01-01T01:12:05.000Z</time>
      </trkpt>
      <trkpt lat="39.863051" lon="-8.829088">
        <ele>21.1</ele>
        <time>1970-01-01T01:12:06.000Z</time>
      </trkpt>
      <trkpt lat="39.863027" lon="-8.82913">
        <ele>21.2</ele>
        <time>1970-01-01T01:12:07.000Z</time>
      </trkpt>
      <trkpt lat="39.863003" lon="-8.829172">
        <ele>21.2</ele>
        <time>1970-01-01T01:12:08.000Z</time>
      </trkpt>
      <trkpt lat="39.862977" lon="-8.829213">
        <ele>21.2</ele>
        <time>1970-01-01T01:12:09.000Z</time>
      </trkpt>
      <trkpt lat="39.862949" lon="-8.829254">
        <ele>21.3</ele>
        <time>1970-01-01T01:12:10.000Z</time>
      </trkpt>
      <trkpt lat="39.86292" lon="-8.829293">
        <ele>21.3</ele>
        <time>1970-01-01T01:12:11.000Z</time>
      </trkpt>
      <trkpt lat="39.862893" lon="-8.829331">
        <ele>21.4</ele>
        <time>1970-01-01T01:12:12.000Z</time>
      </trkpt>
      <trkpt lat="39.862867" lon="-8.829373">
        <ele>21.4</ele>
        <time>1970-01-01T01:12:13.000Z</time>
      </trkpt>
      <trkpt lat="39.862843" lon="-8.829416">
        <ele>21.5</ele>
        <time>1970-01-01T01:12:14.000Z</time>
      </trkpt>
      <trkpt lat="39.862818" lon="-8.829458">
        <ele>21.6</ele>
        <time>1970-01-01T01:12:15.000Z</time>
      </trkpt>
      <trkpt lat="39.862794" lon="-8.829496">
        <ele>21.7</ele>
        <time>1970-01-01T01:12:16.000Z</time>
      </trkpt>
      <trkpt lat="39.862772" lon="-8.829533">
        <ele>21.7</ele>
        <time>1970-01-01T01:12:17.000Z</time>
      </trkpt>
      <trkpt lat="39.862751" lon="-8.829567">
        <ele>21.8</ele>
        <time>1970-01-01T01:12:18.000Z</time>
      </trkpt>
      <trkpt lat="39.862729" lon="-8.829598">
        <ele>21.9</ele>
        <time>1970-01-01T01:12:19.000Z</time>
      </trkpt>
      <trkpt lat="39.862707" lon="-8.829629">
        <ele>22</ele>
        <time>1970-01-01T01:12:20.000Z</time>
      </trkpt>
      <trkpt lat="39.862682" lon="-8.829661">
        <ele>22.1</ele>
        <time>1970-01-01T01:12:21.000Z</time>
      </trkpt>
      <trkpt lat="39.86266" lon="-8.829693">
        <ele>22.2</ele>
        <time>1970-01-01T01:12:22.000Z</time>
      </trkpt>
      <trkpt lat="39.862636" lon="-8.829726">
        <ele>22.3</ele>
        <time>1970-01-01T01:12:23.000Z</time>
      </trkpt>
      <trkpt lat="39.86261" lon="-8.829759">
        <ele>22.4</ele>
        <time>1970-01-01T01:12:24.000Z</time>
      </trkpt>
      <trkpt lat="39.862583" lon="-8.82979">
        <ele>22.6</ele>
        <time>1970-01-01T01:12:25.000Z</time>
      </trkpt>
      <trkpt lat="39.862553" lon="-8.82982">
        <ele>22.7</ele>
        <time>1970-01-01T01:12:26.000Z</time>
      </trkpt>
      <trkpt lat="39.862524" lon="-8.829848">
        <ele>22.8</ele>
        <time>1970-01-01T01:12:27.000Z</time>
      </trkpt>
      <trkpt lat="39.862495" lon="-8.829877">
        <ele>22.9</ele>
        <time>1970-01-01T01:12:28.000Z</time>
      </trkpt>
      <trkpt lat="39.862466" lon="-8.829906">
        <ele>23</ele>
        <time>1970-01-01T01:12:29.000Z</time>
      </trkpt>
      <trkpt lat="39.862435" lon="-8.829936">
        <ele>23.1</ele>
        <time>1970-01-01T01:12:30.000Z</time>
      </trkpt>
      <trkpt lat="39.862403" lon="-8.82997">
        <ele>23.2</ele>
        <time>1970-01-01T01:12:31.000Z</time>
      </trkpt>
      <trkpt lat="39.86237" lon="-8.830007">
        <ele>23.3</ele>
        <time>1970-01-01T01:12:32.000Z</time>
      </trkpt>
      <trkpt lat="39.862339" lon="-8.830048">
        <ele>23.4</ele>
        <time>1970-01-01T01:12:33.000Z</time>
      </trkpt>
      <trkpt lat="39.86231" lon="-8.830093">
        <ele>23.5</ele>
        <time>1970-01-01T01:12:34.000Z</time>
      </trkpt>
      <trkpt lat="39.862283" lon="-8.830137">
        <ele>23.6</ele>
        <time>1970-01-01T01:12:35.000Z</time>
      </trkpt>
      <trkpt lat="39.862259" lon="-8.830183">
        <ele>23.7</ele>
        <time>1970-01-01T01:12:36.000Z</time>
      </trkpt>
      <trkpt lat="39.862235" lon="-8.830227">
        <ele>23.8</ele>
        <time>1970-01-01T01:12:37.000Z</time>
      </trkpt>
      <trkpt lat="39.862212" lon="-8.830271">
        <ele>23.9</ele>
        <time>1970-01-01T01:12:38.000Z</time>
      </trkpt>
      <trkpt lat="39.862189" lon="-8.830316">
        <ele>24</ele>
        <time>1970-01-01T01:12:39.000Z</time>
      </trkpt>
      <trkpt lat="39.862164" lon="-8.830362">
        <ele>24.1</ele>
        <time>1970-01-01T01:12:40.000Z</time>
      </trkpt>
      <trkpt lat="39.862133" lon="-8.830407">
        <ele>24.2</ele>
        <time>1970-01-01T01:12:41.000Z</time>
      </trkpt>
      <trkpt lat="39.862099" lon="-8.830451">
        <ele>24.4</ele>
        <time>1970-01-01T01:12:42.000Z</time>
      </trkpt>
      <trkpt lat="39.862064" lon="-8.830497">
        <ele>24.5</ele>
        <time>1970-01-01T01:12:43.000Z</time>
      </trkpt>
      <trkpt lat="39.862031" lon="-8.830544">
        <ele>24.6</ele>
        <time>1970-01-01T01:12:44.000Z</time>
      </trkpt>
      <trkpt lat="39.862002" lon="-8.83059">
        <ele>24.8</ele>
        <time>1970-01-01T01:12:45.000Z</time>
      </trkpt>
      <trkpt lat="39.861976" lon="-8.830635">
        <ele>24.9</ele>
        <time>1970-01-01T01:12:46.000Z</time>
      </trkpt>
      <trkpt lat="39.861954" lon="-8.830678">
        <ele>25</ele>
        <time>1970-01-01T01:12:47.000Z</time>
      </trkpt>
      <trkpt lat="39.86193" lon="-8.830722">
        <ele>25.1</ele>
        <time>1970-01-01T01:12:48.000Z</time>
      </trkpt>
      <trkpt lat="39.861901" lon="-8.830764">
        <ele>25.3</ele>
        <time>1970-01-01T01:12:49.000Z</time>
      </trkpt>
      <trkpt lat="39.86187" lon="-8.830803">
        <ele>25.4</ele>
        <time>1970-01-01T01:12:50.000Z</time>
      </trkpt>
      <trkpt lat="39.861837" lon="-8.830834">
        <ele>25.5</ele>
        <time>1970-01-01T01:12:51.000Z</time>
      </trkpt>
      <trkpt lat="39.861804" lon="-8.830862">
        <ele>25.7</ele>
        <time>1970-01-01T01:12:52.000Z</time>
      </trkpt>
      <trkpt lat="39.86177" lon="-8.830886">
        <ele>25.8</ele>
        <time>1970-01-01T01:12:53.000Z</time>
      </trkpt>
      <trkpt lat="39.861738" lon="-8.830911">
        <ele>25.9</ele>
        <time>1970-01-01T01:12:54.000Z</time>
      </trkpt>
      <trkpt lat="39.861709" lon="-8.830935">
        <ele>26</ele>
        <time>1970-01-01T01:12:55.000Z</time>
      </trkpt>
      <trkpt lat="39.861684" lon="-8.830963">
        <ele>26.1</ele>
        <time>1970-01-01T01:12:56.000Z</time>
      </trkpt>
      <trkpt lat="39.861665" lon="-8.830993">
        <ele>26.2</ele>
        <time>1970-01-01T01:12:57.000Z</time>
      </trkpt>
      <trkpt lat="39.861647" lon="-8.831023">
        <ele>26.3</ele>
        <time>1970-01-01T01:12:58.000Z</time>
      </trkpt>
      <trkpt lat="39.861635" lon="-8.831051">
        <ele>26.4</ele>
        <time>1970-01-01T01:12:59.000Z</time>
      </trkpt>
      <trkpt lat="39.861627" lon="-8.831078">
        <ele>26.5</ele>
        <time>1970-01-01T01:13:00.000Z</time>
      </trkpt>
      <trkpt lat="39.861625" lon="-8.831107">
        <ele>26.6</ele>
        <time>1970-01-01T01:13:01.000Z</time>
      </trkpt>
      <trkpt lat="39.861629" lon="-8.831138">
        <ele>26.2</ele>
        <time>1970-01-01T01:13:02.000Z</time>
      </trkpt>
      <trkpt lat="39.861637" lon="-8.831171">
        <ele>26.1</ele>
        <time>1970-01-01T01:13:03.000Z</time>
      </trkpt>
      <trkpt lat="39.861652" lon="-8.831204">
        <ele>26.1</ele>
        <time>1970-01-01T01:13:04.000Z</time>
      </trkpt>
      <trkpt lat="39.861674" lon="-8.831236">
        <ele>25.7</ele>
        <time>1970-01-01T01:13:05.000Z</time>
      </trkpt>
      <trkpt lat="39.861701" lon="-8.831269">
        <ele>25.1</ele>
        <time>1970-01-01T01:13:06.000Z</time>
      </trkpt>
      <trkpt lat="39.861731" lon="-8.831303">
        <ele>24.6</ele>
        <time>1970-01-01T01:13:07.000Z</time>
      </trkpt>
      <trkpt lat="39.861762" lon="-8.831338">
        <ele>24</ele>
        <time>1970-01-01T01:13:08.000Z</time>
      </trkpt>
      <trkpt lat="39.861791" lon="-8.831369">
        <ele>23.7</ele>
        <time>1970-01-01T01:13:09.000Z</time>
      </trkpt>
      <trkpt lat="39.86182" lon="-8.831395">
        <ele>23.4</ele>
        <time>1970-01-01T01:13:10.000Z</time>
      </trkpt>
      <trkpt lat="39.861848" lon="-8.83142">
        <ele>22.8</ele>
        <time>1970-01-01T01:13:11.000Z</time>
      </trkpt>
      <trkpt lat="39.861874" lon="-8.831443">
        <ele>22.5</ele>
        <time>1970-01-01T01:13:12.000Z</time>
      </trkpt>
      <trkpt lat="39.861901" lon="-8.831462">
        <ele>22.1</ele>
        <time>1970-01-01T01:13:13.000Z</time>
      </trkpt>
      <trkpt lat="39.86193" lon="-8.831474">
        <ele>21.5</ele>
        <time>1970-01-01T01:13:14.000Z</time>
      </trkpt>
      <trkpt lat="39.861964" lon="-8.831476">
        <ele>21.1</ele>
        <time>1970-01-01T01:13:15.000Z</time>
      </trkpt>
      <trkpt lat="39.861996" lon="-8.831471">
        <ele>20.7</ele>
        <time>1970-01-01T01:13:16.000Z</time>
      </trkpt>
      <trkpt lat="39.862029" lon="-8.831462">
        <ele>20.5</ele>
        <time>1970-01-01T01:13:17.000Z</time>
      </trkpt>
      <trkpt lat="39.862066" lon="-8.83145">
        <ele>20.1</ele>
        <time>1970-01-01T01:13:18.000Z</time>
      </trkpt>
      <trkpt lat="39.86211" lon="-8.831441">
        <ele>19.6</ele>
        <time>1970-01-01T01:13:19.000Z</time>
      </trkpt>
      <trkpt lat="39.862161" lon="-8.831434">
        <ele>18.4</ele>
        <time>1970-01-01T01:13:20.000Z</time>
      </trkpt>
      <trkpt lat="39.862217" lon="-8.831435">
        <ele>17.8</ele>
        <time>1970-01-01T01:13:21.000Z</time>
      </trkpt>
      <trkpt lat="39.862276" lon="-8.83144">
        <ele>16.6</ele>
        <time>1970-01-01T01:13:22.000Z</time>
      </trkpt>
      <trkpt lat="39.862333" lon="-8.831444">
        <ele>15.5</ele>
        <time>1970-01-01T01:13:23.000Z</time>
      </trkpt>
      <trkpt lat="39.862388" lon="-8.831445">
        <ele>14.5</ele>
        <time>1970-01-01T01:13:24.000Z</time>
      </trkpt>
      <trkpt lat="39.862441" lon="-8.831442">
        <ele>14.1</ele>
        <time>1970-01-01T01:13:25.000Z</time>
      </trkpt>
      <trkpt lat="39.862492" lon="-8.831434">
        <ele>13.2</ele>
        <time>1970-01-01T01:13:26.000Z</time>
      </trkpt>
      <trkpt lat="39.862538" lon="-8.831418">
        <ele>13</ele>
        <time>1970-01-01T01:13:27.000Z</time>
      </trkpt>
      <trkpt lat="39.862579" lon="-8.831404">
        <ele>12.7</ele>
        <time>1970-01-01T01:13:28.000Z</time>
      </trkpt>
      <trkpt lat="39.862624" lon="-8.831395">
        <ele>12.2</ele>
        <time>1970-01-01T01:13:29.000Z</time>
      </trkpt>
      <trkpt lat="39.862669" lon="-8.83139">
        <ele>12</ele>
        <time>1970-01-01T01:13:30.000Z</time>
      </trkpt>
      <trkpt lat="39.862715" lon="-8.831391">
        <ele>11.7</ele>
        <time>1970-01-01T01:13:31.000Z</time>
      </trkpt>
      <trkpt lat="39.862766" lon="-8.831399">
        <ele>11.6</ele>
        <time>1970-01-01T01:13:32.000Z</time>
      </trkpt>
      <trkpt lat="39.86282" lon="-8.831412">
        <ele>11.4</ele>
        <time>1970-01-01T01:13:33.000Z</time>
      </trkpt>
      <trkpt lat="39.862874" lon="-8.831426">
        <ele>11.4</ele>
        <time>1970-01-01T01:13:34.000Z</time>
      </trkpt>
      <trkpt lat="39.862928" lon="-8.831439">
        <ele>11.3</ele>
        <time>1970-01-01T01:13:35.000Z</time>
      </trkpt>
      <trkpt lat="39.862982" lon="-8.831452">
        <ele>11.3</ele>
        <time>1970-01-01T01:13:36.000Z</time>
      </trkpt>
      <trkpt lat="39.863035" lon="-8.831461">
        <ele>11.3</ele>
        <time>1970-01-01T01:13:37.000Z</time>
      </trkpt>
      <trkpt lat="39.863087" lon="-8.831472">
        <ele>11.2</ele>
        <time>1970-01-01T01:13:38.000Z</time>
      </trkpt>
      <trkpt lat="39.863135" lon="-8.831483">
        <ele>11.1</ele>
        <time>1970-01-01T01:13:39.000Z</time>
      </trkpt>
      <trkpt lat="39.86318" lon="-8.831496">
        <ele>11.1</ele>
        <time>1970-01-01T01:13:40.000Z</time>
      </trkpt>
      <trkpt lat="39.86322" lon="-8.83151">
        <ele>11.1</ele>
        <time>1970-01-01T01:13:41.000Z</time>
      </trkpt>
      <trkpt lat="39.863255" lon="-8.83152">
        <ele>11.1</ele>
        <time>1970-01-01T01:13:42.000Z</time>
      </trkpt>
      <trkpt lat="39.863287" lon="-8.831524">
        <ele>11.1</ele>
        <time>1970-01-01T01:13:43.000Z</time>
      </trkpt>
      <trkpt lat="39.86332" lon="-8.831521">
        <ele>11</ele>
        <time>1970-01-01T01:13:44.000Z</time>
      </trkpt>
      <trkpt lat="39.863353" lon="-8.831518">
        <ele>11</ele>
        <time>1970-01-01T01:13:45.000Z</time>
      </trkpt>
      <trkpt lat="39.863381" lon="-8.831515">
        <ele>11</ele>
        <time>1970-01-01T01:13:46.000Z</time>
      </trkpt>
      <trkpt lat="39.863407" lon="-8.831516">
        <ele>10.9</ele>
        <time>1970-01-01T01:13:47.000Z</time>
      </trkpt>
      <trkpt lat="39.863432" lon="-8.831522">
        <ele>11</ele>
        <time>1970-01-01T01:13:48.000Z</time>
      </trkpt>
      <trkpt lat="39.863454" lon="-8.831535">
        <ele>10.9</ele>
        <time>1970-01-01T01:13:49.000Z</time>
      </trkpt>
      <trkpt lat="39.863469" lon="-8.831555">
        <ele>11</ele>
        <time>1970-01-01T01:13:50.000Z</time>
      </trkpt>
      <trkpt lat="39.863478" lon="-8.831583">
        <ele>10.9</ele>
        <time>1970-01-01T01:13:51.000Z</time>
      </trkpt>
      <trkpt lat="39.863483" lon="-8.831619">
        <ele>10.9</ele>
        <time>1970-01-01T01:13:52.000Z</time>
      </trkpt>
      <trkpt lat="39.863489" lon="-8.83166">
        <ele>11</ele>
        <time>1970-01-01T01:13:53.000Z</time>
      </trkpt>
      <trkpt lat="39.863496" lon="-8.831701">
        <ele>11</ele>
        <time>1970-01-01T01:13:54.000Z</time>
      </trkpt>
      <trkpt lat="39.863505" lon="-8.83174">
        <ele>10.9</ele>
        <time>1970-01-01T01:13:55.000Z</time>
      </trkpt>
      <trkpt lat="39.863515" lon="-8.831772">
        <ele>10.9</ele>
        <time>1970-01-01T01:13:56.000Z</time>
      </trkpt>
      <trkpt lat="39.863526" lon="-8.831807">
        <ele>10.9</ele>
        <time>1970-01-01T01:13:57.000Z</time>
      </trkpt>
      <trkpt lat="39.86354" lon="-8.831848">
        <ele>10.8</ele>
        <time>1970-01-01T01:13:58.000Z</time>
      </trkpt>
      <trkpt lat="39.863553" lon="-8.831893">
        <ele>10.7</ele>
        <time>1970-01-01T01:13:59.000Z</time>
      </trkpt>
      <trkpt lat="39.863568" lon="-8.831939">
        <ele>10.7</ele>
        <time>1970-01-01T01:14:00.000Z</time>
      </trkpt>
      <trkpt lat="39.863583" lon="-8.831984">
        <ele>10.5</ele>
        <time>1970-01-01T01:14:01.000Z</time>
      </trkpt>
      <trkpt lat="39.863596" lon="-8.832023">
        <ele>10.5</ele>
        <time>1970-01-01T01:14:02.000Z</time>
      </trkpt>
      <trkpt lat="39.863604" lon="-8.832059">
        <ele>10.4</ele>
        <time>1970-01-01T01:14:03.000Z</time>
      </trkpt>
      <trkpt lat="39.863606" lon="-8.832094">
        <ele>10.4</ele>
        <time>1970-01-01T01:14:04.000Z</time>
      </trkpt>
      <trkpt lat="39.863599" lon="-8.832135">
        <ele>10.4</ele>
        <time>1970-01-01T01:14:05.000Z</time>
      </trkpt>
      <trkpt lat="39.863589" lon="-8.832184">
        <ele>10.4</ele>
        <time>1970-01-01T01:14:06.000Z</time>
      </trkpt>
      <trkpt lat="39.863581" lon="-8.832234">
        <ele>10.3</ele>
        <time>1970-01-01T01:14:07.000Z</time>
      </trkpt>
      <trkpt lat="39.86358" lon="-8.83228">
        <ele>10.2</ele>
        <time>1970-01-01T01:14:08.000Z</time>
      </trkpt>
      <trkpt lat="39.863582" lon="-8.832324">
        <ele>10.2</ele>
        <time>1970-01-01T01:14:09.000Z</time>
      </trkpt>
      <trkpt lat="39.863588" lon="-8.832363">
        <ele>10.2</ele>
        <time>1970-01-01T01:14:10.000Z</time>
      </trkpt>
      <trkpt lat="39.863597" lon="-8.832398">
        <ele>10.2</ele>
        <time>1970-01-01T01:14:11.000Z</time>
      </trkpt>
      <trkpt lat="39.863611" lon="-8.83243">
        <ele>10.1</ele>
        <time>1970-01-01T01:14:12.000Z</time>
      </trkpt>
      <trkpt lat="39.863628" lon="-8.832459">
        <ele>10</ele>
        <time>1970-01-01T01:14:13.000Z</time>
      </trkpt>
      <trkpt lat="39.863649" lon="-8.832491">
        <ele>10</ele>
        <time>1970-01-01T01:14:14.000Z</time>
      </trkpt>
      <trkpt lat="39.863675" lon="-8.832527">
        <ele>9.9</ele>
        <time>1970-01-01T01:14:15.000Z</time>
      </trkpt>
      <trkpt lat="39.863701" lon="-8.832567">
        <ele>9.8</ele>
        <time>1970-01-01T01:14:16.000Z</time>
      </trkpt>
      <trkpt lat="39.863725" lon="-8.832612">
        <ele>9.7</ele>
        <time>1970-01-01T01:14:17.000Z</time>
      </trkpt>
      <trkpt lat="39.863742" lon="-8.83266">
        <ele>9.6</ele>
        <time>1970-01-01T01:14:18.000Z</time>
      </trkpt>
      <trkpt lat="39.863752" lon="-8.83271">
        <ele>9.5</ele>
        <time>1970-01-01T01:14:19.000Z</time>
      </trkpt>
      <trkpt lat="39.863756" lon="-8.832762">
        <ele>9.5</ele>
        <time>1970-01-01T01:14:20.000Z</time>
      </trkpt>
      <trkpt lat="39.863755" lon="-8.832819">
        <ele>9.5</ele>
        <time>1970-01-01T01:14:21.000Z</time>
      </trkpt>
      <trkpt lat="39.863753" lon="-8.832878">
        <ele>9.4</ele>
        <time>1970-01-01T01:14:22.000Z</time>
      </trkpt>
      <trkpt lat="39.863749" lon="-8.832941">
        <ele>9.3</ele>
        <time>1970-01-01T01:14:23.000Z</time>
      </trkpt>
      <trkpt lat="39.863747" lon="-8.833008">
        <ele>9.2</ele>
        <time>1970-01-01T01:14:24.000Z</time>
      </trkpt>
      <trkpt lat="39.863746" lon="-8.833073">
        <ele>9.2</ele>
        <time>1970-01-01T01:14:25.000Z</time>
      </trkpt>
      <trkpt lat="39.863748" lon="-8.833134">
        <ele>9.2</ele>
        <time>1970-01-01T01:14:26.000Z</time>
      </trkpt>
      <trkpt lat="39.86375" lon="-8.833193">
        <ele>9.1</ele>
        <time>1970-01-01T01:14:27.000Z</time>
      </trkpt>
      <trkpt lat="39.86375" lon="-8.833251">
        <ele>9.2</ele>
        <time>1970-01-01T01:14:28.000Z</time>
      </trkpt>
      <trkpt lat="39.863749" lon="-8.833312">
        <ele>9.2</ele>
        <time>1970-01-01T01:14:29.000Z</time>
      </trkpt>
      <trkpt lat="39.863745" lon="-8.833377">
        <ele>9.2</ele>
        <time>1970-01-01T01:14:30.000Z</time>
      </trkpt>
      <trkpt lat="39.863739" lon="-8.833445">
        <ele>9.3</ele>
        <time>1970-01-01T01:14:31.000Z</time>
      </trkpt>
      <trkpt lat="39.863729" lon="-8.833517">
        <ele>9.4</ele>
        <time>1970-01-01T01:14:32.000Z</time>
      </trkpt>
      <trkpt lat="39.863716" lon="-8.833589">
        <ele>9.5</ele>
        <time>1970-01-01T01:14:33.000Z</time>
      </trkpt>
      <trkpt lat="39.863702" lon="-8.833661">
        <ele>9.5</ele>
        <time>1970-01-01T01:14:34.000Z</time>
      </trkpt>
      <trkpt lat="39.863688" lon="-8.833737">
        <ele>9.6</ele>
        <time>1970-01-01T01:14:35.000Z</time>
      </trkpt>
      <trkpt lat="39.863676" lon="-8.833809">
        <ele>9.7</ele>
        <time>1970-01-01T01:14:36.000Z</time>
      </trkpt>
      <trkpt lat="39.863671" lon="-8.833877">
        <ele>9.7</ele>
        <time>1970-01-01T01:14:37.000Z</time>
      </trkpt>
      <trkpt lat="39.863669" lon="-8.833942">
        <ele>9.8</ele>
        <time>1970-01-01T01:14:38.000Z</time>
      </trkpt>
      <trkpt lat="39.86367" lon="-8.833997">
        <ele>9.8</ele>
        <time>1970-01-01T01:14:39.000Z</time>
      </trkpt>
      <trkpt lat="39.863675" lon="-8.834045">
        <ele>9.8</ele>
        <time>1970-01-01T01:14:40.000Z</time>
      </trkpt>
      <trkpt lat="39.863683" lon="-8.834086">
        <ele>9.8</ele>
        <time>1970-01-01T01:14:41.000Z</time>
      </trkpt>
      <trkpt lat="39.863689" lon="-8.83412">
        <ele>9.9</ele>
        <time>1970-01-01T01:14:42.000Z</time>
      </trkpt>
      <trkpt lat="39.863696" lon="-8.834148">
        <ele>9.9</ele>
        <time>1970-01-01T01:14:43.000Z</time>
      </trkpt>
      <trkpt lat="39.863699" lon="-8.834176">
        <ele>9.9</ele>
        <time>1970-01-01T01:14:44.000Z</time>
      </trkpt>
      <trkpt lat="39.863698" lon="-8.834206">
        <ele>10</ele>
        <time>1970-01-01T01:14:45.000Z</time>
      </trkpt>
      <trkpt lat="39.863694" lon="-8.834237">
        <ele>10</ele>
        <time>1970-01-01T01:14:46.000Z</time>
      </trkpt>
      <trkpt lat="39.863685" lon="-8.834272">
        <ele>10</ele>
        <time>1970-01-01T01:14:47.000Z</time>
      </trkpt>
      <trkpt lat="39.863675" lon="-8.834311">
        <ele>10</ele>
        <time>1970-01-01T01:14:48.000Z</time>
      </trkpt>
      <trkpt lat="39.863663" lon="-8.834353">
        <ele>10</ele>
        <time>1970-01-01T01:14:49.000Z</time>
      </trkpt>
      <trkpt lat="39.863649" lon="-8.834399">
        <ele>10</ele>
        <time>1970-01-01T01:14:50.000Z</time>
      </trkpt>
      <trkpt lat="39.863635" lon="-8.834449">
        <ele>10</ele>
        <time>1970-01-01T01:14:51.000Z</time>
      </trkpt>
      <trkpt lat="39.86362" lon="-8.834503">
        <ele>10.1</ele>
        <time>1970-01-01T01:14:52.000Z</time>
      </trkpt>
      <trkpt lat="39.863604" lon="-8.834561">
        <ele>10.1</ele>
        <time>1970-01-01T01:14:53.000Z</time>
      </trkpt>
      <trkpt lat="39.863587" lon="-8.834621">
        <ele>10.1</ele>
        <time>1970-01-01T01:14:54.000Z</time>
      </trkpt>
      <trkpt lat="39.86357" lon="-8.834679">
        <ele>10.1</ele>
        <time>1970-01-01T01:14:55.000Z</time>
      </trkpt>
      <trkpt lat="39.863556" lon="-8.83473">
        <ele>10.1</ele>
        <time>1970-01-01T01:14:56.000Z</time>
      </trkpt>
      <trkpt lat="39.863542" lon="-8.834775">
        <ele>10.2</ele>
        <time>1970-01-01T01:14:57.000Z</time>
      </trkpt>
      <trkpt lat="39.863535" lon="-8.834822">
        <ele>10.2</ele>
        <time>1970-01-01T01:14:58.000Z</time>
      </trkpt>
      <trkpt lat="39.863533" lon="-8.83487">
        <ele>10.2</ele>
        <time>1970-01-01T01:14:59.000Z</time>
      </trkpt>
      <trkpt lat="39.86353" lon="-8.834923">
        <ele>10.2</ele>
        <time>1970-01-01T01:15:00.000Z</time>
      </trkpt>
      <trkpt lat="39.863527" lon="-8.834975">
        <ele>10.2</ele>
        <time>1970-01-01T01:15:01.000Z</time>
      </trkpt>
      <trkpt lat="39.86352" lon="-8.835027">
        <ele>10.2</ele>
        <time>1970-01-01T01:15:02.000Z</time>
      </trkpt>
      <trkpt lat="39.86351" lon="-8.835078">
        <ele>10.2</ele>
        <time>1970-01-01T01:15:03.000Z</time>
      </trkpt>
      <trkpt lat="39.863495" lon="-8.835125">
        <ele>10.3</ele>
        <time>1970-01-01T01:15:04.000Z</time>
      </trkpt>
      <trkpt lat="39.863477" lon="-8.835171">
        <ele>10.3</ele>
        <time>1970-01-01T01:15:05.000Z</time>
      </trkpt>
      <trkpt lat="39.863457" lon="-8.835215">
        <ele>10.3</ele>
        <time>1970-01-01T01:15:06.000Z</time>
      </trkpt>
      <trkpt lat="39.863439" lon="-8.835254">
        <ele>10.3</ele>
        <time>1970-01-01T01:15:07.000Z</time>
      </trkpt>
      <trkpt lat="39.863423" lon="-8.835291">
        <ele>10.3</ele>
        <time>1970-01-01T01:15:08.000Z</time>
      </trkpt>
      <trkpt lat="39.863408" lon="-8.835331">
        <ele>10.4</ele>
        <time>1970-01-01T01:15:09.000Z</time>
      </trkpt>
      <trkpt lat="39.863399" lon="-8.83537">
        <ele>10.4</ele>
        <time>1970-01-01T01:15:10.000Z</time>
      </trkpt>
      <trkpt lat="39.863393" lon="-8.835412">
        <ele>10.4</ele>
        <time>1970-01-01T01:15:11.000Z</time>
      </trkpt>
      <trkpt lat="39.863392" lon="-8.835453">
        <ele>10.4</ele>
        <time>1970-01-01T01:15:12.000Z</time>
      </trkpt>
      <trkpt lat="39.863391" lon="-8.835498">
        <ele>10.4</ele>
        <time>1970-01-01T01:15:13.000Z</time>
      </trkpt>
      <trkpt lat="39.863389" lon="-8.835548">
        <ele>10.4</ele>
        <time>1970-01-01T01:15:14.000Z</time>
      </trkpt>
      <trkpt lat="39.863384" lon="-8.835604">
        <ele>10.4</ele>
        <time>1970-01-01T01:15:15.000Z</time>
      </trkpt>
      <trkpt lat="39.863374" lon="-8.835668">
        <ele>10.5</ele>
        <time>1970-01-01T01:15:16.000Z</time>
      </trkpt>
      <trkpt lat="39.863367" lon="-8.835735">
        <ele>10.5</ele>
        <time>1970-01-01T01:15:17.000Z</time>
      </trkpt>
      <trkpt lat="39.86336" lon="-8.835803">
        <ele>10.5</ele>
        <time>1970-01-01T01:15:18.000Z</time>
      </trkpt>
      <trkpt lat="39.863354" lon="-8.835871">
        <ele>10.6</ele>
        <time>1970-01-01T01:15:19.000Z</time>
      </trkpt>
      <trkpt lat="39.863345" lon="-8.835935">
        <ele>10.6</ele>
        <time>1970-01-01T01:15:20.000Z</time>
      </trkpt>
      <trkpt lat="39.863337" lon="-8.835989">
        <ele>10.7</ele>
        <time>1970-01-01T01:15:21.000Z</time>
      </trkpt>
      <trkpt lat="39.863326" lon="-8.836045">
        <ele>10.7</ele>
        <time>1970-01-01T01:15:22.000Z</time>
      </trkpt>
      <trkpt lat="39.863317" lon="-8.836101">
        <ele>10.8</ele>
        <time>1970-01-01T01:15:23.000Z</time>
      </trkpt>
      <trkpt lat="39.863304" lon="-8.836163">
        <ele>10.8</ele>
        <time>1970-01-01T01:15:24.000Z</time>
      </trkpt>
      <trkpt lat="39.863287" lon="-8.836226">
        <ele>10.9</ele>
        <time>1970-01-01T01:15:25.000Z</time>
      </trkpt>
      <trkpt lat="39.863269" lon="-8.836293">
        <ele>11</ele>
        <time>1970-01-01T01:15:26.000Z</time>
      </trkpt>
      <trkpt lat="39.863251" lon="-8.836361">
        <ele>11</ele>
        <time>1970-01-01T01:15:27.000Z</time>
      </trkpt>
      <trkpt lat="39.863233" lon="-8.83643">
        <ele>11.1</ele>
        <time>1970-01-01T01:15:28.000Z</time>
      </trkpt>
      <trkpt lat="39.863216" lon="-8.836498">
        <ele>11.2</ele>
        <time>1970-01-01T01:15:29.000Z</time>
      </trkpt>
      <trkpt lat="39.863193" lon="-8.836571">
        <ele>11.2</ele>
        <time>1970-01-01T01:15:30.000Z</time>
      </trkpt>
      <trkpt lat="39.863172" lon="-8.836639">
        <ele>11.3</ele>
        <time>1970-01-01T01:15:31.000Z</time>
      </trkpt>
      <trkpt lat="39.863151" lon="-8.836702">
        <ele>11.3</ele>
        <time>1970-01-01T01:15:32.000Z</time>
      </trkpt>
      <trkpt lat="39.863131" lon="-8.836759">
        <ele>11.4</ele>
        <time>1970-01-01T01:15:33.000Z</time>
      </trkpt>
      <trkpt lat="39.863112" lon="-8.836815">
        <ele>11.4</ele>
        <time>1970-01-01T01:15:34.000Z</time>
      </trkpt>
      <trkpt lat="39.863095" lon="-8.836873">
        <ele>11.5</ele>
        <time>1970-01-01T01:15:35.000Z</time>
      </trkpt>
      <trkpt lat="39.863081" lon="-8.836932">
        <ele>11.5</ele>
        <time>1970-01-01T01:15:36.000Z</time>
      </trkpt>
      <trkpt lat="39.863068" lon="-8.836987">
        <ele>11.6</ele>
        <time>1970-01-01T01:15:37.000Z</time>
      </trkpt>
      <trkpt lat="39.863055" lon="-8.837038">
        <ele>11.6</ele>
        <time>1970-01-01T01:15:38.000Z</time>
      </trkpt>
      <trkpt lat="39.863046" lon="-8.837083">
        <ele>11.6</ele>
        <time>1970-01-01T01:15:39.000Z</time>
      </trkpt>
      <trkpt lat="39.863041" lon="-8.837123">
        <ele>11.7</ele>
        <time>1970-01-01T01:15:40.000Z</time>
      </trkpt>
      <trkpt lat="39.863042" lon="-8.837157">
        <ele>11.7</ele>
        <time>1970-01-01T01:15:41.000Z</time>
      </trkpt>
      <trkpt lat="39.863047" lon="-8.837184">
        <ele>11.7</ele>
        <time>1970-01-01T01:15:42.000Z</time>
      </trkpt>
      <trkpt lat="39.863055" lon="-8.837206">
        <ele>11.8</ele>
        <time>1970-01-01T01:15:43.000Z</time>
      </trkpt>
      <trkpt lat="39.863064" lon="-8.837227">
        <ele>11.8</ele>
        <time>1970-01-01T01:15:44.000Z</time>
      </trkpt>
      <trkpt lat="39.86307" lon="-8.837251">
        <ele>11.8</ele>
        <time>1970-01-01T01:15:45.000Z</time>
      </trkpt>
      <trkpt lat="39.863075" lon="-8.837278">
        <ele>11.9</ele>
        <time>1970-01-01T01:15:46.000Z</time>
      </trkpt>
      <trkpt lat="39.863076" lon="-8.837309">
        <ele>12</ele>
        <time>1970-01-01T01:15:47.000Z</time>
      </trkpt>
      <trkpt lat="39.863074" lon="-8.837343">
        <ele>12</ele>
        <time>1970-01-01T01:15:48.000Z</time>
      </trkpt>
      <trkpt lat="39.863072" lon="-8.837377">
        <ele>12.1</ele>
        <time>1970-01-01T01:15:49.000Z</time>
      </trkpt>
      <trkpt lat="39.863067" lon="-8.837413">
        <ele>12.2</ele>
        <time>1970-01-01T01:15:50.000Z</time>
      </trkpt>
      <trkpt lat="39.863059" lon="-8.837448">
        <ele>12.2</ele>
        <time>1970-01-01T01:15:51.000Z</time>
      </trkpt>
      <trkpt lat="39.863051" lon="-8.837484">
        <ele>12.3</ele>
        <time>1970-01-01T01:15:52.000Z</time>
      </trkpt>
      <trkpt lat="39.863041" lon="-8.837522">
        <ele>12.4</ele>
        <time>1970-01-01T01:15:53.000Z</time>
      </trkpt>
      <trkpt lat="39.863029" lon="-8.837566">
        <ele>12.5</ele>
        <time>1970-01-01T01:15:54.000Z</time>
      </trkpt>
      <trkpt lat="39.863015" lon="-8.837616">
        <ele>12.6</ele>
        <time>1970-01-01T01:15:55.000Z</time>
      </trkpt>
      <trkpt lat="39.863003" lon="-8.837673">
        <ele>12.8</ele>
        <time>1970-01-01T01:15:56.000Z</time>
      </trkpt>
      <trkpt lat="39.862996" lon="-8.837731">
        <ele>12.9</ele>
        <time>1970-01-01T01:15:57.000Z</time>
      </trkpt>
      <trkpt lat="39.862991" lon="-8.837795">
        <ele>13.1</ele>
        <time>1970-01-01T01:15:58.000Z</time>
      </trkpt>
      <trkpt lat="39.862983" lon="-8.837863">
        <ele>13.3</ele>
        <time>1970-01-01T01:15:59.000Z</time>
      </trkpt>
      <trkpt lat="39.862973" lon="-8.837931">
        <ele>13.4</ele>
        <time>1970-01-01T01:16:00.000Z</time>
      </trkpt>
      <trkpt lat="39.862961" lon="-8.837995">
        <ele>13.5</ele>
        <time>1970-01-01T01:16:01.000Z</time>
      </trkpt>
      <trkpt lat="39.86295" lon="-8.838053">
        <ele>13.6</ele>
        <time>1970-01-01T01:16:02.000Z</time>
      </trkpt>
      <trkpt lat="39.862942" lon="-8.838098">
        <ele>13.6</ele>
        <time>1970-01-01T01:16:03.000Z</time>
      </trkpt>
      <trkpt lat="39.862931" lon="-8.838147">
        <ele>13.7</ele>
        <time>1970-01-01T01:16:04.000Z</time>
      </trkpt>
      <trkpt lat="39.862917" lon="-8.838196">
        <ele>13.7</ele>
        <time>1970-01-01T01:16:05.000Z</time>
      </trkpt>
      <trkpt lat="39.862901" lon="-8.838247">
        <ele>13.6</ele>
        <time>1970-01-01T01:16:06.000Z</time>
      </trkpt>
      <trkpt lat="39.862882" lon="-8.838303">
        <ele>13.6</ele>
        <time>1970-01-01T01:16:07.000Z</time>
      </trkpt>
      <trkpt lat="39.862862" lon="-8.838363">
        <ele>13.6</ele>
        <time>1970-01-01T01:16:08.000Z</time>
      </trkpt>
      <trkpt lat="39.862842" lon="-8.838426">
        <ele>13.4</ele>
        <time>1970-01-01T01:16:09.000Z</time>
      </trkpt>
      <trkpt lat="39.862826" lon="-8.838486">
        <ele>13.4</ele>
        <time>1970-01-01T01:16:10.000Z</time>
      </trkpt>
      <trkpt lat="39.862816" lon="-8.838539">
        <ele>13.4</ele>
        <time>1970-01-01T01:16:11.000Z</time>
      </trkpt>
      <trkpt lat="39.862813" lon="-8.838588">
        <ele>13.3</ele>
        <time>1970-01-01T01:16:12.000Z</time>
      </trkpt>
      <trkpt lat="39.862817" lon="-8.838636">
        <ele>13.2</ele>
        <time>1970-01-01T01:16:13.000Z</time>
      </trkpt>
      <trkpt lat="39.862916" lon="-8.838888">
        <ele>12.6</ele>
        <time>1970-01-01T01:16:18.000Z</time>
      </trkpt>
      <trkpt lat="39.862917" lon="-8.838895">
        <ele>12.7</ele>
        <time>1970-01-01T01:16:19.000Z</time>
      </trkpt>
      <trkpt lat="39.862919" lon="-8.838909">
        <ele>12.7</ele>
        <time>1970-01-01T01:16:20.000Z</time>
      </trkpt>
      <trkpt lat="39.862921" lon="-8.838926">
        <ele>12.7</ele>
        <time>1970-01-01T01:16:21.000Z</time>
      </trkpt>
      <trkpt lat="39.86292" lon="-8.838948">
        <ele>12.6</ele>
        <time>1970-01-01T01:16:22.000Z</time>
      </trkpt>
      <trkpt lat="39.862917" lon="-8.838973">
        <ele>12.7</ele>
        <time>1970-01-01T01:16:23.000Z</time>
      </trkpt>
      <trkpt lat="39.862913" lon="-8.839004">
        <ele>12.6</ele>
        <time>1970-01-01T01:16:24.000Z</time>
      </trkpt>
      <trkpt lat="39.862908" lon="-8.839044">
        <ele>12.4</ele>
        <time>1970-01-01T01:16:25.000Z</time>
      </trkpt>
      <trkpt lat="39.862904" lon="-8.839089">
        <ele>12.3</ele>
        <time>1970-01-01T01:16:26.000Z</time>
      </trkpt>
      <trkpt lat="39.862903" lon="-8.839138">
        <ele>12.2</ele>
        <time>1970-01-01T01:16:27.000Z</time>
      </trkpt>
      <trkpt lat="39.862902" lon="-8.839192">
        <ele>11.8</ele>
        <time>1970-01-01T01:16:28.000Z</time>
      </trkpt>
      <trkpt lat="39.862902" lon="-8.839252">
        <ele>11.7</ele>
        <time>1970-01-01T01:16:29.000Z</time>
      </trkpt>
      <trkpt lat="39.862902" lon="-8.83931">
        <ele>11.5</ele>
        <time>1970-01-01T01:16:30.000Z</time>
      </trkpt>
      <trkpt lat="39.862902" lon="-8.839366">
        <ele>11.2</ele>
        <time>1970-01-01T01:16:31.000Z</time>
      </trkpt>
      <trkpt lat="39.862903" lon="-8.839424">
        <ele>11.1</ele>
        <time>1970-01-01T01:16:32.000Z</time>
      </trkpt>
      <trkpt lat="39.862903" lon="-8.839487">
        <ele>10.9</ele>
        <time>1970-01-01T01:16:33.000Z</time>
      </trkpt>
      <trkpt lat="39.862903" lon="-8.839554">
        <ele>10.7</ele>
        <time>1970-01-01T01:16:34.000Z</time>
      </trkpt>
      <trkpt lat="39.862904" lon="-8.83962">
        <ele>10.3</ele>
        <time>1970-01-01T01:16:35.000Z</time>
      </trkpt>
      <trkpt lat="39.862905" lon="-8.839688">
        <ele>10.2</ele>
        <time>1970-01-01T01:16:36.000Z</time>
      </trkpt>
      <trkpt lat="39.862906" lon="-8.839756">
        <ele>9.9</ele>
        <time>1970-01-01T01:16:37.000Z</time>
      </trkpt>
      <trkpt lat="39.86291" lon="-8.839824">
        <ele>9.7</ele>
        <time>1970-01-01T01:16:38.000Z</time>
      </trkpt>
      <trkpt lat="39.862916" lon="-8.839891">
        <ele>9.5</ele>
        <time>1970-01-01T01:16:39.000Z</time>
      </trkpt>
      <trkpt lat="39.862922" lon="-8.839962">
        <ele>9.2</ele>
        <time>1970-01-01T01:16:40.000Z</time>
      </trkpt>
      <trkpt lat="39.862928" lon="-8.840035">
        <ele>9.1</ele>
        <time>1970-01-01T01:16:41.000Z</time>
      </trkpt>
      <trkpt lat="39.862934" lon="-8.840109">
        <ele>8.9</ele>
        <time>1970-01-01T01:16:42.000Z</time>
      </trkpt>
      <trkpt lat="39.862941" lon="-8.840183">
        <ele>8.7</ele>
        <time>1970-01-01T01:16:43.000Z</time>
      </trkpt>
      <trkpt lat="39.862951" lon="-8.840258">
        <ele>8.6</ele>
        <time>1970-01-01T01:16:44.000Z</time>
      </trkpt>
      <trkpt lat="39.862961" lon="-8.840331">
        <ele>8.4</ele>
        <time>1970-01-01T01:16:45.000Z</time>
      </trkpt>
      <trkpt lat="39.862969" lon="-8.840404">
        <ele>8.3</ele>
        <time>1970-01-01T01:16:46.000Z</time>
      </trkpt>
      <trkpt lat="39.862976" lon="-8.840477">
        <ele>8.1</ele>
        <time>1970-01-01T01:16:47.000Z</time>
      </trkpt>
      <trkpt lat="39.862983" lon="-8.840549">
        <ele>8.2</ele>
        <time>1970-01-01T01:16:48.000Z</time>
      </trkpt>
      <trkpt lat="39.862988" lon="-8.840617">
        <ele>8.1</ele>
        <time>1970-01-01T01:16:49.000Z</time>
      </trkpt>
      <trkpt lat="39.862995" lon="-8.840677">
        <ele>8.1</ele>
        <time>1970-01-01T01:16:50.000Z</time>
      </trkpt>
      <trkpt lat="39.862999" lon="-8.840732">
        <ele>8.1</ele>
        <time>1970-01-01T01:16:51.000Z</time>
      </trkpt>
      <trkpt lat="39.863001" lon="-8.840787">
        <ele>8.1</ele>
        <time>1970-01-01T01:16:52.000Z</time>
      </trkpt>
      <trkpt lat="39.863002" lon="-8.840839">
        <ele>8.2</ele>
        <time>1970-01-01T01:16:53.000Z</time>
      </trkpt>
      <trkpt lat="39.862999" lon="-8.840882">
        <ele>8.2</ele>
        <time>1970-01-01T01:16:54.000Z</time>
      </trkpt>
      <trkpt lat="39.862993" lon="-8.840915">
        <ele>8.3</ele>
        <time>1970-01-01T01:16:55.000Z</time>
      </trkpt>
      <trkpt lat="39.862982" lon="-8.84094">
        <ele>8.3</ele>
        <time>1970-01-01T01:16:56.000Z</time>
      </trkpt>
      <trkpt lat="39.86297" lon="-8.840959">
        <ele>8.3</ele>
        <time>1970-01-01T01:16:57.000Z</time>
      </trkpt>
      <trkpt lat="39.862956" lon="-8.840977">
        <ele>8.4</ele>
        <time>1970-01-01T01:16:58.000Z</time>
      </trkpt>
      <trkpt lat="39.862941" lon="-8.840994">
        <ele>8.4</ele>
        <time>1970-01-01T01:16:59.000Z</time>
      </trkpt>
      <trkpt lat="39.862927" lon="-8.84101">
        <ele>8.4</ele>
        <time>1970-01-01T01:17:00.000Z</time>
      </trkpt>
      <trkpt lat="39.862916" lon="-8.841029">
        <ele>8.5</ele>
        <time>1970-01-01T01:17:01.000Z</time>
      </trkpt>
      <trkpt lat="39.862907" lon="-8.841055">
        <ele>8.5</ele>
        <time>1970-01-01T01:17:02.000Z</time>
      </trkpt>
      <trkpt lat="39.862904" lon="-8.841086">
        <ele>8.6</ele>
        <time>1970-01-01T01:17:03.000Z</time>
      </trkpt>
      <trkpt lat="39.862905" lon="-8.84112">
        <ele>8.7</ele>
        <time>1970-01-01T01:17:04.000Z</time>
      </trkpt>
      <trkpt lat="39.862908" lon="-8.841161">
        <ele>8.7</ele>
        <time>1970-01-01T01:17:05.000Z</time>
      </trkpt>
      <trkpt lat="39.862914" lon="-8.841207">
        <ele>9</ele>
        <time>1970-01-01T01:17:06.000Z</time>
      </trkpt>
      <trkpt lat="39.86292" lon="-8.841255">
        <ele>9.1</ele>
        <time>1970-01-01T01:17:07.000Z</time>
      </trkpt>
      <trkpt lat="39.862927" lon="-8.841303">
        <ele>9.1</ele>
        <time>1970-01-01T01:17:08.000Z</time>
      </trkpt>
      <trkpt lat="39.862936" lon="-8.841353">
        <ele>9.2</ele>
        <time>1970-01-01T01:17:09.000Z</time>
      </trkpt>
      <trkpt lat="39.862945" lon="-8.841406">
        <ele>9.4</ele>
        <time>1970-01-01T01:17:10.000Z</time>
      </trkpt>
      <trkpt lat="39.862953" lon="-8.841462">
        <ele>9.5</ele>
        <time>1970-01-01T01:17:11.000Z</time>
      </trkpt>
      <trkpt lat="39.862961" lon="-8.841519">
        <ele>9.6</ele>
        <time>1970-01-01T01:17:12.000Z</time>
      </trkpt>
      <trkpt lat="39.862971" lon="-8.841577">
        <ele>9.7</ele>
        <time>1970-01-01T01:17:13.000Z</time>
      </trkpt>
      <trkpt lat="39.862981" lon="-8.841638">
        <ele>9.8</ele>
        <time>1970-01-01T01:17:14.000Z</time>
      </trkpt>
      <trkpt lat="39.862994" lon="-8.841702">
        <ele>9.9</ele>
        <time>1970-01-01T01:17:15.000Z</time>
      </trkpt>
      <trkpt lat="39.863007" lon="-8.841768">
        <ele>10</ele>
        <time>1970-01-01T01:17:16.000Z</time>
      </trkpt>
      <trkpt lat="39.863022" lon="-8.841835">
        <ele>10.2</ele>
        <time>1970-01-01T01:17:17.000Z</time>
      </trkpt>
      <trkpt lat="39.863038" lon="-8.841901">
        <ele>10.3</ele>
        <time>1970-01-01T01:17:18.000Z</time>
      </trkpt>
      <trkpt lat="39.863056" lon="-8.841967">
        <ele>10.4</ele>
        <time>1970-01-01T01:17:19.000Z</time>
      </trkpt>
      <trkpt lat="39.863075" lon="-8.842031">
        <ele>10.6</ele>
        <time>1970-01-01T01:17:20.000Z</time>
      </trkpt>
      <trkpt lat="39.863093" lon="-8.842093">
        <ele>10.7</ele>
        <time>1970-01-01T01:17:21.000Z</time>
      </trkpt>
      <trkpt lat="39.863111" lon="-8.842151">
        <ele>10.9</ele>
        <time>1970-01-01T01:17:22.000Z</time>
      </trkpt>
      <trkpt lat="39.863129" lon="-8.842206">
        <ele>10.9</ele>
        <time>1970-01-01T01:17:23.000Z</time>
      </trkpt>
      <trkpt lat="39.863147" lon="-8.842261">
        <ele>11.1</ele>
        <time>1970-01-01T01:17:24.000Z</time>
      </trkpt>
      <trkpt lat="39.863164" lon="-8.842317">
        <ele>11.2</ele>
        <time>1970-01-01T01:17:25.000Z</time>
      </trkpt>
      <trkpt lat="39.863184" lon="-8.842374">
        <ele>11.3</ele>
        <time>1970-01-01T01:17:26.000Z</time>
      </trkpt>
      <trkpt lat="39.863203" lon="-8.842429">
        <ele>11.4</ele>
        <time>1970-01-01T01:17:27.000Z</time>
      </trkpt>
      <trkpt lat="39.863224" lon="-8.842483">
        <ele>11.5</ele>
        <time>1970-01-01T01:17:28.000Z</time>
      </trkpt>
      <trkpt lat="39.863244" lon="-8.842537">
        <ele>11.6</ele>
        <time>1970-01-01T01:17:29.000Z</time>
      </trkpt>
      <trkpt lat="39.863266" lon="-8.842593">
        <ele>11.7</ele>
        <time>1970-01-01T01:17:30.000Z</time>
      </trkpt>
      <trkpt lat="39.863286" lon="-8.842651">
        <ele>11.8</ele>
        <time>1970-01-01T01:17:31.000Z</time>
      </trkpt>
      <trkpt lat="39.863305" lon="-8.842711">
        <ele>11.8</ele>
        <time>1970-01-01T01:17:32.000Z</time>
      </trkpt>
      <trkpt lat="39.863322" lon="-8.842771">
        <ele>11.9</ele>
        <time>1970-01-01T01:17:33.000Z</time>
      </trkpt>
      <trkpt lat="39.863339" lon="-8.84283">
        <ele>12</ele>
        <time>1970-01-01T01:17:34.000Z</time>
      </trkpt>
      <trkpt lat="39.863356" lon="-8.842889">
        <ele>12</ele>
        <time>1970-01-01T01:17:35.000Z</time>
      </trkpt>
      <trkpt lat="39.863373" lon="-8.842948">
        <ele>12.1</ele>
        <time>1970-01-01T01:17:36.000Z</time>
      </trkpt>
      <trkpt lat="39.86339" lon="-8.843007">
        <ele>12.1</ele>
        <time>1970-01-01T01:17:37.000Z</time>
      </trkpt>
      <trkpt lat="39.863408" lon="-8.843068">
        <ele>12.2</ele>
        <time>1970-01-01T01:17:38.000Z</time>
      </trkpt>
      <trkpt lat="39.863429" lon="-8.84313">
        <ele>12.2</ele>
        <time>1970-01-01T01:17:39.000Z</time>
      </trkpt>
      <trkpt lat="39.86345" lon="-8.843193">
        <ele>12.3</ele>
        <time>1970-01-01T01:17:40.000Z</time>
      </trkpt>
      <trkpt lat="39.863471" lon="-8.843258">
        <ele>12.3</ele>
        <time>1970-01-01T01:17:41.000Z</time>
      </trkpt>
      <trkpt lat="39.86349" lon="-8.843323">
        <ele>12.3</ele>
        <time>1970-01-01T01:17:42.000Z</time>
      </trkpt>
      <trkpt lat="39.863507" lon="-8.843387">
        <ele>12.3</ele>
        <time>1970-01-01T01:17:43.000Z</time>
      </trkpt>
      <trkpt lat="39.863525" lon="-8.843451">
        <ele>12.3</ele>
        <time>1970-01-01T01:17:44.000Z</time>
      </trkpt>
      <trkpt lat="39.863542" lon="-8.843515">
        <ele>12.4</ele>
        <time>1970-01-01T01:17:45.000Z</time>
      </trkpt>
      <trkpt lat="39.86356" lon="-8.843577">
        <ele>12.4</ele>
        <time>1970-01-01T01:17:46.000Z</time>
      </trkpt>
      <trkpt lat="39.863577" lon="-8.843638">
        <ele>12.4</ele>
        <time>1970-01-01T01:17:47.000Z</time>
      </trkpt>
      <trkpt lat="39.863593" lon="-8.843698">
        <ele>12.4</ele>
        <time>1970-01-01T01:17:48.000Z</time>
      </trkpt>
      <trkpt lat="39.86361" lon="-8.843755">
        <ele>12.5</ele>
        <time>1970-01-01T01:17:49.000Z</time>
      </trkpt>
      <trkpt lat="39.863627" lon="-8.843812">
        <ele>12.5</ele>
        <time>1970-01-01T01:17:50.000Z</time>
      </trkpt>
      <trkpt lat="39.863646" lon="-8.843871">
        <ele>12.6</ele>
        <time>1970-01-01T01:17:51.000Z</time>
      </trkpt>
      <trkpt lat="39.863663" lon="-8.84393">
        <ele>12.6</ele>
        <time>1970-01-01T01:17:52.000Z</time>
      </trkpt>
      <trkpt lat="39.863678" lon="-8.843988">
        <ele>12.6</ele>
        <time>1970-01-01T01:17:53.000Z</time>
      </trkpt>
      <trkpt lat="39.863694" lon="-8.844043">
        <ele>12.6</ele>
        <time>1970-01-01T01:17:54.000Z</time>
      </trkpt>
      <trkpt lat="39.863711" lon="-8.844094">
        <ele>12.6</ele>
        <time>1970-01-01T01:17:55.000Z</time>
      </trkpt>
      <trkpt lat="39.863727" lon="-8.844143">
        <ele>12.6</ele>
        <time>1970-01-01T01:17:56.000Z</time>
      </trkpt>
      <trkpt lat="39.863744" lon="-8.844187">
        <ele>12.6</ele>
        <time>1970-01-01T01:17:57.000Z</time>
      </trkpt>
      <trkpt lat="39.86376" lon="-8.844229">
        <ele>12.6</ele>
        <time>1970-01-01T01:17:58.000Z</time>
      </trkpt>
      <trkpt lat="39.863777" lon="-8.844269">
        <ele>12.6</ele>
        <time>1970-01-01T01:17:59.000Z</time>
      </trkpt>
      <trkpt lat="39.863792" lon="-8.844306">
        <ele>12.6</ele>
        <time>1970-01-01T01:18:00.000Z</time>
      </trkpt>
      <trkpt lat="39.863806" lon="-8.844342">
        <ele>12.6</ele>
        <time>1970-01-01T01:18:01.000Z</time>
      </trkpt>
      <trkpt lat="39.863817" lon="-8.844376">
        <ele>12.6</ele>
        <time>1970-01-01T01:18:02.000Z</time>
      </trkpt>
      <trkpt lat="39.863827" lon="-8.844411">
        <ele>12.6</ele>
        <time>1970-01-01T01:18:03.000Z</time>
      </trkpt>
      <trkpt lat="39.863832" lon="-8.844447">
        <ele>12.5</ele>
        <time>1970-01-01T01:18:04.000Z</time>
      </trkpt>
      <trkpt lat="39.863833" lon="-8.844483">
        <ele>12.5</ele>
        <time>1970-01-01T01:18:05.000Z</time>
      </trkpt>
      <trkpt lat="39.863834" lon="-8.844522">
        <ele>12.5</ele>
        <time>1970-01-01T01:18:06.000Z</time>
      </trkpt>
      <trkpt lat="39.863836" lon="-8.844562">
        <ele>12.4</ele>
        <time>1970-01-01T01:18:07.000Z</time>
      </trkpt>
      <trkpt lat="39.863839" lon="-8.844599">
        <ele>12.3</ele>
        <time>1970-01-01T01:18:08.000Z</time>
      </trkpt>
      <trkpt lat="39.863845" lon="-8.844634">
        <ele>12.4</ele>
        <time>1970-01-01T01:18:09.000Z</time>
      </trkpt>
      <trkpt lat="39.863854" lon="-8.844664">
        <ele>12.3</ele>
        <time>1970-01-01T01:18:10.000Z</time>
      </trkpt>
      <trkpt lat="39.863866" lon="-8.844687">
        <ele>12.3</ele>
        <time>1970-01-01T01:18:11.000Z</time>
      </trkpt>
      <trkpt lat="39.863881" lon="-8.844702">
        <ele>12.3</ele>
        <time>1970-01-01T01:18:12.000Z</time>
      </trkpt>
      <trkpt lat="39.863902" lon="-8.844714">
        <ele>12.2</ele>
        <time>1970-01-01T01:18:13.000Z</time>
      </trkpt>
      <trkpt lat="39.863926" lon="-8.844724">
        <ele>12.2</ele>
        <time>1970-01-01T01:18:14.000Z</time>
      </trkpt>
      <trkpt lat="39.863952" lon="-8.844733">
        <ele>12.2</ele>
        <time>1970-01-01T01:18:15.000Z</time>
      </trkpt>
      <trkpt lat="39.863979" lon="-8.84474">
        <ele>12.1</ele>
        <time>1970-01-01T01:18:16.000Z</time>
      </trkpt>
      <trkpt lat="39.864004" lon="-8.844746">
        <ele>12.1</ele>
        <time>1970-01-01T01:18:17.000Z</time>
      </trkpt>
      <trkpt lat="39.864024" lon="-8.84475">
        <ele>12</ele>
        <time>1970-01-01T01:18:18.000Z</time>
      </trkpt>
      <trkpt lat="39.864041" lon="-8.844755">
        <ele>12</ele>
        <time>1970-01-01T01:18:19.000Z</time>
      </trkpt>
      <trkpt lat="39.864062" lon="-8.844765">
        <ele>12</ele>
        <time>1970-01-01T01:18:20.000Z</time>
      </trkpt>
      <trkpt lat="39.864084" lon="-8.844781">
        <ele>11.9</ele>
        <time>1970-01-01T01:18:21.000Z</time>
      </trkpt>
      <trkpt lat="39.864109" lon="-8.844799">
        <ele>11.9</ele>
        <time>1970-01-01T01:18:22.000Z</time>
      </trkpt>
      <trkpt lat="39.864135" lon="-8.84482">
        <ele>11.8</ele>
        <time>1970-01-01T01:18:23.000Z</time>
      </trkpt>
      <trkpt lat="39.864162" lon="-8.84484">
        <ele>11.8</ele>
        <time>1970-01-01T01:18:24.000Z</time>
      </trkpt>
      <trkpt lat="39.864188" lon="-8.844858">
        <ele>11.8</ele>
        <time>1970-01-01T01:18:25.000Z</time>
      </trkpt>
      <trkpt lat="39.864216" lon="-8.844875">
        <ele>11.8</ele>
        <time>1970-01-01T01:18:26.000Z</time>
      </trkpt>
      <trkpt lat="39.864243" lon="-8.844892">
        <ele>11.8</ele>
        <time>1970-01-01T01:18:27.000Z</time>
      </trkpt>
      <trkpt lat="39.86427" lon="-8.84491">
        <ele>11.8</ele>
        <time>1970-01-01T01:18:28.000Z</time>
      </trkpt>
      <trkpt lat="39.8643" lon="-8.844928">
        <ele>11.9</ele>
        <time>1970-01-01T01:18:29.000Z</time>
      </trkpt>
      <trkpt lat="39.864328" lon="-8.844945">
        <ele>11.9</ele>
        <time>1970-01-01T01:18:30.000Z</time>
      </trkpt>
      <trkpt lat="39.864356" lon="-8.844967">
        <ele>11.9</ele>
        <time>1970-01-01T01:18:31.000Z</time>
      </trkpt>
      <trkpt lat="39.864385" lon="-8.84499">
        <ele>11.9</ele>
        <time>1970-01-01T01:18:32.000Z</time>
      </trkpt>
      <trkpt lat="39.864416" lon="-8.845014">
        <ele>11.8</ele>
        <time>1970-01-01T01:18:33.000Z</time>
      </trkpt>
      <trkpt lat="39.864449" lon="-8.845039">
        <ele>11.8</ele>
        <time>1970-01-01T01:18:34.000Z</time>
      </trkpt>
      <trkpt lat="39.864486" lon="-8.845066">
        <ele>11.8</ele>
        <time>1970-01-01T01:18:35.000Z</time>
      </trkpt>
      <trkpt lat="39.864524" lon="-8.845093">
        <ele>11.8</ele>
        <time>1970-01-01T01:18:36.000Z</time>
      </trkpt>
      <trkpt lat="39.864563" lon="-8.845119">
        <ele>11.8</ele>
        <time>1970-01-01T01:18:37.000Z</time>
      </trkpt>
      <trkpt lat="39.864603" lon="-8.845147">
        <ele>11.8</ele>
        <time>1970-01-01T01:18:38.000Z</time>
      </trkpt>
      <trkpt lat="39.864644" lon="-8.84518">
        <ele>11.7</ele>
        <time>1970-01-01T01:18:39.000Z</time>
      </trkpt>
      <trkpt lat="39.864683" lon="-8.845215">
        <ele>11.7</ele>
        <time>1970-01-01T01:18:40.000Z</time>
      </trkpt>
      <trkpt lat="39.86472" lon="-8.845254">
        <ele>11.7</ele>
        <time>1970-01-01T01:18:41.000Z</time>
      </trkpt>
      <trkpt lat="39.864758" lon="-8.845295">
        <ele>11.6</ele>
        <time>1970-01-01T01:18:42.000Z</time>
      </trkpt>
      <trkpt lat="39.864794" lon="-8.845343">
        <ele>11.6</ele>
        <time>1970-01-01T01:18:43.000Z</time>
      </trkpt>
      <trkpt lat="39.864828" lon="-8.845391">
        <ele>11.6</ele>
        <time>1970-01-01T01:18:44.000Z</time>
      </trkpt>
      <trkpt lat="39.864864" lon="-8.845439">
        <ele>11.6</ele>
        <time>1970-01-01T01:18:45.000Z</time>
      </trkpt>
      <trkpt lat="39.864901" lon="-8.84549">
        <ele>11.5</ele>
        <time>1970-01-01T01:18:46.000Z</time>
      </trkpt>
      <trkpt lat="39.864942" lon="-8.84554">
        <ele>11.5</ele>
        <time>1970-01-01T01:18:47.000Z</time>
      </trkpt>
      <trkpt lat="39.864988" lon="-8.845582">
        <ele>11.5</ele>
        <time>1970-01-01T01:18:48.000Z</time>
      </trkpt>
      <trkpt lat="39.865036" lon="-8.845617">
        <ele>11.5</ele>
        <time>1970-01-01T01:18:49.000Z</time>
      </trkpt>
      <trkpt lat="39.865086" lon="-8.845649">
        <ele>11.5</ele>
        <time>1970-01-01T01:18:50.000Z</time>
      </trkpt>
      <trkpt lat="39.865138" lon="-8.845685">
        <ele>11.4</ele>
        <time>1970-01-01T01:18:51.000Z</time>
      </trkpt>
      <trkpt lat="39.865191" lon="-8.845726">
        <ele>11.4</ele>
        <time>1970-01-01T01:18:52.000Z</time>
      </trkpt>
      <trkpt lat="39.865242" lon="-8.845771">
        <ele>11.4</ele>
        <time>1970-01-01T01:18:53.000Z</time>
      </trkpt>
      <trkpt lat="39.865293" lon="-8.845813">
        <ele>11.3</ele>
        <time>1970-01-01T01:18:54.000Z</time>
      </trkpt>
      <trkpt lat="39.865343" lon="-8.845851">
        <ele>11.3</ele>
        <time>1970-01-01T01:18:55.000Z</time>
      </trkpt>
      <trkpt lat="39.865391" lon="-8.845885">
        <ele>11.3</ele>
        <time>1970-01-01T01:18:56.000Z</time>
      </trkpt>
      <trkpt lat="39.865438" lon="-8.845918">
        <ele>11.3</ele>
        <time>1970-01-01T01:18:57.000Z</time>
      </trkpt>
      <trkpt lat="39.865484" lon="-8.845954">
        <ele>11.3</ele>
        <time>1970-01-01T01:18:58.000Z</time>
      </trkpt>
      <trkpt lat="39.865528" lon="-8.845994">
        <ele>11.3</ele>
        <time>1970-01-01T01:18:59.000Z</time>
      </trkpt>
      <trkpt lat="39.865572" lon="-8.846038">
        <ele>11.3</ele>
        <time>1970-01-01T01:19:00.000Z</time>
      </trkpt>
      <trkpt lat="39.865615" lon="-8.846086">
        <ele>11.4</ele>
        <time>1970-01-01T01:19:01.000Z</time>
      </trkpt>
      <trkpt lat="39.865659" lon="-8.846136">
        <ele>11.4</ele>
        <time>1970-01-01T01:19:02.000Z</time>
      </trkpt>
      <trkpt lat="39.865704" lon="-8.846189">
        <ele>11.5</ele>
        <time>1970-01-01T01:19:03.000Z</time>
      </trkpt>
      <trkpt lat="39.865749" lon="-8.846244">
        <ele>11.5</ele>
        <time>1970-01-01T01:19:04.000Z</time>
      </trkpt>
      <trkpt lat="39.865793" lon="-8.8463">
        <ele>11.5</ele>
        <time>1970-01-01T01:19:05.000Z</time>
      </trkpt>
      <trkpt lat="39.865836" lon="-8.846358">
        <ele>11.5</ele>
        <time>1970-01-01T01:19:06.000Z</time>
      </trkpt>
      <trkpt lat="39.865878" lon="-8.846414">
        <ele>11.5</ele>
        <time>1970-01-01T01:19:07.000Z</time>
      </trkpt>
      <trkpt lat="39.865921" lon="-8.846468">
        <ele>11.5</ele>
        <time>1970-01-01T01:19:08.000Z</time>
      </trkpt>
      <trkpt lat="39.865962" lon="-8.846521">
        <ele>11.5</ele>
        <time>1970-01-01T01:19:09.000Z</time>
      </trkpt>
      <trkpt lat="39.866003" lon="-8.846573">
        <ele>11.5</ele>
        <time>1970-01-01T01:19:10.000Z</time>
      </trkpt>
      <trkpt lat="39.866044" lon="-8.846625">
        <ele>11.6</ele>
        <time>1970-01-01T01:19:11.000Z</time>
      </trkpt>
      <trkpt lat="39.866086" lon="-8.846674">
        <ele>11.6</ele>
        <time>1970-01-01T01:19:12.000Z</time>
      </trkpt>
      <trkpt lat="39.866127" lon="-8.846723">
        <ele>11.6</ele>
        <time>1970-01-01T01:19:13.000Z</time>
      </trkpt>
      <trkpt lat="39.866169" lon="-8.846771">
        <ele>11.7</ele>
        <time>1970-01-01T01:19:14.000Z</time>
      </trkpt>
      <trkpt lat="39.866209" lon="-8.846815">
        <ele>11.7</ele>
        <time>1970-01-01T01:19:15.000Z</time>
      </trkpt>
      <trkpt lat="39.866254" lon="-8.846862">
        <ele>11.7</ele>
        <time>1970-01-01T01:19:16.000Z</time>
      </trkpt>
      <trkpt lat="39.866298" lon="-8.846908">
        <ele>11.7</ele>
        <time>1970-01-01T01:19:17.000Z</time>
      </trkpt>
      <trkpt lat="39.866341" lon="-8.846954">
        <ele>11.8</ele>
        <time>1970-01-01T01:19:18.000Z</time>
      </trkpt>
      <trkpt lat="39.866381" lon="-8.846997">
        <ele>11.8</ele>
        <time>1970-01-01T01:19:19.000Z</time>
      </trkpt>
      <trkpt lat="39.866417" lon="-8.847037">
        <ele>11.8</ele>
        <time>1970-01-01T01:19:20.000Z</time>
      </trkpt>
      <trkpt lat="39.866455" lon="-8.847076">
        <ele>11.8</ele>
        <time>1970-01-01T01:19:21.000Z</time>
      </trkpt>
      <trkpt lat="39.866496" lon="-8.847114">
        <ele>11.8</ele>
        <time>1970-01-01T01:19:22.000Z</time>
      </trkpt>
      <trkpt lat="39.866537" lon="-8.847152">
        <ele>11.8</ele>
        <time>1970-01-01T01:19:23.000Z</time>
      </trkpt>
      <trkpt lat="39.86658" lon="-8.847189">
        <ele>11.8</ele>
        <time>1970-01-01T01:19:24.000Z</time>
      </trkpt>
      <trkpt lat="39.866619" lon="-8.847226">
        <ele>11.8</ele>
        <time>1970-01-01T01:19:25.000Z</time>
      </trkpt>
      <trkpt lat="39.866661" lon="-8.847269">
        <ele>11.8</ele>
        <time>1970-01-01T01:19:26.000Z</time>
      </trkpt>
      <trkpt lat="39.866701" lon="-8.847313">
        <ele>11.7</ele>
        <time>1970-01-01T01:19:27.000Z</time>
      </trkpt>
      <trkpt lat="39.86674" lon="-8.84736">
        <ele>11.7</ele>
        <time>1970-01-01T01:19:28.000Z</time>
      </trkpt>
      <trkpt lat="39.86678" lon="-8.847407">
        <ele>11.6</ele>
        <time>1970-01-01T01:19:29.000Z</time>
      </trkpt>
      <trkpt lat="39.866819" lon="-8.847452">
        <ele>11.6</ele>
        <time>1970-01-01T01:19:30.000Z</time>
      </trkpt>
      <trkpt lat="39.866862" lon="-8.847502">
        <ele>11.6</ele>
        <time>1970-01-01T01:19:31.000Z</time>
      </trkpt>
      <trkpt lat="39.866901" lon="-8.847552">
        <ele>11.5</ele>
        <time>1970-01-01T01:19:32.000Z</time>
      </trkpt>
      <trkpt lat="39.866943" lon="-8.847605">
        <ele>11.5</ele>
        <time>1970-01-01T01:19:33.000Z</time>
      </trkpt>
      <trkpt lat="39.866984" lon="-8.847658">
        <ele>11.4</ele>
        <time>1970-01-01T01:19:34.000Z</time>
      </trkpt>
      <trkpt lat="39.867022" lon="-8.847706">
        <ele>11.3</ele>
        <time>1970-01-01T01:19:35.000Z</time>
      </trkpt>
      <trkpt lat="39.867065" lon="-8.847756">
        <ele>11.3</ele>
        <time>1970-01-01T01:19:36.000Z</time>
      </trkpt>
      <trkpt lat="39.867107" lon="-8.847803">
        <ele>11.2</ele>
        <time>1970-01-01T01:19:37.000Z</time>
      </trkpt>
      <trkpt lat="39.867147" lon="-8.847849">
        <ele>11.2</ele>
        <time>1970-01-01T01:19:38.000Z</time>
      </trkpt>
      <trkpt lat="39.867187" lon="-8.847894">
        <ele>11.1</ele>
        <time>1970-01-01T01:19:39.000Z</time>
      </trkpt>
      <trkpt lat="39.867227" lon="-8.847941">
        <ele>11</ele>
        <time>1970-01-01T01:19:40.000Z</time>
      </trkpt>
      <trkpt lat="39.867266" lon="-8.847985">
        <ele>11</ele>
        <time>1970-01-01T01:19:41.000Z</time>
      </trkpt>
      <trkpt lat="39.867306" lon="-8.848034">
        <ele>10.9</ele>
        <time>1970-01-01T01:19:42.000Z</time>
      </trkpt>
      <trkpt lat="39.867342" lon="-8.848083">
        <ele>10.8</ele>
        <time>1970-01-01T01:19:43.000Z</time>
      </trkpt>
      <trkpt lat="39.867373" lon="-8.848133">
        <ele>10.8</ele>
        <time>1970-01-01T01:19:44.000Z</time>
      </trkpt>
      <trkpt lat="39.8674" lon="-8.848186">
        <ele>10.8</ele>
        <time>1970-01-01T01:19:45.000Z</time>
      </trkpt>
      <trkpt lat="39.867424" lon="-8.84824">
        <ele>10.7</ele>
        <time>1970-01-01T01:19:46.000Z</time>
      </trkpt>
      <trkpt lat="39.867445" lon="-8.848295">
        <ele>10.7</ele>
        <time>1970-01-01T01:19:47.000Z</time>
      </trkpt>
      <trkpt lat="39.867466" lon="-8.848347">
        <ele>10.7</ele>
        <time>1970-01-01T01:19:48.000Z</time>
      </trkpt>
      <trkpt lat="39.867485" lon="-8.848396">
        <ele>10.7</ele>
        <time>1970-01-01T01:19:49.000Z</time>
      </trkpt>
      <trkpt lat="39.867503" lon="-8.848444">
        <ele>10.7</ele>
        <time>1970-01-01T01:19:50.000Z</time>
      </trkpt>
      <trkpt lat="39.86752" lon="-8.848492">
        <ele>10.7</ele>
        <time>1970-01-01T01:19:51.000Z</time>
      </trkpt>
      <trkpt lat="39.867538" lon="-8.848541">
        <ele>10.7</ele>
        <time>1970-01-01T01:19:52.000Z</time>
      </trkpt>
      <trkpt lat="39.867554" lon="-8.84859">
        <ele>10.7</ele>
        <time>1970-01-01T01:19:53.000Z</time>
      </trkpt>
      <trkpt lat="39.86757" lon="-8.848639">
        <ele>10.7</ele>
        <time>1970-01-01T01:19:54.000Z</time>
      </trkpt>
      <trkpt lat="39.867586" lon="-8.848689">
        <ele>10.7</ele>
        <time>1970-01-01T01:19:55.000Z</time>
      </trkpt>
      <trkpt lat="39.867601" lon="-8.848737">
        <ele>10.6</ele>
        <time>1970-01-01T01:19:56.000Z</time>
      </trkpt>
      <trkpt lat="39.867618" lon="-8.848793">
        <ele>10.6</ele>
        <time>1970-01-01T01:19:57.000Z</time>
      </trkpt>
      <trkpt lat="39.867637" lon="-8.848856">
        <ele>10.6</ele>
        <time>1970-01-01T01:19:58.000Z</time>
      </trkpt>
      <trkpt lat="39.867656" lon="-8.848924">
        <ele>10.6</ele>
        <time>1970-01-01T01:19:59.000Z</time>
      </trkpt>
      <trkpt lat="39.867678" lon="-8.848989">
        <ele>10.6</ele>
        <time>1970-01-01T01:20:00.000Z</time>
      </trkpt>
      <trkpt lat="39.867702" lon="-8.849053">
        <ele>10.5</ele>
        <time>1970-01-01T01:20:01.000Z</time>
      </trkpt>
      <trkpt lat="39.867727" lon="-8.849116">
        <ele>10.5</ele>
        <time>1970-01-01T01:20:02.000Z</time>
      </trkpt>
      <trkpt lat="39.867751" lon="-8.849181">
        <ele>10.5</ele>
        <time>1970-01-01T01:20:03.000Z</time>
      </trkpt>
      <trkpt lat="39.867775" lon="-8.849244">
        <ele>10.5</ele>
        <time>1970-01-01T01:20:04.000Z</time>
      </trkpt>
      <trkpt lat="39.867797" lon="-8.849309">
        <ele>10.5</ele>
        <time>1970-01-01T01:20:05.000Z</time>
      </trkpt>
      <trkpt lat="39.867817" lon="-8.849375">
        <ele>10.5</ele>
        <time>1970-01-01T01:20:06.000Z</time>
      </trkpt>
      <trkpt lat="39.867839" lon="-8.84944">
        <ele>10.5</ele>
        <time>1970-01-01T01:20:07.000Z</time>
      </trkpt>
      <trkpt lat="39.86786" lon="-8.849504">
        <ele>10.5</ele>
        <time>1970-01-01T01:20:08.000Z</time>
      </trkpt>
      <trkpt lat="39.867883" lon="-8.849566">
        <ele>10.5</ele>
        <time>1970-01-01T01:20:09.000Z</time>
      </trkpt>
      <trkpt lat="39.867907" lon="-8.84963">
        <ele>10.5</ele>
        <time>1970-01-01T01:20:10.000Z</time>
      </trkpt>
      <trkpt lat="39.867931" lon="-8.849694">
        <ele>10.6</ele>
        <time>1970-01-01T01:20:11.000Z</time>
      </trkpt>
      <trkpt lat="39.867956" lon="-8.849758">
        <ele>10.6</ele>
        <time>1970-01-01T01:20:12.000Z</time>
      </trkpt>
      <trkpt lat="39.867982" lon="-8.849822">
        <ele>10.7</ele>
        <time>1970-01-01T01:20:13.000Z</time>
      </trkpt>
      <trkpt lat="39.868008" lon="-8.849883">
        <ele>10.8</ele>
        <time>1970-01-01T01:20:14.000Z</time>
      </trkpt>
      <trkpt lat="39.868035" lon="-8.849944">
        <ele>10.9</ele>
        <time>1970-01-01T01:20:15.000Z</time>
      </trkpt>
      <trkpt lat="39.86806" lon="-8.850005">
        <ele>11</ele>
        <time>1970-01-01T01:20:16.000Z</time>
      </trkpt>
      <trkpt lat="39.868085" lon="-8.850067">
        <ele>11.1</ele>
        <time>1970-01-01T01:20:17.000Z</time>
      </trkpt>
      <trkpt lat="39.86811" lon="-8.85013">
        <ele>11.3</ele>
        <time>1970-01-01T01:20:18.000Z</time>
      </trkpt>
      <trkpt lat="39.868132" lon="-8.850196">
        <ele>11.4</ele>
        <time>1970-01-01T01:20:19.000Z</time>
      </trkpt>
      <trkpt lat="39.868154" lon="-8.850259">
        <ele>11.6</ele>
        <time>1970-01-01T01:20:20.000Z</time>
      </trkpt>
      <trkpt lat="39.868173" lon="-8.850318">
        <ele>11.8</ele>
        <time>1970-01-01T01:20:21.000Z</time>
      </trkpt>
      <trkpt lat="39.868193" lon="-8.850368">
        <ele>12</ele>
        <time>1970-01-01T01:20:22.000Z</time>
      </trkpt>
      <trkpt lat="39.868212" lon="-8.850412">
        <ele>12.2</ele>
        <time>1970-01-01T01:20:23.000Z</time>
      </trkpt>
      <trkpt lat="39.868228" lon="-8.850449">
        <ele>12.4</ele>
        <time>1970-01-01T01:20:24.000Z</time>
      </trkpt>
      <trkpt lat="39.868241" lon="-8.850482">
        <ele>12.5</ele>
        <time>1970-01-01T01:20:25.000Z</time>
      </trkpt>
      <trkpt lat="39.868252" lon="-8.850509">
        <ele>12.6</ele>
        <time>1970-01-01T01:20:26.000Z</time>
      </trkpt>
      <trkpt lat="39.868261" lon="-8.850533">
        <ele>12.7</ele>
        <time>1970-01-01T01:20:27.000Z</time>
      </trkpt>
      <trkpt lat="39.86827" lon="-8.850557">
        <ele>12.8</ele>
        <time>1970-01-01T01:20:28.000Z</time>
      </trkpt>
      <trkpt lat="39.868281" lon="-8.850584">
        <ele>12.9</ele>
        <time>1970-01-01T01:20:29.000Z</time>
      </trkpt>
      <trkpt lat="39.868295" lon="-8.850611">
        <ele>12.9</ele>
        <time>1970-01-01T01:20:30.000Z</time>
      </trkpt>
      <trkpt lat="39.868309" lon="-8.85064">
        <ele>12.8</ele>
        <time>1970-01-01T01:20:31.000Z</time>
      </trkpt>
      <trkpt lat="39.868326" lon="-8.850671">
        <ele>12.8</ele>
        <time>1970-01-01T01:20:32.000Z</time>
      </trkpt>
      <trkpt lat="39.868343" lon="-8.850704">
        <ele>12.7</ele>
        <time>1970-01-01T01:20:33.000Z</time>
      </trkpt>
      <trkpt lat="39.868362" lon="-8.85074">
        <ele>12.7</ele>
        <time>1970-01-01T01:20:34.000Z</time>
      </trkpt>
      <trkpt lat="39.868382" lon="-8.850781">
        <ele>12.6</ele>
        <time>1970-01-01T01:20:35.000Z</time>
      </trkpt>
      <trkpt lat="39.868402" lon="-8.850831">
        <ele>12.6</ele>
        <time>1970-01-01T01:20:36.000Z</time>
      </trkpt>
      <trkpt lat="39.868423" lon="-8.850883">
        <ele>12.5</ele>
        <time>1970-01-01T01:20:37.000Z</time>
      </trkpt>
      <trkpt lat="39.868443" lon="-8.850934">
        <ele>12.5</ele>
        <time>1970-01-01T01:20:38.000Z</time>
      </trkpt>
      <trkpt lat="39.868467" lon="-8.850995">
        <ele>12.5</ele>
        <time>1970-01-01T01:20:39.000Z</time>
      </trkpt>
      <trkpt lat="39.868492" lon="-8.851058">
        <ele>12.5</ele>
        <time>1970-01-01T01:20:40.000Z</time>
      </trkpt>
      <trkpt lat="39.868516" lon="-8.851117">
        <ele>12.4</ele>
        <time>1970-01-01T01:20:41.000Z</time>
      </trkpt>
      <trkpt lat="39.868539" lon="-8.851167">
        <ele>12.4</ele>
        <time>1970-01-01T01:20:42.000Z</time>
      </trkpt>
      <trkpt lat="39.868563" lon="-8.851222">
        <ele>12.4</ele>
        <time>1970-01-01T01:20:43.000Z</time>
      </trkpt>
      <trkpt lat="39.868589" lon="-8.851275">
        <ele>12.4</ele>
        <time>1970-01-01T01:20:44.000Z</time>
      </trkpt>
      <trkpt lat="39.868616" lon="-8.851329">
        <ele>12.4</ele>
        <time>1970-01-01T01:20:45.000Z</time>
      </trkpt>
      <trkpt lat="39.868642" lon="-8.851382">
        <ele>12.4</ele>
        <time>1970-01-01T01:20:46.000Z</time>
      </trkpt>
      <trkpt lat="39.868667" lon="-8.851435">
        <ele>12.4</ele>
        <time>1970-01-01T01:20:47.000Z</time>
      </trkpt>
      <trkpt lat="39.868693" lon="-8.851485">
        <ele>12.4</ele>
        <time>1970-01-01T01:20:48.000Z</time>
      </trkpt>
      <trkpt lat="39.868722" lon="-8.851535">
        <ele>12.4</ele>
        <time>1970-01-01T01:20:49.000Z</time>
      </trkpt>
      <trkpt lat="39.868751" lon="-8.851583">
        <ele>12.4</ele>
        <time>1970-01-01T01:20:50.000Z</time>
      </trkpt>
      <trkpt lat="39.86878" lon="-8.85163">
        <ele>12.4</ele>
        <time>1970-01-01T01:20:51.000Z</time>
      </trkpt>
      <trkpt lat="39.868808" lon="-8.851674">
        <ele>12.4</ele>
        <time>1970-01-01T01:20:52.000Z</time>
      </trkpt>
      <trkpt lat="39.868838" lon="-8.851714">
        <ele>12.4</ele>
        <time>1970-01-01T01:20:53.000Z</time>
      </trkpt>
      <trkpt lat="39.868865" lon="-8.851751">
        <ele>12.4</ele>
        <time>1970-01-01T01:20:54.000Z</time>
      </trkpt>
      <trkpt lat="39.868891" lon="-8.851788">
        <ele>12.4</ele>
        <time>1970-01-01T01:20:55.000Z</time>
      </trkpt>
      <trkpt lat="39.868915" lon="-8.851826">
        <ele>12.4</ele>
        <time>1970-01-01T01:20:56.000Z</time>
      </trkpt>
      <trkpt lat="39.868936" lon="-8.851867">
        <ele>12.4</ele>
        <time>1970-01-01T01:20:57.000Z</time>
      </trkpt>
      <trkpt lat="39.868952" lon="-8.851911">
        <ele>12.5</ele>
        <time>1970-01-01T01:20:58.000Z</time>
      </trkpt>
      <trkpt lat="39.868967" lon="-8.851952">
        <ele>12.5</ele>
        <time>1970-01-01T01:20:59.000Z</time>
      </trkpt>
      <trkpt lat="39.868983" lon="-8.851994">
        <ele>12.5</ele>
        <time>1970-01-01T01:21:00.000Z</time>
      </trkpt>
      <trkpt lat="39.869005" lon="-8.852029">
        <ele>12.5</ele>
        <time>1970-01-01T01:21:01.000Z</time>
      </trkpt>
      <trkpt lat="39.869029" lon="-8.852052">
        <ele>12.6</ele>
        <time>1970-01-01T01:21:02.000Z</time>
      </trkpt>
      <trkpt lat="39.869054" lon="-8.852062">
        <ele>12.7</ele>
        <time>1970-01-01T01:21:03.000Z</time>
      </trkpt>
      <trkpt lat="39.869078" lon="-8.852063">
        <ele>12.9</ele>
        <time>1970-01-01T01:21:04.000Z</time>
      </trkpt>
      <trkpt lat="39.8691" lon="-8.852059">
        <ele>12.9</ele>
        <time>1970-01-01T01:21:05.000Z</time>
      </trkpt>
      <trkpt lat="39.869119" lon="-8.852054">
        <ele>13</ele>
        <time>1970-01-01T01:21:06.000Z</time>
      </trkpt>
      <trkpt lat="39.869137" lon="-8.852048">
        <ele>13.1</ele>
        <time>1970-01-01T01:21:07.000Z</time>
      </trkpt>
      <trkpt lat="39.869156" lon="-8.852045">
        <ele>13.3</ele>
        <time>1970-01-01T01:21:08.000Z</time>
      </trkpt>
      <trkpt lat="39.869175" lon="-8.852047">
        <ele>13.4</ele>
        <time>1970-01-01T01:21:09.000Z</time>
      </trkpt>
      <trkpt lat="39.869196" lon="-8.852054">
        <ele>13.5</ele>
        <time>1970-01-01T01:21:10.000Z</time>
      </trkpt>
      <trkpt lat="39.869219" lon="-8.852068">
        <ele>13.5</ele>
        <time>1970-01-01T01:21:11.000Z</time>
      </trkpt>
      <trkpt lat="39.869242" lon="-8.852087">
        <ele>13.4</ele>
        <time>1970-01-01T01:21:12.000Z</time>
      </trkpt>
      <trkpt lat="39.869268" lon="-8.85211">
        <ele>13.4</ele>
        <time>1970-01-01T01:21:13.000Z</time>
      </trkpt>
      <trkpt lat="39.869295" lon="-8.852138">
        <ele>13.4</ele>
        <time>1970-01-01T01:21:14.000Z</time>
      </trkpt>
      <trkpt lat="39.869321" lon="-8.85217">
        <ele>13.4</ele>
        <time>1970-01-01T01:21:15.000Z</time>
      </trkpt>
      <trkpt lat="39.869347" lon="-8.852203">
        <ele>13.4</ele>
        <time>1970-01-01T01:21:16.000Z</time>
      </trkpt>
      <trkpt lat="39.869373" lon="-8.852236">
        <ele>13.4</ele>
        <time>1970-01-01T01:21:17.000Z</time>
      </trkpt>
      <trkpt lat="39.869399" lon="-8.852272">
        <ele>13.4</ele>
        <time>1970-01-01T01:21:18.000Z</time>
      </trkpt>
      <trkpt lat="39.869427" lon="-8.852311">
        <ele>13.4</ele>
        <time>1970-01-01T01:21:19.000Z</time>
      </trkpt>
      <trkpt lat="39.869453" lon="-8.852353">
        <ele>13.3</ele>
        <time>1970-01-01T01:21:20.000Z</time>
      </trkpt>
      <trkpt lat="39.86948" lon="-8.8524">
        <ele>13.3</ele>
        <time>1970-01-01T01:21:21.000Z</time>
      </trkpt>
      <trkpt lat="39.869506" lon="-8.852447">
        <ele>13.3</ele>
        <time>1970-01-01T01:21:22.000Z</time>
      </trkpt>
      <trkpt lat="39.869533" lon="-8.852495">
        <ele>13.3</ele>
        <time>1970-01-01T01:21:23.000Z</time>
      </trkpt>
      <trkpt lat="39.869561" lon="-8.852541">
        <ele>13.2</ele>
        <time>1970-01-01T01:21:24.000Z</time>
      </trkpt>
      <trkpt lat="39.86959" lon="-8.852586">
        <ele>13.2</ele>
        <time>1970-01-01T01:21:25.000Z</time>
      </trkpt>
      <trkpt lat="39.869624" lon="-8.852632">
        <ele>13.1</ele>
        <time>1970-01-01T01:21:26.000Z</time>
      </trkpt>
      <trkpt lat="39.869659" lon="-8.852679">
        <ele>13.1</ele>
        <time>1970-01-01T01:21:27.000Z</time>
      </trkpt>
      <trkpt lat="39.86969" lon="-8.852724">
        <ele>13</ele>
        <time>1970-01-01T01:21:28.000Z</time>
      </trkpt>
      <trkpt lat="39.869722" lon="-8.852769">
        <ele>13</ele>
        <time>1970-01-01T01:21:29.000Z</time>
      </trkpt>
      <trkpt lat="39.869757" lon="-8.852817">
        <ele>13</ele>
        <time>1970-01-01T01:21:30.000Z</time>
      </trkpt>
      <trkpt lat="39.869793" lon="-8.852862">
        <ele>12.9</ele>
        <time>1970-01-01T01:21:31.000Z</time>
      </trkpt>
      <trkpt lat="39.869826" lon="-8.852904">
        <ele>12.9</ele>
        <time>1970-01-01T01:21:32.000Z</time>
      </trkpt>
      <trkpt lat="39.86986" lon="-8.852947">
        <ele>12.9</ele>
        <time>1970-01-01T01:21:33.000Z</time>
      </trkpt>
      <trkpt lat="39.869894" lon="-8.852991">
        <ele>12.9</ele>
        <time>1970-01-01T01:21:34.000Z</time>
      </trkpt>
      <trkpt lat="39.869927" lon="-8.853036">
        <ele>12.9</ele>
        <time>1970-01-01T01:21:35.000Z</time>
      </trkpt>
      <trkpt lat="39.869959" lon="-8.853082">
        <ele>12.9</ele>
        <time>1970-01-01T01:21:36.000Z</time>
      </trkpt>
      <trkpt lat="39.869991" lon="-8.853128">
        <ele>12.9</ele>
        <time>1970-01-01T01:21:37.000Z</time>
      </trkpt>
      <trkpt lat="39.870022" lon="-8.853168">
        <ele>12.9</ele>
        <time>1970-01-01T01:21:38.000Z</time>
      </trkpt>
      <trkpt lat="39.87005" lon="-8.853205">
        <ele>12.9</ele>
        <time>1970-01-01T01:21:39.000Z</time>
      </trkpt>
      <trkpt lat="39.870076" lon="-8.853238">
        <ele>12.9</ele>
        <time>1970-01-01T01:21:40.000Z</time>
      </trkpt>
      <trkpt lat="39.870098" lon="-8.853266">
        <ele>12.9</ele>
        <time>1970-01-01T01:21:41.000Z</time>
      </trkpt>
      <trkpt lat="39.870116" lon="-8.85329">
        <ele>12.9</ele>
        <time>1970-01-01T01:21:42.000Z</time>
      </trkpt>
      <trkpt lat="39.870132" lon="-8.853309">
        <ele>12.9</ele>
        <time>1970-01-01T01:21:43.000Z</time>
      </trkpt>
      <trkpt lat="39.870145" lon="-8.853324">
        <ele>12.9</ele>
        <time>1970-01-01T01:21:44.000Z</time>
      </trkpt>
      <trkpt lat="39.870154" lon="-8.85334">
        <ele>12.9</ele>
        <time>1970-01-01T01:21:45.000Z</time>
      </trkpt>
      <trkpt lat="39.870162" lon="-8.853355">
        <ele>12.9</ele>
        <time>1970-01-01T01:21:46.000Z</time>
      </trkpt>
      <trkpt lat="39.87017" lon="-8.85337">
        <ele>12.9</ele>
        <time>1970-01-01T01:21:47.000Z</time>
      </trkpt>
      <trkpt lat="39.870178" lon="-8.853382">
        <ele>12.9</ele>
        <time>1970-01-01T01:21:48.000Z</time>
      </trkpt>
      <trkpt lat="39.870186" lon="-8.853395">
        <ele>12.9</ele>
        <time>1970-01-01T01:21:49.000Z</time>
      </trkpt>
      <trkpt lat="39.870193" lon="-8.85341">
        <ele>12.9</ele>
        <time>1970-01-01T01:21:50.000Z</time>
      </trkpt>
      <trkpt lat="39.8702" lon="-8.853428">
        <ele>12.9</ele>
        <time>1970-01-01T01:21:51.000Z</time>
      </trkpt>
      <trkpt lat="39.870209" lon="-8.853452">
        <ele>12.9</ele>
        <time>1970-01-01T01:21:52.000Z</time>
      </trkpt>
      <trkpt lat="39.870223" lon="-8.853481">
        <ele>12.9</ele>
        <time>1970-01-01T01:21:53.000Z</time>
      </trkpt>
      <trkpt lat="39.870238" lon="-8.853509">
        <ele>12.9</ele>
        <time>1970-01-01T01:21:54.000Z</time>
      </trkpt>
      <trkpt lat="39.870251" lon="-8.853538">
        <ele>12.9</ele>
        <time>1970-01-01T01:21:55.000Z</time>
      </trkpt>
      <trkpt lat="39.870265" lon="-8.853569">
        <ele>12.8</ele>
        <time>1970-01-01T01:21:56.000Z</time>
      </trkpt>
      <trkpt lat="39.870279" lon="-8.853597">
        <ele>12.8</ele>
        <time>1970-01-01T01:21:57.000Z</time>
      </trkpt>
      <trkpt lat="39.870293" lon="-8.853625">
        <ele>12.8</ele>
        <time>1970-01-01T01:21:58.000Z</time>
      </trkpt>
      <trkpt lat="39.870306" lon="-8.85365">
        <ele>12.8</ele>
        <time>1970-01-01T01:21:59.000Z</time>
      </trkpt>
      <trkpt lat="39.870319" lon="-8.853678">
        <ele>12.8</ele>
        <time>1970-01-01T01:22:00.000Z</time>
      </trkpt>
      <trkpt lat="39.870331" lon="-8.853706">
        <ele>12.8</ele>
        <time>1970-01-01T01:22:01.000Z</time>
      </trkpt>
      <trkpt lat="39.870343" lon="-8.853737">
        <ele>12.8</ele>
        <time>1970-01-01T01:22:02.000Z</time>
      </trkpt>
      <trkpt lat="39.870354" lon="-8.853769">
        <ele>12.7</ele>
        <time>1970-01-01T01:22:03.000Z</time>
      </trkpt>
      <trkpt lat="39.870362" lon="-8.853804">
        <ele>12.7</ele>
        <time>1970-01-01T01:22:04.000Z</time>
      </trkpt>
      <trkpt lat="39.870364" lon="-8.85384">
        <ele>12.6</ele>
        <time>1970-01-01T01:22:05.000Z</time>
      </trkpt>
      <trkpt lat="39.870359" lon="-8.853876">
        <ele>12.6</ele>
        <time>1970-01-01T01:22:06.000Z</time>
      </trkpt>
      <trkpt lat="39.870347" lon="-8.853915">
        <ele>12.5</ele>
        <time>1970-01-01T01:22:07.000Z</time>
      </trkpt>
      <trkpt lat="39.870328" lon="-8.853956">
        <ele>12.5</ele>
        <time>1970-01-01T01:22:08.000Z</time>
      </trkpt>
      <trkpt lat="39.870302" lon="-8.853999">
        <ele>11.8</ele>
        <time>1970-01-01T01:22:09.000Z</time>
      </trkpt>
      <trkpt lat="39.870267" lon="-8.854043">
        <ele>11.5</ele>
        <time>1970-01-01T01:22:10.000Z</time>
      </trkpt>
      <trkpt lat="39.870225" lon="-8.854093">
        <ele>11.2</ele>
        <time>1970-01-01T01:22:11.000Z</time>
      </trkpt>
      <trkpt lat="39.870176" lon="-8.854143">
        <ele>10.8</ele>
        <time>1970-01-01T01:22:12.000Z</time>
      </trkpt>
      <trkpt lat="39.870124" lon="-8.854196">
        <ele>10.5</ele>
        <time>1970-01-01T01:22:13.000Z</time>
      </trkpt>
      <trkpt lat="39.870072" lon="-8.854252">
        <ele>10.3</ele>
        <time>1970-01-01T01:22:14.000Z</time>
      </trkpt>
      <trkpt lat="39.870024" lon="-8.854309">
        <ele>10</ele>
        <time>1970-01-01T01:22:15.000Z</time>
      </trkpt>
      <trkpt lat="39.869978" lon="-8.854367">
        <ele>9.9</ele>
        <time>1970-01-01T01:22:16.000Z</time>
      </trkpt>
      <trkpt lat="39.869933" lon="-8.854425">
        <ele>9.7</ele>
        <time>1970-01-01T01:22:17.000Z</time>
      </trkpt>
      <trkpt lat="39.869891" lon="-8.854483">
        <ele>9.5</ele>
        <time>1970-01-01T01:22:18.000Z</time>
      </trkpt>
      <trkpt lat="39.869852" lon="-8.854543">
        <ele>9.4</ele>
        <time>1970-01-01T01:22:19.000Z</time>
      </trkpt>
      <trkpt lat="39.869816" lon="-8.854604">
        <ele>9.3</ele>
        <time>1970-01-01T01:22:20.000Z</time>
      </trkpt>
      <trkpt lat="39.869782" lon="-8.854669">
        <ele>9.2</ele>
        <time>1970-01-01T01:22:21.000Z</time>
      </trkpt>
      <trkpt lat="39.869752" lon="-8.854736">
        <ele>9.1</ele>
        <time>1970-01-01T01:22:22.000Z</time>
      </trkpt>
      <trkpt lat="39.869726" lon="-8.854803">
        <ele>9</ele>
        <time>1970-01-01T01:22:23.000Z</time>
      </trkpt>
      <trkpt lat="39.869704" lon="-8.854869">
        <ele>8.9</ele>
        <time>1970-01-01T01:22:24.000Z</time>
      </trkpt>
      <trkpt lat="39.869685" lon="-8.854936">
        <ele>8.9</ele>
        <time>1970-01-01T01:22:25.000Z</time>
      </trkpt>
      <trkpt lat="39.869668" lon="-8.855005">
        <ele>8.8</ele>
        <time>1970-01-01T01:22:26.000Z</time>
      </trkpt>
      <trkpt lat="39.869652" lon="-8.855072">
        <ele>8.8</ele>
        <time>1970-01-01T01:22:27.000Z</time>
      </trkpt>
      <trkpt lat="39.869636" lon="-8.85514">
        <ele>8.8</ele>
        <time>1970-01-01T01:22:28.000Z</time>
      </trkpt>
      <trkpt lat="39.86962" lon="-8.855207">
        <ele>8.8</ele>
        <time>1970-01-01T01:22:29.000Z</time>
      </trkpt>
      <trkpt lat="39.869604" lon="-8.855276">
        <ele>8.8</ele>
        <time>1970-01-01T01:22:30.000Z</time>
      </trkpt>
      <trkpt lat="39.869587" lon="-8.855342">
        <ele>8.9</ele>
        <time>1970-01-01T01:22:31.000Z</time>
      </trkpt>
      <trkpt lat="39.869573" lon="-8.855406">
        <ele>8.9</ele>
        <time>1970-01-01T01:22:32.000Z</time>
      </trkpt>
      <trkpt lat="39.86956" lon="-8.855462">
        <ele>8.9</ele>
        <time>1970-01-01T01:22:33.000Z</time>
      </trkpt>
      <trkpt lat="39.869549" lon="-8.855516">
        <ele>9</ele>
        <time>1970-01-01T01:22:34.000Z</time>
      </trkpt>
      <trkpt lat="39.869535" lon="-8.855567">
        <ele>9</ele>
        <time>1970-01-01T01:22:35.000Z</time>
      </trkpt>
      <trkpt lat="39.869519" lon="-8.855615">
        <ele>9.1</ele>
        <time>1970-01-01T01:22:36.000Z</time>
      </trkpt>
      <trkpt lat="39.8695" lon="-8.855663">
        <ele>9.1</ele>
        <time>1970-01-01T01:22:37.000Z</time>
      </trkpt>
      <trkpt lat="39.869482" lon="-8.855705">
        <ele>9.1</ele>
        <time>1970-01-01T01:22:38.000Z</time>
      </trkpt>
      <trkpt lat="39.869461" lon="-8.855749">
        <ele>9.2</ele>
        <time>1970-01-01T01:22:39.000Z</time>
      </trkpt>
      <trkpt lat="39.869441" lon="-8.855797">
        <ele>9.2</ele>
        <time>1970-01-01T01:22:40.000Z</time>
      </trkpt>
      <trkpt lat="39.869424" lon="-8.855847">
        <ele>9.2</ele>
        <time>1970-01-01T01:22:41.000Z</time>
      </trkpt>
      <trkpt lat="39.86941" lon="-8.855895">
        <ele>9.3</ele>
        <time>1970-01-01T01:22:42.000Z</time>
      </trkpt>
      <trkpt lat="39.869399" lon="-8.855948">
        <ele>9.1</ele>
        <time>1970-01-01T01:22:43.000Z</time>
      </trkpt>
      <trkpt lat="39.86939" lon="-8.856001">
        <ele>9</ele>
        <time>1970-01-01T01:22:44.000Z</time>
      </trkpt>
      <trkpt lat="39.869383" lon="-8.856052">
        <ele>8.8</ele>
        <time>1970-01-01T01:22:45.000Z</time>
      </trkpt>
      <trkpt lat="39.869374" lon="-8.856107">
        <ele>8.6</ele>
        <time>1970-01-01T01:22:46.000Z</time>
      </trkpt>
      <trkpt lat="39.869363" lon="-8.85617">
        <ele>8.5</ele>
        <time>1970-01-01T01:22:47.000Z</time>
      </trkpt>
      <trkpt lat="39.869349" lon="-8.856249">
        <ele>8.3</ele>
        <time>1970-01-01T01:22:48.000Z</time>
      </trkpt>
      <trkpt lat="39.869333" lon="-8.856328">
        <ele>8.2</ele>
        <time>1970-01-01T01:22:49.000Z</time>
      </trkpt>
      <trkpt lat="39.869316" lon="-8.856413">
        <ele>8</ele>
        <time>1970-01-01T01:22:50.000Z</time>
      </trkpt>
      <trkpt lat="39.869298" lon="-8.856503">
        <ele>8</ele>
        <time>1970-01-01T01:22:51.000Z</time>
      </trkpt>
      <trkpt lat="39.869278" lon="-8.856597">
        <ele>7.9</ele>
        <time>1970-01-01T01:22:52.000Z</time>
      </trkpt>
      <trkpt lat="39.86926" lon="-8.856692">
        <ele>7.8</ele>
        <time>1970-01-01T01:22:53.000Z</time>
      </trkpt>
      <trkpt lat="39.869242" lon="-8.856788">
        <ele>7.8</ele>
        <time>1970-01-01T01:22:54.000Z</time>
      </trkpt>
      <trkpt lat="39.869224" lon="-8.856886">
        <ele>7.8</ele>
        <time>1970-01-01T01:22:55.000Z</time>
      </trkpt>
      <trkpt lat="39.869205" lon="-8.856986">
        <ele>7.8</ele>
        <time>1970-01-01T01:22:56.000Z</time>
      </trkpt>
      <trkpt lat="39.869187" lon="-8.857088">
        <ele>7.7</ele>
        <time>1970-01-01T01:22:57.000Z</time>
      </trkpt>
      <trkpt lat="39.869168" lon="-8.857196">
        <ele>7.7</ele>
        <time>1970-01-01T01:22:58.000Z</time>
      </trkpt>
      <trkpt lat="39.869149" lon="-8.857295">
        <ele>7.7</ele>
        <time>1970-01-01T01:22:59.000Z</time>
      </trkpt>
      <trkpt lat="39.869128" lon="-8.857392">
        <ele>7.6</ele>
        <time>1970-01-01T01:23:00.000Z</time>
      </trkpt>
      <trkpt lat="39.869105" lon="-8.857486">
        <ele>7.6</ele>
        <time>1970-01-01T01:23:01.000Z</time>
      </trkpt>
      <trkpt lat="39.86908" lon="-8.857578">
        <ele>7.6</ele>
        <time>1970-01-01T01:23:02.000Z</time>
      </trkpt>
      <trkpt lat="39.869055" lon="-8.857667">
        <ele>7.6</ele>
        <time>1970-01-01T01:23:03.000Z</time>
      </trkpt>
      <trkpt lat="39.869029" lon="-8.857758">
        <ele>7.6</ele>
        <time>1970-01-01T01:23:04.000Z</time>
      </trkpt>
      <trkpt lat="39.869006" lon="-8.857837">
        <ele>7.6</ele>
        <time>1970-01-01T01:23:05.000Z</time>
      </trkpt>
      <trkpt lat="39.868982" lon="-8.857911">
        <ele>7.6</ele>
        <time>1970-01-01T01:23:06.000Z</time>
      </trkpt>
      <trkpt lat="39.868959" lon="-8.857983">
        <ele>7.6</ele>
        <time>1970-01-01T01:23:07.000Z</time>
      </trkpt>
      <trkpt lat="39.868934" lon="-8.858056">
        <ele>7.6</ele>
        <time>1970-01-01T01:23:08.000Z</time>
      </trkpt>
      <trkpt lat="39.86891" lon="-8.858124">
        <ele>7.5</ele>
        <time>1970-01-01T01:23:09.000Z</time>
      </trkpt>
      <trkpt lat="39.868889" lon="-8.858183">
        <ele>7.5</ele>
        <time>1970-01-01T01:23:10.000Z</time>
      </trkpt>
      <trkpt lat="39.868869" lon="-8.858238">
        <ele>7.5</ele>
        <time>1970-01-01T01:23:11.000Z</time>
      </trkpt>
      <trkpt lat="39.86885" lon="-8.858289">
        <ele>7.5</ele>
        <time>1970-01-01T01:23:12.000Z</time>
      </trkpt>
      <trkpt lat="39.868833" lon="-8.85834">
        <ele>7.5</ele>
        <time>1970-01-01T01:23:13.000Z</time>
      </trkpt>
      <trkpt lat="39.868817" lon="-8.85839">
        <ele>7.4</ele>
        <time>1970-01-01T01:23:14.000Z</time>
      </trkpt>
      <trkpt lat="39.8688" lon="-8.858441">
        <ele>7.4</ele>
        <time>1970-01-01T01:23:15.000Z</time>
      </trkpt>
      <trkpt lat="39.868783" lon="-8.858497">
        <ele>7.4</ele>
        <time>1970-01-01T01:23:16.000Z</time>
      </trkpt>
      <trkpt lat="39.868767" lon="-8.85855">
        <ele>7.3</ele>
        <time>1970-01-01T01:23:17.000Z</time>
      </trkpt>
      <trkpt lat="39.86875" lon="-8.858607">
        <ele>7.3</ele>
        <time>1970-01-01T01:23:18.000Z</time>
      </trkpt>
      <trkpt lat="39.868736" lon="-8.85866">
        <ele>7.3</ele>
        <time>1970-01-01T01:23:19.000Z</time>
      </trkpt>
      <trkpt lat="39.868724" lon="-8.858712">
        <ele>7.2</ele>
        <time>1970-01-01T01:23:20.000Z</time>
      </trkpt>
      <trkpt lat="39.868708" lon="-8.858764">
        <ele>7.2</ele>
        <time>1970-01-01T01:23:21.000Z</time>
      </trkpt>
      <trkpt lat="39.868692" lon="-8.858813">
        <ele>7.2</ele>
        <time>1970-01-01T01:23:22.000Z</time>
      </trkpt>
      <trkpt lat="39.868676" lon="-8.858859">
        <ele>7.2</ele>
        <time>1970-01-01T01:23:23.000Z</time>
      </trkpt>
      <trkpt lat="39.868663" lon="-8.858899">
        <ele>7.1</ele>
        <time>1970-01-01T01:23:24.000Z</time>
      </trkpt>
      <trkpt lat="39.868647" lon="-8.858941">
        <ele>7.1</ele>
        <time>1970-01-01T01:23:25.000Z</time>
      </trkpt>
      <trkpt lat="39.868625" lon="-8.858984">
        <ele>7.1</ele>
        <time>1970-01-01T01:23:26.000Z</time>
      </trkpt>
      <trkpt lat="39.868599" lon="-8.859028">
        <ele>7.1</ele>
        <time>1970-01-01T01:23:27.000Z</time>
      </trkpt>
      <trkpt lat="39.868571" lon="-8.859074">
        <ele>7.1</ele>
        <time>1970-01-01T01:23:28.000Z</time>
      </trkpt>
      <trkpt lat="39.868542" lon="-8.85912">
        <ele>7.1</ele>
        <time>1970-01-01T01:23:29.000Z</time>
      </trkpt>
      <trkpt lat="39.868511" lon="-8.859167">
        <ele>7.1</ele>
        <time>1970-01-01T01:23:30.000Z</time>
      </trkpt>
      <trkpt lat="39.868479" lon="-8.85922">
        <ele>7</ele>
        <time>1970-01-01T01:23:31.000Z</time>
      </trkpt>
      <trkpt lat="39.86845" lon="-8.85927">
        <ele>7</ele>
        <time>1970-01-01T01:23:32.000Z</time>
      </trkpt>
      <trkpt lat="39.868421" lon="-8.859322">
        <ele>7</ele>
        <time>1970-01-01T01:23:33.000Z</time>
      </trkpt>
      <trkpt lat="39.868388" lon="-8.859378">
        <ele>7</ele>
        <time>1970-01-01T01:23:34.000Z</time>
      </trkpt>
      <trkpt lat="39.868358" lon="-8.85943">
        <ele>7.1</ele>
        <time>1970-01-01T01:23:35.000Z</time>
      </trkpt>
      <trkpt lat="39.868326" lon="-8.859482">
        <ele>7.1</ele>
        <time>1970-01-01T01:23:36.000Z</time>
      </trkpt>
      <trkpt lat="39.868294" lon="-8.859534">
        <ele>7.1</ele>
        <time>1970-01-01T01:23:37.000Z</time>
      </trkpt>
      <trkpt lat="39.868261" lon="-8.859586">
        <ele>7.1</ele>
        <time>1970-01-01T01:23:38.000Z</time>
      </trkpt>
      <trkpt lat="39.868229" lon="-8.859639">
        <ele>7.1</ele>
        <time>1970-01-01T01:23:39.000Z</time>
      </trkpt>
      <trkpt lat="39.868194" lon="-8.859698">
        <ele>7.2</ele>
        <time>1970-01-01T01:23:40.000Z</time>
      </trkpt>
      <trkpt lat="39.86816" lon="-8.859756">
        <ele>7.2</ele>
        <time>1970-01-01T01:23:41.000Z</time>
      </trkpt>
      <trkpt lat="39.868128" lon="-8.859811">
        <ele>7.2</ele>
        <time>1970-01-01T01:23:42.000Z</time>
      </trkpt>
      <trkpt lat="39.868095" lon="-8.859872">
        <ele>7.2</ele>
        <time>1970-01-01T01:23:43.000Z</time>
      </trkpt>
      <trkpt lat="39.868064" lon="-8.859929">
        <ele>7.2</ele>
        <time>1970-01-01T01:23:44.000Z</time>
      </trkpt>
      <trkpt lat="39.868031" lon="-8.859992">
        <ele>7.2</ele>
        <time>1970-01-01T01:23:45.000Z</time>
      </trkpt>
      <trkpt lat="39.867996" lon="-8.860056">
        <ele>7.3</ele>
        <time>1970-01-01T01:23:46.000Z</time>
      </trkpt>
      <trkpt lat="39.867964" lon="-8.860114">
        <ele>7.3</ele>
        <time>1970-01-01T01:23:47.000Z</time>
      </trkpt>
      <trkpt lat="39.867928" lon="-8.860176">
        <ele>7.3</ele>
        <time>1970-01-01T01:23:48.000Z</time>
      </trkpt>
      <trkpt lat="39.867896" lon="-8.86023">
        <ele>7.3</ele>
        <time>1970-01-01T01:23:49.000Z</time>
      </trkpt>
      <trkpt lat="39.867865" lon="-8.860286">
        <ele>7.3</ele>
        <time>1970-01-01T01:23:50.000Z</time>
      </trkpt>
      <trkpt lat="39.867833" lon="-8.860341">
        <ele>7.3</ele>
        <time>1970-01-01T01:23:51.000Z</time>
      </trkpt>
      <trkpt lat="39.867802" lon="-8.860394">
        <ele>7.3</ele>
        <time>1970-01-01T01:23:52.000Z</time>
      </trkpt>
      <trkpt lat="39.867771" lon="-8.860447">
        <ele>7.3</ele>
        <time>1970-01-01T01:23:53.000Z</time>
      </trkpt>
      <trkpt lat="39.867741" lon="-8.860501">
        <ele>7.3</ele>
        <time>1970-01-01T01:23:54.000Z</time>
      </trkpt>
      <trkpt lat="39.867711" lon="-8.860561">
        <ele>7.3</ele>
        <time>1970-01-01T01:23:55.000Z</time>
      </trkpt>
      <trkpt lat="39.867682" lon="-8.860616">
        <ele>7.2</ele>
        <time>1970-01-01T01:23:56.000Z</time>
      </trkpt>
      <trkpt lat="39.867651" lon="-8.86067">
        <ele>7.2</ele>
        <time>1970-01-01T01:23:57.000Z</time>
      </trkpt>
      <trkpt lat="39.867617" lon="-8.860727">
        <ele>7.2</ele>
        <time>1970-01-01T01:23:58.000Z</time>
      </trkpt>
      <trkpt lat="39.867584" lon="-8.860781">
        <ele>7.2</ele>
        <time>1970-01-01T01:23:59.000Z</time>
      </trkpt>
      <trkpt lat="39.867548" lon="-8.860833">
        <ele>7.3</ele>
        <time>1970-01-01T01:24:00.000Z</time>
      </trkpt>
      <trkpt lat="39.867511" lon="-8.860883">
        <ele>7.3</ele>
        <time>1970-01-01T01:24:01.000Z</time>
      </trkpt>
      <trkpt lat="39.867474" lon="-8.860931">
        <ele>7.4</ele>
        <time>1970-01-01T01:24:02.000Z</time>
      </trkpt>
      <trkpt lat="39.867437" lon="-8.860977">
        <ele>7.4</ele>
        <time>1970-01-01T01:24:03.000Z</time>
      </trkpt>
      <trkpt lat="39.867399" lon="-8.86102">
        <ele>7.5</ele>
        <time>1970-01-01T01:24:04.000Z</time>
      </trkpt>
      <trkpt lat="39.867362" lon="-8.86106">
        <ele>7.5</ele>
        <time>1970-01-01T01:24:05.000Z</time>
      </trkpt>
      <trkpt lat="39.867323" lon="-8.861098">
        <ele>7.5</ele>
        <time>1970-01-01T01:24:06.000Z</time>
      </trkpt>
      <trkpt lat="39.867283" lon="-8.861137">
        <ele>7.5</ele>
        <time>1970-01-01T01:24:07.000Z</time>
      </trkpt>
      <trkpt lat="39.867243" lon="-8.861177">
        <ele>7.4</ele>
        <time>1970-01-01T01:24:08.000Z</time>
      </trkpt>
      <trkpt lat="39.867203" lon="-8.861219">
        <ele>7.4</ele>
        <time>1970-01-01T01:24:09.000Z</time>
      </trkpt>
      <trkpt lat="39.86716" lon="-8.861264">
        <ele>7.3</ele>
        <time>1970-01-01T01:24:10.000Z</time>
      </trkpt>
      <trkpt lat="39.867117" lon="-8.86131">
        <ele>7.3</ele>
        <time>1970-01-01T01:24:11.000Z</time>
      </trkpt>
      <trkpt lat="39.867073" lon="-8.861357">
        <ele>7.3</ele>
        <time>1970-01-01T01:24:12.000Z</time>
      </trkpt>
      <trkpt lat="39.867028" lon="-8.861403">
        <ele>7.3</ele>
        <time>1970-01-01T01:24:13.000Z</time>
      </trkpt>
      <trkpt lat="39.866981" lon="-8.861454">
        <ele>7.3</ele>
        <time>1970-01-01T01:24:14.000Z</time>
      </trkpt>
      <trkpt lat="39.866938" lon="-8.861499">
        <ele>7.3</ele>
        <time>1970-01-01T01:24:15.000Z</time>
      </trkpt>
      <trkpt lat="39.866897" lon="-8.861548">
        <ele>7.3</ele>
        <time>1970-01-01T01:24:16.000Z</time>
      </trkpt>
      <trkpt lat="39.866859" lon="-8.861602">
        <ele>7.3</ele>
        <time>1970-01-01T01:24:17.000Z</time>
      </trkpt>
      <trkpt lat="39.866821" lon="-8.861658">
        <ele>7.3</ele>
        <time>1970-01-01T01:24:18.000Z</time>
      </trkpt>
      <trkpt lat="39.86678" lon="-8.861715">
        <ele>7.3</ele>
        <time>1970-01-01T01:24:19.000Z</time>
      </trkpt>
      <trkpt lat="39.866739" lon="-8.861771">
        <ele>7.3</ele>
        <time>1970-01-01T01:24:20.000Z</time>
      </trkpt>
      <trkpt lat="39.866697" lon="-8.86183">
        <ele>7.2</ele>
        <time>1970-01-01T01:24:21.000Z</time>
      </trkpt>
      <trkpt lat="39.866656" lon="-8.861894">
        <ele>7.2</ele>
        <time>1970-01-01T01:24:22.000Z</time>
      </trkpt>
      <trkpt lat="39.866619" lon="-8.861956">
        <ele>7.1</ele>
        <time>1970-01-01T01:24:23.000Z</time>
      </trkpt>
      <trkpt lat="39.866585" lon="-8.86202">
        <ele>7.1</ele>
        <time>1970-01-01T01:24:24.000Z</time>
      </trkpt>
      <trkpt lat="39.86655" lon="-8.862083">
        <ele>7</ele>
        <time>1970-01-01T01:24:25.000Z</time>
      </trkpt>
      <trkpt lat="39.866517" lon="-8.862148">
        <ele>7</ele>
        <time>1970-01-01T01:24:26.000Z</time>
      </trkpt>
      <trkpt lat="39.866484" lon="-8.862212">
        <ele>6.9</ele>
        <time>1970-01-01T01:24:27.000Z</time>
      </trkpt>
      <trkpt lat="39.866452" lon="-8.862278">
        <ele>6.9</ele>
        <time>1970-01-01T01:24:28.000Z</time>
      </trkpt>
      <trkpt lat="39.866422" lon="-8.862344">
        <ele>6.8</ele>
        <time>1970-01-01T01:24:29.000Z</time>
      </trkpt>
      <trkpt lat="39.866392" lon="-8.86241">
        <ele>6.8</ele>
        <time>1970-01-01T01:24:30.000Z</time>
      </trkpt>
      <trkpt lat="39.866363" lon="-8.862476">
        <ele>6.7</ele>
        <time>1970-01-01T01:24:31.000Z</time>
      </trkpt>
      <trkpt lat="39.866333" lon="-8.862541">
        <ele>6.7</ele>
        <time>1970-01-01T01:24:32.000Z</time>
      </trkpt>
      <trkpt lat="39.866305" lon="-8.862608">
        <ele>6.7</ele>
        <time>1970-01-01T01:24:33.000Z</time>
      </trkpt>
      <trkpt lat="39.866276" lon="-8.862679">
        <ele>6.7</ele>
        <time>1970-01-01T01:24:34.000Z</time>
      </trkpt>
      <trkpt lat="39.866248" lon="-8.862749">
        <ele>6.7</ele>
        <time>1970-01-01T01:24:35.000Z</time>
      </trkpt>
      <trkpt lat="39.866222" lon="-8.862816">
        <ele>6.7</ele>
        <time>1970-01-01T01:24:36.000Z</time>
      </trkpt>
      <trkpt lat="39.866194" lon="-8.862879">
        <ele>6.7</ele>
        <time>1970-01-01T01:24:37.000Z</time>
      </trkpt>
      <trkpt lat="39.866165" lon="-8.86294">
        <ele>6.7</ele>
        <time>1970-01-01T01:24:38.000Z</time>
      </trkpt>
      <trkpt lat="39.866135" lon="-8.862999">
        <ele>6.7</ele>
        <time>1970-01-01T01:24:39.000Z</time>
      </trkpt>
      <trkpt lat="39.866106" lon="-8.863057">
        <ele>6.7</ele>
        <time>1970-01-01T01:24:40.000Z</time>
      </trkpt>
      <trkpt lat="39.866077" lon="-8.863112">
        <ele>6.7</ele>
        <time>1970-01-01T01:24:41.000Z</time>
      </trkpt>
      <trkpt lat="39.866049" lon="-8.863164">
        <ele>6.7</ele>
        <time>1970-01-01T01:24:42.000Z</time>
      </trkpt>
      <trkpt lat="39.866023" lon="-8.863216">
        <ele>6.7</ele>
        <time>1970-01-01T01:24:43.000Z</time>
      </trkpt>
      <trkpt lat="39.866" lon="-8.863269">
        <ele>6.7</ele>
        <time>1970-01-01T01:24:44.000Z</time>
      </trkpt>
      <trkpt lat="39.865978" lon="-8.863322">
        <ele>6.7</ele>
        <time>1970-01-01T01:24:45.000Z</time>
      </trkpt>
      <trkpt lat="39.865956" lon="-8.863375">
        <ele>6.7</ele>
        <time>1970-01-01T01:24:46.000Z</time>
      </trkpt>
      <trkpt lat="39.865937" lon="-8.863429">
        <ele>6.7</ele>
        <time>1970-01-01T01:24:47.000Z</time>
      </trkpt>
      <trkpt lat="39.865919" lon="-8.863483">
        <ele>6.7</ele>
        <time>1970-01-01T01:24:48.000Z</time>
      </trkpt>
      <trkpt lat="39.865902" lon="-8.863538">
        <ele>6.7</ele>
        <time>1970-01-01T01:24:49.000Z</time>
      </trkpt>
      <trkpt lat="39.865887" lon="-8.863596">
        <ele>6.7</ele>
        <time>1970-01-01T01:24:50.000Z</time>
      </trkpt>
      <trkpt lat="39.865871" lon="-8.863657">
        <ele>6.7</ele>
        <time>1970-01-01T01:24:51.000Z</time>
      </trkpt>
      <trkpt lat="39.865856" lon="-8.86372">
        <ele>6.7</ele>
        <time>1970-01-01T01:24:52.000Z</time>
      </trkpt>
      <trkpt lat="39.865843" lon="-8.863784">
        <ele>6.7</ele>
        <time>1970-01-01T01:24:53.000Z</time>
      </trkpt>
      <trkpt lat="39.865832" lon="-8.863849">
        <ele>6.7</ele>
        <time>1970-01-01T01:24:54.000Z</time>
      </trkpt>
      <trkpt lat="39.865824" lon="-8.863915">
        <ele>6.7</ele>
        <time>1970-01-01T01:24:55.000Z</time>
      </trkpt>
      <trkpt lat="39.865817" lon="-8.863984">
        <ele>6.7</ele>
        <time>1970-01-01T01:24:56.000Z</time>
      </trkpt>
      <trkpt lat="39.86581" lon="-8.864053">
        <ele>6.6</ele>
        <time>1970-01-01T01:24:57.000Z</time>
      </trkpt>
      <trkpt lat="39.865806" lon="-8.864124">
        <ele>6.6</ele>
        <time>1970-01-01T01:24:58.000Z</time>
      </trkpt>
      <trkpt lat="39.865803" lon="-8.864198">
        <ele>6.6</ele>
        <time>1970-01-01T01:24:59.000Z</time>
      </trkpt>
      <trkpt lat="39.865799" lon="-8.864273">
        <ele>6.6</ele>
        <time>1970-01-01T01:25:00.000Z</time>
      </trkpt>
      <trkpt lat="39.865796" lon="-8.864348">
        <ele>6.6</ele>
        <time>1970-01-01T01:25:01.000Z</time>
      </trkpt>
      <trkpt lat="39.865793" lon="-8.864419">
        <ele>6.6</ele>
        <time>1970-01-01T01:25:02.000Z</time>
      </trkpt>
      <trkpt lat="39.865792" lon="-8.864489">
        <ele>6.5</ele>
        <time>1970-01-01T01:25:03.000Z</time>
      </trkpt>
      <trkpt lat="39.865793" lon="-8.864557">
        <ele>6.5</ele>
        <time>1970-01-01T01:25:04.000Z</time>
      </trkpt>
      <trkpt lat="39.865793" lon="-8.864623">
        <ele>6.5</ele>
        <time>1970-01-01T01:25:05.000Z</time>
      </trkpt>
      <trkpt lat="39.865794" lon="-8.864685">
        <ele>6.5</ele>
        <time>1970-01-01T01:25:06.000Z</time>
      </trkpt>
      <trkpt lat="39.865795" lon="-8.864739">
        <ele>6.5</ele>
        <time>1970-01-01T01:25:07.000Z</time>
      </trkpt>
      <trkpt lat="39.865797" lon="-8.864799">
        <ele>6.5</ele>
        <time>1970-01-01T01:25:08.000Z</time>
      </trkpt>
      <trkpt lat="39.865801" lon="-8.864856">
        <ele>6.5</ele>
        <time>1970-01-01T01:25:09.000Z</time>
      </trkpt>
      <trkpt lat="39.865804" lon="-8.864914">
        <ele>6.4</ele>
        <time>1970-01-01T01:25:10.000Z</time>
      </trkpt>
      <trkpt lat="39.865807" lon="-8.864972">
        <ele>6.4</ele>
        <time>1970-01-01T01:25:11.000Z</time>
      </trkpt>
      <trkpt lat="39.865812" lon="-8.865032">
        <ele>6.4</ele>
        <time>1970-01-01T01:25:12.000Z</time>
      </trkpt>
      <trkpt lat="39.865817" lon="-8.865092">
        <ele>6.4</ele>
        <time>1970-01-01T01:25:13.000Z</time>
      </trkpt>
      <trkpt lat="39.865824" lon="-8.865155">
        <ele>6.4</ele>
        <time>1970-01-01T01:25:14.000Z</time>
      </trkpt>
      <trkpt lat="39.865831" lon="-8.86522">
        <ele>6.3</ele>
        <time>1970-01-01T01:25:15.000Z</time>
      </trkpt>
      <trkpt lat="39.865839" lon="-8.865287">
        <ele>6.3</ele>
        <time>1970-01-01T01:25:16.000Z</time>
      </trkpt>
      <trkpt lat="39.865847" lon="-8.865356">
        <ele>6.3</ele>
        <time>1970-01-01T01:25:17.000Z</time>
      </trkpt>
      <trkpt lat="39.865854" lon="-8.865428">
        <ele>6.3</ele>
        <time>1970-01-01T01:25:18.000Z</time>
      </trkpt>
      <trkpt lat="39.865861" lon="-8.865502">
        <ele>6.3</ele>
        <time>1970-01-01T01:25:19.000Z</time>
      </trkpt>
      <trkpt lat="39.865867" lon="-8.865576">
        <ele>6.3</ele>
        <time>1970-01-01T01:25:20.000Z</time>
      </trkpt>
      <trkpt lat="39.865872" lon="-8.865652">
        <ele>6.3</ele>
        <time>1970-01-01T01:25:21.000Z</time>
      </trkpt>
      <trkpt lat="39.865876" lon="-8.865722">
        <ele>6.3</ele>
        <time>1970-01-01T01:25:22.000Z</time>
      </trkpt>
      <trkpt lat="39.865882" lon="-8.865795">
        <ele>6.4</ele>
        <time>1970-01-01T01:25:23.000Z</time>
      </trkpt>
      <trkpt lat="39.865888" lon="-8.865862">
        <ele>6.4</ele>
        <time>1970-01-01T01:25:24.000Z</time>
      </trkpt>
      <trkpt lat="39.865894" lon="-8.865932">
        <ele>6.4</ele>
        <time>1970-01-01T01:25:25.000Z</time>
      </trkpt>
      <trkpt lat="39.8659" lon="-8.865996">
        <ele>6.4</ele>
        <time>1970-01-01T01:25:26.000Z</time>
      </trkpt>
      <trkpt lat="39.865908" lon="-8.866063">
        <ele>6.4</ele>
        <time>1970-01-01T01:25:27.000Z</time>
      </trkpt>
      <trkpt lat="39.865916" lon="-8.866129">
        <ele>6.3</ele>
        <time>1970-01-01T01:25:28.000Z</time>
      </trkpt>
      <trkpt lat="39.865923" lon="-8.866194">
        <ele>6.3</ele>
        <time>1970-01-01T01:25:29.000Z</time>
      </trkpt>
      <trkpt lat="39.865931" lon="-8.866259">
        <ele>6.3</ele>
        <time>1970-01-01T01:25:30.000Z</time>
      </trkpt>
      <trkpt lat="39.865938" lon="-8.866325">
        <ele>6.3</ele>
        <time>1970-01-01T01:25:31.000Z</time>
      </trkpt>
      <trkpt lat="39.865945" lon="-8.866391">
        <ele>6.3</ele>
        <time>1970-01-01T01:25:32.000Z</time>
      </trkpt>
      <trkpt lat="39.865952" lon="-8.866457">
        <ele>6.3</ele>
        <time>1970-01-01T01:25:33.000Z</time>
      </trkpt>
      <trkpt lat="39.86596" lon="-8.866523">
        <ele>6.3</ele>
        <time>1970-01-01T01:25:34.000Z</time>
      </trkpt>
      <trkpt lat="39.865968" lon="-8.866589">
        <ele>6.2</ele>
        <time>1970-01-01T01:25:35.000Z</time>
      </trkpt>
      <trkpt lat="39.865976" lon="-8.866654">
        <ele>6.2</ele>
        <time>1970-01-01T01:25:36.000Z</time>
      </trkpt>
      <trkpt lat="39.865984" lon="-8.86672">
        <ele>6.2</ele>
        <time>1970-01-01T01:25:37.000Z</time>
      </trkpt>
      <trkpt lat="39.865991" lon="-8.866785">
        <ele>6.1</ele>
        <time>1970-01-01T01:25:38.000Z</time>
      </trkpt>
      <trkpt lat="39.865998" lon="-8.866846">
        <ele>6.1</ele>
        <time>1970-01-01T01:25:39.000Z</time>
      </trkpt>
      <trkpt lat="39.866006" lon="-8.866907">
        <ele>6.1</ele>
        <time>1970-01-01T01:25:40.000Z</time>
      </trkpt>
      <trkpt lat="39.866014" lon="-8.866968">
        <ele>6.1</ele>
        <time>1970-01-01T01:25:41.000Z</time>
      </trkpt>
      <trkpt lat="39.866023" lon="-8.867028">
        <ele>6.1</ele>
        <time>1970-01-01T01:25:42.000Z</time>
      </trkpt>
      <trkpt lat="39.866033" lon="-8.867088">
        <ele>6.1</ele>
        <time>1970-01-01T01:25:43.000Z</time>
      </trkpt>
      <trkpt lat="39.866043" lon="-8.867146">
        <ele>6.1</ele>
        <time>1970-01-01T01:25:44.000Z</time>
      </trkpt>
      <trkpt lat="39.866051" lon="-8.867203">
        <ele>6.1</ele>
        <time>1970-01-01T01:25:45.000Z</time>
      </trkpt>
      <trkpt lat="39.866058" lon="-8.86726">
        <ele>6.1</ele>
        <time>1970-01-01T01:25:46.000Z</time>
      </trkpt>
      <trkpt lat="39.866063" lon="-8.867317">
        <ele>6.1</ele>
        <time>1970-01-01T01:25:47.000Z</time>
      </trkpt>
      <trkpt lat="39.866069" lon="-8.867373">
        <ele>6.1</ele>
        <time>1970-01-01T01:25:48.000Z</time>
      </trkpt>
      <trkpt lat="39.866074" lon="-8.867429">
        <ele>6.1</ele>
        <time>1970-01-01T01:25:49.000Z</time>
      </trkpt>
      <trkpt lat="39.866079" lon="-8.867486">
        <ele>6.1</ele>
        <time>1970-01-01T01:25:50.000Z</time>
      </trkpt>
      <trkpt lat="39.866085" lon="-8.867543">
        <ele>6.1</ele>
        <time>1970-01-01T01:25:51.000Z</time>
      </trkpt>
      <trkpt lat="39.866091" lon="-8.8676">
        <ele>6.1</ele>
        <time>1970-01-01T01:25:52.000Z</time>
      </trkpt>
      <trkpt lat="39.866096" lon="-8.867657">
        <ele>6.1</ele>
        <time>1970-01-01T01:25:53.000Z</time>
      </trkpt>
      <trkpt lat="39.8661" lon="-8.867715">
        <ele>6.1</ele>
        <time>1970-01-01T01:25:54.000Z</time>
      </trkpt>
      <trkpt lat="39.866104" lon="-8.867775">
        <ele>6.1</ele>
        <time>1970-01-01T01:25:55.000Z</time>
      </trkpt>
      <trkpt lat="39.866109" lon="-8.867835">
        <ele>6.1</ele>
        <time>1970-01-01T01:25:56.000Z</time>
      </trkpt>
      <trkpt lat="39.866116" lon="-8.867893">
        <ele>6.1</ele>
        <time>1970-01-01T01:25:57.000Z</time>
      </trkpt>
      <trkpt lat="39.866121" lon="-8.867945">
        <ele>6.1</ele>
        <time>1970-01-01T01:25:58.000Z</time>
      </trkpt>
      <trkpt lat="39.866128" lon="-8.868003">
        <ele>6.1</ele>
        <time>1970-01-01T01:25:59.000Z</time>
      </trkpt>
      <trkpt lat="39.866135" lon="-8.868063">
        <ele>6.1</ele>
        <time>1970-01-01T01:26:00.000Z</time>
      </trkpt>
      <trkpt lat="39.866143" lon="-8.868125">
        <ele>6.1</ele>
        <time>1970-01-01T01:26:01.000Z</time>
      </trkpt>
      <trkpt lat="39.866151" lon="-8.868189">
        <ele>6.1</ele>
        <time>1970-01-01T01:26:02.000Z</time>
      </trkpt>
      <trkpt lat="39.866159" lon="-8.868256">
        <ele>6.1</ele>
        <time>1970-01-01T01:26:03.000Z</time>
      </trkpt>
      <trkpt lat="39.866166" lon="-8.868325">
        <ele>6.1</ele>
        <time>1970-01-01T01:26:04.000Z</time>
      </trkpt>
      <trkpt lat="39.866174" lon="-8.868396">
        <ele>6.1</ele>
        <time>1970-01-01T01:26:05.000Z</time>
      </trkpt>
      <trkpt lat="39.866181" lon="-8.86847">
        <ele>6.1</ele>
        <time>1970-01-01T01:26:06.000Z</time>
      </trkpt>
      <trkpt lat="39.866188" lon="-8.868544">
        <ele>6</ele>
        <time>1970-01-01T01:26:07.000Z</time>
      </trkpt>
      <trkpt lat="39.866196" lon="-8.868617">
        <ele>6</ele>
        <time>1970-01-01T01:26:08.000Z</time>
      </trkpt>
      <trkpt lat="39.866206" lon="-8.868689">
        <ele>6</ele>
        <time>1970-01-01T01:26:09.000Z</time>
      </trkpt>
      <trkpt lat="39.866215" lon="-8.868761">
        <ele>6</ele>
        <time>1970-01-01T01:26:10.000Z</time>
      </trkpt>
      <trkpt lat="39.866221" lon="-8.868826">
        <ele>6</ele>
        <time>1970-01-01T01:26:11.000Z</time>
      </trkpt>
      <trkpt lat="39.866226" lon="-8.868896">
        <ele>6</ele>
        <time>1970-01-01T01:26:12.000Z</time>
      </trkpt>
      <trkpt lat="39.866231" lon="-8.868962">
        <ele>6</ele>
        <time>1970-01-01T01:26:13.000Z</time>
      </trkpt>
      <trkpt lat="39.866235" lon="-8.869027">
        <ele>6</ele>
        <time>1970-01-01T01:26:14.000Z</time>
      </trkpt>
      <trkpt lat="39.866238" lon="-8.869087">
        <ele>6</ele>
        <time>1970-01-01T01:26:15.000Z</time>
      </trkpt>
      <trkpt lat="39.866241" lon="-8.869151">
        <ele>6</ele>
        <time>1970-01-01T01:26:16.000Z</time>
      </trkpt>
      <trkpt lat="39.866243" lon="-8.869211">
        <ele>6</ele>
        <time>1970-01-01T01:26:17.000Z</time>
      </trkpt>
      <trkpt lat="39.866245" lon="-8.869269">
        <ele>6</ele>
        <time>1970-01-01T01:26:18.000Z</time>
      </trkpt>
      <trkpt lat="39.86625" lon="-8.869324">
        <ele>6</ele>
        <time>1970-01-01T01:26:19.000Z</time>
      </trkpt>
      <trkpt lat="39.866255" lon="-8.869379">
        <ele>5.9</ele>
        <time>1970-01-01T01:26:20.000Z</time>
      </trkpt>
      <trkpt lat="39.866261" lon="-8.869435">
        <ele>5.9</ele>
        <time>1970-01-01T01:26:21.000Z</time>
      </trkpt>
      <trkpt lat="39.866264" lon="-8.86949">
        <ele>5.9</ele>
        <time>1970-01-01T01:26:22.000Z</time>
      </trkpt>
      <trkpt lat="39.866263" lon="-8.869547">
        <ele>5.9</ele>
        <time>1970-01-01T01:26:23.000Z</time>
      </trkpt>
      <trkpt lat="39.866259" lon="-8.869604">
        <ele>5.9</ele>
        <time>1970-01-01T01:26:24.000Z</time>
      </trkpt>
      <trkpt lat="39.866253" lon="-8.869661">
        <ele>5.9</ele>
        <time>1970-01-01T01:26:25.000Z</time>
      </trkpt>
      <trkpt lat="39.866246" lon="-8.869717">
        <ele>5.9</ele>
        <time>1970-01-01T01:26:26.000Z</time>
      </trkpt>
      <trkpt lat="39.86624" lon="-8.869773">
        <ele>5.8</ele>
        <time>1970-01-01T01:26:27.000Z</time>
      </trkpt>
      <trkpt lat="39.866233" lon="-8.869829">
        <ele>5.8</ele>
        <time>1970-01-01T01:26:28.000Z</time>
      </trkpt>
      <trkpt lat="39.866226" lon="-8.869887">
        <ele>5.8</ele>
        <time>1970-01-01T01:26:29.000Z</time>
      </trkpt>
      <trkpt lat="39.866221" lon="-8.869945">
        <ele>5.8</ele>
        <time>1970-01-01T01:26:30.000Z</time>
      </trkpt>
      <trkpt lat="39.866216" lon="-8.870004">
        <ele>5.8</ele>
        <time>1970-01-01T01:26:31.000Z</time>
      </trkpt>
      <trkpt lat="39.866209" lon="-8.870063">
        <ele>5.8</ele>
        <time>1970-01-01T01:26:32.000Z</time>
      </trkpt>
      <trkpt lat="39.866201" lon="-8.870122">
        <ele>5.8</ele>
        <time>1970-01-01T01:26:33.000Z</time>
      </trkpt>
      <trkpt lat="39.866194" lon="-8.870182">
        <ele>5.8</ele>
        <time>1970-01-01T01:26:34.000Z</time>
      </trkpt>
      <trkpt lat="39.866187" lon="-8.870242">
        <ele>5.8</ele>
        <time>1970-01-01T01:26:35.000Z</time>
      </trkpt>
      <trkpt lat="39.86618" lon="-8.870301">
        <ele>5.8</ele>
        <time>1970-01-01T01:26:36.000Z</time>
      </trkpt>
      <trkpt lat="39.866173" lon="-8.87036">
        <ele>5.8</ele>
        <time>1970-01-01T01:26:37.000Z</time>
      </trkpt>
      <trkpt lat="39.866166" lon="-8.87042">
        <ele>5.8</ele>
        <time>1970-01-01T01:26:38.000Z</time>
      </trkpt>
      <trkpt lat="39.866162" lon="-8.870481">
        <ele>5.8</ele>
        <time>1970-01-01T01:26:39.000Z</time>
      </trkpt>
      <trkpt lat="39.86616" lon="-8.870542">
        <ele>5.8</ele>
        <time>1970-01-01T01:26:40.000Z</time>
      </trkpt>
      <trkpt lat="39.866158" lon="-8.870602">
        <ele>5.8</ele>
        <time>1970-01-01T01:26:41.000Z</time>
      </trkpt>
      <trkpt lat="39.866156" lon="-8.87066">
        <ele>5.8</ele>
        <time>1970-01-01T01:26:42.000Z</time>
      </trkpt>
      <trkpt lat="39.866154" lon="-8.870716">
        <ele>5.8</ele>
        <time>1970-01-01T01:26:43.000Z</time>
      </trkpt>
      <trkpt lat="39.866152" lon="-8.870773">
        <ele>5.8</ele>
        <time>1970-01-01T01:26:44.000Z</time>
      </trkpt>
      <trkpt lat="39.866147" lon="-8.870828">
        <ele>5.9</ele>
        <time>1970-01-01T01:26:45.000Z</time>
      </trkpt>
      <trkpt lat="39.866141" lon="-8.870882">
        <ele>5.9</ele>
        <time>1970-01-01T01:26:46.000Z</time>
      </trkpt>
      <trkpt lat="39.866133" lon="-8.870934">
        <ele>5.9</ele>
        <time>1970-01-01T01:26:47.000Z</time>
      </trkpt>
      <trkpt lat="39.866125" lon="-8.870986">
        <ele>5.8</ele>
        <time>1970-01-01T01:26:48.000Z</time>
      </trkpt>
      <trkpt lat="39.866117" lon="-8.871036">
        <ele>5.8</ele>
        <time>1970-01-01T01:26:49.000Z</time>
      </trkpt>
      <trkpt lat="39.86611" lon="-8.871088">
        <ele>5.8</ele>
        <time>1970-01-01T01:26:50.000Z</time>
      </trkpt>
      <trkpt lat="39.866102" lon="-8.871139">
        <ele>5.8</ele>
        <time>1970-01-01T01:26:51.000Z</time>
      </trkpt>
      <trkpt lat="39.866094" lon="-8.871189">
        <ele>5.8</ele>
        <time>1970-01-01T01:26:52.000Z</time>
      </trkpt>
      <trkpt lat="39.866087" lon="-8.871242">
        <ele>5.8</ele>
        <time>1970-01-01T01:26:53.000Z</time>
      </trkpt>
      <trkpt lat="39.866083" lon="-8.871297">
        <ele>5.7</ele>
        <time>1970-01-01T01:26:54.000Z</time>
      </trkpt>
      <trkpt lat="39.866084" lon="-8.871354">
        <ele>5.7</ele>
        <time>1970-01-01T01:26:55.000Z</time>
      </trkpt>
      <trkpt lat="39.866086" lon="-8.871413">
        <ele>5.7</ele>
        <time>1970-01-01T01:26:56.000Z</time>
      </trkpt>
      <trkpt lat="39.866087" lon="-8.871472">
        <ele>5.7</ele>
        <time>1970-01-01T01:26:57.000Z</time>
      </trkpt>
      <trkpt lat="39.866087" lon="-8.871529">
        <ele>5.7</ele>
        <time>1970-01-01T01:26:58.000Z</time>
      </trkpt>
      <trkpt lat="39.866085" lon="-8.871586">
        <ele>5.7</ele>
        <time>1970-01-01T01:26:59.000Z</time>
      </trkpt>
      <trkpt lat="39.86608" lon="-8.871641">
        <ele>5.7</ele>
        <time>1970-01-01T01:27:00.000Z</time>
      </trkpt>
      <trkpt lat="39.866074" lon="-8.871695">
        <ele>5.7</ele>
        <time>1970-01-01T01:27:01.000Z</time>
      </trkpt>
      <trkpt lat="39.86607" lon="-8.87175">
        <ele>5.6</ele>
        <time>1970-01-01T01:27:02.000Z</time>
      </trkpt>
      <trkpt lat="39.866066" lon="-8.8718">
        <ele>5.6</ele>
        <time>1970-01-01T01:27:03.000Z</time>
      </trkpt>
      <trkpt lat="39.866062" lon="-8.871851">
        <ele>5.6</ele>
        <time>1970-01-01T01:27:04.000Z</time>
      </trkpt>
      <trkpt lat="39.866058" lon="-8.871904">
        <ele>5.6</ele>
        <time>1970-01-01T01:27:05.000Z</time>
      </trkpt>
      <trkpt lat="39.866055" lon="-8.871958">
        <ele>5.6</ele>
        <time>1970-01-01T01:27:06.000Z</time>
      </trkpt>
      <trkpt lat="39.86605" lon="-8.872012">
        <ele>5.6</ele>
        <time>1970-01-01T01:27:07.000Z</time>
      </trkpt>
      <trkpt lat="39.866046" lon="-8.872066">
        <ele>5.6</ele>
        <time>1970-01-01T01:27:08.000Z</time>
      </trkpt>
      <trkpt lat="39.866041" lon="-8.872121">
        <ele>5.6</ele>
        <time>1970-01-01T01:27:09.000Z</time>
      </trkpt>
      <trkpt lat="39.866037" lon="-8.872176">
        <ele>5.6</ele>
        <time>1970-01-01T01:27:10.000Z</time>
      </trkpt>
      <trkpt lat="39.866032" lon="-8.872232">
        <ele>5.6</ele>
        <time>1970-01-01T01:27:11.000Z</time>
      </trkpt>
      <trkpt lat="39.866027" lon="-8.872288">
        <ele>5.6</ele>
        <time>1970-01-01T01:27:12.000Z</time>
      </trkpt>
      <trkpt lat="39.866023" lon="-8.872346">
        <ele>5.6</ele>
        <time>1970-01-01T01:27:13.000Z</time>
      </trkpt>
      <trkpt lat="39.866018" lon="-8.872405">
        <ele>5.6</ele>
        <time>1970-01-01T01:27:14.000Z</time>
      </trkpt>
      <trkpt lat="39.866013" lon="-8.872464">
        <ele>5.6</ele>
        <time>1970-01-01T01:27:15.000Z</time>
      </trkpt>
      <trkpt lat="39.866008" lon="-8.872522">
        <ele>5.6</ele>
        <time>1970-01-01T01:27:16.000Z</time>
      </trkpt>
      <trkpt lat="39.866004" lon="-8.872581">
        <ele>5.6</ele>
        <time>1970-01-01T01:27:17.000Z</time>
      </trkpt>
      <trkpt lat="39.865999" lon="-8.87264">
        <ele>5.6</ele>
        <time>1970-01-01T01:27:18.000Z</time>
      </trkpt>
      <trkpt lat="39.865995" lon="-8.8727">
        <ele>5.6</ele>
        <time>1970-01-01T01:27:19.000Z</time>
      </trkpt>
      <trkpt lat="39.865991" lon="-8.872763">
        <ele>5.6</ele>
        <time>1970-01-01T01:27:20.000Z</time>
      </trkpt>
      <trkpt lat="39.865989" lon="-8.872821">
        <ele>5.6</ele>
        <time>1970-01-01T01:27:21.000Z</time>
      </trkpt>
      <trkpt lat="39.865987" lon="-8.872878">
        <ele>5.6</ele>
        <time>1970-01-01T01:27:22.000Z</time>
      </trkpt>
      <trkpt lat="39.865984" lon="-8.872934">
        <ele>5.6</ele>
        <time>1970-01-01T01:27:23.000Z</time>
      </trkpt>
      <trkpt lat="39.865982" lon="-8.872991">
        <ele>5.7</ele>
        <time>1970-01-01T01:27:24.000Z</time>
      </trkpt>
      <trkpt lat="39.865979" lon="-8.873046">
        <ele>5.7</ele>
        <time>1970-01-01T01:27:25.000Z</time>
      </trkpt>
      <trkpt lat="39.865975" lon="-8.873102">
        <ele>5.7</ele>
        <time>1970-01-01T01:27:26.000Z</time>
      </trkpt>
      <trkpt lat="39.86597" lon="-8.873157">
        <ele>5.8</ele>
        <time>1970-01-01T01:27:27.000Z</time>
      </trkpt>
      <trkpt lat="39.865965" lon="-8.87321">
        <ele>5.8</ele>
        <time>1970-01-01T01:27:28.000Z</time>
      </trkpt>
      <trkpt lat="39.865961" lon="-8.873261">
        <ele>5.8</ele>
        <time>1970-01-01T01:27:29.000Z</time>
      </trkpt>
      <trkpt lat="39.865957" lon="-8.873316">
        <ele>5.8</ele>
        <time>1970-01-01T01:27:30.000Z</time>
      </trkpt>
      <trkpt lat="39.865954" lon="-8.87337">
        <ele>5.8</ele>
        <time>1970-01-01T01:27:31.000Z</time>
      </trkpt>
      <trkpt lat="39.865954" lon="-8.873421">
        <ele>5.8</ele>
        <time>1970-01-01T01:27:32.000Z</time>
      </trkpt>
      <trkpt lat="39.865952" lon="-8.873477">
        <ele>5.8</ele>
        <time>1970-01-01T01:27:33.000Z</time>
      </trkpt>
      <trkpt lat="39.86595" lon="-8.873535">
        <ele>5.8</ele>
        <time>1970-01-01T01:27:34.000Z</time>
      </trkpt>
      <trkpt lat="39.865948" lon="-8.873589">
        <ele>5.8</ele>
        <time>1970-01-01T01:27:35.000Z</time>
      </trkpt>
      <trkpt lat="39.865949" lon="-8.87365">
        <ele>5.8</ele>
        <time>1970-01-01T01:27:36.000Z</time>
      </trkpt>
      <trkpt lat="39.86595" lon="-8.873706">
        <ele>5.8</ele>
        <time>1970-01-01T01:27:37.000Z</time>
      </trkpt>
      <trkpt lat="39.86595" lon="-8.873763">
        <ele>5.8</ele>
        <time>1970-01-01T01:27:38.000Z</time>
      </trkpt>
      <trkpt lat="39.865949" lon="-8.873821">
        <ele>5.8</ele>
        <time>1970-01-01T01:27:39.000Z</time>
      </trkpt>
      <trkpt lat="39.865948" lon="-8.87388">
        <ele>5.8</ele>
        <time>1970-01-01T01:27:40.000Z</time>
      </trkpt>
      <trkpt lat="39.865948" lon="-8.873939">
        <ele>5.8</ele>
        <time>1970-01-01T01:27:41.000Z</time>
      </trkpt>
      <trkpt lat="39.865948" lon="-8.873997">
        <ele>5.8</ele>
        <time>1970-01-01T01:27:42.000Z</time>
      </trkpt>
      <trkpt lat="39.865949" lon="-8.874056">
        <ele>5.8</ele>
        <time>1970-01-01T01:27:43.000Z</time>
      </trkpt>
      <trkpt lat="39.865951" lon="-8.874114">
        <ele>5.9</ele>
        <time>1970-01-01T01:27:44.000Z</time>
      </trkpt>
      <trkpt lat="39.865954" lon="-8.874172">
        <ele>5.9</ele>
        <time>1970-01-01T01:27:45.000Z</time>
      </trkpt>
      <trkpt lat="39.865958" lon="-8.874231">
        <ele>5.9</ele>
        <time>1970-01-01T01:27:46.000Z</time>
      </trkpt>
      <trkpt lat="39.865962" lon="-8.874288">
        <ele>5.9</ele>
        <time>1970-01-01T01:27:47.000Z</time>
      </trkpt>
      <trkpt lat="39.865966" lon="-8.874347">
        <ele>6</ele>
        <time>1970-01-01T01:27:48.000Z</time>
      </trkpt>
      <trkpt lat="39.865969" lon="-8.874407">
        <ele>6</ele>
        <time>1970-01-01T01:27:49.000Z</time>
      </trkpt>
      <trkpt lat="39.865973" lon="-8.874467">
        <ele>6</ele>
        <time>1970-01-01T01:27:50.000Z</time>
      </trkpt>
      <trkpt lat="39.865976" lon="-8.874525">
        <ele>6.1</ele>
        <time>1970-01-01T01:27:51.000Z</time>
      </trkpt>
      <trkpt lat="39.865981" lon="-8.874583">
        <ele>6.1</ele>
        <time>1970-01-01T01:27:52.000Z</time>
      </trkpt>
      <trkpt lat="39.865985" lon="-8.874639">
        <ele>6.2</ele>
        <time>1970-01-01T01:27:53.000Z</time>
      </trkpt>
      <trkpt lat="39.865989" lon="-8.874695">
        <ele>6.3</ele>
        <time>1970-01-01T01:27:54.000Z</time>
      </trkpt>
      <trkpt lat="39.865989" lon="-8.874754">
        <ele>6.4</ele>
        <time>1970-01-01T01:27:55.000Z</time>
      </trkpt>
      <trkpt lat="39.865985" lon="-8.874806">
        <ele>6.5</ele>
        <time>1970-01-01T01:27:56.000Z</time>
      </trkpt>
      <trkpt lat="39.865975" lon="-8.874855">
        <ele>6.5</ele>
        <time>1970-01-01T01:27:57.000Z</time>
      </trkpt>
      <trkpt lat="39.865959" lon="-8.874895">
        <ele>6.6</ele>
        <time>1970-01-01T01:27:58.000Z</time>
      </trkpt>
      <trkpt lat="39.865938" lon="-8.874924">
        <ele>6.5</ele>
        <time>1970-01-01T01:27:59.000Z</time>
      </trkpt>
      <trkpt lat="39.865912" lon="-8.874943">
        <ele>6.5</ele>
        <time>1970-01-01T01:28:00.000Z</time>
      </trkpt>
      <trkpt lat="39.865879" lon="-8.874954">
        <ele>6.5</ele>
        <time>1970-01-01T01:28:01.000Z</time>
      </trkpt>
      <trkpt lat="39.865842" lon="-8.874959">
        <ele>6.4</ele>
        <time>1970-01-01T01:28:02.000Z</time>
      </trkpt>
      <trkpt lat="39.865801" lon="-8.874962">
        <ele>6.4</ele>
        <time>1970-01-01T01:28:03.000Z</time>
      </trkpt>
      <trkpt lat="39.865758" lon="-8.874966">
        <ele>6.3</ele>
        <time>1970-01-01T01:28:04.000Z</time>
      </trkpt>
      <trkpt lat="39.865713" lon="-8.874969">
        <ele>6.3</ele>
        <time>1970-01-01T01:28:05.000Z</time>
      </trkpt>
      <trkpt lat="39.865666" lon="-8.874972">
        <ele>6.2</ele>
        <time>1970-01-01T01:28:06.000Z</time>
      </trkpt>
      <trkpt lat="39.865619" lon="-8.874971">
        <ele>6.2</ele>
        <time>1970-01-01T01:28:07.000Z</time>
      </trkpt>
      <trkpt lat="39.865569" lon="-8.874969">
        <ele>6.2</ele>
        <time>1970-01-01T01:28:08.000Z</time>
      </trkpt>
      <trkpt lat="39.865518" lon="-8.874968">
        <ele>6.1</ele>
        <time>1970-01-01T01:28:09.000Z</time>
      </trkpt>
      <trkpt lat="39.865467" lon="-8.874969">
        <ele>6.1</ele>
        <time>1970-01-01T01:28:10.000Z</time>
      </trkpt>
      <trkpt lat="39.865418" lon="-8.874972">
        <ele>6.1</ele>
        <time>1970-01-01T01:28:11.000Z</time>
      </trkpt>
      <trkpt lat="39.865371" lon="-8.874979">
        <ele>6.1</ele>
        <time>1970-01-01T01:28:12.000Z</time>
      </trkpt>
      <trkpt lat="39.865327" lon="-8.874987">
        <ele>6.1</ele>
        <time>1970-01-01T01:28:13.000Z</time>
      </trkpt>
      <trkpt lat="39.865283" lon="-8.874995">
        <ele>6.1</ele>
        <time>1970-01-01T01:28:14.000Z</time>
      </trkpt>
      <trkpt lat="39.865241" lon="-8.875003">
        <ele>6.1</ele>
        <time>1970-01-01T01:28:15.000Z</time>
      </trkpt>
      <trkpt lat="39.865199" lon="-8.875011">
        <ele>6.1</ele>
        <time>1970-01-01T01:28:16.000Z</time>
      </trkpt>
      <trkpt lat="39.865158" lon="-8.87502">
        <ele>6.1</ele>
        <time>1970-01-01T01:28:17.000Z</time>
      </trkpt>
      <trkpt lat="39.865117" lon="-8.875031">
        <ele>6.1</ele>
        <time>1970-01-01T01:28:18.000Z</time>
      </trkpt>
      <trkpt lat="39.865076" lon="-8.87504">
        <ele>6.2</ele>
        <time>1970-01-01T01:28:19.000Z</time>
      </trkpt>
      <trkpt lat="39.865035" lon="-8.875049">
        <ele>6.2</ele>
        <time>1970-01-01T01:28:20.000Z</time>
      </trkpt>
      <trkpt lat="39.864995" lon="-8.875057">
        <ele>6.2</ele>
        <time>1970-01-01T01:28:21.000Z</time>
      </trkpt>
      <trkpt lat="39.864956" lon="-8.87506">
        <ele>6.2</ele>
        <time>1970-01-01T01:28:22.000Z</time>
      </trkpt>
      <trkpt lat="39.864921" lon="-8.875061">
        <ele>6.3</ele>
        <time>1970-01-01T01:28:23.000Z</time>
      </trkpt>
      <trkpt lat="39.864894" lon="-8.875063">
        <ele>6.3</ele>
        <time>1970-01-01T01:28:24.000Z</time>
      </trkpt>
      <trkpt lat="39.864874" lon="-8.875064">
        <ele>6.3</ele>
        <time>1970-01-01T01:28:25.000Z</time>
      </trkpt>
      <trkpt lat="39.86486" lon="-8.875067">
        <ele>6.3</ele>
        <time>1970-01-01T01:28:26.000Z</time>
      </trkpt>
      <trkpt lat="39.864825" lon="-8.875075">
        <ele>6.4</ele>
        <time>1970-01-01T01:28:28.000Z</time>
      </trkpt>
      <trkpt lat="39.864824" lon="-8.875075">
        <ele>6.4</ele>
        <time>1970-01-01T01:28:29.000Z</time>
      </trkpt>
      <trkpt lat="39.864821" lon="-8.875077">
        <ele>6.4</ele>
        <time>1970-01-01T01:28:34.000Z</time>
      </trkpt>
      <trkpt lat="39.864822" lon="-8.875077">
        <ele>6.4</ele>
        <time>1970-01-01T01:28:35.000Z</time>
      </trkpt>
      <trkpt lat="39.864822" lon="-8.875077">
        <ele>6.4</ele>
        <time>1970-01-01T01:28:36.000Z</time>
      </trkpt>
      <trkpt lat="39.864826" lon="-8.875078">
        <ele>6.4</ele>
        <time>1970-01-01T01:28:38.000Z</time>
      </trkpt>
      <trkpt lat="39.864818" lon="-8.87508">
        <ele>6.4</ele>
        <time>1970-01-01T01:28:44.000Z</time>
      </trkpt>
      <trkpt lat="39.864815" lon="-8.87508">
        <ele>6.4</ele>
        <time>1970-01-01T01:28:59.000Z</time>
      </trkpt>
      <trkpt lat="39.86481" lon="-8.875077">
        <ele>6.4</ele>
        <time>1970-01-01T01:29:00.000Z</time>
      </trkpt>
      <trkpt lat="39.864803" lon="-8.87507">
        <ele>6.4</ele>
        <time>1970-01-01T01:29:01.000Z</time>
      </trkpt>
      <trkpt lat="39.864776" lon="-8.875033">
        <ele>6.4</ele>
        <time>1970-01-01T01:29:02.000Z</time>
      </trkpt>
      <trkpt lat="39.864774" lon="-8.875029">
        <ele>6.4</ele>
        <time>1970-01-01T01:29:03.000Z</time>
      </trkpt>
      <trkpt lat="39.864768" lon="-8.875019">
        <ele>6.4</ele>
        <time>1970-01-01T01:29:04.000Z</time>
      </trkpt>
      <trkpt lat="39.864761" lon="-8.875005">
        <ele>6.4</ele>
        <time>1970-01-01T01:29:05.000Z</time>
      </trkpt>
      <trkpt lat="39.864753" lon="-8.874988">
        <ele>6.4</ele>
        <time>1970-01-01T01:29:06.000Z</time>
      </trkpt>
      <trkpt lat="39.864745" lon="-8.874966">
        <ele>6.4</ele>
        <time>1970-01-01T01:29:07.000Z</time>
      </trkpt>
      <trkpt lat="39.864736" lon="-8.87494">
        <ele>6.4</ele>
        <time>1970-01-01T01:29:08.000Z</time>
      </trkpt>
      <trkpt lat="39.864728" lon="-8.874912">
        <ele>6.4</ele>
        <time>1970-01-01T01:29:09.000Z</time>
      </trkpt>
      <trkpt lat="39.864721" lon="-8.874883">
        <ele>6.4</ele>
        <time>1970-01-01T01:29:10.000Z</time>
      </trkpt>
      <trkpt lat="39.864717" lon="-8.874852">
        <ele>6.4</ele>
        <time>1970-01-01T01:29:11.000Z</time>
      </trkpt>
      <trkpt lat="39.864711" lon="-8.874821">
        <ele>6.4</ele>
        <time>1970-01-01T01:29:12.000Z</time>
      </trkpt>
      <trkpt lat="39.864703" lon="-8.874788">
        <ele>6.4</ele>
        <time>1970-01-01T01:29:13.000Z</time>
      </trkpt>
      <trkpt lat="39.864694" lon="-8.874754">
        <ele>6.4</ele>
        <time>1970-01-01T01:29:14.000Z</time>
      </trkpt>
      <trkpt lat="39.864685" lon="-8.87472">
        <ele>6.4</ele>
        <time>1970-01-01T01:29:15.000Z</time>
      </trkpt>
      <trkpt lat="39.864676" lon="-8.874687">
        <ele>6.4</ele>
        <time>1970-01-01T01:29:16.000Z</time>
      </trkpt>
      <trkpt lat="39.864668" lon="-8.874656">
        <ele>6.4</ele>
        <time>1970-01-01T01:29:17.000Z</time>
      </trkpt>
      <trkpt lat="39.864659" lon="-8.874626">
        <ele>6.4</ele>
        <time>1970-01-01T01:29:18.000Z</time>
      </trkpt>
      <trkpt lat="39.86465" lon="-8.874597">
        <ele>6.4</ele>
        <time>1970-01-01T01:29:19.000Z</time>
      </trkpt>
      <trkpt lat="39.86464" lon="-8.874567">
        <ele>6.4</ele>
        <time>1970-01-01T01:29:20.000Z</time>
      </trkpt>
      <trkpt lat="39.86463" lon="-8.874537">
        <ele>6.4</ele>
        <time>1970-01-01T01:29:21.000Z</time>
      </trkpt>
      <trkpt lat="39.864621" lon="-8.874508">
        <ele>6.4</ele>
        <time>1970-01-01T01:29:22.000Z</time>
      </trkpt>
      <trkpt lat="39.864613" lon="-8.874478">
        <ele>6.5</ele>
        <time>1970-01-01T01:29:23.000Z</time>
      </trkpt>
      <trkpt lat="39.864604" lon="-8.874447">
        <ele>6.5</ele>
        <time>1970-01-01T01:29:24.000Z</time>
      </trkpt>
      <trkpt lat="39.864595" lon="-8.874415">
        <ele>6.5</ele>
        <time>1970-01-01T01:29:25.000Z</time>
      </trkpt>
      <trkpt lat="39.864587" lon="-8.874383">
        <ele>6.5</ele>
        <time>1970-01-01T01:29:26.000Z</time>
      </trkpt>
      <trkpt lat="39.864579" lon="-8.87435">
        <ele>6.5</ele>
        <time>1970-01-01T01:29:27.000Z</time>
      </trkpt>
      <trkpt lat="39.864572" lon="-8.874316">
        <ele>6.5</ele>
        <time>1970-01-01T01:29:28.000Z</time>
      </trkpt>
      <trkpt lat="39.864564" lon="-8.874284">
        <ele>6.5</ele>
        <time>1970-01-01T01:29:29.000Z</time>
      </trkpt>
      <trkpt lat="39.864556" lon="-8.87425">
        <ele>6.5</ele>
        <time>1970-01-01T01:29:30.000Z</time>
      </trkpt>
      <trkpt lat="39.864547" lon="-8.874216">
        <ele>6.5</ele>
        <time>1970-01-01T01:29:31.000Z</time>
      </trkpt>
      <trkpt lat="39.864538" lon="-8.874182">
        <ele>6.5</ele>
        <time>1970-01-01T01:29:32.000Z</time>
      </trkpt>
      <trkpt lat="39.864527" lon="-8.874144">
        <ele>6.5</ele>
        <time>1970-01-01T01:29:33.000Z</time>
      </trkpt>
      <trkpt lat="39.864516" lon="-8.874107">
        <ele>6.6</ele>
        <time>1970-01-01T01:29:34.000Z</time>
      </trkpt>
      <trkpt lat="39.864502" lon="-8.874066">
        <ele>6.6</ele>
        <time>1970-01-01T01:29:35.000Z</time>
      </trkpt>
      <trkpt lat="39.864488" lon="-8.874024">
        <ele>6.7</ele>
        <time>1970-01-01T01:29:36.000Z</time>
      </trkpt>
      <trkpt lat="39.864474" lon="-8.873984">
        <ele>6.7</ele>
        <time>1970-01-01T01:29:37.000Z</time>
      </trkpt>
      <trkpt lat="39.864461" lon="-8.873944">
        <ele>6.8</ele>
        <time>1970-01-01T01:29:38.000Z</time>
      </trkpt>
      <trkpt lat="39.864448" lon="-8.873908">
        <ele>6.9</ele>
        <time>1970-01-01T01:29:39.000Z</time>
      </trkpt>
      <trkpt lat="39.864434" lon="-8.873868">
        <ele>7</ele>
        <time>1970-01-01T01:29:40.000Z</time>
      </trkpt>
      <trkpt lat="39.864419" lon="-8.873821">
        <ele>7.2</ele>
        <time>1970-01-01T01:29:41.000Z</time>
      </trkpt>
      <trkpt lat="39.864408" lon="-8.873773">
        <ele>7.4</ele>
        <time>1970-01-01T01:29:42.000Z</time>
      </trkpt>
      <trkpt lat="39.864399" lon="-8.873726">
        <ele>7.6</ele>
        <time>1970-01-01T01:29:43.000Z</time>
      </trkpt>
      <trkpt lat="39.864389" lon="-8.873683">
        <ele>7.8</ele>
        <time>1970-01-01T01:29:44.000Z</time>
      </trkpt>
      <trkpt lat="39.864378" lon="-8.87364">
        <ele>8</ele>
        <time>1970-01-01T01:29:45.000Z</time>
      </trkpt>
      <trkpt lat="39.864369" lon="-8.8736">
        <ele>8.2</ele>
        <time>1970-01-01T01:29:46.000Z</time>
      </trkpt>
      <trkpt lat="39.864357" lon="-8.873562">
        <ele>8.4</ele>
        <time>1970-01-01T01:29:47.000Z</time>
      </trkpt>
      <trkpt lat="39.864347" lon="-8.873527">
        <ele>8.6</ele>
        <time>1970-01-01T01:29:48.000Z</time>
      </trkpt>
      <trkpt lat="39.864337" lon="-8.873494">
        <ele>8.8</ele>
        <time>1970-01-01T01:29:49.000Z</time>
      </trkpt>
      <trkpt lat="39.864327" lon="-8.873466">
        <ele>8.9</ele>
        <time>1970-01-01T01:29:50.000Z</time>
      </trkpt>
      <trkpt lat="39.864318" lon="-8.873438">
        <ele>9.1</ele>
        <time>1970-01-01T01:29:51.000Z</time>
      </trkpt>
      <trkpt lat="39.864307" lon="-8.873411">
        <ele>9.2</ele>
        <time>1970-01-01T01:29:52.000Z</time>
      </trkpt>
      <trkpt lat="39.864293" lon="-8.873388">
        <ele>9.4</ele>
        <time>1970-01-01T01:29:53.000Z</time>
      </trkpt>
      <trkpt lat="39.864276" lon="-8.87337">
        <ele>9.5</ele>
        <time>1970-01-01T01:29:54.000Z</time>
      </trkpt>
      <trkpt lat="39.864258" lon="-8.873359">
        <ele>9.7</ele>
        <time>1970-01-01T01:29:55.000Z</time>
      </trkpt>
      <trkpt lat="39.864236" lon="-8.873354">
        <ele>10</ele>
        <time>1970-01-01T01:29:56.000Z</time>
      </trkpt>
      <trkpt lat="39.864214" lon="-8.873355">
        <ele>10</ele>
        <time>1970-01-01T01:29:57.000Z</time>
      </trkpt>
      <trkpt lat="39.86419" lon="-8.87336">
        <ele>10.1</ele>
        <time>1970-01-01T01:29:58.000Z</time>
      </trkpt>
      <trkpt lat="39.864168" lon="-8.873366">
        <ele>10.1</ele>
        <time>1970-01-01T01:29:59.000Z</time>
      </trkpt>
      <trkpt lat="39.864142" lon="-8.873374">
        <ele>10.1</ele>
        <time>1970-01-01T01:30:00.000Z</time>
      </trkpt>
      <trkpt lat="39.864116" lon="-8.873382">
        <ele>10.2</ele>
        <time>1970-01-01T01:30:01.000Z</time>
      </trkpt>
      <trkpt lat="39.86409" lon="-8.873393">
        <ele>10.2</ele>
        <time>1970-01-01T01:30:02.000Z</time>
      </trkpt>
      <trkpt lat="39.864065" lon="-8.873404">
        <ele>10.2</ele>
        <time>1970-01-01T01:30:03.000Z</time>
      </trkpt>
      <trkpt lat="39.864043" lon="-8.873413">
        <ele>10.2</ele>
        <time>1970-01-01T01:30:04.000Z</time>
      </trkpt>
      <trkpt lat="39.864017" lon="-8.873422">
        <ele>10.2</ele>
        <time>1970-01-01T01:30:05.000Z</time>
      </trkpt>
      <trkpt lat="39.86399" lon="-8.873432">
        <ele>10.2</ele>
        <time>1970-01-01T01:30:06.000Z</time>
      </trkpt>
      <trkpt lat="39.863962" lon="-8.873441">
        <ele>10.2</ele>
        <time>1970-01-01T01:30:07.000Z</time>
      </trkpt>
      <trkpt lat="39.863933" lon="-8.87345">
        <ele>10.1</ele>
        <time>1970-01-01T01:30:08.000Z</time>
      </trkpt>
      <trkpt lat="39.863909" lon="-8.873459">
        <ele>10.1</ele>
        <time>1970-01-01T01:30:09.000Z</time>
      </trkpt>
      <trkpt lat="39.863885" lon="-8.873466">
        <ele>10.1</ele>
        <time>1970-01-01T01:30:10.000Z</time>
      </trkpt>
      <trkpt lat="39.863864" lon="-8.873466">
        <ele>10</ele>
        <time>1970-01-01T01:30:11.000Z</time>
      </trkpt>
      <trkpt lat="39.863843" lon="-8.873457">
        <ele>9.7</ele>
        <time>1970-01-01T01:30:12.000Z</time>
      </trkpt>
      <trkpt lat="39.863826" lon="-8.873437">
        <ele>9.6</ele>
        <time>1970-01-01T01:30:13.000Z</time>
      </trkpt>
      <trkpt lat="39.863813" lon="-8.873407">
        <ele>9.6</ele>
        <time>1970-01-01T01:30:14.000Z</time>
      </trkpt>
      <trkpt lat="39.8638" lon="-8.873369">
        <ele>9.5</ele>
        <time>1970-01-01T01:30:15.000Z</time>
      </trkpt>
      <trkpt lat="39.863789" lon="-8.873324">
        <ele>9.4</ele>
        <time>1970-01-01T01:30:16.000Z</time>
      </trkpt>
      <trkpt lat="39.863778" lon="-8.873277">
        <ele>9.3</ele>
        <time>1970-01-01T01:30:17.000Z</time>
      </trkpt>
      <trkpt lat="39.863768" lon="-8.873229">
        <ele>9.2</ele>
        <time>1970-01-01T01:30:18.000Z</time>
      </trkpt>
      <trkpt lat="39.863757" lon="-8.873179">
        <ele>9.2</ele>
        <time>1970-01-01T01:30:19.000Z</time>
      </trkpt>
      <trkpt lat="39.863746" lon="-8.87313">
        <ele>9.2</ele>
        <time>1970-01-01T01:30:20.000Z</time>
      </trkpt>
      <trkpt lat="39.863735" lon="-8.87308">
        <ele>9.1</ele>
        <time>1970-01-01T01:30:21.000Z</time>
      </trkpt>
      <trkpt lat="39.863722" lon="-8.87303">
        <ele>9.1</ele>
        <time>1970-01-01T01:30:22.000Z</time>
      </trkpt>
      <trkpt lat="39.86371" lon="-8.872979">
        <ele>9.1</ele>
        <time>1970-01-01T01:30:23.000Z</time>
      </trkpt>
      <trkpt lat="39.863696" lon="-8.872928">
        <ele>9.1</ele>
        <time>1970-01-01T01:30:24.000Z</time>
      </trkpt>
      <trkpt lat="39.863683" lon="-8.872875">
        <ele>9</ele>
        <time>1970-01-01T01:30:25.000Z</time>
      </trkpt>
      <trkpt lat="39.86367" lon="-8.872821">
        <ele>9</ele>
        <time>1970-01-01T01:30:26.000Z</time>
      </trkpt>
      <trkpt lat="39.863657" lon="-8.872764">
        <ele>9</ele>
        <time>1970-01-01T01:30:27.000Z</time>
      </trkpt>
      <trkpt lat="39.863642" lon="-8.872707">
        <ele>9</ele>
        <time>1970-01-01T01:30:28.000Z</time>
      </trkpt>
      <trkpt lat="39.863627" lon="-8.872649">
        <ele>9</ele>
        <time>1970-01-01T01:30:29.000Z</time>
      </trkpt>
      <trkpt lat="39.863611" lon="-8.872591">
        <ele>8.9</ele>
        <time>1970-01-01T01:30:30.000Z</time>
      </trkpt>
      <trkpt lat="39.863596" lon="-8.872535">
        <ele>8.9</ele>
        <time>1970-01-01T01:30:31.000Z</time>
      </trkpt>
      <trkpt lat="39.863581" lon="-8.872479">
        <ele>8.9</ele>
        <time>1970-01-01T01:30:32.000Z</time>
      </trkpt>
      <trkpt lat="39.863567" lon="-8.872423">
        <ele>8.9</ele>
        <time>1970-01-01T01:30:33.000Z</time>
      </trkpt>
      <trkpt lat="39.863553" lon="-8.872367">
        <ele>9</ele>
        <time>1970-01-01T01:30:34.000Z</time>
      </trkpt>
      <trkpt lat="39.86354" lon="-8.87231">
        <ele>9</ele>
        <time>1970-01-01T01:30:35.000Z</time>
      </trkpt>
      <trkpt lat="39.863528" lon="-8.872252">
        <ele>9</ele>
        <time>1970-01-01T01:30:36.000Z</time>
      </trkpt>
      <trkpt lat="39.863516" lon="-8.872194">
        <ele>9</ele>
        <time>1970-01-01T01:30:37.000Z</time>
      </trkpt>
      <trkpt lat="39.863504" lon="-8.872135">
        <ele>9</ele>
        <time>1970-01-01T01:30:38.000Z</time>
      </trkpt>
      <trkpt lat="39.863493" lon="-8.872076">
        <ele>9</ele>
        <time>1970-01-01T01:30:39.000Z</time>
      </trkpt>
      <trkpt lat="39.863481" lon="-8.872014">
        <ele>9</ele>
        <time>1970-01-01T01:30:40.000Z</time>
      </trkpt>
      <trkpt lat="39.86347" lon="-8.871956">
        <ele>9</ele>
        <time>1970-01-01T01:30:41.000Z</time>
      </trkpt>
      <trkpt lat="39.863459" lon="-8.871894">
        <ele>9</ele>
        <time>1970-01-01T01:30:42.000Z</time>
      </trkpt>
      <trkpt lat="39.863448" lon="-8.871834">
        <ele>9</ele>
        <time>1970-01-01T01:30:43.000Z</time>
      </trkpt>
      <trkpt lat="39.863439" lon="-8.871776">
        <ele>9</ele>
        <time>1970-01-01T01:30:44.000Z</time>
      </trkpt>
      <trkpt lat="39.863433" lon="-8.871719">
        <ele>9</ele>
        <time>1970-01-01T01:30:45.000Z</time>
      </trkpt>
      <trkpt lat="39.863425" lon="-8.871662">
        <ele>9</ele>
        <time>1970-01-01T01:30:46.000Z</time>
      </trkpt>
      <trkpt lat="39.863416" lon="-8.871603">
        <ele>9</ele>
        <time>1970-01-01T01:30:47.000Z</time>
      </trkpt>
      <trkpt lat="39.863407" lon="-8.871544">
        <ele>9</ele>
        <time>1970-01-01T01:30:48.000Z</time>
      </trkpt>
      <trkpt lat="39.863398" lon="-8.871485">
        <ele>9.1</ele>
        <time>1970-01-01T01:30:49.000Z</time>
      </trkpt>
      <trkpt lat="39.86339" lon="-8.871425">
        <ele>9.1</ele>
        <time>1970-01-01T01:30:50.000Z</time>
      </trkpt>
      <trkpt lat="39.863383" lon="-8.871366">
        <ele>9.1</ele>
        <time>1970-01-01T01:30:51.000Z</time>
      </trkpt>
      <trkpt lat="39.863377" lon="-8.871308">
        <ele>9.1</ele>
        <time>1970-01-01T01:30:52.000Z</time>
      </trkpt>
      <trkpt lat="39.86337" lon="-8.871251">
        <ele>9.2</ele>
        <time>1970-01-01T01:30:53.000Z</time>
      </trkpt>
      <trkpt lat="39.863363" lon="-8.871193">
        <ele>9.2</ele>
        <time>1970-01-01T01:30:54.000Z</time>
      </trkpt>
      <trkpt lat="39.863356" lon="-8.871136">
        <ele>9.2</ele>
        <time>1970-01-01T01:30:55.000Z</time>
      </trkpt>
      <trkpt lat="39.863349" lon="-8.871084">
        <ele>9.2</ele>
        <time>1970-01-01T01:30:56.000Z</time>
      </trkpt>
      <trkpt lat="39.863341" lon="-8.871028">
        <ele>9.2</ele>
        <time>1970-01-01T01:30:57.000Z</time>
      </trkpt>
      <trkpt lat="39.863333" lon="-8.870973">
        <ele>9.3</ele>
        <time>1970-01-01T01:30:58.000Z</time>
      </trkpt>
      <trkpt lat="39.863326" lon="-8.87092">
        <ele>9.3</ele>
        <time>1970-01-01T01:30:59.000Z</time>
      </trkpt>
      <trkpt lat="39.863319" lon="-8.870867">
        <ele>9.3</ele>
        <time>1970-01-01T01:31:00.000Z</time>
      </trkpt>
      <trkpt lat="39.863313" lon="-8.870813">
        <ele>9.3</ele>
        <time>1970-01-01T01:31:01.000Z</time>
      </trkpt>
      <trkpt lat="39.863305" lon="-8.870758">
        <ele>9.3</ele>
        <time>1970-01-01T01:31:02.000Z</time>
      </trkpt>
      <trkpt lat="39.863297" lon="-8.870704">
        <ele>9.3</ele>
        <time>1970-01-01T01:31:03.000Z</time>
      </trkpt>
      <trkpt lat="39.863289" lon="-8.87065">
        <ele>9.3</ele>
        <time>1970-01-01T01:31:04.000Z</time>
      </trkpt>
      <trkpt lat="39.863281" lon="-8.870596">
        <ele>9.3</ele>
        <time>1970-01-01T01:31:05.000Z</time>
      </trkpt>
      <trkpt lat="39.863274" lon="-8.870545">
        <ele>9.3</ele>
        <time>1970-01-01T01:31:06.000Z</time>
      </trkpt>
      <trkpt lat="39.863264" lon="-8.870489">
        <ele>9.4</ele>
        <time>1970-01-01T01:31:07.000Z</time>
      </trkpt>
      <trkpt lat="39.863255" lon="-8.870432">
        <ele>9.4</ele>
        <time>1970-01-01T01:31:08.000Z</time>
      </trkpt>
      <trkpt lat="39.863247" lon="-8.870376">
        <ele>9.4</ele>
        <time>1970-01-01T01:31:09.000Z</time>
      </trkpt>
      <trkpt lat="39.863239" lon="-8.870319">
        <ele>9.5</ele>
        <time>1970-01-01T01:31:10.000Z</time>
      </trkpt>
      <trkpt lat="39.863231" lon="-8.870262">
        <ele>9.5</ele>
        <time>1970-01-01T01:31:11.000Z</time>
      </trkpt>
      <trkpt lat="39.863223" lon="-8.870205">
        <ele>9.5</ele>
        <time>1970-01-01T01:31:12.000Z</time>
      </trkpt>
      <trkpt lat="39.863216" lon="-8.870147">
        <ele>9.5</ele>
        <time>1970-01-01T01:31:13.000Z</time>
      </trkpt>
      <trkpt lat="39.863209" lon="-8.870089">
        <ele>9.5</ele>
        <time>1970-01-01T01:31:14.000Z</time>
      </trkpt>
      <trkpt lat="39.863201" lon="-8.870031">
        <ele>9.5</ele>
        <time>1970-01-01T01:31:15.000Z</time>
      </trkpt>
      <trkpt lat="39.863192" lon="-8.86997">
        <ele>9.5</ele>
        <time>1970-01-01T01:31:16.000Z</time>
      </trkpt>
      <trkpt lat="39.863182" lon="-8.869906">
        <ele>9.5</ele>
        <time>1970-01-01T01:31:17.000Z</time>
      </trkpt>
      <trkpt lat="39.863173" lon="-8.869841">
        <ele>9.5</ele>
        <time>1970-01-01T01:31:18.000Z</time>
      </trkpt>
      <trkpt lat="39.863163" lon="-8.869775">
        <ele>9.6</ele>
        <time>1970-01-01T01:31:19.000Z</time>
      </trkpt>
      <trkpt lat="39.863153" lon="-8.869709">
        <ele>9.6</ele>
        <time>1970-01-01T01:31:20.000Z</time>
      </trkpt>
      <trkpt lat="39.863143" lon="-8.869645">
        <ele>9.6</ele>
        <time>1970-01-01T01:31:21.000Z</time>
      </trkpt>
      <trkpt lat="39.863133" lon="-8.869582">
        <ele>9.6</ele>
        <time>1970-01-01T01:31:22.000Z</time>
      </trkpt>
      <trkpt lat="39.863122" lon="-8.869517">
        <ele>9.5</ele>
        <time>1970-01-01T01:31:23.000Z</time>
      </trkpt>
      <trkpt lat="39.863111" lon="-8.869455">
        <ele>9.5</ele>
        <time>1970-01-01T01:31:24.000Z</time>
      </trkpt>
      <trkpt lat="39.863099" lon="-8.869392">
        <ele>9.5</ele>
        <time>1970-01-01T01:31:25.000Z</time>
      </trkpt>
      <trkpt lat="39.863086" lon="-8.869328">
        <ele>9.4</ele>
        <time>1970-01-01T01:31:26.000Z</time>
      </trkpt>
      <trkpt lat="39.86307" lon="-8.869264">
        <ele>9.4</ele>
        <time>1970-01-01T01:31:27.000Z</time>
      </trkpt>
      <trkpt lat="39.863056" lon="-8.869202">
        <ele>9.4</ele>
        <time>1970-01-01T01:31:28.000Z</time>
      </trkpt>
      <trkpt lat="39.863039" lon="-8.869145">
        <ele>9.4</ele>
        <time>1970-01-01T01:31:29.000Z</time>
      </trkpt>
      <trkpt lat="39.863021" lon="-8.86909">
        <ele>9.4</ele>
        <time>1970-01-01T01:31:30.000Z</time>
      </trkpt>
      <trkpt lat="39.863005" lon="-8.869034">
        <ele>9.4</ele>
        <time>1970-01-01T01:31:31.000Z</time>
      </trkpt>
      <trkpt lat="39.86299" lon="-8.868977">
        <ele>9.4</ele>
        <time>1970-01-01T01:31:32.000Z</time>
      </trkpt>
      <trkpt lat="39.862972" lon="-8.868919">
        <ele>9.4</ele>
        <time>1970-01-01T01:31:33.000Z</time>
      </trkpt>
      <trkpt lat="39.862953" lon="-8.868858">
        <ele>9.4</ele>
        <time>1970-01-01T01:31:34.000Z</time>
      </trkpt>
      <trkpt lat="39.862933" lon="-8.868794">
        <ele>9.4</ele>
        <time>1970-01-01T01:31:35.000Z</time>
      </trkpt>
      <trkpt lat="39.862912" lon="-8.86873">
        <ele>9.4</ele>
        <time>1970-01-01T01:31:36.000Z</time>
      </trkpt>
      <trkpt lat="39.862891" lon="-8.868668">
        <ele>9.5</ele>
        <time>1970-01-01T01:31:37.000Z</time>
      </trkpt>
      <trkpt lat="39.862871" lon="-8.868608">
        <ele>9.5</ele>
        <time>1970-01-01T01:31:38.000Z</time>
      </trkpt>
      <trkpt lat="39.86285" lon="-8.868547">
        <ele>9.5</ele>
        <time>1970-01-01T01:31:39.000Z</time>
      </trkpt>
      <trkpt lat="39.862828" lon="-8.868486">
        <ele>9.5</ele>
        <time>1970-01-01T01:31:40.000Z</time>
      </trkpt>
      <trkpt lat="39.862805" lon="-8.868424">
        <ele>9.5</ele>
        <time>1970-01-01T01:31:41.000Z</time>
      </trkpt>
      <trkpt lat="39.862782" lon="-8.86836">
        <ele>9.5</ele>
        <time>1970-01-01T01:31:42.000Z</time>
      </trkpt>
      <trkpt lat="39.862759" lon="-8.868296">
        <ele>9.5</ele>
        <time>1970-01-01T01:31:43.000Z</time>
      </trkpt>
      <trkpt lat="39.862735" lon="-8.86823">
        <ele>9.5</ele>
        <time>1970-01-01T01:31:44.000Z</time>
      </trkpt>
      <trkpt lat="39.862713" lon="-8.868165">
        <ele>9.5</ele>
        <time>1970-01-01T01:31:45.000Z</time>
      </trkpt>
      <trkpt lat="39.86269" lon="-8.868101">
        <ele>9.5</ele>
        <time>1970-01-01T01:31:46.000Z</time>
      </trkpt>
      <trkpt lat="39.862668" lon="-8.868035">
        <ele>9.5</ele>
        <time>1970-01-01T01:31:47.000Z</time>
      </trkpt>
      <trkpt lat="39.862645" lon="-8.867968">
        <ele>9.5</ele>
        <time>1970-01-01T01:31:48.000Z</time>
      </trkpt>
      <trkpt lat="39.862622" lon="-8.867902">
        <ele>9.5</ele>
        <time>1970-01-01T01:31:49.000Z</time>
      </trkpt>
      <trkpt lat="39.862599" lon="-8.867835">
        <ele>9.5</ele>
        <time>1970-01-01T01:31:50.000Z</time>
      </trkpt>
      <trkpt lat="39.862578" lon="-8.867773">
        <ele>9.5</ele>
        <time>1970-01-01T01:31:51.000Z</time>
      </trkpt>
      <trkpt lat="39.862558" lon="-8.867712">
        <ele>9.5</ele>
        <time>1970-01-01T01:31:52.000Z</time>
      </trkpt>
      <trkpt lat="39.862539" lon="-8.867652">
        <ele>9.5</ele>
        <time>1970-01-01T01:31:53.000Z</time>
      </trkpt>
      <trkpt lat="39.862519" lon="-8.86759">
        <ele>9.5</ele>
        <time>1970-01-01T01:31:54.000Z</time>
      </trkpt>
      <trkpt lat="39.862501" lon="-8.867527">
        <ele>9.6</ele>
        <time>1970-01-01T01:31:55.000Z</time>
      </trkpt>
      <trkpt lat="39.862483" lon="-8.867466">
        <ele>9.6</ele>
        <time>1970-01-01T01:31:56.000Z</time>
      </trkpt>
      <trkpt lat="39.862465" lon="-8.867402">
        <ele>9.6</ele>
        <time>1970-01-01T01:31:57.000Z</time>
      </trkpt>
      <trkpt lat="39.862447" lon="-8.867337">
        <ele>9.6</ele>
        <time>1970-01-01T01:31:58.000Z</time>
      </trkpt>
      <trkpt lat="39.862429" lon="-8.867271">
        <ele>9.6</ele>
        <time>1970-01-01T01:31:59.000Z</time>
      </trkpt>
      <trkpt lat="39.862412" lon="-8.867207">
        <ele>9.6</ele>
        <time>1970-01-01T01:32:00.000Z</time>
      </trkpt>
      <trkpt lat="39.862393" lon="-8.86714">
        <ele>9.6</ele>
        <time>1970-01-01T01:32:01.000Z</time>
      </trkpt>
      <trkpt lat="39.862376" lon="-8.867075">
        <ele>9.6</ele>
        <time>1970-01-01T01:32:02.000Z</time>
      </trkpt>
      <trkpt lat="39.862359" lon="-8.867009">
        <ele>9.6</ele>
        <time>1970-01-01T01:32:03.000Z</time>
      </trkpt>
      <trkpt lat="39.862343" lon="-8.866944">
        <ele>9.6</ele>
        <time>1970-01-01T01:32:04.000Z</time>
      </trkpt>
      <trkpt lat="39.862327" lon="-8.866879">
        <ele>9.6</ele>
        <time>1970-01-01T01:32:05.000Z</time>
      </trkpt>
      <trkpt lat="39.862312" lon="-8.866814">
        <ele>9.6</ele>
        <time>1970-01-01T01:32:06.000Z</time>
      </trkpt>
      <trkpt lat="39.862296" lon="-8.866749">
        <ele>9.6</ele>
        <time>1970-01-01T01:32:07.000Z</time>
      </trkpt>
      <trkpt lat="39.862281" lon="-8.866684">
        <ele>9.6</ele>
        <time>1970-01-01T01:32:08.000Z</time>
      </trkpt>
      <trkpt lat="39.862266" lon="-8.866619">
        <ele>9.6</ele>
        <time>1970-01-01T01:32:09.000Z</time>
      </trkpt>
      <trkpt lat="39.862253" lon="-8.866553">
        <ele>9.7</ele>
        <time>1970-01-01T01:32:10.000Z</time>
      </trkpt>
      <trkpt lat="39.862241" lon="-8.866486">
        <ele>9.7</ele>
        <time>1970-01-01T01:32:11.000Z</time>
      </trkpt>
      <trkpt lat="39.862228" lon="-8.866421">
        <ele>9.7</ele>
        <time>1970-01-01T01:32:12.000Z</time>
      </trkpt>
      <trkpt lat="39.862215" lon="-8.866355">
        <ele>9.7</ele>
        <time>1970-01-01T01:32:13.000Z</time>
      </trkpt>
      <trkpt lat="39.862202" lon="-8.866288">
        <ele>9.7</ele>
        <time>1970-01-01T01:32:14.000Z</time>
      </trkpt>
      <trkpt lat="39.862189" lon="-8.866221">
        <ele>9.7</ele>
        <time>1970-01-01T01:32:15.000Z</time>
      </trkpt>
      <trkpt lat="39.862177" lon="-8.866154">
        <ele>9.7</ele>
        <time>1970-01-01T01:32:16.000Z</time>
      </trkpt>
      <trkpt lat="39.862165" lon="-8.866086">
        <ele>9.8</ele>
        <time>1970-01-01T01:32:17.000Z</time>
      </trkpt>
      <trkpt lat="39.862152" lon="-8.866016">
        <ele>9.8</ele>
        <time>1970-01-01T01:32:18.000Z</time>
      </trkpt>
      <trkpt lat="39.862139" lon="-8.865945">
        <ele>9.8</ele>
        <time>1970-01-01T01:32:19.000Z</time>
      </trkpt>
      <trkpt lat="39.862127" lon="-8.865873">
        <ele>9.8</ele>
        <time>1970-01-01T01:32:20.000Z</time>
      </trkpt>
      <trkpt lat="39.862115" lon="-8.8658">
        <ele>9.8</ele>
        <time>1970-01-01T01:32:21.000Z</time>
      </trkpt>
      <trkpt lat="39.862103" lon="-8.865727">
        <ele>9.8</ele>
        <time>1970-01-01T01:32:22.000Z</time>
      </trkpt>
      <trkpt lat="39.862092" lon="-8.865658">
        <ele>9.8</ele>
        <time>1970-01-01T01:32:23.000Z</time>
      </trkpt>
      <trkpt lat="39.862083" lon="-8.865584">
        <ele>9.8</ele>
        <time>1970-01-01T01:32:24.000Z</time>
      </trkpt>
      <trkpt lat="39.862076" lon="-8.865511">
        <ele>9.8</ele>
        <time>1970-01-01T01:32:25.000Z</time>
      </trkpt>
      <trkpt lat="39.862071" lon="-8.865438">
        <ele>9.8</ele>
        <time>1970-01-01T01:32:26.000Z</time>
      </trkpt>
      <trkpt lat="39.862066" lon="-8.865365">
        <ele>9.8</ele>
        <time>1970-01-01T01:32:27.000Z</time>
      </trkpt>
      <trkpt lat="39.862063" lon="-8.865293">
        <ele>9.8</ele>
        <time>1970-01-01T01:32:28.000Z</time>
      </trkpt>
      <trkpt lat="39.862061" lon="-8.865221">
        <ele>9.9</ele>
        <time>1970-01-01T01:32:29.000Z</time>
      </trkpt>
      <trkpt lat="39.862059" lon="-8.865149">
        <ele>9.9</ele>
        <time>1970-01-01T01:32:30.000Z</time>
      </trkpt>
      <trkpt lat="39.862057" lon="-8.865076">
        <ele>9.9</ele>
        <time>1970-01-01T01:32:31.000Z</time>
      </trkpt>
      <trkpt lat="39.862056" lon="-8.865005">
        <ele>9.9</ele>
        <time>1970-01-01T01:32:32.000Z</time>
      </trkpt>
      <trkpt lat="39.862056" lon="-8.864933">
        <ele>9.9</ele>
        <time>1970-01-01T01:32:33.000Z</time>
      </trkpt>
      <trkpt lat="39.862055" lon="-8.864862">
        <ele>9.9</ele>
        <time>1970-01-01T01:32:34.000Z</time>
      </trkpt>
      <trkpt lat="39.862055" lon="-8.864789">
        <ele>9.9</ele>
        <time>1970-01-01T01:32:35.000Z</time>
      </trkpt>
      <trkpt lat="39.862055" lon="-8.864717">
        <ele>9.8</ele>
        <time>1970-01-01T01:32:36.000Z</time>
      </trkpt>
      <trkpt lat="39.862054" lon="-8.864647">
        <ele>9.8</ele>
        <time>1970-01-01T01:32:37.000Z</time>
      </trkpt>
      <trkpt lat="39.862053" lon="-8.864576">
        <ele>9.8</ele>
        <time>1970-01-01T01:32:38.000Z</time>
      </trkpt>
      <trkpt lat="39.862052" lon="-8.864504">
        <ele>9.8</ele>
        <time>1970-01-01T01:32:39.000Z</time>
      </trkpt>
      <trkpt lat="39.862051" lon="-8.864433">
        <ele>9.8</ele>
        <time>1970-01-01T01:32:40.000Z</time>
      </trkpt>
      <trkpt lat="39.862049" lon="-8.864361">
        <ele>9.9</ele>
        <time>1970-01-01T01:32:41.000Z</time>
      </trkpt>
      <trkpt lat="39.862048" lon="-8.864288">
        <ele>9.9</ele>
        <time>1970-01-01T01:32:42.000Z</time>
      </trkpt>
      <trkpt lat="39.862047" lon="-8.864215">
        <ele>9.9</ele>
        <time>1970-01-01T01:32:43.000Z</time>
      </trkpt>
      <trkpt lat="39.862045" lon="-8.864141">
        <ele>9.9</ele>
        <time>1970-01-01T01:32:44.000Z</time>
      </trkpt>
      <trkpt lat="39.862043" lon="-8.864068">
        <ele>10</ele>
        <time>1970-01-01T01:32:45.000Z</time>
      </trkpt>
      <trkpt lat="39.86204" lon="-8.863994">
        <ele>10</ele>
        <time>1970-01-01T01:32:46.000Z</time>
      </trkpt>
      <trkpt lat="39.862038" lon="-8.863921">
        <ele>10</ele>
        <time>1970-01-01T01:32:47.000Z</time>
      </trkpt>
      <trkpt lat="39.862035" lon="-8.863847">
        <ele>10</ele>
        <time>1970-01-01T01:32:48.000Z</time>
      </trkpt>
      <trkpt lat="39.862032" lon="-8.863774">
        <ele>10</ele>
        <time>1970-01-01T01:32:49.000Z</time>
      </trkpt>
      <trkpt lat="39.862028" lon="-8.863701">
        <ele>10</ele>
        <time>1970-01-01T01:32:50.000Z</time>
      </trkpt>
      <trkpt lat="39.862022" lon="-8.863627">
        <ele>10.1</ele>
        <time>1970-01-01T01:32:51.000Z</time>
      </trkpt>
      <trkpt lat="39.862016" lon="-8.863554">
        <ele>10.1</ele>
        <time>1970-01-01T01:32:52.000Z</time>
      </trkpt>
      <trkpt lat="39.862011" lon="-8.86348">
        <ele>10.1</ele>
        <time>1970-01-01T01:32:53.000Z</time>
      </trkpt>
      <trkpt lat="39.862004" lon="-8.863407">
        <ele>10.1</ele>
        <time>1970-01-01T01:32:54.000Z</time>
      </trkpt>
      <trkpt lat="39.861997" lon="-8.863336">
        <ele>10.1</ele>
        <time>1970-01-01T01:32:55.000Z</time>
      </trkpt>
      <trkpt lat="39.861989" lon="-8.863264">
        <ele>10.1</ele>
        <time>1970-01-01T01:32:56.000Z</time>
      </trkpt>
      <trkpt lat="39.861981" lon="-8.863192">
        <ele>10.2</ele>
        <time>1970-01-01T01:32:57.000Z</time>
      </trkpt>
      <trkpt lat="39.861973" lon="-8.863122">
        <ele>10.2</ele>
        <time>1970-01-01T01:32:58.000Z</time>
      </trkpt>
      <trkpt lat="39.861963" lon="-8.863053">
        <ele>10.2</ele>
        <time>1970-01-01T01:32:59.000Z</time>
      </trkpt>
      <trkpt lat="39.861954" lon="-8.862982">
        <ele>10.3</ele>
        <time>1970-01-01T01:33:00.000Z</time>
      </trkpt>
      <trkpt lat="39.861944" lon="-8.862912">
        <ele>10.3</ele>
        <time>1970-01-01T01:33:01.000Z</time>
      </trkpt>
      <trkpt lat="39.861933" lon="-8.862843">
        <ele>10.4</ele>
        <time>1970-01-01T01:33:02.000Z</time>
      </trkpt>
      <trkpt lat="39.86192" lon="-8.862774">
        <ele>10.5</ele>
        <time>1970-01-01T01:33:03.000Z</time>
      </trkpt>
      <trkpt lat="39.861907" lon="-8.862706">
        <ele>10.6</ele>
        <time>1970-01-01T01:33:04.000Z</time>
      </trkpt>
      <trkpt lat="39.861853" lon="-8.862427">
        <ele>10.7</ele>
        <time>1970-01-01T01:33:06.000Z</time>
      </trkpt>
      <trkpt lat="39.861849" lon="-8.862409">
        <ele>10.7</ele>
        <time>1970-01-01T01:33:07.000Z</time>
      </trkpt>
      <trkpt lat="39.861841" lon="-8.862374">
        <ele>10.7</ele>
        <time>1970-01-01T01:33:08.000Z</time>
      </trkpt>
      <trkpt lat="39.861831" lon="-8.862327">
        <ele>10.7</ele>
        <time>1970-01-01T01:33:09.000Z</time>
      </trkpt>
      <trkpt lat="39.861819" lon="-8.862273">
        <ele>10.7</ele>
        <time>1970-01-01T01:33:10.000Z</time>
      </trkpt>
      <trkpt lat="39.861805" lon="-8.862214">
        <ele>10.6</ele>
        <time>1970-01-01T01:33:11.000Z</time>
      </trkpt>
      <trkpt lat="39.86179" lon="-8.86215">
        <ele>10.6</ele>
        <time>1970-01-01T01:33:12.000Z</time>
      </trkpt>
      <trkpt lat="39.861773" lon="-8.862084">
        <ele>10.6</ele>
        <time>1970-01-01T01:33:13.000Z</time>
      </trkpt>
      <trkpt lat="39.861755" lon="-8.862017">
        <ele>10.6</ele>
        <time>1970-01-01T01:33:14.000Z</time>
      </trkpt>
      <trkpt lat="39.861736" lon="-8.86195">
        <ele>10.6</ele>
        <time>1970-01-01T01:33:15.000Z</time>
      </trkpt>
      <trkpt lat="39.861716" lon="-8.861884">
        <ele>10.6</ele>
        <time>1970-01-01T01:33:16.000Z</time>
      </trkpt>
      <trkpt lat="39.861696" lon="-8.861819">
        <ele>10.6</ele>
        <time>1970-01-01T01:33:17.000Z</time>
      </trkpt>
      <trkpt lat="39.861677" lon="-8.861754">
        <ele>10.6</ele>
        <time>1970-01-01T01:33:18.000Z</time>
      </trkpt>
      <trkpt lat="39.861657" lon="-8.861689">
        <ele>10.6</ele>
        <time>1970-01-01T01:33:19.000Z</time>
      </trkpt>
      <trkpt lat="39.861635" lon="-8.861625">
        <ele>10.6</ele>
        <time>1970-01-01T01:33:20.000Z</time>
      </trkpt>
      <trkpt lat="39.861614" lon="-8.86156">
        <ele>10.6</ele>
        <time>1970-01-01T01:33:21.000Z</time>
      </trkpt>
      <trkpt lat="39.861592" lon="-8.861493">
        <ele>10.6</ele>
        <time>1970-01-01T01:33:22.000Z</time>
      </trkpt>
      <trkpt lat="39.86157" lon="-8.861425">
        <ele>10.6</ele>
        <time>1970-01-01T01:33:23.000Z</time>
      </trkpt>
      <trkpt lat="39.861548" lon="-8.861357">
        <ele>10.6</ele>
        <time>1970-01-01T01:33:24.000Z</time>
      </trkpt>
      <trkpt lat="39.861525" lon="-8.861291">
        <ele>10.6</ele>
        <time>1970-01-01T01:33:25.000Z</time>
      </trkpt>
      <trkpt lat="39.861502" lon="-8.861226">
        <ele>10.6</ele>
        <time>1970-01-01T01:33:26.000Z</time>
      </trkpt>
      <trkpt lat="39.86148" lon="-8.861162">
        <ele>10.6</ele>
        <time>1970-01-01T01:33:27.000Z</time>
      </trkpt>
      <trkpt lat="39.861458" lon="-8.861099">
        <ele>10.6</ele>
        <time>1970-01-01T01:33:28.000Z</time>
      </trkpt>
      <trkpt lat="39.861436" lon="-8.861036">
        <ele>10.6</ele>
        <time>1970-01-01T01:33:29.000Z</time>
      </trkpt>
      <trkpt lat="39.861415" lon="-8.860974">
        <ele>10.6</ele>
        <time>1970-01-01T01:33:30.000Z</time>
      </trkpt>
      <trkpt lat="39.861394" lon="-8.860913">
        <ele>10.6</ele>
        <time>1970-01-01T01:33:31.000Z</time>
      </trkpt>
      <trkpt lat="39.861374" lon="-8.860854">
        <ele>10.6</ele>
        <time>1970-01-01T01:33:32.000Z</time>
      </trkpt>
      <trkpt lat="39.861354" lon="-8.860797">
        <ele>10.6</ele>
        <time>1970-01-01T01:33:33.000Z</time>
      </trkpt>
      <trkpt lat="39.861334" lon="-8.860742">
        <ele>10.6</ele>
        <time>1970-01-01T01:33:34.000Z</time>
      </trkpt>
      <trkpt lat="39.861316" lon="-8.860688">
        <ele>10.5</ele>
        <time>1970-01-01T01:33:35.000Z</time>
      </trkpt>
      <trkpt lat="39.861299" lon="-8.860634">
        <ele>10.5</ele>
        <time>1970-01-01T01:33:36.000Z</time>
      </trkpt>
      <trkpt lat="39.861282" lon="-8.860579">
        <ele>10.5</ele>
        <time>1970-01-01T01:33:37.000Z</time>
      </trkpt>
      <trkpt lat="39.861266" lon="-8.860526">
        <ele>10.5</ele>
        <time>1970-01-01T01:33:38.000Z</time>
      </trkpt>
      <trkpt lat="39.861248" lon="-8.860474">
        <ele>10.5</ele>
        <time>1970-01-01T01:33:39.000Z</time>
      </trkpt>
      <trkpt lat="39.86123" lon="-8.860423">
        <ele>10.5</ele>
        <time>1970-01-01T01:33:40.000Z</time>
      </trkpt>
      <trkpt lat="39.861212" lon="-8.86037">
        <ele>10.5</ele>
        <time>1970-01-01T01:33:41.000Z</time>
      </trkpt>
      <trkpt lat="39.861194" lon="-8.860317">
        <ele>10.6</ele>
        <time>1970-01-01T01:33:42.000Z</time>
      </trkpt>
      <trkpt lat="39.861176" lon="-8.860266">
        <ele>10.6</ele>
        <time>1970-01-01T01:33:43.000Z</time>
      </trkpt>
      <trkpt lat="39.861159" lon="-8.860217">
        <ele>10.6</ele>
        <time>1970-01-01T01:33:44.000Z</time>
      </trkpt>
      <trkpt lat="39.86114" lon="-8.860167">
        <ele>10.6</ele>
        <time>1970-01-01T01:33:45.000Z</time>
      </trkpt>
      <trkpt lat="39.861121" lon="-8.860117">
        <ele>10.6</ele>
        <time>1970-01-01T01:33:46.000Z</time>
      </trkpt>
      <trkpt lat="39.861102" lon="-8.860066">
        <ele>10.6</ele>
        <time>1970-01-01T01:33:47.000Z</time>
      </trkpt>
      <trkpt lat="39.861082" lon="-8.860014">
        <ele>10.7</ele>
        <time>1970-01-01T01:33:48.000Z</time>
      </trkpt>
      <trkpt lat="39.861062" lon="-8.859962">
        <ele>10.7</ele>
        <time>1970-01-01T01:33:49.000Z</time>
      </trkpt>
      <trkpt lat="39.86104" lon="-8.859908">
        <ele>10.7</ele>
        <time>1970-01-01T01:33:50.000Z</time>
      </trkpt>
      <trkpt lat="39.861021" lon="-8.859856">
        <ele>10.7</ele>
        <time>1970-01-01T01:33:51.000Z</time>
      </trkpt>
      <trkpt lat="39.861" lon="-8.859798">
        <ele>10.7</ele>
        <time>1970-01-01T01:33:52.000Z</time>
      </trkpt>
      <trkpt lat="39.860978" lon="-8.85974">
        <ele>10.7</ele>
        <time>1970-01-01T01:33:53.000Z</time>
      </trkpt>
      <trkpt lat="39.860955" lon="-8.859683">
        <ele>10.7</ele>
        <time>1970-01-01T01:33:54.000Z</time>
      </trkpt>
      <trkpt lat="39.860933" lon="-8.859625">
        <ele>10.7</ele>
        <time>1970-01-01T01:33:55.000Z</time>
      </trkpt>
      <trkpt lat="39.860913" lon="-8.85957">
        <ele>10.7</ele>
        <time>1970-01-01T01:33:56.000Z</time>
      </trkpt>
      <trkpt lat="39.860893" lon="-8.859513">
        <ele>10.7</ele>
        <time>1970-01-01T01:33:57.000Z</time>
      </trkpt>
      <trkpt lat="39.86087" lon="-8.859451">
        <ele>10.7</ele>
        <time>1970-01-01T01:33:58.000Z</time>
      </trkpt>
      <trkpt lat="39.860848" lon="-8.85939">
        <ele>10.7</ele>
        <time>1970-01-01T01:33:59.000Z</time>
      </trkpt>
      <trkpt lat="39.860826" lon="-8.859329">
        <ele>10.7</ele>
        <time>1970-01-01T01:34:00.000Z</time>
      </trkpt>
      <trkpt lat="39.860804" lon="-8.859266">
        <ele>10.7</ele>
        <time>1970-01-01T01:34:01.000Z</time>
      </trkpt>
      <trkpt lat="39.860781" lon="-8.859204">
        <ele>10.7</ele>
        <time>1970-01-01T01:34:02.000Z</time>
      </trkpt>
      <trkpt lat="39.860759" lon="-8.859146">
        <ele>10.7</ele>
        <time>1970-01-01T01:34:03.000Z</time>
      </trkpt>
      <trkpt lat="39.860738" lon="-8.85909">
        <ele>10.7</ele>
        <time>1970-01-01T01:34:04.000Z</time>
      </trkpt>
      <trkpt lat="39.860716" lon="-8.859037">
        <ele>10.7</ele>
        <time>1970-01-01T01:34:05.000Z</time>
      </trkpt>
      <trkpt lat="39.860695" lon="-8.858987">
        <ele>10.7</ele>
        <time>1970-01-01T01:34:06.000Z</time>
      </trkpt>
      <trkpt lat="39.860675" lon="-8.858933">
        <ele>10.7</ele>
        <time>1970-01-01T01:34:07.000Z</time>
      </trkpt>
      <trkpt lat="39.860652" lon="-8.858873">
        <ele>10.7</ele>
        <time>1970-01-01T01:34:08.000Z</time>
      </trkpt>
      <trkpt lat="39.860628" lon="-8.858811">
        <ele>10.7</ele>
        <time>1970-01-01T01:34:09.000Z</time>
      </trkpt>
      <trkpt lat="39.860604" lon="-8.858748">
        <ele>10.7</ele>
        <time>1970-01-01T01:34:10.000Z</time>
      </trkpt>
      <trkpt lat="39.860578" lon="-8.858687">
        <ele>10.7</ele>
        <time>1970-01-01T01:34:11.000Z</time>
      </trkpt>
      <trkpt lat="39.860551" lon="-8.858628">
        <ele>10.7</ele>
        <time>1970-01-01T01:34:12.000Z</time>
      </trkpt>
      <trkpt lat="39.860525" lon="-8.858569">
        <ele>10.7</ele>
        <time>1970-01-01T01:34:13.000Z</time>
      </trkpt>
      <trkpt lat="39.860498" lon="-8.858511">
        <ele>10.7</ele>
        <time>1970-01-01T01:34:14.000Z</time>
      </trkpt>
      <trkpt lat="39.860471" lon="-8.858453">
        <ele>10.7</ele>
        <time>1970-01-01T01:34:15.000Z</time>
      </trkpt>
      <trkpt lat="39.860444" lon="-8.858395">
        <ele>10.7</ele>
        <time>1970-01-01T01:34:16.000Z</time>
      </trkpt>
      <trkpt lat="39.860417" lon="-8.858337">
        <ele>10.7</ele>
        <time>1970-01-01T01:34:17.000Z</time>
      </trkpt>
      <trkpt lat="39.86039" lon="-8.85828">
        <ele>10.7</ele>
        <time>1970-01-01T01:34:18.000Z</time>
      </trkpt>
      <trkpt lat="39.860364" lon="-8.858224">
        <ele>10.7</ele>
        <time>1970-01-01T01:34:19.000Z</time>
      </trkpt>
      <trkpt lat="39.860338" lon="-8.858169">
        <ele>10.6</ele>
        <time>1970-01-01T01:34:20.000Z</time>
      </trkpt>
      <trkpt lat="39.860313" lon="-8.858119">
        <ele>10.6</ele>
        <time>1970-01-01T01:34:21.000Z</time>
      </trkpt>
      <trkpt lat="39.860286" lon="-8.858066">
        <ele>10.6</ele>
        <time>1970-01-01T01:34:22.000Z</time>
      </trkpt>
      <trkpt lat="39.860259" lon="-8.858013">
        <ele>10.6</ele>
        <time>1970-01-01T01:34:23.000Z</time>
      </trkpt>
      <trkpt lat="39.860232" lon="-8.857959">
        <ele>10.6</ele>
        <time>1970-01-01T01:34:24.000Z</time>
      </trkpt>
      <trkpt lat="39.860203" lon="-8.857904">
        <ele>10.6</ele>
        <time>1970-01-01T01:34:25.000Z</time>
      </trkpt>
      <trkpt lat="39.860175" lon="-8.857848">
        <ele>10.6</ele>
        <time>1970-01-01T01:34:26.000Z</time>
      </trkpt>
      <trkpt lat="39.860146" lon="-8.857791">
        <ele>10.6</ele>
        <time>1970-01-01T01:34:27.000Z</time>
      </trkpt>
      <trkpt lat="39.860117" lon="-8.857736">
        <ele>10.6</ele>
        <time>1970-01-01T01:34:28.000Z</time>
      </trkpt>
      <trkpt lat="39.860089" lon="-8.857681">
        <ele>10.5</ele>
        <time>1970-01-01T01:34:29.000Z</time>
      </trkpt>
      <trkpt lat="39.860062" lon="-8.857628">
        <ele>10.5</ele>
        <time>1970-01-01T01:34:30.000Z</time>
      </trkpt>
      <trkpt lat="39.860034" lon="-8.857575">
        <ele>10.5</ele>
        <time>1970-01-01T01:34:31.000Z</time>
      </trkpt>
      <trkpt lat="39.860005" lon="-8.857521">
        <ele>10.5</ele>
        <time>1970-01-01T01:34:32.000Z</time>
      </trkpt>
      <trkpt lat="39.859978" lon="-8.857467">
        <ele>10.5</ele>
        <time>1970-01-01T01:34:33.000Z</time>
      </trkpt>
      <trkpt lat="39.859951" lon="-8.857415">
        <ele>10.5</ele>
        <time>1970-01-01T01:34:34.000Z</time>
      </trkpt>
      <trkpt lat="39.859925" lon="-8.857364">
        <ele>10.5</ele>
        <time>1970-01-01T01:34:35.000Z</time>
      </trkpt>
      <trkpt lat="39.859899" lon="-8.857314">
        <ele>10.5</ele>
        <time>1970-01-01T01:34:36.000Z</time>
      </trkpt>
      <trkpt lat="39.859873" lon="-8.857265">
        <ele>10.5</ele>
        <time>1970-01-01T01:34:37.000Z</time>
      </trkpt>
      <trkpt lat="39.859847" lon="-8.857216">
        <ele>10.5</ele>
        <time>1970-01-01T01:34:38.000Z</time>
      </trkpt>
      <trkpt lat="39.859818" lon="-8.857167">
        <ele>10.5</ele>
        <time>1970-01-01T01:34:39.000Z</time>
      </trkpt>
      <trkpt lat="39.859788" lon="-8.857117">
        <ele>10.5</ele>
        <time>1970-01-01T01:34:40.000Z</time>
      </trkpt>
      <trkpt lat="39.859758" lon="-8.857066">
        <ele>10.5</ele>
        <time>1970-01-01T01:34:41.000Z</time>
      </trkpt>
      <trkpt lat="39.859728" lon="-8.857015">
        <ele>10.5</ele>
        <time>1970-01-01T01:34:42.000Z</time>
      </trkpt>
      <trkpt lat="39.859698" lon="-8.856965">
        <ele>10.5</ele>
        <time>1970-01-01T01:34:43.000Z</time>
      </trkpt>
      <trkpt lat="39.859667" lon="-8.856917">
        <ele>10.5</ele>
        <time>1970-01-01T01:34:44.000Z</time>
      </trkpt>
      <trkpt lat="39.859637" lon="-8.856874">
        <ele>10.5</ele>
        <time>1970-01-01T01:34:45.000Z</time>
      </trkpt>
      <trkpt lat="39.859606" lon="-8.856827">
        <ele>10.5</ele>
        <time>1970-01-01T01:34:46.000Z</time>
      </trkpt>
      <trkpt lat="39.859573" lon="-8.85678">
        <ele>10.5</ele>
        <time>1970-01-01T01:34:47.000Z</time>
      </trkpt>
      <trkpt lat="39.859538" lon="-8.856734">
        <ele>10.5</ele>
        <time>1970-01-01T01:34:48.000Z</time>
      </trkpt>
      <trkpt lat="39.859502" lon="-8.856687">
        <ele>10.5</ele>
        <time>1970-01-01T01:34:49.000Z</time>
      </trkpt>
      <trkpt lat="39.859466" lon="-8.85664">
        <ele>10.5</ele>
        <time>1970-01-01T01:34:50.000Z</time>
      </trkpt>
      <trkpt lat="39.859431" lon="-8.85659">
        <ele>10.5</ele>
        <time>1970-01-01T01:34:51.000Z</time>
      </trkpt>
      <trkpt lat="39.859393" lon="-8.856539">
        <ele>10.5</ele>
        <time>1970-01-01T01:34:52.000Z</time>
      </trkpt>
      <trkpt lat="39.859354" lon="-8.856489">
        <ele>10.5</ele>
        <time>1970-01-01T01:34:53.000Z</time>
      </trkpt>
      <trkpt lat="39.859317" lon="-8.856443">
        <ele>10.5</ele>
        <time>1970-01-01T01:34:54.000Z</time>
      </trkpt>
      <trkpt lat="39.859278" lon="-8.856393">
        <ele>10.5</ele>
        <time>1970-01-01T01:34:55.000Z</time>
      </trkpt>
      <trkpt lat="39.85924" lon="-8.856347">
        <ele>10.5</ele>
        <time>1970-01-01T01:34:56.000Z</time>
      </trkpt>
      <trkpt lat="39.859202" lon="-8.856301">
        <ele>10.5</ele>
        <time>1970-01-01T01:34:57.000Z</time>
      </trkpt>
      <trkpt lat="39.859166" lon="-8.856258">
        <ele>10.5</ele>
        <time>1970-01-01T01:34:58.000Z</time>
      </trkpt>
      <trkpt lat="39.859131" lon="-8.856217">
        <ele>10.5</ele>
        <time>1970-01-01T01:34:59.000Z</time>
      </trkpt>
      <trkpt lat="39.859096" lon="-8.856176">
        <ele>10.5</ele>
        <time>1970-01-01T01:35:00.000Z</time>
      </trkpt>
      <trkpt lat="39.859061" lon="-8.856135">
        <ele>10.5</ele>
        <time>1970-01-01T01:35:01.000Z</time>
      </trkpt>
      <trkpt lat="39.859026" lon="-8.856092">
        <ele>10.5</ele>
        <time>1970-01-01T01:35:02.000Z</time>
      </trkpt>
      <trkpt lat="39.858991" lon="-8.856051">
        <ele>10.5</ele>
        <time>1970-01-01T01:35:03.000Z</time>
      </trkpt>
      <trkpt lat="39.858955" lon="-8.856011">
        <ele>10.5</ele>
        <time>1970-01-01T01:35:04.000Z</time>
      </trkpt>
      <trkpt lat="39.858919" lon="-8.855972">
        <ele>10.5</ele>
        <time>1970-01-01T01:35:05.000Z</time>
      </trkpt>
      <trkpt lat="39.858884" lon="-8.855935">
        <ele>10.5</ele>
        <time>1970-01-01T01:35:06.000Z</time>
      </trkpt>
      <trkpt lat="39.858849" lon="-8.855897">
        <ele>10.5</ele>
        <time>1970-01-01T01:35:07.000Z</time>
      </trkpt>
      <trkpt lat="39.858814" lon="-8.85586">
        <ele>10.5</ele>
        <time>1970-01-01T01:35:08.000Z</time>
      </trkpt>
      <trkpt lat="39.858777" lon="-8.855822">
        <ele>10.5</ele>
        <time>1970-01-01T01:35:09.000Z</time>
      </trkpt>
      <trkpt lat="39.85874" lon="-8.855783">
        <ele>10.5</ele>
        <time>1970-01-01T01:35:10.000Z</time>
      </trkpt>
      <trkpt lat="39.858702" lon="-8.855743">
        <ele>10.5</ele>
        <time>1970-01-01T01:35:11.000Z</time>
      </trkpt>
      <trkpt lat="39.858664" lon="-8.855704">
        <ele>10.5</ele>
        <time>1970-01-01T01:35:12.000Z</time>
      </trkpt>
      <trkpt lat="39.858626" lon="-8.855665">
        <ele>10.5</ele>
        <time>1970-01-01T01:35:13.000Z</time>
      </trkpt>
      <trkpt lat="39.858589" lon="-8.855627">
        <ele>10.6</ele>
        <time>1970-01-01T01:35:14.000Z</time>
      </trkpt>
      <trkpt lat="39.858552" lon="-8.85559">
        <ele>10.6</ele>
        <time>1970-01-01T01:35:15.000Z</time>
      </trkpt>
      <trkpt lat="39.858515" lon="-8.855554">
        <ele>10.6</ele>
        <time>1970-01-01T01:35:16.000Z</time>
      </trkpt>
      <trkpt lat="39.85848" lon="-8.855517">
        <ele>10.6</ele>
        <time>1970-01-01T01:35:17.000Z</time>
      </trkpt>
      <trkpt lat="39.858445" lon="-8.85548">
        <ele>10.6</ele>
        <time>1970-01-01T01:35:18.000Z</time>
      </trkpt>
      <trkpt lat="39.858412" lon="-8.855443">
        <ele>10.6</ele>
        <time>1970-01-01T01:35:19.000Z</time>
      </trkpt>
      <trkpt lat="39.858379" lon="-8.855408">
        <ele>10.6</ele>
        <time>1970-01-01T01:35:20.000Z</time>
      </trkpt>
      <trkpt lat="39.858346" lon="-8.855372">
        <ele>10.6</ele>
        <time>1970-01-01T01:35:21.000Z</time>
      </trkpt>
      <trkpt lat="39.858313" lon="-8.855337">
        <ele>10.6</ele>
        <time>1970-01-01T01:35:22.000Z</time>
      </trkpt>
      <trkpt lat="39.858278" lon="-8.8553">
        <ele>10.6</ele>
        <time>1970-01-01T01:35:23.000Z</time>
      </trkpt>
      <trkpt lat="39.858243" lon="-8.855263">
        <ele>10.6</ele>
        <time>1970-01-01T01:35:24.000Z</time>
      </trkpt>
      <trkpt lat="39.858208" lon="-8.855226">
        <ele>10.6</ele>
        <time>1970-01-01T01:35:25.000Z</time>
      </trkpt>
      <trkpt lat="39.858172" lon="-8.85519">
        <ele>10.6</ele>
        <time>1970-01-01T01:35:26.000Z</time>
      </trkpt>
      <trkpt lat="39.858137" lon="-8.855155">
        <ele>10.6</ele>
        <time>1970-01-01T01:35:27.000Z</time>
      </trkpt>
      <trkpt lat="39.858103" lon="-8.855119">
        <ele>10.6</ele>
        <time>1970-01-01T01:35:28.000Z</time>
      </trkpt>
      <trkpt lat="39.85807" lon="-8.855085">
        <ele>10.6</ele>
        <time>1970-01-01T01:35:29.000Z</time>
      </trkpt>
      <trkpt lat="39.858036" lon="-8.855053">
        <ele>10.7</ele>
        <time>1970-01-01T01:35:30.000Z</time>
      </trkpt>
      <trkpt lat="39.858002" lon="-8.855023">
        <ele>10.7</ele>
        <time>1970-01-01T01:35:31.000Z</time>
      </trkpt>
      <trkpt lat="39.857968" lon="-8.854995">
        <ele>10.7</ele>
        <time>1970-01-01T01:35:32.000Z</time>
      </trkpt>
      <trkpt lat="39.857933" lon="-8.854966">
        <ele>10.7</ele>
        <time>1970-01-01T01:35:33.000Z</time>
      </trkpt>
      <trkpt lat="39.857897" lon="-8.854936">
        <ele>10.7</ele>
        <time>1970-01-01T01:35:34.000Z</time>
      </trkpt>
      <trkpt lat="39.857861" lon="-8.854904">
        <ele>10.7</ele>
        <time>1970-01-01T01:35:35.000Z</time>
      </trkpt>
      <trkpt lat="39.857822" lon="-8.854871">
        <ele>10.7</ele>
        <time>1970-01-01T01:35:36.000Z</time>
      </trkpt>
      <trkpt lat="39.857781" lon="-8.854838">
        <ele>10.7</ele>
        <time>1970-01-01T01:35:37.000Z</time>
      </trkpt>
      <trkpt lat="39.857739" lon="-8.854807">
        <ele>10.7</ele>
        <time>1970-01-01T01:35:38.000Z</time>
      </trkpt>
      <trkpt lat="39.857699" lon="-8.854777">
        <ele>10.7</ele>
        <time>1970-01-01T01:35:39.000Z</time>
      </trkpt>
      <trkpt lat="39.857661" lon="-8.85475">
        <ele>10.7</ele>
        <time>1970-01-01T01:35:40.000Z</time>
      </trkpt>
      <trkpt lat="39.857623" lon="-8.854722">
        <ele>10.7</ele>
        <time>1970-01-01T01:35:41.000Z</time>
      </trkpt>
      <trkpt lat="39.857588" lon="-8.854695">
        <ele>10.7</ele>
        <time>1970-01-01T01:35:42.000Z</time>
      </trkpt>
      <trkpt lat="39.857555" lon="-8.854669">
        <ele>10.7</ele>
        <time>1970-01-01T01:35:43.000Z</time>
      </trkpt>
      <trkpt lat="39.857522" lon="-8.854641">
        <ele>10.7</ele>
        <time>1970-01-01T01:35:44.000Z</time>
      </trkpt>
      <trkpt lat="39.857485" lon="-8.854612">
        <ele>10.7</ele>
        <time>1970-01-01T01:35:45.000Z</time>
      </trkpt>
      <trkpt lat="39.857449" lon="-8.854584">
        <ele>10.7</ele>
        <time>1970-01-01T01:35:46.000Z</time>
      </trkpt>
      <trkpt lat="39.857414" lon="-8.854559">
        <ele>10.7</ele>
        <time>1970-01-01T01:35:47.000Z</time>
      </trkpt>
      <trkpt lat="39.857378" lon="-8.854534">
        <ele>10.7</ele>
        <time>1970-01-01T01:35:48.000Z</time>
      </trkpt>
      <trkpt lat="39.857339" lon="-8.854509">
        <ele>10.7</ele>
        <time>1970-01-01T01:35:49.000Z</time>
      </trkpt>
      <trkpt lat="39.857299" lon="-8.854484">
        <ele>10.7</ele>
        <time>1970-01-01T01:35:50.000Z</time>
      </trkpt>
      <trkpt lat="39.857259" lon="-8.854458">
        <ele>10.6</ele>
        <time>1970-01-01T01:35:51.000Z</time>
      </trkpt>
      <trkpt lat="39.85722" lon="-8.854434">
        <ele>10.6</ele>
        <time>1970-01-01T01:35:52.000Z</time>
      </trkpt>
      <trkpt lat="39.85718" lon="-8.854411">
        <ele>10.6</ele>
        <time>1970-01-01T01:35:53.000Z</time>
      </trkpt>
      <trkpt lat="39.85714" lon="-8.854389">
        <ele>10.6</ele>
        <time>1970-01-01T01:35:54.000Z</time>
      </trkpt>
      <trkpt lat="39.857099" lon="-8.854367">
        <ele>10.6</ele>
        <time>1970-01-01T01:35:55.000Z</time>
      </trkpt>
      <trkpt lat="39.857058" lon="-8.854344">
        <ele>10.6</ele>
        <time>1970-01-01T01:35:56.000Z</time>
      </trkpt>
      <trkpt lat="39.857017" lon="-8.854324">
        <ele>10.6</ele>
        <time>1970-01-01T01:35:57.000Z</time>
      </trkpt>
      <trkpt lat="39.856978" lon="-8.854304">
        <ele>10.6</ele>
        <time>1970-01-01T01:35:58.000Z</time>
      </trkpt>
      <trkpt lat="39.856938" lon="-8.854285">
        <ele>10.7</ele>
        <time>1970-01-01T01:35:59.000Z</time>
      </trkpt>
      <trkpt lat="39.856897" lon="-8.854264">
        <ele>10.7</ele>
        <time>1970-01-01T01:36:00.000Z</time>
      </trkpt>
      <trkpt lat="39.856855" lon="-8.854244">
        <ele>10.7</ele>
        <time>1970-01-01T01:36:01.000Z</time>
      </trkpt>
      <trkpt lat="39.856811" lon="-8.854223">
        <ele>10.7</ele>
        <time>1970-01-01T01:36:02.000Z</time>
      </trkpt>
      <trkpt lat="39.856769" lon="-8.854203">
        <ele>10.7</ele>
        <time>1970-01-01T01:36:03.000Z</time>
      </trkpt>
      <trkpt lat="39.856722" lon="-8.854182">
        <ele>10.7</ele>
        <time>1970-01-01T01:36:04.000Z</time>
      </trkpt>
      <trkpt lat="39.856675" lon="-8.854162">
        <ele>10.7</ele>
        <time>1970-01-01T01:36:05.000Z</time>
      </trkpt>
      <trkpt lat="39.856628" lon="-8.854144">
        <ele>10.7</ele>
        <time>1970-01-01T01:36:06.000Z</time>
      </trkpt>
      <trkpt lat="39.856584" lon="-8.854127">
        <ele>10.7</ele>
        <time>1970-01-01T01:36:07.000Z</time>
      </trkpt>
      <trkpt lat="39.856536" lon="-8.854108">
        <ele>10.7</ele>
        <time>1970-01-01T01:36:08.000Z</time>
      </trkpt>
      <trkpt lat="39.856488" lon="-8.854089">
        <ele>10.7</ele>
        <time>1970-01-01T01:36:09.000Z</time>
      </trkpt>
      <trkpt lat="39.856439" lon="-8.85407">
        <ele>10.7</ele>
        <time>1970-01-01T01:36:10.000Z</time>
      </trkpt>
      <trkpt lat="39.85639" lon="-8.85405">
        <ele>10.7</ele>
        <time>1970-01-01T01:36:11.000Z</time>
      </trkpt>
      <trkpt lat="39.856342" lon="-8.85403">
        <ele>10.7</ele>
        <time>1970-01-01T01:36:12.000Z</time>
      </trkpt>
      <trkpt lat="39.856287" lon="-8.854007">
        <ele>10.7</ele>
        <time>1970-01-01T01:36:13.000Z</time>
      </trkpt>
      <trkpt lat="39.856234" lon="-8.853984">
        <ele>10.7</ele>
        <time>1970-01-01T01:36:14.000Z</time>
      </trkpt>
      <trkpt lat="39.856182" lon="-8.853961">
        <ele>10.6</ele>
        <time>1970-01-01T01:36:15.000Z</time>
      </trkpt>
      <trkpt lat="39.856132" lon="-8.853939">
        <ele>10.6</ele>
        <time>1970-01-01T01:36:16.000Z</time>
      </trkpt>
      <trkpt lat="39.856081" lon="-8.853918">
        <ele>10.6</ele>
        <time>1970-01-01T01:36:17.000Z</time>
      </trkpt>
      <trkpt lat="39.856031" lon="-8.853897">
        <ele>10.6</ele>
        <time>1970-01-01T01:36:18.000Z</time>
      </trkpt>
      <trkpt lat="39.855982" lon="-8.853876">
        <ele>10.6</ele>
        <time>1970-01-01T01:36:19.000Z</time>
      </trkpt>
      <trkpt lat="39.855933" lon="-8.853855">
        <ele>10.6</ele>
        <time>1970-01-01T01:36:20.000Z</time>
      </trkpt>
      <trkpt lat="39.855886" lon="-8.853834">
        <ele>10.7</ele>
        <time>1970-01-01T01:36:21.000Z</time>
      </trkpt>
      <trkpt lat="39.855839" lon="-8.853813">
        <ele>10.7</ele>
        <time>1970-01-01T01:36:22.000Z</time>
      </trkpt>
      <trkpt lat="39.855791" lon="-8.853792">
        <ele>10.7</ele>
        <time>1970-01-01T01:36:23.000Z</time>
      </trkpt>
      <trkpt lat="39.855742" lon="-8.853771">
        <ele>10.7</ele>
        <time>1970-01-01T01:36:24.000Z</time>
      </trkpt>
      <trkpt lat="39.855691" lon="-8.85375">
        <ele>10.7</ele>
        <time>1970-01-01T01:36:25.000Z</time>
      </trkpt>
      <trkpt lat="39.855638" lon="-8.853728">
        <ele>10.7</ele>
        <time>1970-01-01T01:36:26.000Z</time>
      </trkpt>
      <trkpt lat="39.855585" lon="-8.853707">
        <ele>10.7</ele>
        <time>1970-01-01T01:36:27.000Z</time>
      </trkpt>
      <trkpt lat="39.855532" lon="-8.853687">
        <ele>10.7</ele>
        <time>1970-01-01T01:36:28.000Z</time>
      </trkpt>
      <trkpt lat="39.855481" lon="-8.853667">
        <ele>10.7</ele>
        <time>1970-01-01T01:36:29.000Z</time>
      </trkpt>
      <trkpt lat="39.85543" lon="-8.853648">
        <ele>10.7</ele>
        <time>1970-01-01T01:36:30.000Z</time>
      </trkpt>
      <trkpt lat="39.85538" lon="-8.853631">
        <ele>10.7</ele>
        <time>1970-01-01T01:36:31.000Z</time>
      </trkpt>
      <trkpt lat="39.85533" lon="-8.853613">
        <ele>10.7</ele>
        <time>1970-01-01T01:36:32.000Z</time>
      </trkpt>
      <trkpt lat="39.855279" lon="-8.853594">
        <ele>10.7</ele>
        <time>1970-01-01T01:36:33.000Z</time>
      </trkpt>
      <trkpt lat="39.855226" lon="-8.853573">
        <ele>10.7</ele>
        <time>1970-01-01T01:36:34.000Z</time>
      </trkpt>
      <trkpt lat="39.855172" lon="-8.853549">
        <ele>10.7</ele>
        <time>1970-01-01T01:36:35.000Z</time>
      </trkpt>
      <trkpt lat="39.855118" lon="-8.853525">
        <ele>10.8</ele>
        <time>1970-01-01T01:36:36.000Z</time>
      </trkpt>
      <trkpt lat="39.855066" lon="-8.853503">
        <ele>10.8</ele>
        <time>1970-01-01T01:36:37.000Z</time>
      </trkpt>
      <trkpt lat="39.855016" lon="-8.85348">
        <ele>10.8</ele>
        <time>1970-01-01T01:36:38.000Z</time>
      </trkpt>
      <trkpt lat="39.854966" lon="-8.853459">
        <ele>10.8</ele>
        <time>1970-01-01T01:36:39.000Z</time>
      </trkpt>
      <trkpt lat="39.854916" lon="-8.853439">
        <ele>10.9</ele>
        <time>1970-01-01T01:36:40.000Z</time>
      </trkpt>
      <trkpt lat="39.854869" lon="-8.853419">
        <ele>10.9</ele>
        <time>1970-01-01T01:36:41.000Z</time>
      </trkpt>
      <trkpt lat="39.854821" lon="-8.853399">
        <ele>10.9</ele>
        <time>1970-01-01T01:36:42.000Z</time>
      </trkpt>
      <trkpt lat="39.85477" lon="-8.853374">
        <ele>10.9</ele>
        <time>1970-01-01T01:36:43.000Z</time>
      </trkpt>
      <trkpt lat="39.854722" lon="-8.85335">
        <ele>10.9</ele>
        <time>1970-01-01T01:36:44.000Z</time>
      </trkpt>
      <trkpt lat="39.854679" lon="-8.853327">
        <ele>10.9</ele>
        <time>1970-01-01T01:36:45.000Z</time>
      </trkpt>
      <trkpt lat="39.854636" lon="-8.853305">
        <ele>10.9</ele>
        <time>1970-01-01T01:36:46.000Z</time>
      </trkpt>
      <trkpt lat="39.854592" lon="-8.853285">
        <ele>10.9</ele>
        <time>1970-01-01T01:36:47.000Z</time>
      </trkpt>
      <trkpt lat="39.854547" lon="-8.853264">
        <ele>10.9</ele>
        <time>1970-01-01T01:36:48.000Z</time>
      </trkpt>
      <trkpt lat="39.854504" lon="-8.853243">
        <ele>10.9</ele>
        <time>1970-01-01T01:36:49.000Z</time>
      </trkpt>
      <trkpt lat="39.854466" lon="-8.853223">
        <ele>10.9</ele>
        <time>1970-01-01T01:36:50.000Z</time>
      </trkpt>
      <trkpt lat="39.854425" lon="-8.853203">
        <ele>10.9</ele>
        <time>1970-01-01T01:36:51.000Z</time>
      </trkpt>
      <trkpt lat="39.854385" lon="-8.853183">
        <ele>10.9</ele>
        <time>1970-01-01T01:36:52.000Z</time>
      </trkpt>
      <trkpt lat="39.854345" lon="-8.853166">
        <ele>10.9</ele>
        <time>1970-01-01T01:36:53.000Z</time>
      </trkpt>
      <trkpt lat="39.854306" lon="-8.853149">
        <ele>10.9</ele>
        <time>1970-01-01T01:36:54.000Z</time>
      </trkpt>
      <trkpt lat="39.854263" lon="-8.853131">
        <ele>10.9</ele>
        <time>1970-01-01T01:36:55.000Z</time>
      </trkpt>
      <trkpt lat="39.85422" lon="-8.853113">
        <ele>10.9</ele>
        <time>1970-01-01T01:36:56.000Z</time>
      </trkpt>
      <trkpt lat="39.854177" lon="-8.853095">
        <ele>10.9</ele>
        <time>1970-01-01T01:36:57.000Z</time>
      </trkpt>
      <trkpt lat="39.854134" lon="-8.853079">
        <ele>10.9</ele>
        <time>1970-01-01T01:36:58.000Z</time>
      </trkpt>
      <trkpt lat="39.85409" lon="-8.853063">
        <ele>10.9</ele>
        <time>1970-01-01T01:36:59.000Z</time>
      </trkpt>
      <trkpt lat="39.854047" lon="-8.853049">
        <ele>10.9</ele>
        <time>1970-01-01T01:37:00.000Z</time>
      </trkpt>
      <trkpt lat="39.854004" lon="-8.853035">
        <ele>10.9</ele>
        <time>1970-01-01T01:37:01.000Z</time>
      </trkpt>
      <trkpt lat="39.85396" lon="-8.853018">
        <ele>10.9</ele>
        <time>1970-01-01T01:37:02.000Z</time>
      </trkpt>
      <trkpt lat="39.853915" lon="-8.852999">
        <ele>10.9</ele>
        <time>1970-01-01T01:37:03.000Z</time>
      </trkpt>
      <trkpt lat="39.853869" lon="-8.852981">
        <ele>10.9</ele>
        <time>1970-01-01T01:37:04.000Z</time>
      </trkpt>
      <trkpt lat="39.853829" lon="-8.852967">
        <ele>10.9</ele>
        <time>1970-01-01T01:37:05.000Z</time>
      </trkpt>
      <trkpt lat="39.853784" lon="-8.852948">
        <ele>10.9</ele>
        <time>1970-01-01T01:37:06.000Z</time>
      </trkpt>
      <trkpt lat="39.85374" lon="-8.852928">
        <ele>10.9</ele>
        <time>1970-01-01T01:37:07.000Z</time>
      </trkpt>
      <trkpt lat="39.853697" lon="-8.852908">
        <ele>11</ele>
        <time>1970-01-01T01:37:08.000Z</time>
      </trkpt>
      <trkpt lat="39.853658" lon="-8.852889">
        <ele>11</ele>
        <time>1970-01-01T01:37:09.000Z</time>
      </trkpt>
      <trkpt lat="39.853617" lon="-8.852869">
        <ele>11</ele>
        <time>1970-01-01T01:37:10.000Z</time>
      </trkpt>
      <trkpt lat="39.853578" lon="-8.85285">
        <ele>11</ele>
        <time>1970-01-01T01:37:11.000Z</time>
      </trkpt>
      <trkpt lat="39.853536" lon="-8.85283">
        <ele>11.1</ele>
        <time>1970-01-01T01:37:12.000Z</time>
      </trkpt>
      <trkpt lat="39.853498" lon="-8.852812">
        <ele>11.1</ele>
        <time>1970-01-01T01:37:13.000Z</time>
      </trkpt>
      <trkpt lat="39.853457" lon="-8.852795">
        <ele>11.1</ele>
        <time>1970-01-01T01:37:14.000Z</time>
      </trkpt>
      <trkpt lat="39.853414" lon="-8.85278">
        <ele>11.2</ele>
        <time>1970-01-01T01:37:15.000Z</time>
      </trkpt>
      <trkpt lat="39.853367" lon="-8.852764">
        <ele>11.2</ele>
        <time>1970-01-01T01:37:16.000Z</time>
      </trkpt>
      <trkpt lat="39.85332" lon="-8.852748">
        <ele>11.2</ele>
        <time>1970-01-01T01:37:17.000Z</time>
      </trkpt>
      <trkpt lat="39.853277" lon="-8.852733">
        <ele>11.3</ele>
        <time>1970-01-01T01:37:18.000Z</time>
      </trkpt>
      <trkpt lat="39.853233" lon="-8.85272">
        <ele>11.3</ele>
        <time>1970-01-01T01:37:19.000Z</time>
      </trkpt>
      <trkpt lat="39.853187" lon="-8.852709">
        <ele>11.4</ele>
        <time>1970-01-01T01:37:20.000Z</time>
      </trkpt>
      <trkpt lat="39.853143" lon="-8.852701">
        <ele>11.5</ele>
        <time>1970-01-01T01:37:21.000Z</time>
      </trkpt>
      <trkpt lat="39.853099" lon="-8.852693">
        <ele>11.5</ele>
        <time>1970-01-01T01:37:22.000Z</time>
      </trkpt>
      <trkpt lat="39.853055" lon="-8.852686">
        <ele>11.6</ele>
        <time>1970-01-01T01:37:23.000Z</time>
      </trkpt>
      <trkpt lat="39.85301" lon="-8.85268">
        <ele>11.7</ele>
        <time>1970-01-01T01:37:24.000Z</time>
      </trkpt>
      <trkpt lat="39.852963" lon="-8.852673">
        <ele>11.8</ele>
        <time>1970-01-01T01:37:25.000Z</time>
      </trkpt>
      <trkpt lat="39.852916" lon="-8.852666">
        <ele>11.9</ele>
        <time>1970-01-01T01:37:26.000Z</time>
      </trkpt>
      <trkpt lat="39.85287" lon="-8.85266">
        <ele>12</ele>
        <time>1970-01-01T01:37:27.000Z</time>
      </trkpt>
      <trkpt lat="39.852825" lon="-8.852655">
        <ele>12.1</ele>
        <time>1970-01-01T01:37:28.000Z</time>
      </trkpt>
      <trkpt lat="39.852778" lon="-8.852649">
        <ele>12.2</ele>
        <time>1970-01-01T01:37:29.000Z</time>
      </trkpt>
      <trkpt lat="39.852731" lon="-8.852644">
        <ele>12.4</ele>
        <time>1970-01-01T01:37:30.000Z</time>
      </trkpt>
      <trkpt lat="39.852684" lon="-8.85264">
        <ele>12.5</ele>
        <time>1970-01-01T01:37:31.000Z</time>
      </trkpt>
      <trkpt lat="39.852641" lon="-8.852636">
        <ele>12.6</ele>
        <time>1970-01-01T01:37:32.000Z</time>
      </trkpt>
      <trkpt lat="39.852599" lon="-8.852634">
        <ele>12.8</ele>
        <time>1970-01-01T01:37:33.000Z</time>
      </trkpt>
      <trkpt lat="39.852559" lon="-8.852636">
        <ele>12.9</ele>
        <time>1970-01-01T01:37:34.000Z</time>
      </trkpt>
      <trkpt lat="39.852523" lon="-8.852644">
        <ele>13</ele>
        <time>1970-01-01T01:37:35.000Z</time>
      </trkpt>
      <trkpt lat="39.852492" lon="-8.852657">
        <ele>13.1</ele>
        <time>1970-01-01T01:37:36.000Z</time>
      </trkpt>
      <trkpt lat="39.852466" lon="-8.852676">
        <ele>13.2</ele>
        <time>1970-01-01T01:37:37.000Z</time>
      </trkpt>
      <trkpt lat="39.852444" lon="-8.852703">
        <ele>13.5</ele>
        <time>1970-01-01T01:37:38.000Z</time>
      </trkpt>
      <trkpt lat="39.852426" lon="-8.852738">
        <ele>13.5</ele>
        <time>1970-01-01T01:37:39.000Z</time>
      </trkpt>
      <trkpt lat="39.852412" lon="-8.852778">
        <ele>13.6</ele>
        <time>1970-01-01T01:37:40.000Z</time>
      </trkpt>
      <trkpt lat="39.8524" lon="-8.852819">
        <ele>13.6</ele>
        <time>1970-01-01T01:37:41.000Z</time>
      </trkpt>
      <trkpt lat="39.852388" lon="-8.85286">
        <ele>13.7</ele>
        <time>1970-01-01T01:37:42.000Z</time>
      </trkpt>
      <trkpt lat="39.852376" lon="-8.852898">
        <ele>13.8</ele>
        <time>1970-01-01T01:37:43.000Z</time>
      </trkpt>
      <trkpt lat="39.852362" lon="-8.852938">
        <ele>13.8</ele>
        <time>1970-01-01T01:37:44.000Z</time>
      </trkpt>
      <trkpt lat="39.852346" lon="-8.852983">
        <ele>13.9</ele>
        <time>1970-01-01T01:37:45.000Z</time>
      </trkpt>
      <trkpt lat="39.852333" lon="-8.853027">
        <ele>14</ele>
        <time>1970-01-01T01:37:46.000Z</time>
      </trkpt>
      <trkpt lat="39.852322" lon="-8.853078">
        <ele>14.1</ele>
        <time>1970-01-01T01:37:47.000Z</time>
      </trkpt>
      <trkpt lat="39.852312" lon="-8.853129">
        <ele>14.2</ele>
        <time>1970-01-01T01:37:48.000Z</time>
      </trkpt>
      <trkpt lat="39.852304" lon="-8.853185">
        <ele>14.5</ele>
        <time>1970-01-01T01:37:49.000Z</time>
      </trkpt>
      <trkpt lat="39.852296" lon="-8.853242">
        <ele>14.6</ele>
        <time>1970-01-01T01:37:50.000Z</time>
      </trkpt>
      <trkpt lat="39.852285" lon="-8.853301">
        <ele>14.6</ele>
        <time>1970-01-01T01:37:51.000Z</time>
      </trkpt>
      <trkpt lat="39.852269" lon="-8.853357">
        <ele>14.7</ele>
        <time>1970-01-01T01:37:52.000Z</time>
      </trkpt>
      <trkpt lat="39.85225" lon="-8.853408">
        <ele>14.7</ele>
        <time>1970-01-01T01:37:53.000Z</time>
      </trkpt>
      <trkpt lat="39.852226" lon="-8.853453">
        <ele>14.8</ele>
        <time>1970-01-01T01:37:54.000Z</time>
      </trkpt>
      <trkpt lat="39.852197" lon="-8.853495">
        <ele>14.9</ele>
        <time>1970-01-01T01:37:55.000Z</time>
      </trkpt>
      <trkpt lat="39.852162" lon="-8.853534">
        <ele>15</ele>
        <time>1970-01-01T01:37:56.000Z</time>
      </trkpt>
      <trkpt lat="39.852126" lon="-8.853569">
        <ele>15.2</ele>
        <time>1970-01-01T01:37:57.000Z</time>
      </trkpt>
      <trkpt lat="39.85209" lon="-8.853603">
        <ele>15.3</ele>
        <time>1970-01-01T01:37:58.000Z</time>
      </trkpt>
      <trkpt lat="39.852057" lon="-8.853635">
        <ele>15.3</ele>
        <time>1970-01-01T01:37:59.000Z</time>
      </trkpt>
      <trkpt lat="39.852025" lon="-8.853663">
        <ele>15.3</ele>
        <time>1970-01-01T01:38:00.000Z</time>
      </trkpt>
      <trkpt lat="39.851994" lon="-8.853688">
        <ele>15.5</ele>
        <time>1970-01-01T01:38:01.000Z</time>
      </trkpt>
      <trkpt lat="39.851964" lon="-8.853709">
        <ele>15.6</ele>
        <time>1970-01-01T01:38:02.000Z</time>
      </trkpt>
      <trkpt lat="39.851934" lon="-8.853726">
        <ele>15.7</ele>
        <time>1970-01-01T01:38:03.000Z</time>
      </trkpt>
      <trkpt lat="39.851905" lon="-8.853738">
        <ele>15.8</ele>
        <time>1970-01-01T01:38:04.000Z</time>
      </trkpt>
      <trkpt lat="39.851877" lon="-8.853747">
        <ele>15.8</ele>
        <time>1970-01-01T01:38:05.000Z</time>
      </trkpt>
      <trkpt lat="39.85185" lon="-8.853751">
        <ele>15.9</ele>
        <time>1970-01-01T01:38:06.000Z</time>
      </trkpt>
      <trkpt lat="39.851825" lon="-8.853752">
        <ele>16</ele>
        <time>1970-01-01T01:38:07.000Z</time>
      </trkpt>
      <trkpt lat="39.8518" lon="-8.85375">
        <ele>16.1</ele>
        <time>1970-01-01T01:38:08.000Z</time>
      </trkpt>
      <trkpt lat="39.851777" lon="-8.853747">
        <ele>16.1</ele>
        <time>1970-01-01T01:38:09.000Z</time>
      </trkpt>
      <trkpt lat="39.851754" lon="-8.853741">
        <ele>16.2</ele>
        <time>1970-01-01T01:38:10.000Z</time>
      </trkpt>
      <trkpt lat="39.851733" lon="-8.853735">
        <ele>16.3</ele>
        <time>1970-01-01T01:38:11.000Z</time>
      </trkpt>
      <trkpt lat="39.851712" lon="-8.853727">
        <ele>16.4</ele>
        <time>1970-01-01T01:38:12.000Z</time>
      </trkpt>
      <trkpt lat="39.851691" lon="-8.853719">
        <ele>16.5</ele>
        <time>1970-01-01T01:38:13.000Z</time>
      </trkpt>
      <trkpt lat="39.851669" lon="-8.85371">
        <ele>16.6</ele>
        <time>1970-01-01T01:38:14.000Z</time>
      </trkpt>
      <trkpt lat="39.851645" lon="-8.853701">
        <ele>16.7</ele>
        <time>1970-01-01T01:38:15.000Z</time>
      </trkpt>
      <trkpt lat="39.851621" lon="-8.853693">
        <ele>16.8</ele>
        <time>1970-01-01T01:38:16.000Z</time>
      </trkpt>
      <trkpt lat="39.851596" lon="-8.853686">
        <ele>16.9</ele>
        <time>1970-01-01T01:38:17.000Z</time>
      </trkpt>
      <trkpt lat="39.851571" lon="-8.853681">
        <ele>17</ele>
        <time>1970-01-01T01:38:18.000Z</time>
      </trkpt>
      <trkpt lat="39.851547" lon="-8.853677">
        <ele>17.2</ele>
        <time>1970-01-01T01:38:19.000Z</time>
      </trkpt>
      <trkpt lat="39.851525" lon="-8.853676">
        <ele>17.3</ele>
        <time>1970-01-01T01:38:20.000Z</time>
      </trkpt>
      <trkpt lat="39.851503" lon="-8.853676">
        <ele>17.5</ele>
        <time>1970-01-01T01:38:21.000Z</time>
      </trkpt>
      <trkpt lat="39.851483" lon="-8.853678">
        <ele>17.6</ele>
        <time>1970-01-01T01:38:22.000Z</time>
      </trkpt>
      <trkpt lat="39.851463" lon="-8.853683">
        <ele>17.8</ele>
        <time>1970-01-01T01:38:23.000Z</time>
      </trkpt>
      <trkpt lat="39.851444" lon="-8.853688">
        <ele>18</ele>
        <time>1970-01-01T01:38:24.000Z</time>
      </trkpt>
      <trkpt lat="39.851426" lon="-8.853693">
        <ele>18.2</ele>
        <time>1970-01-01T01:38:25.000Z</time>
      </trkpt>
      <trkpt lat="39.851411" lon="-8.853701">
        <ele>18.3</ele>
        <time>1970-01-01T01:38:26.000Z</time>
      </trkpt>
      <trkpt lat="39.851397" lon="-8.85371">
        <ele>18.5</ele>
        <time>1970-01-01T01:38:27.000Z</time>
      </trkpt>
      <trkpt lat="39.851387" lon="-8.85372">
        <ele>18.6</ele>
        <time>1970-01-01T01:38:28.000Z</time>
      </trkpt>
      <trkpt lat="39.851378" lon="-8.853729">
        <ele>18.8</ele>
        <time>1970-01-01T01:38:29.000Z</time>
      </trkpt>
      <trkpt lat="39.85137" lon="-8.853739">
        <ele>18.9</ele>
        <time>1970-01-01T01:38:30.000Z</time>
      </trkpt>
      <trkpt lat="39.851361" lon="-8.853751">
        <ele>19.1</ele>
        <time>1970-01-01T01:38:31.000Z</time>
      </trkpt>
      <trkpt lat="39.851352" lon="-8.853765">
        <ele>19.2</ele>
        <time>1970-01-01T01:38:32.000Z</time>
      </trkpt>
      <trkpt lat="39.851345" lon="-8.85378">
        <ele>19.4</ele>
        <time>1970-01-01T01:38:33.000Z</time>
      </trkpt>
      <trkpt lat="39.851338" lon="-8.853796">
        <ele>19.6</ele>
        <time>1970-01-01T01:38:34.000Z</time>
      </trkpt>
      <trkpt lat="39.851334" lon="-8.853813">
        <ele>19.8</ele>
        <time>1970-01-01T01:38:35.000Z</time>
      </trkpt>
      <trkpt lat="39.851332" lon="-8.853831">
        <ele>20</ele>
        <time>1970-01-01T01:38:36.000Z</time>
      </trkpt>
      <trkpt lat="39.851329" lon="-8.853849">
        <ele>20.2</ele>
        <time>1970-01-01T01:38:37.000Z</time>
      </trkpt>
      <trkpt lat="39.851329" lon="-8.853868">
        <ele>20.4</ele>
        <time>1970-01-01T01:38:38.000Z</time>
      </trkpt>
      <trkpt lat="39.851329" lon="-8.853887">
        <ele>20.7</ele>
        <time>1970-01-01T01:38:39.000Z</time>
      </trkpt>
      <trkpt lat="39.851332" lon="-8.853905">
        <ele>20.9</ele>
        <time>1970-01-01T01:38:40.000Z</time>
      </trkpt>
      <trkpt lat="39.851335" lon="-8.853921">
        <ele>21.1</ele>
        <time>1970-01-01T01:38:41.000Z</time>
      </trkpt>
      <trkpt lat="39.85134" lon="-8.853936">
        <ele>21.2</ele>
        <time>1970-01-01T01:38:42.000Z</time>
      </trkpt>
      <trkpt lat="39.851346" lon="-8.853949">
        <ele>21.4</ele>
        <time>1970-01-01T01:38:43.000Z</time>
      </trkpt>
      <trkpt lat="39.851349" lon="-8.853963">
        <ele>21.6</ele>
        <time>1970-01-01T01:38:44.000Z</time>
      </trkpt>
      <trkpt lat="39.851351" lon="-8.853977">
        <ele>21.8</ele>
        <time>1970-01-01T01:38:45.000Z</time>
      </trkpt>
      <trkpt lat="39.851353" lon="-8.853991">
        <ele>21.9</ele>
        <time>1970-01-01T01:38:46.000Z</time>
      </trkpt>
      <trkpt lat="39.851355" lon="-8.854004">
        <ele>22.1</ele>
        <time>1970-01-01T01:38:47.000Z</time>
      </trkpt>
      <trkpt lat="39.851358" lon="-8.854017">
        <ele>22.3</ele>
        <time>1970-01-01T01:38:48.000Z</time>
      </trkpt>
      <trkpt lat="39.851363" lon="-8.854029">
        <ele>22.4</ele>
        <time>1970-01-01T01:38:49.000Z</time>
      </trkpt>
      <trkpt lat="39.851368" lon="-8.854041">
        <ele>22.6</ele>
        <time>1970-01-01T01:38:50.000Z</time>
      </trkpt>
      <trkpt lat="39.851374" lon="-8.854052">
        <ele>22.7</ele>
        <time>1970-01-01T01:38:51.000Z</time>
      </trkpt>
      <trkpt lat="39.851379" lon="-8.854061">
        <ele>22.9</ele>
        <time>1970-01-01T01:38:52.000Z</time>
      </trkpt>
      <trkpt lat="39.851383" lon="-8.854069">
        <ele>23</ele>
        <time>1970-01-01T01:38:53.000Z</time>
      </trkpt>
      <trkpt lat="39.851385" lon="-8.854078">
        <ele>23.1</ele>
        <time>1970-01-01T01:38:54.000Z</time>
      </trkpt>
      <trkpt lat="39.851388" lon="-8.854088">
        <ele>23.2</ele>
        <time>1970-01-01T01:38:55.000Z</time>
      </trkpt>
      <trkpt lat="39.85139" lon="-8.854099">
        <ele>23.4</ele>
        <time>1970-01-01T01:38:56.000Z</time>
      </trkpt>
      <trkpt lat="39.851392" lon="-8.854112">
        <ele>23.5</ele>
        <time>1970-01-01T01:38:57.000Z</time>
      </trkpt>
      <trkpt lat="39.851393" lon="-8.854125">
        <ele>23.7</ele>
        <time>1970-01-01T01:38:58.000Z</time>
      </trkpt>
      <trkpt lat="39.851396" lon="-8.854137">
        <ele>23.8</ele>
        <time>1970-01-01T01:38:59.000Z</time>
      </trkpt>
      <trkpt lat="39.851399" lon="-8.85415">
        <ele>24</ele>
        <time>1970-01-01T01:39:00.000Z</time>
      </trkpt>
      <trkpt lat="39.851402" lon="-8.854159">
        <ele>24.1</ele>
        <time>1970-01-01T01:39:01.000Z</time>
      </trkpt>
      <trkpt lat="39.851414" lon="-8.854187">
        <ele>24.5</ele>
        <time>1970-01-01T01:39:03.000Z</time>
      </trkpt>
      <trkpt lat="39.851414" lon="-8.85419">
        <ele>24.6</ele>
        <time>1970-01-01T01:39:04.000Z</time>
      </trkpt>
      <trkpt lat="39.851415" lon="-8.854196">
        <ele>24.6</ele>
        <time>1970-01-01T01:39:05.000Z</time>
      </trkpt>
      <trkpt lat="39.851416" lon="-8.854201">
        <ele>24.7</ele>
        <time>1970-01-01T01:39:06.000Z</time>
      </trkpt>
      <trkpt lat="39.851417" lon="-8.854206">
        <ele>24.8</ele>
        <time>1970-01-01T01:39:07.000Z</time>
      </trkpt>
      <trkpt lat="39.851417" lon="-8.854215">
        <ele>24.9</ele>
        <time>1970-01-01T01:39:08.000Z</time>
      </trkpt>
      <trkpt lat="39.85142" lon="-8.854227">
        <ele>25</ele>
        <time>1970-01-01T01:39:09.000Z</time>
      </trkpt>
      <trkpt lat="39.851422" lon="-8.854244">
        <ele>25.2</ele>
        <time>1970-01-01T01:39:10.000Z</time>
      </trkpt>
      <trkpt lat="39.851423" lon="-8.854262">
        <ele>25.5</ele>
        <time>1970-01-01T01:39:11.000Z</time>
      </trkpt>
      <trkpt lat="39.851434" lon="-8.854314">
        <ele>26.2</ele>
        <time>1970-01-01T01:39:12.000Z</time>
      </trkpt>
      <trkpt lat="39.851434" lon="-8.854317">
        <ele>26.2</ele>
        <time>1970-01-01T01:39:13.000Z</time>
      </trkpt>
      <trkpt lat="39.851433" lon="-8.854322">
        <ele>26.3</ele>
        <time>1970-01-01T01:39:14.000Z</time>
      </trkpt>
      <trkpt lat="39.851431" lon="-8.854327">
        <ele>26.4</ele>
        <time>1970-01-01T01:39:15.000Z</time>
      </trkpt>
      <trkpt lat="39.851432" lon="-8.854331">
        <ele>26.4</ele>
        <time>1970-01-01T01:39:16.000Z</time>
      </trkpt>
      <trkpt lat="39.851436" lon="-8.854336">
        <ele>26.5</ele>
        <time>1970-01-01T01:39:17.000Z</time>
      </trkpt>
      <trkpt lat="39.851442" lon="-8.854341">
        <ele>26.6</ele>
        <time>1970-01-01T01:39:18.000Z</time>
      </trkpt>
      <trkpt lat="39.851444" lon="-8.854347">
        <ele>26.7</ele>
        <time>1970-01-01T01:39:19.000Z</time>
      </trkpt>
      <trkpt lat="39.851445" lon="-8.854352">
        <ele>26.8</ele>
        <time>1970-01-01T01:39:20.000Z</time>
      </trkpt>
      <trkpt lat="39.851447" lon="-8.854359">
        <ele>26.9</ele>
        <time>1970-01-01T01:39:21.000Z</time>
      </trkpt>
      <trkpt lat="39.851447" lon="-8.854367">
        <ele>27</ele>
        <time>1970-01-01T01:39:22.000Z</time>
      </trkpt>
      <trkpt lat="39.851448" lon="-8.854377">
        <ele>27.1</ele>
        <time>1970-01-01T01:39:23.000Z</time>
      </trkpt>
      <trkpt lat="39.851448" lon="-8.854384">
        <ele>27.2</ele>
        <time>1970-01-01T01:39:24.000Z</time>
      </trkpt>
      <trkpt lat="39.85145" lon="-8.854394">
        <ele>27.4</ele>
        <time>1970-01-01T01:39:25.000Z</time>
      </trkpt>
      <trkpt lat="39.851452" lon="-8.854407">
        <ele>27.5</ele>
        <time>1970-01-01T01:39:26.000Z</time>
      </trkpt>
      <trkpt lat="39.851454" lon="-8.854425">
        <ele>27.8</ele>
        <time>1970-01-01T01:39:27.000Z</time>
      </trkpt>
      <trkpt lat="39.851456" lon="-8.854442">
        <ele>28</ele>
        <time>1970-01-01T01:39:28.000Z</time>
      </trkpt>
      <trkpt lat="39.851456" lon="-8.854459">
        <ele>28.3</ele>
        <time>1970-01-01T01:39:29.000Z</time>
      </trkpt>
      <trkpt lat="39.851463" lon="-8.854507">
        <ele>28.9</ele>
        <time>1970-01-01T01:39:30.000Z</time>
      </trkpt>
      <trkpt lat="39.851464" lon="-8.854508">
        <ele>29</ele>
        <time>1970-01-01T01:39:31.000Z</time>
      </trkpt>
      <trkpt lat="39.851467" lon="-8.854511">
        <ele>29</ele>
        <time>1970-01-01T01:39:32.000Z</time>
      </trkpt>
      <trkpt lat="39.851472" lon="-8.854515">
        <ele>29.1</ele>
        <time>1970-01-01T01:39:33.000Z</time>
      </trkpt>
      <trkpt lat="39.851477" lon="-8.854521">
        <ele>29.3</ele>
        <time>1970-01-01T01:39:34.000Z</time>
      </trkpt>
      <trkpt lat="39.85148" lon="-8.854528">
        <ele>29.4</ele>
        <time>1970-01-01T01:39:35.000Z</time>
      </trkpt>
      <trkpt lat="39.851484" lon="-8.854537">
        <ele>29.5</ele>
        <time>1970-01-01T01:39:36.000Z</time>
      </trkpt>
      <trkpt lat="39.851489" lon="-8.85455">
        <ele>29.7</ele>
        <time>1970-01-01T01:39:37.000Z</time>
      </trkpt>
      <trkpt lat="39.851494" lon="-8.854565">
        <ele>30</ele>
        <time>1970-01-01T01:39:38.000Z</time>
      </trkpt>
      <trkpt lat="39.851497" lon="-8.854581">
        <ele>30.2</ele>
        <time>1970-01-01T01:39:39.000Z</time>
      </trkpt>
      <trkpt lat="39.8515" lon="-8.854595">
        <ele>30.4</ele>
        <time>1970-01-01T01:39:40.000Z</time>
      </trkpt>
      <trkpt lat="39.851499" lon="-8.854609">
        <ele>30.6</ele>
        <time>1970-01-01T01:39:41.000Z</time>
      </trkpt>
      <trkpt lat="39.851496" lon="-8.854623">
        <ele>30.8</ele>
        <time>1970-01-01T01:39:42.000Z</time>
      </trkpt>
      <trkpt lat="39.851491" lon="-8.854636">
        <ele>31</ele>
        <time>1970-01-01T01:39:43.000Z</time>
      </trkpt>
      <trkpt lat="39.851486" lon="-8.854648">
        <ele>31.2</ele>
        <time>1970-01-01T01:39:44.000Z</time>
      </trkpt>
      <trkpt lat="39.851482" lon="-8.854661">
        <ele>31.4</ele>
        <time>1970-01-01T01:39:45.000Z</time>
      </trkpt>
      <trkpt lat="39.851479" lon="-8.854674">
        <ele>31.6</ele>
        <time>1970-01-01T01:39:46.000Z</time>
      </trkpt>
      <trkpt lat="39.851475" lon="-8.854688">
        <ele>31.8</ele>
        <time>1970-01-01T01:39:47.000Z</time>
      </trkpt>
      <trkpt lat="39.851472" lon="-8.854701">
        <ele>32</ele>
        <time>1970-01-01T01:39:48.000Z</time>
      </trkpt>
      <trkpt lat="39.851467" lon="-8.854711">
        <ele>32.1</ele>
        <time>1970-01-01T01:39:49.000Z</time>
      </trkpt>
      <trkpt lat="39.851461" lon="-8.854722">
        <ele>32.3</ele>
        <time>1970-01-01T01:39:50.000Z</time>
      </trkpt>
      <trkpt lat="39.851456" lon="-8.854733">
        <ele>32.5</ele>
        <time>1970-01-01T01:39:51.000Z</time>
      </trkpt>
      <trkpt lat="39.851453" lon="-8.854743">
        <ele>32.7</ele>
        <time>1970-01-01T01:39:52.000Z</time>
      </trkpt>
      <trkpt lat="39.851452" lon="-8.854754">
        <ele>32.8</ele>
        <time>1970-01-01T01:39:53.000Z</time>
      </trkpt>
      <trkpt lat="39.85145" lon="-8.854764">
        <ele>33</ele>
        <time>1970-01-01T01:39:54.000Z</time>
      </trkpt>
      <trkpt lat="39.851446" lon="-8.854775">
        <ele>33.2</ele>
        <time>1970-01-01T01:39:55.000Z</time>
      </trkpt>
      <trkpt lat="39.851438" lon="-8.854786">
        <ele>33.4</ele>
        <time>1970-01-01T01:39:56.000Z</time>
      </trkpt>
      <trkpt lat="39.851429" lon="-8.854796">
        <ele>33.6</ele>
        <time>1970-01-01T01:39:57.000Z</time>
      </trkpt>
      <trkpt lat="39.85142" lon="-8.854805">
        <ele>33.8</ele>
        <time>1970-01-01T01:39:58.000Z</time>
      </trkpt>
      <trkpt lat="39.851413" lon="-8.854813">
        <ele>34</ele>
        <time>1970-01-01T01:39:59.000Z</time>
      </trkpt>
      <trkpt lat="39.851405" lon="-8.854821">
        <ele>34.2</ele>
        <time>1970-01-01T01:40:00.000Z</time>
      </trkpt>
      <trkpt lat="39.851397" lon="-8.854827">
        <ele>34.4</ele>
        <time>1970-01-01T01:40:01.000Z</time>
      </trkpt>
      <trkpt lat="39.851388" lon="-8.854833">
        <ele>34.6</ele>
        <time>1970-01-01T01:40:02.000Z</time>
      </trkpt>
      <trkpt lat="39.851379" lon="-8.854839">
        <ele>34.8</ele>
        <time>1970-01-01T01:40:03.000Z</time>
      </trkpt>
      <trkpt lat="39.851369" lon="-8.854844">
        <ele>35</ele>
        <time>1970-01-01T01:40:04.000Z</time>
      </trkpt>
      <trkpt lat="39.851357" lon="-8.854846">
        <ele>35.2</ele>
        <time>1970-01-01T01:40:05.000Z</time>
      </trkpt>
      <trkpt lat="39.851345" lon="-8.854844">
        <ele>35.4</ele>
        <time>1970-01-01T01:40:06.000Z</time>
      </trkpt>
      <trkpt lat="39.851336" lon="-8.85484">
        <ele>35.6</ele>
        <time>1970-01-01T01:40:07.000Z</time>
      </trkpt>
      <trkpt lat="39.85133" lon="-8.854836">
        <ele>35.7</ele>
        <time>1970-01-01T01:40:08.000Z</time>
      </trkpt>
      <trkpt lat="39.851313" lon="-8.854827">
        <ele>36.1</ele>
        <time>1970-01-01T01:40:10.000Z</time>
      </trkpt>
      <trkpt lat="39.851312" lon="-8.854828">
        <ele>36.1</ele>
        <time>1970-01-01T01:40:11.000Z</time>
      </trkpt>
      <trkpt lat="39.851309" lon="-8.854831">
        <ele>36.2</ele>
        <time>1970-01-01T01:40:12.000Z</time>
      </trkpt>
      <trkpt lat="39.851304" lon="-8.854834">
        <ele>36.3</ele>
        <time>1970-01-01T01:40:13.000Z</time>
      </trkpt>
      <trkpt lat="39.851298" lon="-8.854838">
        <ele>36.4</ele>
        <time>1970-01-01T01:40:14.000Z</time>
      </trkpt>
      <trkpt lat="39.851293" lon="-8.85484">
        <ele>36.5</ele>
        <time>1970-01-01T01:40:15.000Z</time>
      </trkpt>
      <trkpt lat="39.851292" lon="-8.854842">
        <ele>36.5</ele>
        <time>1970-01-01T01:40:16.000Z</time>
      </trkpt>
      <trkpt lat="39.85129" lon="-8.854838">
        <ele>36.6</ele>
        <time>1970-01-01T01:40:17.000Z</time>
      </trkpt>
      <trkpt lat="39.851288" lon="-8.854834">
        <ele>36.7</ele>
        <time>1970-01-01T01:40:18.000Z</time>
      </trkpt>
      <trkpt lat="39.851284" lon="-8.854829">
        <ele>36.8</ele>
        <time>1970-01-01T01:40:19.000Z</time>
      </trkpt>
      <trkpt lat="39.851278" lon="-8.854824">
        <ele>36.9</ele>
        <time>1970-01-01T01:40:20.000Z</time>
      </trkpt>
      <trkpt lat="39.851274" lon="-8.854821">
        <ele>37</ele>
        <time>1970-01-01T01:40:21.000Z</time>
      </trkpt>
      <trkpt lat="39.851272" lon="-8.854823">
        <ele>37</ele>
        <time>1970-01-01T01:40:22.000Z</time>
      </trkpt>
      <trkpt lat="39.851266" lon="-8.854841">
        <ele>37.3</ele>
        <time>1970-01-01T01:40:23.000Z</time>
      </trkpt>
      <trkpt lat="39.851265" lon="-8.854842">
        <ele>37.3</ele>
        <time>1970-01-01T01:40:24.000Z</time>
      </trkpt>
      <trkpt lat="39.85126" lon="-8.854844">
        <ele>37.4</ele>
        <time>1970-01-01T01:40:25.000Z</time>
      </trkpt>
      <trkpt lat="39.851252" lon="-8.854844">
        <ele>37.5</ele>
        <time>1970-01-01T01:40:26.000Z</time>
      </trkpt>
      <trkpt lat="39.851243" lon="-8.854846">
        <ele>37.7</ele>
        <time>1970-01-01T01:40:27.000Z</time>
      </trkpt>
      <trkpt lat="39.851233" lon="-8.854848">
        <ele>37.9</ele>
        <time>1970-01-01T01:40:28.000Z</time>
      </trkpt>
      <trkpt lat="39.851225" lon="-8.854851">
        <ele>38</ele>
        <time>1970-01-01T01:40:29.000Z</time>
      </trkpt>
      <trkpt lat="39.851218" lon="-8.854856">
        <ele>38.2</ele>
        <time>1970-01-01T01:40:30.000Z</time>
      </trkpt>
      <trkpt lat="39.851211" lon="-8.854864">
        <ele>38.3</ele>
        <time>1970-01-01T01:40:31.000Z</time>
      </trkpt>
      <trkpt lat="39.851206" lon="-8.854871">
        <ele>38.4</ele>
        <time>1970-01-01T01:40:32.000Z</time>
      </trkpt>
      <trkpt lat="39.851201" lon="-8.854875">
        <ele>38.5</ele>
        <time>1970-01-01T01:40:33.000Z</time>
      </trkpt>
      <trkpt lat="39.851193" lon="-8.854881">
        <ele>38.7</ele>
        <time>1970-01-01T01:40:34.000Z</time>
      </trkpt>
      <trkpt lat="39.851192" lon="-8.854881">
        <ele>38.7</ele>
        <time>1970-01-01T01:40:35.000Z</time>
      </trkpt>
      <trkpt lat="39.85119" lon="-8.854881">
        <ele>38.7</ele>
        <time>1970-01-01T01:40:36.000Z</time>
      </trkpt>
      <trkpt lat="39.851188" lon="-8.854886">
        <ele>38.8</ele>
        <time>1970-01-01T01:40:37.000Z</time>
      </trkpt>
      <trkpt lat="39.851186" lon="-8.854894">
        <ele>38.9</ele>
        <time>1970-01-01T01:40:38.000Z</time>
      </trkpt>
      <trkpt lat="39.851183" lon="-8.854907">
        <ele>39.1</ele>
        <time>1970-01-01T01:40:39.000Z</time>
      </trkpt>
      <trkpt lat="39.851179" lon="-8.85492">
        <ele>39.2</ele>
        <time>1970-01-01T01:40:40.000Z</time>
      </trkpt>
      <trkpt lat="39.851175" lon="-8.854936">
        <ele>39.4</ele>
        <time>1970-01-01T01:40:41.000Z</time>
      </trkpt>
      <trkpt lat="39.85117" lon="-8.854951">
        <ele>39.6</ele>
        <time>1970-01-01T01:40:42.000Z</time>
      </trkpt>
      <trkpt lat="39.851165" lon="-8.854962">
        <ele>39.8</ele>
        <time>1970-01-01T01:40:43.000Z</time>
      </trkpt>
      <trkpt lat="39.85116" lon="-8.85497">
        <ele>39.9</ele>
        <time>1970-01-01T01:40:44.000Z</time>
      </trkpt>
      <trkpt lat="39.851156" lon="-8.854979">
        <ele>40</ele>
        <time>1970-01-01T01:40:45.000Z</time>
      </trkpt>
      <trkpt lat="39.85115" lon="-8.854989">
        <ele>40.2</ele>
        <time>1970-01-01T01:40:46.000Z</time>
      </trkpt>
      <trkpt lat="39.851144" lon="-8.854996">
        <ele>40.3</ele>
        <time>1970-01-01T01:40:47.000Z</time>
      </trkpt>
      <trkpt lat="39.851141" lon="-8.855002">
        <ele>40.4</ele>
        <time>1970-01-01T01:40:48.000Z</time>
      </trkpt>
      <trkpt lat="39.851137" lon="-8.855007">
        <ele>40.4</ele>
        <time>1970-01-01T01:40:49.000Z</time>
      </trkpt>
      <trkpt lat="39.851128" lon="-8.855031">
        <ele>40.7</ele>
        <time>1970-01-01T01:40:52.000Z</time>
      </trkpt>
      <trkpt lat="39.851128" lon="-8.855034">
        <ele>40.8</ele>
        <time>1970-01-01T01:40:53.000Z</time>
      </trkpt>
      <trkpt lat="39.851128" lon="-8.855042">
        <ele>40.9</ele>
        <time>1970-01-01T01:40:54.000Z</time>
      </trkpt>
      <trkpt lat="39.851126" lon="-8.855053">
        <ele>41</ele>
        <time>1970-01-01T01:40:55.000Z</time>
      </trkpt>
      <trkpt lat="39.851122" lon="-8.855061">
        <ele>41.1</ele>
        <time>1970-01-01T01:40:56.000Z</time>
      </trkpt>
      <trkpt lat="39.851103" lon="-8.855089">
        <ele>41.5</ele>
        <time>1970-01-01T01:40:57.000Z</time>
      </trkpt>
      <trkpt lat="39.8511" lon="-8.85509">
        <ele>41.5</ele>
        <time>1970-01-01T01:40:58.000Z</time>
      </trkpt>
      <trkpt lat="39.851094" lon="-8.855093">
        <ele>41.6</ele>
        <time>1970-01-01T01:40:59.000Z</time>
      </trkpt>
      <trkpt lat="39.851086" lon="-8.855099">
        <ele>41.7</ele>
        <time>1970-01-01T01:41:00.000Z</time>
      </trkpt>
      <trkpt lat="39.851079" lon="-8.855105">
        <ele>41.8</ele>
        <time>1970-01-01T01:41:01.000Z</time>
      </trkpt>
      <trkpt lat="39.851073" lon="-8.855115">
        <ele>42</ele>
        <time>1970-01-01T01:41:02.000Z</time>
      </trkpt>
      <trkpt lat="39.851064" lon="-8.855125">
        <ele>42.1</ele>
        <time>1970-01-01T01:41:03.000Z</time>
      </trkpt>
      <trkpt lat="39.851055" lon="-8.855138">
        <ele>42.3</ele>
        <time>1970-01-01T01:41:04.000Z</time>
      </trkpt>
      <trkpt lat="39.851046" lon="-8.855151">
        <ele>42.5</ele>
        <time>1970-01-01T01:41:05.000Z</time>
      </trkpt>
      <trkpt lat="39.851037" lon="-8.855162">
        <ele>42.7</ele>
        <time>1970-01-01T01:41:06.000Z</time>
      </trkpt>
      <trkpt lat="39.851026" lon="-8.855173">
        <ele>42.9</ele>
        <time>1970-01-01T01:41:07.000Z</time>
      </trkpt>
      <trkpt lat="39.851015" lon="-8.855186">
        <ele>43</ele>
        <time>1970-01-01T01:41:08.000Z</time>
      </trkpt>
      <trkpt lat="39.851004" lon="-8.8552">
        <ele>43.3</ele>
        <time>1970-01-01T01:41:09.000Z</time>
      </trkpt>
      <trkpt lat="39.850996" lon="-8.855219">
        <ele>43.5</ele>
        <time>1970-01-01T01:41:10.000Z</time>
      </trkpt>
      <trkpt lat="39.850988" lon="-8.855238">
        <ele>43.7</ele>
        <time>1970-01-01T01:41:11.000Z</time>
      </trkpt>
      <trkpt lat="39.850981" lon="-8.855259">
        <ele>43.9</ele>
        <time>1970-01-01T01:41:12.000Z</time>
      </trkpt>
      <trkpt lat="39.850973" lon="-8.855279">
        <ele>44.1</ele>
        <time>1970-01-01T01:41:13.000Z</time>
      </trkpt>
      <trkpt lat="39.850964" lon="-8.855297">
        <ele>44.3</ele>
        <time>1970-01-01T01:41:14.000Z</time>
      </trkpt>
      <trkpt lat="39.850956" lon="-8.855315">
        <ele>44.4</ele>
        <time>1970-01-01T01:41:15.000Z</time>
      </trkpt>
      <trkpt lat="39.850949" lon="-8.855331">
        <ele>44.6</ele>
        <time>1970-01-01T01:41:16.000Z</time>
      </trkpt>
      <trkpt lat="39.850942" lon="-8.85535">
        <ele>44.8</ele>
        <time>1970-01-01T01:41:17.000Z</time>
      </trkpt>
      <trkpt lat="39.850933" lon="-8.855369">
        <ele>45</ele>
        <time>1970-01-01T01:41:18.000Z</time>
      </trkpt>
      <trkpt lat="39.850925" lon="-8.855389">
        <ele>45.2</ele>
        <time>1970-01-01T01:41:19.000Z</time>
      </trkpt>
      <trkpt lat="39.850919" lon="-8.855408">
        <ele>45.3</ele>
        <time>1970-01-01T01:41:20.000Z</time>
      </trkpt>
      <trkpt lat="39.850916" lon="-8.855426">
        <ele>45.5</ele>
        <time>1970-01-01T01:41:21.000Z</time>
      </trkpt>
      <trkpt lat="39.850912" lon="-8.855443">
        <ele>45.6</ele>
        <time>1970-01-01T01:41:22.000Z</time>
      </trkpt>
      <trkpt lat="39.850907" lon="-8.855459">
        <ele>45.7</ele>
        <time>1970-01-01T01:41:23.000Z</time>
      </trkpt>
      <trkpt lat="39.850902" lon="-8.855475">
        <ele>45.9</ele>
        <time>1970-01-01T01:41:24.000Z</time>
      </trkpt>
      <trkpt lat="39.850897" lon="-8.855489">
        <ele>46</ele>
        <time>1970-01-01T01:41:25.000Z</time>
      </trkpt>
      <trkpt lat="39.850893" lon="-8.855501">
        <ele>46.1</ele>
        <time>1970-01-01T01:41:26.000Z</time>
      </trkpt>
      <trkpt lat="39.850889" lon="-8.855508">
        <ele>46.2</ele>
        <time>1970-01-01T01:41:27.000Z</time>
      </trkpt>
      <trkpt lat="39.850886" lon="-8.855514">
        <ele>46.2</ele>
        <time>1970-01-01T01:41:28.000Z</time>
      </trkpt>
      <trkpt lat="39.850885" lon="-8.855526">
        <ele>46.3</ele>
        <time>1970-01-01T01:41:30.000Z</time>
      </trkpt>
      <trkpt lat="39.850887" lon="-8.855526">
        <ele>46.3</ele>
        <time>1970-01-01T01:41:32.000Z</time>
      </trkpt>
      <trkpt lat="39.850886" lon="-8.855526">
        <ele>46.3</ele>
        <time>1970-01-01T01:41:33.000Z</time>
      </trkpt>
      <trkpt lat="39.850885" lon="-8.855528">
        <ele>46.3</ele>
        <time>1970-01-01T01:41:34.000Z</time>
      </trkpt>
      <trkpt lat="39.850877" lon="-8.855529">
        <ele>46.4</ele>
        <time>1970-01-01T01:41:36.000Z</time>
      </trkpt>
      <trkpt lat="39.850877" lon="-8.855527">
        <ele>46.4</ele>
        <time>1970-01-01T01:41:39.000Z</time>
      </trkpt>
      <trkpt lat="39.850875" lon="-8.855527">
        <ele>46.5</ele>
        <time>1970-01-01T01:41:40.000Z</time>
      </trkpt>
      <trkpt lat="39.850872" lon="-8.855526">
        <ele>46.5</ele>
        <time>1970-01-01T01:41:41.000Z</time>
      </trkpt>
      <trkpt lat="39.85087" lon="-8.855527">
        <ele>46.5</ele>
        <time>1970-01-01T01:41:42.000Z</time>
      </trkpt>
      <trkpt lat="39.850858" lon="-8.855524">
        <ele>46.6</ele>
        <time>1970-01-01T01:42:04.000Z</time>
      </trkpt>
      <trkpt lat="39.850855" lon="-8.855521">
        <ele>46.7</ele>
        <time>1970-01-01T01:42:15.000Z</time>
      </trkpt>
      <trkpt lat="39.850854" lon="-8.855526">
        <ele>46.7</ele>
        <time>1970-01-01T01:42:16.000Z</time>
      </trkpt>
      <trkpt lat="39.850853" lon="-8.855571">
        <ele>47</ele>
        <time>1970-01-01T01:42:17.000Z</time>
      </trkpt>
      <trkpt lat="39.850852" lon="-8.855578">
        <ele>47.1</ele>
        <time>1970-01-01T01:42:18.000Z</time>
      </trkpt>
      <trkpt lat="39.850851" lon="-8.855592">
        <ele>47.2</ele>
        <time>1970-01-01T01:42:19.000Z</time>
      </trkpt>
      <trkpt lat="39.850849" lon="-8.85561">
        <ele>47.3</ele>
        <time>1970-01-01T01:42:20.000Z</time>
      </trkpt>
      <trkpt lat="39.850847" lon="-8.855631">
        <ele>47.5</ele>
        <time>1970-01-01T01:42:21.000Z</time>
      </trkpt>
      <trkpt lat="39.850842" lon="-8.855654">
        <ele>47.6</ele>
        <time>1970-01-01T01:42:22.000Z</time>
      </trkpt>
      <trkpt lat="39.850837" lon="-8.855678">
        <ele>47.8</ele>
        <time>1970-01-01T01:42:23.000Z</time>
      </trkpt>
      <trkpt lat="39.850831" lon="-8.855706">
        <ele>48</ele>
        <time>1970-01-01T01:42:24.000Z</time>
      </trkpt>
      <trkpt lat="39.850823" lon="-8.855733">
        <ele>48.2</ele>
        <time>1970-01-01T01:42:25.000Z</time>
      </trkpt>
      <trkpt lat="39.850816" lon="-8.855762">
        <ele>48.4</ele>
        <time>1970-01-01T01:42:26.000Z</time>
      </trkpt>
      <trkpt lat="39.850809" lon="-8.855791">
        <ele>48.6</ele>
        <time>1970-01-01T01:42:27.000Z</time>
      </trkpt>
      <trkpt lat="39.850799" lon="-8.855821">
        <ele>48.8</ele>
        <time>1970-01-01T01:42:28.000Z</time>
      </trkpt>
      <trkpt lat="39.85079" lon="-8.855854">
        <ele>49</ele>
        <time>1970-01-01T01:42:29.000Z</time>
      </trkpt>
      <trkpt lat="39.850778" lon="-8.855886">
        <ele>49.2</ele>
        <time>1970-01-01T01:42:30.000Z</time>
      </trkpt>
      <trkpt lat="39.850767" lon="-8.855915">
        <ele>49.4</ele>
        <time>1970-01-01T01:42:31.000Z</time>
      </trkpt>
      <trkpt lat="39.850755" lon="-8.855942">
        <ele>49.5</ele>
        <time>1970-01-01T01:42:32.000Z</time>
      </trkpt>
      <trkpt lat="39.850742" lon="-8.855967">
        <ele>49.6</ele>
        <time>1970-01-01T01:42:33.000Z</time>
      </trkpt>
      <trkpt lat="39.850727" lon="-8.855989">
        <ele>49.8</ele>
        <time>1970-01-01T01:42:34.000Z</time>
      </trkpt>
      <trkpt lat="39.850712" lon="-8.856012">
        <ele>49.9</ele>
        <time>1970-01-01T01:42:35.000Z</time>
      </trkpt>
      <trkpt lat="39.850695" lon="-8.856034">
        <ele>49.9</ele>
        <time>1970-01-01T01:42:36.000Z</time>
      </trkpt>
      <trkpt lat="39.850678" lon="-8.856057">
        <ele>50</ele>
        <time>1970-01-01T01:42:37.000Z</time>
      </trkpt>
      <trkpt lat="39.850659" lon="-8.856085">
        <ele>50.1</ele>
        <time>1970-01-01T01:42:38.000Z</time>
      </trkpt>
      <trkpt lat="39.850638" lon="-8.856114">
        <ele>50.2</ele>
        <time>1970-01-01T01:42:39.000Z</time>
      </trkpt>
      <trkpt lat="39.850618" lon="-8.856141">
        <ele>50.2</ele>
        <time>1970-01-01T01:42:40.000Z</time>
      </trkpt>
      <trkpt lat="39.850597" lon="-8.856164">
        <ele>50.2</ele>
        <time>1970-01-01T01:42:41.000Z</time>
      </trkpt>
      <trkpt lat="39.850577" lon="-8.856184">
        <ele>50.2</ele>
        <time>1970-01-01T01:42:42.000Z</time>
      </trkpt>
      <trkpt lat="39.850557" lon="-8.856199">
        <ele>50.2</ele>
        <time>1970-01-01T01:42:43.000Z</time>
      </trkpt>
      <trkpt lat="39.850535" lon="-8.856205">
        <ele>50.2</ele>
        <time>1970-01-01T01:42:44.000Z</time>
      </trkpt>
      <trkpt lat="39.850513" lon="-8.856205">
        <ele>50.2</ele>
        <time>1970-01-01T01:42:45.000Z</time>
      </trkpt>
      <trkpt lat="39.850492" lon="-8.8562">
        <ele>50.7</ele>
        <time>1970-01-01T01:42:46.000Z</time>
      </trkpt>
      <trkpt lat="39.850473" lon="-8.85619">
        <ele>50.9</ele>
        <time>1970-01-01T01:42:47.000Z</time>
      </trkpt>
      <trkpt lat="39.850455" lon="-8.856177">
        <ele>51.1</ele>
        <time>1970-01-01T01:42:48.000Z</time>
      </trkpt>
      <trkpt lat="39.850437" lon="-8.85616">
        <ele>51.4</ele>
        <time>1970-01-01T01:42:49.000Z</time>
      </trkpt>
      <trkpt lat="39.850421" lon="-8.856141">
        <ele>51.6</ele>
        <time>1970-01-01T01:42:50.000Z</time>
      </trkpt>
      <trkpt lat="39.850405" lon="-8.85612">
        <ele>51.9</ele>
        <time>1970-01-01T01:42:51.000Z</time>
      </trkpt>
      <trkpt lat="39.850392" lon="-8.8561">
        <ele>52.1</ele>
        <time>1970-01-01T01:42:52.000Z</time>
      </trkpt>
      <trkpt lat="39.85038" lon="-8.856082">
        <ele>52.4</ele>
        <time>1970-01-01T01:42:53.000Z</time>
      </trkpt>
      <trkpt lat="39.850371" lon="-8.856065">
        <ele>52.6</ele>
        <time>1970-01-01T01:42:54.000Z</time>
      </trkpt>
      <trkpt lat="39.850362" lon="-8.856052">
        <ele>52.7</ele>
        <time>1970-01-01T01:42:55.000Z</time>
      </trkpt>
      <trkpt lat="39.850354" lon="-8.856039">
        <ele>52.9</ele>
        <time>1970-01-01T01:42:56.000Z</time>
      </trkpt>
      <trkpt lat="39.850347" lon="-8.856028">
        <ele>53</ele>
        <time>1970-01-01T01:42:57.000Z</time>
      </trkpt>
      <trkpt lat="39.85034" lon="-8.856018">
        <ele>53.1</ele>
        <time>1970-01-01T01:42:58.000Z</time>
      </trkpt>
      <trkpt lat="39.850332" lon="-8.856008">
        <ele>53.3</ele>
        <time>1970-01-01T01:42:59.000Z</time>
      </trkpt>
      <trkpt lat="39.850322" lon="-8.855999">
        <ele>53.4</ele>
        <time>1970-01-01T01:43:00.000Z</time>
      </trkpt>
      <trkpt lat="39.850313" lon="-8.85599">
        <ele>53.5</ele>
        <time>1970-01-01T01:43:01.000Z</time>
      </trkpt>
      <trkpt lat="39.850303" lon="-8.855981">
        <ele>53.7</ele>
        <time>1970-01-01T01:43:02.000Z</time>
      </trkpt>
      <trkpt lat="39.850293" lon="-8.855973">
        <ele>53.8</ele>
        <time>1970-01-01T01:43:03.000Z</time>
      </trkpt>
      <trkpt lat="39.850283" lon="-8.855965">
        <ele>53.9</ele>
        <time>1970-01-01T01:43:04.000Z</time>
      </trkpt>
      <trkpt lat="39.850271" lon="-8.855957">
        <ele>54.1</ele>
        <time>1970-01-01T01:43:05.000Z</time>
      </trkpt>
      <trkpt lat="39.850259" lon="-8.855952">
        <ele>54.2</ele>
        <time>1970-01-01T01:43:06.000Z</time>
      </trkpt>
      <trkpt lat="39.850246" lon="-8.85595">
        <ele>54.4</ele>
        <time>1970-01-01T01:43:07.000Z</time>
      </trkpt>
      <trkpt lat="39.85023" lon="-8.855948">
        <ele>54.5</ele>
        <time>1970-01-01T01:43:08.000Z</time>
      </trkpt>
      <trkpt lat="39.850214" lon="-8.855949">
        <ele>54.7</ele>
        <time>1970-01-01T01:43:09.000Z</time>
      </trkpt>
      <trkpt lat="39.850199" lon="-8.855954">
        <ele>54.9</ele>
        <time>1970-01-01T01:43:10.000Z</time>
      </trkpt>
      <trkpt lat="39.850185" lon="-8.855964">
        <ele>55</ele>
        <time>1970-01-01T01:43:11.000Z</time>
      </trkpt>
      <trkpt lat="39.850174" lon="-8.855976">
        <ele>55.6</ele>
        <time>1970-01-01T01:43:12.000Z</time>
      </trkpt>
      <trkpt lat="39.850167" lon="-8.855989">
        <ele>55.6</ele>
        <time>1970-01-01T01:43:13.000Z</time>
      </trkpt>
      <trkpt lat="39.850162" lon="-8.856004">
        <ele>55.7</ele>
        <time>1970-01-01T01:43:14.000Z</time>
      </trkpt>
      <trkpt lat="39.850162" lon="-8.856019">
        <ele>55.7</ele>
        <time>1970-01-01T01:43:15.000Z</time>
      </trkpt>
      <trkpt lat="39.850163" lon="-8.856032">
        <ele>55.8</ele>
        <time>1970-01-01T01:43:16.000Z</time>
      </trkpt>
      <trkpt lat="39.850164" lon="-8.856045">
        <ele>55.8</ele>
        <time>1970-01-01T01:43:17.000Z</time>
      </trkpt>
      <trkpt lat="39.850164" lon="-8.856057">
        <ele>55.8</ele>
        <time>1970-01-01T01:43:18.000Z</time>
      </trkpt>
      <trkpt lat="39.850164" lon="-8.856067">
        <ele>55.9</ele>
        <time>1970-01-01T01:43:19.000Z</time>
      </trkpt>
      <trkpt lat="39.850167" lon="-8.856075">
        <ele>55.9</ele>
        <time>1970-01-01T01:43:20.000Z</time>
      </trkpt>
      <trkpt lat="39.850169" lon="-8.856081">
        <ele>55.9</ele>
        <time>1970-01-01T01:43:21.000Z</time>
      </trkpt>
      <trkpt lat="39.850171" lon="-8.856087">
        <ele>55.9</ele>
        <time>1970-01-01T01:43:22.000Z</time>
      </trkpt>
      <trkpt lat="39.850169" lon="-8.856104">
        <ele>56</ele>
        <time>1970-01-01T01:43:24.000Z</time>
      </trkpt>
      <trkpt lat="39.850168" lon="-8.856105">
        <ele>56</ele>
        <time>1970-01-01T01:43:25.000Z</time>
      </trkpt>
      <trkpt lat="39.850165" lon="-8.856107">
        <ele>56</ele>
        <time>1970-01-01T01:43:26.000Z</time>
      </trkpt>
      <trkpt lat="39.85016" lon="-8.856107">
        <ele>56</ele>
        <time>1970-01-01T01:43:27.000Z</time>
      </trkpt>
      <trkpt lat="39.850151" lon="-8.856111">
        <ele>56</ele>
        <time>1970-01-01T01:43:28.000Z</time>
      </trkpt>
      <trkpt lat="39.850141" lon="-8.856113">
        <ele>56.1</ele>
        <time>1970-01-01T01:43:29.000Z</time>
      </trkpt>
      <trkpt lat="39.850128" lon="-8.856114">
        <ele>56.1</ele>
        <time>1970-01-01T01:43:30.000Z</time>
      </trkpt>
      <trkpt lat="39.850086" lon="-8.856116">
        <ele>56.2</ele>
        <time>1970-01-01T01:43:31.000Z</time>
      </trkpt>
      <trkpt lat="39.850079" lon="-8.856117">
        <ele>56.3</ele>
        <time>1970-01-01T01:43:32.000Z</time>
      </trkpt>
      <trkpt lat="39.850068" lon="-8.85612">
        <ele>56.3</ele>
        <time>1970-01-01T01:43:33.000Z</time>
      </trkpt>
      <trkpt lat="39.85006" lon="-8.856123">
        <ele>56.3</ele>
        <time>1970-01-01T01:43:34.000Z</time>
      </trkpt>
      <trkpt lat="39.850051" lon="-8.856134">
        <ele>56.4</ele>
        <time>1970-01-01T01:43:37.000Z</time>
      </trkpt>
      <trkpt lat="39.850051" lon="-8.856135">
        <ele>56.4</ele>
        <time>1970-01-01T01:43:38.000Z</time>
      </trkpt>
      <trkpt lat="39.850053" lon="-8.856138">
        <ele>56.4</ele>
        <time>1970-01-01T01:43:39.000Z</time>
      </trkpt>
      <trkpt lat="39.850051" lon="-8.856148">
        <ele>56.4</ele>
        <time>1970-01-01T01:43:41.000Z</time>
      </trkpt>
      <trkpt lat="39.850049" lon="-8.856148">
        <ele>56.4</ele>
        <time>1970-01-01T01:43:42.000Z</time>
      </trkpt>
      <trkpt lat="39.850044" lon="-8.85615">
        <ele>56.4</ele>
        <time>1970-01-01T01:43:43.000Z</time>
      </trkpt>
      <trkpt lat="39.850039" lon="-8.856153">
        <ele>56.4</ele>
        <time>1970-01-01T01:43:44.000Z</time>
      </trkpt>
      <trkpt lat="39.850037" lon="-8.856156">
        <ele>56.4</ele>
        <time>1970-01-01T01:43:45.000Z</time>
      </trkpt>
      <trkpt lat="39.850035" lon="-8.856158">
        <ele>56.4</ele>
        <time>1970-01-01T01:43:46.000Z</time>
      </trkpt>
      <trkpt lat="39.850034" lon="-8.856158">
        <ele>56.4</ele>
        <time>1970-01-01T01:43:47.000Z</time>
      </trkpt>
      <trkpt lat="39.85003" lon="-8.856154">
        <ele>56.4</ele>
        <time>1970-01-01T01:43:48.000Z</time>
      </trkpt>
      <trkpt lat="39.850023" lon="-8.856148">
        <ele>56.5</ele>
        <time>1970-01-01T01:43:49.000Z</time>
      </trkpt>
      <trkpt lat="39.850019" lon="-8.856142">
        <ele>56.5</ele>
        <time>1970-01-01T01:43:50.000Z</time>
      </trkpt>
      <trkpt lat="39.850013" lon="-8.856136">
        <ele>56.5</ele>
        <time>1970-01-01T01:43:51.000Z</time>
      </trkpt>
      <trkpt lat="39.850006" lon="-8.856131">
        <ele>56.5</ele>
        <time>1970-01-01T01:43:52.000Z</time>
      </trkpt>
      <trkpt lat="39.850007" lon="-8.856136">
        <ele>56.5</ele>
        <time>1970-01-01T01:43:53.000Z</time>
      </trkpt>
      <trkpt lat="39.850011" lon="-8.856134">
        <ele>56.5</ele>
        <time>1970-01-01T01:43:55.000Z</time>
      </trkpt>
      <trkpt lat="39.850011" lon="-8.856134">
        <ele>56.5</ele>
        <time>1970-01-01T01:43:56.000Z</time>
      </trkpt>
      <trkpt lat="39.850013" lon="-8.856135">
        <ele>56.5</ele>
        <time>1970-01-01T01:43:57.000Z</time>
      </trkpt>
      <trkpt lat="39.850021" lon="-8.856137">
        <ele>56.5</ele>
        <time>1970-01-01T01:43:58.000Z</time>
      </trkpt>
      <trkpt lat="39.85003" lon="-8.85614">
        <ele>56.5</ele>
        <time>1970-01-01T01:43:59.000Z</time>
      </trkpt>
      <trkpt lat="39.85004" lon="-8.856141">
        <ele>56.6</ele>
        <time>1970-01-01T01:44:00.000Z</time>
      </trkpt>
      <trkpt lat="39.85005" lon="-8.856142">
        <ele>56.6</ele>
        <time>1970-01-01T01:44:01.000Z</time>
      </trkpt>
      <trkpt lat="39.850061" lon="-8.856142">
        <ele>56.6</ele>
        <time>1970-01-01T01:44:02.000Z</time>
      </trkpt>
      <trkpt lat="39.850072" lon="-8.856142">
        <ele>56.6</ele>
        <time>1970-01-01T01:44:03.000Z</time>
      </trkpt>
      <trkpt lat="39.850084" lon="-8.856139">
        <ele>56.6</ele>
        <time>1970-01-01T01:44:04.000Z</time>
      </trkpt>
      <trkpt lat="39.850094" lon="-8.856137">
        <ele>56.6</ele>
        <time>1970-01-01T01:44:05.000Z</time>
      </trkpt>
      <trkpt lat="39.850103" lon="-8.856136">
        <ele>56.6</ele>
        <time>1970-01-01T01:44:06.000Z</time>
      </trkpt>
      <trkpt lat="39.850114" lon="-8.856136">
        <ele>56.7</ele>
        <time>1970-01-01T01:44:07.000Z</time>
      </trkpt>
      <trkpt lat="39.850124" lon="-8.856138">
        <ele>56.7</ele>
        <time>1970-01-01T01:44:08.000Z</time>
      </trkpt>
      <trkpt lat="39.850132" lon="-8.856136">
        <ele>56.7</ele>
        <time>1970-01-01T01:44:09.000Z</time>
      </trkpt>
      <trkpt lat="39.850136" lon="-8.856129">
        <ele>56.7</ele>
        <time>1970-01-01T01:44:10.000Z</time>
      </trkpt>
      <trkpt lat="39.850139" lon="-8.856121">
        <ele>56.7</ele>
        <time>1970-01-01T01:44:11.000Z</time>
      </trkpt>
      <trkpt lat="39.85014" lon="-8.856113">
        <ele>56.7</ele>
        <time>1970-01-01T01:44:12.000Z</time>
      </trkpt>
      <trkpt lat="39.850139" lon="-8.856104">
        <ele>56.7</ele>
        <time>1970-01-01T01:44:13.000Z</time>
      </trkpt>
      <trkpt lat="39.850136" lon="-8.856094">
        <ele>56.7</ele>
        <time>1970-01-01T01:44:14.000Z</time>
      </trkpt>
      <trkpt lat="39.850132" lon="-8.856085">
        <ele>56.7</ele>
        <time>1970-01-01T01:44:15.000Z</time>
      </trkpt>
      <trkpt lat="39.850117" lon="-8.856068">
        <ele>56.7</ele>
        <time>1970-01-01T01:44:21.000Z</time>
      </trkpt>
      <trkpt lat="39.850114" lon="-8.856073">
        <ele>56.7</ele>
        <time>1970-01-01T01:44:23.000Z</time>
      </trkpt>
      <trkpt lat="39.850113" lon="-8.856075">
        <ele>56.7</ele>
        <time>1970-01-01T01:44:24.000Z</time>
      </trkpt>
      <trkpt lat="39.850113" lon="-8.856081">
        <ele>56.7</ele>
        <time>1970-01-01T01:44:25.000Z</time>
      </trkpt>
      <trkpt lat="39.850113" lon="-8.856086">
        <ele>56.7</ele>
        <time>1970-01-01T01:44:26.000Z</time>
      </trkpt>
      <trkpt lat="39.850114" lon="-8.856108">
        <ele>56.7</ele>
        <time>1970-01-01T01:44:27.000Z</time>
      </trkpt>
      <trkpt lat="39.850115" lon="-8.85611">
        <ele>56.7</ele>
        <time>1970-01-01T01:44:28.000Z</time>
      </trkpt>
      <trkpt lat="39.850117" lon="-8.856114">
        <ele>56.7</ele>
        <time>1970-01-01T01:44:29.000Z</time>
      </trkpt>
      <trkpt lat="39.850121" lon="-8.856124">
        <ele>56.7</ele>
        <time>1970-01-01T01:44:32.000Z</time>
      </trkpt>
      <trkpt lat="39.85012" lon="-8.856124">
        <ele>56.7</ele>
        <time>1970-01-01T01:44:33.000Z</time>
      </trkpt>
      <trkpt lat="39.850117" lon="-8.856122">
        <ele>56.7</ele>
        <time>1970-01-01T01:44:34.000Z</time>
      </trkpt>
      <trkpt lat="39.850114" lon="-8.856121">
        <ele>56.7</ele>
        <time>1970-01-01T01:44:35.000Z</time>
      </trkpt>
      <trkpt lat="39.850111" lon="-8.85612">
        <ele>56.7</ele>
        <time>1970-01-01T01:44:36.000Z</time>
      </trkpt>
      <trkpt lat="39.850106" lon="-8.856121">
        <ele>56.7</ele>
        <time>1970-01-01T01:44:38.000Z</time>
      </trkpt>
      <trkpt lat="39.850105" lon="-8.856122">
        <ele>56.7</ele>
        <time>1970-01-01T01:44:39.000Z</time>
      </trkpt>
      <trkpt lat="39.850111" lon="-8.856118">
        <ele>56.7</ele>
        <time>1970-01-01T01:44:58.000Z</time>
      </trkpt>
      <trkpt lat="39.850116" lon="-8.85613">
        <ele>56.7</ele>
        <time>1970-01-01T01:45:10.000Z</time>
      </trkpt>
      <trkpt lat="39.850116" lon="-8.856131">
        <ele>56.7</ele>
        <time>1970-01-01T01:45:11.000Z</time>
      </trkpt>
      <trkpt lat="39.850121" lon="-8.856143">
        <ele>56.7</ele>
        <time>1970-01-01T01:45:23.000Z</time>
      </trkpt>
      <trkpt lat="39.850123" lon="-8.856143">
        <ele>56.7</ele>
        <time>1970-01-01T01:45:27.000Z</time>
      </trkpt>
      <trkpt lat="39.850124" lon="-8.856142">
        <ele>56.7</ele>
        <time>1970-01-01T01:45:28.000Z</time>
      </trkpt>
      <trkpt lat="39.850126" lon="-8.856142">
        <ele>56.7</ele>
        <time>1970-01-01T01:45:29.000Z</time>
      </trkpt>
      <trkpt lat="39.850139" lon="-8.856133">
        <ele>56.6</ele>
        <time>1970-01-01T01:45:54.000Z</time>
      </trkpt>
      <trkpt lat="39.850144" lon="-8.856133">
        <ele>56.6</ele>
        <time>1970-01-01T01:45:56.000Z</time>
      </trkpt>
      <trkpt lat="39.850143" lon="-8.856138">
        <ele>56.6</ele>
        <time>1970-01-01T01:46:12.000Z</time>
      </trkpt>
      <trkpt lat="39.850139" lon="-8.856138">
        <ele>56.6</ele>
        <time>1970-01-01T01:46:13.000Z</time>
      </trkpt>
      <trkpt lat="39.850132" lon="-8.85614">
        <ele>56.6</ele>
        <time>1970-01-01T01:46:14.000Z</time>
      </trkpt>
      <trkpt lat="39.850104" lon="-8.85615">
        <ele>56.6</ele>
        <time>1970-01-01T01:46:15.000Z</time>
      </trkpt>
      <trkpt lat="39.850102" lon="-8.856151">
        <ele>56.6</ele>
        <time>1970-01-01T01:46:16.000Z</time>
      </trkpt>
      <trkpt lat="39.850098" lon="-8.856154">
        <ele>56.6</ele>
        <time>1970-01-01T01:46:17.000Z</time>
      </trkpt>
      <trkpt lat="39.850091" lon="-8.856157">
        <ele>56.6</ele>
        <time>1970-01-01T01:46:18.000Z</time>
      </trkpt>
      <trkpt lat="39.850046" lon="-8.856181">
        <ele>56.5</ele>
        <time>1970-01-01T01:46:21.000Z</time>
      </trkpt>
      <trkpt lat="39.850043" lon="-8.856171">
        <ele>56.4</ele>
        <time>1970-01-01T01:46:23.000Z</time>
      </trkpt>
      <trkpt lat="39.850044" lon="-8.85617">
        <ele>56.4</ele>
        <time>1970-01-01T01:46:24.000Z</time>
      </trkpt>
      <trkpt lat="39.850041" lon="-8.856165">
        <ele>56.4</ele>
        <time>1970-01-01T01:46:26.000Z</time>
      </trkpt>
      <trkpt lat="39.85004" lon="-8.856165">
        <ele>56.4</ele>
        <time>1970-01-01T01:46:27.000Z</time>
      </trkpt>
      <trkpt lat="39.850038" lon="-8.856163">
        <ele>56.4</ele>
        <time>1970-01-01T01:46:28.000Z</time>
      </trkpt>
      <trkpt lat="39.850034" lon="-8.856161">
        <ele>56.4</ele>
        <time>1970-01-01T01:46:29.000Z</time>
      </trkpt>
      <trkpt lat="39.850023" lon="-8.856158">
        <ele>56.4</ele>
        <time>1970-01-01T01:46:31.000Z</time>
      </trkpt>
      <trkpt lat="39.850031" lon="-8.856158">
        <ele>56.4</ele>
        <time>1970-01-01T01:46:33.000Z</time>
      </trkpt>
      <trkpt lat="39.850031" lon="-8.856157">
        <ele>56.4</ele>
        <time>1970-01-01T01:46:34.000Z</time>
      </trkpt>
      <trkpt lat="39.850031" lon="-8.856157">
        <ele>56.4</ele>
        <time>1970-01-01T01:46:35.000Z</time>
      </trkpt>
      <trkpt lat="39.850028" lon="-8.856161">
        <ele>56.4</ele>
        <time>1970-01-01T01:46:38.000Z</time>
      </trkpt>
      <trkpt lat="39.850026" lon="-8.856162">
        <ele>56.3</ele>
        <time>1970-01-01T01:46:39.000Z</time>
      </trkpt>
      <trkpt lat="39.850022" lon="-8.856161">
        <ele>56.3</ele>
        <time>1970-01-01T01:46:40.000Z</time>
      </trkpt>
      <trkpt lat="39.850016" lon="-8.856159">
        <ele>56.3</ele>
        <time>1970-01-01T01:46:41.000Z</time>
      </trkpt>
      <trkpt lat="39.85001" lon="-8.856154">
        <ele>56.3</ele>
        <time>1970-01-01T01:46:42.000Z</time>
      </trkpt>
      <trkpt lat="39.849993" lon="-8.856135">
        <ele>56.2</ele>
        <time>1970-01-01T01:46:43.000Z</time>
      </trkpt>
      <trkpt lat="39.849989" lon="-8.856128">
        <ele>56.2</ele>
        <time>1970-01-01T01:46:44.000Z</time>
      </trkpt>
      <trkpt lat="39.849988" lon="-8.856127">
        <ele>56.2</ele>
        <time>1970-01-01T01:46:45.000Z</time>
      </trkpt>
      <trkpt lat="39.84999" lon="-8.856126">
        <ele>56.2</ele>
        <time>1970-01-01T01:46:46.000Z</time>
      </trkpt>
      <trkpt lat="39.849992" lon="-8.856125">
        <ele>56.2</ele>
        <time>1970-01-01T01:46:47.000Z</time>
      </trkpt>
      <trkpt lat="39.849992" lon="-8.856127">
        <ele>56.2</ele>
        <time>1970-01-01T01:46:48.000Z</time>
      </trkpt>
      <trkpt lat="39.849991" lon="-8.856129">
        <ele>56.2</ele>
        <time>1970-01-01T01:46:49.000Z</time>
      </trkpt>
      <trkpt lat="39.84999" lon="-8.856131">
        <ele>56.2</ele>
        <time>1970-01-01T01:46:50.000Z</time>
      </trkpt>
      <trkpt lat="39.849983" lon="-8.856136">
        <ele>56.2</ele>
        <time>1970-01-01T01:47:15.000Z</time>
      </trkpt>
      <trkpt lat="39.849983" lon="-8.856136">
        <ele>56.2</ele>
        <time>1970-01-01T01:47:21.000Z</time>
      </trkpt>
      <trkpt lat="39.849982" lon="-8.856137">
        <ele>56.1</ele>
        <time>1970-01-01T01:47:22.000Z</time>
      </trkpt>
      <trkpt lat="39.84998" lon="-8.856139">
        <ele>56.1</ele>
        <time>1970-01-01T01:47:23.000Z</time>
      </trkpt>
      <trkpt lat="39.849976" lon="-8.856145">
        <ele>56.1</ele>
        <time>1970-01-01T01:47:26.000Z</time>
      </trkpt>
      <trkpt lat="39.849975" lon="-8.856145">
        <ele>56.1</ele>
        <time>1970-01-01T01:47:27.000Z</time>
      </trkpt>
      <trkpt lat="39.849974" lon="-8.856146">
        <ele>56.1</ele>
        <time>1970-01-01T01:47:28.000Z</time>
      </trkpt>
      <trkpt lat="39.849968" lon="-8.85615">
        <ele>56.1</ele>
        <time>1970-01-01T01:47:31.000Z</time>
      </trkpt>
      <trkpt lat="39.849968" lon="-8.856156">
        <ele>56.1</ele>
        <time>1970-01-01T01:47:38.000Z</time>
      </trkpt>
      <trkpt lat="39.849967" lon="-8.85616">
        <ele>56.1</ele>
        <time>1970-01-01T01:47:39.000Z</time>
      </trkpt>
      <trkpt lat="39.849964" lon="-8.856166">
        <ele>56</ele>
        <time>1970-01-01T01:47:40.000Z</time>
      </trkpt>
      <trkpt lat="39.849946" lon="-8.856191">
        <ele>55.9</ele>
        <time>1970-01-01T01:47:41.000Z</time>
      </trkpt>
      <trkpt lat="39.849943" lon="-8.856195">
        <ele>55.9</ele>
        <time>1970-01-01T01:47:42.000Z</time>
      </trkpt>
      <trkpt lat="39.849937" lon="-8.856203">
        <ele>55.9</ele>
        <time>1970-01-01T01:47:43.000Z</time>
      </trkpt>
      <trkpt lat="39.849928" lon="-8.856214">
        <ele>55.9</ele>
        <time>1970-01-01T01:47:44.000Z</time>
      </trkpt>
      <trkpt lat="39.849918" lon="-8.856227">
        <ele>55.8</ele>
        <time>1970-01-01T01:47:45.000Z</time>
      </trkpt>
      <trkpt lat="39.849906" lon="-8.856244">
        <ele>55.7</ele>
        <time>1970-01-01T01:47:46.000Z</time>
      </trkpt>
      <trkpt lat="39.849894" lon="-8.856262">
        <ele>55.6</ele>
        <time>1970-01-01T01:47:47.000Z</time>
      </trkpt>
      <trkpt lat="39.84988" lon="-8.856275">
        <ele>55.6</ele>
        <time>1970-01-01T01:47:48.000Z</time>
      </trkpt>
      <trkpt lat="39.849865" lon="-8.856283">
        <ele>55.5</ele>
        <time>1970-01-01T01:47:49.000Z</time>
      </trkpt>
      <trkpt lat="39.849848" lon="-8.856286">
        <ele>55.4</ele>
        <time>1970-01-01T01:47:50.000Z</time>
      </trkpt>
      <trkpt lat="39.849833" lon="-8.856286">
        <ele>55.4</ele>
        <time>1970-01-01T01:47:51.000Z</time>
      </trkpt>
      <trkpt lat="39.849817" lon="-8.856281">
        <ele>55.3</ele>
        <time>1970-01-01T01:47:52.000Z</time>
      </trkpt>
      <trkpt lat="39.849801" lon="-8.856268">
        <ele>55.2</ele>
        <time>1970-01-01T01:47:53.000Z</time>
      </trkpt>
      <trkpt lat="39.849787" lon="-8.856253">
        <ele>55.1</ele>
        <time>1970-01-01T01:47:54.000Z</time>
      </trkpt>
      <trkpt lat="39.849774" lon="-8.856237">
        <ele>55</ele>
        <time>1970-01-01T01:47:55.000Z</time>
      </trkpt>
      <trkpt lat="39.849763" lon="-8.85622">
        <ele>55</ele>
        <time>1970-01-01T01:47:56.000Z</time>
      </trkpt>
      <trkpt lat="39.849758" lon="-8.856203">
        <ele>54.9</ele>
        <time>1970-01-01T01:47:57.000Z</time>
      </trkpt>
      <trkpt lat="39.849762" lon="-8.856186">
        <ele>54.8</ele>
        <time>1970-01-01T01:47:58.000Z</time>
      </trkpt>
      <trkpt lat="39.84977" lon="-8.856171">
        <ele>54.8</ele>
        <time>1970-01-01T01:47:59.000Z</time>
      </trkpt>
      <trkpt lat="39.849784" lon="-8.856158">
        <ele>54.7</ele>
        <time>1970-01-01T01:48:00.000Z</time>
      </trkpt>
      <trkpt lat="39.849798" lon="-8.856146">
        <ele>54.6</ele>
        <time>1970-01-01T01:48:01.000Z</time>
      </trkpt>
      <trkpt lat="39.84981" lon="-8.85613">
        <ele>54.5</ele>
        <time>1970-01-01T01:48:02.000Z</time>
      </trkpt>
      <trkpt lat="39.849819" lon="-8.856113">
        <ele>54.4</ele>
        <time>1970-01-01T01:48:03.000Z</time>
      </trkpt>
      <trkpt lat="39.849825" lon="-8.856095">
        <ele>54.3</ele>
        <time>1970-01-01T01:48:04.000Z</time>
      </trkpt>
      <trkpt lat="39.849825" lon="-8.856077">
        <ele>54.3</ele>
        <time>1970-01-01T01:48:05.000Z</time>
      </trkpt>
      <trkpt lat="39.849821" lon="-8.856062">
        <ele>54.2</ele>
        <time>1970-01-01T01:48:06.000Z</time>
      </trkpt>
      <trkpt lat="39.849812" lon="-8.856051">
        <ele>54.1</ele>
        <time>1970-01-01T01:48:07.000Z</time>
      </trkpt>
      <trkpt lat="39.849802" lon="-8.856046">
        <ele>54.1</ele>
        <time>1970-01-01T01:48:08.000Z</time>
      </trkpt>
      <trkpt lat="39.849791" lon="-8.856048">
        <ele>54</ele>
        <time>1970-01-01T01:48:09.000Z</time>
      </trkpt>
      <trkpt lat="39.849781" lon="-8.856055">
        <ele>54</ele>
        <time>1970-01-01T01:48:10.000Z</time>
      </trkpt>
      <trkpt lat="39.84977" lon="-8.856067">
        <ele>53.9</ele>
        <time>1970-01-01T01:48:11.000Z</time>
      </trkpt>
      <trkpt lat="39.849758" lon="-8.856083">
        <ele>53.8</ele>
        <time>1970-01-01T01:48:12.000Z</time>
      </trkpt>
      <trkpt lat="39.849744" lon="-8.856101">
        <ele>53.7</ele>
        <time>1970-01-01T01:48:13.000Z</time>
      </trkpt>
      <trkpt lat="39.849732" lon="-8.856125">
        <ele>53.6</ele>
        <time>1970-01-01T01:48:14.000Z</time>
      </trkpt>
      <trkpt lat="39.849723" lon="-8.856153">
        <ele>53.4</ele>
        <time>1970-01-01T01:48:15.000Z</time>
      </trkpt>
      <trkpt lat="39.849716" lon="-8.856185">
        <ele>53.3</ele>
        <time>1970-01-01T01:48:16.000Z</time>
      </trkpt>
      <trkpt lat="39.84971" lon="-8.85622">
        <ele>53.1</ele>
        <time>1970-01-01T01:48:17.000Z</time>
      </trkpt>
      <trkpt lat="39.849707" lon="-8.856255">
        <ele>52.9</ele>
        <time>1970-01-01T01:48:18.000Z</time>
      </trkpt>
      <trkpt lat="39.849708" lon="-8.856292">
        <ele>52.7</ele>
        <time>1970-01-01T01:48:19.000Z</time>
      </trkpt>
      <trkpt lat="39.849715" lon="-8.856334">
        <ele>52.5</ele>
        <time>1970-01-01T01:48:20.000Z</time>
      </trkpt>
      <trkpt lat="39.849727" lon="-8.856378">
        <ele>52.2</ele>
        <time>1970-01-01T01:48:21.000Z</time>
      </trkpt>
      <trkpt lat="39.849745" lon="-8.856423">
        <ele>51.9</ele>
        <time>1970-01-01T01:48:22.000Z</time>
      </trkpt>
      <trkpt lat="39.849766" lon="-8.85647">
        <ele>51.5</ele>
        <time>1970-01-01T01:48:23.000Z</time>
      </trkpt>
      <trkpt lat="39.849791" lon="-8.856518">
        <ele>51.1</ele>
        <time>1970-01-01T01:48:24.000Z</time>
      </trkpt>
      <trkpt lat="39.849816" lon="-8.856568">
        <ele>50.7</ele>
        <time>1970-01-01T01:48:25.000Z</time>
      </trkpt>
      <trkpt lat="39.849838" lon="-8.856618">
        <ele>50.2</ele>
        <time>1970-01-01T01:48:26.000Z</time>
      </trkpt>
      <trkpt lat="39.849858" lon="-8.856669">
        <ele>49.8</ele>
        <time>1970-01-01T01:48:27.000Z</time>
      </trkpt>
      <trkpt lat="39.849876" lon="-8.856719">
        <ele>49.4</ele>
        <time>1970-01-01T01:48:28.000Z</time>
      </trkpt>
      <trkpt lat="39.849891" lon="-8.856769">
        <ele>49</ele>
        <time>1970-01-01T01:48:29.000Z</time>
      </trkpt>
      <trkpt lat="39.849902" lon="-8.856817">
        <ele>48.6</ele>
        <time>1970-01-01T01:48:30.000Z</time>
      </trkpt>
      <trkpt lat="39.849913" lon="-8.856862">
        <ele>48.3</ele>
        <time>1970-01-01T01:48:31.000Z</time>
      </trkpt>
      <trkpt lat="39.849922" lon="-8.856901">
        <ele>48</ele>
        <time>1970-01-01T01:48:32.000Z</time>
      </trkpt>
      <trkpt lat="39.849932" lon="-8.856935">
        <ele>47.8</ele>
        <time>1970-01-01T01:48:33.000Z</time>
      </trkpt>
      <trkpt lat="39.849944" lon="-8.856964">
        <ele>47.6</ele>
        <time>1970-01-01T01:48:34.000Z</time>
      </trkpt>
      <trkpt lat="39.84996" lon="-8.856991">
        <ele>47.4</ele>
        <time>1970-01-01T01:48:35.000Z</time>
      </trkpt>
      <trkpt lat="39.849979" lon="-8.85702">
        <ele>47.2</ele>
        <time>1970-01-01T01:48:36.000Z</time>
      </trkpt>
      <trkpt lat="39.849999" lon="-8.857047">
        <ele>47</ele>
        <time>1970-01-01T01:48:37.000Z</time>
      </trkpt>
      <trkpt lat="39.850023" lon="-8.857073">
        <ele>47</ele>
        <time>1970-01-01T01:48:38.000Z</time>
      </trkpt>
      <trkpt lat="39.850047" lon="-8.857094">
        <ele>47</ele>
        <time>1970-01-01T01:48:39.000Z</time>
      </trkpt>
      <trkpt lat="39.85007" lon="-8.857112">
        <ele>47</ele>
        <time>1970-01-01T01:48:40.000Z</time>
      </trkpt>
      <trkpt lat="39.850093" lon="-8.85713">
        <ele>46.9</ele>
        <time>1970-01-01T01:48:41.000Z</time>
      </trkpt>
      <trkpt lat="39.850115" lon="-8.857149">
        <ele>46.9</ele>
        <time>1970-01-01T01:48:42.000Z</time>
      </trkpt>
      <trkpt lat="39.850138" lon="-8.857174">
        <ele>46.9</ele>
        <time>1970-01-01T01:48:43.000Z</time>
      </trkpt>
      <trkpt lat="39.850159" lon="-8.857205">
        <ele>46.9</ele>
        <time>1970-01-01T01:48:44.000Z</time>
      </trkpt>
      <trkpt lat="39.850174" lon="-8.857241">
        <ele>46.9</ele>
        <time>1970-01-01T01:48:45.000Z</time>
      </trkpt>
      <trkpt lat="39.850186" lon="-8.857278">
        <ele>46.8</ele>
        <time>1970-01-01T01:48:46.000Z</time>
      </trkpt>
      <trkpt lat="39.850195" lon="-8.857319">
        <ele>46.8</ele>
        <time>1970-01-01T01:48:47.000Z</time>
      </trkpt>
      <trkpt lat="39.850199" lon="-8.857363">
        <ele>46.7</ele>
        <time>1970-01-01T01:48:48.000Z</time>
      </trkpt>
      <trkpt lat="39.850198" lon="-8.857413">
        <ele>46.7</ele>
        <time>1970-01-01T01:48:49.000Z</time>
      </trkpt>
      <trkpt lat="39.850192" lon="-8.857469">
        <ele>46.6</ele>
        <time>1970-01-01T01:48:50.000Z</time>
      </trkpt>
      <trkpt lat="39.850183" lon="-8.857528">
        <ele>46.5</ele>
        <time>1970-01-01T01:48:51.000Z</time>
      </trkpt>
      <trkpt lat="39.850171" lon="-8.857589">
        <ele>46.3</ele>
        <time>1970-01-01T01:48:52.000Z</time>
      </trkpt>
      <trkpt lat="39.850162" lon="-8.857656">
        <ele>46.1</ele>
        <time>1970-01-01T01:48:53.000Z</time>
      </trkpt>
      <trkpt lat="39.850156" lon="-8.857728">
        <ele>45.6</ele>
        <time>1970-01-01T01:48:54.000Z</time>
      </trkpt>
      <trkpt lat="39.850156" lon="-8.857807">
        <ele>44.6</ele>
        <time>1970-01-01T01:48:55.000Z</time>
      </trkpt>
      <trkpt lat="39.85016" lon="-8.857893">
        <ele>43.4</ele>
        <time>1970-01-01T01:48:56.000Z</time>
      </trkpt>
      <trkpt lat="39.850171" lon="-8.857983">
        <ele>42.3</ele>
        <time>1970-01-01T01:48:57.000Z</time>
      </trkpt>
      <trkpt lat="39.850189" lon="-8.858073">
        <ele>41.1</ele>
        <time>1970-01-01T01:48:58.000Z</time>
      </trkpt>
      <trkpt lat="39.850211" lon="-8.858165">
        <ele>39.9</ele>
        <time>1970-01-01T01:48:59.000Z</time>
      </trkpt>
      <trkpt lat="39.850237" lon="-8.858257">
        <ele>38.8</ele>
        <time>1970-01-01T01:49:00.000Z</time>
      </trkpt>
      <trkpt lat="39.850265" lon="-8.858351">
        <ele>37.6</ele>
        <time>1970-01-01T01:49:01.000Z</time>
      </trkpt>
      <trkpt lat="39.850293" lon="-8.858446">
        <ele>36.4</ele>
        <time>1970-01-01T01:49:02.000Z</time>
      </trkpt>
      <trkpt lat="39.850323" lon="-8.85854">
        <ele>35.2</ele>
        <time>1970-01-01T01:49:03.000Z</time>
      </trkpt>
      <trkpt lat="39.850354" lon="-8.858637">
        <ele>33.9</ele>
        <time>1970-01-01T01:49:04.000Z</time>
      </trkpt>
      <trkpt lat="39.850383" lon="-8.858735">
        <ele>32.8</ele>
        <time>1970-01-01T01:49:05.000Z</time>
      </trkpt>
      <trkpt lat="39.850408" lon="-8.858835">
        <ele>31.9</ele>
        <time>1970-01-01T01:49:06.000Z</time>
      </trkpt>
      <trkpt lat="39.850429" lon="-8.858941">
        <ele>31</ele>
        <time>1970-01-01T01:49:07.000Z</time>
      </trkpt>
      <trkpt lat="39.85045" lon="-8.859054">
        <ele>30.1</ele>
        <time>1970-01-01T01:49:08.000Z</time>
      </trkpt>
      <trkpt lat="39.850467" lon="-8.85917">
        <ele>29.3</ele>
        <time>1970-01-01T01:49:09.000Z</time>
      </trkpt>
      <trkpt lat="39.850482" lon="-8.859285">
        <ele>28.6</ele>
        <time>1970-01-01T01:49:10.000Z</time>
      </trkpt>
      <trkpt lat="39.850498" lon="-8.859395">
        <ele>28.1</ele>
        <time>1970-01-01T01:49:11.000Z</time>
      </trkpt>
      <trkpt lat="39.850515" lon="-8.859497">
        <ele>27.7</ele>
        <time>1970-01-01T01:49:12.000Z</time>
      </trkpt>
      <trkpt lat="39.850532" lon="-8.859589">
        <ele>27.4</ele>
        <time>1970-01-01T01:49:13.000Z</time>
      </trkpt>
      <trkpt lat="39.850548" lon="-8.85967">
        <ele>27.1</ele>
        <time>1970-01-01T01:49:14.000Z</time>
      </trkpt>
      <trkpt lat="39.850564" lon="-8.859742">
        <ele>26.9</ele>
        <time>1970-01-01T01:49:15.000Z</time>
      </trkpt>
      <trkpt lat="39.850581" lon="-8.859807">
        <ele>26.6</ele>
        <time>1970-01-01T01:49:16.000Z</time>
      </trkpt>
      <trkpt lat="39.850598" lon="-8.859869">
        <ele>26.4</ele>
        <time>1970-01-01T01:49:17.000Z</time>
      </trkpt>
      <trkpt lat="39.850615" lon="-8.859928">
        <ele>26.3</ele>
        <time>1970-01-01T01:49:18.000Z</time>
      </trkpt>
      <trkpt lat="39.850633" lon="-8.85999">
        <ele>26.2</ele>
        <time>1970-01-01T01:49:19.000Z</time>
      </trkpt>
      <trkpt lat="39.850653" lon="-8.860056">
        <ele>26.1</ele>
        <time>1970-01-01T01:49:20.000Z</time>
      </trkpt>
      <trkpt lat="39.850673" lon="-8.860124">
        <ele>25.9</ele>
        <time>1970-01-01T01:49:21.000Z</time>
      </trkpt>
      <trkpt lat="39.850691" lon="-8.860192">
        <ele>25.8</ele>
        <time>1970-01-01T01:49:22.000Z</time>
      </trkpt>
      <trkpt lat="39.850708" lon="-8.860264">
        <ele>25.7</ele>
        <time>1970-01-01T01:49:23.000Z</time>
      </trkpt>
      <trkpt lat="39.850726" lon="-8.860338">
        <ele>25.6</ele>
        <time>1970-01-01T01:49:24.000Z</time>
      </trkpt>
      <trkpt lat="39.850744" lon="-8.860413">
        <ele>25.4</ele>
        <time>1970-01-01T01:49:25.000Z</time>
      </trkpt>
      <trkpt lat="39.850761" lon="-8.860493">
        <ele>25.1</ele>
        <time>1970-01-01T01:49:26.000Z</time>
      </trkpt>
      <trkpt lat="39.850779" lon="-8.860578">
        <ele>24.7</ele>
        <time>1970-01-01T01:49:27.000Z</time>
      </trkpt>
      <trkpt lat="39.850797" lon="-8.860665">
        <ele>24.3</ele>
        <time>1970-01-01T01:49:28.000Z</time>
      </trkpt>
      <trkpt lat="39.850815" lon="-8.860748">
        <ele>24</ele>
        <time>1970-01-01T01:49:29.000Z</time>
      </trkpt>
      <trkpt lat="39.850834" lon="-8.86083">
        <ele>23.6</ele>
        <time>1970-01-01T01:49:30.000Z</time>
      </trkpt>
      <trkpt lat="39.850852" lon="-8.860912">
        <ele>23.3</ele>
        <time>1970-01-01T01:49:31.000Z</time>
      </trkpt>
      <trkpt lat="39.850871" lon="-8.860995">
        <ele>22.9</ele>
        <time>1970-01-01T01:49:32.000Z</time>
      </trkpt>
      <trkpt lat="39.85089" lon="-8.861078">
        <ele>22.6</ele>
        <time>1970-01-01T01:49:33.000Z</time>
      </trkpt>
      <trkpt lat="39.850908" lon="-8.861161">
        <ele>22.2</ele>
        <time>1970-01-01T01:49:34.000Z</time>
      </trkpt>
      <trkpt lat="39.850927" lon="-8.861241">
        <ele>21.9</ele>
        <time>1970-01-01T01:49:35.000Z</time>
      </trkpt>
      <trkpt lat="39.850945" lon="-8.861319">
        <ele>21.6</ele>
        <time>1970-01-01T01:49:36.000Z</time>
      </trkpt>
      <trkpt lat="39.850959" lon="-8.861394">
        <ele>21.4</ele>
        <time>1970-01-01T01:49:37.000Z</time>
      </trkpt>
      <trkpt lat="39.850971" lon="-8.861465">
        <ele>21.2</ele>
        <time>1970-01-01T01:49:38.000Z</time>
      </trkpt>
      <trkpt lat="39.850982" lon="-8.861532">
        <ele>21.1</ele>
        <time>1970-01-01T01:49:39.000Z</time>
      </trkpt>
      <trkpt lat="39.850993" lon="-8.861597">
        <ele>21.1</ele>
        <time>1970-01-01T01:49:40.000Z</time>
      </trkpt>
      <trkpt lat="39.851003" lon="-8.861663">
        <ele>21.1</ele>
        <time>1970-01-01T01:49:41.000Z</time>
      </trkpt>
      <trkpt lat="39.851012" lon="-8.86173">
        <ele>21</ele>
        <time>1970-01-01T01:49:42.000Z</time>
      </trkpt>
      <trkpt lat="39.851019" lon="-8.861796">
        <ele>21</ele>
        <time>1970-01-01T01:49:43.000Z</time>
      </trkpt>
      <trkpt lat="39.851024" lon="-8.861861">
        <ele>21</ele>
        <time>1970-01-01T01:49:44.000Z</time>
      </trkpt>
      <trkpt lat="39.85103" lon="-8.86193">
        <ele>20.9</ele>
        <time>1970-01-01T01:49:45.000Z</time>
      </trkpt>
      <trkpt lat="39.851037" lon="-8.862">
        <ele>20.9</ele>
        <time>1970-01-01T01:49:46.000Z</time>
      </trkpt>
      <trkpt lat="39.851043" lon="-8.862072">
        <ele>20.9</ele>
        <time>1970-01-01T01:49:47.000Z</time>
      </trkpt>
      <trkpt lat="39.85105" lon="-8.862143">
        <ele>20.9</ele>
        <time>1970-01-01T01:49:48.000Z</time>
      </trkpt>
      <trkpt lat="39.851058" lon="-8.862215">
        <ele>20.9</ele>
        <time>1970-01-01T01:49:49.000Z</time>
      </trkpt>
      <trkpt lat="39.851067" lon="-8.862287">
        <ele>21</ele>
        <time>1970-01-01T01:49:50.000Z</time>
      </trkpt>
      <trkpt lat="39.851076" lon="-8.862358">
        <ele>21</ele>
        <time>1970-01-01T01:49:51.000Z</time>
      </trkpt>
      <trkpt lat="39.851087" lon="-8.862426">
        <ele>21</ele>
        <time>1970-01-01T01:49:52.000Z</time>
      </trkpt>
      <trkpt lat="39.851097" lon="-8.86249">
        <ele>21.1</ele>
        <time>1970-01-01T01:49:53.000Z</time>
      </trkpt>
      <trkpt lat="39.851108" lon="-8.862551">
        <ele>21.1</ele>
        <time>1970-01-01T01:49:54.000Z</time>
      </trkpt>
      <trkpt lat="39.851117" lon="-8.86261">
        <ele>21.2</ele>
        <time>1970-01-01T01:49:55.000Z</time>
      </trkpt>
      <trkpt lat="39.851127" lon="-8.86267">
        <ele>21.3</ele>
        <time>1970-01-01T01:49:56.000Z</time>
      </trkpt>
      <trkpt lat="39.851137" lon="-8.86273">
        <ele>21.4</ele>
        <time>1970-01-01T01:49:57.000Z</time>
      </trkpt>
      <trkpt lat="39.851148" lon="-8.86279">
        <ele>21.5</ele>
        <time>1970-01-01T01:49:58.000Z</time>
      </trkpt>
      <trkpt lat="39.851159" lon="-8.862849">
        <ele>21.6</ele>
        <time>1970-01-01T01:49:59.000Z</time>
      </trkpt>
      <trkpt lat="39.851171" lon="-8.862905">
        <ele>21.7</ele>
        <time>1970-01-01T01:50:00.000Z</time>
      </trkpt>
      <trkpt lat="39.851184" lon="-8.862961">
        <ele>21.8</ele>
        <time>1970-01-01T01:50:01.000Z</time>
      </trkpt>
      <trkpt lat="39.851197" lon="-8.863015">
        <ele>21.9</ele>
        <time>1970-01-01T01:50:02.000Z</time>
      </trkpt>
      <trkpt lat="39.851209" lon="-8.863065">
        <ele>22</ele>
        <time>1970-01-01T01:50:03.000Z</time>
      </trkpt>
      <trkpt lat="39.851222" lon="-8.863114">
        <ele>22</ele>
        <time>1970-01-01T01:50:04.000Z</time>
      </trkpt>
      <trkpt lat="39.851233" lon="-8.863165">
        <ele>22.2</ele>
        <time>1970-01-01T01:50:05.000Z</time>
      </trkpt>
      <trkpt lat="39.851243" lon="-8.863215">
        <ele>22.3</ele>
        <time>1970-01-01T01:50:06.000Z</time>
      </trkpt>
      <trkpt lat="39.851252" lon="-8.863267">
        <ele>22.4</ele>
        <time>1970-01-01T01:50:07.000Z</time>
      </trkpt>
      <trkpt lat="39.85126" lon="-8.86332">
        <ele>22.5</ele>
        <time>1970-01-01T01:50:08.000Z</time>
      </trkpt>
      <trkpt lat="39.851268" lon="-8.863371">
        <ele>22.6</ele>
        <time>1970-01-01T01:50:09.000Z</time>
      </trkpt>
      <trkpt lat="39.851275" lon="-8.863421">
        <ele>22.8</ele>
        <time>1970-01-01T01:50:10.000Z</time>
      </trkpt>
      <trkpt lat="39.85128" lon="-8.863468">
        <ele>22.9</ele>
        <time>1970-01-01T01:50:11.000Z</time>
      </trkpt>
      <trkpt lat="39.851285" lon="-8.86351">
        <ele>23</ele>
        <time>1970-01-01T01:50:12.000Z</time>
      </trkpt>
      <trkpt lat="39.851289" lon="-8.863551">
        <ele>23.1</ele>
        <time>1970-01-01T01:50:13.000Z</time>
      </trkpt>
      <trkpt lat="39.851292" lon="-8.863589">
        <ele>23.2</ele>
        <time>1970-01-01T01:50:14.000Z</time>
      </trkpt>
      <trkpt lat="39.851291" lon="-8.863624">
        <ele>23.3</ele>
        <time>1970-01-01T01:50:15.000Z</time>
      </trkpt>
      <trkpt lat="39.851291" lon="-8.863657">
        <ele>23.3</ele>
        <time>1970-01-01T01:50:16.000Z</time>
      </trkpt>
      <trkpt lat="39.85129" lon="-8.863693">
        <ele>23.4</ele>
        <time>1970-01-01T01:50:17.000Z</time>
      </trkpt>
      <trkpt lat="39.851291" lon="-8.863733">
        <ele>23.5</ele>
        <time>1970-01-01T01:50:18.000Z</time>
      </trkpt>
      <trkpt lat="39.851292" lon="-8.863773">
        <ele>23.7</ele>
        <time>1970-01-01T01:50:19.000Z</time>
      </trkpt>
      <trkpt lat="39.851295" lon="-8.863813">
        <ele>23.8</ele>
        <time>1970-01-01T01:50:20.000Z</time>
      </trkpt>
      <trkpt lat="39.851298" lon="-8.863852">
        <ele>23.9</ele>
        <time>1970-01-01T01:50:21.000Z</time>
      </trkpt>
      <trkpt lat="39.851301" lon="-8.863891">
        <ele>24</ele>
        <time>1970-01-01T01:50:22.000Z</time>
      </trkpt>
      <trkpt lat="39.851302" lon="-8.863928">
        <ele>24.1</ele>
        <time>1970-01-01T01:50:23.000Z</time>
      </trkpt>
      <trkpt lat="39.851305" lon="-8.863966">
        <ele>24.2</ele>
        <time>1970-01-01T01:50:24.000Z</time>
      </trkpt>
      <trkpt lat="39.851308" lon="-8.864006">
        <ele>24.3</ele>
        <time>1970-01-01T01:50:25.000Z</time>
      </trkpt>
      <trkpt lat="39.851312" lon="-8.864046">
        <ele>24.4</ele>
        <time>1970-01-01T01:50:26.000Z</time>
      </trkpt>
      <trkpt lat="39.851315" lon="-8.864086">
        <ele>24.5</ele>
        <time>1970-01-01T01:50:27.000Z</time>
      </trkpt>
      <trkpt lat="39.851318" lon="-8.864126">
        <ele>24.6</ele>
        <time>1970-01-01T01:50:28.000Z</time>
      </trkpt>
      <trkpt lat="39.851319" lon="-8.864163">
        <ele>24.7</ele>
        <time>1970-01-01T01:50:29.000Z</time>
      </trkpt>
      <trkpt lat="39.851317" lon="-8.8642">
        <ele>24.8</ele>
        <time>1970-01-01T01:50:30.000Z</time>
      </trkpt>
      <trkpt lat="39.851313" lon="-8.864235">
        <ele>24.9</ele>
        <time>1970-01-01T01:50:31.000Z</time>
      </trkpt>
      <trkpt lat="39.851311" lon="-8.864271">
        <ele>25</ele>
        <time>1970-01-01T01:50:32.000Z</time>
      </trkpt>
      <trkpt lat="39.85131" lon="-8.864309">
        <ele>25.1</ele>
        <time>1970-01-01T01:50:33.000Z</time>
      </trkpt>
      <trkpt lat="39.85131" lon="-8.864349">
        <ele>25.2</ele>
        <time>1970-01-01T01:50:34.000Z</time>
      </trkpt>
      <trkpt lat="39.851311" lon="-8.864391">
        <ele>25.3</ele>
        <time>1970-01-01T01:50:35.000Z</time>
      </trkpt>
      <trkpt lat="39.851312" lon="-8.864432">
        <ele>25.5</ele>
        <time>1970-01-01T01:50:36.000Z</time>
      </trkpt>
      <trkpt lat="39.851316" lon="-8.864477">
        <ele>25.6</ele>
        <time>1970-01-01T01:50:37.000Z</time>
      </trkpt>
      <trkpt lat="39.851318" lon="-8.864521">
        <ele>25.8</ele>
        <time>1970-01-01T01:50:38.000Z</time>
      </trkpt>
      <trkpt lat="39.85132" lon="-8.864565">
        <ele>25.9</ele>
        <time>1970-01-01T01:50:39.000Z</time>
      </trkpt>
      <trkpt lat="39.851321" lon="-8.864611">
        <ele>26.1</ele>
        <time>1970-01-01T01:50:40.000Z</time>
      </trkpt>
      <trkpt lat="39.851322" lon="-8.864654">
        <ele>26.2</ele>
        <time>1970-01-01T01:50:41.000Z</time>
      </trkpt>
      <trkpt lat="39.851325" lon="-8.864698">
        <ele>26.4</ele>
        <time>1970-01-01T01:50:42.000Z</time>
      </trkpt>
      <trkpt lat="39.851326" lon="-8.864743">
        <ele>26.5</ele>
        <time>1970-01-01T01:50:43.000Z</time>
      </trkpt>
      <trkpt lat="39.851325" lon="-8.864787">
        <ele>26.7</ele>
        <time>1970-01-01T01:50:44.000Z</time>
      </trkpt>
      <trkpt lat="39.851322" lon="-8.864831">
        <ele>26.8</ele>
        <time>1970-01-01T01:50:45.000Z</time>
      </trkpt>
      <trkpt lat="39.851319" lon="-8.864873">
        <ele>27</ele>
        <time>1970-01-01T01:50:46.000Z</time>
      </trkpt>
      <trkpt lat="39.851315" lon="-8.864915">
        <ele>27.1</ele>
        <time>1970-01-01T01:50:47.000Z</time>
      </trkpt>
      <trkpt lat="39.851311" lon="-8.864958">
        <ele>27.2</ele>
        <time>1970-01-01T01:50:48.000Z</time>
      </trkpt>
      <trkpt lat="39.851307" lon="-8.864998">
        <ele>27.4</ele>
        <time>1970-01-01T01:50:49.000Z</time>
      </trkpt>
      <trkpt lat="39.851304" lon="-8.865037">
        <ele>27.5</ele>
        <time>1970-01-01T01:50:50.000Z</time>
      </trkpt>
      <trkpt lat="39.851302" lon="-8.865075">
        <ele>27.7</ele>
        <time>1970-01-01T01:50:51.000Z</time>
      </trkpt>
      <trkpt lat="39.8513" lon="-8.865113">
        <ele>27.8</ele>
        <time>1970-01-01T01:50:52.000Z</time>
      </trkpt>
      <trkpt lat="39.851298" lon="-8.865149">
        <ele>27.9</ele>
        <time>1970-01-01T01:50:53.000Z</time>
      </trkpt>
      <trkpt lat="39.851296" lon="-8.865184">
        <ele>28.1</ele>
        <time>1970-01-01T01:50:54.000Z</time>
      </trkpt>
      <trkpt lat="39.851294" lon="-8.86522">
        <ele>28.2</ele>
        <time>1970-01-01T01:50:55.000Z</time>
      </trkpt>
      <trkpt lat="39.851292" lon="-8.865255">
        <ele>28.3</ele>
        <time>1970-01-01T01:50:56.000Z</time>
      </trkpt>
      <trkpt lat="39.85129" lon="-8.86529">
        <ele>28.5</ele>
        <time>1970-01-01T01:50:57.000Z</time>
      </trkpt>
      <trkpt lat="39.851288" lon="-8.865326">
        <ele>28.6</ele>
        <time>1970-01-01T01:50:58.000Z</time>
      </trkpt>
      <trkpt lat="39.851288" lon="-8.865364">
        <ele>28.7</ele>
        <time>1970-01-01T01:50:59.000Z</time>
      </trkpt>
      <trkpt lat="39.851288" lon="-8.865402">
        <ele>28.8</ele>
        <time>1970-01-01T01:51:01.000Z</time>
      </trkpt>
      <trkpt lat="39.851285" lon="-8.865454">
        <ele>28.9</ele>
        <time>1970-01-01T01:51:02.000Z</time>
      </trkpt>
      <trkpt lat="39.851281" lon="-8.865502">
        <ele>29</ele>
        <time>1970-01-01T01:51:03.000Z</time>
      </trkpt>
      <trkpt lat="39.85128" lon="-8.865549">
        <ele>29.1</ele>
        <time>1970-01-01T01:51:04.000Z</time>
      </trkpt>
      <trkpt lat="39.851281" lon="-8.865596">
        <ele>29.3</ele>
        <time>1970-01-01T01:51:05.000Z</time>
      </trkpt>
      <trkpt lat="39.851283" lon="-8.865641">
        <ele>29.4</ele>
        <time>1970-01-01T01:51:06.000Z</time>
      </trkpt>
      <trkpt lat="39.851283" lon="-8.865683">
        <ele>29.5</ele>
        <time>1970-01-01T01:51:07.000Z</time>
      </trkpt>
      <trkpt lat="39.851282" lon="-8.865722">
        <ele>29.6</ele>
        <time>1970-01-01T01:51:08.000Z</time>
      </trkpt>
      <trkpt lat="39.851281" lon="-8.865759">
        <ele>29.7</ele>
        <time>1970-01-01T01:51:09.000Z</time>
      </trkpt>
      <trkpt lat="39.851279" lon="-8.865797">
        <ele>29.8</ele>
        <time>1970-01-01T01:51:10.000Z</time>
      </trkpt>
      <trkpt lat="39.851277" lon="-8.865835">
        <ele>29.9</ele>
        <time>1970-01-01T01:51:11.000Z</time>
      </trkpt>
      <trkpt lat="39.851275" lon="-8.865872">
        <ele>30.1</ele>
        <time>1970-01-01T01:51:12.000Z</time>
      </trkpt>
      <trkpt lat="39.851274" lon="-8.865909">
        <ele>30.2</ele>
        <time>1970-01-01T01:51:13.000Z</time>
      </trkpt>
      <trkpt lat="39.851273" lon="-8.865944">
        <ele>30.3</ele>
        <time>1970-01-01T01:51:14.000Z</time>
      </trkpt>
      <trkpt lat="39.851271" lon="-8.865978">
        <ele>30.4</ele>
        <time>1970-01-01T01:51:15.000Z</time>
      </trkpt>
      <trkpt lat="39.851268" lon="-8.866013">
        <ele>30.5</ele>
        <time>1970-01-01T01:51:16.000Z</time>
      </trkpt>
      <trkpt lat="39.851263" lon="-8.866048">
        <ele>30.6</ele>
        <time>1970-01-01T01:51:17.000Z</time>
      </trkpt>
      <trkpt lat="39.85126" lon="-8.866082">
        <ele>30.7</ele>
        <time>1970-01-01T01:51:18.000Z</time>
      </trkpt>
      <trkpt lat="39.851259" lon="-8.866118">
        <ele>30.9</ele>
        <time>1970-01-01T01:51:19.000Z</time>
      </trkpt>
      <trkpt lat="39.851258" lon="-8.866157">
        <ele>31</ele>
        <time>1970-01-01T01:51:20.000Z</time>
      </trkpt>
      <trkpt lat="39.851257" lon="-8.866197">
        <ele>31.1</ele>
        <time>1970-01-01T01:51:21.000Z</time>
      </trkpt>
      <trkpt lat="39.851258" lon="-8.866237">
        <ele>31.2</ele>
        <time>1970-01-01T01:51:22.000Z</time>
      </trkpt>
      <trkpt lat="39.85126" lon="-8.866275">
        <ele>31.4</ele>
        <time>1970-01-01T01:51:23.000Z</time>
      </trkpt>
      <trkpt lat="39.851262" lon="-8.866312">
        <ele>31.5</ele>
        <time>1970-01-01T01:51:24.000Z</time>
      </trkpt>
      <trkpt lat="39.85126" lon="-8.866344">
        <ele>31.6</ele>
        <time>1970-01-01T01:51:25.000Z</time>
      </trkpt>
      <trkpt lat="39.851259" lon="-8.866374">
        <ele>31.7</ele>
        <time>1970-01-01T01:51:26.000Z</time>
      </trkpt>
      <trkpt lat="39.851257" lon="-8.866406">
        <ele>31.8</ele>
        <time>1970-01-01T01:51:27.000Z</time>
      </trkpt>
      <trkpt lat="39.851257" lon="-8.866439">
        <ele>31.9</ele>
        <time>1970-01-01T01:51:28.000Z</time>
      </trkpt>
      <trkpt lat="39.851258" lon="-8.866473">
        <ele>32</ele>
        <time>1970-01-01T01:51:29.000Z</time>
      </trkpt>
      <trkpt lat="39.851259" lon="-8.866505">
        <ele>32.1</ele>
        <time>1970-01-01T01:51:30.000Z</time>
      </trkpt>
      <trkpt lat="39.85126" lon="-8.866536">
        <ele>32.2</ele>
        <time>1970-01-01T01:51:31.000Z</time>
      </trkpt>
      <trkpt lat="39.851259" lon="-8.866566">
        <ele>32.3</ele>
        <time>1970-01-01T01:51:32.000Z</time>
      </trkpt>
      <trkpt lat="39.851258" lon="-8.866595">
        <ele>32.3</ele>
        <time>1970-01-01T01:51:33.000Z</time>
      </trkpt>
      <trkpt lat="39.851258" lon="-8.866625">
        <ele>32.4</ele>
        <time>1970-01-01T01:51:34.000Z</time>
      </trkpt>
      <trkpt lat="39.851257" lon="-8.866655">
        <ele>32.5</ele>
        <time>1970-01-01T01:51:35.000Z</time>
      </trkpt>
      <trkpt lat="39.851256" lon="-8.866686">
        <ele>32.6</ele>
        <time>1970-01-01T01:51:36.000Z</time>
      </trkpt>
      <trkpt lat="39.851256" lon="-8.866717">
        <ele>32.6</ele>
        <time>1970-01-01T01:51:37.000Z</time>
      </trkpt>
      <trkpt lat="39.851255" lon="-8.866749">
        <ele>32.7</ele>
        <time>1970-01-01T01:51:38.000Z</time>
      </trkpt>
      <trkpt lat="39.851255" lon="-8.86678">
        <ele>32.8</ele>
        <time>1970-01-01T01:51:39.000Z</time>
      </trkpt>
      <trkpt lat="39.851256" lon="-8.86681">
        <ele>32.9</ele>
        <time>1970-01-01T01:51:40.000Z</time>
      </trkpt>
      <trkpt lat="39.851257" lon="-8.866839">
        <ele>32.9</ele>
        <time>1970-01-01T01:51:41.000Z</time>
      </trkpt>
      <trkpt lat="39.851258" lon="-8.86687">
        <ele>33</ele>
        <time>1970-01-01T01:51:42.000Z</time>
      </trkpt>
      <trkpt lat="39.851258" lon="-8.866901">
        <ele>33.1</ele>
        <time>1970-01-01T01:51:43.000Z</time>
      </trkpt>
      <trkpt lat="39.851257" lon="-8.866931">
        <ele>33.2</ele>
        <time>1970-01-01T01:51:44.000Z</time>
      </trkpt>
      <trkpt lat="39.851254" lon="-8.866961">
        <ele>33.2</ele>
        <time>1970-01-01T01:51:45.000Z</time>
      </trkpt>
      <trkpt lat="39.85125" lon="-8.866992">
        <ele>33.3</ele>
        <time>1970-01-01T01:51:46.000Z</time>
      </trkpt>
      <trkpt lat="39.851246" lon="-8.867027">
        <ele>33.4</ele>
        <time>1970-01-01T01:51:47.000Z</time>
      </trkpt>
      <trkpt lat="39.851241" lon="-8.867064">
        <ele>33.5</ele>
        <time>1970-01-01T01:51:48.000Z</time>
      </trkpt>
      <trkpt lat="39.851237" lon="-8.867103">
        <ele>33.6</ele>
        <time>1970-01-01T01:51:49.000Z</time>
      </trkpt>
      <trkpt lat="39.851234" lon="-8.867143">
        <ele>33.7</ele>
        <time>1970-01-01T01:51:50.000Z</time>
      </trkpt>
      <trkpt lat="39.851233" lon="-8.867187">
        <ele>33.8</ele>
        <time>1970-01-01T01:51:51.000Z</time>
      </trkpt>
      <trkpt lat="39.851233" lon="-8.867235">
        <ele>33.9</ele>
        <time>1970-01-01T01:51:52.000Z</time>
      </trkpt>
      <trkpt lat="39.851231" lon="-8.867283">
        <ele>34</ele>
        <time>1970-01-01T01:51:53.000Z</time>
      </trkpt>
      <trkpt lat="39.851232" lon="-8.867332">
        <ele>34.1</ele>
        <time>1970-01-01T01:51:54.000Z</time>
      </trkpt>
      <trkpt lat="39.851235" lon="-8.867383">
        <ele>34.2</ele>
        <time>1970-01-01T01:51:55.000Z</time>
      </trkpt>
      <trkpt lat="39.851237" lon="-8.867435">
        <ele>34.3</ele>
        <time>1970-01-01T01:51:56.000Z</time>
      </trkpt>
      <trkpt lat="39.851239" lon="-8.867489">
        <ele>34.3</ele>
        <time>1970-01-01T01:51:57.000Z</time>
      </trkpt>
      <trkpt lat="39.85124" lon="-8.867538">
        <ele>34.4</ele>
        <time>1970-01-01T01:51:58.000Z</time>
      </trkpt>
      <trkpt lat="39.851241" lon="-8.867586">
        <ele>34.4</ele>
        <time>1970-01-01T01:51:59.000Z</time>
      </trkpt>
      <trkpt lat="39.851243" lon="-8.867624">
        <ele>34.4</ele>
        <time>1970-01-01T01:52:00.000Z</time>
      </trkpt>
      <trkpt lat="39.851246" lon="-8.867651">
        <ele>34.5</ele>
        <time>1970-01-01T01:52:01.000Z</time>
      </trkpt>
      <trkpt lat="39.851249" lon="-8.86767">
        <ele>34.5</ele>
        <time>1970-01-01T01:52:02.000Z</time>
      </trkpt>
      <trkpt lat="39.851255" lon="-8.86768">
        <ele>34.5</ele>
        <time>1970-01-01T01:52:03.000Z</time>
      </trkpt>
      <trkpt lat="39.851259" lon="-8.867682">
        <ele>34.5</ele>
        <time>1970-01-01T01:52:04.000Z</time>
      </trkpt>
      <trkpt lat="39.851261" lon="-8.867675">
        <ele>34.5</ele>
        <time>1970-01-01T01:52:05.000Z</time>
      </trkpt>
      <trkpt lat="39.851262" lon="-8.867664">
        <ele>34.5</ele>
        <time>1970-01-01T01:52:06.000Z</time>
      </trkpt>
      <trkpt lat="39.851262" lon="-8.867649">
        <ele>34.5</ele>
        <time>1970-01-01T01:52:07.000Z</time>
      </trkpt>
      <trkpt lat="39.851262" lon="-8.867633">
        <ele>34.5</ele>
        <time>1970-01-01T01:52:08.000Z</time>
      </trkpt>
      <trkpt lat="39.851257" lon="-8.867613">
        <ele>34.5</ele>
        <time>1970-01-01T01:52:09.000Z</time>
      </trkpt>
      <trkpt lat="39.851248" lon="-8.867597">
        <ele>34.5</ele>
        <time>1970-01-01T01:52:10.000Z</time>
      </trkpt>
      <trkpt lat="39.851235" lon="-8.867585">
        <ele>34.5</ele>
        <time>1970-01-01T01:52:11.000Z</time>
      </trkpt>
      <trkpt lat="39.851221" lon="-8.867574">
        <ele>34.5</ele>
        <time>1970-01-01T01:52:12.000Z</time>
      </trkpt>
      <trkpt lat="39.85121" lon="-8.867567">
        <ele>34.5</ele>
        <time>1970-01-01T01:52:13.000Z</time>
      </trkpt>
      <trkpt lat="39.851202" lon="-8.867563">
        <ele>34.5</ele>
        <time>1970-01-01T01:52:14.000Z</time>
      </trkpt>
      <trkpt lat="39.851197" lon="-8.867562">
        <ele>34.5</ele>
        <time>1970-01-01T01:52:15.000Z</time>
      </trkpt>
      <trkpt lat="39.851194" lon="-8.867562">
        <ele>34.5</ele>
        <time>1970-01-01T01:52:16.000Z</time>
      </trkpt>
      <trkpt lat="39.851191" lon="-8.867563">
        <ele>34.5</ele>
        <time>1970-01-01T01:52:17.000Z</time>
      </trkpt>
      <trkpt lat="39.851189" lon="-8.867565">
        <ele>34.5</ele>
        <time>1970-01-01T01:52:18.000Z</time>
      </trkpt>
      <trkpt lat="39.851174" lon="-8.867568">
        <ele>34.5</ele>
        <time>1970-01-01T01:52:23.000Z</time>
      </trkpt>
      <trkpt lat="39.851174" lon="-8.867567">
        <ele>34.5</ele>
        <time>1970-01-01T01:52:24.000Z</time>
      </trkpt>
      <trkpt lat="39.851176" lon="-8.867561">
        <ele>34.5</ele>
        <time>1970-01-01T01:52:25.000Z</time>
      </trkpt>
      <trkpt lat="39.851178" lon="-8.867556">
        <ele>34.5</ele>
        <time>1970-01-01T01:52:26.000Z</time>
      </trkpt>
      <trkpt lat="39.851179" lon="-8.867551">
        <ele>34.5</ele>
        <time>1970-01-01T01:52:27.000Z</time>
      </trkpt>
      <trkpt lat="39.851182" lon="-8.86753">
        <ele>34.5</ele>
        <time>1970-01-01T01:52:33.000Z</time>
      </trkpt>
      <trkpt lat="39.851182" lon="-8.86753">
        <ele>34.5</ele>
        <time>1970-01-01T01:52:34.000Z</time>
      </trkpt>
      <trkpt lat="39.851183" lon="-8.867532">
        <ele>34.5</ele>
        <time>1970-01-01T01:52:35.000Z</time>
      </trkpt>
      <trkpt lat="39.851184" lon="-8.867535">
        <ele>34.5</ele>
        <time>1970-01-01T01:52:36.000Z</time>
      </trkpt>
      <trkpt lat="39.851184" lon="-8.867539">
        <ele>34.5</ele>
        <time>1970-01-01T01:52:37.000Z</time>
      </trkpt>
      <trkpt lat="39.851183" lon="-8.867543">
        <ele>34.5</ele>
        <time>1970-01-01T01:52:38.000Z</time>
      </trkpt>
      <trkpt lat="39.85118" lon="-8.867547">
        <ele>34.5</ele>
        <time>1970-01-01T01:52:40.000Z</time>
      </trkpt>
      <trkpt lat="39.851179" lon="-8.867544">
        <ele>34.5</ele>
        <time>1970-01-01T01:52:41.000Z</time>
      </trkpt>
      <trkpt lat="39.851175" lon="-8.867538">
        <ele>34.5</ele>
        <time>1970-01-01T01:52:42.000Z</time>
      </trkpt>
      <trkpt lat="39.851169" lon="-8.867533">
        <ele>34.5</ele>
        <time>1970-01-01T01:52:43.000Z</time>
      </trkpt>
      <trkpt lat="39.85116" lon="-8.867515">
        <ele>34.5</ele>
        <time>1970-01-01T01:52:47.000Z</time>
      </trkpt>
      <trkpt lat="39.851154" lon="-8.867523">
        <ele>34.5</ele>
        <time>1970-01-01T01:52:49.000Z</time>
      </trkpt>
      <trkpt lat="39.851151" lon="-8.867524">
        <ele>34.5</ele>
        <time>1970-01-01T01:52:50.000Z</time>
      </trkpt>
      <trkpt lat="39.851149" lon="-8.867523">
        <ele>34.5</ele>
        <time>1970-01-01T01:52:51.000Z</time>
      </trkpt>
      <trkpt lat="39.851148" lon="-8.867524">
        <ele>34.5</ele>
        <time>1970-01-01T01:52:52.000Z</time>
      </trkpt>
      <trkpt lat="39.851149" lon="-8.867525">
        <ele>34.5</ele>
        <time>1970-01-01T01:52:53.000Z</time>
      </trkpt>
      <trkpt lat="39.851151" lon="-8.867523">
        <ele>34.5</ele>
        <time>1970-01-01T01:52:54.000Z</time>
      </trkpt>
      <trkpt lat="39.851155" lon="-8.867522">
        <ele>34.5</ele>
        <time>1970-01-01T01:52:55.000Z</time>
      </trkpt>
      <trkpt lat="39.851159" lon="-8.867522">
        <ele>34.5</ele>
        <time>1970-01-01T01:52:56.000Z</time>
      </trkpt>
      <trkpt lat="39.85117" lon="-8.867522">
        <ele>34.5</ele>
        <time>1970-01-01T01:52:57.000Z</time>
      </trkpt>
      <trkpt lat="39.851177" lon="-8.867517">
        <ele>34.5</ele>
        <time>1970-01-01T01:52:58.000Z</time>
      </trkpt>
      <trkpt lat="39.851177" lon="-8.867514">
        <ele>34.5</ele>
        <time>1970-01-01T01:52:59.000Z</time>
      </trkpt>
      <trkpt lat="39.851177" lon="-8.867511">
        <ele>34.5</ele>
        <time>1970-01-01T01:53:00.000Z</time>
      </trkpt>
      <trkpt lat="39.851179" lon="-8.867505">
        <ele>34.5</ele>
        <time>1970-01-01T01:53:01.000Z</time>
      </trkpt>
      <trkpt lat="39.851182" lon="-8.867501">
        <ele>34.5</ele>
        <time>1970-01-01T01:53:02.000Z</time>
      </trkpt>
      <trkpt lat="39.85119" lon="-8.86749">
        <ele>34.5</ele>
        <time>1970-01-01T01:53:04.000Z</time>
      </trkpt>
      <trkpt lat="39.851187" lon="-8.867485">
        <ele>34.5</ele>
        <time>1970-01-01T01:53:06.000Z</time>
      </trkpt>
      <trkpt lat="39.851186" lon="-8.867484">
        <ele>34.5</ele>
        <time>1970-01-01T01:53:07.000Z</time>
      </trkpt>
      <trkpt lat="39.851186" lon="-8.867484">
        <ele>34.5</ele>
        <time>1970-01-01T01:53:08.000Z</time>
      </trkpt>
      <trkpt lat="39.851182" lon="-8.86748">
        <ele>34.5</ele>
        <time>1970-01-01T01:53:19.000Z</time>
      </trkpt>
      <trkpt lat="39.85118" lon="-8.867481">
        <ele>34.5</ele>
        <time>1970-01-01T01:53:20.000Z</time>
      </trkpt>
      <trkpt lat="39.851169" lon="-8.867497">
        <ele>34.5</ele>
        <time>1970-01-01T01:53:21.000Z</time>
      </trkpt>
      <trkpt lat="39.851165" lon="-8.867508">
        <ele>34.5</ele>
        <time>1970-01-01T01:53:23.000Z</time>
      </trkpt>
      <trkpt lat="39.851169" lon="-8.86751">
        <ele>34.5</ele>
        <time>1970-01-01T01:53:25.000Z</time>
      </trkpt>
      <trkpt lat="39.851172" lon="-8.86751">
        <ele>34.5</ele>
        <time>1970-01-01T01:53:26.000Z</time>
      </trkpt>
      <trkpt lat="39.851179" lon="-8.86751">
        <ele>34.5</ele>
        <time>1970-01-01T01:53:27.000Z</time>
      </trkpt>
      <trkpt lat="39.851188" lon="-8.86751">
        <ele>34.5</ele>
        <time>1970-01-01T01:53:28.000Z</time>
      </trkpt>
      <trkpt lat="39.851197" lon="-8.86751">
        <ele>34.5</ele>
        <time>1970-01-01T01:53:29.000Z</time>
      </trkpt>
      <trkpt lat="39.851206" lon="-8.867509">
        <ele>34.5</ele>
        <time>1970-01-01T01:53:30.000Z</time>
      </trkpt>
      <trkpt lat="39.851214" lon="-8.867507">
        <ele>34.5</ele>
        <time>1970-01-01T01:53:31.000Z</time>
      </trkpt>
      <trkpt lat="39.851232" lon="-8.867503">
        <ele>34.5</ele>
        <time>1970-01-01T01:53:33.000Z</time>
      </trkpt>
      <trkpt lat="39.851234" lon="-8.867503">
        <ele>34.5</ele>
        <time>1970-01-01T01:53:34.000Z</time>
      </trkpt>
      <trkpt lat="39.851239" lon="-8.867503">
        <ele>34.5</ele>
        <time>1970-01-01T01:53:35.000Z</time>
      </trkpt>
      <trkpt lat="39.851246" lon="-8.867502">
        <ele>34.5</ele>
        <time>1970-01-01T01:53:36.000Z</time>
      </trkpt>
      <trkpt lat="39.851257" lon="-8.867495">
        <ele>34.5</ele>
        <time>1970-01-01T01:53:38.000Z</time>
      </trkpt>
      <trkpt lat="39.851253" lon="-8.867495">
        <ele>34.5</ele>
        <time>1970-01-01T01:53:39.000Z</time>
      </trkpt>
      <trkpt lat="39.851247" lon="-8.867496">
        <ele>34.5</ele>
        <time>1970-01-01T01:53:40.000Z</time>
      </trkpt>
      <trkpt lat="39.851241" lon="-8.867495">
        <ele>34.5</ele>
        <time>1970-01-01T01:53:41.000Z</time>
      </trkpt>
      <trkpt lat="39.851231" lon="-8.86749">
        <ele>34.5</ele>
        <time>1970-01-01T01:53:42.000Z</time>
      </trkpt>
      <trkpt lat="39.851231" lon="-8.867489">
        <ele>34.5</ele>
        <time>1970-01-01T01:53:43.000Z</time>
      </trkpt>
      <trkpt lat="39.851233" lon="-8.86749">
        <ele>34.5</ele>
        <time>1970-01-01T01:53:44.000Z</time>
      </trkpt>
      <trkpt lat="39.851237" lon="-8.867491">
        <ele>34.5</ele>
        <time>1970-01-01T01:53:45.000Z</time>
      </trkpt>
      <trkpt lat="39.85124" lon="-8.867491">
        <ele>34.5</ele>
        <time>1970-01-01T01:53:46.000Z</time>
      </trkpt>
      <trkpt lat="39.851259" lon="-8.86749">
        <ele>34.5</ele>
        <time>1970-01-01T01:53:48.000Z</time>
      </trkpt>
      <trkpt lat="39.851261" lon="-8.867489">
        <ele>34.5</ele>
        <time>1970-01-01T01:53:49.000Z</time>
      </trkpt>
      <trkpt lat="39.851264" lon="-8.867487">
        <ele>34.5</ele>
        <time>1970-01-01T01:53:50.000Z</time>
      </trkpt>
      <trkpt lat="39.851266" lon="-8.867486">
        <ele>34.5</ele>
        <time>1970-01-01T01:53:51.000Z</time>
      </trkpt>
      <trkpt lat="39.85127" lon="-8.867484">
        <ele>34.5</ele>
        <time>1970-01-01T01:53:52.000Z</time>
      </trkpt>
      <trkpt lat="39.851273" lon="-8.867483">
        <ele>34.5</ele>
        <time>1970-01-01T01:53:53.000Z</time>
      </trkpt>
      <trkpt lat="39.851284" lon="-8.867477">
        <ele>34.5</ele>
        <time>1970-01-01T01:53:55.000Z</time>
      </trkpt>
      <trkpt lat="39.851286" lon="-8.867482">
        <ele>34.4</ele>
        <time>1970-01-01T01:53:59.000Z</time>
      </trkpt>
      <trkpt lat="39.851276" lon="-8.867492">
        <ele>34.4</ele>
        <time>1970-01-01T01:54:04.000Z</time>
      </trkpt>
      <trkpt lat="39.851282" lon="-8.867487">
        <ele>34.4</ele>
        <time>1970-01-01T01:54:07.000Z</time>
      </trkpt>
      <trkpt lat="39.851281" lon="-8.867486">
        <ele>34.4</ele>
        <time>1970-01-01T01:54:08.000Z</time>
      </trkpt>
      <trkpt lat="39.851277" lon="-8.867486">
        <ele>34.4</ele>
        <time>1970-01-01T01:54:09.000Z</time>
      </trkpt>
      <trkpt lat="39.851269" lon="-8.867485">
        <ele>34.4</ele>
        <time>1970-01-01T01:54:10.000Z</time>
      </trkpt>
      <trkpt lat="39.85127" lon="-8.867485">
        <ele>34.4</ele>
        <time>1970-01-01T01:54:11.000Z</time>
      </trkpt>
      <trkpt lat="39.851271" lon="-8.867483">
        <ele>34.4</ele>
        <time>1970-01-01T01:54:12.000Z</time>
      </trkpt>
      <trkpt lat="39.851272" lon="-8.867481">
        <ele>34.4</ele>
        <time>1970-01-01T01:54:13.000Z</time>
      </trkpt>
      <trkpt lat="39.851275" lon="-8.867479">
        <ele>34.4</ele>
        <time>1970-01-01T01:54:14.000Z</time>
      </trkpt>
      <trkpt lat="39.851278" lon="-8.867476">
        <ele>34.4</ele>
        <time>1970-01-01T01:54:15.000Z</time>
      </trkpt>
      <trkpt lat="39.851281" lon="-8.867472">
        <ele>34.4</ele>
        <time>1970-01-01T01:54:16.000Z</time>
      </trkpt>
      <trkpt lat="39.851284" lon="-8.86747">
        <ele>34.4</ele>
        <time>1970-01-01T01:54:17.000Z</time>
      </trkpt>
      <trkpt lat="39.851288" lon="-8.867468">
        <ele>34.4</ele>
        <time>1970-01-01T01:54:18.000Z</time>
      </trkpt>
      <trkpt lat="39.851297" lon="-8.867464">
        <ele>34.4</ele>
        <time>1970-01-01T01:54:20.000Z</time>
      </trkpt>
      <trkpt lat="39.851298" lon="-8.867464">
        <ele>34.4</ele>
        <time>1970-01-01T01:54:21.000Z</time>
      </trkpt>
      <trkpt lat="39.851297" lon="-8.867463">
        <ele>34.4</ele>
        <time>1970-01-01T01:54:22.000Z</time>
      </trkpt>
      <trkpt lat="39.851294" lon="-8.867461">
        <ele>34.4</ele>
        <time>1970-01-01T01:54:23.000Z</time>
      </trkpt>
      <trkpt lat="39.851291" lon="-8.867462">
        <ele>34.4</ele>
        <time>1970-01-01T01:54:24.000Z</time>
      </trkpt>
      <trkpt lat="39.851287" lon="-8.867462">
        <ele>34.4</ele>
        <time>1970-01-01T01:54:25.000Z</time>
      </trkpt>
      <trkpt lat="39.851283" lon="-8.867463">
        <ele>34.4</ele>
        <time>1970-01-01T01:54:26.000Z</time>
      </trkpt>
      <trkpt lat="39.851283" lon="-8.867463">
        <ele>34.4</ele>
        <time>1970-01-01T01:54:27.000Z</time>
      </trkpt>
      <trkpt lat="39.851282" lon="-8.867463">
        <ele>34.4</ele>
        <time>1970-01-01T01:54:28.000Z</time>
      </trkpt>
      <trkpt lat="39.851282" lon="-8.867461">
        <ele>34.4</ele>
        <time>1970-01-01T01:54:29.000Z</time>
      </trkpt>
      <trkpt lat="39.851283" lon="-8.86746">
        <ele>34.4</ele>
        <time>1970-01-01T01:54:30.000Z</time>
      </trkpt>
      <trkpt lat="39.851287" lon="-8.867461">
        <ele>34.4</ele>
        <time>1970-01-01T01:54:31.000Z</time>
      </trkpt>
      <trkpt lat="39.851287" lon="-8.867462">
        <ele>34.4</ele>
        <time>1970-01-01T01:54:32.000Z</time>
      </trkpt>
      <trkpt lat="39.851286" lon="-8.867464">
        <ele>34.4</ele>
        <time>1970-01-01T01:54:33.000Z</time>
      </trkpt>
      <trkpt lat="39.851283" lon="-8.867469">
        <ele>34.4</ele>
        <time>1970-01-01T01:54:34.000Z</time>
      </trkpt>
      <trkpt lat="39.85128" lon="-8.867475">
        <ele>34.4</ele>
        <time>1970-01-01T01:54:35.000Z</time>
      </trkpt>
      <trkpt lat="39.851269" lon="-8.867492">
        <ele>34.4</ele>
        <time>1970-01-01T01:54:37.000Z</time>
      </trkpt>
      <trkpt lat="39.851268" lon="-8.867492">
        <ele>34.4</ele>
        <time>1970-01-01T01:54:38.000Z</time>
      </trkpt>
      <trkpt lat="39.851266" lon="-8.867493">
        <ele>34.4</ele>
        <time>1970-01-01T01:54:39.000Z</time>
      </trkpt>
      <trkpt lat="39.851264" lon="-8.867494">
        <ele>34.4</ele>
        <time>1970-01-01T01:54:40.000Z</time>
      </trkpt>
      <trkpt lat="39.851263" lon="-8.867493">
        <ele>34.4</ele>
        <time>1970-01-01T01:54:41.000Z</time>
      </trkpt>
      <trkpt lat="39.851261" lon="-8.867493">
        <ele>34.4</ele>
        <time>1970-01-01T01:54:42.000Z</time>
      </trkpt>
      <trkpt lat="39.851252" lon="-8.867494">
        <ele>34.4</ele>
        <time>1970-01-01T01:54:44.000Z</time>
      </trkpt>
      <trkpt lat="39.851251" lon="-8.867494">
        <ele>34.4</ele>
        <time>1970-01-01T01:54:45.000Z</time>
      </trkpt>
      <trkpt lat="39.851242" lon="-8.86749">
        <ele>34.4</ele>
        <time>1970-01-01T01:54:47.000Z</time>
      </trkpt>
      <trkpt lat="39.851241" lon="-8.867495">
        <ele>34.4</ele>
        <time>1970-01-01T01:54:49.000Z</time>
      </trkpt>
      <trkpt lat="39.85124" lon="-8.867494">
        <ele>34.4</ele>
        <time>1970-01-01T01:54:50.000Z</time>
      </trkpt>
      <trkpt lat="39.851238" lon="-8.867493">
        <ele>34.4</ele>
        <time>1970-01-01T01:54:51.000Z</time>
      </trkpt>
      <trkpt lat="39.851236" lon="-8.867492">
        <ele>34.4</ele>
        <time>1970-01-01T01:54:52.000Z</time>
      </trkpt>
      <trkpt lat="39.851237" lon="-8.867491">
        <ele>34.4</ele>
        <time>1970-01-01T01:54:53.000Z</time>
      </trkpt>
      <trkpt lat="39.851241" lon="-8.867488">
        <ele>34.4</ele>
        <time>1970-01-01T01:54:54.000Z</time>
      </trkpt>
      <trkpt lat="39.851246" lon="-8.867484">
        <ele>34.4</ele>
        <time>1970-01-01T01:54:55.000Z</time>
      </trkpt>
      <trkpt lat="39.851261" lon="-8.867465">
        <ele>34.4</ele>
        <time>1970-01-01T01:54:56.000Z</time>
      </trkpt>
      <trkpt lat="39.851262" lon="-8.867466">
        <ele>34.4</ele>
        <time>1970-01-01T01:54:57.000Z</time>
      </trkpt>
      <trkpt lat="39.851261" lon="-8.86747">
        <ele>34.4</ele>
        <time>1970-01-01T01:54:58.000Z</time>
      </trkpt>
      <trkpt lat="39.85126" lon="-8.867478">
        <ele>34.4</ele>
        <time>1970-01-01T01:54:59.000Z</time>
      </trkpt>
      <trkpt lat="39.85126" lon="-8.867485">
        <ele>34.4</ele>
        <time>1970-01-01T01:55:00.000Z</time>
      </trkpt>
      <trkpt lat="39.85126" lon="-8.867493">
        <ele>34.4</ele>
        <time>1970-01-01T01:55:01.000Z</time>
      </trkpt>
      <trkpt lat="39.85126" lon="-8.867491">
        <ele>34.4</ele>
        <time>1970-01-01T01:55:02.000Z</time>
      </trkpt>
      <trkpt lat="39.851258" lon="-8.867489">
        <ele>34.4</ele>
        <time>1970-01-01T01:55:03.000Z</time>
      </trkpt>
      <trkpt lat="39.851254" lon="-8.86749">
        <ele>34.4</ele>
        <time>1970-01-01T01:55:04.000Z</time>
      </trkpt>
      <trkpt lat="39.85125" lon="-8.867489">
        <ele>34.4</ele>
        <time>1970-01-01T01:55:05.000Z</time>
      </trkpt>
      <trkpt lat="39.851242" lon="-8.867489">
        <ele>34.4</ele>
        <time>1970-01-01T01:55:06.000Z</time>
      </trkpt>
      <trkpt lat="39.851234" lon="-8.867493">
        <ele>34.4</ele>
        <time>1970-01-01T01:55:07.000Z</time>
      </trkpt>
      <trkpt lat="39.851228" lon="-8.867496">
        <ele>34.4</ele>
        <time>1970-01-01T01:55:08.000Z</time>
      </trkpt>
      <trkpt lat="39.851222" lon="-8.867499">
        <ele>34.4</ele>
        <time>1970-01-01T01:55:09.000Z</time>
      </trkpt>
      <trkpt lat="39.851215" lon="-8.8675">
        <ele>34.4</ele>
        <time>1970-01-01T01:55:10.000Z</time>
      </trkpt>
      <trkpt lat="39.851209" lon="-8.867501">
        <ele>34.4</ele>
        <time>1970-01-01T01:55:11.000Z</time>
      </trkpt>
      <trkpt lat="39.851206" lon="-8.867505">
        <ele>34.4</ele>
        <time>1970-01-01T01:55:12.000Z</time>
      </trkpt>
      <trkpt lat="39.851203" lon="-8.867509">
        <ele>34.4</ele>
        <time>1970-01-01T01:55:13.000Z</time>
      </trkpt>
      <trkpt lat="39.8512" lon="-8.867513">
        <ele>34.4</ele>
        <time>1970-01-01T01:55:14.000Z</time>
      </trkpt>
      <trkpt lat="39.851197" lon="-8.867516">
        <ele>34.4</ele>
        <time>1970-01-01T01:55:15.000Z</time>
      </trkpt>
      <trkpt lat="39.851187" lon="-8.867519">
        <ele>34.4</ele>
        <time>1970-01-01T01:55:17.000Z</time>
      </trkpt>
      <trkpt lat="39.851188" lon="-8.867519">
        <ele>34.4</ele>
        <time>1970-01-01T01:55:18.000Z</time>
      </trkpt>
      <trkpt lat="39.851186" lon="-8.867519">
        <ele>34.4</ele>
        <time>1970-01-01T01:55:20.000Z</time>
      </trkpt>
      <trkpt lat="39.851189" lon="-8.867527">
        <ele>34.4</ele>
        <time>1970-01-01T01:55:22.000Z</time>
      </trkpt>
      <trkpt lat="39.851189" lon="-8.867527">
        <ele>34.4</ele>
        <time>1970-01-01T01:55:23.000Z</time>
      </trkpt>
      <trkpt lat="39.851189" lon="-8.867528">
        <ele>34.4</ele>
        <time>1970-01-01T01:55:24.000Z</time>
      </trkpt>
      <trkpt lat="39.851189" lon="-8.867529">
        <ele>34.4</ele>
        <time>1970-01-01T01:55:25.000Z</time>
      </trkpt>
      <trkpt lat="39.851188" lon="-8.86753">
        <ele>34.4</ele>
        <time>1970-01-01T01:55:26.000Z</time>
      </trkpt>
      <trkpt lat="39.851191" lon="-8.867529">
        <ele>34.4</ele>
        <time>1970-01-01T01:55:28.000Z</time>
      </trkpt>
      <trkpt lat="39.851192" lon="-8.867528">
        <ele>34.4</ele>
        <time>1970-01-01T01:55:29.000Z</time>
      </trkpt>
      <trkpt lat="39.851193" lon="-8.867526">
        <ele>34.4</ele>
        <time>1970-01-01T01:55:30.000Z</time>
      </trkpt>
      <trkpt lat="39.851196" lon="-8.867522">
        <ele>34.4</ele>
        <time>1970-01-01T01:55:33.000Z</time>
      </trkpt>
      <trkpt lat="39.851197" lon="-8.867521">
        <ele>34.4</ele>
        <time>1970-01-01T01:55:34.000Z</time>
      </trkpt>
      <trkpt lat="39.851199" lon="-8.867514">
        <ele>34.4</ele>
        <time>1970-01-01T01:55:35.000Z</time>
      </trkpt>
      <trkpt lat="39.851201" lon="-8.867506">
        <ele>34.4</ele>
        <time>1970-01-01T01:55:36.000Z</time>
      </trkpt>
      <trkpt lat="39.851201" lon="-8.867501">
        <ele>34.4</ele>
        <time>1970-01-01T01:55:37.000Z</time>
      </trkpt>
      <trkpt lat="39.851198" lon="-8.867494">
        <ele>34.4</ele>
        <time>1970-01-01T01:55:38.000Z</time>
      </trkpt>
      <trkpt lat="39.851199" lon="-8.867494">
        <ele>34.4</ele>
        <time>1970-01-01T01:55:39.000Z</time>
      </trkpt>
      <trkpt lat="39.8512" lon="-8.867493">
        <ele>34.4</ele>
        <time>1970-01-01T01:55:40.000Z</time>
      </trkpt>
      <trkpt lat="39.8512" lon="-8.86749">
        <ele>34.4</ele>
        <time>1970-01-01T01:55:41.000Z</time>
      </trkpt>
      <trkpt lat="39.851201" lon="-8.867488">
        <ele>34.4</ele>
        <time>1970-01-01T01:55:42.000Z</time>
      </trkpt>
      <trkpt lat="39.8512" lon="-8.867484">
        <ele>34.4</ele>
        <time>1970-01-01T01:55:43.000Z</time>
      </trkpt>
      <trkpt lat="39.851198" lon="-8.867483">
        <ele>34.4</ele>
        <time>1970-01-01T01:55:44.000Z</time>
      </trkpt>
      <trkpt lat="39.851191" lon="-8.867482">
        <ele>34.4</ele>
        <time>1970-01-01T01:55:52.000Z</time>
      </trkpt>
      <trkpt lat="39.851191" lon="-8.867481">
        <ele>34.4</ele>
        <time>1970-01-01T01:55:53.000Z</time>
      </trkpt>
      <trkpt lat="39.851191" lon="-8.86748">
        <ele>34.4</ele>
        <time>1970-01-01T01:55:54.000Z</time>
      </trkpt>
      <trkpt lat="39.85119" lon="-8.867478">
        <ele>34.4</ele>
        <time>1970-01-01T01:55:55.000Z</time>
      </trkpt>
      <trkpt lat="39.851187" lon="-8.867477">
        <ele>34.4</ele>
        <time>1970-01-01T01:55:56.000Z</time>
      </trkpt>
      <trkpt lat="39.851184" lon="-8.867476">
        <ele>34.4</ele>
        <time>1970-01-01T01:55:57.000Z</time>
      </trkpt>
      <trkpt lat="39.851181" lon="-8.867475">
        <ele>34.4</ele>
        <time>1970-01-01T01:55:58.000Z</time>
      </trkpt>
      <trkpt lat="39.85118" lon="-8.867475">
        <ele>34.4</ele>
        <time>1970-01-01T01:55:59.000Z</time>
      </trkpt>
      <trkpt lat="39.851181" lon="-8.867475">
        <ele>34.4</ele>
        <time>1970-01-01T01:56:00.000Z</time>
      </trkpt>
      <trkpt lat="39.851181" lon="-8.867477">
        <ele>34.4</ele>
        <time>1970-01-01T01:56:01.000Z</time>
      </trkpt>
      <trkpt lat="39.851183" lon="-8.867476">
        <ele>34.4</ele>
        <time>1970-01-01T01:56:02.000Z</time>
      </trkpt>
      <trkpt lat="39.851186" lon="-8.867475">
        <ele>34.4</ele>
        <time>1970-01-01T01:56:03.000Z</time>
      </trkpt>
      <trkpt lat="39.851191" lon="-8.867474">
        <ele>34.4</ele>
        <time>1970-01-01T01:56:04.000Z</time>
      </trkpt>
      <trkpt lat="39.851213" lon="-8.867471">
        <ele>34.4</ele>
        <time>1970-01-01T01:56:05.000Z</time>
      </trkpt>
      <trkpt lat="39.851233" lon="-8.867464">
        <ele>34.4</ele>
        <time>1970-01-01T01:56:06.000Z</time>
      </trkpt>
      <trkpt lat="39.851233" lon="-8.867462">
        <ele>34.4</ele>
        <time>1970-01-01T01:56:08.000Z</time>
      </trkpt>
      <trkpt lat="39.851244" lon="-8.867458">
        <ele>34.4</ele>
        <time>1970-01-01T01:56:09.000Z</time>
      </trkpt>
      <trkpt lat="39.851261" lon="-8.86745">
        <ele>34.4</ele>
        <time>1970-01-01T01:56:10.000Z</time>
      </trkpt>
      <trkpt lat="39.851276" lon="-8.867444">
        <ele>34.4</ele>
        <time>1970-01-01T01:56:11.000Z</time>
      </trkpt>
      <trkpt lat="39.85129" lon="-8.86744">
        <ele>34.4</ele>
        <time>1970-01-01T01:56:12.000Z</time>
      </trkpt>
      <trkpt lat="39.851298" lon="-8.867436">
        <ele>34.4</ele>
        <time>1970-01-01T01:56:13.000Z</time>
      </trkpt>
      <trkpt lat="39.851304" lon="-8.867436">
        <ele>34.4</ele>
        <time>1970-01-01T01:56:14.000Z</time>
      </trkpt>
      <trkpt lat="39.851304" lon="-8.867437">
        <ele>34.4</ele>
        <time>1970-01-01T01:56:15.000Z</time>
      </trkpt>
      <trkpt lat="39.851305" lon="-8.867439">
        <ele>34.4</ele>
        <time>1970-01-01T01:56:16.000Z</time>
      </trkpt>
      <trkpt lat="39.851306" lon="-8.867441">
        <ele>34.4</ele>
        <time>1970-01-01T01:56:17.000Z</time>
      </trkpt>
      <trkpt lat="39.851307" lon="-8.867441">
        <ele>34.4</ele>
        <time>1970-01-01T01:56:18.000Z</time>
      </trkpt>
      <trkpt lat="39.851308" lon="-8.86744">
        <ele>34.4</ele>
        <time>1970-01-01T01:56:19.000Z</time>
      </trkpt>
      <trkpt lat="39.851293" lon="-8.867442">
        <ele>34.4</ele>
        <time>1970-01-01T01:56:20.000Z</time>
      </trkpt>
      <trkpt lat="39.851289" lon="-8.867443">
        <ele>34.4</ele>
        <time>1970-01-01T01:56:21.000Z</time>
      </trkpt>
      <trkpt lat="39.851284" lon="-8.867443">
        <ele>34.4</ele>
        <time>1970-01-01T01:56:22.000Z</time>
      </trkpt>
      <trkpt lat="39.851279" lon="-8.867445">
        <ele>34.4</ele>
        <time>1970-01-01T01:56:23.000Z</time>
      </trkpt>
      <trkpt lat="39.851274" lon="-8.867447">
        <ele>34.4</ele>
        <time>1970-01-01T01:56:24.000Z</time>
      </trkpt>
      <trkpt lat="39.851272" lon="-8.867448">
        <ele>34.4</ele>
        <time>1970-01-01T01:56:25.000Z</time>
      </trkpt>
      <trkpt lat="39.851274" lon="-8.86745">
        <ele>34.4</ele>
        <time>1970-01-01T01:56:26.000Z</time>
      </trkpt>
      <trkpt lat="39.851276" lon="-8.86745">
        <ele>34.4</ele>
        <time>1970-01-01T01:56:27.000Z</time>
      </trkpt>
      <trkpt lat="39.85128" lon="-8.867451">
        <ele>34.4</ele>
        <time>1970-01-01T01:56:28.000Z</time>
      </trkpt>
      <trkpt lat="39.851286" lon="-8.867453">
        <ele>34.4</ele>
        <time>1970-01-01T01:56:29.000Z</time>
      </trkpt>
      <trkpt lat="39.851294" lon="-8.867455">
        <ele>34.4</ele>
        <time>1970-01-01T01:56:30.000Z</time>
      </trkpt>
      <trkpt lat="39.851303" lon="-8.867457">
        <ele>34.4</ele>
        <time>1970-01-01T01:56:31.000Z</time>
      </trkpt>
      <trkpt lat="39.851309" lon="-8.867456">
        <ele>34.4</ele>
        <time>1970-01-01T01:56:32.000Z</time>
      </trkpt>
      <trkpt lat="39.851312" lon="-8.867455">
        <ele>34.4</ele>
        <time>1970-01-01T01:56:33.000Z</time>
      </trkpt>
      <trkpt lat="39.851313" lon="-8.867453">
        <ele>34.4</ele>
        <time>1970-01-01T01:56:34.000Z</time>
      </trkpt>
      <trkpt lat="39.85131" lon="-8.86745">
        <ele>34.4</ele>
        <time>1970-01-01T01:56:35.000Z</time>
      </trkpt>
      <trkpt lat="39.851301" lon="-8.867446">
        <ele>34.4</ele>
        <time>1970-01-01T01:56:48.000Z</time>
      </trkpt>
      <trkpt lat="39.851289" lon="-8.867446">
        <ele>34.4</ele>
        <time>1970-01-01T01:56:51.000Z</time>
      </trkpt>
      <trkpt lat="39.851288" lon="-8.867441">
        <ele>34.4</ele>
        <time>1970-01-01T01:56:53.000Z</time>
      </trkpt>
      <trkpt lat="39.851286" lon="-8.867437">
        <ele>34.4</ele>
        <time>1970-01-01T01:56:55.000Z</time>
      </trkpt>
      <trkpt lat="39.851285" lon="-8.867438">
        <ele>34.4</ele>
        <time>1970-01-01T01:56:56.000Z</time>
      </trkpt>
      <trkpt lat="39.851284" lon="-8.86744">
        <ele>34.4</ele>
        <time>1970-01-01T01:56:57.000Z</time>
      </trkpt>
      <trkpt lat="39.851283" lon="-8.867444">
        <ele>34.4</ele>
        <time>1970-01-01T01:56:58.000Z</time>
      </trkpt>
      <trkpt lat="39.851284" lon="-8.867446">
        <ele>34.4</ele>
        <time>1970-01-01T01:56:59.000Z</time>
      </trkpt>
      <trkpt lat="39.851286" lon="-8.867445">
        <ele>34.4</ele>
        <time>1970-01-01T01:57:00.000Z</time>
      </trkpt>
      <trkpt lat="39.851293" lon="-8.867444">
        <ele>34.4</ele>
        <time>1970-01-01T01:57:01.000Z</time>
      </trkpt>
      <trkpt lat="39.851302" lon="-8.867444">
        <ele>34.4</ele>
        <time>1970-01-01T01:57:02.000Z</time>
      </trkpt>
      <trkpt lat="39.851323" lon="-8.867444">
        <ele>34.4</ele>
        <time>1970-01-01T01:57:06.000Z</time>
      </trkpt>
      <trkpt lat="39.851321" lon="-8.867445">
        <ele>34.4</ele>
        <time>1970-01-01T01:57:07.000Z</time>
      </trkpt>
      <trkpt lat="39.851316" lon="-8.867457">
        <ele>34.4</ele>
        <time>1970-01-01T01:57:09.000Z</time>
      </trkpt>
      <trkpt lat="39.851315" lon="-8.867458">
        <ele>34.4</ele>
        <time>1970-01-01T01:57:10.000Z</time>
      </trkpt>
      <trkpt lat="39.851315" lon="-8.867456">
        <ele>34.4</ele>
        <time>1970-01-01T01:57:11.000Z</time>
      </trkpt>
      <trkpt lat="39.851314" lon="-8.867456">
        <ele>34.4</ele>
        <time>1970-01-01T01:57:12.000Z</time>
      </trkpt>
      <trkpt lat="39.851312" lon="-8.867456">
        <ele>34.4</ele>
        <time>1970-01-01T01:57:13.000Z</time>
      </trkpt>
      <trkpt lat="39.851312" lon="-8.867456">
        <ele>34.4</ele>
        <time>1970-01-01T01:57:14.000Z</time>
      </trkpt>
      <trkpt lat="39.851307" lon="-8.867458">
        <ele>34.4</ele>
        <time>1970-01-01T01:57:15.000Z</time>
      </trkpt>
      <trkpt lat="39.8513" lon="-8.867459">
        <ele>34.4</ele>
        <time>1970-01-01T01:57:16.000Z</time>
      </trkpt>
      <trkpt lat="39.851261" lon="-8.867452">
        <ele>34.4</ele>
        <time>1970-01-01T01:57:20.000Z</time>
      </trkpt>
      <trkpt lat="39.85126" lon="-8.867452">
        <ele>34.4</ele>
        <time>1970-01-01T01:57:21.000Z</time>
      </trkpt>
      <trkpt lat="39.851258" lon="-8.867453">
        <ele>34.4</ele>
        <time>1970-01-01T01:57:22.000Z</time>
      </trkpt>
      <trkpt lat="39.851258" lon="-8.867457">
        <ele>34.4</ele>
        <time>1970-01-01T01:57:25.000Z</time>
      </trkpt>
      <trkpt lat="39.851258" lon="-8.867458">
        <ele>34.4</ele>
        <time>1970-01-01T01:57:26.000Z</time>
      </trkpt>
      <trkpt lat="39.851258" lon="-8.867456">
        <ele>34.4</ele>
        <time>1970-01-01T01:57:28.000Z</time>
      </trkpt>
      <trkpt lat="39.851258" lon="-8.867459">
        <ele>34.4</ele>
        <time>1970-01-01T01:57:30.000Z</time>
      </trkpt>
      <trkpt lat="39.851258" lon="-8.867459">
        <ele>34.4</ele>
        <time>1970-01-01T01:57:31.000Z</time>
      </trkpt>
      <trkpt lat="39.85126" lon="-8.86746">
        <ele>34.4</ele>
        <time>1970-01-01T01:57:32.000Z</time>
      </trkpt>
      <trkpt lat="39.851264" lon="-8.867462">
        <ele>34.4</ele>
        <time>1970-01-01T01:57:34.000Z</time>
      </trkpt>
      <trkpt lat="39.851262" lon="-8.86746">
        <ele>34.4</ele>
        <time>1970-01-01T01:57:35.000Z</time>
      </trkpt>
      <trkpt lat="39.851261" lon="-8.867459">
        <ele>34.4</ele>
        <time>1970-01-01T01:57:36.000Z</time>
      </trkpt>
      <trkpt lat="39.851263" lon="-8.86746">
        <ele>34.4</ele>
        <time>1970-01-01T01:57:37.000Z</time>
      </trkpt>
      <trkpt lat="39.851267" lon="-8.867465">
        <ele>34.4</ele>
        <time>1970-01-01T01:57:38.000Z</time>
      </trkpt>
      <trkpt lat="39.851271" lon="-8.867471">
        <ele>34.4</ele>
        <time>1970-01-01T01:57:39.000Z</time>
      </trkpt>
      <trkpt lat="39.851275" lon="-8.867477">
        <ele>34.4</ele>
        <time>1970-01-01T01:57:40.000Z</time>
      </trkpt>
      <trkpt lat="39.851288" lon="-8.867486">
        <ele>34.4</ele>
        <time>1970-01-01T01:57:41.000Z</time>
      </trkpt>
      <trkpt lat="39.851289" lon="-8.867486">
        <ele>34.4</ele>
        <time>1970-01-01T01:57:42.000Z</time>
      </trkpt>
      <trkpt lat="39.851303" lon="-8.867486">
        <ele>34.4</ele>
        <time>1970-01-01T01:57:44.000Z</time>
      </trkpt>
      <trkpt lat="39.851313" lon="-8.867479">
        <ele>34.4</ele>
        <time>1970-01-01T01:57:46.000Z</time>
      </trkpt>
      <trkpt lat="39.851315" lon="-8.867479">
        <ele>34.4</ele>
        <time>1970-01-01T01:57:47.000Z</time>
      </trkpt>
      <trkpt lat="39.851319" lon="-8.867479">
        <ele>34.4</ele>
        <time>1970-01-01T01:57:48.000Z</time>
      </trkpt>
      <trkpt lat="39.851325" lon="-8.867479">
        <ele>34.4</ele>
        <time>1970-01-01T01:57:49.000Z</time>
      </trkpt>
      <trkpt lat="39.851326" lon="-8.867481">
        <ele>34.4</ele>
        <time>1970-01-01T01:57:50.000Z</time>
      </trkpt>
      <trkpt lat="39.851303" lon="-8.867496">
        <ele>34.4</ele>
        <time>1970-01-01T01:57:53.000Z</time>
      </trkpt>
      <trkpt lat="39.851302" lon="-8.867495">
        <ele>34.4</ele>
        <time>1970-01-01T01:57:54.000Z</time>
      </trkpt>
      <trkpt lat="39.851296" lon="-8.867496">
        <ele>34.4</ele>
        <time>1970-01-01T01:57:55.000Z</time>
      </trkpt>
      <trkpt lat="39.85129" lon="-8.867497">
        <ele>34.4</ele>
        <time>1970-01-01T01:57:56.000Z</time>
      </trkpt>
      <trkpt lat="39.851282" lon="-8.867499">
        <ele>34.4</ele>
        <time>1970-01-01T01:57:57.000Z</time>
      </trkpt>
      <trkpt lat="39.851273" lon="-8.867503">
        <ele>34.4</ele>
        <time>1970-01-01T01:57:58.000Z</time>
      </trkpt>
      <trkpt lat="39.851268" lon="-8.867508">
        <ele>34.4</ele>
        <time>1970-01-01T01:57:59.000Z</time>
      </trkpt>
      <trkpt lat="39.851264" lon="-8.867514">
        <ele>34.4</ele>
        <time>1970-01-01T01:58:00.000Z</time>
      </trkpt>
      <trkpt lat="39.851248" lon="-8.867491">
        <ele>34.4</ele>
        <time>1970-01-01T01:58:02.000Z</time>
      </trkpt>
      <trkpt lat="39.851248" lon="-8.867484">
        <ele>34.4</ele>
        <time>1970-01-01T01:58:03.000Z</time>
      </trkpt>
      <trkpt lat="39.851248" lon="-8.867441">
        <ele>34.4</ele>
        <time>1970-01-01T01:58:05.000Z</time>
      </trkpt>
      <trkpt lat="39.851248" lon="-8.867438">
        <ele>34.4</ele>
        <time>1970-01-01T01:58:06.000Z</time>
      </trkpt>
      <trkpt lat="39.85125" lon="-8.867435">
        <ele>34.4</ele>
        <time>1970-01-01T01:58:07.000Z</time>
      </trkpt>
      <trkpt lat="39.851252" lon="-8.867434">
        <ele>34.4</ele>
        <time>1970-01-01T01:58:08.000Z</time>
      </trkpt>
      <trkpt lat="39.851254" lon="-8.867433">
        <ele>34.4</ele>
        <time>1970-01-01T01:58:09.000Z</time>
      </trkpt>
      <trkpt lat="39.851255" lon="-8.867434">
        <ele>34.4</ele>
        <time>1970-01-01T01:58:10.000Z</time>
      </trkpt>
      <trkpt lat="39.851246" lon="-8.867437">
        <ele>34.4</ele>
        <time>1970-01-01T01:58:13.000Z</time>
      </trkpt>
      <trkpt lat="39.851248" lon="-8.867438">
        <ele>34.4</ele>
        <time>1970-01-01T01:58:14.000Z</time>
      </trkpt>
      <trkpt lat="39.851249" lon="-8.86744">
        <ele>34.4</ele>
        <time>1970-01-01T01:58:15.000Z</time>
      </trkpt>
      <trkpt lat="39.85125" lon="-8.867447">
        <ele>34.4</ele>
        <time>1970-01-01T01:58:20.000Z</time>
      </trkpt>
      <trkpt lat="39.851247" lon="-8.867449">
        <ele>34.4</ele>
        <time>1970-01-01T01:58:21.000Z</time>
      </trkpt>
      <trkpt lat="39.85124" lon="-8.867451">
        <ele>34.4</ele>
        <time>1970-01-01T01:58:22.000Z</time>
      </trkpt>
      <trkpt lat="39.851236" lon="-8.867453">
        <ele>34.4</ele>
        <time>1970-01-01T01:58:23.000Z</time>
      </trkpt>
      <trkpt lat="39.851218" lon="-8.867461">
        <ele>34.4</ele>
        <time>1970-01-01T01:58:25.000Z</time>
      </trkpt>
      <trkpt lat="39.851216" lon="-8.867463">
        <ele>34.4</ele>
        <time>1970-01-01T01:58:26.000Z</time>
      </trkpt>
      <trkpt lat="39.85121" lon="-8.867467">
        <ele>34.4</ele>
        <time>1970-01-01T01:58:27.000Z</time>
      </trkpt>
      <trkpt lat="39.8512" lon="-8.867469">
        <ele>34.4</ele>
        <time>1970-01-01T01:58:28.000Z</time>
      </trkpt>
      <trkpt lat="39.851192" lon="-8.867472">
        <ele>34.4</ele>
        <time>1970-01-01T01:58:29.000Z</time>
      </trkpt>
      <trkpt lat="39.851182" lon="-8.867473">
        <ele>34.4</ele>
        <time>1970-01-01T01:58:30.000Z</time>
      </trkpt>
      <trkpt lat="39.851163" lon="-8.867471">
        <ele>34.4</ele>
        <time>1970-01-01T01:58:32.000Z</time>
      </trkpt>
      <trkpt lat="39.851162" lon="-8.867469">
        <ele>34.4</ele>
        <time>1970-01-01T01:58:33.000Z</time>
      </trkpt>
      <trkpt lat="39.851158" lon="-8.867467">
        <ele>34.4</ele>
        <time>1970-01-01T01:58:34.000Z</time>
      </trkpt>
      <trkpt lat="39.851155" lon="-8.867467">
        <ele>34.4</ele>
        <time>1970-01-01T01:58:35.000Z</time>
      </trkpt>
      <trkpt lat="39.851151" lon="-8.867467">
        <ele>34.4</ele>
        <time>1970-01-01T01:58:36.000Z</time>
      </trkpt>
      <trkpt lat="39.851145" lon="-8.867464">
        <ele>34.4</ele>
        <time>1970-01-01T01:58:40.000Z</time>
      </trkpt>
      <trkpt lat="39.851126" lon="-8.867456">
        <ele>34.4</ele>
        <time>1970-01-01T01:58:48.000Z</time>
      </trkpt>
      <trkpt lat="39.851133" lon="-8.867453">
        <ele>34.4</ele>
        <time>1970-01-01T01:58:50.000Z</time>
      </trkpt>
      <trkpt lat="39.851134" lon="-8.867453">
        <ele>34.4</ele>
        <time>1970-01-01T01:58:51.000Z</time>
      </trkpt>
      <trkpt lat="39.851136" lon="-8.867455">
        <ele>34.4</ele>
        <time>1970-01-01T01:58:52.000Z</time>
      </trkpt>
      <trkpt lat="39.851143" lon="-8.867469">
        <ele>34.4</ele>
        <time>1970-01-01T01:58:54.000Z</time>
      </trkpt>
      <trkpt lat="39.851142" lon="-8.867472">
        <ele>34.4</ele>
        <time>1970-01-01T01:58:55.000Z</time>
      </trkpt>
      <trkpt lat="39.851143" lon="-8.867476">
        <ele>34.4</ele>
        <time>1970-01-01T01:58:56.000Z</time>
      </trkpt>
      <trkpt lat="39.851136" lon="-8.867509">
        <ele>34.4</ele>
        <time>1970-01-01T01:59:01.000Z</time>
      </trkpt>
      <trkpt lat="39.851135" lon="-8.867508">
        <ele>34.4</ele>
        <time>1970-01-01T01:59:02.000Z</time>
      </trkpt>
      <trkpt lat="39.851133" lon="-8.867509">
        <ele>34.4</ele>
        <time>1970-01-01T01:59:03.000Z</time>
      </trkpt>
      <trkpt lat="39.851133" lon="-8.867508">
        <ele>34.4</ele>
        <time>1970-01-01T01:59:04.000Z</time>
      </trkpt>
      <trkpt lat="39.851131" lon="-8.867484">
        <ele>34.4</ele>
        <time>1970-01-01T01:59:06.000Z</time>
      </trkpt>
      <trkpt lat="39.851124" lon="-8.867484">
        <ele>34.4</ele>
        <time>1970-01-01T01:59:07.000Z</time>
      </trkpt>
      <trkpt lat="39.851126" lon="-8.867489">
        <ele>34.4</ele>
        <time>1970-01-01T01:59:09.000Z</time>
      </trkpt>
      <trkpt lat="39.851135" lon="-8.867491">
        <ele>34.4</ele>
        <time>1970-01-01T01:59:11.000Z</time>
      </trkpt>
      <trkpt lat="39.851131" lon="-8.867501">
        <ele>34.4</ele>
        <time>1970-01-01T01:59:13.000Z</time>
      </trkpt>
      <trkpt lat="39.851131" lon="-8.867501">
        <ele>34.4</ele>
        <time>1970-01-01T01:59:14.000Z</time>
      </trkpt>
      <trkpt lat="39.851129" lon="-8.867502">
        <ele>34.4</ele>
        <time>1970-01-01T01:59:15.000Z</time>
      </trkpt>
      <trkpt lat="39.851125" lon="-8.867504">
        <ele>34.4</ele>
        <time>1970-01-01T01:59:16.000Z</time>
      </trkpt>
      <trkpt lat="39.851126" lon="-8.867511">
        <ele>34.4</ele>
        <time>1970-01-01T01:59:18.000Z</time>
      </trkpt>
      <trkpt lat="39.851126" lon="-8.86751">
        <ele>34.4</ele>
        <time>1970-01-01T01:59:19.000Z</time>
      </trkpt>
      <trkpt lat="39.851124" lon="-8.867507">
        <ele>34.4</ele>
        <time>1970-01-01T01:59:20.000Z</time>
      </trkpt>
      <trkpt lat="39.851118" lon="-8.867493">
        <ele>34.4</ele>
        <time>1970-01-01T01:59:21.000Z</time>
      </trkpt>
      <trkpt lat="39.851118" lon="-8.867488">
        <ele>34.4</ele>
        <time>1970-01-01T01:59:22.000Z</time>
      </trkpt>
      <trkpt lat="39.851118" lon="-8.867493">
        <ele>34.4</ele>
        <time>1970-01-01T01:59:24.000Z</time>
      </trkpt>
      <trkpt lat="39.851118" lon="-8.867498">
        <ele>34.4</ele>
        <time>1970-01-01T01:59:26.000Z</time>
      </trkpt>
      <trkpt lat="39.851119" lon="-8.867499">
        <ele>34.4</ele>
        <time>1970-01-01T01:59:27.000Z</time>
      </trkpt>
      <trkpt lat="39.851123" lon="-8.867502">
        <ele>34.4</ele>
        <time>1970-01-01T01:59:28.000Z</time>
      </trkpt>
      <trkpt lat="39.85113" lon="-8.86751">
        <ele>34.4</ele>
        <time>1970-01-01T01:59:29.000Z</time>
      </trkpt>
      <trkpt lat="39.851138" lon="-8.867518">
        <ele>34.4</ele>
        <time>1970-01-01T01:59:30.000Z</time>
      </trkpt>
      <trkpt lat="39.851143" lon="-8.867526">
        <ele>34.4</ele>
        <time>1970-01-01T01:59:31.000Z</time>
      </trkpt>
      <trkpt lat="39.851146" lon="-8.867534">
        <ele>34.4</ele>
        <time>1970-01-01T01:59:32.000Z</time>
      </trkpt>
      <trkpt lat="39.85115" lon="-8.867539">
        <ele>34.4</ele>
        <time>1970-01-01T01:59:33.000Z</time>
      </trkpt>
      <trkpt lat="39.851153" lon="-8.867543">
        <ele>34.4</ele>
        <time>1970-01-01T01:59:34.000Z</time>
      </trkpt>
      <trkpt lat="39.851158" lon="-8.867547">
        <ele>34.4</ele>
        <time>1970-01-01T01:59:35.000Z</time>
      </trkpt>
      <trkpt lat="39.851161" lon="-8.86755">
        <ele>34.4</ele>
        <time>1970-01-01T01:59:36.000Z</time>
      </trkpt>
      <trkpt lat="39.851168" lon="-8.867554">
        <ele>34.4</ele>
        <time>1970-01-01T01:59:37.000Z</time>
      </trkpt>
      <trkpt lat="39.851172" lon="-8.867555">
        <ele>34.4</ele>
        <time>1970-01-01T01:59:38.000Z</time>
      </trkpt>
      <trkpt lat="39.851176" lon="-8.867556">
        <ele>34.4</ele>
        <time>1970-01-01T01:59:39.000Z</time>
      </trkpt>
      <trkpt lat="39.851179" lon="-8.867557">
        <ele>34.4</ele>
        <time>1970-01-01T01:59:40.000Z</time>
      </trkpt>
      <trkpt lat="39.85118" lon="-8.867559">
        <ele>34.4</ele>
        <time>1970-01-01T01:59:41.000Z</time>
      </trkpt>
      <trkpt lat="39.851185" lon="-8.867563">
        <ele>34.4</ele>
        <time>1970-01-01T01:59:44.000Z</time>
      </trkpt>
      <trkpt lat="39.851183" lon="-8.867563">
        <ele>34.4</ele>
        <time>1970-01-01T01:59:45.000Z</time>
      </trkpt>
      <trkpt lat="39.851175" lon="-8.867564">
        <ele>34.4</ele>
        <time>1970-01-01T01:59:50.000Z</time>
      </trkpt>
      <trkpt lat="39.851185" lon="-8.867563">
        <ele>34.4</ele>
        <time>1970-01-01T01:59:59.000Z</time>
      </trkpt>
      <trkpt lat="39.851188" lon="-8.867558">
        <ele>34.4</ele>
        <time>1970-01-01T02:00:01.000Z</time>
      </trkpt>
      <trkpt lat="39.851189" lon="-8.867557">
        <ele>34.4</ele>
        <time>1970-01-01T02:00:02.000Z</time>
      </trkpt>
      <trkpt lat="39.85119" lon="-8.867558">
        <ele>34.4</ele>
        <time>1970-01-01T02:00:03.000Z</time>
      </trkpt>
      <trkpt lat="39.851192" lon="-8.867558">
        <ele>34.4</ele>
        <time>1970-01-01T02:00:04.000Z</time>
      </trkpt>
      <trkpt lat="39.851195" lon="-8.867557">
        <ele>34.4</ele>
        <time>1970-01-01T02:00:05.000Z</time>
      </trkpt>
      <trkpt lat="39.8512" lon="-8.867559">
        <ele>34.4</ele>
        <time>1970-01-01T02:00:08.000Z</time>
      </trkpt>
      <trkpt lat="39.8512" lon="-8.86756">
        <ele>34.4</ele>
        <time>1970-01-01T02:00:09.000Z</time>
      </trkpt>
      <trkpt lat="39.8512" lon="-8.867563">
        <ele>34.4</ele>
        <time>1970-01-01T02:00:10.000Z</time>
      </trkpt>
      <trkpt lat="39.851195" lon="-8.867574">
        <ele>34.4</ele>
        <time>1970-01-01T02:00:12.000Z</time>
      </trkpt>
      <trkpt lat="39.85119" lon="-8.867581">
        <ele>34.4</ele>
        <time>1970-01-01T02:00:14.000Z</time>
      </trkpt>
      <trkpt lat="39.851191" lon="-8.867588">
        <ele>34.4</ele>
        <time>1970-01-01T02:00:16.000Z</time>
      </trkpt>
      <trkpt lat="39.851191" lon="-8.867588">
        <ele>34.4</ele>
        <time>1970-01-01T02:00:17.000Z</time>
      </trkpt>
      <trkpt lat="39.85119" lon="-8.86759">
        <ele>34.4</ele>
        <time>1970-01-01T02:00:18.000Z</time>
      </trkpt>
      <trkpt lat="39.851187" lon="-8.86759">
        <ele>34.4</ele>
        <time>1970-01-01T02:00:19.000Z</time>
      </trkpt>
      <trkpt lat="39.851184" lon="-8.867592">
        <ele>34.4</ele>
        <time>1970-01-01T02:00:20.000Z</time>
      </trkpt>
      <trkpt lat="39.851184" lon="-8.867592">
        <ele>34.4</ele>
        <time>1970-01-01T02:00:21.000Z</time>
      </trkpt>
      <trkpt lat="39.851189" lon="-8.86759">
        <ele>34.4</ele>
        <time>1970-01-01T02:00:22.000Z</time>
      </trkpt>
      <trkpt lat="39.851192" lon="-8.867586">
        <ele>34.4</ele>
        <time>1970-01-01T02:00:23.000Z</time>
      </trkpt>
      <trkpt lat="39.851189" lon="-8.867584">
        <ele>34.4</ele>
        <time>1970-01-01T02:00:24.000Z</time>
      </trkpt>
      <trkpt lat="39.851175" lon="-8.867576">
        <ele>34.4</ele>
        <time>1970-01-01T02:00:26.000Z</time>
      </trkpt>
      <trkpt lat="39.851174" lon="-8.867576">
        <ele>34.4</ele>
        <time>1970-01-01T02:00:27.000Z</time>
      </trkpt>
      <trkpt lat="39.851172" lon="-8.867576">
        <ele>34.4</ele>
        <time>1970-01-01T02:00:28.000Z</time>
      </trkpt>
      <trkpt lat="39.851172" lon="-8.867575">
        <ele>34.4</ele>
        <time>1970-01-01T02:00:29.000Z</time>
      </trkpt>
      <trkpt lat="39.851174" lon="-8.867574">
        <ele>34.4</ele>
        <time>1970-01-01T02:00:30.000Z</time>
      </trkpt>
      <trkpt lat="39.851178" lon="-8.867574">
        <ele>34.4</ele>
        <time>1970-01-01T02:00:31.000Z</time>
      </trkpt>
      <trkpt lat="39.851182" lon="-8.867575">
        <ele>34.4</ele>
        <time>1970-01-01T02:00:32.000Z</time>
      </trkpt>
      <trkpt lat="39.851186" lon="-8.867577">
        <ele>34.4</ele>
        <time>1970-01-01T02:00:33.000Z</time>
      </trkpt>
      <trkpt lat="39.851198" lon="-8.867581">
        <ele>34.4</ele>
        <time>1970-01-01T02:00:35.000Z</time>
      </trkpt>
      <trkpt lat="39.851199" lon="-8.867581">
        <ele>34.4</ele>
        <time>1970-01-01T02:00:36.000Z</time>
      </trkpt>
      <trkpt lat="39.851203" lon="-8.867581">
        <ele>34.4</ele>
        <time>1970-01-01T02:00:37.000Z</time>
      </trkpt>
      <trkpt lat="39.851208" lon="-8.867582">
        <ele>34.4</ele>
        <time>1970-01-01T02:00:38.000Z</time>
      </trkpt>
      <trkpt lat="39.851213" lon="-8.867581">
        <ele>34.4</ele>
        <time>1970-01-01T02:00:39.000Z</time>
      </trkpt>
      <trkpt lat="39.851215" lon="-8.867582">
        <ele>34.4</ele>
        <time>1970-01-01T02:00:40.000Z</time>
      </trkpt>
      <trkpt lat="39.851217" lon="-8.867581">
        <ele>34.4</ele>
        <time>1970-01-01T02:00:41.000Z</time>
      </trkpt>
      <trkpt lat="39.851215" lon="-8.867582">
        <ele>34.4</ele>
        <time>1970-01-01T02:00:42.000Z</time>
      </trkpt>
      <trkpt lat="39.851213" lon="-8.86758">
        <ele>34.4</ele>
        <time>1970-01-01T02:00:43.000Z</time>
      </trkpt>
      <trkpt lat="39.851212" lon="-8.867578">
        <ele>34.4</ele>
        <time>1970-01-01T02:00:44.000Z</time>
      </trkpt>
      <trkpt lat="39.851209" lon="-8.867573">
        <ele>34.4</ele>
        <time>1970-01-01T02:00:45.000Z</time>
      </trkpt>
      <trkpt lat="39.851208" lon="-8.867569">
        <ele>34.4</ele>
        <time>1970-01-01T02:00:46.000Z</time>
      </trkpt>
      <trkpt lat="39.851208" lon="-8.867567">
        <ele>34.4</ele>
        <time>1970-01-01T02:00:47.000Z</time>
      </trkpt>
      <trkpt lat="39.851207" lon="-8.867568">
        <ele>34.4</ele>
        <time>1970-01-01T02:00:48.000Z</time>
      </trkpt>
      <trkpt lat="39.851206" lon="-8.867571">
        <ele>34.4</ele>
        <time>1970-01-01T02:00:49.000Z</time>
      </trkpt>
      <trkpt lat="39.851203" lon="-8.867575">
        <ele>34.4</ele>
        <time>1970-01-01T02:00:50.000Z</time>
      </trkpt>
      <trkpt lat="39.851204" lon="-8.867577">
        <ele>34.4</ele>
        <time>1970-01-01T02:00:51.000Z</time>
      </trkpt>
      <trkpt lat="39.851208" lon="-8.867578">
        <ele>34.4</ele>
        <time>1970-01-01T02:00:52.000Z</time>
      </trkpt>
      <trkpt lat="39.851212" lon="-8.867578">
        <ele>34.4</ele>
        <time>1970-01-01T02:00:53.000Z</time>
      </trkpt>
      <trkpt lat="39.851217" lon="-8.867576">
        <ele>34.4</ele>
        <time>1970-01-01T02:00:54.000Z</time>
      </trkpt>
      <trkpt lat="39.851214" lon="-8.867576">
        <ele>34.4</ele>
        <time>1970-01-01T02:00:55.000Z</time>
      </trkpt>
      <trkpt lat="39.851211" lon="-8.867576">
        <ele>34.4</ele>
        <time>1970-01-01T02:00:56.000Z</time>
      </trkpt>
      <trkpt lat="39.8512" lon="-8.867574">
        <ele>34.4</ele>
        <time>1970-01-01T02:00:58.000Z</time>
      </trkpt>
      <trkpt lat="39.851199" lon="-8.867573">
        <ele>34.4</ele>
        <time>1970-01-01T02:00:59.000Z</time>
      </trkpt>
      <trkpt lat="39.851195" lon="-8.867569">
        <ele>34.4</ele>
        <time>1970-01-01T02:01:00.000Z</time>
      </trkpt>
      <trkpt lat="39.851189" lon="-8.867565">
        <ele>34.4</ele>
        <time>1970-01-01T02:01:01.000Z</time>
      </trkpt>
      <trkpt lat="39.851175" lon="-8.867553">
        <ele>34.4</ele>
        <time>1970-01-01T02:01:11.000Z</time>
      </trkpt>
      <trkpt lat="39.851175" lon="-8.867551">
        <ele>34.4</ele>
        <time>1970-01-01T02:01:12.000Z</time>
      </trkpt>
      <trkpt lat="39.851174" lon="-8.867549">
        <ele>34.4</ele>
        <time>1970-01-01T02:01:13.000Z</time>
      </trkpt>
      <trkpt lat="39.851178" lon="-8.86754">
        <ele>34.4</ele>
        <time>1970-01-01T02:01:15.000Z</time>
      </trkpt>
      <trkpt lat="39.85119" lon="-8.867536">
        <ele>34.4</ele>
        <time>1970-01-01T02:01:16.000Z</time>
      </trkpt>
      <trkpt lat="39.851192" lon="-8.867536">
        <ele>34.4</ele>
        <time>1970-01-01T02:01:17.000Z</time>
      </trkpt>
      <trkpt lat="39.851195" lon="-8.867537">
        <ele>34.4</ele>
        <time>1970-01-01T02:01:18.000Z</time>
      </trkpt>
      <trkpt lat="39.851199" lon="-8.867538">
        <ele>34.4</ele>
        <time>1970-01-01T02:01:19.000Z</time>
      </trkpt>
      <trkpt lat="39.851199" lon="-8.867539">
        <ele>34.4</ele>
        <time>1970-01-01T02:01:20.000Z</time>
      </trkpt>
      <trkpt lat="39.8512" lon="-8.86754">
        <ele>34.4</ele>
        <time>1970-01-01T02:01:24.000Z</time>
      </trkpt>
      <trkpt lat="39.851201" lon="-8.86754">
        <ele>34.4</ele>
        <time>1970-01-01T02:01:25.000Z</time>
      </trkpt>
      <trkpt lat="39.851202" lon="-8.867538">
        <ele>34.4</ele>
        <time>1970-01-01T02:01:26.000Z</time>
      </trkpt>
      <trkpt lat="39.851202" lon="-8.867536">
        <ele>34.4</ele>
        <time>1970-01-01T02:01:27.000Z</time>
      </trkpt>
      <trkpt lat="39.851202" lon="-8.867537">
        <ele>34.4</ele>
        <time>1970-01-01T02:01:28.000Z</time>
      </trkpt>
      <trkpt lat="39.851206" lon="-8.867537">
        <ele>34.4</ele>
        <time>1970-01-01T02:01:29.000Z</time>
      </trkpt>
      <trkpt lat="39.851211" lon="-8.867536">
        <ele>34.4</ele>
        <time>1970-01-01T02:01:30.000Z</time>
      </trkpt>
      <trkpt lat="39.851215" lon="-8.867536">
        <ele>34.4</ele>
        <time>1970-01-01T02:01:31.000Z</time>
      </trkpt>
      <trkpt lat="39.851242" lon="-8.867568">
        <ele>34.4</ele>
        <time>1970-01-01T02:01:35.000Z</time>
      </trkpt>
      <trkpt lat="39.851248" lon="-8.86757">
        <ele>34.4</ele>
        <time>1970-01-01T02:01:39.000Z</time>
      </trkpt>
      <trkpt lat="39.851247" lon="-8.867567">
        <ele>34.4</ele>
        <time>1970-01-01T02:01:40.000Z</time>
      </trkpt>
      <trkpt lat="39.851244" lon="-8.867561">
        <ele>34.4</ele>
        <time>1970-01-01T02:01:41.000Z</time>
      </trkpt>
      <trkpt lat="39.851207" lon="-8.867453">
        <ele>34.3</ele>
        <time>1970-01-01T02:01:45.000Z</time>
      </trkpt>
      <trkpt lat="39.851209" lon="-8.867452">
        <ele>34.3</ele>
        <time>1970-01-01T02:01:46.000Z</time>
      </trkpt>
      <trkpt lat="39.851214" lon="-8.867459">
        <ele>34.3</ele>
        <time>1970-01-01T02:01:47.000Z</time>
      </trkpt>
      <trkpt lat="39.851221" lon="-8.867467">
        <ele>34.3</ele>
        <time>1970-01-01T02:01:48.000Z</time>
      </trkpt>
      <trkpt lat="39.851232" lon="-8.867473">
        <ele>34.3</ele>
        <time>1970-01-01T02:01:49.000Z</time>
      </trkpt>
      <trkpt lat="39.851238" lon="-8.867472">
        <ele>34.3</ele>
        <time>1970-01-01T02:01:50.000Z</time>
      </trkpt>
      <trkpt lat="39.851241" lon="-8.867471">
        <ele>34.3</ele>
        <time>1970-01-01T02:01:51.000Z</time>
      </trkpt>
      <trkpt lat="39.851257" lon="-8.867475">
        <ele>34.3</ele>
        <time>1970-01-01T02:01:54.000Z</time>
      </trkpt>
      <trkpt lat="39.851253" lon="-8.867455">
        <ele>34.3</ele>
        <time>1970-01-01T02:01:56.000Z</time>
      </trkpt>
      <trkpt lat="39.851251" lon="-8.867448">
        <ele>34.3</ele>
        <time>1970-01-01T02:01:57.000Z</time>
      </trkpt>
      <trkpt lat="39.851246" lon="-8.867423">
        <ele>34.3</ele>
        <time>1970-01-01T02:01:58.000Z</time>
      </trkpt>
      <trkpt lat="39.851243" lon="-8.8674">
        <ele>34.3</ele>
        <time>1970-01-01T02:01:59.000Z</time>
      </trkpt>
      <trkpt lat="39.851218" lon="-8.867333">
        <ele>34.3</ele>
        <time>1970-01-01T02:02:01.000Z</time>
      </trkpt>
      <trkpt lat="39.851205" lon="-8.867313">
        <ele>34.3</ele>
        <time>1970-01-01T02:02:03.000Z</time>
      </trkpt>
      <trkpt lat="39.851198" lon="-8.867281">
        <ele>34.3</ele>
        <time>1970-01-01T02:02:06.000Z</time>
      </trkpt>
      <trkpt lat="39.851153" lon="-8.86731">
        <ele>34.3</ele>
        <time>1970-01-01T02:02:12.000Z</time>
      </trkpt>
      <trkpt lat="39.85113" lon="-8.867315">
        <ele>34.3</ele>
        <time>1970-01-01T02:02:13.000Z</time>
      </trkpt>
      <trkpt lat="39.851128" lon="-8.867317">
        <ele>34.3</ele>
        <time>1970-01-01T02:02:14.000Z</time>
      </trkpt>
      <trkpt lat="39.851125" lon="-8.867317">
        <ele>34.3</ele>
        <time>1970-01-01T02:02:15.000Z</time>
      </trkpt>
      <trkpt lat="39.851124" lon="-8.867318">
        <ele>34.3</ele>
        <time>1970-01-01T02:02:16.000Z</time>
      </trkpt>
      <trkpt lat="39.851117" lon="-8.867317">
        <ele>34.3</ele>
        <time>1970-01-01T02:02:17.000Z</time>
      </trkpt>
      <trkpt lat="39.851106" lon="-8.86731">
        <ele>34.3</ele>
        <time>1970-01-01T02:02:18.000Z</time>
      </trkpt>
      <trkpt lat="39.851096" lon="-8.867309">
        <ele>34.3</ele>
        <time>1970-01-01T02:02:19.000Z</time>
      </trkpt>
      <trkpt lat="39.851072" lon="-8.867348">
        <ele>34.3</ele>
        <time>1970-01-01T02:02:21.000Z</time>
      </trkpt>
      <trkpt lat="39.85107" lon="-8.867348">
        <ele>34.3</ele>
        <time>1970-01-01T02:02:22.000Z</time>
      </trkpt>
      <trkpt lat="39.851067" lon="-8.867351">
        <ele>34.3</ele>
        <time>1970-01-01T02:02:23.000Z</time>
      </trkpt>
      <trkpt lat="39.851062" lon="-8.867356">
        <ele>34.3</ele>
        <time>1970-01-01T02:02:24.000Z</time>
      </trkpt>
      <trkpt lat="39.851058" lon="-8.867361">
        <ele>34.3</ele>
        <time>1970-01-01T02:02:25.000Z</time>
      </trkpt>
      <trkpt lat="39.851054" lon="-8.867367">
        <ele>34.3</ele>
        <time>1970-01-01T02:02:26.000Z</time>
      </trkpt>
      <trkpt lat="39.851047" lon="-8.867375">
        <ele>34.3</ele>
        <time>1970-01-01T02:02:27.000Z</time>
      </trkpt>
      <trkpt lat="39.851044" lon="-8.86738">
        <ele>34.3</ele>
        <time>1970-01-01T02:02:28.000Z</time>
      </trkpt>
      <trkpt lat="39.851059" lon="-8.867395">
        <ele>34.3</ele>
        <time>1970-01-01T02:02:30.000Z</time>
      </trkpt>
      <trkpt lat="39.851062" lon="-8.867396">
        <ele>34.3</ele>
        <time>1970-01-01T02:02:31.000Z</time>
      </trkpt>
      <trkpt lat="39.851065" lon="-8.867408">
        <ele>34.3</ele>
        <time>1970-01-01T02:02:32.000Z</time>
      </trkpt>
      <trkpt lat="39.851063" lon="-8.867417">
        <ele>34.3</ele>
        <time>1970-01-01T02:02:33.000Z</time>
      </trkpt>
      <trkpt lat="39.851062" lon="-8.867424">
        <ele>34.3</ele>
        <time>1970-01-01T02:02:34.000Z</time>
      </trkpt>
      <trkpt lat="39.851061" lon="-8.867425">
        <ele>34.3</ele>
        <time>1970-01-01T02:02:35.000Z</time>
      </trkpt>
      <trkpt lat="39.851058" lon="-8.86742">
        <ele>34.3</ele>
        <time>1970-01-01T02:02:36.000Z</time>
      </trkpt>
      <trkpt lat="39.851051" lon="-8.867411">
        <ele>34.3</ele>
        <time>1970-01-01T02:02:37.000Z</time>
      </trkpt>
      <trkpt lat="39.851022" lon="-8.867421">
        <ele>34.3</ele>
        <time>1970-01-01T02:02:38.000Z</time>
      </trkpt>
      <trkpt lat="39.851019" lon="-8.867416">
        <ele>34.3</ele>
        <time>1970-01-01T02:02:39.000Z</time>
      </trkpt>
      <trkpt lat="39.851015" lon="-8.867406">
        <ele>34.3</ele>
        <time>1970-01-01T02:02:40.000Z</time>
      </trkpt>
      <trkpt lat="39.851008" lon="-8.867395">
        <ele>34.3</ele>
        <time>1970-01-01T02:02:41.000Z</time>
      </trkpt>
      <trkpt lat="39.851002" lon="-8.867388">
        <ele>34.3</ele>
        <time>1970-01-01T02:02:42.000Z</time>
      </trkpt>
      <trkpt lat="39.851" lon="-8.867382">
        <ele>34.3</ele>
        <time>1970-01-01T02:02:43.000Z</time>
      </trkpt>
      <trkpt lat="39.850999" lon="-8.867376">
        <ele>34.3</ele>
        <time>1970-01-01T02:02:44.000Z</time>
      </trkpt>
      <trkpt lat="39.850996" lon="-8.867375">
        <ele>34.3</ele>
        <time>1970-01-01T02:02:45.000Z</time>
      </trkpt>
      <trkpt lat="39.850992" lon="-8.867382">
        <ele>34.3</ele>
        <time>1970-01-01T02:02:46.000Z</time>
      </trkpt>
      <trkpt lat="39.850991" lon="-8.867389">
        <ele>34.3</ele>
        <time>1970-01-01T02:02:47.000Z</time>
      </trkpt>
      <trkpt lat="39.85099" lon="-8.867398">
        <ele>34.3</ele>
        <time>1970-01-01T02:02:48.000Z</time>
      </trkpt>
      <trkpt lat="39.850989" lon="-8.867406">
        <ele>34.3</ele>
        <time>1970-01-01T02:02:49.000Z</time>
      </trkpt>
      <trkpt lat="39.850991" lon="-8.867414">
        <ele>34.3</ele>
        <time>1970-01-01T02:02:50.000Z</time>
      </trkpt>
      <trkpt lat="39.850995" lon="-8.86742">
        <ele>34.3</ele>
        <time>1970-01-01T02:02:51.000Z</time>
      </trkpt>
      <trkpt lat="39.851002" lon="-8.867426">
        <ele>34.3</ele>
        <time>1970-01-01T02:02:52.000Z</time>
      </trkpt>
      <trkpt lat="39.851009" lon="-8.867432">
        <ele>34.3</ele>
        <time>1970-01-01T02:02:53.000Z</time>
      </trkpt>
      <trkpt lat="39.851039" lon="-8.867418">
        <ele>34.3</ele>
        <time>1970-01-01T02:03:02.000Z</time>
      </trkpt>
      <trkpt lat="39.851042" lon="-8.867415">
        <ele>34.3</ele>
        <time>1970-01-01T02:03:12.000Z</time>
      </trkpt>
      <trkpt lat="39.851043" lon="-8.867415">
        <ele>34.3</ele>
        <time>1970-01-01T02:03:13.000Z</time>
      </trkpt>
      <trkpt lat="39.851041" lon="-8.867415">
        <ele>34.3</ele>
        <time>1970-01-01T02:03:14.000Z</time>
      </trkpt>
      <trkpt lat="39.851045" lon="-8.867408">
        <ele>34.3</ele>
        <time>1970-01-01T02:03:15.000Z</time>
      </trkpt>
      <trkpt lat="39.851049" lon="-8.867407">
        <ele>34.3</ele>
        <time>1970-01-01T02:03:16.000Z</time>
      </trkpt>
      <trkpt lat="39.851052" lon="-8.867405">
        <ele>34.3</ele>
        <time>1970-01-01T02:03:17.000Z</time>
      </trkpt>
      <trkpt lat="39.851061" lon="-8.867405">
        <ele>34.3</ele>
        <time>1970-01-01T02:03:18.000Z</time>
      </trkpt>
      <trkpt lat="39.851066" lon="-8.867403">
        <ele>34.3</ele>
        <time>1970-01-01T02:03:19.000Z</time>
      </trkpt>
      <trkpt lat="39.85107" lon="-8.8674">
        <ele>34.3</ele>
        <time>1970-01-01T02:03:20.000Z</time>
      </trkpt>
      <trkpt lat="39.851073" lon="-8.867398">
        <ele>34.3</ele>
        <time>1970-01-01T02:03:21.000Z</time>
      </trkpt>
      <trkpt lat="39.851079" lon="-8.86739">
        <ele>34.3</ele>
        <time>1970-01-01T02:03:37.000Z</time>
      </trkpt>
      <trkpt lat="39.851079" lon="-8.867389">
        <ele>34.3</ele>
        <time>1970-01-01T02:03:38.000Z</time>
      </trkpt>
      <trkpt lat="39.85108" lon="-8.867387">
        <ele>34.3</ele>
        <time>1970-01-01T02:03:39.000Z</time>
      </trkpt>
      <trkpt lat="39.851082" lon="-8.867384">
        <ele>34.3</ele>
        <time>1970-01-01T02:03:40.000Z</time>
      </trkpt>
      <trkpt lat="39.851085" lon="-8.867379">
        <ele>34.3</ele>
        <time>1970-01-01T02:03:41.000Z</time>
      </trkpt>
      <trkpt lat="39.851089" lon="-8.867372">
        <ele>34.3</ele>
        <time>1970-01-01T02:03:42.000Z</time>
      </trkpt>
      <trkpt lat="39.851091" lon="-8.867365">
        <ele>34.3</ele>
        <time>1970-01-01T02:03:43.000Z</time>
      </trkpt>
      <trkpt lat="39.851093" lon="-8.86736">
        <ele>34.3</ele>
        <time>1970-01-01T02:03:44.000Z</time>
      </trkpt>
      <trkpt lat="39.851094" lon="-8.867354">
        <ele>34.3</ele>
        <time>1970-01-01T02:03:45.000Z</time>
      </trkpt>
      <trkpt lat="39.851095" lon="-8.86735">
        <ele>34.3</ele>
        <time>1970-01-01T02:03:46.000Z</time>
      </trkpt>
      <trkpt lat="39.851094" lon="-8.867338">
        <ele>34.3</ele>
        <time>1970-01-01T02:03:48.000Z</time>
      </trkpt>
      <trkpt lat="39.851093" lon="-8.867338">
        <ele>34.3</ele>
        <time>1970-01-01T02:03:49.000Z</time>
      </trkpt>
      <trkpt lat="39.851094" lon="-8.867336">
        <ele>34.3</ele>
        <time>1970-01-01T02:03:50.000Z</time>
      </trkpt>
      <trkpt lat="39.851094" lon="-8.867336">
        <ele>34.3</ele>
        <time>1970-01-01T02:03:51.000Z</time>
      </trkpt>
      <trkpt lat="39.851114" lon="-8.867338">
        <ele>34.3</ele>
        <time>1970-01-01T02:03:53.000Z</time>
      </trkpt>
      <trkpt lat="39.851115" lon="-8.867339">
        <ele>34.3</ele>
        <time>1970-01-01T02:03:54.000Z</time>
      </trkpt>
      <trkpt lat="39.851112" lon="-8.867337">
        <ele>34.3</ele>
        <time>1970-01-01T02:03:55.000Z</time>
      </trkpt>
      <trkpt lat="39.851107" lon="-8.867334">
        <ele>34.3</ele>
        <time>1970-01-01T02:03:56.000Z</time>
      </trkpt>
      <trkpt lat="39.851103" lon="-8.867334">
        <ele>34.3</ele>
        <time>1970-01-01T02:03:57.000Z</time>
      </trkpt>
      <trkpt lat="39.851097" lon="-8.867333">
        <ele>34.3</ele>
        <time>1970-01-01T02:03:58.000Z</time>
      </trkpt>
      <trkpt lat="39.851098" lon="-8.867334">
        <ele>34.3</ele>
        <time>1970-01-01T02:03:59.000Z</time>
      </trkpt>
      <trkpt lat="39.851097" lon="-8.867335">
        <ele>34.3</ele>
        <time>1970-01-01T02:04:00.000Z</time>
      </trkpt>
      <trkpt lat="39.851098" lon="-8.867338">
        <ele>34.3</ele>
        <time>1970-01-01T02:04:01.000Z</time>
      </trkpt>
      <trkpt lat="39.8511" lon="-8.86734">
        <ele>34.3</ele>
        <time>1970-01-01T02:04:02.000Z</time>
      </trkpt>
      <trkpt lat="39.851112" lon="-8.867343">
        <ele>34.3</ele>
        <time>1970-01-01T02:04:04.000Z</time>
      </trkpt>
      <trkpt lat="39.851113" lon="-8.867339">
        <ele>34.3</ele>
        <time>1970-01-01T02:04:05.000Z</time>
      </trkpt>
      <trkpt lat="39.851115" lon="-8.867333">
        <ele>34.3</ele>
        <time>1970-01-01T02:04:06.000Z</time>
      </trkpt>
      <trkpt lat="39.851116" lon="-8.867327">
        <ele>34.3</ele>
        <time>1970-01-01T02:04:07.000Z</time>
      </trkpt>
      <trkpt lat="39.851119" lon="-8.86732">
        <ele>34.3</ele>
        <time>1970-01-01T02:04:08.000Z</time>
      </trkpt>
      <trkpt lat="39.851125" lon="-8.867302">
        <ele>34.3</ele>
        <time>1970-01-01T02:04:11.000Z</time>
      </trkpt>
      <trkpt lat="39.851129" lon="-8.867302">
        <ele>34.3</ele>
        <time>1970-01-01T02:04:12.000Z</time>
      </trkpt>
      <trkpt lat="39.851129" lon="-8.867302">
        <ele>34.3</ele>
        <time>1970-01-01T02:04:13.000Z</time>
      </trkpt>
      <trkpt lat="39.851135" lon="-8.867308">
        <ele>34.3</ele>
        <time>1970-01-01T02:04:14.000Z</time>
      </trkpt>
      <trkpt lat="39.851141" lon="-8.867315">
        <ele>34.3</ele>
        <time>1970-01-01T02:04:15.000Z</time>
      </trkpt>
      <trkpt lat="39.851146" lon="-8.867321">
        <ele>34.3</ele>
        <time>1970-01-01T02:04:16.000Z</time>
      </trkpt>
      <trkpt lat="39.851148" lon="-8.86733">
        <ele>34.3</ele>
        <time>1970-01-01T02:04:17.000Z</time>
      </trkpt>
      <trkpt lat="39.851149" lon="-8.867337">
        <ele>34.3</ele>
        <time>1970-01-01T02:04:18.000Z</time>
      </trkpt>
      <trkpt lat="39.85115" lon="-8.867342">
        <ele>34.3</ele>
        <time>1970-01-01T02:04:19.000Z</time>
      </trkpt>
      <trkpt lat="39.851149" lon="-8.867348">
        <ele>34.3</ele>
        <time>1970-01-01T02:04:20.000Z</time>
      </trkpt>
      <trkpt lat="39.851148" lon="-8.867353">
        <ele>34.3</ele>
        <time>1970-01-01T02:04:21.000Z</time>
      </trkpt>
      <trkpt lat="39.851157" lon="-8.867367">
        <ele>34.3</ele>
        <time>1970-01-01T02:04:24.000Z</time>
      </trkpt>
      <trkpt lat="39.851158" lon="-8.867367">
        <ele>34.3</ele>
        <time>1970-01-01T02:04:25.000Z</time>
      </trkpt>
      <trkpt lat="39.851159" lon="-8.867368">
        <ele>34.3</ele>
        <time>1970-01-01T02:04:26.000Z</time>
      </trkpt>
      <trkpt lat="39.851165" lon="-8.86738">
        <ele>34.3</ele>
        <time>1970-01-01T02:04:28.000Z</time>
      </trkpt>
      <trkpt lat="39.851163" lon="-8.86738">
        <ele>34.3</ele>
        <time>1970-01-01T02:04:29.000Z</time>
      </trkpt>
      <trkpt lat="39.851155" lon="-8.867375">
        <ele>34.3</ele>
        <time>1970-01-01T02:04:31.000Z</time>
      </trkpt>
      <trkpt lat="39.851153" lon="-8.867377">
        <ele>34.3</ele>
        <time>1970-01-01T02:04:32.000Z</time>
      </trkpt>
      <trkpt lat="39.851146" lon="-8.867438">
        <ele>34.3</ele>
        <time>1970-01-01T02:04:37.000Z</time>
      </trkpt>
      <trkpt lat="39.851149" lon="-8.867462">
        <ele>34.2</ele>
        <time>1970-01-01T02:04:43.000Z</time>
      </trkpt>
      <trkpt lat="39.851148" lon="-8.867462">
        <ele>34.2</ele>
        <time>1970-01-01T02:04:44.000Z</time>
      </trkpt>
      <trkpt lat="39.851146" lon="-8.867463">
        <ele>34.2</ele>
        <time>1970-01-01T02:04:45.000Z</time>
      </trkpt>
      <trkpt lat="39.851134" lon="-8.867452">
        <ele>34.2</ele>
        <time>1970-01-01T02:04:47.000Z</time>
      </trkpt>
      <trkpt lat="39.851121" lon="-8.867452">
        <ele>34.2</ele>
        <time>1970-01-01T02:04:51.000Z</time>
      </trkpt>
      <trkpt lat="39.851129" lon="-8.867461">
        <ele>34.2</ele>
        <time>1970-01-01T02:04:52.000Z</time>
      </trkpt>
      <trkpt lat="39.85114" lon="-8.867474">
        <ele>34.2</ele>
        <time>1970-01-01T02:04:53.000Z</time>
      </trkpt>
      <trkpt lat="39.851152" lon="-8.867487">
        <ele>34.2</ele>
        <time>1970-01-01T02:04:54.000Z</time>
      </trkpt>
      <trkpt lat="39.851165" lon="-8.8675">
        <ele>34.2</ele>
        <time>1970-01-01T02:04:55.000Z</time>
      </trkpt>
      <trkpt lat="39.851197" lon="-8.867518">
        <ele>34.2</ele>
        <time>1970-01-01T02:05:00.000Z</time>
      </trkpt>
      <trkpt lat="39.8512" lon="-8.867524">
        <ele>34.2</ele>
        <time>1970-01-01T02:05:01.000Z</time>
      </trkpt>
      <trkpt lat="39.851205" lon="-8.867531">
        <ele>34.2</ele>
        <time>1970-01-01T02:05:02.000Z</time>
      </trkpt>
      <trkpt lat="39.851211" lon="-8.867543">
        <ele>34.2</ele>
        <time>1970-01-01T02:05:03.000Z</time>
      </trkpt>
      <trkpt lat="39.851217" lon="-8.867554">
        <ele>34.2</ele>
        <time>1970-01-01T02:05:04.000Z</time>
      </trkpt>
      <trkpt lat="39.851231" lon="-8.867578">
        <ele>34.2</ele>
        <time>1970-01-01T02:05:05.000Z</time>
      </trkpt>
      <trkpt lat="39.85123" lon="-8.867572">
        <ele>34.2</ele>
        <time>1970-01-01T02:05:06.000Z</time>
      </trkpt>
      <trkpt lat="39.85123" lon="-8.867565">
        <ele>34.2</ele>
        <time>1970-01-01T02:05:07.000Z</time>
      </trkpt>
      <trkpt lat="39.851235" lon="-8.867557">
        <ele>34.2</ele>
        <time>1970-01-01T02:05:08.000Z</time>
      </trkpt>
      <trkpt lat="39.851245" lon="-8.86755">
        <ele>34.2</ele>
        <time>1970-01-01T02:05:09.000Z</time>
      </trkpt>
      <trkpt lat="39.851256" lon="-8.867544">
        <ele>34.2</ele>
        <time>1970-01-01T02:05:10.000Z</time>
      </trkpt>
      <trkpt lat="39.851272" lon="-8.867518">
        <ele>34.2</ele>
        <time>1970-01-01T02:05:12.000Z</time>
      </trkpt>
      <trkpt lat="39.851271" lon="-8.867517">
        <ele>34.2</ele>
        <time>1970-01-01T02:05:13.000Z</time>
      </trkpt>
      <trkpt lat="39.851272" lon="-8.867515">
        <ele>34.2</ele>
        <time>1970-01-01T02:05:16.000Z</time>
      </trkpt>
      <trkpt lat="39.851273" lon="-8.867516">
        <ele>34.2</ele>
        <time>1970-01-01T02:05:17.000Z</time>
      </trkpt>
      <trkpt lat="39.851279" lon="-8.867522">
        <ele>34.2</ele>
        <time>1970-01-01T02:05:19.000Z</time>
      </trkpt>
      <trkpt lat="39.85128" lon="-8.867521">
        <ele>34.2</ele>
        <time>1970-01-01T02:05:20.000Z</time>
      </trkpt>
      <trkpt lat="39.851311" lon="-8.867438">
        <ele>34.2</ele>
        <time>1970-01-01T02:05:25.000Z</time>
      </trkpt>
      <trkpt lat="39.851308" lon="-8.867434">
        <ele>34.2</ele>
        <time>1970-01-01T02:05:26.000Z</time>
      </trkpt>
      <trkpt lat="39.851303" lon="-8.867426">
        <ele>34.2</ele>
        <time>1970-01-01T02:05:27.000Z</time>
      </trkpt>
      <trkpt lat="39.851303" lon="-8.867409">
        <ele>34.2</ele>
        <time>1970-01-01T02:05:28.000Z</time>
      </trkpt>
      <trkpt lat="39.851303" lon="-8.867408">
        <ele>34.2</ele>
        <time>1970-01-01T02:05:29.000Z</time>
      </trkpt>
      <trkpt lat="39.851302" lon="-8.867416">
        <ele>34.2</ele>
        <time>1970-01-01T02:05:30.000Z</time>
      </trkpt>
      <trkpt lat="39.851304" lon="-8.867428">
        <ele>34.2</ele>
        <time>1970-01-01T02:05:31.000Z</time>
      </trkpt>
      <trkpt lat="39.851301" lon="-8.867443">
        <ele>34.2</ele>
        <time>1970-01-01T02:05:32.000Z</time>
      </trkpt>
      <trkpt lat="39.851298" lon="-8.867453">
        <ele>34.2</ele>
        <time>1970-01-01T02:05:33.000Z</time>
      </trkpt>
      <trkpt lat="39.851296" lon="-8.867462">
        <ele>34.2</ele>
        <time>1970-01-01T02:05:34.000Z</time>
      </trkpt>
      <trkpt lat="39.851296" lon="-8.867468">
        <ele>34.2</ele>
        <time>1970-01-01T02:05:35.000Z</time>
      </trkpt>
      <trkpt lat="39.851292" lon="-8.867472">
        <ele>34.2</ele>
        <time>1970-01-01T02:05:36.000Z</time>
      </trkpt>
      <trkpt lat="39.851287" lon="-8.867475">
        <ele>34.2</ele>
        <time>1970-01-01T02:05:37.000Z</time>
      </trkpt>
      <trkpt lat="39.851269" lon="-8.867478">
        <ele>34.2</ele>
        <time>1970-01-01T02:05:39.000Z</time>
      </trkpt>
      <trkpt lat="39.851266" lon="-8.867477">
        <ele>34.2</ele>
        <time>1970-01-01T02:05:41.000Z</time>
      </trkpt>
      <trkpt lat="39.851263" lon="-8.867474">
        <ele>34.2</ele>
        <time>1970-01-01T02:05:42.000Z</time>
      </trkpt>
      <trkpt lat="39.851262" lon="-8.86747">
        <ele>34.2</ele>
        <time>1970-01-01T02:05:43.000Z</time>
      </trkpt>
      <trkpt lat="39.851246" lon="-8.867465">
        <ele>34.2</ele>
        <time>1970-01-01T02:05:45.000Z</time>
      </trkpt>
      <trkpt lat="39.851243" lon="-8.867463">
        <ele>34.2</ele>
        <time>1970-01-01T02:05:46.000Z</time>
      </trkpt>
      <trkpt lat="39.851236" lon="-8.86746">
        <ele>34.2</ele>
        <time>1970-01-01T02:05:47.000Z</time>
      </trkpt>
      <trkpt lat="39.851224" lon="-8.867455">
        <ele>34.2</ele>
        <time>1970-01-01T02:05:48.000Z</time>
      </trkpt>
      <trkpt lat="39.851202" lon="-8.867415">
        <ele>34.2</ele>
        <time>1970-01-01T02:05:49.000Z</time>
      </trkpt>
      <trkpt lat="39.851202" lon="-8.867411">
        <ele>34.2</ele>
        <time>1970-01-01T02:05:50.000Z</time>
      </trkpt>
      <trkpt lat="39.851199" lon="-8.867404">
        <ele>34.2</ele>
        <time>1970-01-01T02:05:51.000Z</time>
      </trkpt>
      <trkpt lat="39.851197" lon="-8.867397">
        <ele>34.2</ele>
        <time>1970-01-01T02:05:52.000Z</time>
      </trkpt>
      <trkpt lat="39.851194" lon="-8.867391">
        <ele>34.2</ele>
        <time>1970-01-01T02:05:53.000Z</time>
      </trkpt>
      <trkpt lat="39.851192" lon="-8.867385">
        <ele>34.2</ele>
        <time>1970-01-01T02:05:54.000Z</time>
      </trkpt>
      <trkpt lat="39.851192" lon="-8.867374">
        <ele>34.2</ele>
        <time>1970-01-01T02:05:57.000Z</time>
      </trkpt>
      <trkpt lat="39.851192" lon="-8.867365">
        <ele>34.2</ele>
        <time>1970-01-01T02:05:59.000Z</time>
      </trkpt>
      <trkpt lat="39.851194" lon="-8.867365">
        <ele>34.2</ele>
        <time>1970-01-01T02:06:00.000Z</time>
      </trkpt>
      <trkpt lat="39.851196" lon="-8.867361">
        <ele>34.2</ele>
        <time>1970-01-01T02:06:01.000Z</time>
      </trkpt>
      <trkpt lat="39.851206" lon="-8.867339">
        <ele>34.2</ele>
        <time>1970-01-01T02:06:02.000Z</time>
      </trkpt>
      <trkpt lat="39.851211" lon="-8.867329">
        <ele>34.2</ele>
        <time>1970-01-01T02:06:03.000Z</time>
      </trkpt>
      <trkpt lat="39.851246" lon="-8.867285">
        <ele>34.2</ele>
        <time>1970-01-01T02:06:08.000Z</time>
      </trkpt>
      <trkpt lat="39.851241" lon="-8.867286">
        <ele>34.2</ele>
        <time>1970-01-01T02:06:09.000Z</time>
      </trkpt>
      <trkpt lat="39.851236" lon="-8.867302">
        <ele>34.2</ele>
        <time>1970-01-01T02:06:11.000Z</time>
      </trkpt>
      <trkpt lat="39.851237" lon="-8.867303">
        <ele>34.2</ele>
        <time>1970-01-01T02:06:12.000Z</time>
      </trkpt>
      <trkpt lat="39.851239" lon="-8.867306">
        <ele>34.2</ele>
        <time>1970-01-01T02:06:13.000Z</time>
      </trkpt>
      <trkpt lat="39.85124" lon="-8.86731">
        <ele>34.2</ele>
        <time>1970-01-01T02:06:14.000Z</time>
      </trkpt>
      <trkpt lat="39.851239" lon="-8.867312">
        <ele>34.2</ele>
        <time>1970-01-01T02:06:15.000Z</time>
      </trkpt>
      <trkpt lat="39.851237" lon="-8.867319">
        <ele>34.2</ele>
        <time>1970-01-01T02:06:16.000Z</time>
      </trkpt>
      <trkpt lat="39.851228" lon="-8.867326">
        <ele>34.2</ele>
        <time>1970-01-01T02:06:17.000Z</time>
      </trkpt>
      <trkpt lat="39.851219" lon="-8.867337">
        <ele>34.3</ele>
        <time>1970-01-01T02:06:18.000Z</time>
      </trkpt>
      <trkpt lat="39.851213" lon="-8.867345">
        <ele>34.3</ele>
        <time>1970-01-01T02:06:19.000Z</time>
      </trkpt>
      <trkpt lat="39.851209" lon="-8.867355">
        <ele>34.3</ele>
        <time>1970-01-01T02:06:20.000Z</time>
      </trkpt>
      <trkpt lat="39.851208" lon="-8.867364">
        <ele>34.3</ele>
        <time>1970-01-01T02:06:21.000Z</time>
      </trkpt>
      <trkpt lat="39.851211" lon="-8.867376">
        <ele>34.3</ele>
        <time>1970-01-01T02:06:22.000Z</time>
      </trkpt>
      <trkpt lat="39.851218" lon="-8.867391">
        <ele>34.3</ele>
        <time>1970-01-01T02:06:23.000Z</time>
      </trkpt>
      <trkpt lat="39.851227" lon="-8.867405">
        <ele>34.3</ele>
        <time>1970-01-01T02:06:24.000Z</time>
      </trkpt>
      <trkpt lat="39.851253" lon="-8.867437">
        <ele>34.3</ele>
        <time>1970-01-01T02:06:25.000Z</time>
      </trkpt>
      <trkpt lat="39.851253" lon="-8.867457">
        <ele>34.3</ele>
        <time>1970-01-01T02:06:32.000Z</time>
      </trkpt>
      <trkpt lat="39.851253" lon="-8.867458">
        <ele>34.3</ele>
        <time>1970-01-01T02:06:33.000Z</time>
      </trkpt>
      <trkpt lat="39.851252" lon="-8.867459">
        <ele>34.3</ele>
        <time>1970-01-01T02:06:34.000Z</time>
      </trkpt>
      <trkpt lat="39.851251" lon="-8.867458">
        <ele>34.3</ele>
        <time>1970-01-01T02:06:35.000Z</time>
      </trkpt>
      <trkpt lat="39.851245" lon="-8.867454">
        <ele>34.3</ele>
        <time>1970-01-01T02:06:36.000Z</time>
      </trkpt>
      <trkpt lat="39.851219" lon="-8.867425">
        <ele>34.3</ele>
        <time>1970-01-01T02:06:38.000Z</time>
      </trkpt>
      <trkpt lat="39.851218" lon="-8.867423">
        <ele>34.3</ele>
        <time>1970-01-01T02:06:39.000Z</time>
      </trkpt>
      <trkpt lat="39.851217" lon="-8.86742">
        <ele>34.3</ele>
        <time>1970-01-01T02:06:40.000Z</time>
      </trkpt>
      <trkpt lat="39.851213" lon="-8.867414">
        <ele>34.3</ele>
        <time>1970-01-01T02:06:41.000Z</time>
      </trkpt>
      <trkpt lat="39.851209" lon="-8.867408">
        <ele>34.3</ele>
        <time>1970-01-01T02:06:42.000Z</time>
      </trkpt>
      <trkpt lat="39.851205" lon="-8.867402">
        <ele>34.3</ele>
        <time>1970-01-01T02:06:43.000Z</time>
      </trkpt>
      <trkpt lat="39.8512" lon="-8.867396">
        <ele>34.3</ele>
        <time>1970-01-01T02:06:44.000Z</time>
      </trkpt>
      <trkpt lat="39.851186" lon="-8.86738">
        <ele>34.3</ele>
        <time>1970-01-01T02:06:45.000Z</time>
      </trkpt>
      <trkpt lat="39.851185" lon="-8.867379">
        <ele>34.3</ele>
        <time>1970-01-01T02:06:46.000Z</time>
      </trkpt>
      <trkpt lat="39.851182" lon="-8.867376">
        <ele>34.3</ele>
        <time>1970-01-01T02:06:47.000Z</time>
      </trkpt>
      <trkpt lat="39.851177" lon="-8.867372">
        <ele>34.3</ele>
        <time>1970-01-01T02:06:48.000Z</time>
      </trkpt>
      <trkpt lat="39.85117" lon="-8.867368">
        <ele>34.3</ele>
        <time>1970-01-01T02:06:49.000Z</time>
      </trkpt>
      <trkpt lat="39.851162" lon="-8.867363">
        <ele>34.3</ele>
        <time>1970-01-01T02:06:50.000Z</time>
      </trkpt>
      <trkpt lat="39.851163" lon="-8.867357">
        <ele>34.3</ele>
        <time>1970-01-01T02:06:51.000Z</time>
      </trkpt>
      <trkpt lat="39.851165" lon="-8.867351">
        <ele>34.3</ele>
        <time>1970-01-01T02:06:52.000Z</time>
      </trkpt>
      <trkpt lat="39.851168" lon="-8.867343">
        <ele>34.3</ele>
        <time>1970-01-01T02:06:53.000Z</time>
      </trkpt>
      <trkpt lat="39.851172" lon="-8.867336">
        <ele>34.3</ele>
        <time>1970-01-01T02:06:54.000Z</time>
      </trkpt>
      <trkpt lat="39.851178" lon="-8.867338">
        <ele>34.3</ele>
        <time>1970-01-01T02:06:55.000Z</time>
      </trkpt>
      <trkpt lat="39.851187" lon="-8.867342">
        <ele>34.3</ele>
        <time>1970-01-01T02:06:56.000Z</time>
      </trkpt>
      <trkpt lat="39.851196" lon="-8.867348">
        <ele>34.3</ele>
        <time>1970-01-01T02:06:57.000Z</time>
      </trkpt>
      <trkpt lat="39.851203" lon="-8.867354">
        <ele>34.3</ele>
        <time>1970-01-01T02:06:58.000Z</time>
      </trkpt>
      <trkpt lat="39.851208" lon="-8.867357">
        <ele>34.3</ele>
        <time>1970-01-01T02:06:59.000Z</time>
      </trkpt>
      <trkpt lat="39.851221" lon="-8.867372">
        <ele>34.3</ele>
        <time>1970-01-01T02:07:02.000Z</time>
      </trkpt>
      <trkpt lat="39.851221" lon="-8.867373">
        <ele>34.3</ele>
        <time>1970-01-01T02:07:03.000Z</time>
      </trkpt>
      <trkpt lat="39.851221" lon="-8.867376">
        <ele>34.3</ele>
        <time>1970-01-01T02:07:04.000Z</time>
      </trkpt>
      <trkpt lat="39.851216" lon="-8.867381">
        <ele>34.3</ele>
        <time>1970-01-01T02:07:05.000Z</time>
      </trkpt>
      <trkpt lat="39.85121" lon="-8.867387">
        <ele>34.3</ele>
        <time>1970-01-01T02:07:06.000Z</time>
      </trkpt>
      <trkpt lat="39.851202" lon="-8.867392">
        <ele>34.3</ele>
        <time>1970-01-01T02:07:07.000Z</time>
      </trkpt>
      <trkpt lat="39.851191" lon="-8.867393">
        <ele>34.3</ele>
        <time>1970-01-01T02:07:08.000Z</time>
      </trkpt>
      <trkpt lat="39.851178" lon="-8.867394">
        <ele>34.3</ele>
        <time>1970-01-01T02:07:09.000Z</time>
      </trkpt>
      <trkpt lat="39.851174" lon="-8.86739">
        <ele>34.3</ele>
        <time>1970-01-01T02:07:10.000Z</time>
      </trkpt>
      <trkpt lat="39.851175" lon="-8.867385">
        <ele>34.3</ele>
        <time>1970-01-01T02:07:11.000Z</time>
      </trkpt>
      <trkpt lat="39.851184" lon="-8.867385">
        <ele>34.3</ele>
        <time>1970-01-01T02:07:12.000Z</time>
      </trkpt>
      <trkpt lat="39.851191" lon="-8.867309">
        <ele>34.3</ele>
        <time>1970-01-01T02:07:15.000Z</time>
      </trkpt>
      <trkpt lat="39.85119" lon="-8.867304">
        <ele>34.3</ele>
        <time>1970-01-01T02:07:16.000Z</time>
      </trkpt>
      <trkpt lat="39.851178" lon="-8.867312">
        <ele>34.3</ele>
        <time>1970-01-01T02:07:19.000Z</time>
      </trkpt>
      <trkpt lat="39.851175" lon="-8.867311">
        <ele>34.3</ele>
        <time>1970-01-01T02:07:20.000Z</time>
      </trkpt>
      <trkpt lat="39.851174" lon="-8.867313">
        <ele>34.3</ele>
        <time>1970-01-01T02:07:21.000Z</time>
      </trkpt>
      <trkpt lat="39.851176" lon="-8.867315">
        <ele>34.3</ele>
        <time>1970-01-01T02:07:22.000Z</time>
      </trkpt>
      <trkpt lat="39.851182" lon="-8.867319">
        <ele>34.3</ele>
        <time>1970-01-01T02:07:23.000Z</time>
      </trkpt>
      <trkpt lat="39.851201" lon="-8.867329">
        <ele>34.3</ele>
        <time>1970-01-01T02:07:24.000Z</time>
      </trkpt>
      <trkpt lat="39.8512" lon="-8.867328">
        <ele>34.3</ele>
        <time>1970-01-01T02:07:25.000Z</time>
      </trkpt>
      <trkpt lat="39.851199" lon="-8.867329">
        <ele>34.3</ele>
        <time>1970-01-01T02:07:26.000Z</time>
      </trkpt>
      <trkpt lat="39.851208" lon="-8.867325">
        <ele>34.3</ele>
        <time>1970-01-01T02:07:27.000Z</time>
      </trkpt>
      <trkpt lat="39.851215" lon="-8.867331">
        <ele>34.3</ele>
        <time>1970-01-01T02:07:28.000Z</time>
      </trkpt>
      <trkpt lat="39.851206" lon="-8.86734">
        <ele>34.3</ele>
        <time>1970-01-01T02:07:29.000Z</time>
      </trkpt>
      <trkpt lat="39.851198" lon="-8.867349">
        <ele>34.3</ele>
        <time>1970-01-01T02:07:30.000Z</time>
      </trkpt>
      <trkpt lat="39.851189" lon="-8.867363">
        <ele>34.3</ele>
        <time>1970-01-01T02:07:31.000Z</time>
      </trkpt>
      <trkpt lat="39.851183" lon="-8.867375">
        <ele>34.3</ele>
        <time>1970-01-01T02:07:32.000Z</time>
      </trkpt>
      <trkpt lat="39.851178" lon="-8.867385">
        <ele>34.3</ele>
        <time>1970-01-01T02:07:33.000Z</time>
      </trkpt>
      <trkpt lat="39.851178" lon="-8.867394">
        <ele>34.3</ele>
        <time>1970-01-01T02:07:34.000Z</time>
      </trkpt>
      <trkpt lat="39.851178" lon="-8.867403">
        <ele>34.3</ele>
        <time>1970-01-01T02:07:35.000Z</time>
      </trkpt>
      <trkpt lat="39.85118" lon="-8.867412">
        <ele>34.3</ele>
        <time>1970-01-01T02:07:36.000Z</time>
      </trkpt>
      <trkpt lat="39.851179" lon="-8.867418">
        <ele>34.3</ele>
        <time>1970-01-01T02:07:37.000Z</time>
      </trkpt>
      <trkpt lat="39.851177" lon="-8.867423">
        <ele>34.3</ele>
        <time>1970-01-01T02:07:38.000Z</time>
      </trkpt>
      <trkpt lat="39.851175" lon="-8.867428">
        <ele>34.3</ele>
        <time>1970-01-01T02:07:39.000Z</time>
      </trkpt>
      <trkpt lat="39.851168" lon="-8.867441">
        <ele>34.3</ele>
        <time>1970-01-01T02:07:41.000Z</time>
      </trkpt>
      <trkpt lat="39.851164" lon="-8.867441">
        <ele>34.4</ele>
        <time>1970-01-01T02:07:42.000Z</time>
      </trkpt>
      <trkpt lat="39.851162" lon="-8.867435">
        <ele>34.4</ele>
        <time>1970-01-01T02:07:43.000Z</time>
      </trkpt>
      <trkpt lat="39.851169" lon="-8.867438">
        <ele>34.4</ele>
        <time>1970-01-01T02:07:44.000Z</time>
      </trkpt>
      <trkpt lat="39.851186" lon="-8.867487">
        <ele>34.4</ele>
        <time>1970-01-01T02:07:48.000Z</time>
      </trkpt>
      <trkpt lat="39.851185" lon="-8.867486">
        <ele>34.4</ele>
        <time>1970-01-01T02:07:49.000Z</time>
      </trkpt>
      <trkpt lat="39.851168" lon="-8.867499">
        <ele>34.4</ele>
        <time>1970-01-01T02:07:51.000Z</time>
      </trkpt>
      <trkpt lat="39.851167" lon="-8.867499">
        <ele>34.4</ele>
        <time>1970-01-01T02:07:52.000Z</time>
      </trkpt>
      <trkpt lat="39.851162" lon="-8.867499">
        <ele>34.4</ele>
        <time>1970-01-01T02:07:53.000Z</time>
      </trkpt>
      <trkpt lat="39.851146" lon="-8.867503">
        <ele>34.4</ele>
        <time>1970-01-01T02:07:54.000Z</time>
      </trkpt>
      <trkpt lat="39.851126" lon="-8.867506">
        <ele>34.4</ele>
        <time>1970-01-01T02:07:55.000Z</time>
      </trkpt>
      <trkpt lat="39.851105" lon="-8.86751">
        <ele>34.4</ele>
        <time>1970-01-01T02:07:56.000Z</time>
      </trkpt>
      <trkpt lat="39.851091" lon="-8.867565">
        <ele>34.4</ele>
        <time>1970-01-01T02:07:57.000Z</time>
      </trkpt>
      <trkpt lat="39.851096" lon="-8.867638">
        <ele>34.4</ele>
        <time>1970-01-01T02:07:58.000Z</time>
      </trkpt>
      <trkpt lat="39.851108" lon="-8.867696">
        <ele>34.4</ele>
        <time>1970-01-01T02:07:59.000Z</time>
      </trkpt>
      <trkpt lat="39.851102" lon="-8.86774">
        <ele>34.4</ele>
        <time>1970-01-01T02:08:00.000Z</time>
      </trkpt>
      <trkpt lat="39.851086" lon="-8.867769">
        <ele>34.4</ele>
        <time>1970-01-01T02:08:01.000Z</time>
      </trkpt>
      <trkpt lat="39.851085" lon="-8.867793">
        <ele>34.4</ele>
        <time>1970-01-01T02:08:02.000Z</time>
      </trkpt>
      <trkpt lat="39.851097" lon="-8.867795">
        <ele>34.4</ele>
        <time>1970-01-01T02:08:03.000Z</time>
      </trkpt>
      <trkpt lat="39.851111" lon="-8.867782">
        <ele>34.4</ele>
        <time>1970-01-01T02:08:04.000Z</time>
      </trkpt>
      <trkpt lat="39.851121" lon="-8.867765">
        <ele>34.4</ele>
        <time>1970-01-01T02:08:05.000Z</time>
      </trkpt>
      <trkpt lat="39.851148" lon="-8.867716">
        <ele>34.4</ele>
        <time>1970-01-01T02:08:07.000Z</time>
      </trkpt>
      <trkpt lat="39.851149" lon="-8.867715">
        <ele>34.4</ele>
        <time>1970-01-01T02:08:08.000Z</time>
      </trkpt>
      <trkpt lat="39.851151" lon="-8.867712">
        <ele>34.4</ele>
        <time>1970-01-01T02:08:09.000Z</time>
      </trkpt>
      <trkpt lat="39.851154" lon="-8.867707">
        <ele>34.4</ele>
        <time>1970-01-01T02:08:10.000Z</time>
      </trkpt>
      <trkpt lat="39.851156" lon="-8.867704">
        <ele>34.4</ele>
        <time>1970-01-01T02:08:11.000Z</time>
      </trkpt>
      <trkpt lat="39.851156" lon="-8.867691">
        <ele>34.4</ele>
        <time>1970-01-01T02:08:12.000Z</time>
      </trkpt>
      <trkpt lat="39.851157" lon="-8.867671">
        <ele>34.4</ele>
        <time>1970-01-01T02:08:13.000Z</time>
      </trkpt>
      <trkpt lat="39.851157" lon="-8.867648">
        <ele>34.4</ele>
        <time>1970-01-01T02:08:14.000Z</time>
      </trkpt>
      <trkpt lat="39.851157" lon="-8.867626">
        <ele>34.4</ele>
        <time>1970-01-01T02:08:15.000Z</time>
      </trkpt>
      <trkpt lat="39.851153" lon="-8.867569">
        <ele>34.4</ele>
        <time>1970-01-01T02:08:16.000Z</time>
      </trkpt>
      <trkpt lat="39.85115" lon="-8.867566">
        <ele>34.4</ele>
        <time>1970-01-01T02:08:17.000Z</time>
      </trkpt>
      <trkpt lat="39.851149" lon="-8.867562">
        <ele>34.4</ele>
        <time>1970-01-01T02:08:18.000Z</time>
      </trkpt>
      <trkpt lat="39.851146" lon="-8.867557">
        <ele>34.4</ele>
        <time>1970-01-01T02:08:19.000Z</time>
      </trkpt>
      <trkpt lat="39.851148" lon="-8.867552">
        <ele>34.4</ele>
        <time>1970-01-01T02:08:20.000Z</time>
      </trkpt>
      <trkpt lat="39.851153" lon="-8.867548">
        <ele>34.4</ele>
        <time>1970-01-01T02:08:21.000Z</time>
      </trkpt>
      <trkpt lat="39.851155" lon="-8.867548">
        <ele>34.4</ele>
        <time>1970-01-01T02:08:22.000Z</time>
      </trkpt>
      <trkpt lat="39.851156" lon="-8.867551">
        <ele>34.4</ele>
        <time>1970-01-01T02:08:23.000Z</time>
      </trkpt>
      <trkpt lat="39.851158" lon="-8.867553">
        <ele>34.4</ele>
        <time>1970-01-01T02:08:24.000Z</time>
      </trkpt>
      <trkpt lat="39.851166" lon="-8.867549">
        <ele>34.4</ele>
        <time>1970-01-01T02:08:25.000Z</time>
      </trkpt>
      <trkpt lat="39.85131" lon="-8.86749">
        <ele>34.4</ele>
        <time>1970-01-01T00:00:00.000Z</time>
      </trkpt>
      <trkpt lat="39.851304" lon="-8.867495">
        <ele>34.5</ele>
        <time>1970-01-01T00:00:01.000Z</time>
      </trkpt>
      <trkpt lat="39.851299" lon="-8.867489">
        <ele>34.6</ele>
        <time>1970-01-01T00:00:02.000Z</time>
      </trkpt>
      <trkpt lat="39.851293" lon="-8.86748">
        <ele>34.7</ele>
        <time>1970-01-01T00:00:03.000Z</time>
      </trkpt>
      <trkpt lat="39.851282" lon="-8.86748">
        <ele>34.9</ele>
        <time>1970-01-01T00:00:04.000Z</time>
      </trkpt>
      <trkpt lat="39.851281" lon="-8.867482">
        <ele>34.9</ele>
        <time>1970-01-01T00:00:05.000Z</time>
      </trkpt>
      <trkpt lat="39.851281" lon="-8.867482">
        <ele>34.9</ele>
        <time>1970-01-01T00:00:06.000Z</time>
      </trkpt>
      <trkpt lat="39.851282" lon="-8.86748">
        <ele>34.9</ele>
        <time>1970-01-01T00:00:07.000Z</time>
      </trkpt>
      <trkpt lat="39.851282" lon="-8.86748">
        <ele>34.9</ele>
        <time>1970-01-01T00:00:08.000Z</time>
      </trkpt>
      <trkpt lat="39.851296" lon="-8.867464">
        <ele>35.2</ele>
        <time>1970-01-01T00:00:09.000Z</time>
      </trkpt>
      <trkpt lat="39.851298" lon="-8.867457">
        <ele>35.3</ele>
        <time>1970-01-01T00:00:10.000Z</time>
      </trkpt>
      <trkpt lat="39.851281" lon="-8.867459">
        <ele>35.5</ele>
        <time>1970-01-01T00:00:11.000Z</time>
      </trkpt>
      <trkpt lat="39.851271" lon="-8.867461">
        <ele>35.6</ele>
        <time>1970-01-01T00:00:12.000Z</time>
      </trkpt>
      <trkpt lat="39.85126" lon="-8.867464">
        <ele>35.8</ele>
        <time>1970-01-01T00:00:13.000Z</time>
      </trkpt>
      <trkpt lat="39.85125" lon="-8.867467">
        <ele>35.9</ele>
        <time>1970-01-01T00:00:14.000Z</time>
      </trkpt>
      <trkpt lat="39.85124" lon="-8.867469">
        <ele>36.1</ele>
        <time>1970-01-01T00:00:15.000Z</time>
      </trkpt>
      <trkpt lat="39.85123" lon="-8.867472">
        <ele>36.2</ele>
        <time>1970-01-01T00:00:16.000Z</time>
      </trkpt>
      <trkpt lat="39.851219" lon="-8.867474">
        <ele>36.4</ele>
        <time>1970-01-01T00:00:17.000Z</time>
      </trkpt>
      <trkpt lat="39.851209" lon="-8.867477">
        <ele>36.5</ele>
        <time>1970-01-01T00:00:18.000Z</time>
      </trkpt>
      <trkpt lat="39.851184" lon="-8.867494">
        <ele>36.9</ele>
        <time>1970-01-01T00:00:19.000Z</time>
      </trkpt>
      <trkpt lat="39.851166" lon="-8.867514">
        <ele>37.2</ele>
        <time>1970-01-01T00:00:20.000Z</time>
      </trkpt>
      <trkpt lat="39.851147" lon="-8.867535">
        <ele>37.6</ele>
        <time>1970-01-01T00:00:26.000Z</time>
      </trkpt>
      <trkpt lat="39.851128" lon="-8.867555">
        <ele>37.9</ele>
        <time>1970-01-01T00:00:27.000Z</time>
      </trkpt>
      <trkpt lat="39.851117" lon="-8.867589">
        <ele>38.3</ele>
        <time>1970-01-01T00:00:28.000Z</time>
      </trkpt>
      <trkpt lat="39.851111" lon="-8.8676">
        <ele>38.5</ele>
        <time>1970-01-01T00:00:29.000Z</time>
      </trkpt>
      <trkpt lat="39.851099" lon="-8.867609">
        <ele>38.7</ele>
        <time>1970-01-01T00:00:30.000Z</time>
      </trkpt>
      <trkpt lat="39.851084" lon="-8.867612">
        <ele>38.9</ele>
        <time>1970-01-01T00:00:31.000Z</time>
      </trkpt>
      <trkpt lat="39.851073" lon="-8.867618">
        <ele>39</ele>
        <time>1970-01-01T00:00:32.000Z</time>
      </trkpt>
      <trkpt lat="39.851063" lon="-8.867623">
        <ele>39.2</ele>
        <time>1970-01-01T00:00:33.000Z</time>
      </trkpt>
      <trkpt lat="39.851051" lon="-8.867625">
        <ele>39.4</ele>
        <time>1970-01-01T00:00:34.000Z</time>
      </trkpt>
      <trkpt lat="39.851036" lon="-8.867617">
        <ele>39.6</ele>
        <time>1970-01-01T00:00:35.000Z</time>
      </trkpt>
      <trkpt lat="39.851019" lon="-8.867605">
        <ele>39.9</ele>
        <time>1970-01-01T00:00:36.000Z</time>
      </trkpt>
      <trkpt lat="39.851007" lon="-8.867603">
        <ele>40</ele>
        <time>1970-01-01T00:00:37.000Z</time>
      </trkpt>
      <trkpt lat="39.850996" lon="-8.867585">
        <ele>40.3</ele>
        <time>1970-01-01T00:00:38.000Z</time>
      </trkpt>
      <trkpt lat="39.850983" lon="-8.867574">
        <ele>40.5</ele>
        <time>1970-01-01T00:00:39.000Z</time>
      </trkpt>
      <trkpt lat="39.850969" lon="-8.867571">
        <ele>40.7</ele>
        <time>1970-01-01T00:00:40.000Z</time>
      </trkpt>
      <trkpt lat="39.850954" lon="-8.867568">
        <ele>40.9</ele>
        <time>1970-01-01T00:00:41.000Z</time>
      </trkpt>
      <trkpt lat="39.85094" lon="-8.867565">
        <ele>41.1</ele>
        <time>1970-01-01T00:00:42.000Z</time>
      </trkpt>
      <trkpt lat="39.850926" lon="-8.867562">
        <ele>41.1</ele>
        <time>1970-01-01T00:00:43.000Z</time>
      </trkpt>
      <trkpt lat="39.850912" lon="-8.867558">
        <ele>41.1</ele>
        <time>1970-01-01T00:00:44.000Z</time>
      </trkpt>
      <trkpt lat="39.850897" lon="-8.867555">
        <ele>41.1</ele>
        <time>1970-01-01T00:00:45.000Z</time>
      </trkpt>
      <trkpt lat="39.850883" lon="-8.867552">
        <ele>41.1</ele>
        <time>1970-01-01T00:00:46.000Z</time>
      </trkpt>
      <trkpt lat="39.850869" lon="-8.867549">
        <ele>41.1</ele>
        <time>1970-01-01T00:00:47.000Z</time>
      </trkpt>
      <trkpt lat="39.850855" lon="-8.867546">
        <ele>41.1</ele>
        <time>1970-01-01T00:00:48.000Z</time>
      </trkpt>
      <trkpt lat="39.85084" lon="-8.867543">
        <ele>41.1</ele>
        <time>1970-01-01T00:01:09.000Z</time>
      </trkpt>
      <trkpt lat="39.850826" lon="-8.86754">
        <ele>41.1</ele>
        <time>1970-01-01T00:01:10.000Z</time>
      </trkpt>
      <trkpt lat="39.850801" lon="-8.867506">
        <ele>41.1</ele>
        <time>1970-01-01T00:01:11.000Z</time>
      </trkpt>
      <trkpt lat="39.850793" lon="-8.867466">
        <ele>41</ele>
        <time>1970-01-01T00:01:12.000Z</time>
      </trkpt>
      <trkpt lat="39.85079" lon="-8.867417">
        <ele>40.9</ele>
        <time>1970-01-01T00:01:13.000Z</time>
      </trkpt>
      <trkpt lat="39.850791" lon="-8.867401">
        <ele>40.9</ele>
        <time>1970-01-01T00:01:14.000Z</time>
      </trkpt>
      <trkpt lat="39.850799" lon="-8.867362">
        <ele>40.9</ele>
        <time>1970-01-01T00:01:15.000Z</time>
      </trkpt>
      <trkpt lat="39.850794" lon="-8.867312">
        <ele>40.7</ele>
        <time>1970-01-01T00:01:16.000Z</time>
      </trkpt>
      <trkpt lat="39.850791" lon="-8.867294">
        <ele>40.7</ele>
        <time>1970-01-01T00:01:17.000Z</time>
      </trkpt>
      <trkpt lat="39.850786" lon="-8.867241">
        <ele>40.5</ele>
        <time>1970-01-01T00:01:18.000Z</time>
      </trkpt>
      <trkpt lat="39.850785" lon="-8.867221">
        <ele>40.5</ele>
        <time>1970-01-01T00:01:19.000Z</time>
      </trkpt>
      <trkpt lat="39.850788" lon="-8.867184">
        <ele>40.4</ele>
        <time>1970-01-01T00:01:20.000Z</time>
      </trkpt>
      <trkpt lat="39.850783" lon="-8.867142">
        <ele>40.3</ele>
        <time>1970-01-01T00:01:21.000Z</time>
      </trkpt>
      <trkpt lat="39.850786" lon="-8.867104">
        <ele>40.2</ele>
        <time>1970-01-01T00:01:22.000Z</time>
      </trkpt>
      <trkpt lat="39.850786" lon="-8.867062">
        <ele>40.2</ele>
        <time>1970-01-01T00:01:23.000Z</time>
      </trkpt>
      <trkpt lat="39.850785" lon="-8.867026">
        <ele>39.9</ele>
        <time>1970-01-01T00:01:24.000Z</time>
      </trkpt>
      <trkpt lat="39.850788" lon="-8.866985">
        <ele>39.8</ele>
        <time>1970-01-01T00:01:25.000Z</time>
      </trkpt>
      <trkpt lat="39.850787" lon="-8.866972">
        <ele>39.7</ele>
        <time>1970-01-01T00:01:26.000Z</time>
      </trkpt>
      <trkpt lat="39.850761" lon="-8.86694">
        <ele>39.6</ele>
        <time>1970-01-01T00:01:27.000Z</time>
      </trkpt>
      <trkpt lat="39.850753" lon="-8.866926">
        <ele>39.5</ele>
        <time>1970-01-01T00:01:28.000Z</time>
      </trkpt>
      <trkpt lat="39.850745" lon="-8.866887">
        <ele>39.4</ele>
        <time>1970-01-01T00:01:29.000Z</time>
      </trkpt>
      <trkpt lat="39.85074" lon="-8.866837">
        <ele>39.3</ele>
        <time>1970-01-01T00:01:30.000Z</time>
      </trkpt>
      <trkpt lat="39.850734" lon="-8.866789">
        <ele>39.2</ele>
        <time>1970-01-01T00:01:31.000Z</time>
      </trkpt>
      <trkpt lat="39.850737" lon="-8.866741">
        <ele>39.1</ele>
        <time>1970-01-01T00:01:32.000Z</time>
      </trkpt>
      <trkpt lat="39.850751" lon="-8.8667">
        <ele>39.1</ele>
        <time>1970-01-01T00:01:33.000Z</time>
      </trkpt>
      <trkpt lat="39.850764" lon="-8.866661">
        <ele>39</ele>
        <time>1970-01-01T00:01:34.000Z</time>
      </trkpt>
      <trkpt lat="39.850777" lon="-8.866629">
        <ele>38.5</ele>
        <time>1970-01-01T00:01:35.000Z</time>
      </trkpt>
      <trkpt lat="39.850784" lon="-8.866591">
        <ele>38.1</ele>
        <time>1970-01-01T00:01:36.000Z</time>
      </trkpt>
      <trkpt lat="39.850798" lon="-8.866547">
        <ele>37.9</ele>
        <time>1970-01-01T00:01:37.000Z</time>
      </trkpt>
      <trkpt lat="39.850811" lon="-8.866501">
        <ele>37.9</ele>
        <time>1970-01-01T00:01:38.000Z</time>
      </trkpt>
      <trkpt lat="39.850828" lon="-8.866466">
        <ele>37.9</ele>
        <time>1970-01-01T00:01:39.000Z</time>
      </trkpt>
      <trkpt lat="39.850834" lon="-8.866455">
        <ele>37.9</ele>
        <time>1970-01-01T00:01:40.000Z</time>
      </trkpt>
      <trkpt lat="39.85084" lon="-8.866437">
        <ele>37.8</ele>
        <time>1970-01-01T00:01:41.000Z</time>
      </trkpt>
      <trkpt lat="39.850842" lon="-8.866417">
        <ele>37.5</ele>
        <time>1970-01-01T00:01:42.000Z</time>
      </trkpt>
      <trkpt lat="39.850833" lon="-8.866374">
        <ele>36.8</ele>
        <time>1970-01-01T00:01:43.000Z</time>
      </trkpt>
      <trkpt lat="39.850828" lon="-8.866358">
        <ele>33.5</ele>
        <time>1970-01-01T00:01:44.000Z</time>
      </trkpt>
      <trkpt lat="39.850802" lon="-8.866323">
        <ele>33.5</ele>
        <time>1970-01-01T00:01:45.000Z</time>
      </trkpt>
      <trkpt lat="39.850764" lon="-8.866311">
        <ele>33.5</ele>
        <time>1970-01-01T00:01:46.000Z</time>
      </trkpt>
      <trkpt lat="39.85073" lon="-8.866296">
        <ele>33.5</ele>
        <time>1970-01-01T00:01:47.000Z</time>
      </trkpt>
      <trkpt lat="39.850693" lon="-8.866274">
        <ele>33.6</ele>
        <time>1970-01-01T00:01:48.000Z</time>
      </trkpt>
      <trkpt lat="39.850661" lon="-8.866254">
        <ele>33.6</ele>
        <time>1970-01-01T00:01:49.000Z</time>
      </trkpt>
      <trkpt lat="39.850632" lon="-8.866238">
        <ele>33.6</ele>
        <time>1970-01-01T00:01:50.000Z</time>
      </trkpt>
      <trkpt lat="39.850625" lon="-8.866236">
        <ele>33.6</ele>
        <time>1970-01-01T00:01:51.000Z</time>
      </trkpt>
      <trkpt lat="39.850612" lon="-8.866233">
        <ele>33.6</ele>
        <time>1970-01-01T00:01:52.000Z</time>
      </trkpt>
      <trkpt lat="39.850591" lon="-8.866224">
        <ele>33.6</ele>
        <time>1970-01-01T00:01:53.000Z</time>
      </trkpt>
      <trkpt lat="39.850559" lon="-8.866199">
        <ele>33.6</ele>
        <time>1970-01-01T00:01:54.000Z</time>
      </trkpt>
      <trkpt lat="39.850545" lon="-8.866188">
        <ele>33.6</ele>
        <time>1970-01-01T00:01:55.000Z</time>
      </trkpt>
      <trkpt lat="39.850514" lon="-8.866168">
        <ele>33.6</ele>
        <time>1970-01-01T00:01:56.000Z</time>
      </trkpt>
      <trkpt lat="39.850483" lon="-8.866156">
        <ele>33.6</ele>
        <time>1970-01-01T00:01:57.000Z</time>
      </trkpt>
      <trkpt lat="39.850453" lon="-8.866139">
        <ele>33.6</ele>
        <time>1970-01-01T00:01:58.000Z</time>
      </trkpt>
      <trkpt lat="39.850418" lon="-8.866121">
        <ele>33.6</ele>
        <time>1970-01-01T00:01:59.000Z</time>
      </trkpt>
      <trkpt lat="39.850386" lon="-8.866104">
        <ele>33.6</ele>
        <time>1970-01-01T00:02:00.000Z</time>
      </trkpt>
      <trkpt lat="39.850376" lon="-8.866097">
        <ele>33.6</ele>
        <time>1970-01-01T00:02:01.000Z</time>
      </trkpt>
      <trkpt lat="39.850365" lon="-8.866089">
        <ele>33.6</ele>
        <time>1970-01-01T00:02:02.000Z</time>
      </trkpt>
      <trkpt lat="39.850353" lon="-8.866082">
        <ele>33.6</ele>
        <time>1970-01-01T00:02:03.000Z</time>
      </trkpt>
      <trkpt lat="39.850305" lon="-8.866065">
        <ele>33.7</ele>
        <time>1970-01-01T00:02:04.000Z</time>
      </trkpt>
      <trkpt lat="39.85028" lon="-8.866054">
        <ele>33.7</ele>
        <time>1970-01-01T00:02:05.000Z</time>
      </trkpt>
      <trkpt lat="39.850241" lon="-8.866033">
        <ele>33.7</ele>
        <time>1970-01-01T00:02:06.000Z</time>
      </trkpt>
      <trkpt lat="39.850199" lon="-8.866007">
        <ele>33.7</ele>
        <time>1970-01-01T00:02:07.000Z</time>
      </trkpt>
      <trkpt lat="39.850163" lon="-8.865984">
        <ele>33.6</ele>
        <time>1970-01-01T00:02:08.000Z</time>
      </trkpt>
      <trkpt lat="39.850126" lon="-8.86596">
        <ele>33.5</ele>
        <time>1970-01-01T00:02:09.000Z</time>
      </trkpt>
      <trkpt lat="39.850095" lon="-8.865943">
        <ele>33.5</ele>
        <time>1970-01-01T00:02:10.000Z</time>
      </trkpt>
      <trkpt lat="39.85005" lon="-8.865928">
        <ele>33.4</ele>
        <time>1970-01-01T00:02:11.000Z</time>
      </trkpt>
      <trkpt lat="39.850012" lon="-8.865912">
        <ele>33.3</ele>
        <time>1970-01-01T00:02:12.000Z</time>
      </trkpt>
      <trkpt lat="39.849973" lon="-8.865895">
        <ele>33.2</ele>
        <time>1970-01-01T00:02:13.000Z</time>
      </trkpt>
      <trkpt lat="39.849937" lon="-8.865872">
        <ele>33.1</ele>
        <time>1970-01-01T00:02:14.000Z</time>
      </trkpt>
      <trkpt lat="39.849902" lon="-8.865851">
        <ele>33.1</ele>
        <time>1970-01-01T00:02:15.000Z</time>
      </trkpt>
      <trkpt lat="39.84987" lon="-8.865835">
        <ele>33</ele>
        <time>1970-01-01T00:02:16.000Z</time>
      </trkpt>
      <trkpt lat="39.849837" lon="-8.865832">
        <ele>32.9</ele>
        <time>1970-01-01T00:02:17.000Z</time>
      </trkpt>
      <trkpt lat="39.849797" lon="-8.865818">
        <ele>32.9</ele>
        <time>1970-01-01T00:02:18.000Z</time>
      </trkpt>
      <trkpt lat="39.84978" lon="-8.865812">
        <ele>32.9</ele>
        <time>1970-01-01T00:02:19.000Z</time>
      </trkpt>
      <trkpt lat="39.84975" lon="-8.865798">
        <ele>32.8</ele>
        <time>1970-01-01T00:02:20.000Z</time>
      </trkpt>
      <trkpt lat="39.849731" lon="-8.865796">
        <ele>32.8</ele>
        <time>1970-01-01T00:02:21.000Z</time>
      </trkpt>
      <trkpt lat="39.849722" lon="-8.865786">
        <ele>32.8</ele>
        <time>1970-01-01T00:02:22.000Z</time>
      </trkpt>
      <trkpt lat="39.849712" lon="-8.86578">
        <ele>32.8</ele>
        <time>1970-01-01T00:02:23.000Z</time>
      </trkpt>
      <trkpt lat="39.849705" lon="-8.865783">
        <ele>32.7</ele>
        <time>1970-01-01T00:02:24.000Z</time>
      </trkpt>
      <trkpt lat="39.849692" lon="-8.865786">
        <ele>32.7</ele>
        <time>1970-01-01T00:02:25.000Z</time>
      </trkpt>
      <trkpt lat="39.849673" lon="-8.865784">
        <ele>32.7</ele>
        <time>1970-01-01T00:02:26.000Z</time>
      </trkpt>
      <trkpt lat="39.849659" lon="-8.865766">
        <ele>32.7</ele>
        <time>1970-01-01T00:02:27.000Z</time>
      </trkpt>
      <trkpt lat="39.849628" lon="-8.865735">
        <ele>32.6</ele>
        <time>1970-01-01T00:02:28.000Z</time>
      </trkpt>
      <trkpt lat="39.8496" lon="-8.865698">
        <ele>32.7</ele>
        <time>1970-01-01T00:02:29.000Z</time>
      </trkpt>
      <trkpt lat="39.849569" lon="-8.865672">
        <ele>32.8</ele>
        <time>1970-01-01T00:02:30.000Z</time>
      </trkpt>
      <trkpt lat="39.84954" lon="-8.865653">
        <ele>32.8</ele>
        <time>1970-01-01T00:02:31.000Z</time>
      </trkpt>
      <trkpt lat="39.849505" lon="-8.865634">
        <ele>33</ele>
        <time>1970-01-01T00:02:32.000Z</time>
      </trkpt>
      <trkpt lat="39.849474" lon="-8.865607">
        <ele>33.1</ele>
        <time>1970-01-01T00:02:33.000Z</time>
      </trkpt>
      <trkpt lat="39.849442" lon="-8.865578">
        <ele>33.2</ele>
        <time>1970-01-01T00:02:34.000Z</time>
      </trkpt>
      <trkpt lat="39.849417" lon="-8.865558">
        <ele>33.2</ele>
        <time>1970-01-01T00:02:35.000Z</time>
      </trkpt>
      <trkpt lat="39.849385" lon="-8.865532">
        <ele>33.3</ele>
        <time>1970-01-01T00:02:36.000Z</time>
      </trkpt>
      <trkpt lat="39.849357" lon="-8.865501">
        <ele>33.5</ele>
        <time>1970-01-01T00:02:37.000Z</time>
      </trkpt>
      <trkpt lat="39.849327" lon="-8.865471">
        <ele>33.6</ele>
        <time>1970-01-01T00:02:38.000Z</time>
      </trkpt>
      <trkpt lat="39.849298" lon="-8.865444">
        <ele>33.7</ele>
        <time>1970-01-01T00:02:39.000Z</time>
      </trkpt>
      <trkpt lat="39.849269" lon="-8.865418">
        <ele>33.8</ele>
        <time>1970-01-01T00:02:40.000Z</time>
      </trkpt>
      <trkpt lat="39.849237" lon="-8.865387">
        <ele>33.9</ele>
        <time>1970-01-01T00:02:41.000Z</time>
      </trkpt>
      <trkpt lat="39.849203" lon="-8.865357">
        <ele>34</ele>
        <time>1970-01-01T00:02:42.000Z</time>
      </trkpt>
      <trkpt lat="39.849172" lon="-8.865315">
        <ele>34.1</ele>
        <time>1970-01-01T00:02:43.000Z</time>
      </trkpt>
      <trkpt lat="39.849149" lon="-8.865287">
        <ele>34.2</ele>
        <time>1970-01-01T00:02:44.000Z</time>
      </trkpt>
      <trkpt lat="39.849111" lon="-8.86525">
        <ele>34.4</ele>
        <time>1970-01-01T00:02:45.000Z</time>
      </trkpt>
      <trkpt lat="39.849072" lon="-8.865218">
        <ele>34.5</ele>
        <time>1970-01-01T00:02:46.000Z</time>
      </trkpt>
      <trkpt lat="39.849041" lon="-8.86519">
        <ele>34.7</ele>
        <time>1970-01-01T00:02:47.000Z</time>
      </trkpt>
      <trkpt lat="39.849005" lon="-8.865158">
        <ele>34.8</ele>
        <time>1970-01-01T00:02:48.000Z</time>
      </trkpt>
      <trkpt lat="39.84898" lon="-8.865129">
        <ele>34.9</ele>
        <time>1970-01-01T00:02:49.000Z</time>
      </trkpt>
      <trkpt lat="39.848959" lon="-8.8651">
        <ele>35</ele>
        <time>1970-01-01T00:02:50.000Z</time>
      </trkpt>
      <trkpt lat="39.848935" lon="-8.865082">
        <ele>35</ele>
        <time>1970-01-01T00:02:51.000Z</time>
      </trkpt>
      <trkpt lat="39.848904" lon="-8.86505">
        <ele>35.1</ele>
        <time>1970-01-01T00:02:52.000Z</time>
      </trkpt>
      <trkpt lat="39.848892" lon="-8.865037">
        <ele>35.1</ele>
        <time>1970-01-01T00:02:53.000Z</time>
      </trkpt>
      <trkpt lat="39.848863" lon="-8.865038">
        <ele>35.2</ele>
        <time>1970-01-01T00:02:54.000Z</time>
      </trkpt>
      <trkpt lat="39.848836" lon="-8.865057">
        <ele>35.3</ele>
        <time>1970-01-01T00:02:55.000Z</time>
      </trkpt>
      <trkpt lat="39.848806" lon="-8.865085">
        <ele>35.4</ele>
        <time>1970-01-01T00:02:56.000Z</time>
      </trkpt>
      <trkpt lat="39.848776" lon="-8.865107">
        <ele>35.4</ele>
        <time>1970-01-01T00:02:57.000Z</time>
      </trkpt>
      <trkpt lat="39.848736" lon="-8.865117">
        <ele>35.4</ele>
        <time>1970-01-01T00:02:58.000Z</time>
      </trkpt>
      <trkpt lat="39.848701" lon="-8.865122">
        <ele>35.5</ele>
        <time>1970-01-01T00:02:59.000Z</time>
      </trkpt>
      <trkpt lat="39.848664" lon="-8.865124">
        <ele>35.6</ele>
        <time>1970-01-01T00:03:00.000Z</time>
      </trkpt>
      <trkpt lat="39.848621" lon="-8.865121">
        <ele>35.6</ele>
        <time>1970-01-01T00:03:01.000Z</time>
      </trkpt>
      <trkpt lat="39.848579" lon="-8.865103">
        <ele>35.7</ele>
        <time>1970-01-01T00:03:02.000Z</time>
      </trkpt>
      <trkpt lat="39.848542" lon="-8.865099">
        <ele>35.8</ele>
        <time>1970-01-01T00:03:03.000Z</time>
      </trkpt>
      <trkpt lat="39.848504" lon="-8.865091">
        <ele>35.8</ele>
        <time>1970-01-01T00:03:04.000Z</time>
      </trkpt>
      <trkpt lat="39.848459" lon="-8.865084">
        <ele>35.9</ele>
        <time>1970-01-01T00:03:05.000Z</time>
      </trkpt>
      <trkpt lat="39.848417" lon="-8.865062">
        <ele>36</ele>
        <time>1970-01-01T00:03:06.000Z</time>
      </trkpt>
      <trkpt lat="39.848379" lon="-8.865046">
        <ele>36</ele>
        <time>1970-01-01T00:03:07.000Z</time>
      </trkpt>
      <trkpt lat="39.848344" lon="-8.86503">
        <ele>36.1</ele>
        <time>1970-01-01T00:03:08.000Z</time>
      </trkpt>
      <trkpt lat="39.84831" lon="-8.865021">
        <ele>36.1</ele>
        <time>1970-01-01T00:03:09.000Z</time>
      </trkpt>
      <trkpt lat="39.848281" lon="-8.865003">
        <ele>36.2</ele>
        <time>1970-01-01T00:03:10.000Z</time>
      </trkpt>
      <trkpt lat="39.848255" lon="-8.864988">
        <ele>36.2</ele>
        <time>1970-01-01T00:03:11.000Z</time>
      </trkpt>
      <trkpt lat="39.848225" lon="-8.864982">
        <ele>36.2</ele>
        <time>1970-01-01T00:03:12.000Z</time>
      </trkpt>
      <trkpt lat="39.848188" lon="-8.864977">
        <ele>36.3</ele>
        <time>1970-01-01T00:03:13.000Z</time>
      </trkpt>
      <trkpt lat="39.848142" lon="-8.864963">
        <ele>36.2</ele>
        <time>1970-01-01T00:03:14.000Z</time>
      </trkpt>
      <trkpt lat="39.848107" lon="-8.864943">
        <ele>36.1</ele>
        <time>1970-01-01T00:03:15.000Z</time>
      </trkpt>
      <trkpt lat="39.848071" lon="-8.864936">
        <ele>36</ele>
        <time>1970-01-01T00:03:16.000Z</time>
      </trkpt>
      <trkpt lat="39.848022" lon="-8.864939">
        <ele>35.9</ele>
        <time>1970-01-01T00:03:17.000Z</time>
      </trkpt>
      <trkpt lat="39.847982" lon="-8.864935">
        <ele>35.7</ele>
        <time>1970-01-01T00:03:18.000Z</time>
      </trkpt>
      <trkpt lat="39.847938" lon="-8.864919">
        <ele>35.6</ele>
        <time>1970-01-01T00:03:19.000Z</time>
      </trkpt>
      <trkpt lat="39.847891" lon="-8.864903">
        <ele>35.4</ele>
        <time>1970-01-01T00:03:20.000Z</time>
      </trkpt>
      <trkpt lat="39.847849" lon="-8.864895">
        <ele>35.3</ele>
        <time>1970-01-01T00:03:21.000Z</time>
      </trkpt>
      <trkpt lat="39.847805" lon="-8.864872">
        <ele>35.1</ele>
        <time>1970-01-01T00:03:22.000Z</time>
      </trkpt>
      <trkpt lat="39.84776" lon="-8.864846">
        <ele>34.9</ele>
        <time>1970-01-01T00:03:23.000Z</time>
      </trkpt>
      <trkpt lat="39.847715" lon="-8.864825">
        <ele>34.6</ele>
        <time>1970-01-01T00:03:24.000Z</time>
      </trkpt>
      <trkpt lat="39.847671" lon="-8.864808">
        <ele>34.4</ele>
        <time>1970-01-01T00:03:25.000Z</time>
      </trkpt>
      <trkpt lat="39.847626" lon="-8.864787">
        <ele>34.1</ele>
        <time>1970-01-01T00:03:26.000Z</time>
      </trkpt>
      <trkpt lat="39.847582" lon="-8.864771">
        <ele>33.8</ele>
        <time>1970-01-01T00:03:27.000Z</time>
      </trkpt>
      <trkpt lat="39.847534" lon="-8.864733">
        <ele>33.3</ele>
        <time>1970-01-01T00:03:28.000Z</time>
      </trkpt>
      <trkpt lat="39.847484" lon="-8.8647">
        <ele>32.9</ele>
        <time>1970-01-01T00:03:29.000Z</time>
      </trkpt>
      <trkpt lat="39.847438" lon="-8.864667">
        <ele>32.4</ele>
        <time>1970-01-01T00:03:30.000Z</time>
      </trkpt>
      <trkpt lat="39.847384" lon="-8.864638">
        <ele>31.8</ele>
        <time>1970-01-01T00:03:31.000Z</time>
      </trkpt>
      <trkpt lat="39.847324" lon="-8.864598">
        <ele>31.2</ele>
        <time>1970-01-01T00:03:32.000Z</time>
      </trkpt>
      <trkpt lat="39.847265" lon="-8.864544">
        <ele>30.4</ele>
        <time>1970-01-01T00:03:33.000Z</time>
      </trkpt>
      <trkpt lat="39.847209" lon="-8.864492">
        <ele>29.7</ele>
        <time>1970-01-01T00:03:34.000Z</time>
      </trkpt>
      <trkpt lat="39.847136" lon="-8.864439">
        <ele>28.7</ele>
        <time>1970-01-01T00:03:35.000Z</time>
      </trkpt>
      <trkpt lat="39.847068" lon="-8.864382">
        <ele>27.8</ele>
        <time>1970-01-01T00:03:36.000Z</time>
      </trkpt>
      <trkpt lat="39.846997" lon="-8.864321">
        <ele>26.8</ele>
        <time>1970-01-01T00:03:37.000Z</time>
      </trkpt>
      <trkpt lat="39.846921" lon="-8.864255">
        <ele>25.7</ele>
        <time>1970-01-01T00:03:38.000Z</time>
      </trkpt>
      <trkpt lat="39.846838" lon="-8.864182">
        <ele>24.5</ele>
        <time>1970-01-01T00:03:39.000Z</time>
      </trkpt>
      <trkpt lat="39.846758" lon="-8.864118">
        <ele>23.4</ele>
        <time>1970-01-01T00:03:40.000Z</time>
      </trkpt>
      <trkpt lat="39.846683" lon="-8.864045">
        <ele>22.5</ele>
        <time>1970-01-01T00:03:41.000Z</time>
      </trkpt>
      <trkpt lat="39.846608" lon="-8.863977">
        <ele>21.6</ele>
        <time>1970-01-01T00:03:42.000Z</time>
      </trkpt>
      <trkpt lat="39.846526" lon="-8.863914">
        <ele>20.8</ele>
        <time>1970-01-01T00:03:43.000Z</time>
      </trkpt>
      <trkpt lat="39.846434" lon="-8.863858">
        <ele>20.1</ele>
        <time>1970-01-01T00:03:44.000Z</time>
      </trkpt>
      <trkpt lat="39.846354" lon="-8.863798">
        <ele>19.5</ele>
        <time>1970-01-01T00:03:45.000Z</time>
      </trkpt>
      <trkpt lat="39.846271" lon="-8.863731">
        <ele>18.9</ele>
        <time>1970-01-01T00:03:46.000Z</time>
      </trkpt>
      <trkpt lat="39.846195" lon="-8.86366">
        <ele>18.6</ele>
        <time>1970-01-01T00:03:47.000Z</time>
      </trkpt>
      <trkpt lat="39.846119" lon="-8.863588">
        <ele>18.3</ele>
        <time>1970-01-01T00:03:48.000Z</time>
      </trkpt>
      <trkpt lat="39.846045" lon="-8.863512">
        <ele>18.2</ele>
        <time>1970-01-01T00:03:49.000Z</time>
      </trkpt>
      <trkpt lat="39.845979" lon="-8.863446">
        <ele>18.2</ele>
        <time>1970-01-01T00:03:50.000Z</time>
      </trkpt>
      <trkpt lat="39.845919" lon="-8.863409">
        <ele>18.3</ele>
        <time>1970-01-01T00:03:51.000Z</time>
      </trkpt>
      <trkpt lat="39.845879" lon="-8.863364">
        <ele>18.3</ele>
        <time>1970-01-01T00:03:52.000Z</time>
      </trkpt>
      <trkpt lat="39.845843" lon="-8.863319">
        <ele>18.4</ele>
        <time>1970-01-01T00:03:53.000Z</time>
      </trkpt>
      <trkpt lat="39.845814" lon="-8.863292">
        <ele>18.4</ele>
        <time>1970-01-01T00:03:54.000Z</time>
      </trkpt>
      <trkpt lat="39.845785" lon="-8.863289">
        <ele>18.4</ele>
        <time>1970-01-01T00:03:55.000Z</time>
      </trkpt>
      <trkpt lat="39.845753" lon="-8.863299">
        <ele>18.4</ele>
        <time>1970-01-01T00:03:56.000Z</time>
      </trkpt>
      <trkpt lat="39.845727" lon="-8.863335">
        <ele>18.3</ele>
        <time>1970-01-01T00:03:57.000Z</time>
      </trkpt>
      <trkpt lat="39.845697" lon="-8.863384">
        <ele>18.3</ele>
        <time>1970-01-01T00:03:58.000Z</time>
      </trkpt>
      <trkpt lat="39.845671" lon="-8.863434">
        <ele>18.3</ele>
        <time>1970-01-01T00:03:59.000Z</time>
      </trkpt>
      <trkpt lat="39.845649" lon="-8.863479">
        <ele>18.3</ele>
        <time>1970-01-01T00:04:00.000Z</time>
      </trkpt>
      <trkpt lat="39.845628" lon="-8.863529">
        <ele>18.3</ele>
        <time>1970-01-01T00:04:01.000Z</time>
      </trkpt>
      <trkpt lat="39.845616" lon="-8.863583">
        <ele>18.3</ele>
        <time>1970-01-01T00:04:02.000Z</time>
      </trkpt>
      <trkpt lat="39.845607" lon="-8.863637">
        <ele>18.3</ele>
        <time>1970-01-01T00:04:03.000Z</time>
      </trkpt>
      <trkpt lat="39.845595" lon="-8.863692">
        <ele>18.3</ele>
        <time>1970-01-01T00:04:04.000Z</time>
      </trkpt>
      <trkpt lat="39.845584" lon="-8.863751">
        <ele>18.4</ele>
        <time>1970-01-01T00:04:05.000Z</time>
      </trkpt>
      <trkpt lat="39.845575" lon="-8.863798">
        <ele>18.5</ele>
        <time>1970-01-01T00:04:06.000Z</time>
      </trkpt>
      <trkpt lat="39.845565" lon="-8.86386">
        <ele>18.5</ele>
        <time>1970-01-01T00:04:07.000Z</time>
      </trkpt>
      <trkpt lat="39.845542" lon="-8.863903">
        <ele>18.6</ele>
        <time>1970-01-01T00:04:08.000Z</time>
      </trkpt>
      <trkpt lat="39.8455" lon="-8.863951">
        <ele>18.7</ele>
        <time>1970-01-01T00:04:09.000Z</time>
      </trkpt>
      <trkpt lat="39.845451" lon="-8.863976">
        <ele>18.9</ele>
        <time>1970-01-01T00:04:11.000Z</time>
      </trkpt>
      <trkpt lat="39.845431" lon="-8.863986">
        <ele>18.9</ele>
        <time>1970-01-01T00:04:12.000Z</time>
      </trkpt>
      <trkpt lat="39.845418" lon="-8.863998">
        <ele>19</ele>
        <time>1970-01-01T00:04:13.000Z</time>
      </trkpt>
      <trkpt lat="39.845254" lon="-8.864041">
        <ele>18.9</ele>
        <time>1970-01-01T00:04:14.000Z</time>
      </trkpt>
      <trkpt lat="39.845222" lon="-8.864048">
        <ele>18.7</ele>
        <time>1970-01-01T00:04:15.000Z</time>
      </trkpt>
      <trkpt lat="39.845163" lon="-8.864077">
        <ele>18.3</ele>
        <time>1970-01-01T00:04:16.000Z</time>
      </trkpt>
      <trkpt lat="39.845105" lon="-8.864111">
        <ele>18.1</ele>
        <time>1970-01-01T00:04:17.000Z</time>
      </trkpt>
      <trkpt lat="39.845048" lon="-8.86414">
        <ele>18</ele>
        <time>1970-01-01T00:04:18.000Z</time>
      </trkpt>
      <trkpt lat="39.844997" lon="-8.864158">
        <ele>18</ele>
        <time>1970-01-01T00:04:19.000Z</time>
      </trkpt>
      <trkpt lat="39.844941" lon="-8.864172">
        <ele>17.9</ele>
        <time>1970-01-01T00:04:20.000Z</time>
      </trkpt>
      <trkpt lat="39.844884" lon="-8.864191">
        <ele>17.8</ele>
        <time>1970-01-01T00:04:21.000Z</time>
      </trkpt>
      <trkpt lat="39.844823" lon="-8.864205">
        <ele>17.7</ele>
        <time>1970-01-01T00:04:22.000Z</time>
      </trkpt>
      <trkpt lat="39.844765" lon="-8.864219">
        <ele>17.6</ele>
        <time>1970-01-01T00:04:23.000Z</time>
      </trkpt>
      <trkpt lat="39.844701" lon="-8.864222">
        <ele>17.4</ele>
        <time>1970-01-01T00:04:24.000Z</time>
      </trkpt>
      <trkpt lat="39.844635" lon="-8.864232">
        <ele>17.3</ele>
        <time>1970-01-01T00:04:25.000Z</time>
      </trkpt>
      <trkpt lat="39.844572" lon="-8.864241">
        <ele>17.2</ele>
        <time>1970-01-01T00:04:26.000Z</time>
      </trkpt>
      <trkpt lat="39.844513" lon="-8.864236">
        <ele>17.1</ele>
        <time>1970-01-01T00:04:27.000Z</time>
      </trkpt>
      <trkpt lat="39.844461" lon="-8.864238">
        <ele>17</ele>
        <time>1970-01-01T00:04:28.000Z</time>
      </trkpt>
      <trkpt lat="39.844409" lon="-8.864238">
        <ele>16.9</ele>
        <time>1970-01-01T00:04:29.000Z</time>
      </trkpt>
      <trkpt lat="39.844359" lon="-8.864237">
        <ele>16.9</ele>
        <time>1970-01-01T00:04:30.000Z</time>
      </trkpt>
      <trkpt lat="39.84431" lon="-8.864237">
        <ele>16.8</ele>
        <time>1970-01-01T00:04:31.000Z</time>
      </trkpt>
      <trkpt lat="39.844258" lon="-8.864247">
        <ele>16.8</ele>
        <time>1970-01-01T00:04:32.000Z</time>
      </trkpt>
      <trkpt lat="39.844204" lon="-8.864264">
        <ele>16.8</ele>
        <time>1970-01-01T00:04:33.000Z</time>
      </trkpt>
      <trkpt lat="39.844087" lon="-8.864273">
        <ele>16.7</ele>
        <time>1970-01-01T00:04:34.000Z</time>
      </trkpt>
      <trkpt lat="39.844017" lon="-8.864268">
        <ele>16.7</ele>
        <time>1970-01-01T00:04:35.000Z</time>
      </trkpt>
      <trkpt lat="39.84396" lon="-8.864264">
        <ele>16.7</ele>
        <time>1970-01-01T00:04:36.000Z</time>
      </trkpt>
      <trkpt lat="39.843914" lon="-8.864255">
        <ele>16.7</ele>
        <time>1970-01-01T00:04:37.000Z</time>
      </trkpt>
      <trkpt lat="39.843854" lon="-8.864262">
        <ele>16.6</ele>
        <time>1970-01-01T00:04:38.000Z</time>
      </trkpt>
      <trkpt lat="39.84381" lon="-8.864265">
        <ele>16.6</ele>
        <time>1970-01-01T00:04:39.000Z</time>
      </trkpt>
      <trkpt lat="39.84376" lon="-8.864259">
        <ele>16.6</ele>
        <time>1970-01-01T00:04:40.000Z</time>
      </trkpt>
      <trkpt lat="39.843721" lon="-8.864261">
        <ele>16.7</ele>
        <time>1970-01-01T00:04:41.000Z</time>
      </trkpt>
      <trkpt lat="39.843666" lon="-8.864254">
        <ele>16.7</ele>
        <time>1970-01-01T00:04:42.000Z</time>
      </trkpt>
      <trkpt lat="39.843603" lon="-8.864261">
        <ele>16.7</ele>
        <time>1970-01-01T00:04:43.000Z</time>
      </trkpt>
      <trkpt lat="39.843553" lon="-8.864268">
        <ele>16.7</ele>
        <time>1970-01-01T00:04:44.000Z</time>
      </trkpt>
      <trkpt lat="39.843501" lon="-8.864275">
        <ele>16.7</ele>
        <time>1970-01-01T00:04:45.000Z</time>
      </trkpt>
      <trkpt lat="39.843451" lon="-8.864284">
        <ele>16.7</ele>
        <time>1970-01-01T00:04:46.000Z</time>
      </trkpt>
      <trkpt lat="39.843393" lon="-8.864299">
        <ele>16.8</ele>
        <time>1970-01-01T00:04:47.000Z</time>
      </trkpt>
      <trkpt lat="39.843333" lon="-8.864306">
        <ele>16.8</ele>
        <time>1970-01-01T00:04:48.000Z</time>
      </trkpt>
      <trkpt lat="39.843272" lon="-8.864304">
        <ele>16.8</ele>
        <time>1970-01-01T00:04:49.000Z</time>
      </trkpt>
      <trkpt lat="39.843224" lon="-8.86432">
        <ele>16.9</ele>
        <time>1970-01-01T00:04:50.000Z</time>
      </trkpt>
      <trkpt lat="39.843169" lon="-8.864333">
        <ele>16.9</ele>
        <time>1970-01-01T00:04:51.000Z</time>
      </trkpt>
      <trkpt lat="39.843124" lon="-8.864342">
        <ele>17</ele>
        <time>1970-01-01T00:04:52.000Z</time>
      </trkpt>
      <trkpt lat="39.843092" lon="-8.864353">
        <ele>17.1</ele>
        <time>1970-01-01T00:04:53.000Z</time>
      </trkpt>
      <trkpt lat="39.843048" lon="-8.864362">
        <ele>17.1</ele>
        <time>1970-01-01T00:04:54.000Z</time>
      </trkpt>
      <trkpt lat="39.843014" lon="-8.864363">
        <ele>17.2</ele>
        <time>1970-01-01T00:04:55.000Z</time>
      </trkpt>
      <trkpt lat="39.842965" lon="-8.864373">
        <ele>17.2</ele>
        <time>1970-01-01T00:04:56.000Z</time>
      </trkpt>
      <trkpt lat="39.842934" lon="-8.864369">
        <ele>17.3</ele>
        <time>1970-01-01T00:04:57.000Z</time>
      </trkpt>
      <trkpt lat="39.842893" lon="-8.864369">
        <ele>17.3</ele>
        <time>1970-01-01T00:04:58.000Z</time>
      </trkpt>
      <trkpt lat="39.842848" lon="-8.86437">
        <ele>17.3</ele>
        <time>1970-01-01T00:04:59.000Z</time>
      </trkpt>
      <trkpt lat="39.842805" lon="-8.864372">
        <ele>17.3</ele>
        <time>1970-01-01T00:05:00.000Z</time>
      </trkpt>
      <trkpt lat="39.842757" lon="-8.864374">
        <ele>17.2</ele>
        <time>1970-01-01T00:05:01.000Z</time>
      </trkpt>
      <trkpt lat="39.842708" lon="-8.864361">
        <ele>17</ele>
        <time>1970-01-01T00:05:02.000Z</time>
      </trkpt>
      <trkpt lat="39.842664" lon="-8.864348">
        <ele>16.8</ele>
        <time>1970-01-01T00:05:03.000Z</time>
      </trkpt>
      <trkpt lat="39.842608" lon="-8.864323">
        <ele>16.5</ele>
        <time>1970-01-01T00:05:04.000Z</time>
      </trkpt>
      <trkpt lat="39.842547" lon="-8.864294">
        <ele>16.1</ele>
        <time>1970-01-01T00:05:05.000Z</time>
      </trkpt>
      <trkpt lat="39.842489" lon="-8.864263">
        <ele>15.8</ele>
        <time>1970-01-01T00:05:06.000Z</time>
      </trkpt>
      <trkpt lat="39.842436" lon="-8.864217">
        <ele>15.4</ele>
        <time>1970-01-01T00:05:07.000Z</time>
      </trkpt>
      <trkpt lat="39.842372" lon="-8.864183">
        <ele>15</ele>
        <time>1970-01-01T00:05:08.000Z</time>
      </trkpt>
      <trkpt lat="39.842307" lon="-8.864147">
        <ele>14.6</ele>
        <time>1970-01-01T00:05:09.000Z</time>
      </trkpt>
      <trkpt lat="39.842252" lon="-8.864104">
        <ele>14.3</ele>
        <time>1970-01-01T00:05:10.000Z</time>
      </trkpt>
      <trkpt lat="39.842197" lon="-8.864055">
        <ele>14</ele>
        <time>1970-01-01T00:05:11.000Z</time>
      </trkpt>
      <trkpt lat="39.842128" lon="-8.86399">
        <ele>13.7</ele>
        <time>1970-01-01T00:05:12.000Z</time>
      </trkpt>
      <trkpt lat="39.842065" lon="-8.863924">
        <ele>13.4</ele>
        <time>1970-01-01T00:05:13.000Z</time>
      </trkpt>
      <trkpt lat="39.842018" lon="-8.863871">
        <ele>13.2</ele>
        <time>1970-01-01T00:05:14.000Z</time>
      </trkpt>
      <trkpt lat="39.841963" lon="-8.863831">
        <ele>13</ele>
        <time>1970-01-01T00:05:15.000Z</time>
      </trkpt>
      <trkpt lat="39.841895" lon="-8.863812">
        <ele>12.7</ele>
        <time>1970-01-01T00:05:16.000Z</time>
      </trkpt>
      <trkpt lat="39.84182" lon="-8.863804">
        <ele>12.4</ele>
        <time>1970-01-01T00:05:17.000Z</time>
      </trkpt>
      <trkpt lat="39.841746" lon="-8.863813">
        <ele>12.2</ele>
        <time>1970-01-01T00:05:18.000Z</time>
      </trkpt>
      <trkpt lat="39.841683" lon="-8.863833">
        <ele>12.1</ele>
        <time>1970-01-01T00:05:19.000Z</time>
      </trkpt>
      <trkpt lat="39.841621" lon="-8.863853">
        <ele>12</ele>
        <time>1970-01-01T00:05:20.000Z</time>
      </trkpt>
      <trkpt lat="39.841555" lon="-8.863876">
        <ele>12</ele>
        <time>1970-01-01T00:05:21.000Z</time>
      </trkpt>
      <trkpt lat="39.841494" lon="-8.863891">
        <ele>12</ele>
        <time>1970-01-01T00:05:22.000Z</time>
      </trkpt>
      <trkpt lat="39.841434" lon="-8.863899">
        <ele>12.1</ele>
        <time>1970-01-01T00:05:23.000Z</time>
      </trkpt>
      <trkpt lat="39.84138" lon="-8.863893">
        <ele>12.2</ele>
        <time>1970-01-01T00:05:24.000Z</time>
      </trkpt>
      <trkpt lat="39.841338" lon="-8.863884">
        <ele>12.3</ele>
        <time>1970-01-01T00:05:25.000Z</time>
      </trkpt>
      <trkpt lat="39.841296" lon="-8.863875">
        <ele>12.5</ele>
        <time>1970-01-01T00:05:26.000Z</time>
      </trkpt>
      <trkpt lat="39.841263" lon="-8.863868">
        <ele>12.7</ele>
        <time>1970-01-01T00:05:27.000Z</time>
      </trkpt>
      <trkpt lat="39.841232" lon="-8.863872">
        <ele>12.8</ele>
        <time>1970-01-01T00:05:28.000Z</time>
      </trkpt>
      <trkpt lat="39.841202" lon="-8.86386">
        <ele>13</ele>
        <time>1970-01-01T00:05:29.000Z</time>
      </trkpt>
      <trkpt lat="39.841196" lon="-8.863856">
        <ele>13.1</ele>
        <time>1970-01-01T00:05:30.000Z</time>
      </trkpt>
      <trkpt lat="39.841168" lon="-8.86386">
        <ele>13.2</ele>
        <time>1970-01-01T00:05:31.000Z</time>
      </trkpt>
      <trkpt lat="39.84114" lon="-8.863858">
        <ele>13.4</ele>
        <time>1970-01-01T00:05:32.000Z</time>
      </trkpt>
      <trkpt lat="39.841109" lon="-8.863859">
        <ele>13.6</ele>
        <time>1970-01-01T00:05:33.000Z</time>
      </trkpt>
      <trkpt lat="39.84107" lon="-8.863855">
        <ele>13.9</ele>
        <time>1970-01-01T00:05:34.000Z</time>
      </trkpt>
      <trkpt lat="39.841056" lon="-8.863855">
        <ele>14</ele>
        <time>1970-01-01T00:05:35.000Z</time>
      </trkpt>
      <trkpt lat="39.841031" lon="-8.863876">
        <ele>14.3</ele>
        <time>1970-01-01T00:05:36.000Z</time>
      </trkpt>
      <trkpt lat="39.840997" lon="-8.863872">
        <ele>14.5</ele>
        <time>1970-01-01T00:05:37.000Z</time>
      </trkpt>
      <trkpt lat="39.840968" lon="-8.863872">
        <ele>14.8</ele>
        <time>1970-01-01T00:05:38.000Z</time>
      </trkpt>
      <trkpt lat="39.840932" lon="-8.863871">
        <ele>15.1</ele>
        <time>1970-01-01T00:05:39.000Z</time>
      </trkpt>
      <trkpt lat="39.840918" lon="-8.863871">
        <ele>15.2</ele>
        <time>1970-01-01T00:05:40.000Z</time>
      </trkpt>
      <trkpt lat="39.840887" lon="-8.863865">
        <ele>15.5</ele>
        <time>1970-01-01T00:05:41.000Z</time>
      </trkpt>
      <trkpt lat="39.840851" lon="-8.863857">
        <ele>15.8</ele>
        <time>1970-01-01T00:05:42.000Z</time>
      </trkpt>
      <trkpt lat="39.840839" lon="-8.863856">
        <ele>15.9</ele>
        <time>1970-01-01T00:05:43.000Z</time>
      </trkpt>
      <trkpt lat="39.840813" lon="-8.863867">
        <ele>16.1</ele>
        <time>1970-01-01T00:05:44.000Z</time>
      </trkpt>
      <trkpt lat="39.840802" lon="-8.863867">
        <ele>16.2</ele>
        <time>1970-01-01T00:05:45.000Z</time>
      </trkpt>
      <trkpt lat="39.840774" lon="-8.863871">
        <ele>16.5</ele>
        <time>1970-01-01T00:05:46.000Z</time>
      </trkpt>
      <trkpt lat="39.84074" lon="-8.86386">
        <ele>16.8</ele>
        <time>1970-01-01T00:05:47.000Z</time>
      </trkpt>
      <trkpt lat="39.840729" lon="-8.863856">
        <ele>16.9</ele>
        <time>1970-01-01T00:05:48.000Z</time>
      </trkpt>
      <trkpt lat="39.840698" lon="-8.863854">
        <ele>17.1</ele>
        <time>1970-01-01T00:05:49.000Z</time>
      </trkpt>
      <trkpt lat="39.840688" lon="-8.863851">
        <ele>17.2</ele>
        <time>1970-01-01T00:05:50.000Z</time>
      </trkpt>
      <trkpt lat="39.840651" lon="-8.863855">
        <ele>17.5</ele>
        <time>1970-01-01T00:05:51.000Z</time>
      </trkpt>
      <trkpt lat="39.840637" lon="-8.863856">
        <ele>17.6</ele>
        <time>1970-01-01T00:05:52.000Z</time>
      </trkpt>
      <trkpt lat="39.840603" lon="-8.863846">
        <ele>17.9</ele>
        <time>1970-01-01T00:05:53.000Z</time>
      </trkpt>
      <trkpt lat="39.840591" lon="-8.863845">
        <ele>18</ele>
        <time>1970-01-01T00:05:54.000Z</time>
      </trkpt>
      <trkpt lat="39.84055" lon="-8.863836">
        <ele>18.4</ele>
        <time>1970-01-01T00:05:55.000Z</time>
      </trkpt>
      <trkpt lat="39.840534" lon="-8.863835">
        <ele>18.5</ele>
        <time>1970-01-01T00:05:56.000Z</time>
      </trkpt>
      <trkpt lat="39.840502" lon="-8.863831">
        <ele>18.8</ele>
        <time>1970-01-01T00:05:57.000Z</time>
      </trkpt>
      <trkpt lat="39.840489" lon="-8.863826">
        <ele>18.9</ele>
        <time>1970-01-01T00:05:58.000Z</time>
      </trkpt>
      <trkpt lat="39.840455" lon="-8.863824">
        <ele>19.2</ele>
        <time>1970-01-01T00:05:59.000Z</time>
      </trkpt>
      <trkpt lat="39.840443" lon="-8.863821">
        <ele>19.3</ele>
        <time>1970-01-01T00:06:00.000Z</time>
      </trkpt>
      <trkpt lat="39.84041" lon="-8.863815">
        <ele>19.5</ele>
        <time>1970-01-01T00:06:01.000Z</time>
      </trkpt>
      <trkpt lat="39.840398" lon="-8.863811">
        <ele>19.6</ele>
        <time>1970-01-01T00:06:02.000Z</time>
      </trkpt>
      <trkpt lat="39.840365" lon="-8.863807">
        <ele>19.9</ele>
        <time>1970-01-01T00:06:03.000Z</time>
      </trkpt>
      <trkpt lat="39.840331" lon="-8.863806">
        <ele>20.2</ele>
        <time>1970-01-01T00:06:04.000Z</time>
      </trkpt>
      <trkpt lat="39.840319" lon="-8.863806">
        <ele>20.3</ele>
        <time>1970-01-01T00:06:05.000Z</time>
      </trkpt>
      <trkpt lat="39.840284" lon="-8.863803">
        <ele>20.5</ele>
        <time>1970-01-01T00:06:06.000Z</time>
      </trkpt>
      <trkpt lat="39.840274" lon="-8.8638">
        <ele>20.6</ele>
        <time>1970-01-01T00:06:07.000Z</time>
      </trkpt>
      <trkpt lat="39.840242" lon="-8.863791">
        <ele>20.8</ele>
        <time>1970-01-01T00:06:08.000Z</time>
      </trkpt>
      <trkpt lat="39.84023" lon="-8.863784">
        <ele>20.9</ele>
        <time>1970-01-01T00:06:09.000Z</time>
      </trkpt>
      <trkpt lat="39.840197" lon="-8.86377">
        <ele>21.2</ele>
        <time>1970-01-01T00:06:10.000Z</time>
      </trkpt>
      <trkpt lat="39.840188" lon="-8.863765">
        <ele>21.3</ele>
        <time>1970-01-01T00:06:11.000Z</time>
      </trkpt>
      <trkpt lat="39.840161" lon="-8.863756">
        <ele>21.5</ele>
        <time>1970-01-01T00:06:12.000Z</time>
      </trkpt>
      <trkpt lat="39.840128" lon="-8.863749">
        <ele>21.7</ele>
        <time>1970-01-01T00:06:13.000Z</time>
      </trkpt>
      <trkpt lat="39.840115" lon="-8.863746">
        <ele>21.8</ele>
        <time>1970-01-01T00:06:14.000Z</time>
      </trkpt>
      <trkpt lat="39.840091" lon="-8.863742">
        <ele>21.9</ele>
        <time>1970-01-01T00:06:15.000Z</time>
      </trkpt>
      <trkpt lat="39.840071" lon="-8.863743">
        <ele>22.1</ele>
        <time>1970-01-01T00:06:17.000Z</time>
      </trkpt>
      <trkpt lat="39.840037" lon="-8.863738">
        <ele>22.3</ele>
        <time>1970-01-01T00:06:18.000Z</time>
      </trkpt>
      <trkpt lat="39.840026" lon="-8.863738">
        <ele>22.4</ele>
        <time>1970-01-01T00:06:19.000Z</time>
      </trkpt>
      <trkpt lat="39.839994" lon="-8.863731">
        <ele>22.6</ele>
        <time>1970-01-01T00:06:20.000Z</time>
      </trkpt>
      <trkpt lat="39.839981" lon="-8.863755">
        <ele>22.7</ele>
        <time>1970-01-01T00:06:21.000Z</time>
      </trkpt>
      <trkpt lat="39.839939" lon="-8.863757">
        <ele>22.9</ele>
        <time>1970-01-01T00:06:22.000Z</time>
      </trkpt>
      <trkpt lat="39.83991" lon="-8.863768">
        <ele>23.1</ele>
        <time>1970-01-01T00:06:23.000Z</time>
      </trkpt>
      <trkpt lat="39.83988" lon="-8.863793">
        <ele>23.3</ele>
        <time>1970-01-01T00:06:24.000Z</time>
      </trkpt>
      <trkpt lat="39.839854" lon="-8.863794">
        <ele>23.4</ele>
        <time>1970-01-01T00:06:25.000Z</time>
      </trkpt>
      <trkpt lat="39.839838" lon="-8.86381">
        <ele>23.5</ele>
        <time>1970-01-01T00:06:27.000Z</time>
      </trkpt>
      <trkpt lat="39.839787" lon="-8.863839">
        <ele>23.7</ele>
        <time>1970-01-01T00:06:28.000Z</time>
      </trkpt>
      <trkpt lat="39.839758" lon="-8.863856">
        <ele>23.8</ele>
        <time>1970-01-01T00:06:29.000Z</time>
      </trkpt>
      <trkpt lat="39.839706" lon="-8.863886">
        <ele>24</ele>
        <time>1970-01-01T00:06:31.000Z</time>
      </trkpt>
      <trkpt lat="39.839677" lon="-8.863904">
        <ele>24.1</ele>
        <time>1970-01-01T00:06:32.000Z</time>
      </trkpt>
      <trkpt lat="39.839637" lon="-8.863924">
        <ele>24.2</ele>
        <time>1970-01-01T00:06:33.000Z</time>
      </trkpt>
      <trkpt lat="39.839601" lon="-8.863953">
        <ele>24.4</ele>
        <time>1970-01-01T00:06:34.000Z</time>
      </trkpt>
      <trkpt lat="39.839586" lon="-8.863962">
        <ele>24.4</ele>
        <time>1970-01-01T00:06:35.000Z</time>
      </trkpt>
      <trkpt lat="39.839553" lon="-8.86399">
        <ele>24.5</ele>
        <time>1970-01-01T00:06:36.000Z</time>
      </trkpt>
      <trkpt lat="39.839516" lon="-8.864007">
        <ele>24.6</ele>
        <time>1970-01-01T00:06:37.000Z</time>
      </trkpt>
      <trkpt lat="39.839486" lon="-8.864034">
        <ele>24.7</ele>
        <time>1970-01-01T00:06:38.000Z</time>
      </trkpt>
      <trkpt lat="39.839469" lon="-8.864074">
        <ele>24.8</ele>
        <time>1970-01-01T00:06:39.000Z</time>
      </trkpt>
      <trkpt lat="39.839441" lon="-8.864118">
        <ele>24.8</ele>
        <time>1970-01-01T00:06:40.000Z</time>
      </trkpt>
      <trkpt lat="39.83942" lon="-8.864168">
        <ele>24.9</ele>
        <time>1970-01-01T00:06:41.000Z</time>
      </trkpt>
      <trkpt lat="39.839408" lon="-8.86422">
        <ele>25</ele>
        <time>1970-01-01T00:06:42.000Z</time>
      </trkpt>
      <trkpt lat="39.839403" lon="-8.864263">
        <ele>25.1</ele>
        <time>1970-01-01T00:06:43.000Z</time>
      </trkpt>
      <trkpt lat="39.839394" lon="-8.864313">
        <ele>25.1</ele>
        <time>1970-01-01T00:06:44.000Z</time>
      </trkpt>
      <trkpt lat="39.839381" lon="-8.864355">
        <ele>25.2</ele>
        <time>1970-01-01T00:06:45.000Z</time>
      </trkpt>
      <trkpt lat="39.83937" lon="-8.864395">
        <ele>25.2</ele>
        <time>1970-01-01T00:06:46.000Z</time>
      </trkpt>
      <trkpt lat="39.839337" lon="-8.864428">
        <ele>25.3</ele>
        <time>1970-01-01T00:06:47.000Z</time>
      </trkpt>
      <trkpt lat="39.839305" lon="-8.864457">
        <ele>25.4</ele>
        <time>1970-01-01T00:06:48.000Z</time>
      </trkpt>
      <trkpt lat="39.839272" lon="-8.864479">
        <ele>25.5</ele>
        <time>1970-01-01T00:06:49.000Z</time>
      </trkpt>
      <trkpt lat="39.839237" lon="-8.864501">
        <ele>25.6</ele>
        <time>1970-01-01T00:06:50.000Z</time>
      </trkpt>
      <trkpt lat="39.839199" lon="-8.864513">
        <ele>25.7</ele>
        <time>1970-01-01T00:06:51.000Z</time>
      </trkpt>
      <trkpt lat="39.839167" lon="-8.864531">
        <ele>25.7</ele>
        <time>1970-01-01T00:06:52.000Z</time>
      </trkpt>
      <trkpt lat="39.839139" lon="-8.864549">
        <ele>25.8</ele>
        <time>1970-01-01T00:06:53.000Z</time>
      </trkpt>
      <trkpt lat="39.839107" lon="-8.864561">
        <ele>25.8</ele>
        <time>1970-01-01T00:06:54.000Z</time>
      </trkpt>
      <trkpt lat="39.839071" lon="-8.864582">
        <ele>25.9</ele>
        <time>1970-01-01T00:06:55.000Z</time>
      </trkpt>
      <trkpt lat="39.83903" lon="-8.864599">
        <ele>25.9</ele>
        <time>1970-01-01T00:06:56.000Z</time>
      </trkpt>
      <trkpt lat="39.838985" lon="-8.864609">
        <ele>25.9</ele>
        <time>1970-01-01T00:06:57.000Z</time>
      </trkpt>
      <trkpt lat="39.838948" lon="-8.864633">
        <ele>25.9</ele>
        <time>1970-01-01T00:06:58.000Z</time>
      </trkpt>
      <trkpt lat="39.838908" lon="-8.864665">
        <ele>25.9</ele>
        <time>1970-01-01T00:06:59.000Z</time>
      </trkpt>
      <trkpt lat="39.838865" lon="-8.864687">
        <ele>25.9</ele>
        <time>1970-01-01T00:07:00.000Z</time>
      </trkpt>
      <trkpt lat="39.83883" lon="-8.86471">
        <ele>25.8</ele>
        <time>1970-01-01T00:07:01.000Z</time>
      </trkpt>
      <trkpt lat="39.838781" lon="-8.864743">
        <ele>25.6</ele>
        <time>1970-01-01T00:07:02.000Z</time>
      </trkpt>
      <trkpt lat="39.838742" lon="-8.864766">
        <ele>25.5</ele>
        <time>1970-01-01T00:07:03.000Z</time>
      </trkpt>
      <trkpt lat="39.838696" lon="-8.864791">
        <ele>25.3</ele>
        <time>1970-01-01T00:07:04.000Z</time>
      </trkpt>
      <trkpt lat="39.838647" lon="-8.864821">
        <ele>25</ele>
        <time>1970-01-01T00:07:05.000Z</time>
      </trkpt>
      <trkpt lat="39.838606" lon="-8.864836">
        <ele>24.8</ele>
        <time>1970-01-01T00:07:06.000Z</time>
      </trkpt>
      <trkpt lat="39.838561" lon="-8.864866">
        <ele>24.5</ele>
        <time>1970-01-01T00:07:07.000Z</time>
      </trkpt>
      <trkpt lat="39.838498" lon="-8.864879">
        <ele>24.1</ele>
        <time>1970-01-01T00:07:08.000Z</time>
      </trkpt>
      <trkpt lat="39.838449" lon="-8.864907">
        <ele>23.7</ele>
        <time>1970-01-01T00:07:09.000Z</time>
      </trkpt>
      <trkpt lat="39.838384" lon="-8.864932">
        <ele>23.2</ele>
        <time>1970-01-01T00:07:10.000Z</time>
      </trkpt>
      <trkpt lat="39.83833" lon="-8.864956">
        <ele>22.7</ele>
        <time>1970-01-01T00:07:11.000Z</time>
      </trkpt>
      <trkpt lat="39.838259" lon="-8.864992">
        <ele>22.1</ele>
        <time>1970-01-01T00:07:12.000Z</time>
      </trkpt>
      <trkpt lat="39.838201" lon="-8.865027">
        <ele>21.6</ele>
        <time>1970-01-01T00:07:13.000Z</time>
      </trkpt>
      <trkpt lat="39.838137" lon="-8.865063">
        <ele>21.1</ele>
        <time>1970-01-01T00:07:14.000Z</time>
      </trkpt>
      <trkpt lat="39.838069" lon="-8.865087">
        <ele>20.7</ele>
        <time>1970-01-01T00:07:15.000Z</time>
      </trkpt>
      <trkpt lat="39.838004" lon="-8.865112">
        <ele>20.5</ele>
        <time>1970-01-01T00:07:16.000Z</time>
      </trkpt>
      <trkpt lat="39.837932" lon="-8.865141">
        <ele>20.4</ele>
        <time>1970-01-01T00:07:17.000Z</time>
      </trkpt>
      <trkpt lat="39.837869" lon="-8.865163">
        <ele>20.4</ele>
        <time>1970-01-01T00:07:18.000Z</time>
      </trkpt>
      <trkpt lat="39.837811" lon="-8.86519">
        <ele>20.5</ele>
        <time>1970-01-01T00:07:19.000Z</time>
      </trkpt>
      <trkpt lat="39.837753" lon="-8.865207">
        <ele>20.6</ele>
        <time>1970-01-01T00:07:20.000Z</time>
      </trkpt>
      <trkpt lat="39.83769" lon="-8.865212">
        <ele>20.9</ele>
        <time>1970-01-01T00:07:21.000Z</time>
      </trkpt>
      <trkpt lat="39.837625" lon="-8.86522">
        <ele>21.1</ele>
        <time>1970-01-01T00:07:22.000Z</time>
      </trkpt>
      <trkpt lat="39.83756" lon="-8.865219">
        <ele>21.4</ele>
        <time>1970-01-01T00:07:23.000Z</time>
      </trkpt>
      <trkpt lat="39.837509" lon="-8.865234">
        <ele>21.6</ele>
        <time>1970-01-01T00:07:24.000Z</time>
      </trkpt>
      <trkpt lat="39.83746" lon="-8.865252">
        <ele>21.9</ele>
        <time>1970-01-01T00:07:25.000Z</time>
      </trkpt>
      <trkpt lat="39.837402" lon="-8.865254">
        <ele>22.1</ele>
        <time>1970-01-01T00:07:26.000Z</time>
      </trkpt>
      <trkpt lat="39.837359" lon="-8.865247">
        <ele>22.2</ele>
        <time>1970-01-01T00:07:27.000Z</time>
      </trkpt>
      <trkpt lat="39.837314" lon="-8.865249">
        <ele>22.4</ele>
        <time>1970-01-01T00:07:28.000Z</time>
      </trkpt>
      <trkpt lat="39.837263" lon="-8.865252">
        <ele>22.6</ele>
        <time>1970-01-01T00:07:29.000Z</time>
      </trkpt>
      <trkpt lat="39.837222" lon="-8.865261">
        <ele>22.7</ele>
        <time>1970-01-01T00:07:30.000Z</time>
      </trkpt>
      <trkpt lat="39.837182" lon="-8.865272">
        <ele>22.8</ele>
        <time>1970-01-01T00:07:31.000Z</time>
      </trkpt>
      <trkpt lat="39.837141" lon="-8.86528">
        <ele>22.9</ele>
        <time>1970-01-01T00:07:32.000Z</time>
      </trkpt>
      <trkpt lat="39.837108" lon="-8.865295">
        <ele>23</ele>
        <time>1970-01-01T00:07:33.000Z</time>
      </trkpt>
      <trkpt lat="39.837062" lon="-8.865305">
        <ele>23.1</ele>
        <time>1970-01-01T00:07:34.000Z</time>
      </trkpt>
      <trkpt lat="39.837008" lon="-8.865305">
        <ele>23.3</ele>
        <time>1970-01-01T00:07:35.000Z</time>
      </trkpt>
      <trkpt lat="39.836964" lon="-8.865309">
        <ele>23.4</ele>
        <time>1970-01-01T00:07:36.000Z</time>
      </trkpt>
      <trkpt lat="39.836918" lon="-8.86531">
        <ele>23.5</ele>
        <time>1970-01-01T00:07:37.000Z</time>
      </trkpt>
      <trkpt lat="39.836872" lon="-8.865318">
        <ele>23.6</ele>
        <time>1970-01-01T00:07:38.000Z</time>
      </trkpt>
      <trkpt lat="39.836821" lon="-8.865322">
        <ele>23.6</ele>
        <time>1970-01-01T00:07:39.000Z</time>
      </trkpt>
      <trkpt lat="39.836777" lon="-8.86533">
        <ele>23.7</ele>
        <time>1970-01-01T00:07:40.000Z</time>
      </trkpt>
      <trkpt lat="39.836734" lon="-8.865333">
        <ele>23.7</ele>
        <time>1970-01-01T00:07:41.000Z</time>
      </trkpt>
      <trkpt lat="39.836687" lon="-8.865342">
        <ele>23.7</ele>
        <time>1970-01-01T00:07:42.000Z</time>
      </trkpt>
      <trkpt lat="39.836649" lon="-8.865338">
        <ele>23.8</ele>
        <time>1970-01-01T00:07:43.000Z</time>
      </trkpt>
      <trkpt lat="39.836616" lon="-8.865335">
        <ele>23.8</ele>
        <time>1970-01-01T00:07:44.000Z</time>
      </trkpt>
      <trkpt lat="39.83657" lon="-8.865315">
        <ele>23.9</ele>
        <time>1970-01-01T00:07:45.000Z</time>
      </trkpt>
      <trkpt lat="39.836528" lon="-8.865325">
        <ele>23.9</ele>
        <time>1970-01-01T00:07:46.000Z</time>
      </trkpt>
      <trkpt lat="39.836493" lon="-8.865336">
        <ele>24</ele>
        <time>1970-01-01T00:07:47.000Z</time>
      </trkpt>
      <trkpt lat="39.836455" lon="-8.865335">
        <ele>24</ele>
        <time>1970-01-01T00:07:48.000Z</time>
      </trkpt>
      <trkpt lat="39.836411" lon="-8.86533">
        <ele>24.1</ele>
        <time>1970-01-01T00:07:49.000Z</time>
      </trkpt>
      <trkpt lat="39.836369" lon="-8.86533">
        <ele>24.2</ele>
        <time>1970-01-01T00:07:50.000Z</time>
      </trkpt>
      <trkpt lat="39.83633" lon="-8.86533">
        <ele>24.2</ele>
        <time>1970-01-01T00:07:51.000Z</time>
      </trkpt>
      <trkpt lat="39.836286" lon="-8.865319">
        <ele>24.3</ele>
        <time>1970-01-01T00:07:52.000Z</time>
      </trkpt>
      <trkpt lat="39.836245" lon="-8.86532">
        <ele>24.3</ele>
        <time>1970-01-01T00:07:53.000Z</time>
      </trkpt>
      <trkpt lat="39.836199" lon="-8.865327">
        <ele>24.4</ele>
        <time>1970-01-01T00:07:54.000Z</time>
      </trkpt>
      <trkpt lat="39.836162" lon="-8.865328">
        <ele>24.5</ele>
        <time>1970-01-01T00:07:55.000Z</time>
      </trkpt>
      <trkpt lat="39.836115" lon="-8.865316">
        <ele>24.5</ele>
        <time>1970-01-01T00:07:56.000Z</time>
      </trkpt>
      <trkpt lat="39.836068" lon="-8.865321">
        <ele>24.5</ele>
        <time>1970-01-01T00:07:57.000Z</time>
      </trkpt>
      <trkpt lat="39.836024" lon="-8.865315">
        <ele>24.6</ele>
        <time>1970-01-01T00:07:58.000Z</time>
      </trkpt>
      <trkpt lat="39.835983" lon="-8.865301">
        <ele>24.6</ele>
        <time>1970-01-01T00:07:59.000Z</time>
      </trkpt>
      <trkpt lat="39.835951" lon="-8.865289">
        <ele>24.6</ele>
        <time>1970-01-01T00:08:00.000Z</time>
      </trkpt>
      <trkpt lat="39.835909" lon="-8.865289">
        <ele>24.6</ele>
        <time>1970-01-01T00:08:01.000Z</time>
      </trkpt>
      <trkpt lat="39.835861" lon="-8.865277">
        <ele>24.6</ele>
        <time>1970-01-01T00:08:02.000Z</time>
      </trkpt>
      <trkpt lat="39.835824" lon="-8.865279">
        <ele>24.6</ele>
        <time>1970-01-01T00:08:03.000Z</time>
      </trkpt>
      <trkpt lat="39.835787" lon="-8.865282">
        <ele>24.6</ele>
        <time>1970-01-01T00:08:04.000Z</time>
      </trkpt>
      <trkpt lat="39.835716" lon="-8.865276">
        <ele>24.6</ele>
        <time>1970-01-01T00:08:05.000Z</time>
      </trkpt>
      <trkpt lat="39.835664" lon="-8.865278">
        <ele>24.6</ele>
        <time>1970-01-01T00:08:06.000Z</time>
      </trkpt>
      <trkpt lat="39.835633" lon="-8.865286">
        <ele>24.6</ele>
        <time>1970-01-01T00:08:07.000Z</time>
      </trkpt>
      <trkpt lat="39.835616" lon="-8.865282">
        <ele>24.6</ele>
        <time>1970-01-01T00:08:08.000Z</time>
      </trkpt>
      <trkpt lat="39.835581" lon="-8.865278">
        <ele>24.6</ele>
        <time>1970-01-01T00:08:09.000Z</time>
      </trkpt>
      <trkpt lat="39.83554" lon="-8.865278">
        <ele>24.6</ele>
        <time>1970-01-01T00:08:10.000Z</time>
      </trkpt>
      <trkpt lat="39.835524" lon="-8.865278">
        <ele>24.6</ele>
        <time>1970-01-01T00:08:11.000Z</time>
      </trkpt>
      <trkpt lat="39.835488" lon="-8.86528">
        <ele>24.6</ele>
        <time>1970-01-01T00:08:12.000Z</time>
      </trkpt>
      <trkpt lat="39.835455" lon="-8.865267">
        <ele>24.6</ele>
        <time>1970-01-01T00:08:13.000Z</time>
      </trkpt>
      <trkpt lat="39.835437" lon="-8.865257">
        <ele>24.6</ele>
        <time>1970-01-01T00:08:14.000Z</time>
      </trkpt>
      <trkpt lat="39.835405" lon="-8.86525">
        <ele>24.6</ele>
        <time>1970-01-01T00:08:15.000Z</time>
      </trkpt>
      <trkpt lat="39.835374" lon="-8.865242">
        <ele>24.6</ele>
        <time>1970-01-01T00:08:16.000Z</time>
      </trkpt>
      <trkpt lat="39.835341" lon="-8.865227">
        <ele>24.6</ele>
        <time>1970-01-01T00:08:17.000Z</time>
      </trkpt>
      <trkpt lat="39.835293" lon="-8.865217">
        <ele>24.6</ele>
        <time>1970-01-01T00:08:18.000Z</time>
      </trkpt>
      <trkpt lat="39.835241" lon="-8.865217">
        <ele>24.6</ele>
        <time>1970-01-01T00:08:19.000Z</time>
      </trkpt>
      <trkpt lat="39.835204" lon="-8.865206">
        <ele>24.6</ele>
        <time>1970-01-01T00:08:20.000Z</time>
      </trkpt>
      <trkpt lat="39.835161" lon="-8.865184">
        <ele>24.6</ele>
        <time>1970-01-01T00:08:21.000Z</time>
      </trkpt>
      <trkpt lat="39.835121" lon="-8.865168">
        <ele>24.5</ele>
        <time>1970-01-01T00:08:23.000Z</time>
      </trkpt>
      <trkpt lat="39.835081" lon="-8.86516">
        <ele>24.5</ele>
        <time>1970-01-01T00:08:24.000Z</time>
      </trkpt>
      <trkpt lat="39.835016" lon="-8.86518">
        <ele>24.5</ele>
        <time>1970-01-01T00:08:25.000Z</time>
      </trkpt>
      <trkpt lat="39.834975" lon="-8.86519">
        <ele>24.4</ele>
        <time>1970-01-01T00:08:26.000Z</time>
      </trkpt>
      <trkpt lat="39.834948" lon="-8.865191">
        <ele>24.4</ele>
        <time>1970-01-01T00:08:27.000Z</time>
      </trkpt>
      <trkpt lat="39.83493" lon="-8.865189">
        <ele>24.4</ele>
        <time>1970-01-01T00:08:28.000Z</time>
      </trkpt>
      <trkpt lat="39.834887" lon="-8.865183">
        <ele>24.3</ele>
        <time>1970-01-01T00:08:29.000Z</time>
      </trkpt>
      <trkpt lat="39.834803" lon="-8.865195">
        <ele>24.2</ele>
        <time>1970-01-01T00:08:30.000Z</time>
      </trkpt>
      <trkpt lat="39.83475" lon="-8.865204">
        <ele>24.1</ele>
        <time>1970-01-01T00:08:31.000Z</time>
      </trkpt>
      <trkpt lat="39.834685" lon="-8.865213">
        <ele>24</ele>
        <time>1970-01-01T00:08:33.000Z</time>
      </trkpt>
      <trkpt lat="39.834558" lon="-8.86524">
        <ele>23.8</ele>
        <time>1970-01-01T00:08:34.000Z</time>
      </trkpt>
      <trkpt lat="39.834505" lon="-8.865263">
        <ele>23.6</ele>
        <time>1970-01-01T00:08:35.000Z</time>
      </trkpt>
      <trkpt lat="39.83444" lon="-8.86528">
        <ele>23.5</ele>
        <time>1970-01-01T00:08:37.000Z</time>
      </trkpt>
      <trkpt lat="39.834303" lon="-8.865317">
        <ele>23.3</ele>
        <time>1970-01-01T00:08:38.000Z</time>
      </trkpt>
      <trkpt lat="39.834241" lon="-8.865324">
        <ele>23.1</ele>
        <time>1970-01-01T00:08:39.000Z</time>
      </trkpt>
      <trkpt lat="39.834181" lon="-8.86533">
        <ele>23</ele>
        <time>1970-01-01T00:08:40.000Z</time>
      </trkpt>
      <trkpt lat="39.834137" lon="-8.865342">
        <ele>23</ele>
        <time>1970-01-01T00:08:41.000Z</time>
      </trkpt>
      <trkpt lat="39.834085" lon="-8.86533">
        <ele>22.9</ele>
        <time>1970-01-01T00:08:42.000Z</time>
      </trkpt>
      <trkpt lat="39.834027" lon="-8.865325">
        <ele>22.8</ele>
        <time>1970-01-01T00:08:43.000Z</time>
      </trkpt>
      <trkpt lat="39.833981" lon="-8.865321">
        <ele>22.7</ele>
        <time>1970-01-01T00:08:44.000Z</time>
      </trkpt>
      <trkpt lat="39.833915" lon="-8.865307">
        <ele>22.6</ele>
        <time>1970-01-01T00:08:45.000Z</time>
      </trkpt>
      <trkpt lat="39.833861" lon="-8.865296">
        <ele>22.5</ele>
        <time>1970-01-01T00:08:46.000Z</time>
      </trkpt>
      <trkpt lat="39.833809" lon="-8.865274">
        <ele>22.4</ele>
        <time>1970-01-01T00:08:47.000Z</time>
      </trkpt>
      <trkpt lat="39.833747" lon="-8.865245">
        <ele>22.2</ele>
        <time>1970-01-01T00:08:48.000Z</time>
      </trkpt>
      <trkpt lat="39.833691" lon="-8.865227">
        <ele>22</ele>
        <time>1970-01-01T00:08:49.000Z</time>
      </trkpt>
      <trkpt lat="39.833635" lon="-8.865213">
        <ele>21.8</ele>
        <time>1970-01-01T00:08:50.000Z</time>
      </trkpt>
      <trkpt lat="39.833575" lon="-8.86519">
        <ele>21.5</ele>
        <time>1970-01-01T00:08:51.000Z</time>
      </trkpt>
      <trkpt lat="39.833514" lon="-8.865176">
        <ele>21.1</ele>
        <time>1970-01-01T00:08:52.000Z</time>
      </trkpt>
      <trkpt lat="39.833464" lon="-8.865161">
        <ele>20.7</ele>
        <time>1970-01-01T00:08:53.000Z</time>
      </trkpt>
      <trkpt lat="39.83341" lon="-8.865146">
        <ele>20.3</ele>
        <time>1970-01-01T00:08:54.000Z</time>
      </trkpt>
      <trkpt lat="39.83334" lon="-8.865131">
        <ele>19.6</ele>
        <time>1970-01-01T00:08:55.000Z</time>
      </trkpt>
      <trkpt lat="39.833263" lon="-8.86511">
        <ele>18.9</ele>
        <time>1970-01-01T00:08:56.000Z</time>
      </trkpt>
      <trkpt lat="39.833183" lon="-8.865091">
        <ele>18</ele>
        <time>1970-01-01T00:08:57.000Z</time>
      </trkpt>
      <trkpt lat="39.83311" lon="-8.865081">
        <ele>17.3</ele>
        <time>1970-01-01T00:08:58.000Z</time>
      </trkpt>
      <trkpt lat="39.833027" lon="-8.865074">
        <ele>16.4</ele>
        <time>1970-01-01T00:08:59.000Z</time>
      </trkpt>
      <trkpt lat="39.832949" lon="-8.865073">
        <ele>15.6</ele>
        <time>1970-01-01T00:09:00.000Z</time>
      </trkpt>
      <trkpt lat="39.832876" lon="-8.865091">
        <ele>14.9</ele>
        <time>1970-01-01T00:09:01.000Z</time>
      </trkpt>
      <trkpt lat="39.832807" lon="-8.865106">
        <ele>14.2</ele>
        <time>1970-01-01T00:09:02.000Z</time>
      </trkpt>
      <trkpt lat="39.832717" lon="-8.865121">
        <ele>13.5</ele>
        <time>1970-01-01T00:09:03.000Z</time>
      </trkpt>
      <trkpt lat="39.832621" lon="-8.865122">
        <ele>12.8</ele>
        <time>1970-01-01T00:09:04.000Z</time>
      </trkpt>
      <trkpt lat="39.832529" lon="-8.865135">
        <ele>12.2</ele>
        <time>1970-01-01T00:09:05.000Z</time>
      </trkpt>
      <trkpt lat="39.83244" lon="-8.865145">
        <ele>11.8</ele>
        <time>1970-01-01T00:09:06.000Z</time>
      </trkpt>
      <trkpt lat="39.83235" lon="-8.865143">
        <ele>11.7</ele>
        <time>1970-01-01T00:09:07.000Z</time>
      </trkpt>
      <trkpt lat="39.83228" lon="-8.865149">
        <ele>11.7</ele>
        <time>1970-01-01T00:09:08.000Z</time>
      </trkpt>
      <trkpt lat="39.832221" lon="-8.865139">
        <ele>11.7</ele>
        <time>1970-01-01T00:09:09.000Z</time>
      </trkpt>
      <trkpt lat="39.832168" lon="-8.86512">
        <ele>11.9</ele>
        <time>1970-01-01T00:09:10.000Z</time>
      </trkpt>
      <trkpt lat="39.832108" lon="-8.865103">
        <ele>12.1</ele>
        <time>1970-01-01T00:09:11.000Z</time>
      </trkpt>
      <trkpt lat="39.832068" lon="-8.865089">
        <ele>12.2</ele>
        <time>1970-01-01T00:09:12.000Z</time>
      </trkpt>
      <trkpt lat="39.83202" lon="-8.865065">
        <ele>12.4</ele>
        <time>1970-01-01T00:09:13.000Z</time>
      </trkpt>
      <trkpt lat="39.831961" lon="-8.865044">
        <ele>12.7</ele>
        <time>1970-01-01T00:09:14.000Z</time>
      </trkpt>
      <trkpt lat="39.831918" lon="-8.865023">
        <ele>12.9</ele>
        <time>1970-01-01T00:09:15.000Z</time>
      </trkpt>
      <trkpt lat="39.831867" lon="-8.865004">
        <ele>13.2</ele>
        <time>1970-01-01T00:09:16.000Z</time>
      </trkpt>
      <trkpt lat="39.83182" lon="-8.864998">
        <ele>13.4</ele>
        <time>1970-01-01T00:09:17.000Z</time>
      </trkpt>
      <trkpt lat="39.831771" lon="-8.864974">
        <ele>13.6</ele>
        <time>1970-01-01T00:09:18.000Z</time>
      </trkpt>
      <trkpt lat="39.831726" lon="-8.864955">
        <ele>13.8</ele>
        <time>1970-01-01T00:09:19.000Z</time>
      </trkpt>
      <trkpt lat="39.83167" lon="-8.864939">
        <ele>13.9</ele>
        <time>1970-01-01T00:09:20.000Z</time>
      </trkpt>
      <trkpt lat="39.831618" lon="-8.864919">
        <ele>14.1</ele>
        <time>1970-01-01T00:09:21.000Z</time>
      </trkpt>
      <trkpt lat="39.831542" lon="-8.864825">
        <ele>14.2</ele>
        <time>1970-01-01T00:09:22.000Z</time>
      </trkpt>
      <trkpt lat="39.831496" lon="-8.864801">
        <ele>14.2</ele>
        <time>1970-01-01T00:09:23.000Z</time>
      </trkpt>
      <trkpt lat="39.831438" lon="-8.864773">
        <ele>14.3</ele>
        <time>1970-01-01T00:09:24.000Z</time>
      </trkpt>
      <trkpt lat="39.831391" lon="-8.864757">
        <ele>14.3</ele>
        <time>1970-01-01T00:09:25.000Z</time>
      </trkpt>
      <trkpt lat="39.831342" lon="-8.864756">
        <ele>14.3</ele>
        <time>1970-01-01T00:09:26.000Z</time>
      </trkpt>
      <trkpt lat="39.831299" lon="-8.864782">
        <ele>14.4</ele>
        <time>1970-01-01T00:09:27.000Z</time>
      </trkpt>
      <trkpt lat="39.831275" lon="-8.864818">
        <ele>14.4</ele>
        <time>1970-01-01T00:09:28.000Z</time>
      </trkpt>
      <trkpt lat="39.831246" lon="-8.864864">
        <ele>14.5</ele>
        <time>1970-01-01T00:09:29.000Z</time>
      </trkpt>
      <trkpt lat="39.831221" lon="-8.864907">
        <ele>14.6</ele>
        <time>1970-01-01T00:09:30.000Z</time>
      </trkpt>
      <trkpt lat="39.8312" lon="-8.86495">
        <ele>14.7</ele>
        <time>1970-01-01T00:09:31.000Z</time>
      </trkpt>
      <trkpt lat="39.83119" lon="-8.864992">
        <ele>14.8</ele>
        <time>1970-01-01T00:09:32.000Z</time>
      </trkpt>
      <trkpt lat="39.831166" lon="-8.865036">
        <ele>15</ele>
        <time>1970-01-01T00:09:33.000Z</time>
      </trkpt>
      <trkpt lat="39.831158" lon="-8.865053">
        <ele>15</ele>
        <time>1970-01-01T00:09:34.000Z</time>
      </trkpt>
      <trkpt lat="39.831148" lon="-8.865091">
        <ele>15.2</ele>
        <time>1970-01-01T00:09:35.000Z</time>
      </trkpt>
      <trkpt lat="39.831136" lon="-8.865124">
        <ele>15.3</ele>
        <time>1970-01-01T00:09:36.000Z</time>
      </trkpt>
      <trkpt lat="39.831136" lon="-8.86516">
        <ele>15.4</ele>
        <time>1970-01-01T00:09:37.000Z</time>
      </trkpt>
      <trkpt lat="39.831124" lon="-8.865195">
        <ele>15.6</ele>
        <time>1970-01-01T00:09:38.000Z</time>
      </trkpt>
      <trkpt lat="39.83111" lon="-8.865231">
        <ele>15.7</ele>
        <time>1970-01-01T00:09:39.000Z</time>
      </trkpt>
      <trkpt lat="39.831099" lon="-8.865285">
        <ele>16</ele>
        <time>1970-01-01T00:09:40.000Z</time>
      </trkpt>
      <trkpt lat="39.831093" lon="-8.865306">
        <ele>16.1</ele>
        <time>1970-01-01T00:09:41.000Z</time>
      </trkpt>
      <trkpt lat="39.831085" lon="-8.865343">
        <ele>16.2</ele>
        <time>1970-01-01T00:09:42.000Z</time>
      </trkpt>
      <trkpt lat="39.831066" lon="-8.865377">
        <ele>16.4</ele>
        <time>1970-01-01T00:09:43.000Z</time>
      </trkpt>
      <trkpt lat="39.831056" lon="-8.865414">
        <ele>16.5</ele>
        <time>1970-01-01T00:09:44.000Z</time>
      </trkpt>
      <trkpt lat="39.831044" lon="-8.86546">
        <ele>16.7</ele>
        <time>1970-01-01T00:09:45.000Z</time>
      </trkpt>
      <trkpt lat="39.831035" lon="-8.865506">
        <ele>16.9</ele>
        <time>1970-01-01T00:09:46.000Z</time>
      </trkpt>
      <trkpt lat="39.831026" lon="-8.865546">
        <ele>17.1</ele>
        <time>1970-01-01T00:09:47.000Z</time>
      </trkpt>
      <trkpt lat="39.831012" lon="-8.865592">
        <ele>17.3</ele>
        <time>1970-01-01T00:09:48.000Z</time>
      </trkpt>
      <trkpt lat="39.831004" lon="-8.865636">
        <ele>17.4</ele>
        <time>1970-01-01T00:09:49.000Z</time>
      </trkpt>
      <trkpt lat="39.830997" lon="-8.865681">
        <ele>17.6</ele>
        <time>1970-01-01T00:09:50.000Z</time>
      </trkpt>
      <trkpt lat="39.830982" lon="-8.865721">
        <ele>17.7</ele>
        <time>1970-01-01T00:09:51.000Z</time>
      </trkpt>
      <trkpt lat="39.830965" lon="-8.86577">
        <ele>17.9</ele>
        <time>1970-01-01T00:09:52.000Z</time>
      </trkpt>
      <trkpt lat="39.830957" lon="-8.865811">
        <ele>18</ele>
        <time>1970-01-01T00:09:53.000Z</time>
      </trkpt>
      <trkpt lat="39.830942" lon="-8.86586">
        <ele>18.2</ele>
        <time>1970-01-01T00:09:54.000Z</time>
      </trkpt>
      <trkpt lat="39.830931" lon="-8.865905">
        <ele>18.3</ele>
        <time>1970-01-01T00:09:55.000Z</time>
      </trkpt>
      <trkpt lat="39.830919" lon="-8.865951">
        <ele>18.4</ele>
        <time>1970-01-01T00:09:56.000Z</time>
      </trkpt>
      <trkpt lat="39.8309" lon="-8.865996">
        <ele>18.6</ele>
        <time>1970-01-01T00:09:57.000Z</time>
      </trkpt>
      <trkpt lat="39.83088" lon="-8.866038">
        <ele>18.7</ele>
        <time>1970-01-01T00:09:58.000Z</time>
      </trkpt>
      <trkpt lat="39.830861" lon="-8.866079">
        <ele>18.8</ele>
        <time>1970-01-01T00:09:59.000Z</time>
      </trkpt>
      <trkpt lat="39.830833" lon="-8.866125">
        <ele>18.9</ele>
        <time>1970-01-01T00:10:00.000Z</time>
      </trkpt>
      <trkpt lat="39.830807" lon="-8.866159">
        <ele>19</ele>
        <time>1970-01-01T00:10:01.000Z</time>
      </trkpt>
      <trkpt lat="39.830788" lon="-8.866194">
        <ele>19.1</ele>
        <time>1970-01-01T00:10:02.000Z</time>
      </trkpt>
      <trkpt lat="39.830762" lon="-8.866231">
        <ele>19.1</ele>
        <time>1970-01-01T00:10:03.000Z</time>
      </trkpt>
      <trkpt lat="39.830742" lon="-8.866258">
        <ele>19.2</ele>
        <time>1970-01-01T00:10:04.000Z</time>
      </trkpt>
      <trkpt lat="39.83071" lon="-8.866284">
        <ele>19.2</ele>
        <time>1970-01-01T00:10:05.000Z</time>
      </trkpt>
      <trkpt lat="39.830698" lon="-8.866293">
        <ele>19.2</ele>
        <time>1970-01-01T00:10:06.000Z</time>
      </trkpt>
      <trkpt lat="39.830673" lon="-8.866312">
        <ele>19.3</ele>
        <time>1970-01-01T00:10:07.000Z</time>
      </trkpt>
      <trkpt lat="39.830641" lon="-8.866307">
        <ele>19.3</ele>
        <time>1970-01-01T00:10:08.000Z</time>
      </trkpt>
      <trkpt lat="39.830607" lon="-8.866288">
        <ele>19.3</ele>
        <time>1970-01-01T00:10:09.000Z</time>
      </trkpt>
      <trkpt lat="39.830572" lon="-8.866258">
        <ele>19.1</ele>
        <time>1970-01-01T00:10:10.000Z</time>
      </trkpt>
      <trkpt lat="39.830532" lon="-8.866221">
        <ele>18.9</ele>
        <time>1970-01-01T00:10:11.000Z</time>
      </trkpt>
      <trkpt lat="39.830487" lon="-8.86618">
        <ele>18.7</ele>
        <time>1970-01-01T00:10:12.000Z</time>
      </trkpt>
      <trkpt lat="39.830438" lon="-8.866143">
        <ele>18.4</ele>
        <time>1970-01-01T00:10:13.000Z</time>
      </trkpt>
      <trkpt lat="39.830393" lon="-8.866101">
        <ele>18.2</ele>
        <time>1970-01-01T00:10:14.000Z</time>
      </trkpt>
      <trkpt lat="39.830345" lon="-8.866054">
        <ele>18</ele>
        <time>1970-01-01T00:10:15.000Z</time>
      </trkpt>
      <trkpt lat="39.830306" lon="-8.866011">
        <ele>17.8</ele>
        <time>1970-01-01T00:10:16.000Z</time>
      </trkpt>
      <trkpt lat="39.830263" lon="-8.865969">
        <ele>17.6</ele>
        <time>1970-01-01T00:10:17.000Z</time>
      </trkpt>
      <trkpt lat="39.830212" lon="-8.865929">
        <ele>17.4</ele>
        <time>1970-01-01T00:10:18.000Z</time>
      </trkpt>
      <trkpt lat="39.830159" lon="-8.865899">
        <ele>17.2</ele>
        <time>1970-01-01T00:10:19.000Z</time>
      </trkpt>
      <trkpt lat="39.830111" lon="-8.865855">
        <ele>17</ele>
        <time>1970-01-01T00:10:20.000Z</time>
      </trkpt>
      <trkpt lat="39.830062" lon="-8.865805">
        <ele>16.8</ele>
        <time>1970-01-01T00:10:21.000Z</time>
      </trkpt>
      <trkpt lat="39.830015" lon="-8.865763">
        <ele>16.7</ele>
        <time>1970-01-01T00:10:22.000Z</time>
      </trkpt>
      <trkpt lat="39.829982" lon="-8.86572">
        <ele>16.5</ele>
        <time>1970-01-01T00:10:23.000Z</time>
      </trkpt>
      <trkpt lat="39.829954" lon="-8.865677">
        <ele>16.4</ele>
        <time>1970-01-01T00:10:24.000Z</time>
      </trkpt>
      <trkpt lat="39.829923" lon="-8.865639">
        <ele>16.2</ele>
        <time>1970-01-01T00:10:25.000Z</time>
      </trkpt>
      <trkpt lat="39.829886" lon="-8.865593">
        <ele>16.1</ele>
        <time>1970-01-01T00:10:26.000Z</time>
      </trkpt>
      <trkpt lat="39.829847" lon="-8.865557">
        <ele>16</ele>
        <time>1970-01-01T00:10:28.000Z</time>
      </trkpt>
      <trkpt lat="39.829801" lon="-8.865513">
        <ele>15.8</ele>
        <time>1970-01-01T00:10:29.000Z</time>
      </trkpt>
      <trkpt lat="39.829757" lon="-8.865476">
        <ele>15.7</ele>
        <time>1970-01-01T00:10:30.000Z</time>
      </trkpt>
      <trkpt lat="39.829719" lon="-8.865437">
        <ele>15.6</ele>
        <time>1970-01-01T00:10:31.000Z</time>
      </trkpt>
      <trkpt lat="39.829694" lon="-8.865403">
        <ele>15.5</ele>
        <time>1970-01-01T00:10:32.000Z</time>
      </trkpt>
      <trkpt lat="39.829665" lon="-8.865373">
        <ele>15.4</ele>
        <time>1970-01-01T00:10:33.000Z</time>
      </trkpt>
      <trkpt lat="39.829623" lon="-8.865353">
        <ele>15.3</ele>
        <time>1970-01-01T00:10:34.000Z</time>
      </trkpt>
      <trkpt lat="39.829579" lon="-8.865308">
        <ele>15.1</ele>
        <time>1970-01-01T00:10:35.000Z</time>
      </trkpt>
      <trkpt lat="39.829529" lon="-8.865265">
        <ele>15</ele>
        <time>1970-01-01T00:10:36.000Z</time>
      </trkpt>
      <trkpt lat="39.82949" lon="-8.865215">
        <ele>14.9</ele>
        <time>1970-01-01T00:10:37.000Z</time>
      </trkpt>
      <trkpt lat="39.829439" lon="-8.865186">
        <ele>14.8</ele>
        <time>1970-01-01T00:10:38.000Z</time>
      </trkpt>
      <trkpt lat="39.82934" lon="-8.86509">
        <ele>14.5</ele>
        <time>1970-01-01T00:10:39.000Z</time>
      </trkpt>
      <trkpt lat="39.829283" lon="-8.865035">
        <ele>14.4</ele>
        <time>1970-01-01T00:10:40.000Z</time>
      </trkpt>
      <trkpt lat="39.829226" lon="-8.86498">
        <ele>14.3</ele>
        <time>1970-01-01T00:10:41.000Z</time>
      </trkpt>
      <trkpt lat="39.829167" lon="-8.864922">
        <ele>14.1</ele>
        <time>1970-01-01T00:10:42.000Z</time>
      </trkpt>
      <trkpt lat="39.829116" lon="-8.864854">
        <ele>13.9</ele>
        <time>1970-01-01T00:10:43.000Z</time>
      </trkpt>
      <trkpt lat="39.829057" lon="-8.864795">
        <ele>13.8</ele>
        <time>1970-01-01T00:10:44.000Z</time>
      </trkpt>
      <trkpt lat="39.828992" lon="-8.864748">
        <ele>13.6</ele>
        <time>1970-01-01T00:10:46.000Z</time>
      </trkpt>
      <trkpt lat="39.828931" lon="-8.864692">
        <ele>13.5</ele>
        <time>1970-01-01T00:10:47.000Z</time>
      </trkpt>
      <trkpt lat="39.828872" lon="-8.864641">
        <ele>13.4</ele>
        <time>1970-01-01T00:10:48.000Z</time>
      </trkpt>
      <trkpt lat="39.828815" lon="-8.864605">
        <ele>13.4</ele>
        <time>1970-01-01T00:10:49.000Z</time>
      </trkpt>
      <trkpt lat="39.828758" lon="-8.864581">
        <ele>13.4</ele>
        <time>1970-01-01T00:10:50.000Z</time>
      </trkpt>
      <trkpt lat="39.828713" lon="-8.864572">
        <ele>13.4</ele>
        <time>1970-01-01T00:10:51.000Z</time>
      </trkpt>
      <trkpt lat="39.828671" lon="-8.864576">
        <ele>13.5</ele>
        <time>1970-01-01T00:10:52.000Z</time>
      </trkpt>
      <trkpt lat="39.828642" lon="-8.864578">
        <ele>13.5</ele>
        <time>1970-01-01T00:10:53.000Z</time>
      </trkpt>
      <trkpt lat="39.82861" lon="-8.864587">
        <ele>13.5</ele>
        <time>1970-01-01T00:10:54.000Z</time>
      </trkpt>
      <trkpt lat="39.828601" lon="-8.864586">
        <ele>13.5</ele>
        <time>1970-01-01T00:10:55.000Z</time>
      </trkpt>
      <trkpt lat="39.828584" lon="-8.864574">
        <ele>13.5</ele>
        <time>1970-01-01T00:10:56.000Z</time>
      </trkpt>
      <trkpt lat="39.828572" lon="-8.864575">
        <ele>13.5</ele>
        <time>1970-01-01T00:10:57.000Z</time>
      </trkpt>
      <trkpt lat="39.828567" lon="-8.864573">
        <ele>13.5</ele>
        <time>1970-01-01T00:10:58.000Z</time>
      </trkpt>
      <trkpt lat="39.828565" lon="-8.864571">
        <ele>13.5</ele>
        <time>1970-01-01T00:10:59.000Z</time>
      </trkpt>
      <trkpt lat="39.828549" lon="-8.86456">
        <ele>13.6</ele>
        <time>1970-01-01T00:11:00.000Z</time>
      </trkpt>
      <trkpt lat="39.828516" lon="-8.864531">
        <ele>13.6</ele>
        <time>1970-01-01T00:11:01.000Z</time>
      </trkpt>
      <trkpt lat="39.828504" lon="-8.864519">
        <ele>13.6</ele>
        <time>1970-01-01T00:11:02.000Z</time>
      </trkpt>
      <trkpt lat="39.828485" lon="-8.864491">
        <ele>13.5</ele>
        <time>1970-01-01T00:11:03.000Z</time>
      </trkpt>
      <trkpt lat="39.828467" lon="-8.864457">
        <ele>13.4</ele>
        <time>1970-01-01T00:11:04.000Z</time>
      </trkpt>
      <trkpt lat="39.828449" lon="-8.86441">
        <ele>13.3</ele>
        <time>1970-01-01T00:11:05.000Z</time>
      </trkpt>
      <trkpt lat="39.828434" lon="-8.864362">
        <ele>13.2</ele>
        <time>1970-01-01T00:11:06.000Z</time>
      </trkpt>
      <trkpt lat="39.828422" lon="-8.864308">
        <ele>13.1</ele>
        <time>1970-01-01T00:11:07.000Z</time>
      </trkpt>
      <trkpt lat="39.82841" lon="-8.86425">
        <ele>13</ele>
        <time>1970-01-01T00:11:08.000Z</time>
      </trkpt>
      <trkpt lat="39.828411" lon="-8.864183">
        <ele>12.8</ele>
        <time>1970-01-01T00:11:09.000Z</time>
      </trkpt>
      <trkpt lat="39.828417" lon="-8.864119">
        <ele>12.7</ele>
        <time>1970-01-01T00:11:10.000Z</time>
      </trkpt>
      <trkpt lat="39.828424" lon="-8.864054">
        <ele>12.6</ele>
        <time>1970-01-01T00:11:11.000Z</time>
      </trkpt>
      <trkpt lat="39.828432" lon="-8.863984">
        <ele>12.5</ele>
        <time>1970-01-01T00:11:12.000Z</time>
      </trkpt>
      <trkpt lat="39.828444" lon="-8.863932">
        <ele>12.4</ele>
        <time>1970-01-01T00:11:13.000Z</time>
      </trkpt>
      <trkpt lat="39.828453" lon="-8.863855">
        <ele>12.3</ele>
        <time>1970-01-01T00:11:14.000Z</time>
      </trkpt>
      <trkpt lat="39.828459" lon="-8.863802">
        <ele>12.2</ele>
        <time>1970-01-01T00:11:15.000Z</time>
      </trkpt>
      <trkpt lat="39.828476" lon="-8.863729">
        <ele>12.1</ele>
        <time>1970-01-01T00:11:16.000Z</time>
      </trkpt>
      <trkpt lat="39.828488" lon="-8.86367">
        <ele>12.1</ele>
        <time>1970-01-01T00:11:17.000Z</time>
      </trkpt>
      <trkpt lat="39.828491" lon="-8.863607">
        <ele>12</ele>
        <time>1970-01-01T00:11:18.000Z</time>
      </trkpt>
      <trkpt lat="39.828502" lon="-8.863541">
        <ele>11.9</ele>
        <time>1970-01-01T00:11:19.000Z</time>
      </trkpt>
      <trkpt lat="39.828516" lon="-8.863478">
        <ele>11.9</ele>
        <time>1970-01-01T00:11:20.000Z</time>
      </trkpt>
      <trkpt lat="39.828527" lon="-8.863404">
        <ele>11.8</ele>
        <time>1970-01-01T00:11:21.000Z</time>
      </trkpt>
      <trkpt lat="39.828544" lon="-8.86333">
        <ele>11.7</ele>
        <time>1970-01-01T00:11:22.000Z</time>
      </trkpt>
      <trkpt lat="39.82856" lon="-8.863258">
        <ele>11.6</ele>
        <time>1970-01-01T00:11:23.000Z</time>
      </trkpt>
      <trkpt lat="39.828568" lon="-8.863197">
        <ele>11.6</ele>
        <time>1970-01-01T00:11:24.000Z</time>
      </trkpt>
      <trkpt lat="39.828586" lon="-8.863123">
        <ele>11.5</ele>
        <time>1970-01-01T00:11:25.000Z</time>
      </trkpt>
      <trkpt lat="39.828601" lon="-8.863058">
        <ele>11.4</ele>
        <time>1970-01-01T00:11:26.000Z</time>
      </trkpt>
      <trkpt lat="39.828612" lon="-8.862993">
        <ele>11.3</ele>
        <time>1970-01-01T00:11:27.000Z</time>
      </trkpt>
      <trkpt lat="39.828627" lon="-8.862922">
        <ele>11.3</ele>
        <time>1970-01-01T00:11:28.000Z</time>
      </trkpt>
      <trkpt lat="39.828642" lon="-8.86285">
        <ele>11.2</ele>
        <time>1970-01-01T00:11:29.000Z</time>
      </trkpt>
      <trkpt lat="39.828656" lon="-8.862777">
        <ele>11.1</ele>
        <time>1970-01-01T00:11:30.000Z</time>
      </trkpt>
      <trkpt lat="39.828671" lon="-8.862703">
        <ele>11</ele>
        <time>1970-01-01T00:11:31.000Z</time>
      </trkpt>
      <trkpt lat="39.828689" lon="-8.862623">
        <ele>10.9</ele>
        <time>1970-01-01T00:11:32.000Z</time>
      </trkpt>
      <trkpt lat="39.828702" lon="-8.86255">
        <ele>10.9</ele>
        <time>1970-01-01T00:11:33.000Z</time>
      </trkpt>
      <trkpt lat="39.828717" lon="-8.862478">
        <ele>10.8</ele>
        <time>1970-01-01T00:11:34.000Z</time>
      </trkpt>
      <trkpt lat="39.828733" lon="-8.862408">
        <ele>10.7</ele>
        <time>1970-01-01T00:11:35.000Z</time>
      </trkpt>
      <trkpt lat="39.828749" lon="-8.862325">
        <ele>10.7</ele>
        <time>1970-01-01T00:11:36.000Z</time>
      </trkpt>
      <trkpt lat="39.828758" lon="-8.862251">
        <ele>10.6</ele>
        <time>1970-01-01T00:11:37.000Z</time>
      </trkpt>
      <trkpt lat="39.828774" lon="-8.862169">
        <ele>10.5</ele>
        <time>1970-01-01T00:11:38.000Z</time>
      </trkpt>
      <trkpt lat="39.828786" lon="-8.862088">
        <ele>10.5</ele>
        <time>1970-01-01T00:11:39.000Z</time>
      </trkpt>
      <trkpt lat="39.8288" lon="-8.862001">
        <ele>10.4</ele>
        <time>1970-01-01T00:11:40.000Z</time>
      </trkpt>
      <trkpt lat="39.828809" lon="-8.861922">
        <ele>10.3</ele>
        <time>1970-01-01T00:11:41.000Z</time>
      </trkpt>
      <trkpt lat="39.828819" lon="-8.861845">
        <ele>10.3</ele>
        <time>1970-01-01T00:11:42.000Z</time>
      </trkpt>
      <trkpt lat="39.828827" lon="-8.86177">
        <ele>10.3</ele>
        <time>1970-01-01T00:11:43.000Z</time>
      </trkpt>
      <trkpt lat="39.828834" lon="-8.861695">
        <ele>10.2</ele>
        <time>1970-01-01T00:11:44.000Z</time>
      </trkpt>
      <trkpt lat="39.828838" lon="-8.861624">
        <ele>10.2</ele>
        <time>1970-01-01T00:11:45.000Z</time>
      </trkpt>
      <trkpt lat="39.828846" lon="-8.861557">
        <ele>10.2</ele>
        <time>1970-01-01T00:11:46.000Z</time>
      </trkpt>
      <trkpt lat="39.828841" lon="-8.861483">
        <ele>10.2</ele>
        <time>1970-01-01T00:11:47.000Z</time>
      </trkpt>
      <trkpt lat="39.828841" lon="-8.861405">
        <ele>10.2</ele>
        <time>1970-01-01T00:11:48.000Z</time>
      </trkpt>
      <trkpt lat="39.82885" lon="-8.861326">
        <ele>10.2</ele>
        <time>1970-01-01T00:11:49.000Z</time>
      </trkpt>
      <trkpt lat="39.828844" lon="-8.861252">
        <ele>10.2</ele>
        <time>1970-01-01T00:11:50.000Z</time>
      </trkpt>
      <trkpt lat="39.828843" lon="-8.86117">
        <ele>10.2</ele>
        <time>1970-01-01T00:11:51.000Z</time>
      </trkpt>
      <trkpt lat="39.828846" lon="-8.861087">
        <ele>10.1</ele>
        <time>1970-01-01T00:11:52.000Z</time>
      </trkpt>
      <trkpt lat="39.828842" lon="-8.86101">
        <ele>10.1</ele>
        <time>1970-01-01T00:11:53.000Z</time>
      </trkpt>
      <trkpt lat="39.828829" lon="-8.86093">
        <ele>10.1</ele>
        <time>1970-01-01T00:11:54.000Z</time>
      </trkpt>
      <trkpt lat="39.828815" lon="-8.860859">
        <ele>10.1</ele>
        <time>1970-01-01T00:11:55.000Z</time>
      </trkpt>
      <trkpt lat="39.828794" lon="-8.860775">
        <ele>10.2</ele>
        <time>1970-01-01T00:11:56.000Z</time>
      </trkpt>
      <trkpt lat="39.828756" lon="-8.860722">
        <ele>10.2</ele>
        <time>1970-01-01T00:11:57.000Z</time>
      </trkpt>
      <trkpt lat="39.828714" lon="-8.860675">
        <ele>10.2</ele>
        <time>1970-01-01T00:11:58.000Z</time>
      </trkpt>
      <trkpt lat="39.82866" lon="-8.860645">
        <ele>10.2</ele>
        <time>1970-01-01T00:11:59.000Z</time>
      </trkpt>
      <trkpt lat="39.828604" lon="-8.860634">
        <ele>10.2</ele>
        <time>1970-01-01T00:12:00.000Z</time>
      </trkpt>
      <trkpt lat="39.82855" lon="-8.860621">
        <ele>10.2</ele>
        <time>1970-01-01T00:12:01.000Z</time>
      </trkpt>
      <trkpt lat="39.828497" lon="-8.860616">
        <ele>10.2</ele>
        <time>1970-01-01T00:12:02.000Z</time>
      </trkpt>
      <trkpt lat="39.828433" lon="-8.860616">
        <ele>10.2</ele>
        <time>1970-01-01T00:12:03.000Z</time>
      </trkpt>
      <trkpt lat="39.828367" lon="-8.86061">
        <ele>10.2</ele>
        <time>1970-01-01T00:12:04.000Z</time>
      </trkpt>
      <trkpt lat="39.828307" lon="-8.860612">
        <ele>10.2</ele>
        <time>1970-01-01T00:12:05.000Z</time>
      </trkpt>
      <trkpt lat="39.828255" lon="-8.860616">
        <ele>10.2</ele>
        <time>1970-01-01T00:12:06.000Z</time>
      </trkpt>
      <trkpt lat="39.828188" lon="-8.860606">
        <ele>10.2</ele>
        <time>1970-01-01T00:12:07.000Z</time>
      </trkpt>
      <trkpt lat="39.828123" lon="-8.860603">
        <ele>10.2</ele>
        <time>1970-01-01T00:12:08.000Z</time>
      </trkpt>
      <trkpt lat="39.828058" lon="-8.860599">
        <ele>10.2</ele>
        <time>1970-01-01T00:12:09.000Z</time>
      </trkpt>
      <trkpt lat="39.828002" lon="-8.8606">
        <ele>10.2</ele>
        <time>1970-01-01T00:12:10.000Z</time>
      </trkpt>
      <trkpt lat="39.827944" lon="-8.860599">
        <ele>10.2</ele>
        <time>1970-01-01T00:12:11.000Z</time>
      </trkpt>
      <trkpt lat="39.827892" lon="-8.860594">
        <ele>10.2</ele>
        <time>1970-01-01T00:12:12.000Z</time>
      </trkpt>
      <trkpt lat="39.827844" lon="-8.860592">
        <ele>10.2</ele>
        <time>1970-01-01T00:12:13.000Z</time>
      </trkpt>
      <trkpt lat="39.827796" lon="-8.860593">
        <ele>10.2</ele>
        <time>1970-01-01T00:12:14.000Z</time>
      </trkpt>
      <trkpt lat="39.827742" lon="-8.860579">
        <ele>10.2</ele>
        <time>1970-01-01T00:12:15.000Z</time>
      </trkpt>
      <trkpt lat="39.827689" lon="-8.860572">
        <ele>10.2</ele>
        <time>1970-01-01T00:12:16.000Z</time>
      </trkpt>
      <trkpt lat="39.827623" lon="-8.860572">
        <ele>10.3</ele>
        <time>1970-01-01T00:12:17.000Z</time>
      </trkpt>
      <trkpt lat="39.827565" lon="-8.860573">
        <ele>10.3</ele>
        <time>1970-01-01T00:12:18.000Z</time>
      </trkpt>
      <trkpt lat="39.827507" lon="-8.860571">
        <ele>10.3</ele>
        <time>1970-01-01T00:12:19.000Z</time>
      </trkpt>
      <trkpt lat="39.827443" lon="-8.860575">
        <ele>10.3</ele>
        <time>1970-01-01T00:12:20.000Z</time>
      </trkpt>
      <trkpt lat="39.827387" lon="-8.860579">
        <ele>10.3</ele>
        <time>1970-01-01T00:12:21.000Z</time>
      </trkpt>
      <trkpt lat="39.827332" lon="-8.860579">
        <ele>10.3</ele>
        <time>1970-01-01T00:12:22.000Z</time>
      </trkpt>
      <trkpt lat="39.827279" lon="-8.86058">
        <ele>10.4</ele>
        <time>1970-01-01T00:12:23.000Z</time>
      </trkpt>
      <trkpt lat="39.827222" lon="-8.860573">
        <ele>10.4</ele>
        <time>1970-01-01T00:12:24.000Z</time>
      </trkpt>
      <trkpt lat="39.827169" lon="-8.860571">
        <ele>10.4</ele>
        <time>1970-01-01T00:12:25.000Z</time>
      </trkpt>
      <trkpt lat="39.827118" lon="-8.860561">
        <ele>10.4</ele>
        <time>1970-01-01T00:12:26.000Z</time>
      </trkpt>
      <trkpt lat="39.827065" lon="-8.86055">
        <ele>10.4</ele>
        <time>1970-01-01T00:12:27.000Z</time>
      </trkpt>
      <trkpt lat="39.827014" lon="-8.860549">
        <ele>10.4</ele>
        <time>1970-01-01T00:12:28.000Z</time>
      </trkpt>
      <trkpt lat="39.826961" lon="-8.860541">
        <ele>10.4</ele>
        <time>1970-01-01T00:12:29.000Z</time>
      </trkpt>
      <trkpt lat="39.826898" lon="-8.860537">
        <ele>10.4</ele>
        <time>1970-01-01T00:12:30.000Z</time>
      </trkpt>
      <trkpt lat="39.826841" lon="-8.860536">
        <ele>10.4</ele>
        <time>1970-01-01T00:12:31.000Z</time>
      </trkpt>
      <trkpt lat="39.82678" lon="-8.860536">
        <ele>10.4</ele>
        <time>1970-01-01T00:12:32.000Z</time>
      </trkpt>
      <trkpt lat="39.826722" lon="-8.860527">
        <ele>10.4</ele>
        <time>1970-01-01T00:12:34.000Z</time>
      </trkpt>
      <trkpt lat="39.826664" lon="-8.860527">
        <ele>10.4</ele>
        <time>1970-01-01T00:12:35.000Z</time>
      </trkpt>
      <trkpt lat="39.826603" lon="-8.860528">
        <ele>10.4</ele>
        <time>1970-01-01T00:12:36.000Z</time>
      </trkpt>
      <trkpt lat="39.826489" lon="-8.860519">
        <ele>10.5</ele>
        <time>1970-01-01T00:12:37.000Z</time>
      </trkpt>
      <trkpt lat="39.826428" lon="-8.860517">
        <ele>10.5</ele>
        <time>1970-01-01T00:12:38.000Z</time>
      </trkpt>
      <trkpt lat="39.826365" lon="-8.860512">
        <ele>10.5</ele>
        <time>1970-01-01T00:12:39.000Z</time>
      </trkpt>
      <trkpt lat="39.826303" lon="-8.860511">
        <ele>10.5</ele>
        <time>1970-01-01T00:12:40.000Z</time>
      </trkpt>
      <trkpt lat="39.826239" lon="-8.860505">
        <ele>10.5</ele>
        <time>1970-01-01T00:12:41.000Z</time>
      </trkpt>
      <trkpt lat="39.826177" lon="-8.860505">
        <ele>10.5</ele>
        <time>1970-01-01T00:12:42.000Z</time>
      </trkpt>
      <trkpt lat="39.826117" lon="-8.8605">
        <ele>10.5</ele>
        <time>1970-01-01T00:12:43.000Z</time>
      </trkpt>
      <trkpt lat="39.826057" lon="-8.860494">
        <ele>10.5</ele>
        <time>1970-01-01T00:12:44.000Z</time>
      </trkpt>
      <trkpt lat="39.825996" lon="-8.860485">
        <ele>10.6</ele>
        <time>1970-01-01T00:12:45.000Z</time>
      </trkpt>
      <trkpt lat="39.825936" lon="-8.860482">
        <ele>10.6</ele>
        <time>1970-01-01T00:12:46.000Z</time>
      </trkpt>
      <trkpt lat="39.825879" lon="-8.860479">
        <ele>10.6</ele>
        <time>1970-01-01T00:12:48.000Z</time>
      </trkpt>
      <trkpt lat="39.825763" lon="-8.860457">
        <ele>10.6</ele>
        <time>1970-01-01T00:12:49.000Z</time>
      </trkpt>
      <trkpt lat="39.825706" lon="-8.860452">
        <ele>10.6</ele>
        <time>1970-01-01T00:12:50.000Z</time>
      </trkpt>
      <trkpt lat="39.825652" lon="-8.86044">
        <ele>10.6</ele>
        <time>1970-01-01T00:12:51.000Z</time>
      </trkpt>
      <trkpt lat="39.825599" lon="-8.860425">
        <ele>10.7</ele>
        <time>1970-01-01T00:12:52.000Z</time>
      </trkpt>
      <trkpt lat="39.825526" lon="-8.860419">
        <ele>10.7</ele>
        <time>1970-01-01T00:12:53.000Z</time>
      </trkpt>
      <trkpt lat="39.825473" lon="-8.860409">
        <ele>10.7</ele>
        <time>1970-01-01T00:12:54.000Z</time>
      </trkpt>
      <trkpt lat="39.825422" lon="-8.86039">
        <ele>10.7</ele>
        <time>1970-01-01T00:12:55.000Z</time>
      </trkpt>
      <trkpt lat="39.825368" lon="-8.860378">
        <ele>10.7</ele>
        <time>1970-01-01T00:12:56.000Z</time>
      </trkpt>
      <trkpt lat="39.825321" lon="-8.860367">
        <ele>10.7</ele>
        <time>1970-01-01T00:12:57.000Z</time>
      </trkpt>
      <trkpt lat="39.825265" lon="-8.860357">
        <ele>10.7</ele>
        <time>1970-01-01T00:12:58.000Z</time>
      </trkpt>
      <trkpt lat="39.825205" lon="-8.860344">
        <ele>10.8</ele>
        <time>1970-01-01T00:12:59.000Z</time>
      </trkpt>
      <trkpt lat="39.825148" lon="-8.860324">
        <ele>10.8</ele>
        <time>1970-01-01T00:13:00.000Z</time>
      </trkpt>
      <trkpt lat="39.825095" lon="-8.860306">
        <ele>10.8</ele>
        <time>1970-01-01T00:13:01.000Z</time>
      </trkpt>
      <trkpt lat="39.825041" lon="-8.860298">
        <ele>10.8</ele>
        <time>1970-01-01T00:13:02.000Z</time>
      </trkpt>
      <trkpt lat="39.82498" lon="-8.86029">
        <ele>10.8</ele>
        <time>1970-01-01T00:13:03.000Z</time>
      </trkpt>
      <trkpt lat="39.824925" lon="-8.860277">
        <ele>10.8</ele>
        <time>1970-01-01T00:13:04.000Z</time>
      </trkpt>
      <trkpt lat="39.824869" lon="-8.860267">
        <ele>10.8</ele>
        <time>1970-01-01T00:13:05.000Z</time>
      </trkpt>
      <trkpt lat="39.824806" lon="-8.860259">
        <ele>10.7</ele>
        <time>1970-01-01T00:13:06.000Z</time>
      </trkpt>
      <trkpt lat="39.824748" lon="-8.860244">
        <ele>10.7</ele>
        <time>1970-01-01T00:13:07.000Z</time>
      </trkpt>
      <trkpt lat="39.824692" lon="-8.860233">
        <ele>10.7</ele>
        <time>1970-01-01T00:13:08.000Z</time>
      </trkpt>
      <trkpt lat="39.824628" lon="-8.860225">
        <ele>10.7</ele>
        <time>1970-01-01T00:13:09.000Z</time>
      </trkpt>
      <trkpt lat="39.824564" lon="-8.860215">
        <ele>10.7</ele>
        <time>1970-01-01T00:13:10.000Z</time>
      </trkpt>
      <trkpt lat="39.824507" lon="-8.860205">
        <ele>10.7</ele>
        <time>1970-01-01T00:13:11.000Z</time>
      </trkpt>
      <trkpt lat="39.824444" lon="-8.860188">
        <ele>10.7</ele>
        <time>1970-01-01T00:13:12.000Z</time>
      </trkpt>
      <trkpt lat="39.824388" lon="-8.860172">
        <ele>10.7</ele>
        <time>1970-01-01T00:13:13.000Z</time>
      </trkpt>
      <trkpt lat="39.824334" lon="-8.860171">
        <ele>10.7</ele>
        <time>1970-01-01T00:13:14.000Z</time>
      </trkpt>
      <trkpt lat="39.824276" lon="-8.860169">
        <ele>10.7</ele>
        <time>1970-01-01T00:13:15.000Z</time>
      </trkpt>
      <trkpt lat="39.824221" lon="-8.86016">
        <ele>10.7</ele>
        <time>1970-01-01T00:13:16.000Z</time>
      </trkpt>
      <trkpt lat="39.824171" lon="-8.860151">
        <ele>10.7</ele>
        <time>1970-01-01T00:13:17.000Z</time>
      </trkpt>
      <trkpt lat="39.82412" lon="-8.860141">
        <ele>10.7</ele>
        <time>1970-01-01T00:13:18.000Z</time>
      </trkpt>
      <trkpt lat="39.824067" lon="-8.860119">
        <ele>10.7</ele>
        <time>1970-01-01T00:13:19.000Z</time>
      </trkpt>
      <trkpt lat="39.824025" lon="-8.860075">
        <ele>10.7</ele>
        <time>1970-01-01T00:13:20.000Z</time>
      </trkpt>
      <trkpt lat="39.824009" lon="-8.860013">
        <ele>10.7</ele>
        <time>1970-01-01T00:13:21.000Z</time>
      </trkpt>
      <trkpt lat="39.824001" lon="-8.859945">
        <ele>10.7</ele>
        <time>1970-01-01T00:13:22.000Z</time>
      </trkpt>
      <trkpt lat="39.823977" lon="-8.85987">
        <ele>10.6</ele>
        <time>1970-01-01T00:13:23.000Z</time>
      </trkpt>
      <trkpt lat="39.823952" lon="-8.859807">
        <ele>10.5</ele>
        <time>1970-01-01T00:13:24.000Z</time>
      </trkpt>
      <trkpt lat="39.823921" lon="-8.859747">
        <ele>10.5</ele>
        <time>1970-01-01T00:13:25.000Z</time>
      </trkpt>
      <trkpt lat="39.82388" lon="-8.859689">
        <ele>10.4</ele>
        <time>1970-01-01T00:13:26.000Z</time>
      </trkpt>
      <trkpt lat="39.823848" lon="-8.859642">
        <ele>10.3</ele>
        <time>1970-01-01T00:13:27.000Z</time>
      </trkpt>
      <trkpt lat="39.823814" lon="-8.859586">
        <ele>10.3</ele>
        <time>1970-01-01T00:13:28.000Z</time>
      </trkpt>
      <trkpt lat="39.823776" lon="-8.859531">
        <ele>10.2</ele>
        <time>1970-01-01T00:13:29.000Z</time>
      </trkpt>
      <trkpt lat="39.823746" lon="-8.85948">
        <ele>10.1</ele>
        <time>1970-01-01T00:13:30.000Z</time>
      </trkpt>
      <trkpt lat="39.823707" lon="-8.859422">
        <ele>10.1</ele>
        <time>1970-01-01T00:13:31.000Z</time>
      </trkpt>
      <trkpt lat="39.82367" lon="-8.859358">
        <ele>10.1</ele>
        <time>1970-01-01T00:13:32.000Z</time>
      </trkpt>
      <trkpt lat="39.823638" lon="-8.859288">
        <ele>10</ele>
        <time>1970-01-01T00:13:33.000Z</time>
      </trkpt>
      <trkpt lat="39.823607" lon="-8.859233">
        <ele>10</ele>
        <time>1970-01-01T00:13:34.000Z</time>
      </trkpt>
      <trkpt lat="39.823577" lon="-8.859182">
        <ele>10</ele>
        <time>1970-01-01T00:13:35.000Z</time>
      </trkpt>
      <trkpt lat="39.823548" lon="-8.859124">
        <ele>10.1</ele>
        <time>1970-01-01T00:13:36.000Z</time>
      </trkpt>
      <trkpt lat="39.823516" lon="-8.859071">
        <ele>10.1</ele>
        <time>1970-01-01T00:13:37.000Z</time>
      </trkpt>
      <trkpt lat="39.823488" lon="-8.859006">
        <ele>10.2</ele>
        <time>1970-01-01T00:13:38.000Z</time>
      </trkpt>
      <trkpt lat="39.823454" lon="-8.858951">
        <ele>10.2</ele>
        <time>1970-01-01T00:13:39.000Z</time>
      </trkpt>
      <trkpt lat="39.82342" lon="-8.858888">
        <ele>10.3</ele>
        <time>1970-01-01T00:13:40.000Z</time>
      </trkpt>
      <trkpt lat="39.823394" lon="-8.858833">
        <ele>10.4</ele>
        <time>1970-01-01T00:13:41.000Z</time>
      </trkpt>
      <trkpt lat="39.823365" lon="-8.85878">
        <ele>10.5</ele>
        <time>1970-01-01T00:13:42.000Z</time>
      </trkpt>
      <trkpt lat="39.823329" lon="-8.858717">
        <ele>10.7</ele>
        <time>1970-01-01T00:13:43.000Z</time>
      </trkpt>
      <trkpt lat="39.8233" lon="-8.858667">
        <ele>10.8</ele>
        <time>1970-01-01T00:13:44.000Z</time>
      </trkpt>
      <trkpt lat="39.823268" lon="-8.85861">
        <ele>10.9</ele>
        <time>1970-01-01T00:13:45.000Z</time>
      </trkpt>
      <trkpt lat="39.823239" lon="-8.858553">
        <ele>11.1</ele>
        <time>1970-01-01T00:13:46.000Z</time>
      </trkpt>
      <trkpt lat="39.82321" lon="-8.8585">
        <ele>11.3</ele>
        <time>1970-01-01T00:13:47.000Z</time>
      </trkpt>
      <trkpt lat="39.82318" lon="-8.858447">
        <ele>11.5</ele>
        <time>1970-01-01T00:13:48.000Z</time>
      </trkpt>
      <trkpt lat="39.823149" lon="-8.858403">
        <ele>11.7</ele>
        <time>1970-01-01T00:13:49.000Z</time>
      </trkpt>
      <trkpt lat="39.823123" lon="-8.858348">
        <ele>11.9</ele>
        <time>1970-01-01T00:13:50.000Z</time>
      </trkpt>
      <trkpt lat="39.823096" lon="-8.858308">
        <ele>12.2</ele>
        <time>1970-01-01T00:13:51.000Z</time>
      </trkpt>
      <trkpt lat="39.823074" lon="-8.858257">
        <ele>12.4</ele>
        <time>1970-01-01T00:13:52.000Z</time>
      </trkpt>
      <trkpt lat="39.823047" lon="-8.858204">
        <ele>12.7</ele>
        <time>1970-01-01T00:13:53.000Z</time>
      </trkpt>
      <trkpt lat="39.823029" lon="-8.85817">
        <ele>12.8</ele>
        <time>1970-01-01T00:13:54.000Z</time>
      </trkpt>
      <trkpt lat="39.823009" lon="-8.858142">
        <ele>12.6</ele>
        <time>1970-01-01T00:13:55.000Z</time>
      </trkpt>
      <trkpt lat="39.822976" lon="-8.858126">
        <ele>12.4</ele>
        <time>1970-01-01T00:13:56.000Z</time>
      </trkpt>
      <trkpt lat="39.822935" lon="-8.858112">
        <ele>12.1</ele>
        <time>1970-01-01T00:13:57.000Z</time>
      </trkpt>
      <trkpt lat="39.822892" lon="-8.858095">
        <ele>11.9</ele>
        <time>1970-01-01T00:13:58.000Z</time>
      </trkpt>
      <trkpt lat="39.822844" lon="-8.858081">
        <ele>11.6</ele>
        <time>1970-01-01T00:13:59.000Z</time>
      </trkpt>
      <trkpt lat="39.822788" lon="-8.858055">
        <ele>11.3</ele>
        <time>1970-01-01T00:14:00.000Z</time>
      </trkpt>
      <trkpt lat="39.822735" lon="-8.858051">
        <ele>11.1</ele>
        <time>1970-01-01T00:14:01.000Z</time>
      </trkpt>
      <trkpt lat="39.822677" lon="-8.858043">
        <ele>10.9</ele>
        <time>1970-01-01T00:14:02.000Z</time>
      </trkpt>
      <trkpt lat="39.822621" lon="-8.858023">
        <ele>10.8</ele>
        <time>1970-01-01T00:14:03.000Z</time>
      </trkpt>
      <trkpt lat="39.822567" lon="-8.857992">
        <ele>10.7</ele>
        <time>1970-01-01T00:14:04.000Z</time>
      </trkpt>
      <trkpt lat="39.82252" lon="-8.857958">
        <ele>10.6</ele>
        <time>1970-01-01T00:14:05.000Z</time>
      </trkpt>
      <trkpt lat="39.822482" lon="-8.857931">
        <ele>10.6</ele>
        <time>1970-01-01T00:14:06.000Z</time>
      </trkpt>
      <trkpt lat="39.822449" lon="-8.857917">
        <ele>10.5</ele>
        <time>1970-01-01T00:14:07.000Z</time>
      </trkpt>
      <trkpt lat="39.82241" lon="-8.857904">
        <ele>10.5</ele>
        <time>1970-01-01T00:14:08.000Z</time>
      </trkpt>
      <trkpt lat="39.822373" lon="-8.857899">
        <ele>10.5</ele>
        <time>1970-01-01T00:14:09.000Z</time>
      </trkpt>
      <trkpt lat="39.822336" lon="-8.857875">
        <ele>10.5</ele>
        <time>1970-01-01T00:14:10.000Z</time>
      </trkpt>
      <trkpt lat="39.822303" lon="-8.857865">
        <ele>10.5</ele>
        <time>1970-01-01T00:14:11.000Z</time>
      </trkpt>
      <trkpt lat="39.822262" lon="-8.857853">
        <ele>10.4</ele>
        <time>1970-01-01T00:14:12.000Z</time>
      </trkpt>
      <trkpt lat="39.822215" lon="-8.857841">
        <ele>10.4</ele>
        <time>1970-01-01T00:14:13.000Z</time>
      </trkpt>
      <trkpt lat="39.822179" lon="-8.857811">
        <ele>10.4</ele>
        <time>1970-01-01T00:14:14.000Z</time>
      </trkpt>
      <trkpt lat="39.822138" lon="-8.857782">
        <ele>10.3</ele>
        <time>1970-01-01T00:14:15.000Z</time>
      </trkpt>
      <trkpt lat="39.822099" lon="-8.85776">
        <ele>10.3</ele>
        <time>1970-01-01T00:14:16.000Z</time>
      </trkpt>
      <trkpt lat="39.822051" lon="-8.857744">
        <ele>10.2</ele>
        <time>1970-01-01T00:14:17.000Z</time>
      </trkpt>
      <trkpt lat="39.821998" lon="-8.857726">
        <ele>10.2</ele>
        <time>1970-01-01T00:14:18.000Z</time>
      </trkpt>
      <trkpt lat="39.821949" lon="-8.857705">
        <ele>10.1</ele>
        <time>1970-01-01T00:14:19.000Z</time>
      </trkpt>
      <trkpt lat="39.821906" lon="-8.857671">
        <ele>10.1</ele>
        <time>1970-01-01T00:14:20.000Z</time>
      </trkpt>
      <trkpt lat="39.821868" lon="-8.857645">
        <ele>10.1</ele>
        <time>1970-01-01T00:14:21.000Z</time>
      </trkpt>
      <trkpt lat="39.821822" lon="-8.857621">
        <ele>10.1</ele>
        <time>1970-01-01T00:14:22.000Z</time>
      </trkpt>
      <trkpt lat="39.821778" lon="-8.857584">
        <ele>10.1</ele>
        <time>1970-01-01T00:14:23.000Z</time>
      </trkpt>
      <trkpt lat="39.821731" lon="-8.857559">
        <ele>10.1</ele>
        <time>1970-01-01T00:14:24.000Z</time>
      </trkpt>
      <trkpt lat="39.821691" lon="-8.857523">
        <ele>10.1</ele>
        <time>1970-01-01T00:14:25.000Z</time>
      </trkpt>
      <trkpt lat="39.821643" lon="-8.857493">
        <ele>10.1</ele>
        <time>1970-01-01T00:14:26.000Z</time>
      </trkpt>
      <trkpt lat="39.821598" lon="-8.857467">
        <ele>10.1</ele>
        <time>1970-01-01T00:14:27.000Z</time>
      </trkpt>
      <trkpt lat="39.821555" lon="-8.857427">
        <ele>10.1</ele>
        <time>1970-01-01T00:14:28.000Z</time>
      </trkpt>
      <trkpt lat="39.821518" lon="-8.857403">
        <ele>10.1</ele>
        <time>1970-01-01T00:14:29.000Z</time>
      </trkpt>
      <trkpt lat="39.821481" lon="-8.857374">
        <ele>10.1</ele>
        <time>1970-01-01T00:14:30.000Z</time>
      </trkpt>
      <trkpt lat="39.821442" lon="-8.857352">
        <ele>10.1</ele>
        <time>1970-01-01T00:14:31.000Z</time>
      </trkpt>
      <trkpt lat="39.821406" lon="-8.857322">
        <ele>10.1</ele>
        <time>1970-01-01T00:14:32.000Z</time>
      </trkpt>
      <trkpt lat="39.821369" lon="-8.857311">
        <ele>10.1</ele>
        <time>1970-01-01T00:14:33.000Z</time>
      </trkpt>
      <trkpt lat="39.821324" lon="-8.857278">
        <ele>10.1</ele>
        <time>1970-01-01T00:14:34.000Z</time>
      </trkpt>
      <trkpt lat="39.821272" lon="-8.857257">
        <ele>10.1</ele>
        <time>1970-01-01T00:14:35.000Z</time>
      </trkpt>
      <trkpt lat="39.821231" lon="-8.857225">
        <ele>10</ele>
        <time>1970-01-01T00:14:36.000Z</time>
      </trkpt>
      <trkpt lat="39.821184" lon="-8.857197">
        <ele>10</ele>
        <time>1970-01-01T00:14:37.000Z</time>
      </trkpt>
      <trkpt lat="39.821144" lon="-8.857175">
        <ele>10</ele>
        <time>1970-01-01T00:14:38.000Z</time>
      </trkpt>
      <trkpt lat="39.821107" lon="-8.857146">
        <ele>10</ele>
        <time>1970-01-01T00:14:40.000Z</time>
      </trkpt>
      <trkpt lat="39.821054" lon="-8.857128">
        <ele>10</ele>
        <time>1970-01-01T00:14:41.000Z</time>
      </trkpt>
      <trkpt lat="39.82101" lon="-8.857094">
        <ele>10</ele>
        <time>1970-01-01T00:14:42.000Z</time>
      </trkpt>
      <trkpt lat="39.820967" lon="-8.857033">
        <ele>10</ele>
        <time>1970-01-01T00:14:43.000Z</time>
      </trkpt>
      <trkpt lat="39.820909" lon="-8.857002">
        <ele>10</ele>
        <time>1970-01-01T00:14:44.000Z</time>
      </trkpt>
      <trkpt lat="39.820866" lon="-8.856978">
        <ele>10</ele>
        <time>1970-01-01T00:14:45.000Z</time>
      </trkpt>
      <trkpt lat="39.820824" lon="-8.856984">
        <ele>9.9</ele>
        <time>1970-01-01T00:14:46.000Z</time>
      </trkpt>
      <trkpt lat="39.820725" lon="-8.856912">
        <ele>9.9</ele>
        <time>1970-01-01T00:14:47.000Z</time>
      </trkpt>
      <trkpt lat="39.820665" lon="-8.856867">
        <ele>10</ele>
        <time>1970-01-01T00:14:48.000Z</time>
      </trkpt>
      <trkpt lat="39.820611" lon="-8.856839">
        <ele>10</ele>
        <time>1970-01-01T00:14:50.000Z</time>
      </trkpt>
      <trkpt lat="39.82051" lon="-8.856768">
        <ele>10</ele>
        <time>1970-01-01T00:14:51.000Z</time>
      </trkpt>
      <trkpt lat="39.820458" lon="-8.856734">
        <ele>10</ele>
        <time>1970-01-01T00:14:52.000Z</time>
      </trkpt>
      <trkpt lat="39.820409" lon="-8.856697">
        <ele>10</ele>
        <time>1970-01-01T00:14:53.000Z</time>
      </trkpt>
      <trkpt lat="39.820365" lon="-8.85667">
        <ele>10</ele>
        <time>1970-01-01T00:14:54.000Z</time>
      </trkpt>
      <trkpt lat="39.82032" lon="-8.856642">
        <ele>10</ele>
        <time>1970-01-01T00:14:55.000Z</time>
      </trkpt>
      <trkpt lat="39.820275" lon="-8.856614">
        <ele>10</ele>
        <time>1970-01-01T00:14:56.000Z</time>
      </trkpt>
      <trkpt lat="39.820235" lon="-8.856592">
        <ele>10.1</ele>
        <time>1970-01-01T00:14:57.000Z</time>
      </trkpt>
      <trkpt lat="39.820189" lon="-8.856553">
        <ele>10.1</ele>
        <time>1970-01-01T00:14:58.000Z</time>
      </trkpt>
      <trkpt lat="39.820144" lon="-8.856516">
        <ele>10.1</ele>
        <time>1970-01-01T00:14:59.000Z</time>
      </trkpt>
      <trkpt lat="39.820101" lon="-8.856493">
        <ele>10.1</ele>
        <time>1970-01-01T00:15:00.000Z</time>
      </trkpt>
      <trkpt lat="39.820061" lon="-8.856454">
        <ele>10.1</ele>
        <time>1970-01-01T00:15:01.000Z</time>
      </trkpt>
      <trkpt lat="39.820024" lon="-8.856427">
        <ele>10.1</ele>
        <time>1970-01-01T00:15:02.000Z</time>
      </trkpt>
      <trkpt lat="39.819981" lon="-8.856404">
        <ele>10.1</ele>
        <time>1970-01-01T00:15:03.000Z</time>
      </trkpt>
      <trkpt lat="39.819933" lon="-8.856368">
        <ele>10.1</ele>
        <time>1970-01-01T00:15:04.000Z</time>
      </trkpt>
      <trkpt lat="39.819883" lon="-8.856338">
        <ele>10.1</ele>
        <time>1970-01-01T00:15:05.000Z</time>
      </trkpt>
      <trkpt lat="39.819832" lon="-8.856309">
        <ele>10.1</ele>
        <time>1970-01-01T00:15:06.000Z</time>
      </trkpt>
      <trkpt lat="39.819786" lon="-8.856273">
        <ele>10</ele>
        <time>1970-01-01T00:15:07.000Z</time>
      </trkpt>
      <trkpt lat="39.819738" lon="-8.856235">
        <ele>10</ele>
        <time>1970-01-01T00:15:08.000Z</time>
      </trkpt>
      <trkpt lat="39.819692" lon="-8.856202">
        <ele>10</ele>
        <time>1970-01-01T00:15:09.000Z</time>
      </trkpt>
      <trkpt lat="39.819648" lon="-8.856168">
        <ele>10.1</ele>
        <time>1970-01-01T00:15:10.000Z</time>
      </trkpt>
      <trkpt lat="39.819606" lon="-8.85614">
        <ele>10.1</ele>
        <time>1970-01-01T00:15:11.000Z</time>
      </trkpt>
      <trkpt lat="39.819568" lon="-8.856106">
        <ele>10.1</ele>
        <time>1970-01-01T00:15:12.000Z</time>
      </trkpt>
      <trkpt lat="39.819516" lon="-8.856092">
        <ele>10.1</ele>
        <time>1970-01-01T00:15:13.000Z</time>
      </trkpt>
      <trkpt lat="39.819468" lon="-8.856051">
        <ele>10.2</ele>
        <time>1970-01-01T00:15:14.000Z</time>
      </trkpt>
      <trkpt lat="39.819423" lon="-8.856019">
        <ele>10.2</ele>
        <time>1970-01-01T00:15:15.000Z</time>
      </trkpt>
      <trkpt lat="39.819375" lon="-8.855979">
        <ele>10.2</ele>
        <time>1970-01-01T00:15:16.000Z</time>
      </trkpt>
      <trkpt lat="39.819325" lon="-8.855942">
        <ele>10.3</ele>
        <time>1970-01-01T00:15:17.000Z</time>
      </trkpt>
      <trkpt lat="39.819272" lon="-8.855916">
        <ele>10.3</ele>
        <time>1970-01-01T00:15:18.000Z</time>
      </trkpt>
      <trkpt lat="39.81923" lon="-8.855877">
        <ele>10.3</ele>
        <time>1970-01-01T00:15:19.000Z</time>
      </trkpt>
      <trkpt lat="39.819186" lon="-8.855836">
        <ele>10.4</ele>
        <time>1970-01-01T00:15:20.000Z</time>
      </trkpt>
      <trkpt lat="39.819146" lon="-8.855801">
        <ele>10.4</ele>
        <time>1970-01-01T00:15:21.000Z</time>
      </trkpt>
      <trkpt lat="39.819107" lon="-8.85577">
        <ele>10.4</ele>
        <time>1970-01-01T00:15:22.000Z</time>
      </trkpt>
      <trkpt lat="39.819062" lon="-8.855733">
        <ele>10.5</ele>
        <time>1970-01-01T00:15:23.000Z</time>
      </trkpt>
      <trkpt lat="39.819022" lon="-8.855699">
        <ele>10.5</ele>
        <time>1970-01-01T00:15:24.000Z</time>
      </trkpt>
      <trkpt lat="39.818977" lon="-8.855667">
        <ele>10.5</ele>
        <time>1970-01-01T00:15:25.000Z</time>
      </trkpt>
      <trkpt lat="39.818935" lon="-8.855633">
        <ele>10.6</ele>
        <time>1970-01-01T00:15:26.000Z</time>
      </trkpt>
      <trkpt lat="39.818887" lon="-8.855598">
        <ele>10.6</ele>
        <time>1970-01-01T00:15:27.000Z</time>
      </trkpt>
      <trkpt lat="39.818841" lon="-8.855563">
        <ele>10.7</ele>
        <time>1970-01-01T00:15:28.000Z</time>
      </trkpt>
      <trkpt lat="39.818788" lon="-8.85554">
        <ele>10.7</ele>
        <time>1970-01-01T00:15:29.000Z</time>
      </trkpt>
      <trkpt lat="39.818741" lon="-8.855517">
        <ele>10.7</ele>
        <time>1970-01-01T00:15:30.000Z</time>
      </trkpt>
      <trkpt lat="39.81869" lon="-8.85549">
        <ele>10.7</ele>
        <time>1970-01-01T00:15:31.000Z</time>
      </trkpt>
      <trkpt lat="39.818649" lon="-8.855454">
        <ele>10.8</ele>
        <time>1970-01-01T00:15:32.000Z</time>
      </trkpt>
      <trkpt lat="39.818612" lon="-8.855422">
        <ele>10.8</ele>
        <time>1970-01-01T00:15:33.000Z</time>
      </trkpt>
      <trkpt lat="39.818579" lon="-8.855391">
        <ele>10.8</ele>
        <time>1970-01-01T00:15:34.000Z</time>
      </trkpt>
      <trkpt lat="39.818545" lon="-8.855366">
        <ele>10.8</ele>
        <time>1970-01-01T00:15:35.000Z</time>
      </trkpt>
      <trkpt lat="39.818512" lon="-8.855339">
        <ele>10.9</ele>
        <time>1970-01-01T00:15:36.000Z</time>
      </trkpt>
      <trkpt lat="39.818474" lon="-8.855299">
        <ele>10.9</ele>
        <time>1970-01-01T00:15:37.000Z</time>
      </trkpt>
      <trkpt lat="39.818436" lon="-8.855267">
        <ele>10.9</ele>
        <time>1970-01-01T00:15:38.000Z</time>
      </trkpt>
      <trkpt lat="39.818392" lon="-8.855231">
        <ele>10.9</ele>
        <time>1970-01-01T00:15:39.000Z</time>
      </trkpt>
      <trkpt lat="39.818351" lon="-8.855197">
        <ele>10.9</ele>
        <time>1970-01-01T00:15:40.000Z</time>
      </trkpt>
      <trkpt lat="39.818299" lon="-8.855166">
        <ele>10.8</ele>
        <time>1970-01-01T00:15:41.000Z</time>
      </trkpt>
      <trkpt lat="39.818257" lon="-8.855137">
        <ele>10.8</ele>
        <time>1970-01-01T00:15:42.000Z</time>
      </trkpt>
      <trkpt lat="39.818216" lon="-8.855098">
        <ele>10.8</ele>
        <time>1970-01-01T00:15:43.000Z</time>
      </trkpt>
      <trkpt lat="39.818172" lon="-8.855068">
        <ele>10.7</ele>
        <time>1970-01-01T00:15:44.000Z</time>
      </trkpt>
      <trkpt lat="39.818132" lon="-8.855038">
        <ele>10.7</ele>
        <time>1970-01-01T00:15:45.000Z</time>
      </trkpt>
      <trkpt lat="39.818091" lon="-8.855009">
        <ele>10.6</ele>
        <time>1970-01-01T00:15:46.000Z</time>
      </trkpt>
      <trkpt lat="39.818044" lon="-8.854982">
        <ele>10.6</ele>
        <time>1970-01-01T00:15:47.000Z</time>
      </trkpt>
      <trkpt lat="39.817998" lon="-8.854961">
        <ele>10.6</ele>
        <time>1970-01-01T00:15:48.000Z</time>
      </trkpt>
      <trkpt lat="39.817958" lon="-8.854934">
        <ele>10.5</ele>
        <time>1970-01-01T00:15:49.000Z</time>
      </trkpt>
      <trkpt lat="39.817917" lon="-8.8549">
        <ele>10.5</ele>
        <time>1970-01-01T00:15:50.000Z</time>
      </trkpt>
      <trkpt lat="39.817873" lon="-8.854875">
        <ele>10.5</ele>
        <time>1970-01-01T00:15:51.000Z</time>
      </trkpt>
      <trkpt lat="39.81783" lon="-8.85485">
        <ele>10.5</ele>
        <time>1970-01-01T00:15:52.000Z</time>
      </trkpt>
      <trkpt lat="39.81778" lon="-8.854813">
        <ele>10.5</ele>
        <time>1970-01-01T00:15:53.000Z</time>
      </trkpt>
      <trkpt lat="39.817725" lon="-8.854786">
        <ele>10.5</ele>
        <time>1970-01-01T00:15:54.000Z</time>
      </trkpt>
      <trkpt lat="39.817681" lon="-8.854751">
        <ele>10.5</ele>
        <time>1970-01-01T00:15:55.000Z</time>
      </trkpt>
      <trkpt lat="39.817634" lon="-8.854717">
        <ele>10.4</ele>
        <time>1970-01-01T00:15:56.000Z</time>
      </trkpt>
      <trkpt lat="39.817589" lon="-8.85468">
        <ele>10.4</ele>
        <time>1970-01-01T00:15:57.000Z</time>
      </trkpt>
      <trkpt lat="39.817545" lon="-8.854647">
        <ele>10.4</ele>
        <time>1970-01-01T00:15:58.000Z</time>
      </trkpt>
      <trkpt lat="39.817503" lon="-8.854622">
        <ele>10.4</ele>
        <time>1970-01-01T00:15:59.000Z</time>
      </trkpt>
      <trkpt lat="39.817468" lon="-8.854585">
        <ele>10.4</ele>
        <time>1970-01-01T00:16:00.000Z</time>
      </trkpt>
      <trkpt lat="39.817433" lon="-8.854568">
        <ele>10.4</ele>
        <time>1970-01-01T00:16:01.000Z</time>
      </trkpt>
      <trkpt lat="39.817391" lon="-8.85454">
        <ele>10.4</ele>
        <time>1970-01-01T00:16:02.000Z</time>
      </trkpt>
      <trkpt lat="39.817353" lon="-8.854494">
        <ele>10.4</ele>
        <time>1970-01-01T00:16:03.000Z</time>
      </trkpt>
      <trkpt lat="39.817327" lon="-8.854456">
        <ele>10.4</ele>
        <time>1970-01-01T00:16:04.000Z</time>
      </trkpt>
      <trkpt lat="39.817282" lon="-8.854436">
        <ele>10.3</ele>
        <time>1970-01-01T00:16:05.000Z</time>
      </trkpt>
      <trkpt lat="39.817235" lon="-8.854403">
        <ele>10.3</ele>
        <time>1970-01-01T00:16:06.000Z</time>
      </trkpt>
      <trkpt lat="39.817195" lon="-8.854372">
        <ele>10.3</ele>
        <time>1970-01-01T00:16:07.000Z</time>
      </trkpt>
      <trkpt lat="39.817152" lon="-8.85434">
        <ele>10.3</ele>
        <time>1970-01-01T00:16:08.000Z</time>
      </trkpt>
      <trkpt lat="39.817113" lon="-8.854301">
        <ele>10.3</ele>
        <time>1970-01-01T00:16:09.000Z</time>
      </trkpt>
      <trkpt lat="39.817063" lon="-8.854276">
        <ele>10.3</ele>
        <time>1970-01-01T00:16:10.000Z</time>
      </trkpt>
      <trkpt lat="39.817008" lon="-8.854228">
        <ele>10.3</ele>
        <time>1970-01-01T00:16:11.000Z</time>
      </trkpt>
      <trkpt lat="39.816966" lon="-8.854206">
        <ele>10.3</ele>
        <time>1970-01-01T00:16:12.000Z</time>
      </trkpt>
      <trkpt lat="39.816918" lon="-8.854168">
        <ele>10.3</ele>
        <time>1970-01-01T00:16:13.000Z</time>
      </trkpt>
      <trkpt lat="39.816878" lon="-8.854139">
        <ele>10.3</ele>
        <time>1970-01-01T00:16:14.000Z</time>
      </trkpt>
      <trkpt lat="39.816836" lon="-8.854108">
        <ele>10.3</ele>
        <time>1970-01-01T00:16:15.000Z</time>
      </trkpt>
      <trkpt lat="39.816795" lon="-8.854089">
        <ele>10.4</ele>
        <time>1970-01-01T00:16:16.000Z</time>
      </trkpt>
      <trkpt lat="39.816767" lon="-8.854048">
        <ele>10.4</ele>
        <time>1970-01-01T00:16:17.000Z</time>
      </trkpt>
      <trkpt lat="39.816737" lon="-8.85403">
        <ele>10.4</ele>
        <time>1970-01-01T00:16:18.000Z</time>
      </trkpt>
      <trkpt lat="39.816703" lon="-8.854005">
        <ele>10.4</ele>
        <time>1970-01-01T00:16:19.000Z</time>
      </trkpt>
      <trkpt lat="39.816661" lon="-8.853993">
        <ele>10.5</ele>
        <time>1970-01-01T00:16:20.000Z</time>
      </trkpt>
      <trkpt lat="39.81662" lon="-8.853962">
        <ele>10.5</ele>
        <time>1970-01-01T00:16:21.000Z</time>
      </trkpt>
      <trkpt lat="39.816581" lon="-8.853928">
        <ele>10.5</ele>
        <time>1970-01-01T00:16:22.000Z</time>
      </trkpt>
      <trkpt lat="39.816535" lon="-8.853902">
        <ele>10.6</ele>
        <time>1970-01-01T00:16:23.000Z</time>
      </trkpt>
      <trkpt lat="39.816491" lon="-8.853871">
        <ele>10.6</ele>
        <time>1970-01-01T00:16:24.000Z</time>
      </trkpt>
      <trkpt lat="39.816447" lon="-8.853852">
        <ele>10.6</ele>
        <time>1970-01-01T00:16:25.000Z</time>
      </trkpt>
      <trkpt lat="39.816405" lon="-8.853818">
        <ele>10.7</ele>
        <time>1970-01-01T00:16:26.000Z</time>
      </trkpt>
      <trkpt lat="39.816365" lon="-8.853776">
        <ele>10.7</ele>
        <time>1970-01-01T00:16:27.000Z</time>
      </trkpt>
      <trkpt lat="39.816322" lon="-8.853749">
        <ele>10.8</ele>
        <time>1970-01-01T00:16:28.000Z</time>
      </trkpt>
      <trkpt lat="39.816285" lon="-8.853713">
        <ele>10.8</ele>
        <time>1970-01-01T00:16:29.000Z</time>
      </trkpt>
      <trkpt lat="39.81624" lon="-8.853694">
        <ele>10.9</ele>
        <time>1970-01-01T00:16:30.000Z</time>
      </trkpt>
      <trkpt lat="39.816202" lon="-8.853659">
        <ele>10.9</ele>
        <time>1970-01-01T00:16:31.000Z</time>
      </trkpt>
      <trkpt lat="39.816155" lon="-8.853625">
        <ele>11</ele>
        <time>1970-01-01T00:16:32.000Z</time>
      </trkpt>
      <trkpt lat="39.816113" lon="-8.8536">
        <ele>11.1</ele>
        <time>1970-01-01T00:16:33.000Z</time>
      </trkpt>
      <trkpt lat="39.816075" lon="-8.853563">
        <ele>11.1</ele>
        <time>1970-01-01T00:16:34.000Z</time>
      </trkpt>
      <trkpt lat="39.816029" lon="-8.85353">
        <ele>11.2</ele>
        <time>1970-01-01T00:16:35.000Z</time>
      </trkpt>
      <trkpt lat="39.81599" lon="-8.853497">
        <ele>11.2</ele>
        <time>1970-01-01T00:16:36.000Z</time>
      </trkpt>
      <trkpt lat="39.815949" lon="-8.853461">
        <ele>11.3</ele>
        <time>1970-01-01T00:16:37.000Z</time>
      </trkpt>
      <trkpt lat="39.815909" lon="-8.853429">
        <ele>11.3</ele>
        <time>1970-01-01T00:16:38.000Z</time>
      </trkpt>
      <trkpt lat="39.815869" lon="-8.853399">
        <ele>11.3</ele>
        <time>1970-01-01T00:16:39.000Z</time>
      </trkpt>
      <trkpt lat="39.815825" lon="-8.853369">
        <ele>11.4</ele>
        <time>1970-01-01T00:16:40.000Z</time>
      </trkpt>
      <trkpt lat="39.815784" lon="-8.853338">
        <ele>11.4</ele>
        <time>1970-01-01T00:16:41.000Z</time>
      </trkpt>
      <trkpt lat="39.815744" lon="-8.85331">
        <ele>11.4</ele>
        <time>1970-01-01T00:16:42.000Z</time>
      </trkpt>
      <trkpt lat="39.815704" lon="-8.853283">
        <ele>11.5</ele>
        <time>1970-01-01T00:16:43.000Z</time>
      </trkpt>
      <trkpt lat="39.815665" lon="-8.853253">
        <ele>11.5</ele>
        <time>1970-01-01T00:16:44.000Z</time>
      </trkpt>
      <trkpt lat="39.815625" lon="-8.853225">
        <ele>11.5</ele>
        <time>1970-01-01T00:16:46.000Z</time>
      </trkpt>
      <trkpt lat="39.815586" lon="-8.853197">
        <ele>11.5</ele>
        <time>1970-01-01T00:16:47.000Z</time>
      </trkpt>
      <trkpt lat="39.815545" lon="-8.853168">
        <ele>11.5</ele>
        <time>1970-01-01T00:16:48.000Z</time>
      </trkpt>
      <trkpt lat="39.815509" lon="-8.85314">
        <ele>11.5</ele>
        <time>1970-01-01T00:16:49.000Z</time>
      </trkpt>
      <trkpt lat="39.815469" lon="-8.853118">
        <ele>11.5</ele>
        <time>1970-01-01T00:16:50.000Z</time>
      </trkpt>
      <trkpt lat="39.815405" lon="-8.853047">
        <ele>11.5</ele>
        <time>1970-01-01T00:16:51.000Z</time>
      </trkpt>
      <trkpt lat="39.815369" lon="-8.853035">
        <ele>11.5</ele>
        <time>1970-01-01T00:16:52.000Z</time>
      </trkpt>
      <trkpt lat="39.815332" lon="-8.852997">
        <ele>11.5</ele>
        <time>1970-01-01T00:16:53.000Z</time>
      </trkpt>
      <trkpt lat="39.815296" lon="-8.852981">
        <ele>11.5</ele>
        <time>1970-01-01T00:16:54.000Z</time>
      </trkpt>
      <trkpt lat="39.815253" lon="-8.852952">
        <ele>11.5</ele>
        <time>1970-01-01T00:16:55.000Z</time>
      </trkpt>
      <trkpt lat="39.815212" lon="-8.852918">
        <ele>11.5</ele>
        <time>1970-01-01T00:16:56.000Z</time>
      </trkpt>
      <trkpt lat="39.815167" lon="-8.852882">
        <ele>11.4</ele>
        <time>1970-01-01T00:16:58.000Z</time>
      </trkpt>
      <trkpt lat="39.815115" lon="-8.852862">
        <ele>11.4</ele>
        <time>1970-01-01T00:16:59.000Z</time>
      </trkpt>
      <trkpt lat="39.815068" lon="-8.852804">
        <ele>11.4</ele>
        <time>1970-01-01T00:17:00.000Z</time>
      </trkpt>
      <trkpt lat="39.815013" lon="-8.85277">
        <ele>11.3</ele>
        <time>1970-01-01T00:17:01.000Z</time>
      </trkpt>
      <trkpt lat="39.814955" lon="-8.852738">
        <ele>11.3</ele>
        <time>1970-01-01T00:17:02.000Z</time>
      </trkpt>
      <trkpt lat="39.814894" lon="-8.852696">
        <ele>11.3</ele>
        <time>1970-01-01T00:17:03.000Z</time>
      </trkpt>
      <trkpt lat="39.814836" lon="-8.852651">
        <ele>11.2</ele>
        <time>1970-01-01T00:17:04.000Z</time>
      </trkpt>
      <trkpt lat="39.814781" lon="-8.85261">
        <ele>11.2</ele>
        <time>1970-01-01T00:17:05.000Z</time>
      </trkpt>
      <trkpt lat="39.814726" lon="-8.852571">
        <ele>11.2</ele>
        <time>1970-01-01T00:17:06.000Z</time>
      </trkpt>
      <trkpt lat="39.814673" lon="-8.852529">
        <ele>11.2</ele>
        <time>1970-01-01T00:17:07.000Z</time>
      </trkpt>
      <trkpt lat="39.814621" lon="-8.852496">
        <ele>11.2</ele>
        <time>1970-01-01T00:17:08.000Z</time>
      </trkpt>
      <trkpt lat="39.814572" lon="-8.852459">
        <ele>11.3</ele>
        <time>1970-01-01T00:17:09.000Z</time>
      </trkpt>
      <trkpt lat="39.814526" lon="-8.852428">
        <ele>11.3</ele>
        <time>1970-01-01T00:17:10.000Z</time>
      </trkpt>
      <trkpt lat="39.814481" lon="-8.852396">
        <ele>11.3</ele>
        <time>1970-01-01T00:17:11.000Z</time>
      </trkpt>
      <trkpt lat="39.814438" lon="-8.852368">
        <ele>11.3</ele>
        <time>1970-01-01T00:17:12.000Z</time>
      </trkpt>
      <trkpt lat="39.814394" lon="-8.852348">
        <ele>11.4</ele>
        <time>1970-01-01T00:17:13.000Z</time>
      </trkpt>
      <trkpt lat="39.814351" lon="-8.85233">
        <ele>11.4</ele>
        <time>1970-01-01T00:17:14.000Z</time>
      </trkpt>
      <trkpt lat="39.814254" lon="-8.852263">
        <ele>11.5</ele>
        <time>1970-01-01T00:17:15.000Z</time>
      </trkpt>
      <trkpt lat="39.814206" lon="-8.852239">
        <ele>11.5</ele>
        <time>1970-01-01T00:17:16.000Z</time>
      </trkpt>
      <trkpt lat="39.814157" lon="-8.852208">
        <ele>11.5</ele>
        <time>1970-01-01T00:17:17.000Z</time>
      </trkpt>
      <trkpt lat="39.814109" lon="-8.852188">
        <ele>11.5</ele>
        <time>1970-01-01T00:17:18.000Z</time>
      </trkpt>
      <trkpt lat="39.814053" lon="-8.852153">
        <ele>11.5</ele>
        <time>1970-01-01T00:17:19.000Z</time>
      </trkpt>
      <trkpt lat="39.814004" lon="-8.852108">
        <ele>11.5</ele>
        <time>1970-01-01T00:17:20.000Z</time>
      </trkpt>
      <trkpt lat="39.813947" lon="-8.852076">
        <ele>11.5</ele>
        <time>1970-01-01T00:17:21.000Z</time>
      </trkpt>
      <trkpt lat="39.813896" lon="-8.852039">
        <ele>11.6</ele>
        <time>1970-01-01T00:17:22.000Z</time>
      </trkpt>
      <trkpt lat="39.813838" lon="-8.852008">
        <ele>11.6</ele>
        <time>1970-01-01T00:17:23.000Z</time>
      </trkpt>
      <trkpt lat="39.813786" lon="-8.851967">
        <ele>11.6</ele>
        <time>1970-01-01T00:17:24.000Z</time>
      </trkpt>
      <trkpt lat="39.813731" lon="-8.851937">
        <ele>11.6</ele>
        <time>1970-01-01T00:17:25.000Z</time>
      </trkpt>
      <trkpt lat="39.813687" lon="-8.851914">
        <ele>11.7</ele>
        <time>1970-01-01T00:17:26.000Z</time>
      </trkpt>
      <trkpt lat="39.813639" lon="-8.851888">
        <ele>11.7</ele>
        <time>1970-01-01T00:17:27.000Z</time>
      </trkpt>
      <trkpt lat="39.813598" lon="-8.851864">
        <ele>11.7</ele>
        <time>1970-01-01T00:17:28.000Z</time>
      </trkpt>
      <trkpt lat="39.813562" lon="-8.851833">
        <ele>11.7</ele>
        <time>1970-01-01T00:17:29.000Z</time>
      </trkpt>
      <trkpt lat="39.813525" lon="-8.851807">
        <ele>11.6</ele>
        <time>1970-01-01T00:17:30.000Z</time>
      </trkpt>
      <trkpt lat="39.813488" lon="-8.851778">
        <ele>11.6</ele>
        <time>1970-01-01T00:17:31.000Z</time>
      </trkpt>
      <trkpt lat="39.813449" lon="-8.851746">
        <ele>11.5</ele>
        <time>1970-01-01T00:17:32.000Z</time>
      </trkpt>
      <trkpt lat="39.813407" lon="-8.85171">
        <ele>11.4</ele>
        <time>1970-01-01T00:17:33.000Z</time>
      </trkpt>
      <trkpt lat="39.813361" lon="-8.851678">
        <ele>11.4</ele>
        <time>1970-01-01T00:17:34.000Z</time>
      </trkpt>
      <trkpt lat="39.813309" lon="-8.851652">
        <ele>11.3</ele>
        <time>1970-01-01T00:17:35.000Z</time>
      </trkpt>
      <trkpt lat="39.813254" lon="-8.851618">
        <ele>11.2</ele>
        <time>1970-01-01T00:17:36.000Z</time>
      </trkpt>
      <trkpt lat="39.813199" lon="-8.851581">
        <ele>11.2</ele>
        <time>1970-01-01T00:17:37.000Z</time>
      </trkpt>
      <trkpt lat="39.813149" lon="-8.851551">
        <ele>11.1</ele>
        <time>1970-01-01T00:17:38.000Z</time>
      </trkpt>
      <trkpt lat="39.813102" lon="-8.851523">
        <ele>11.1</ele>
        <time>1970-01-01T00:17:39.000Z</time>
      </trkpt>
      <trkpt lat="39.813057" lon="-8.851494">
        <ele>11.1</ele>
        <time>1970-01-01T00:17:40.000Z</time>
      </trkpt>
      <trkpt lat="39.813012" lon="-8.851463">
        <ele>11.1</ele>
        <time>1970-01-01T00:17:41.000Z</time>
      </trkpt>
      <trkpt lat="39.812963" lon="-8.851443">
        <ele>11.1</ele>
        <time>1970-01-01T00:17:42.000Z</time>
      </trkpt>
      <trkpt lat="39.81292" lon="-8.851414">
        <ele>11.1</ele>
        <time>1970-01-01T00:17:43.000Z</time>
      </trkpt>
      <trkpt lat="39.812875" lon="-8.851381">
        <ele>11</ele>
        <time>1970-01-01T00:17:44.000Z</time>
      </trkpt>
      <trkpt lat="39.812826" lon="-8.851354">
        <ele>11</ele>
        <time>1970-01-01T00:17:45.000Z</time>
      </trkpt>
      <trkpt lat="39.812777" lon="-8.851326">
        <ele>10.9</ele>
        <time>1970-01-01T00:17:46.000Z</time>
      </trkpt>
      <trkpt lat="39.812731" lon="-8.851295">
        <ele>10.8</ele>
        <time>1970-01-01T00:17:47.000Z</time>
      </trkpt>
      <trkpt lat="39.812687" lon="-8.851266">
        <ele>10.8</ele>
        <time>1970-01-01T00:17:48.000Z</time>
      </trkpt>
      <trkpt lat="39.812643" lon="-8.851242">
        <ele>10.7</ele>
        <time>1970-01-01T00:17:49.000Z</time>
      </trkpt>
      <trkpt lat="39.8126" lon="-8.851219">
        <ele>10.6</ele>
        <time>1970-01-01T00:17:50.000Z</time>
      </trkpt>
      <trkpt lat="39.812558" lon="-8.851193">
        <ele>10.6</ele>
        <time>1970-01-01T00:17:51.000Z</time>
      </trkpt>
      <trkpt lat="39.81251" lon="-8.851173">
        <ele>10.5</ele>
        <time>1970-01-01T00:17:52.000Z</time>
      </trkpt>
      <trkpt lat="39.812469" lon="-8.851145">
        <ele>10.5</ele>
        <time>1970-01-01T00:17:53.000Z</time>
      </trkpt>
      <trkpt lat="39.812422" lon="-8.851117">
        <ele>10.5</ele>
        <time>1970-01-01T00:17:54.000Z</time>
      </trkpt>
      <trkpt lat="39.812374" lon="-8.851088">
        <ele>10.5</ele>
        <time>1970-01-01T00:17:55.000Z</time>
      </trkpt>
      <trkpt lat="39.812322" lon="-8.851057">
        <ele>10.5</ele>
        <time>1970-01-01T00:17:56.000Z</time>
      </trkpt>
      <trkpt lat="39.812271" lon="-8.851025">
        <ele>10.5</ele>
        <time>1970-01-01T00:17:57.000Z</time>
      </trkpt>
      <trkpt lat="39.812232" lon="-8.850999">
        <ele>10.5</ele>
        <time>1970-01-01T00:17:58.000Z</time>
      </trkpt>
      <trkpt lat="39.812185" lon="-8.850974">
        <ele>10.5</ele>
        <time>1970-01-01T00:17:59.000Z</time>
      </trkpt>
      <trkpt lat="39.812143" lon="-8.85094">
        <ele>10.6</ele>
        <time>1970-01-01T00:18:00.000Z</time>
      </trkpt>
      <trkpt lat="39.812102" lon="-8.850913">
        <ele>10.6</ele>
        <time>1970-01-01T00:18:01.000Z</time>
      </trkpt>
      <trkpt lat="39.812063" lon="-8.850888">
        <ele>10.6</ele>
        <time>1970-01-01T00:18:02.000Z</time>
      </trkpt>
      <trkpt lat="39.81201" lon="-8.850841">
        <ele>10.6</ele>
        <time>1970-01-01T00:18:03.000Z</time>
      </trkpt>
      <trkpt lat="39.811963" lon="-8.850809">
        <ele>10.7</ele>
        <time>1970-01-01T00:18:04.000Z</time>
      </trkpt>
      <trkpt lat="39.811918" lon="-8.850771">
        <ele>10.7</ele>
        <time>1970-01-01T00:18:05.000Z</time>
      </trkpt>
      <trkpt lat="39.811867" lon="-8.85075">
        <ele>10.7</ele>
        <time>1970-01-01T00:18:06.000Z</time>
      </trkpt>
      <trkpt lat="39.811813" lon="-8.850716">
        <ele>10.7</ele>
        <time>1970-01-01T00:18:07.000Z</time>
      </trkpt>
      <trkpt lat="39.811756" lon="-8.850687">
        <ele>10.7</ele>
        <time>1970-01-01T00:18:08.000Z</time>
      </trkpt>
      <trkpt lat="39.811703" lon="-8.850658">
        <ele>10.7</ele>
        <time>1970-01-01T00:18:09.000Z</time>
      </trkpt>
      <trkpt lat="39.81165" lon="-8.850616">
        <ele>10.7</ele>
        <time>1970-01-01T00:18:10.000Z</time>
      </trkpt>
      <trkpt lat="39.811596" lon="-8.850583">
        <ele>10.8</ele>
        <time>1970-01-01T00:18:11.000Z</time>
      </trkpt>
      <trkpt lat="39.811551" lon="-8.850552">
        <ele>10.8</ele>
        <time>1970-01-01T00:18:12.000Z</time>
      </trkpt>
      <trkpt lat="39.811506" lon="-8.850526">
        <ele>10.8</ele>
        <time>1970-01-01T00:18:13.000Z</time>
      </trkpt>
      <trkpt lat="39.811456" lon="-8.8505">
        <ele>10.8</ele>
        <time>1970-01-01T00:18:14.000Z</time>
      </trkpt>
      <trkpt lat="39.811414" lon="-8.850464">
        <ele>10.8</ele>
        <time>1970-01-01T00:18:15.000Z</time>
      </trkpt>
      <trkpt lat="39.811366" lon="-8.850435">
        <ele>10.8</ele>
        <time>1970-01-01T00:18:16.000Z</time>
      </trkpt>
      <trkpt lat="39.811317" lon="-8.850401">
        <ele>10.8</ele>
        <time>1970-01-01T00:18:17.000Z</time>
      </trkpt>
      <trkpt lat="39.811273" lon="-8.850365">
        <ele>10.8</ele>
        <time>1970-01-01T00:18:18.000Z</time>
      </trkpt>
      <trkpt lat="39.811226" lon="-8.850341">
        <ele>10.8</ele>
        <time>1970-01-01T00:18:19.000Z</time>
      </trkpt>
      <trkpt lat="39.811179" lon="-8.850307">
        <ele>10.8</ele>
        <time>1970-01-01T00:18:20.000Z</time>
      </trkpt>
      <trkpt lat="39.81113" lon="-8.850273">
        <ele>10.8</ele>
        <time>1970-01-01T00:18:21.000Z</time>
      </trkpt>
      <trkpt lat="39.811086" lon="-8.85024">
        <ele>10.8</ele>
        <time>1970-01-01T00:18:22.000Z</time>
      </trkpt>
      <trkpt lat="39.811043" lon="-8.850213">
        <ele>10.8</ele>
        <time>1970-01-01T00:18:23.000Z</time>
      </trkpt>
      <trkpt lat="39.810999" lon="-8.850181">
        <ele>10.8</ele>
        <time>1970-01-01T00:18:24.000Z</time>
      </trkpt>
      <trkpt lat="39.810955" lon="-8.85015">
        <ele>10.8</ele>
        <time>1970-01-01T00:18:25.000Z</time>
      </trkpt>
      <trkpt lat="39.810911" lon="-8.850125">
        <ele>10.8</ele>
        <time>1970-01-01T00:18:26.000Z</time>
      </trkpt>
      <trkpt lat="39.810863" lon="-8.850099">
        <ele>10.8</ele>
        <time>1970-01-01T00:18:27.000Z</time>
      </trkpt>
      <trkpt lat="39.810815" lon="-8.850061">
        <ele>10.8</ele>
        <time>1970-01-01T00:18:28.000Z</time>
      </trkpt>
      <trkpt lat="39.810764" lon="-8.850029">
        <ele>10.8</ele>
        <time>1970-01-01T00:18:29.000Z</time>
      </trkpt>
      <trkpt lat="39.810718" lon="-8.849996">
        <ele>10.8</ele>
        <time>1970-01-01T00:18:30.000Z</time>
      </trkpt>
      <trkpt lat="39.810672" lon="-8.849971">
        <ele>10.8</ele>
        <time>1970-01-01T00:18:31.000Z</time>
      </trkpt>
      <trkpt lat="39.810619" lon="-8.84994">
        <ele>10.8</ele>
        <time>1970-01-01T00:18:32.000Z</time>
      </trkpt>
      <trkpt lat="39.81057" lon="-8.849909">
        <ele>10.8</ele>
        <time>1970-01-01T00:18:33.000Z</time>
      </trkpt>
      <trkpt lat="39.810521" lon="-8.849877">
        <ele>10.9</ele>
        <time>1970-01-01T00:18:34.000Z</time>
      </trkpt>
      <trkpt lat="39.810474" lon="-8.849845">
        <ele>10.9</ele>
        <time>1970-01-01T00:18:35.000Z</time>
      </trkpt>
      <trkpt lat="39.810432" lon="-8.849815">
        <ele>10.9</ele>
        <time>1970-01-01T00:18:36.000Z</time>
      </trkpt>
      <trkpt lat="39.810385" lon="-8.849793">
        <ele>10.9</ele>
        <time>1970-01-01T00:18:37.000Z</time>
      </trkpt>
      <trkpt lat="39.810338" lon="-8.849763">
        <ele>10.9</ele>
        <time>1970-01-01T00:18:38.000Z</time>
      </trkpt>
      <trkpt lat="39.810303" lon="-8.849721">
        <ele>10.9</ele>
        <time>1970-01-01T00:18:39.000Z</time>
      </trkpt>
      <trkpt lat="39.810263" lon="-8.84969">
        <ele>10.9</ele>
        <time>1970-01-01T00:18:40.000Z</time>
      </trkpt>
      <trkpt lat="39.810222" lon="-8.849668">
        <ele>10.9</ele>
        <time>1970-01-01T00:18:41.000Z</time>
      </trkpt>
      <trkpt lat="39.810163" lon="-8.849642">
        <ele>10.9</ele>
        <time>1970-01-01T00:18:42.000Z</time>
      </trkpt>
      <trkpt lat="39.810119" lon="-8.849614">
        <ele>10.9</ele>
        <time>1970-01-01T00:18:43.000Z</time>
      </trkpt>
      <trkpt lat="39.81007" lon="-8.849577">
        <ele>10.9</ele>
        <time>1970-01-01T00:18:44.000Z</time>
      </trkpt>
      <trkpt lat="39.810022" lon="-8.849546">
        <ele>10.9</ele>
        <time>1970-01-01T00:18:45.000Z</time>
      </trkpt>
      <trkpt lat="39.809974" lon="-8.849524">
        <ele>10.9</ele>
        <time>1970-01-01T00:18:46.000Z</time>
      </trkpt>
      <trkpt lat="39.809927" lon="-8.849493">
        <ele>10.9</ele>
        <time>1970-01-01T00:18:47.000Z</time>
      </trkpt>
      <trkpt lat="39.809881" lon="-8.849462">
        <ele>10.9</ele>
        <time>1970-01-01T00:18:48.000Z</time>
      </trkpt>
      <trkpt lat="39.809837" lon="-8.849427">
        <ele>10.9</ele>
        <time>1970-01-01T00:18:49.000Z</time>
      </trkpt>
      <trkpt lat="39.809796" lon="-8.849402">
        <ele>10.9</ele>
        <time>1970-01-01T00:18:50.000Z</time>
      </trkpt>
      <trkpt lat="39.809743" lon="-8.849366">
        <ele>10.9</ele>
        <time>1970-01-01T00:18:52.000Z</time>
      </trkpt>
      <trkpt lat="39.809693" lon="-8.84934">
        <ele>10.9</ele>
        <time>1970-01-01T00:18:53.000Z</time>
      </trkpt>
      <trkpt lat="39.809638" lon="-8.849303">
        <ele>10.9</ele>
        <time>1970-01-01T00:18:54.000Z</time>
      </trkpt>
      <trkpt lat="39.809587" lon="-8.849269">
        <ele>10.9</ele>
        <time>1970-01-01T00:18:55.000Z</time>
      </trkpt>
      <trkpt lat="39.80953" lon="-8.849237">
        <ele>10.8</ele>
        <time>1970-01-01T00:18:56.000Z</time>
      </trkpt>
      <trkpt lat="39.809415" lon="-8.849155">
        <ele>10.8</ele>
        <time>1970-01-01T00:18:57.000Z</time>
      </trkpt>
      <trkpt lat="39.809353" lon="-8.849128">
        <ele>10.8</ele>
        <time>1970-01-01T00:18:58.000Z</time>
      </trkpt>
      <trkpt lat="39.809293" lon="-8.849078">
        <ele>10.8</ele>
        <time>1970-01-01T00:18:59.000Z</time>
      </trkpt>
      <trkpt lat="39.80924" lon="-8.849047">
        <ele>10.8</ele>
        <time>1970-01-01T00:19:00.000Z</time>
      </trkpt>
      <trkpt lat="39.809188" lon="-8.849011">
        <ele>10.8</ele>
        <time>1970-01-01T00:19:01.000Z</time>
      </trkpt>
      <trkpt lat="39.809139" lon="-8.848979">
        <ele>10.7</ele>
        <time>1970-01-01T00:19:02.000Z</time>
      </trkpt>
      <trkpt lat="39.809091" lon="-8.848948">
        <ele>10.7</ele>
        <time>1970-01-01T00:19:03.000Z</time>
      </trkpt>
      <trkpt lat="39.809041" lon="-8.848913">
        <ele>10.7</ele>
        <time>1970-01-01T00:19:04.000Z</time>
      </trkpt>
      <trkpt lat="39.80899" lon="-8.848881">
        <ele>10.7</ele>
        <time>1970-01-01T00:19:05.000Z</time>
      </trkpt>
      <trkpt lat="39.808937" lon="-8.848832">
        <ele>10.7</ele>
        <time>1970-01-01T00:19:06.000Z</time>
      </trkpt>
      <trkpt lat="39.808877" lon="-8.8488">
        <ele>10.6</ele>
        <time>1970-01-01T00:19:08.000Z</time>
      </trkpt>
      <trkpt lat="39.808764" lon="-8.848721">
        <ele>10.6</ele>
        <time>1970-01-01T00:19:09.000Z</time>
      </trkpt>
      <trkpt lat="39.808702" lon="-8.848676">
        <ele>10.6</ele>
        <time>1970-01-01T00:19:10.000Z</time>
      </trkpt>
      <trkpt lat="39.808641" lon="-8.84863">
        <ele>10.7</ele>
        <time>1970-01-01T00:19:11.000Z</time>
      </trkpt>
      <trkpt lat="39.808579" lon="-8.848584">
        <ele>10.7</ele>
        <time>1970-01-01T00:19:12.000Z</time>
      </trkpt>
      <trkpt lat="39.808522" lon="-8.848549">
        <ele>10.8</ele>
        <time>1970-01-01T00:19:13.000Z</time>
      </trkpt>
      <trkpt lat="39.808466" lon="-8.848512">
        <ele>10.9</ele>
        <time>1970-01-01T00:19:14.000Z</time>
      </trkpt>
      <trkpt lat="39.808411" lon="-8.848471">
        <ele>10.9</ele>
        <time>1970-01-01T00:19:15.000Z</time>
      </trkpt>
      <trkpt lat="39.808357" lon="-8.848435">
        <ele>11</ele>
        <time>1970-01-01T00:19:16.000Z</time>
      </trkpt>
      <trkpt lat="39.808307" lon="-8.848402">
        <ele>11</ele>
        <time>1970-01-01T00:19:17.000Z</time>
      </trkpt>
      <trkpt lat="39.808257" lon="-8.848366">
        <ele>11.1</ele>
        <time>1970-01-01T00:19:18.000Z</time>
      </trkpt>
      <trkpt lat="39.808209" lon="-8.848334">
        <ele>11.1</ele>
        <time>1970-01-01T00:19:19.000Z</time>
      </trkpt>
      <trkpt lat="39.808165" lon="-8.848305">
        <ele>11.1</ele>
        <time>1970-01-01T00:19:20.000Z</time>
      </trkpt>
      <trkpt lat="39.808121" lon="-8.848273">
        <ele>11.2</ele>
        <time>1970-01-01T00:19:21.000Z</time>
      </trkpt>
      <trkpt lat="39.808083" lon="-8.848247">
        <ele>11.2</ele>
        <time>1970-01-01T00:19:22.000Z</time>
      </trkpt>
      <trkpt lat="39.808047" lon="-8.848215">
        <ele>11.2</ele>
        <time>1970-01-01T00:19:23.000Z</time>
      </trkpt>
      <trkpt lat="39.808008" lon="-8.848191">
        <ele>11.2</ele>
        <time>1970-01-01T00:19:24.000Z</time>
      </trkpt>
      <trkpt lat="39.807963" lon="-8.848165">
        <ele>11.2</ele>
        <time>1970-01-01T00:19:25.000Z</time>
      </trkpt>
      <trkpt lat="39.807922" lon="-8.848148">
        <ele>11.2</ele>
        <time>1970-01-01T00:19:26.000Z</time>
      </trkpt>
      <trkpt lat="39.807877" lon="-8.848123">
        <ele>11.3</ele>
        <time>1970-01-01T00:19:27.000Z</time>
      </trkpt>
      <trkpt lat="39.807828" lon="-8.848106">
        <ele>11.3</ele>
        <time>1970-01-01T00:19:28.000Z</time>
      </trkpt>
      <trkpt lat="39.807783" lon="-8.848076">
        <ele>11.3</ele>
        <time>1970-01-01T00:19:29.000Z</time>
      </trkpt>
      <trkpt lat="39.807742" lon="-8.848047">
        <ele>11.3</ele>
        <time>1970-01-01T00:19:30.000Z</time>
      </trkpt>
      <trkpt lat="39.807699" lon="-8.848022">
        <ele>11.3</ele>
        <time>1970-01-01T00:19:31.000Z</time>
      </trkpt>
      <trkpt lat="39.807655" lon="-8.847993">
        <ele>11.4</ele>
        <time>1970-01-01T00:19:32.000Z</time>
      </trkpt>
      <trkpt lat="39.807611" lon="-8.847965">
        <ele>11.4</ele>
        <time>1970-01-01T00:19:33.000Z</time>
      </trkpt>
      <trkpt lat="39.807575" lon="-8.847937">
        <ele>11.5</ele>
        <time>1970-01-01T00:19:34.000Z</time>
      </trkpt>
      <trkpt lat="39.807531" lon="-8.847916">
        <ele>11.5</ele>
        <time>1970-01-01T00:19:35.000Z</time>
      </trkpt>
      <trkpt lat="39.807492" lon="-8.847886">
        <ele>11.6</ele>
        <time>1970-01-01T00:19:36.000Z</time>
      </trkpt>
      <trkpt lat="39.80745" lon="-8.847853">
        <ele>11.7</ele>
        <time>1970-01-01T00:19:37.000Z</time>
      </trkpt>
      <trkpt lat="39.807404" lon="-8.847835">
        <ele>11.7</ele>
        <time>1970-01-01T00:19:38.000Z</time>
      </trkpt>
      <trkpt lat="39.807362" lon="-8.847805">
        <ele>11.8</ele>
        <time>1970-01-01T00:19:39.000Z</time>
      </trkpt>
      <trkpt lat="39.807323" lon="-8.847782">
        <ele>11.9</ele>
        <time>1970-01-01T00:19:40.000Z</time>
      </trkpt>
      <trkpt lat="39.807288" lon="-8.84776">
        <ele>12</ele>
        <time>1970-01-01T00:19:41.000Z</time>
      </trkpt>
      <trkpt lat="39.80726" lon="-8.84774">
        <ele>12.1</ele>
        <time>1970-01-01T00:19:42.000Z</time>
      </trkpt>
      <trkpt lat="39.807232" lon="-8.847714">
        <ele>12.2</ele>
        <time>1970-01-01T00:19:43.000Z</time>
      </trkpt>
      <trkpt lat="39.807209" lon="-8.847693">
        <ele>12.4</ele>
        <time>1970-01-01T00:19:44.000Z</time>
      </trkpt>
      <trkpt lat="39.807182" lon="-8.847679">
        <ele>12.5</ele>
        <time>1970-01-01T00:19:45.000Z</time>
      </trkpt>
      <trkpt lat="39.807154" lon="-8.847663">
        <ele>12.6</ele>
        <time>1970-01-01T00:19:46.000Z</time>
      </trkpt>
      <trkpt lat="39.807129" lon="-8.84765">
        <ele>12.8</ele>
        <time>1970-01-01T00:19:47.000Z</time>
      </trkpt>
      <trkpt lat="39.807102" lon="-8.847624">
        <ele>13</ele>
        <time>1970-01-01T00:19:48.000Z</time>
      </trkpt>
      <trkpt lat="39.807094" lon="-8.84762">
        <ele>13</ele>
        <time>1970-01-01T00:19:49.000Z</time>
      </trkpt>
      <trkpt lat="39.807065" lon="-8.847605">
        <ele>13.2</ele>
        <time>1970-01-01T00:19:50.000Z</time>
      </trkpt>
      <trkpt lat="39.807055" lon="-8.847603">
        <ele>13.3</ele>
        <time>1970-01-01T00:19:51.000Z</time>
      </trkpt>
      <trkpt lat="39.807022" lon="-8.847586">
        <ele>13.6</ele>
        <time>1970-01-01T00:19:52.000Z</time>
      </trkpt>
      <trkpt lat="39.807013" lon="-8.847581">
        <ele>13.6</ele>
        <time>1970-01-01T00:19:53.000Z</time>
      </trkpt>
      <trkpt lat="39.806987" lon="-8.847562">
        <ele>13.9</ele>
        <time>1970-01-01T00:19:54.000Z</time>
      </trkpt>
      <trkpt lat="39.806979" lon="-8.847553">
        <ele>14</ele>
        <time>1970-01-01T00:19:55.000Z</time>
      </trkpt>
      <trkpt lat="39.80695" lon="-8.847532">
        <ele>14.2</ele>
        <time>1970-01-01T00:19:56.000Z</time>
      </trkpt>
      <trkpt lat="39.80694" lon="-8.847523">
        <ele>14.3</ele>
        <time>1970-01-01T00:19:57.000Z</time>
      </trkpt>
      <trkpt lat="39.806902" lon="-8.847515">
        <ele>14.6</ele>
        <time>1970-01-01T00:19:58.000Z</time>
      </trkpt>
      <trkpt lat="39.806887" lon="-8.847514">
        <ele>14.8</ele>
        <time>1970-01-01T00:19:59.000Z</time>
      </trkpt>
      <trkpt lat="39.806861" lon="-8.8475">
        <ele>15</ele>
        <time>1970-01-01T00:20:00.000Z</time>
      </trkpt>
      <trkpt lat="39.806846" lon="-8.847461">
        <ele>15.2</ele>
        <time>1970-01-01T00:20:01.000Z</time>
      </trkpt>
      <trkpt lat="39.806845" lon="-8.847448">
        <ele>15.3</ele>
        <time>1970-01-01T00:20:02.000Z</time>
      </trkpt>
      <trkpt lat="39.806831" lon="-8.847411">
        <ele>15.4</ele>
        <time>1970-01-01T00:20:03.000Z</time>
      </trkpt>
      <trkpt lat="39.806825" lon="-8.847399">
        <ele>15.4</ele>
        <time>1970-01-01T00:20:04.000Z</time>
      </trkpt>
      <trkpt lat="39.80681" lon="-8.847363">
        <ele>15.2</ele>
        <time>1970-01-01T00:20:05.000Z</time>
      </trkpt>
      <trkpt lat="39.806804" lon="-8.847351">
        <ele>15.1</ele>
        <time>1970-01-01T00:20:06.000Z</time>
      </trkpt>
      <trkpt lat="39.806786" lon="-8.847314">
        <ele>14.8</ele>
        <time>1970-01-01T00:20:07.000Z</time>
      </trkpt>
      <trkpt lat="39.80678" lon="-8.847302">
        <ele>14.7</ele>
        <time>1970-01-01T00:20:08.000Z</time>
      </trkpt>
      <trkpt lat="39.80677" lon="-8.847291">
        <ele>14.6</ele>
        <time>1970-01-01T00:20:09.000Z</time>
      </trkpt>
      <trkpt lat="39.80676" lon="-8.847281">
        <ele>14.5</ele>
        <time>1970-01-01T00:20:10.000Z</time>
      </trkpt>
      <trkpt lat="39.806755" lon="-8.847274">
        <ele>14.4</ele>
        <time>1970-01-01T00:20:11.000Z</time>
      </trkpt>
      <trkpt lat="39.806751" lon="-8.847277">
        <ele>14.4</ele>
        <time>1970-01-01T00:20:12.000Z</time>
      </trkpt>
      <trkpt lat="39.806747" lon="-8.847273">
        <ele>14.3</ele>
        <time>1970-01-01T00:20:13.000Z</time>
      </trkpt>
      <trkpt lat="39.806742" lon="-8.84727">
        <ele>14.3</ele>
        <time>1970-01-01T00:20:14.000Z</time>
      </trkpt>
      <trkpt lat="39.806738" lon="-8.847267">
        <ele>14.2</ele>
        <time>1970-01-01T00:20:15.000Z</time>
      </trkpt>
      <trkpt lat="39.806733" lon="-8.847264">
        <ele>14.2</ele>
        <time>1970-01-01T00:20:16.000Z</time>
      </trkpt>
      <trkpt lat="39.806729" lon="-8.84726">
        <ele>14.1</ele>
        <time>1970-01-01T00:20:17.000Z</time>
      </trkpt>
      <trkpt lat="39.806724" lon="-8.847257">
        <ele>14.1</ele>
        <time>1970-01-01T00:20:18.000Z</time>
      </trkpt>
      <trkpt lat="39.806719" lon="-8.847254">
        <ele>14</ele>
        <time>1970-01-01T00:20:19.000Z</time>
      </trkpt>
      <trkpt lat="39.806715" lon="-8.847251">
        <ele>14</ele>
        <time>1970-01-01T00:20:20.000Z</time>
      </trkpt>
      <trkpt lat="39.80671" lon="-8.847247">
        <ele>13.9</ele>
        <time>1970-01-01T00:20:21.000Z</time>
      </trkpt>
      <trkpt lat="39.806706" lon="-8.847244">
        <ele>13.9</ele>
        <time>1970-01-01T00:22:28.000Z</time>
      </trkpt>
      <trkpt lat="39.806701" lon="-8.847241">
        <ele>13.9</ele>
        <time>1970-01-01T00:22:29.000Z</time>
      </trkpt>
      <trkpt lat="39.806689" lon="-8.847238">
        <ele>13.7</ele>
        <time>1970-01-01T00:22:30.000Z</time>
      </trkpt>
      <trkpt lat="39.806675" lon="-8.847232">
        <ele>13.6</ele>
        <time>1970-01-01T00:22:31.000Z</time>
      </trkpt>
      <trkpt lat="39.806659" lon="-8.847225">
        <ele>13.5</ele>
        <time>1970-01-01T00:22:32.000Z</time>
      </trkpt>
      <trkpt lat="39.806647" lon="-8.847218">
        <ele>13.4</ele>
        <time>1970-01-01T00:22:33.000Z</time>
      </trkpt>
      <trkpt lat="39.806631" lon="-8.847215">
        <ele>13.2</ele>
        <time>1970-01-01T00:22:34.000Z</time>
      </trkpt>
      <trkpt lat="39.806625" lon="-8.847213">
        <ele>13.2</ele>
        <time>1970-01-01T00:22:35.000Z</time>
      </trkpt>
      <trkpt lat="39.806619" lon="-8.847211">
        <ele>13.2</ele>
        <time>1970-01-01T00:22:36.000Z</time>
      </trkpt>
      <trkpt lat="39.806623" lon="-8.847211">
        <ele>13.1</ele>
        <time>1970-01-01T00:22:37.000Z</time>
      </trkpt>
      <trkpt lat="39.806626" lon="-8.847211">
        <ele>13.1</ele>
        <time>1970-01-01T00:22:38.000Z</time>
      </trkpt>
      <trkpt lat="39.80663" lon="-8.847212">
        <ele>13.1</ele>
        <time>1970-01-01T00:22:39.000Z</time>
      </trkpt>
      <trkpt lat="39.806633" lon="-8.847212">
        <ele>13</ele>
        <time>1970-01-01T00:22:40.000Z</time>
      </trkpt>
      <trkpt lat="39.806637" lon="-8.847213">
        <ele>13</ele>
        <time>1970-01-01T00:22:41.000Z</time>
      </trkpt>
      <trkpt lat="39.806641" lon="-8.847213">
        <ele>13</ele>
        <time>1970-01-01T00:22:42.000Z</time>
      </trkpt>
      <trkpt lat="39.806644" lon="-8.847214">
        <ele>13</ele>
        <time>1970-01-01T00:22:43.000Z</time>
      </trkpt>
      <trkpt lat="39.806648" lon="-8.847214">
        <ele>12.9</ele>
        <time>1970-01-01T00:22:44.000Z</time>
      </trkpt>
      <trkpt lat="39.806652" lon="-8.847215">
        <ele>12.9</ele>
        <time>1970-01-01T00:22:45.000Z</time>
      </trkpt>
      <trkpt lat="39.806655" lon="-8.847216">
        <ele>12.9</ele>
        <time>1970-01-01T00:22:46.000Z</time>
      </trkpt>
      <trkpt lat="39.806659" lon="-8.847216">
        <ele>12.9</ele>
        <time>1970-01-01T00:41:53.000Z</time>
      </trkpt>
      <trkpt lat="39.806662" lon="-8.847217">
        <ele>12.9</ele>
        <time>1970-01-01T00:41:54.000Z</time>
      </trkpt>
      <trkpt lat="39.806666" lon="-8.847217">
        <ele>12.8</ele>
        <time>1970-01-01T00:41:55.000Z</time>
      </trkpt>
      <trkpt lat="39.80667" lon="-8.847218">
        <ele>12.8</ele>
        <time>1970-01-01T00:41:56.000Z</time>
      </trkpt>
      <trkpt lat="39.806673" lon="-8.847218">
        <ele>12.8</ele>
        <time>1970-01-01T00:41:58.000Z</time>
      </trkpt>
      <trkpt lat="39.806677" lon="-8.847219">
        <ele>12.8</ele>
        <time>1970-01-01T00:41:59.000Z</time>
      </trkpt>
      <trkpt lat="39.806681" lon="-8.847219">
        <ele>12.7</ele>
        <time>1970-01-01T00:42:00.000Z</time>
      </trkpt>
      <trkpt lat="39.806684" lon="-8.84722">
        <ele>12.7</ele>
        <time>1970-01-01T00:42:01.000Z</time>
      </trkpt>
      <trkpt lat="39.806688" lon="-8.84722">
        <ele>12.7</ele>
        <time>1970-01-01T00:42:02.000Z</time>
      </trkpt>
      <trkpt lat="39.806691" lon="-8.847221">
        <ele>12.7</ele>
        <time>1970-01-01T00:42:03.000Z</time>
      </trkpt>
      <trkpt lat="39.806695" lon="-8.847222">
        <ele>12.7</ele>
        <time>1970-01-01T00:42:04.000Z</time>
      </trkpt>
      <trkpt lat="39.806699" lon="-8.847222">
        <ele>12.6</ele>
        <time>1970-01-01T00:42:05.000Z</time>
      </trkpt>
      <trkpt lat="39.806702" lon="-8.847223">
        <ele>12.6</ele>
        <time>1970-01-01T00:42:06.000Z</time>
      </trkpt>
      <trkpt lat="39.806706" lon="-8.847223">
        <ele>12.6</ele>
        <time>1970-01-01T00:42:07.000Z</time>
      </trkpt>
      <trkpt lat="39.80671" lon="-8.847224">
        <ele>12.6</ele>
        <time>1970-01-01T00:42:08.000Z</time>
      </trkpt>
      <trkpt lat="39.806713" lon="-8.847224">
        <ele>12.6</ele>
        <time>1970-01-01T00:42:09.000Z</time>
      </trkpt>
      <trkpt lat="39.806717" lon="-8.847225">
        <ele>12.5</ele>
        <time>1970-01-01T00:46:24.000Z</time>
      </trkpt>
      <trkpt lat="39.80672" lon="-8.847225">
        <ele>12.5</ele>
        <time>1970-01-01T00:46:26.000Z</time>
      </trkpt>
      <trkpt lat="39.806724" lon="-8.847226">
        <ele>12.5</ele>
        <time>1970-01-01T00:46:27.000Z</time>
      </trkpt>
      <trkpt lat="39.806739" lon="-8.847237">
        <ele>12.4</ele>
        <time>1970-01-01T00:46:28.000Z</time>
      </trkpt>
      <trkpt lat="39.806748" lon="-8.847251">
        <ele>12.4</ele>
        <time>1970-01-01T00:46:29.000Z</time>
      </trkpt>
      <trkpt lat="39.806751" lon="-8.847264">
        <ele>12.3</ele>
        <time>1970-01-01T00:46:30.000Z</time>
      </trkpt>
      <trkpt lat="39.806756" lon="-8.847274">
        <ele>12.3</ele>
        <time>1970-01-01T00:46:31.000Z</time>
      </trkpt>
      <trkpt lat="39.806757" lon="-8.847286">
        <ele>12.3</ele>
        <time>1970-01-01T00:46:32.000Z</time>
      </trkpt>
      <trkpt lat="39.806736" lon="-8.847305">
        <ele>12.2</ele>
        <time>1970-01-01T00:46:33.000Z</time>
      </trkpt>
      <trkpt lat="39.806724" lon="-8.847309">
        <ele>12.1</ele>
        <time>1970-01-01T00:46:34.000Z</time>
      </trkpt>
      <trkpt lat="39.806684" lon="-8.847301">
        <ele>12</ele>
        <time>1970-01-01T00:46:35.000Z</time>
      </trkpt>
      <trkpt lat="39.806669" lon="-8.847295">
        <ele>12</ele>
        <time>1970-01-01T00:46:36.000Z</time>
      </trkpt>
      <trkpt lat="39.806637" lon="-8.847281">
        <ele>11.9</ele>
        <time>1970-01-01T00:46:37.000Z</time>
      </trkpt>
      <trkpt lat="39.8066" lon="-8.847265">
        <ele>11.8</ele>
        <time>1970-01-01T00:46:38.000Z</time>
      </trkpt>
      <trkpt lat="39.806558" lon="-8.847247">
        <ele>11.7</ele>
        <time>1970-01-01T00:46:39.000Z</time>
      </trkpt>
      <trkpt lat="39.806519" lon="-8.847221">
        <ele>11.7</ele>
        <time>1970-01-01T00:46:40.000Z</time>
      </trkpt>
      <trkpt lat="39.806485" lon="-8.8472">
        <ele>11.6</ele>
        <time>1970-01-01T00:46:41.000Z</time>
      </trkpt>
      <trkpt lat="39.806452" lon="-8.847174">
        <ele>11.6</ele>
        <time>1970-01-01T00:46:42.000Z</time>
      </trkpt>
      <trkpt lat="39.806417" lon="-8.847151">
        <ele>11.6</ele>
        <time>1970-01-01T00:46:43.000Z</time>
      </trkpt>
      <trkpt lat="39.806382" lon="-8.847133">
        <ele>11.5</ele>
        <time>1970-01-01T00:46:44.000Z</time>
      </trkpt>
      <trkpt lat="39.806346" lon="-8.847111">
        <ele>11.5</ele>
        <time>1970-01-01T00:46:45.000Z</time>
      </trkpt>
      <trkpt lat="39.806313" lon="-8.84709">
        <ele>11.5</ele>
        <time>1970-01-01T00:46:46.000Z</time>
      </trkpt>
      <trkpt lat="39.806278" lon="-8.847067">
        <ele>11.5</ele>
        <time>1970-01-01T00:46:47.000Z</time>
      </trkpt>
      <trkpt lat="39.806207" lon="-8.847024">
        <ele>11.5</ele>
        <time>1970-01-01T00:46:48.000Z</time>
      </trkpt>
      <trkpt lat="39.806177" lon="-8.846999">
        <ele>11.5</ele>
        <time>1970-01-01T00:46:49.000Z</time>
      </trkpt>
      <trkpt lat="39.806144" lon="-8.846978">
        <ele>11.4</ele>
        <time>1970-01-01T00:46:50.000Z</time>
      </trkpt>
      <trkpt lat="39.806109" lon="-8.846959">
        <ele>11.4</ele>
        <time>1970-01-01T00:46:51.000Z</time>
      </trkpt>
      <trkpt lat="39.806076" lon="-8.846937">
        <ele>11.4</ele>
        <time>1970-01-01T00:46:52.000Z</time>
      </trkpt>
      <trkpt lat="39.806048" lon="-8.846918">
        <ele>11.4</ele>
        <time>1970-01-01T00:46:53.000Z</time>
      </trkpt>
      <trkpt lat="39.806018" lon="-8.846903">
        <ele>11.4</ele>
        <time>1970-01-01T00:46:54.000Z</time>
      </trkpt>
      <trkpt lat="39.80599" lon="-8.846888">
        <ele>11.4</ele>
        <time>1970-01-01T00:46:55.000Z</time>
      </trkpt>
      <trkpt lat="39.805958" lon="-8.846864">
        <ele>11.4</ele>
        <time>1970-01-01T00:46:56.000Z</time>
      </trkpt>
      <trkpt lat="39.805926" lon="-8.846842">
        <ele>11.4</ele>
        <time>1970-01-01T00:46:57.000Z</time>
      </trkpt>
      <trkpt lat="39.805895" lon="-8.846822">
        <ele>11.5</ele>
        <time>1970-01-01T00:46:58.000Z</time>
      </trkpt>
      <trkpt lat="39.805863" lon="-8.846805">
        <ele>11.5</ele>
        <time>1970-01-01T00:46:59.000Z</time>
      </trkpt>
      <trkpt lat="39.805831" lon="-8.846782">
        <ele>11.5</ele>
        <time>1970-01-01T00:47:00.000Z</time>
      </trkpt>
      <trkpt lat="39.805798" lon="-8.846759">
        <ele>11.5</ele>
        <time>1970-01-01T00:47:01.000Z</time>
      </trkpt>
      <trkpt lat="39.805762" lon="-8.846741">
        <ele>11.6</ele>
        <time>1970-01-01T00:47:02.000Z</time>
      </trkpt>
      <trkpt lat="39.80573" lon="-8.846717">
        <ele>11.6</ele>
        <time>1970-01-01T00:47:03.000Z</time>
      </trkpt>
      <trkpt lat="39.805702" lon="-8.846699">
        <ele>11.6</ele>
        <time>1970-01-01T00:47:04.000Z</time>
      </trkpt>
      <trkpt lat="39.805667" lon="-8.846679">
        <ele>11.6</ele>
        <time>1970-01-01T00:47:05.000Z</time>
      </trkpt>
      <trkpt lat="39.805627" lon="-8.846649">
        <ele>11.7</ele>
        <time>1970-01-01T00:47:06.000Z</time>
      </trkpt>
      <trkpt lat="39.805596" lon="-8.846619">
        <ele>11.7</ele>
        <time>1970-01-01T00:47:07.000Z</time>
      </trkpt>
      <trkpt lat="39.805567" lon="-8.846611">
        <ele>11.7</ele>
        <time>1970-01-01T00:47:08.000Z</time>
      </trkpt>
      <trkpt lat="39.80554" lon="-8.846593">
        <ele>11.7</ele>
        <time>1970-01-01T00:47:09.000Z</time>
      </trkpt>
      <trkpt lat="39.805499" lon="-8.846571">
        <ele>11.7</ele>
        <time>1970-01-01T00:47:10.000Z</time>
      </trkpt>
      <trkpt lat="39.805459" lon="-8.846551">
        <ele>11.8</ele>
        <time>1970-01-01T00:47:11.000Z</time>
      </trkpt>
      <trkpt lat="39.805429" lon="-8.846508">
        <ele>11.8</ele>
        <time>1970-01-01T00:47:12.000Z</time>
      </trkpt>
      <trkpt lat="39.80539" lon="-8.846496">
        <ele>11.8</ele>
        <time>1970-01-01T00:47:13.000Z</time>
      </trkpt>
      <trkpt lat="39.805358" lon="-8.846472">
        <ele>11.8</ele>
        <time>1970-01-01T00:47:14.000Z</time>
      </trkpt>
      <trkpt lat="39.805321" lon="-8.846447">
        <ele>11.8</ele>
        <time>1970-01-01T00:47:15.000Z</time>
      </trkpt>
      <trkpt lat="39.805308" lon="-8.84644">
        <ele>11.8</ele>
        <time>1970-01-01T00:47:16.000Z</time>
      </trkpt>
      <trkpt lat="39.805281" lon="-8.846424">
        <ele>11.8</ele>
        <time>1970-01-01T00:47:17.000Z</time>
      </trkpt>
      <trkpt lat="39.805246" lon="-8.846402">
        <ele>11.8</ele>
        <time>1970-01-01T00:47:18.000Z</time>
      </trkpt>
      <trkpt lat="39.805215" lon="-8.846381">
        <ele>11.8</ele>
        <time>1970-01-01T00:47:19.000Z</time>
      </trkpt>
      <trkpt lat="39.805185" lon="-8.846362">
        <ele>11.9</ele>
        <time>1970-01-01T00:47:20.000Z</time>
      </trkpt>
      <trkpt lat="39.805158" lon="-8.846341">
        <ele>11.9</ele>
        <time>1970-01-01T00:47:21.000Z</time>
      </trkpt>
      <trkpt lat="39.805133" lon="-8.846323">
        <ele>11.9</ele>
        <time>1970-01-01T00:47:22.000Z</time>
      </trkpt>
      <trkpt lat="39.805102" lon="-8.846311">
        <ele>11.9</ele>
        <time>1970-01-01T00:47:23.000Z</time>
      </trkpt>
      <trkpt lat="39.805072" lon="-8.84629">
        <ele>11.9</ele>
        <time>1970-01-01T00:47:24.000Z</time>
      </trkpt>
      <trkpt lat="39.805041" lon="-8.846262">
        <ele>11.9</ele>
        <time>1970-01-01T00:47:25.000Z</time>
      </trkpt>
      <trkpt lat="39.805014" lon="-8.84624">
        <ele>11.9</ele>
        <time>1970-01-01T00:47:26.000Z</time>
      </trkpt>
      <trkpt lat="39.804986" lon="-8.846213">
        <ele>11.9</ele>
        <time>1970-01-01T00:47:27.000Z</time>
      </trkpt>
      <trkpt lat="39.804958" lon="-8.846196">
        <ele>11.9</ele>
        <time>1970-01-01T00:47:28.000Z</time>
      </trkpt>
      <trkpt lat="39.804928" lon="-8.846172">
        <ele>11.8</ele>
        <time>1970-01-01T00:47:29.000Z</time>
      </trkpt>
      <trkpt lat="39.804902" lon="-8.846158">
        <ele>11.8</ele>
        <time>1970-01-01T00:47:30.000Z</time>
      </trkpt>
      <trkpt lat="39.804871" lon="-8.846141">
        <ele>11.8</ele>
        <time>1970-01-01T00:47:31.000Z</time>
      </trkpt>
      <trkpt lat="39.804836" lon="-8.846127">
        <ele>11.8</ele>
        <time>1970-01-01T00:47:32.000Z</time>
      </trkpt>
      <trkpt lat="39.804798" lon="-8.846096">
        <ele>11.8</ele>
        <time>1970-01-01T00:47:33.000Z</time>
      </trkpt>
      <trkpt lat="39.80476" lon="-8.846072">
        <ele>11.8</ele>
        <time>1970-01-01T00:47:34.000Z</time>
      </trkpt>
      <trkpt lat="39.804722" lon="-8.846054">
        <ele>11.8</ele>
        <time>1970-01-01T00:47:35.000Z</time>
      </trkpt>
      <trkpt lat="39.804688" lon="-8.846032">
        <ele>11.8</ele>
        <time>1970-01-01T00:47:36.000Z</time>
      </trkpt>
      <trkpt lat="39.804653" lon="-8.846006">
        <ele>11.8</ele>
        <time>1970-01-01T00:47:37.000Z</time>
      </trkpt>
      <trkpt lat="39.804621" lon="-8.845986">
        <ele>11.8</ele>
        <time>1970-01-01T00:47:38.000Z</time>
      </trkpt>
      <trkpt lat="39.80459" lon="-8.845968">
        <ele>11.8</ele>
        <time>1970-01-01T00:47:39.000Z</time>
      </trkpt>
      <trkpt lat="39.804558" lon="-8.845955">
        <ele>11.8</ele>
        <time>1970-01-01T00:47:40.000Z</time>
      </trkpt>
      <trkpt lat="39.804523" lon="-8.845932">
        <ele>11.8</ele>
        <time>1970-01-01T00:47:41.000Z</time>
      </trkpt>
      <trkpt lat="39.804487" lon="-8.845907">
        <ele>11.8</ele>
        <time>1970-01-01T00:47:42.000Z</time>
      </trkpt>
      <trkpt lat="39.804448" lon="-8.845881">
        <ele>11.9</ele>
        <time>1970-01-01T00:47:43.000Z</time>
      </trkpt>
      <trkpt lat="39.804413" lon="-8.84586">
        <ele>11.9</ele>
        <time>1970-01-01T00:47:44.000Z</time>
      </trkpt>
      <trkpt lat="39.80438" lon="-8.845836">
        <ele>11.9</ele>
        <time>1970-01-01T00:47:45.000Z</time>
      </trkpt>
      <trkpt lat="39.804347" lon="-8.84582">
        <ele>12</ele>
        <time>1970-01-01T00:47:46.000Z</time>
      </trkpt>
      <trkpt lat="39.804314" lon="-8.845801">
        <ele>12</ele>
        <time>1970-01-01T00:47:47.000Z</time>
      </trkpt>
      <trkpt lat="39.804283" lon="-8.84578">
        <ele>12</ele>
        <time>1970-01-01T00:47:48.000Z</time>
      </trkpt>
      <trkpt lat="39.804247" lon="-8.845752">
        <ele>12.1</ele>
        <time>1970-01-01T00:47:49.000Z</time>
      </trkpt>
      <trkpt lat="39.804215" lon="-8.845722">
        <ele>12.1</ele>
        <time>1970-01-01T00:47:50.000Z</time>
      </trkpt>
      <trkpt lat="39.804182" lon="-8.845708">
        <ele>12.1</ele>
        <time>1970-01-01T00:47:51.000Z</time>
      </trkpt>
      <trkpt lat="39.804153" lon="-8.845688">
        <ele>12.1</ele>
        <time>1970-01-01T00:47:52.000Z</time>
      </trkpt>
      <trkpt lat="39.804122" lon="-8.845663">
        <ele>12.1</ele>
        <time>1970-01-01T00:47:53.000Z</time>
      </trkpt>
      <trkpt lat="39.804091" lon="-8.845641">
        <ele>12.1</ele>
        <time>1970-01-01T00:47:54.000Z</time>
      </trkpt>
      <trkpt lat="39.80406" lon="-8.84562">
        <ele>12.1</ele>
        <time>1970-01-01T00:47:55.000Z</time>
      </trkpt>
      <trkpt lat="39.804021" lon="-8.845592">
        <ele>12.1</ele>
        <time>1970-01-01T00:47:56.000Z</time>
      </trkpt>
      <trkpt lat="39.803987" lon="-8.845574">
        <ele>12.1</ele>
        <time>1970-01-01T00:47:57.000Z</time>
      </trkpt>
      <trkpt lat="39.803953" lon="-8.845554">
        <ele>12.1</ele>
        <time>1970-01-01T00:47:58.000Z</time>
      </trkpt>
      <trkpt lat="39.803915" lon="-8.845534">
        <ele>12.1</ele>
        <time>1970-01-01T00:47:59.000Z</time>
      </trkpt>
      <trkpt lat="39.803875" lon="-8.845503">
        <ele>12.1</ele>
        <time>1970-01-01T00:48:00.000Z</time>
      </trkpt>
      <trkpt lat="39.80383" lon="-8.84548">
        <ele>12.1</ele>
        <time>1970-01-01T00:48:01.000Z</time>
      </trkpt>
      <trkpt lat="39.80379" lon="-8.845455">
        <ele>12.1</ele>
        <time>1970-01-01T00:48:02.000Z</time>
      </trkpt>
      <trkpt lat="39.803754" lon="-8.845431">
        <ele>12.1</ele>
        <time>1970-01-01T00:48:03.000Z</time>
      </trkpt>
      <trkpt lat="39.803716" lon="-8.845408">
        <ele>12.1</ele>
        <time>1970-01-01T00:48:04.000Z</time>
      </trkpt>
      <trkpt lat="39.803678" lon="-8.845383">
        <ele>12.1</ele>
        <time>1970-01-01T00:48:05.000Z</time>
      </trkpt>
      <trkpt lat="39.803634" lon="-8.845361">
        <ele>12.1</ele>
        <time>1970-01-01T00:48:06.000Z</time>
      </trkpt>
      <trkpt lat="39.803588" lon="-8.845339">
        <ele>12.1</ele>
        <time>1970-01-01T00:48:07.000Z</time>
      </trkpt>
      <trkpt lat="39.803545" lon="-8.845313">
        <ele>12.1</ele>
        <time>1970-01-01T00:48:08.000Z</time>
      </trkpt>
      <trkpt lat="39.803505" lon="-8.845286">
        <ele>12.2</ele>
        <time>1970-01-01T00:48:09.000Z</time>
      </trkpt>
      <trkpt lat="39.803465" lon="-8.84526">
        <ele>12.2</ele>
        <time>1970-01-01T00:48:10.000Z</time>
      </trkpt>
      <trkpt lat="39.803422" lon="-8.845236">
        <ele>12.2</ele>
        <time>1970-01-01T00:48:11.000Z</time>
      </trkpt>
      <trkpt lat="39.803378" lon="-8.845206">
        <ele>12.2</ele>
        <time>1970-01-01T00:48:12.000Z</time>
      </trkpt>
      <trkpt lat="39.803332" lon="-8.845175">
        <ele>12.3</ele>
        <time>1970-01-01T00:48:13.000Z</time>
      </trkpt>
      <trkpt lat="39.803287" lon="-8.845137">
        <ele>12.3</ele>
        <time>1970-01-01T00:48:14.000Z</time>
      </trkpt>
      <trkpt lat="39.803243" lon="-8.84511">
        <ele>12.3</ele>
        <time>1970-01-01T00:48:16.000Z</time>
      </trkpt>
      <trkpt lat="39.803201" lon="-8.845082">
        <ele>12.3</ele>
        <time>1970-01-01T00:48:17.000Z</time>
      </trkpt>
      <trkpt lat="39.803161" lon="-8.845054">
        <ele>12.4</ele>
        <time>1970-01-01T00:48:18.000Z</time>
      </trkpt>
      <trkpt lat="39.803125" lon="-8.845028">
        <ele>12.4</ele>
        <time>1970-01-01T00:48:19.000Z</time>
      </trkpt>
      <trkpt lat="39.803088" lon="-8.845001">
        <ele>12.4</ele>
        <time>1970-01-01T00:48:20.000Z</time>
      </trkpt>
      <trkpt lat="39.803049" lon="-8.844974">
        <ele>12.4</ele>
        <time>1970-01-01T00:48:21.000Z</time>
      </trkpt>
      <trkpt lat="39.803004" lon="-8.844949">
        <ele>12.4</ele>
        <time>1970-01-01T00:48:22.000Z</time>
      </trkpt>
      <trkpt lat="39.802962" lon="-8.844923">
        <ele>12.5</ele>
        <time>1970-01-01T00:48:23.000Z</time>
      </trkpt>
      <trkpt lat="39.802875" lon="-8.844865">
        <ele>12.5</ele>
        <time>1970-01-01T00:48:24.000Z</time>
      </trkpt>
      <trkpt lat="39.802793" lon="-8.844812">
        <ele>12.6</ele>
        <time>1970-01-01T00:48:26.000Z</time>
      </trkpt>
      <trkpt lat="39.802753" lon="-8.844789">
        <ele>12.7</ele>
        <time>1970-01-01T00:48:27.000Z</time>
      </trkpt>
      <trkpt lat="39.802712" lon="-8.844766">
        <ele>12.8</ele>
        <time>1970-01-01T00:48:28.000Z</time>
      </trkpt>
      <trkpt lat="39.80267" lon="-8.844739">
        <ele>12.8</ele>
        <time>1970-01-01T00:48:29.000Z</time>
      </trkpt>
      <trkpt lat="39.802633" lon="-8.844709">
        <ele>12.9</ele>
        <time>1970-01-01T00:48:30.000Z</time>
      </trkpt>
      <trkpt lat="39.802591" lon="-8.84468">
        <ele>12.9</ele>
        <time>1970-01-01T00:48:31.000Z</time>
      </trkpt>
      <trkpt lat="39.802555" lon="-8.844657">
        <ele>13</ele>
        <time>1970-01-01T00:48:32.000Z</time>
      </trkpt>
      <trkpt lat="39.802516" lon="-8.844633">
        <ele>13</ele>
        <time>1970-01-01T00:48:33.000Z</time>
      </trkpt>
      <trkpt lat="39.802478" lon="-8.844605">
        <ele>13.1</ele>
        <time>1970-01-01T00:48:34.000Z</time>
      </trkpt>
      <trkpt lat="39.80244" lon="-8.844581">
        <ele>13.1</ele>
        <time>1970-01-01T00:48:35.000Z</time>
      </trkpt>
      <trkpt lat="39.802405" lon="-8.844559">
        <ele>13.2</ele>
        <time>1970-01-01T00:48:36.000Z</time>
      </trkpt>
      <trkpt lat="39.802369" lon="-8.844538">
        <ele>13.2</ele>
        <time>1970-01-01T00:48:37.000Z</time>
      </trkpt>
      <trkpt lat="39.802333" lon="-8.84452">
        <ele>13.2</ele>
        <time>1970-01-01T00:48:38.000Z</time>
      </trkpt>
      <trkpt lat="39.802298" lon="-8.844496">
        <ele>13.2</ele>
        <time>1970-01-01T00:48:39.000Z</time>
      </trkpt>
      <trkpt lat="39.802258" lon="-8.844467">
        <ele>13.2</ele>
        <time>1970-01-01T00:48:40.000Z</time>
      </trkpt>
      <trkpt lat="39.802223" lon="-8.844439">
        <ele>13.3</ele>
        <time>1970-01-01T00:48:41.000Z</time>
      </trkpt>
      <trkpt lat="39.802185" lon="-8.844413">
        <ele>13.3</ele>
        <time>1970-01-01T00:48:42.000Z</time>
      </trkpt>
      <trkpt lat="39.802143" lon="-8.844394">
        <ele>13.3</ele>
        <time>1970-01-01T00:48:43.000Z</time>
      </trkpt>
      <trkpt lat="39.80211" lon="-8.844369">
        <ele>13.3</ele>
        <time>1970-01-01T00:48:44.000Z</time>
      </trkpt>
      <trkpt lat="39.802074" lon="-8.844342">
        <ele>13.3</ele>
        <time>1970-01-01T00:48:45.000Z</time>
      </trkpt>
      <trkpt lat="39.802036" lon="-8.844315">
        <ele>13.3</ele>
        <time>1970-01-01T00:48:46.000Z</time>
      </trkpt>
      <trkpt lat="39.802002" lon="-8.844284">
        <ele>13.3</ele>
        <time>1970-01-01T00:48:47.000Z</time>
      </trkpt>
      <trkpt lat="39.801961" lon="-8.844263">
        <ele>13.4</ele>
        <time>1970-01-01T00:48:48.000Z</time>
      </trkpt>
      <trkpt lat="39.801924" lon="-8.844235">
        <ele>13.4</ele>
        <time>1970-01-01T00:48:49.000Z</time>
      </trkpt>
      <trkpt lat="39.801884" lon="-8.844206">
        <ele>13.4</ele>
        <time>1970-01-01T00:48:50.000Z</time>
      </trkpt>
      <trkpt lat="39.801847" lon="-8.844186">
        <ele>13.4</ele>
        <time>1970-01-01T00:48:51.000Z</time>
      </trkpt>
      <trkpt lat="39.801813" lon="-8.844163">
        <ele>13.5</ele>
        <time>1970-01-01T00:48:52.000Z</time>
      </trkpt>
      <trkpt lat="39.801772" lon="-8.844138">
        <ele>13.5</ele>
        <time>1970-01-01T00:48:53.000Z</time>
      </trkpt>
      <trkpt lat="39.801734" lon="-8.84411">
        <ele>13.5</ele>
        <time>1970-01-01T00:48:54.000Z</time>
      </trkpt>
      <trkpt lat="39.80169" lon="-8.844085">
        <ele>13.6</ele>
        <time>1970-01-01T00:48:55.000Z</time>
      </trkpt>
      <trkpt lat="39.801651" lon="-8.844062">
        <ele>13.6</ele>
        <time>1970-01-01T00:48:56.000Z</time>
      </trkpt>
      <trkpt lat="39.801613" lon="-8.844039">
        <ele>13.6</ele>
        <time>1970-01-01T00:48:57.000Z</time>
      </trkpt>
      <trkpt lat="39.801584" lon="-8.844013">
        <ele>13.7</ele>
        <time>1970-01-01T00:48:58.000Z</time>
      </trkpt>
      <trkpt lat="39.801546" lon="-8.843987">
        <ele>13.7</ele>
        <time>1970-01-01T00:48:59.000Z</time>
      </trkpt>
      <trkpt lat="39.801507" lon="-8.843962">
        <ele>13.7</ele>
        <time>1970-01-01T00:49:00.000Z</time>
      </trkpt>
      <trkpt lat="39.801467" lon="-8.843932">
        <ele>13.8</ele>
        <time>1970-01-01T00:49:01.000Z</time>
      </trkpt>
      <trkpt lat="39.801429" lon="-8.843908">
        <ele>13.8</ele>
        <time>1970-01-01T00:49:02.000Z</time>
      </trkpt>
      <trkpt lat="39.801392" lon="-8.843889">
        <ele>13.8</ele>
        <time>1970-01-01T00:49:03.000Z</time>
      </trkpt>
      <trkpt lat="39.801359" lon="-8.843866">
        <ele>13.8</ele>
        <time>1970-01-01T00:49:04.000Z</time>
      </trkpt>
      <trkpt lat="39.801326" lon="-8.843848">
        <ele>13.8</ele>
        <time>1970-01-01T00:49:05.000Z</time>
      </trkpt>
      <trkpt lat="39.801299" lon="-8.843827">
        <ele>13.8</ele>
        <time>1970-01-01T00:49:06.000Z</time>
      </trkpt>
      <trkpt lat="39.801274" lon="-8.843799">
        <ele>13.8</ele>
        <time>1970-01-01T00:49:07.000Z</time>
      </trkpt>
      <trkpt lat="39.80125" lon="-8.843766">
        <ele>13.8</ele>
        <time>1970-01-01T00:49:08.000Z</time>
      </trkpt>
      <trkpt lat="39.801215" lon="-8.843731">
        <ele>13.8</ele>
        <time>1970-01-01T00:49:09.000Z</time>
      </trkpt>
      <trkpt lat="39.801168" lon="-8.843717">
        <ele>13.8</ele>
        <time>1970-01-01T00:49:10.000Z</time>
      </trkpt>
      <trkpt lat="39.801136" lon="-8.843692">
        <ele>13.8</ele>
        <time>1970-01-01T00:49:11.000Z</time>
      </trkpt>
      <trkpt lat="39.801085" lon="-8.843677">
        <ele>13.9</ele>
        <time>1970-01-01T00:49:12.000Z</time>
      </trkpt>
      <trkpt lat="39.801044" lon="-8.843658">
        <ele>13.9</ele>
        <time>1970-01-01T00:49:13.000Z</time>
      </trkpt>
      <trkpt lat="39.801002" lon="-8.843628">
        <ele>13.9</ele>
        <time>1970-01-01T00:49:14.000Z</time>
      </trkpt>
      <trkpt lat="39.800959" lon="-8.843594">
        <ele>14</ele>
        <time>1970-01-01T00:49:15.000Z</time>
      </trkpt>
      <trkpt lat="39.800917" lon="-8.84357">
        <ele>14</ele>
        <time>1970-01-01T00:49:16.000Z</time>
      </trkpt>
      <trkpt lat="39.800882" lon="-8.843557">
        <ele>14</ele>
        <time>1970-01-01T00:49:17.000Z</time>
      </trkpt>
      <trkpt lat="39.800843" lon="-8.84354">
        <ele>14</ele>
        <time>1970-01-01T00:49:18.000Z</time>
      </trkpt>
      <trkpt lat="39.800808" lon="-8.843515">
        <ele>14.1</ele>
        <time>1970-01-01T00:49:19.000Z</time>
      </trkpt>
      <trkpt lat="39.800779" lon="-8.843496">
        <ele>14.1</ele>
        <time>1970-01-01T00:49:20.000Z</time>
      </trkpt>
      <trkpt lat="39.800753" lon="-8.84348">
        <ele>14.1</ele>
        <time>1970-01-01T00:49:21.000Z</time>
      </trkpt>
      <trkpt lat="39.80072" lon="-8.843454">
        <ele>14.1</ele>
        <time>1970-01-01T00:49:22.000Z</time>
      </trkpt>
      <trkpt lat="39.800707" lon="-8.843447">
        <ele>14.1</ele>
        <time>1970-01-01T00:49:23.000Z</time>
      </trkpt>
      <trkpt lat="39.800676" lon="-8.843414">
        <ele>14.2</ele>
        <time>1970-01-01T00:49:24.000Z</time>
      </trkpt>
      <trkpt lat="39.800667" lon="-8.843402">
        <ele>14.2</ele>
        <time>1970-01-01T00:49:25.000Z</time>
      </trkpt>
      <trkpt lat="39.800643" lon="-8.843371">
        <ele>14.2</ele>
        <time>1970-01-01T00:49:26.000Z</time>
      </trkpt>
      <trkpt lat="39.800619" lon="-8.843345">
        <ele>14.2</ele>
        <time>1970-01-01T00:49:27.000Z</time>
      </trkpt>
      <trkpt lat="39.800588" lon="-8.84333">
        <ele>14.2</ele>
        <time>1970-01-01T00:49:28.000Z</time>
      </trkpt>
      <trkpt lat="39.800552" lon="-8.843306">
        <ele>14.2</ele>
        <time>1970-01-01T00:49:29.000Z</time>
      </trkpt>
      <trkpt lat="39.800521" lon="-8.843298">
        <ele>14.3</ele>
        <time>1970-01-01T00:49:30.000Z</time>
      </trkpt>
      <trkpt lat="39.800491" lon="-8.843283">
        <ele>14.3</ele>
        <time>1970-01-01T00:49:31.000Z</time>
      </trkpt>
      <trkpt lat="39.800452" lon="-8.843294">
        <ele>14.3</ele>
        <time>1970-01-01T00:49:32.000Z</time>
      </trkpt>
      <trkpt lat="39.800438" lon="-8.843296">
        <ele>14.3</ele>
        <time>1970-01-01T00:49:33.000Z</time>
      </trkpt>
      <trkpt lat="39.80041" lon="-8.843264">
        <ele>14.3</ele>
        <time>1970-01-01T00:49:34.000Z</time>
      </trkpt>
      <trkpt lat="39.800398" lon="-8.843253">
        <ele>14.3</ele>
        <time>1970-01-01T00:49:35.000Z</time>
      </trkpt>
      <trkpt lat="39.80037" lon="-8.843234">
        <ele>14.3</ele>
        <time>1970-01-01T00:49:36.000Z</time>
      </trkpt>
      <trkpt lat="39.80034" lon="-8.843219">
        <ele>14.3</ele>
        <time>1970-01-01T00:49:37.000Z</time>
      </trkpt>
      <trkpt lat="39.800311" lon="-8.843203">
        <ele>14.4</ele>
        <time>1970-01-01T00:49:38.000Z</time>
      </trkpt>
      <trkpt lat="39.800285" lon="-8.843186">
        <ele>14.4</ele>
        <time>1970-01-01T00:49:39.000Z</time>
      </trkpt>
      <trkpt lat="39.800261" lon="-8.843162">
        <ele>14.4</ele>
        <time>1970-01-01T00:49:40.000Z</time>
      </trkpt>
      <trkpt lat="39.800236" lon="-8.843145">
        <ele>14.4</ele>
        <time>1970-01-01T00:49:41.000Z</time>
      </trkpt>
      <trkpt lat="39.800203" lon="-8.843119">
        <ele>14.4</ele>
        <time>1970-01-01T00:49:42.000Z</time>
      </trkpt>
      <trkpt lat="39.800168" lon="-8.843097">
        <ele>14.4</ele>
        <time>1970-01-01T00:49:43.000Z</time>
      </trkpt>
      <trkpt lat="39.800132" lon="-8.843079">
        <ele>14.5</ele>
        <time>1970-01-01T00:49:44.000Z</time>
      </trkpt>
      <trkpt lat="39.800096" lon="-8.843053">
        <ele>14.5</ele>
        <time>1970-01-01T00:49:45.000Z</time>
      </trkpt>
      <trkpt lat="39.800065" lon="-8.843024">
        <ele>14.5</ele>
        <time>1970-01-01T00:49:46.000Z</time>
      </trkpt>
      <trkpt lat="39.800033" lon="-8.843003">
        <ele>14.5</ele>
        <time>1970-01-01T00:49:47.000Z</time>
      </trkpt>
      <trkpt lat="39.8" lon="-8.842994">
        <ele>14.5</ele>
        <time>1970-01-01T00:49:48.000Z</time>
      </trkpt>
      <trkpt lat="39.799975" lon="-8.842976">
        <ele>14.5</ele>
        <time>1970-01-01T00:49:49.000Z</time>
      </trkpt>
      <trkpt lat="39.799953" lon="-8.842952">
        <ele>14.5</ele>
        <time>1970-01-01T00:49:50.000Z</time>
      </trkpt>
      <trkpt lat="39.799923" lon="-8.842921">
        <ele>14.5</ele>
        <time>1970-01-01T00:49:51.000Z</time>
      </trkpt>
      <trkpt lat="39.799914" lon="-8.842909">
        <ele>14.6</ele>
        <time>1970-01-01T00:49:52.000Z</time>
      </trkpt>
      <trkpt lat="39.799879" lon="-8.842888">
        <ele>14.6</ele>
        <time>1970-01-01T00:49:53.000Z</time>
      </trkpt>
      <trkpt lat="39.799865" lon="-8.842887">
        <ele>14.6</ele>
        <time>1970-01-01T00:49:54.000Z</time>
      </trkpt>
      <trkpt lat="39.799834" lon="-8.842867">
        <ele>14.6</ele>
        <time>1970-01-01T00:49:55.000Z</time>
      </trkpt>
      <trkpt lat="39.799803" lon="-8.842841">
        <ele>14.6</ele>
        <time>1970-01-01T00:49:56.000Z</time>
      </trkpt>
      <trkpt lat="39.799766" lon="-8.842829">
        <ele>14.6</ele>
        <time>1970-01-01T00:49:57.000Z</time>
      </trkpt>
      <trkpt lat="39.799729" lon="-8.84281">
        <ele>14.6</ele>
        <time>1970-01-01T00:49:58.000Z</time>
      </trkpt>
      <trkpt lat="39.799693" lon="-8.842795">
        <ele>14.6</ele>
        <time>1970-01-01T00:49:59.000Z</time>
      </trkpt>
      <trkpt lat="39.799661" lon="-8.842776">
        <ele>14.6</ele>
        <time>1970-01-01T00:50:00.000Z</time>
      </trkpt>
      <trkpt lat="39.799634" lon="-8.842758">
        <ele>14.6</ele>
        <time>1970-01-01T00:50:01.000Z</time>
      </trkpt>
      <trkpt lat="39.799604" lon="-8.84274">
        <ele>14.6</ele>
        <time>1970-01-01T00:50:02.000Z</time>
      </trkpt>
      <trkpt lat="39.799568" lon="-8.842712">
        <ele>14.6</ele>
        <time>1970-01-01T00:50:03.000Z</time>
      </trkpt>
      <trkpt lat="39.799535" lon="-8.842682">
        <ele>14.6</ele>
        <time>1970-01-01T00:50:04.000Z</time>
      </trkpt>
      <trkpt lat="39.799494" lon="-8.842656">
        <ele>14.7</ele>
        <time>1970-01-01T00:50:05.000Z</time>
      </trkpt>
      <trkpt lat="39.799461" lon="-8.842634">
        <ele>14.7</ele>
        <time>1970-01-01T00:50:06.000Z</time>
      </trkpt>
      <trkpt lat="39.799416" lon="-8.842614">
        <ele>14.7</ele>
        <time>1970-01-01T00:50:07.000Z</time>
      </trkpt>
      <trkpt lat="39.799382" lon="-8.8426">
        <ele>14.7</ele>
        <time>1970-01-01T00:50:08.000Z</time>
      </trkpt>
      <trkpt lat="39.799348" lon="-8.842582">
        <ele>14.7</ele>
        <time>1970-01-01T00:50:09.000Z</time>
      </trkpt>
      <trkpt lat="39.799314" lon="-8.842558">
        <ele>14.7</ele>
        <time>1970-01-01T00:50:10.000Z</time>
      </trkpt>
      <trkpt lat="39.799286" lon="-8.842535">
        <ele>14.7</ele>
        <time>1970-01-01T00:50:11.000Z</time>
      </trkpt>
      <trkpt lat="39.799251" lon="-8.842513">
        <ele>14.7</ele>
        <time>1970-01-01T00:50:12.000Z</time>
      </trkpt>
      <trkpt lat="39.799224" lon="-8.842487">
        <ele>14.7</ele>
        <time>1970-01-01T00:50:13.000Z</time>
      </trkpt>
      <trkpt lat="39.799193" lon="-8.842458">
        <ele>14.8</ele>
        <time>1970-01-01T00:50:14.000Z</time>
      </trkpt>
      <trkpt lat="39.799165" lon="-8.842432">
        <ele>14.8</ele>
        <time>1970-01-01T00:50:15.000Z</time>
      </trkpt>
      <trkpt lat="39.799141" lon="-8.842401">
        <ele>14.8</ele>
        <time>1970-01-01T00:50:16.000Z</time>
      </trkpt>
      <trkpt lat="39.799107" lon="-8.842375">
        <ele>14.8</ele>
        <time>1970-01-01T00:50:17.000Z</time>
      </trkpt>
      <trkpt lat="39.799072" lon="-8.84235">
        <ele>14.8</ele>
        <time>1970-01-01T00:50:18.000Z</time>
      </trkpt>
      <trkpt lat="39.799035" lon="-8.842327">
        <ele>14.9</ele>
        <time>1970-01-01T00:50:19.000Z</time>
      </trkpt>
      <trkpt lat="39.798992" lon="-8.842318">
        <ele>14.9</ele>
        <time>1970-01-01T00:50:20.000Z</time>
      </trkpt>
      <trkpt lat="39.798945" lon="-8.842298">
        <ele>14.9</ele>
        <time>1970-01-01T00:50:22.000Z</time>
      </trkpt>
      <trkpt lat="39.798903" lon="-8.842274">
        <ele>14.9</ele>
        <time>1970-01-01T00:50:23.000Z</time>
      </trkpt>
      <trkpt lat="39.798862" lon="-8.842251">
        <ele>14.9</ele>
        <time>1970-01-01T00:50:24.000Z</time>
      </trkpt>
      <trkpt lat="39.798827" lon="-8.842224">
        <ele>14.9</ele>
        <time>1970-01-01T00:50:25.000Z</time>
      </trkpt>
      <trkpt lat="39.798789" lon="-8.842201">
        <ele>14.9</ele>
        <time>1970-01-01T00:50:26.000Z</time>
      </trkpt>
      <trkpt lat="39.798755" lon="-8.84218">
        <ele>14.9</ele>
        <time>1970-01-01T00:50:27.000Z</time>
      </trkpt>
      <trkpt lat="39.798719" lon="-8.842157">
        <ele>14.9</ele>
        <time>1970-01-01T00:50:28.000Z</time>
      </trkpt>
      <trkpt lat="39.798682" lon="-8.842142">
        <ele>14.9</ele>
        <time>1970-01-01T00:50:29.000Z</time>
      </trkpt>
      <trkpt lat="39.798644" lon="-8.842116">
        <ele>14.9</ele>
        <time>1970-01-01T00:50:30.000Z</time>
      </trkpt>
      <trkpt lat="39.798605" lon="-8.842086">
        <ele>15</ele>
        <time>1970-01-01T00:50:31.000Z</time>
      </trkpt>
      <trkpt lat="39.798567" lon="-8.842058">
        <ele>15</ele>
        <time>1970-01-01T00:50:32.000Z</time>
      </trkpt>
      <trkpt lat="39.79853" lon="-8.84203">
        <ele>15</ele>
        <time>1970-01-01T00:50:33.000Z</time>
      </trkpt>
      <trkpt lat="39.798499" lon="-8.842006">
        <ele>15</ele>
        <time>1970-01-01T00:50:34.000Z</time>
      </trkpt>
      <trkpt lat="39.798467" lon="-8.841992">
        <ele>15</ele>
        <time>1970-01-01T00:50:35.000Z</time>
      </trkpt>
      <trkpt lat="39.798433" lon="-8.841975">
        <ele>15.1</ele>
        <time>1970-01-01T00:50:36.000Z</time>
      </trkpt>
      <trkpt lat="39.798403" lon="-8.841946">
        <ele>15.1</ele>
        <time>1970-01-01T00:50:37.000Z</time>
      </trkpt>
      <trkpt lat="39.798372" lon="-8.841925">
        <ele>15.1</ele>
        <time>1970-01-01T00:50:38.000Z</time>
      </trkpt>
      <trkpt lat="39.798299" lon="-8.841887">
        <ele>15.1</ele>
        <time>1970-01-01T00:50:39.000Z</time>
      </trkpt>
      <trkpt lat="39.798265" lon="-8.841862">
        <ele>15.1</ele>
        <time>1970-01-01T00:50:40.000Z</time>
      </trkpt>
      <trkpt lat="39.798235" lon="-8.841835">
        <ele>15.1</ele>
        <time>1970-01-01T00:50:41.000Z</time>
      </trkpt>
      <trkpt lat="39.798194" lon="-8.841808">
        <ele>15.1</ele>
        <time>1970-01-01T00:50:42.000Z</time>
      </trkpt>
      <trkpt lat="39.798157" lon="-8.841773">
        <ele>15.2</ele>
        <time>1970-01-01T00:50:43.000Z</time>
      </trkpt>
      <trkpt lat="39.79812" lon="-8.841752">
        <ele>15.2</ele>
        <time>1970-01-01T00:50:44.000Z</time>
      </trkpt>
      <trkpt lat="39.798085" lon="-8.84173">
        <ele>15.2</ele>
        <time>1970-01-01T00:50:45.000Z</time>
      </trkpt>
      <trkpt lat="39.79805" lon="-8.84171">
        <ele>15.2</ele>
        <time>1970-01-01T00:50:46.000Z</time>
      </trkpt>
      <trkpt lat="39.798026" lon="-8.841693">
        <ele>15.2</ele>
        <time>1970-01-01T00:50:47.000Z</time>
      </trkpt>
      <trkpt lat="39.797981" lon="-8.841669">
        <ele>15.2</ele>
        <time>1970-01-01T00:50:48.000Z</time>
      </trkpt>
      <trkpt lat="39.79794" lon="-8.841642">
        <ele>15.2</ele>
        <time>1970-01-01T00:50:49.000Z</time>
      </trkpt>
      <trkpt lat="39.797898" lon="-8.841615">
        <ele>15.2</ele>
        <time>1970-01-01T00:50:50.000Z</time>
      </trkpt>
      <trkpt lat="39.797856" lon="-8.841582">
        <ele>15.2</ele>
        <time>1970-01-01T00:50:51.000Z</time>
      </trkpt>
      <trkpt lat="39.797816" lon="-8.841552">
        <ele>15.2</ele>
        <time>1970-01-01T00:50:52.000Z</time>
      </trkpt>
      <trkpt lat="39.79777" lon="-8.841529">
        <ele>15.2</ele>
        <time>1970-01-01T00:50:53.000Z</time>
      </trkpt>
      <trkpt lat="39.797729" lon="-8.841513">
        <ele>15.2</ele>
        <time>1970-01-01T00:50:54.000Z</time>
      </trkpt>
      <trkpt lat="39.797691" lon="-8.841474">
        <ele>15.2</ele>
        <time>1970-01-01T00:50:55.000Z</time>
      </trkpt>
      <trkpt lat="39.79765" lon="-8.841446">
        <ele>15.2</ele>
        <time>1970-01-01T00:50:56.000Z</time>
      </trkpt>
      <trkpt lat="39.797605" lon="-8.841424">
        <ele>15.2</ele>
        <time>1970-01-01T00:50:57.000Z</time>
      </trkpt>
      <trkpt lat="39.797563" lon="-8.8414">
        <ele>15.2</ele>
        <time>1970-01-01T00:50:58.000Z</time>
      </trkpt>
      <trkpt lat="39.797529" lon="-8.841386">
        <ele>15.2</ele>
        <time>1970-01-01T00:50:59.000Z</time>
      </trkpt>
      <trkpt lat="39.797485" lon="-8.841356">
        <ele>15.2</ele>
        <time>1970-01-01T00:51:00.000Z</time>
      </trkpt>
      <trkpt lat="39.797455" lon="-8.841329">
        <ele>15.2</ele>
        <time>1970-01-01T00:51:01.000Z</time>
      </trkpt>
      <trkpt lat="39.79742" lon="-8.841303">
        <ele>15.2</ele>
        <time>1970-01-01T00:51:02.000Z</time>
      </trkpt>
      <trkpt lat="39.79738" lon="-8.841276">
        <ele>15.2</ele>
        <time>1970-01-01T00:51:03.000Z</time>
      </trkpt>
      <trkpt lat="39.79734" lon="-8.841257">
        <ele>15.2</ele>
        <time>1970-01-01T00:51:04.000Z</time>
      </trkpt>
      <trkpt lat="39.797304" lon="-8.84123">
        <ele>15.3</ele>
        <time>1970-01-01T00:51:05.000Z</time>
      </trkpt>
      <trkpt lat="39.797266" lon="-8.841209">
        <ele>15.3</ele>
        <time>1970-01-01T00:51:06.000Z</time>
      </trkpt>
      <trkpt lat="39.797226" lon="-8.841182">
        <ele>15.3</ele>
        <time>1970-01-01T00:51:07.000Z</time>
      </trkpt>
      <trkpt lat="39.797184" lon="-8.841156">
        <ele>15.3</ele>
        <time>1970-01-01T00:51:08.000Z</time>
      </trkpt>
      <trkpt lat="39.797143" lon="-8.84113">
        <ele>15.3</ele>
        <time>1970-01-01T00:51:09.000Z</time>
      </trkpt>
      <trkpt lat="39.797103" lon="-8.84111">
        <ele>15.3</ele>
        <time>1970-01-01T00:51:10.000Z</time>
      </trkpt>
      <trkpt lat="39.797069" lon="-8.841089">
        <ele>15.4</ele>
        <time>1970-01-01T00:51:11.000Z</time>
      </trkpt>
      <trkpt lat="39.797033" lon="-8.841067">
        <ele>15.4</ele>
        <time>1970-01-01T00:51:12.000Z</time>
      </trkpt>
      <trkpt lat="39.796993" lon="-8.841046">
        <ele>15.4</ele>
        <time>1970-01-01T00:51:13.000Z</time>
      </trkpt>
      <trkpt lat="39.796956" lon="-8.84102">
        <ele>15.5</ele>
        <time>1970-01-01T00:51:14.000Z</time>
      </trkpt>
      <trkpt lat="39.796914" lon="-8.840993">
        <ele>15.5</ele>
        <time>1970-01-01T00:51:15.000Z</time>
      </trkpt>
      <trkpt lat="39.79687" lon="-8.840982">
        <ele>15.5</ele>
        <time>1970-01-01T00:51:16.000Z</time>
      </trkpt>
      <trkpt lat="39.796825" lon="-8.840944">
        <ele>15.5</ele>
        <time>1970-01-01T00:51:17.000Z</time>
      </trkpt>
      <trkpt lat="39.796781" lon="-8.840917">
        <ele>15.6</ele>
        <time>1970-01-01T00:51:18.000Z</time>
      </trkpt>
      <trkpt lat="39.796738" lon="-8.84089">
        <ele>15.6</ele>
        <time>1970-01-01T00:51:19.000Z</time>
      </trkpt>
      <trkpt lat="39.796701" lon="-8.840857">
        <ele>15.6</ele>
        <time>1970-01-01T00:51:20.000Z</time>
      </trkpt>
      <trkpt lat="39.796669" lon="-8.840823">
        <ele>15.6</ele>
        <time>1970-01-01T00:51:21.000Z</time>
      </trkpt>
      <trkpt lat="39.796635" lon="-8.840793">
        <ele>15.6</ele>
        <time>1970-01-01T00:51:22.000Z</time>
      </trkpt>
      <trkpt lat="39.796601" lon="-8.840752">
        <ele>15.6</ele>
        <time>1970-01-01T00:51:23.000Z</time>
      </trkpt>
      <trkpt lat="39.796559" lon="-8.840737">
        <ele>15.6</ele>
        <time>1970-01-01T00:51:24.000Z</time>
      </trkpt>
      <trkpt lat="39.796513" lon="-8.840728">
        <ele>15.5</ele>
        <time>1970-01-01T00:51:25.000Z</time>
      </trkpt>
      <trkpt lat="39.796466" lon="-8.840718">
        <ele>15.5</ele>
        <time>1970-01-01T00:51:26.000Z</time>
      </trkpt>
      <trkpt lat="39.796425" lon="-8.840699">
        <ele>15.5</ele>
        <time>1970-01-01T00:51:27.000Z</time>
      </trkpt>
      <trkpt lat="39.796375" lon="-8.840672">
        <ele>15.5</ele>
        <time>1970-01-01T00:51:28.000Z</time>
      </trkpt>
      <trkpt lat="39.796329" lon="-8.840633">
        <ele>15.5</ele>
        <time>1970-01-01T00:51:29.000Z</time>
      </trkpt>
      <trkpt lat="39.796279" lon="-8.840599">
        <ele>15.4</ele>
        <time>1970-01-01T00:51:30.000Z</time>
      </trkpt>
      <trkpt lat="39.796229" lon="-8.840573">
        <ele>15.4</ele>
        <time>1970-01-01T00:51:31.000Z</time>
      </trkpt>
      <trkpt lat="39.796178" lon="-8.840544">
        <ele>15.4</ele>
        <time>1970-01-01T00:51:32.000Z</time>
      </trkpt>
      <trkpt lat="39.796127" lon="-8.840517">
        <ele>15.4</ele>
        <time>1970-01-01T00:51:33.000Z</time>
      </trkpt>
      <trkpt lat="39.79608" lon="-8.840483">
        <ele>15.4</ele>
        <time>1970-01-01T00:51:34.000Z</time>
      </trkpt>
      <trkpt lat="39.796033" lon="-8.84046">
        <ele>15.3</ele>
        <time>1970-01-01T00:51:35.000Z</time>
      </trkpt>
      <trkpt lat="39.795989" lon="-8.840433">
        <ele>15.3</ele>
        <time>1970-01-01T00:51:36.000Z</time>
      </trkpt>
      <trkpt lat="39.795944" lon="-8.840412">
        <ele>15.3</ele>
        <time>1970-01-01T00:51:37.000Z</time>
      </trkpt>
      <trkpt lat="39.795899" lon="-8.840388">
        <ele>15.3</ele>
        <time>1970-01-01T00:51:38.000Z</time>
      </trkpt>
      <trkpt lat="39.795862" lon="-8.840362">
        <ele>15.3</ele>
        <time>1970-01-01T00:51:39.000Z</time>
      </trkpt>
      <trkpt lat="39.795818" lon="-8.840345">
        <ele>15.3</ele>
        <time>1970-01-01T00:51:40.000Z</time>
      </trkpt>
      <trkpt lat="39.795781" lon="-8.840303">
        <ele>15.3</ele>
        <time>1970-01-01T00:51:41.000Z</time>
      </trkpt>
      <trkpt lat="39.795742" lon="-8.840271">
        <ele>15.3</ele>
        <time>1970-01-01T00:51:42.000Z</time>
      </trkpt>
      <trkpt lat="39.795702" lon="-8.840243">
        <ele>15.3</ele>
        <time>1970-01-01T00:51:43.000Z</time>
      </trkpt>
      <trkpt lat="39.795652" lon="-8.840227">
        <ele>15.3</ele>
        <time>1970-01-01T00:51:44.000Z</time>
      </trkpt>
      <trkpt lat="39.795608" lon="-8.840199">
        <ele>15.3</ele>
        <time>1970-01-01T00:51:45.000Z</time>
      </trkpt>
      <trkpt lat="39.795558" lon="-8.840162">
        <ele>15.2</ele>
        <time>1970-01-01T00:51:46.000Z</time>
      </trkpt>
      <trkpt lat="39.795508" lon="-8.840139">
        <ele>15.2</ele>
        <time>1970-01-01T00:51:47.000Z</time>
      </trkpt>
      <trkpt lat="39.795451" lon="-8.840124">
        <ele>15.2</ele>
        <time>1970-01-01T00:51:48.000Z</time>
      </trkpt>
      <trkpt lat="39.795396" lon="-8.840106">
        <ele>15.2</ele>
        <time>1970-01-01T00:51:49.000Z</time>
      </trkpt>
      <trkpt lat="39.795342" lon="-8.840078">
        <ele>15.2</ele>
        <time>1970-01-01T00:51:50.000Z</time>
      </trkpt>
      <trkpt lat="39.795286" lon="-8.840041">
        <ele>15.2</ele>
        <time>1970-01-01T00:51:51.000Z</time>
      </trkpt>
      <trkpt lat="39.795239" lon="-8.840024">
        <ele>15.2</ele>
        <time>1970-01-01T00:51:52.000Z</time>
      </trkpt>
      <trkpt lat="39.795202" lon="-8.840004">
        <ele>15.2</ele>
        <time>1970-01-01T00:51:53.000Z</time>
      </trkpt>
      <trkpt lat="39.79516" lon="-8.839977">
        <ele>15.2</ele>
        <time>1970-01-01T00:51:54.000Z</time>
      </trkpt>
      <trkpt lat="39.795122" lon="-8.839945">
        <ele>15.2</ele>
        <time>1970-01-01T00:51:55.000Z</time>
      </trkpt>
      <trkpt lat="39.795085" lon="-8.839914">
        <ele>15.2</ele>
        <time>1970-01-01T00:51:56.000Z</time>
      </trkpt>
      <trkpt lat="39.795042" lon="-8.83989">
        <ele>15.2</ele>
        <time>1970-01-01T00:51:57.000Z</time>
      </trkpt>
      <trkpt lat="39.794995" lon="-8.839863">
        <ele>15.2</ele>
        <time>1970-01-01T00:51:58.000Z</time>
      </trkpt>
      <trkpt lat="39.79494" lon="-8.839847">
        <ele>15.2</ele>
        <time>1970-01-01T00:51:59.000Z</time>
      </trkpt>
      <trkpt lat="39.794884" lon="-8.839823">
        <ele>15.2</ele>
        <time>1970-01-01T00:52:00.000Z</time>
      </trkpt>
      <trkpt lat="39.794832" lon="-8.839792">
        <ele>15.2</ele>
        <time>1970-01-01T00:52:01.000Z</time>
      </trkpt>
      <trkpt lat="39.794776" lon="-8.839763">
        <ele>15.2</ele>
        <time>1970-01-01T00:52:02.000Z</time>
      </trkpt>
      <trkpt lat="39.794719" lon="-8.839738">
        <ele>15.2</ele>
        <time>1970-01-01T00:52:03.000Z</time>
      </trkpt>
      <trkpt lat="39.794662" lon="-8.83971">
        <ele>15.2</ele>
        <time>1970-01-01T00:52:04.000Z</time>
      </trkpt>
      <trkpt lat="39.794611" lon="-8.839683">
        <ele>15.3</ele>
        <time>1970-01-01T00:52:05.000Z</time>
      </trkpt>
      <trkpt lat="39.794562" lon="-8.839661">
        <ele>15.3</ele>
        <time>1970-01-01T00:52:06.000Z</time>
      </trkpt>
      <trkpt lat="39.794511" lon="-8.839638">
        <ele>15.3</ele>
        <time>1970-01-01T00:52:07.000Z</time>
      </trkpt>
      <trkpt lat="39.794465" lon="-8.839613">
        <ele>15.3</ele>
        <time>1970-01-01T00:52:08.000Z</time>
      </trkpt>
      <trkpt lat="39.794423" lon="-8.839589">
        <ele>15.3</ele>
        <time>1970-01-01T00:52:09.000Z</time>
      </trkpt>
      <trkpt lat="39.794382" lon="-8.839559">
        <ele>15.3</ele>
        <time>1970-01-01T00:52:10.000Z</time>
      </trkpt>
      <trkpt lat="39.794341" lon="-8.839534">
        <ele>15.3</ele>
        <time>1970-01-01T00:52:11.000Z</time>
      </trkpt>
      <trkpt lat="39.794297" lon="-8.839516">
        <ele>15.3</ele>
        <time>1970-01-01T00:52:12.000Z</time>
      </trkpt>
      <trkpt lat="39.794256" lon="-8.839494">
        <ele>15.3</ele>
        <time>1970-01-01T00:52:13.000Z</time>
      </trkpt>
      <trkpt lat="39.794217" lon="-8.839471">
        <ele>15.3</ele>
        <time>1970-01-01T00:52:14.000Z</time>
      </trkpt>
      <trkpt lat="39.79418" lon="-8.839456">
        <ele>15.3</ele>
        <time>1970-01-01T00:52:15.000Z</time>
      </trkpt>
      <trkpt lat="39.794132" lon="-8.839429">
        <ele>15.4</ele>
        <time>1970-01-01T00:52:16.000Z</time>
      </trkpt>
      <trkpt lat="39.794093" lon="-8.839399">
        <ele>15.4</ele>
        <time>1970-01-01T00:52:17.000Z</time>
      </trkpt>
      <trkpt lat="39.79405" lon="-8.839377">
        <ele>15.4</ele>
        <time>1970-01-01T00:52:18.000Z</time>
      </trkpt>
      <trkpt lat="39.794004" lon="-8.83935">
        <ele>15.4</ele>
        <time>1970-01-01T00:52:19.000Z</time>
      </trkpt>
      <trkpt lat="39.793954" lon="-8.839333">
        <ele>15.4</ele>
        <time>1970-01-01T00:52:20.000Z</time>
      </trkpt>
      <trkpt lat="39.793911" lon="-8.839307">
        <ele>15.5</ele>
        <time>1970-01-01T00:52:21.000Z</time>
      </trkpt>
      <trkpt lat="39.793871" lon="-8.839284">
        <ele>15.5</ele>
        <time>1970-01-01T00:52:22.000Z</time>
      </trkpt>
      <trkpt lat="39.793825" lon="-8.839268">
        <ele>15.5</ele>
        <time>1970-01-01T00:52:23.000Z</time>
      </trkpt>
      <trkpt lat="39.793781" lon="-8.839252">
        <ele>15.5</ele>
        <time>1970-01-01T00:52:24.000Z</time>
      </trkpt>
      <trkpt lat="39.793736" lon="-8.839226">
        <ele>15.5</ele>
        <time>1970-01-01T00:52:25.000Z</time>
      </trkpt>
      <trkpt lat="39.793689" lon="-8.839204">
        <ele>15.5</ele>
        <time>1970-01-01T00:52:26.000Z</time>
      </trkpt>
      <trkpt lat="39.793636" lon="-8.839181">
        <ele>15.5</ele>
        <time>1970-01-01T00:52:28.000Z</time>
      </trkpt>
      <trkpt lat="39.793581" lon="-8.839151">
        <ele>15.5</ele>
        <time>1970-01-01T00:52:29.000Z</time>
      </trkpt>
      <trkpt lat="39.793527" lon="-8.839125">
        <ele>15.6</ele>
        <time>1970-01-01T00:52:30.000Z</time>
      </trkpt>
      <trkpt lat="39.793474" lon="-8.839091">
        <ele>15.6</ele>
        <time>1970-01-01T00:52:31.000Z</time>
      </trkpt>
      <trkpt lat="39.793423" lon="-8.839065">
        <ele>15.6</ele>
        <time>1970-01-01T00:52:32.000Z</time>
      </trkpt>
      <trkpt lat="39.793374" lon="-8.839044">
        <ele>15.6</ele>
        <time>1970-01-01T00:52:33.000Z</time>
      </trkpt>
      <trkpt lat="39.793329" lon="-8.839029">
        <ele>15.6</ele>
        <time>1970-01-01T00:52:34.000Z</time>
      </trkpt>
      <trkpt lat="39.793286" lon="-8.839003">
        <ele>15.6</ele>
        <time>1970-01-01T00:52:35.000Z</time>
      </trkpt>
      <trkpt lat="39.793242" lon="-8.838986">
        <ele>15.6</ele>
        <time>1970-01-01T00:52:36.000Z</time>
      </trkpt>
      <trkpt lat="39.793199" lon="-8.838962">
        <ele>15.7</ele>
        <time>1970-01-01T00:52:37.000Z</time>
      </trkpt>
      <trkpt lat="39.793156" lon="-8.838935">
        <ele>15.7</ele>
        <time>1970-01-01T00:52:38.000Z</time>
      </trkpt>
      <trkpt lat="39.79311" lon="-8.838922">
        <ele>15.7</ele>
        <time>1970-01-01T00:52:39.000Z</time>
      </trkpt>
      <trkpt lat="39.793057" lon="-8.838894">
        <ele>15.7</ele>
        <time>1970-01-01T00:52:40.000Z</time>
      </trkpt>
      <trkpt lat="39.793008" lon="-8.838872">
        <ele>15.7</ele>
        <time>1970-01-01T00:52:41.000Z</time>
      </trkpt>
      <trkpt lat="39.792966" lon="-8.83884">
        <ele>15.7</ele>
        <time>1970-01-01T00:52:42.000Z</time>
      </trkpt>
      <trkpt lat="39.792923" lon="-8.8388">
        <ele>15.8</ele>
        <time>1970-01-01T00:52:43.000Z</time>
      </trkpt>
      <trkpt lat="39.792884" lon="-8.838776">
        <ele>15.8</ele>
        <time>1970-01-01T00:52:44.000Z</time>
      </trkpt>
      <trkpt lat="39.79283" lon="-8.83877">
        <ele>15.8</ele>
        <time>1970-01-01T00:52:45.000Z</time>
      </trkpt>
      <trkpt lat="39.79278" lon="-8.838755">
        <ele>15.8</ele>
        <time>1970-01-01T00:52:46.000Z</time>
      </trkpt>
      <trkpt lat="39.792733" lon="-8.838738">
        <ele>15.9</ele>
        <time>1970-01-01T00:52:47.000Z</time>
      </trkpt>
      <trkpt lat="39.792689" lon="-8.838716">
        <ele>15.9</ele>
        <time>1970-01-01T00:52:48.000Z</time>
      </trkpt>
      <trkpt lat="39.792639" lon="-8.838685">
        <ele>15.9</ele>
        <time>1970-01-01T00:52:49.000Z</time>
      </trkpt>
      <trkpt lat="39.79259" lon="-8.838657">
        <ele>15.9</ele>
        <time>1970-01-01T00:52:50.000Z</time>
      </trkpt>
      <trkpt lat="39.792538" lon="-8.838623">
        <ele>15.9</ele>
        <time>1970-01-01T00:52:51.000Z</time>
      </trkpt>
      <trkpt lat="39.79248" lon="-8.838599">
        <ele>15.9</ele>
        <time>1970-01-01T00:52:52.000Z</time>
      </trkpt>
      <trkpt lat="39.792429" lon="-8.838573">
        <ele>15.9</ele>
        <time>1970-01-01T00:52:53.000Z</time>
      </trkpt>
      <trkpt lat="39.792341" lon="-8.838519">
        <ele>15.9</ele>
        <time>1970-01-01T00:52:54.000Z</time>
      </trkpt>
      <trkpt lat="39.792299" lon="-8.838487">
        <ele>15.9</ele>
        <time>1970-01-01T00:52:55.000Z</time>
      </trkpt>
      <trkpt lat="39.792257" lon="-8.838451">
        <ele>15.9</ele>
        <time>1970-01-01T00:52:56.000Z</time>
      </trkpt>
      <trkpt lat="39.792212" lon="-8.838423">
        <ele>15.9</ele>
        <time>1970-01-01T00:52:57.000Z</time>
      </trkpt>
      <trkpt lat="39.792167" lon="-8.838402">
        <ele>15.9</ele>
        <time>1970-01-01T00:52:58.000Z</time>
      </trkpt>
      <trkpt lat="39.792115" lon="-8.838384">
        <ele>15.9</ele>
        <time>1970-01-01T00:52:59.000Z</time>
      </trkpt>
      <trkpt lat="39.792062" lon="-8.83836">
        <ele>15.9</ele>
        <time>1970-01-01T00:53:00.000Z</time>
      </trkpt>
      <trkpt lat="39.792009" lon="-8.838342">
        <ele>15.9</ele>
        <time>1970-01-01T00:53:01.000Z</time>
      </trkpt>
      <trkpt lat="39.791953" lon="-8.838335">
        <ele>15.9</ele>
        <time>1970-01-01T00:53:02.000Z</time>
      </trkpt>
      <trkpt lat="39.7919" lon="-8.838321">
        <ele>16</ele>
        <time>1970-01-01T00:53:03.000Z</time>
      </trkpt>
      <trkpt lat="39.791841" lon="-8.838295">
        <ele>16</ele>
        <time>1970-01-01T00:53:04.000Z</time>
      </trkpt>
      <trkpt lat="39.791792" lon="-8.838261">
        <ele>16</ele>
        <time>1970-01-01T00:53:05.000Z</time>
      </trkpt>
      <trkpt lat="39.791745" lon="-8.838234">
        <ele>16</ele>
        <time>1970-01-01T00:53:06.000Z</time>
      </trkpt>
      <trkpt lat="39.791697" lon="-8.838214">
        <ele>16</ele>
        <time>1970-01-01T00:53:07.000Z</time>
      </trkpt>
      <trkpt lat="39.791652" lon="-8.838197">
        <ele>16</ele>
        <time>1970-01-01T00:53:08.000Z</time>
      </trkpt>
      <trkpt lat="39.791612" lon="-8.838177">
        <ele>16</ele>
        <time>1970-01-01T00:53:09.000Z</time>
      </trkpt>
      <trkpt lat="39.791572" lon="-8.838159">
        <ele>16.1</ele>
        <time>1970-01-01T00:53:10.000Z</time>
      </trkpt>
      <trkpt lat="39.791533" lon="-8.838142">
        <ele>16.1</ele>
        <time>1970-01-01T00:53:11.000Z</time>
      </trkpt>
      <trkpt lat="39.791495" lon="-8.838119">
        <ele>16.1</ele>
        <time>1970-01-01T00:53:12.000Z</time>
      </trkpt>
      <trkpt lat="39.791458" lon="-8.838092">
        <ele>16.1</ele>
        <time>1970-01-01T00:53:13.000Z</time>
      </trkpt>
      <trkpt lat="39.791413" lon="-8.838077">
        <ele>16.1</ele>
        <time>1970-01-01T00:53:14.000Z</time>
      </trkpt>
      <trkpt lat="39.791366" lon="-8.838051">
        <ele>16.1</ele>
        <time>1970-01-01T00:53:15.000Z</time>
      </trkpt>
      <trkpt lat="39.791318" lon="-8.838034">
        <ele>16.1</ele>
        <time>1970-01-01T00:53:16.000Z</time>
      </trkpt>
      <trkpt lat="39.79127" lon="-8.838013">
        <ele>16.1</ele>
        <time>1970-01-01T00:53:17.000Z</time>
      </trkpt>
      <trkpt lat="39.791229" lon="-8.838">
        <ele>16.2</ele>
        <time>1970-01-01T00:53:18.000Z</time>
      </trkpt>
      <trkpt lat="39.791184" lon="-8.837975">
        <ele>16.2</ele>
        <time>1970-01-01T00:53:19.000Z</time>
      </trkpt>
      <trkpt lat="39.791147" lon="-8.837956">
        <ele>16.2</ele>
        <time>1970-01-01T00:53:20.000Z</time>
      </trkpt>
      <trkpt lat="39.791101" lon="-8.837937">
        <ele>16.2</ele>
        <time>1970-01-01T00:53:21.000Z</time>
      </trkpt>
      <trkpt lat="39.791057" lon="-8.837917">
        <ele>16.3</ele>
        <time>1970-01-01T00:53:22.000Z</time>
      </trkpt>
      <trkpt lat="39.791013" lon="-8.837897">
        <ele>16.3</ele>
        <time>1970-01-01T00:53:23.000Z</time>
      </trkpt>
      <trkpt lat="39.790971" lon="-8.837878">
        <ele>16.3</ele>
        <time>1970-01-01T00:53:24.000Z</time>
      </trkpt>
      <trkpt lat="39.790928" lon="-8.837857">
        <ele>16.4</ele>
        <time>1970-01-01T00:53:25.000Z</time>
      </trkpt>
      <trkpt lat="39.790891" lon="-8.837838">
        <ele>16.4</ele>
        <time>1970-01-01T00:53:26.000Z</time>
      </trkpt>
      <trkpt lat="39.790853" lon="-8.83782">
        <ele>16.4</ele>
        <time>1970-01-01T00:53:27.000Z</time>
      </trkpt>
      <trkpt lat="39.790816" lon="-8.837797">
        <ele>16.4</ele>
        <time>1970-01-01T00:53:28.000Z</time>
      </trkpt>
      <trkpt lat="39.790775" lon="-8.837776">
        <ele>16.4</ele>
        <time>1970-01-01T00:53:29.000Z</time>
      </trkpt>
      <trkpt lat="39.790736" lon="-8.837756">
        <ele>16.4</ele>
        <time>1970-01-01T00:53:30.000Z</time>
      </trkpt>
      <trkpt lat="39.790695" lon="-8.837739">
        <ele>16.5</ele>
        <time>1970-01-01T00:53:31.000Z</time>
      </trkpt>
      <trkpt lat="39.790662" lon="-8.837714">
        <ele>16.5</ele>
        <time>1970-01-01T00:53:32.000Z</time>
      </trkpt>
      <trkpt lat="39.790618" lon="-8.837719">
        <ele>16.5</ele>
        <time>1970-01-01T00:53:33.000Z</time>
      </trkpt>
      <trkpt lat="39.790582" lon="-8.837688">
        <ele>16.5</ele>
        <time>1970-01-01T00:53:34.000Z</time>
      </trkpt>
      <trkpt lat="39.790546" lon="-8.837664">
        <ele>16.5</ele>
        <time>1970-01-01T00:53:35.000Z</time>
      </trkpt>
      <trkpt lat="39.790504" lon="-8.837642">
        <ele>16.5</ele>
        <time>1970-01-01T00:53:36.000Z</time>
      </trkpt>
      <trkpt lat="39.790466" lon="-8.837627">
        <ele>16.6</ele>
        <time>1970-01-01T00:53:37.000Z</time>
      </trkpt>
      <trkpt lat="39.790421" lon="-8.837609">
        <ele>16.6</ele>
        <time>1970-01-01T00:53:38.000Z</time>
      </trkpt>
      <trkpt lat="39.790381" lon="-8.837593">
        <ele>16.6</ele>
        <time>1970-01-01T00:53:39.000Z</time>
      </trkpt>
      <trkpt lat="39.790347" lon="-8.837576">
        <ele>16.6</ele>
        <time>1970-01-01T00:53:40.000Z</time>
      </trkpt>
      <trkpt lat="39.790309" lon="-8.837556">
        <ele>16.6</ele>
        <time>1970-01-01T00:53:41.000Z</time>
      </trkpt>
      <trkpt lat="39.790272" lon="-8.837537">
        <ele>16.6</ele>
        <time>1970-01-01T00:53:42.000Z</time>
      </trkpt>
      <trkpt lat="39.790236" lon="-8.837517">
        <ele>16.6</ele>
        <time>1970-01-01T00:53:43.000Z</time>
      </trkpt>
      <trkpt lat="39.790197" lon="-8.8375">
        <ele>16.6</ele>
        <time>1970-01-01T00:53:44.000Z</time>
      </trkpt>
      <trkpt lat="39.790163" lon="-8.837488">
        <ele>16.6</ele>
        <time>1970-01-01T00:53:45.000Z</time>
      </trkpt>
      <trkpt lat="39.790126" lon="-8.837471">
        <ele>16.6</ele>
        <time>1970-01-01T00:53:46.000Z</time>
      </trkpt>
      <trkpt lat="39.790088" lon="-8.837456">
        <ele>16.7</ele>
        <time>1970-01-01T00:53:47.000Z</time>
      </trkpt>
      <trkpt lat="39.790049" lon="-8.837437">
        <ele>16.7</ele>
        <time>1970-01-01T00:53:48.000Z</time>
      </trkpt>
      <trkpt lat="39.790011" lon="-8.837419">
        <ele>16.8</ele>
        <time>1970-01-01T00:53:49.000Z</time>
      </trkpt>
      <trkpt lat="39.789974" lon="-8.837401">
        <ele>16.8</ele>
        <time>1970-01-01T00:53:50.000Z</time>
      </trkpt>
      <trkpt lat="39.789937" lon="-8.837382">
        <ele>16.8</ele>
        <time>1970-01-01T00:53:51.000Z</time>
      </trkpt>
      <trkpt lat="39.789903" lon="-8.837363">
        <ele>16.9</ele>
        <time>1970-01-01T00:53:52.000Z</time>
      </trkpt>
      <trkpt lat="39.789868" lon="-8.837348">
        <ele>16.9</ele>
        <time>1970-01-01T00:53:53.000Z</time>
      </trkpt>
      <trkpt lat="39.789843" lon="-8.837325">
        <ele>17</ele>
        <time>1970-01-01T00:53:54.000Z</time>
      </trkpt>
      <trkpt lat="39.789815" lon="-8.837307">
        <ele>17</ele>
        <time>1970-01-01T00:53:55.000Z</time>
      </trkpt>
      <trkpt lat="39.789791" lon="-8.837283">
        <ele>17</ele>
        <time>1970-01-01T00:53:56.000Z</time>
      </trkpt>
      <trkpt lat="39.78976" lon="-8.837273">
        <ele>17.1</ele>
        <time>1970-01-01T00:53:57.000Z</time>
      </trkpt>
      <trkpt lat="39.789728" lon="-8.837262">
        <ele>17.1</ele>
        <time>1970-01-01T00:53:58.000Z</time>
      </trkpt>
      <trkpt lat="39.789689" lon="-8.837265">
        <ele>17.2</ele>
        <time>1970-01-01T00:53:59.000Z</time>
      </trkpt>
      <trkpt lat="39.789652" lon="-8.837255">
        <ele>17.2</ele>
        <time>1970-01-01T00:54:00.000Z</time>
      </trkpt>
      <trkpt lat="39.789617" lon="-8.837236">
        <ele>17.2</ele>
        <time>1970-01-01T00:54:01.000Z</time>
      </trkpt>
      <trkpt lat="39.789583" lon="-8.837229">
        <ele>17.3</ele>
        <time>1970-01-01T00:54:02.000Z</time>
      </trkpt>
      <trkpt lat="39.789544" lon="-8.837212">
        <ele>17.4</ele>
        <time>1970-01-01T00:54:03.000Z</time>
      </trkpt>
      <trkpt lat="39.789514" lon="-8.837203">
        <ele>17.4</ele>
        <time>1970-01-01T00:54:04.000Z</time>
      </trkpt>
      <trkpt lat="39.789481" lon="-8.837204">
        <ele>17.5</ele>
        <time>1970-01-01T00:54:05.000Z</time>
      </trkpt>
      <trkpt lat="39.789446" lon="-8.837197">
        <ele>17.5</ele>
        <time>1970-01-01T00:54:06.000Z</time>
      </trkpt>
      <trkpt lat="39.789409" lon="-8.837191">
        <ele>17.6</ele>
        <time>1970-01-01T00:54:07.000Z</time>
      </trkpt>
      <trkpt lat="39.789374" lon="-8.837189">
        <ele>17.7</ele>
        <time>1970-01-01T00:54:08.000Z</time>
      </trkpt>
      <trkpt lat="39.789335" lon="-8.837185">
        <ele>17.8</ele>
        <time>1970-01-01T00:54:09.000Z</time>
      </trkpt>
      <trkpt lat="39.789303" lon="-8.837185">
        <ele>17.9</ele>
        <time>1970-01-01T00:54:10.000Z</time>
      </trkpt>
      <trkpt lat="39.78927" lon="-8.837185">
        <ele>18</ele>
        <time>1970-01-01T00:54:11.000Z</time>
      </trkpt>
      <trkpt lat="39.789237" lon="-8.837189">
        <ele>18.1</ele>
        <time>1970-01-01T00:54:12.000Z</time>
      </trkpt>
      <trkpt lat="39.789227" lon="-8.837192">
        <ele>18.1</ele>
        <time>1970-01-01T00:54:13.000Z</time>
      </trkpt>
      <trkpt lat="39.789197" lon="-8.837193">
        <ele>18.2</ele>
        <time>1970-01-01T00:54:14.000Z</time>
      </trkpt>
      <trkpt lat="39.789185" lon="-8.837195">
        <ele>18.2</ele>
        <time>1970-01-01T00:54:15.000Z</time>
      </trkpt>
      <trkpt lat="39.789165" lon="-8.837197">
        <ele>18.3</ele>
        <time>1970-01-01T00:54:16.000Z</time>
      </trkpt>
      <trkpt lat="39.789154" lon="-8.837197">
        <ele>18.3</ele>
        <time>1970-01-01T00:54:17.000Z</time>
      </trkpt>
      <trkpt lat="39.789144" lon="-8.837198">
        <ele>18.3</ele>
        <time>1970-01-01T00:54:18.000Z</time>
      </trkpt>
      <trkpt lat="39.789107" lon="-8.837199">
        <ele>18.2</ele>
        <time>1970-01-01T00:54:19.000Z</time>
      </trkpt>
      <trkpt lat="39.789092" lon="-8.837198">
        <ele>18.1</ele>
        <time>1970-01-01T00:54:20.000Z</time>
      </trkpt>
      <trkpt lat="39.789059" lon="-8.837186">
        <ele>18</ele>
        <time>1970-01-01T00:54:21.000Z</time>
      </trkpt>
      <trkpt lat="39.789029" lon="-8.83716">
        <ele>17.9</ele>
        <time>1970-01-01T00:54:22.000Z</time>
      </trkpt>
      <trkpt lat="39.789007" lon="-8.837119">
        <ele>17.8</ele>
        <time>1970-01-01T00:54:23.000Z</time>
      </trkpt>
      <trkpt lat="39.788994" lon="-8.837074">
        <ele>17.7</ele>
        <time>1970-01-01T00:54:24.000Z</time>
      </trkpt>
      <trkpt lat="39.788973" lon="-8.837037">
        <ele>17.6</ele>
        <time>1970-01-01T00:54:25.000Z</time>
      </trkpt>
      <trkpt lat="39.788954" lon="-8.837005">
        <ele>17.6</ele>
        <time>1970-01-01T00:54:26.000Z</time>
      </trkpt>
      <trkpt lat="39.788931" lon="-8.836975">
        <ele>17.5</ele>
        <time>1970-01-01T00:54:27.000Z</time>
      </trkpt>
      <trkpt lat="39.788907" lon="-8.836944">
        <ele>17.5</ele>
        <time>1970-01-01T00:54:28.000Z</time>
      </trkpt>
      <trkpt lat="39.788883" lon="-8.836915">
        <ele>17.4</ele>
        <time>1970-01-01T00:54:29.000Z</time>
      </trkpt>
      <trkpt lat="39.788856" lon="-8.836888">
        <ele>17.4</ele>
        <time>1970-01-01T00:54:30.000Z</time>
      </trkpt>
      <trkpt lat="39.788825" lon="-8.83686">
        <ele>17.4</ele>
        <time>1970-01-01T00:54:31.000Z</time>
      </trkpt>
      <trkpt lat="39.788795" lon="-8.83684">
        <ele>17.4</ele>
        <time>1970-01-01T00:54:32.000Z</time>
      </trkpt>
      <trkpt lat="39.788763" lon="-8.836822">
        <ele>17.3</ele>
        <time>1970-01-01T00:54:33.000Z</time>
      </trkpt>
      <trkpt lat="39.788735" lon="-8.836815">
        <ele>17.3</ele>
        <time>1970-01-01T00:54:34.000Z</time>
      </trkpt>
      <trkpt lat="39.788712" lon="-8.836795">
        <ele>17.3</ele>
        <time>1970-01-01T00:54:35.000Z</time>
      </trkpt>
      <trkpt lat="39.788676" lon="-8.836783">
        <ele>17.3</ele>
        <time>1970-01-01T00:54:36.000Z</time>
      </trkpt>
      <trkpt lat="39.788637" lon="-8.836775">
        <ele>17.3</ele>
        <time>1970-01-01T00:54:37.000Z</time>
      </trkpt>
      <trkpt lat="39.788598" lon="-8.836757">
        <ele>17.3</ele>
        <time>1970-01-01T00:54:38.000Z</time>
      </trkpt>
      <trkpt lat="39.788563" lon="-8.836742">
        <ele>17.3</ele>
        <time>1970-01-01T00:54:39.000Z</time>
      </trkpt>
      <trkpt lat="39.788526" lon="-8.836727">
        <ele>17.3</ele>
        <time>1970-01-01T00:54:40.000Z</time>
      </trkpt>
      <trkpt lat="39.788487" lon="-8.836707">
        <ele>17.3</ele>
        <time>1970-01-01T00:54:41.000Z</time>
      </trkpt>
      <trkpt lat="39.788451" lon="-8.836687">
        <ele>17.3</ele>
        <time>1970-01-01T00:54:42.000Z</time>
      </trkpt>
      <trkpt lat="39.788414" lon="-8.836661">
        <ele>17.3</ele>
        <time>1970-01-01T00:54:43.000Z</time>
      </trkpt>
      <trkpt lat="39.788379" lon="-8.836646">
        <ele>17.3</ele>
        <time>1970-01-01T00:54:44.000Z</time>
      </trkpt>
      <trkpt lat="39.788343" lon="-8.836631">
        <ele>17.3</ele>
        <time>1970-01-01T00:54:45.000Z</time>
      </trkpt>
      <trkpt lat="39.788307" lon="-8.836621">
        <ele>17.3</ele>
        <time>1970-01-01T00:54:46.000Z</time>
      </trkpt>
      <trkpt lat="39.788269" lon="-8.836606">
        <ele>17.3</ele>
        <time>1970-01-01T00:54:47.000Z</time>
      </trkpt>
      <trkpt lat="39.788225" lon="-8.836586">
        <ele>17.3</ele>
        <time>1970-01-01T00:54:48.000Z</time>
      </trkpt>
      <trkpt lat="39.788183" lon="-8.836569">
        <ele>17.2</ele>
        <time>1970-01-01T00:54:49.000Z</time>
      </trkpt>
      <trkpt lat="39.788136" lon="-8.836547">
        <ele>17.2</ele>
        <time>1970-01-01T00:54:50.000Z</time>
      </trkpt>
      <trkpt lat="39.788093" lon="-8.836521">
        <ele>17.2</ele>
        <time>1970-01-01T00:54:51.000Z</time>
      </trkpt>
      <trkpt lat="39.788052" lon="-8.836496">
        <ele>17.2</ele>
        <time>1970-01-01T00:54:52.000Z</time>
      </trkpt>
      <trkpt lat="39.788013" lon="-8.836474">
        <ele>17.1</ele>
        <time>1970-01-01T00:54:53.000Z</time>
      </trkpt>
      <trkpt lat="39.787975" lon="-8.836458">
        <ele>17.1</ele>
        <time>1970-01-01T00:54:54.000Z</time>
      </trkpt>
      <trkpt lat="39.787935" lon="-8.836439">
        <ele>17.1</ele>
        <time>1970-01-01T00:54:55.000Z</time>
      </trkpt>
      <trkpt lat="39.787896" lon="-8.836418">
        <ele>17.1</ele>
        <time>1970-01-01T00:54:56.000Z</time>
      </trkpt>
      <trkpt lat="39.787853" lon="-8.836394">
        <ele>17.1</ele>
        <time>1970-01-01T00:54:57.000Z</time>
      </trkpt>
      <trkpt lat="39.787812" lon="-8.836374">
        <ele>17.1</ele>
        <time>1970-01-01T00:54:58.000Z</time>
      </trkpt>
      <trkpt lat="39.787766" lon="-8.836349">
        <ele>17.1</ele>
        <time>1970-01-01T00:54:59.000Z</time>
      </trkpt>
      <trkpt lat="39.787714" lon="-8.836326">
        <ele>17.1</ele>
        <time>1970-01-01T00:55:00.000Z</time>
      </trkpt>
      <trkpt lat="39.787664" lon="-8.836303">
        <ele>17.1</ele>
        <time>1970-01-01T00:55:01.000Z</time>
      </trkpt>
      <trkpt lat="39.78762" lon="-8.836281">
        <ele>17.1</ele>
        <time>1970-01-01T00:55:02.000Z</time>
      </trkpt>
      <trkpt lat="39.787575" lon="-8.836261">
        <ele>17.1</ele>
        <time>1970-01-01T00:55:03.000Z</time>
      </trkpt>
      <trkpt lat="39.78753" lon="-8.836238">
        <ele>17.1</ele>
        <time>1970-01-01T00:55:04.000Z</time>
      </trkpt>
      <trkpt lat="39.787486" lon="-8.836219">
        <ele>17.1</ele>
        <time>1970-01-01T00:55:05.000Z</time>
      </trkpt>
      <trkpt lat="39.787446" lon="-8.836198">
        <ele>17.1</ele>
        <time>1970-01-01T00:55:06.000Z</time>
      </trkpt>
      <trkpt lat="39.787405" lon="-8.836173">
        <ele>17.1</ele>
        <time>1970-01-01T00:55:07.000Z</time>
      </trkpt>
      <trkpt lat="39.787363" lon="-8.836145">
        <ele>17.1</ele>
        <time>1970-01-01T00:55:08.000Z</time>
      </trkpt>
      <trkpt lat="39.787318" lon="-8.836124">
        <ele>17.1</ele>
        <time>1970-01-01T00:55:09.000Z</time>
      </trkpt>
      <trkpt lat="39.787267" lon="-8.836117">
        <ele>17.1</ele>
        <time>1970-01-01T00:55:10.000Z</time>
      </trkpt>
      <trkpt lat="39.787216" lon="-8.836091">
        <ele>17.1</ele>
        <time>1970-01-01T00:55:11.000Z</time>
      </trkpt>
      <trkpt lat="39.787166" lon="-8.836067">
        <ele>17.1</ele>
        <time>1970-01-01T00:55:12.000Z</time>
      </trkpt>
      <trkpt lat="39.787114" lon="-8.836042">
        <ele>17.1</ele>
        <time>1970-01-01T00:55:13.000Z</time>
      </trkpt>
      <trkpt lat="39.787064" lon="-8.836017">
        <ele>17.1</ele>
        <time>1970-01-01T00:55:14.000Z</time>
      </trkpt>
      <trkpt lat="39.787018" lon="-8.835993">
        <ele>17.1</ele>
        <time>1970-01-01T00:55:15.000Z</time>
      </trkpt>
      <trkpt lat="39.786974" lon="-8.835967">
        <ele>17.1</ele>
        <time>1970-01-01T00:55:16.000Z</time>
      </trkpt>
      <trkpt lat="39.786926" lon="-8.835941">
        <ele>17.1</ele>
        <time>1970-01-01T00:55:17.000Z</time>
      </trkpt>
      <trkpt lat="39.786882" lon="-8.835916">
        <ele>17.1</ele>
        <time>1970-01-01T00:55:18.000Z</time>
      </trkpt>
      <trkpt lat="39.786834" lon="-8.83589">
        <ele>17.1</ele>
        <time>1970-01-01T00:55:19.000Z</time>
      </trkpt>
      <trkpt lat="39.786792" lon="-8.835872">
        <ele>17.2</ele>
        <time>1970-01-01T00:55:20.000Z</time>
      </trkpt>
      <trkpt lat="39.786749" lon="-8.835853">
        <ele>17.2</ele>
        <time>1970-01-01T00:55:21.000Z</time>
      </trkpt>
      <trkpt lat="39.786706" lon="-8.835835">
        <ele>17.2</ele>
        <time>1970-01-01T00:55:22.000Z</time>
      </trkpt>
      <trkpt lat="39.786661" lon="-8.835804">
        <ele>17.2</ele>
        <time>1970-01-01T00:55:23.000Z</time>
      </trkpt>
      <trkpt lat="39.786613" lon="-8.835781">
        <ele>17.2</ele>
        <time>1970-01-01T00:55:24.000Z</time>
      </trkpt>
      <trkpt lat="39.786567" lon="-8.835761">
        <ele>17.3</ele>
        <time>1970-01-01T00:55:25.000Z</time>
      </trkpt>
      <trkpt lat="39.786518" lon="-8.835734">
        <ele>17.3</ele>
        <time>1970-01-01T00:55:26.000Z</time>
      </trkpt>
      <trkpt lat="39.78647" lon="-8.835705">
        <ele>17.3</ele>
        <time>1970-01-01T00:55:27.000Z</time>
      </trkpt>
      <trkpt lat="39.786421" lon="-8.835688">
        <ele>17.3</ele>
        <time>1970-01-01T00:55:28.000Z</time>
      </trkpt>
      <trkpt lat="39.786375" lon="-8.835668">
        <ele>17.4</ele>
        <time>1970-01-01T00:55:29.000Z</time>
      </trkpt>
      <trkpt lat="39.786326" lon="-8.83565">
        <ele>17.4</ele>
        <time>1970-01-01T00:55:30.000Z</time>
      </trkpt>
      <trkpt lat="39.786281" lon="-8.835625">
        <ele>17.4</ele>
        <time>1970-01-01T00:55:31.000Z</time>
      </trkpt>
      <trkpt lat="39.786232" lon="-8.835605">
        <ele>17.4</ele>
        <time>1970-01-01T00:55:32.000Z</time>
      </trkpt>
      <trkpt lat="39.78618" lon="-8.835579">
        <ele>17.4</ele>
        <time>1970-01-01T00:55:33.000Z</time>
      </trkpt>
      <trkpt lat="39.786134" lon="-8.835559">
        <ele>17.4</ele>
        <time>1970-01-01T00:55:34.000Z</time>
      </trkpt>
      <trkpt lat="39.786091" lon="-8.835553">
        <ele>17.4</ele>
        <time>1970-01-01T00:55:35.000Z</time>
      </trkpt>
      <trkpt lat="39.786044" lon="-8.835538">
        <ele>17.4</ele>
        <time>1970-01-01T00:55:36.000Z</time>
      </trkpt>
      <trkpt lat="39.786004" lon="-8.83551">
        <ele>17.4</ele>
        <time>1970-01-01T00:55:37.000Z</time>
      </trkpt>
      <trkpt lat="39.785956" lon="-8.835488">
        <ele>17.4</ele>
        <time>1970-01-01T00:55:38.000Z</time>
      </trkpt>
      <trkpt lat="39.785909" lon="-8.835469">
        <ele>17.4</ele>
        <time>1970-01-01T00:55:39.000Z</time>
      </trkpt>
      <trkpt lat="39.785867" lon="-8.835456">
        <ele>17.4</ele>
        <time>1970-01-01T00:55:40.000Z</time>
      </trkpt>
      <trkpt lat="39.785823" lon="-8.835436">
        <ele>17.4</ele>
        <time>1970-01-01T00:55:41.000Z</time>
      </trkpt>
      <trkpt lat="39.785784" lon="-8.835412">
        <ele>17.4</ele>
        <time>1970-01-01T00:55:42.000Z</time>
      </trkpt>
      <trkpt lat="39.785748" lon="-8.835384">
        <ele>17.4</ele>
        <time>1970-01-01T00:55:43.000Z</time>
      </trkpt>
      <trkpt lat="39.785706" lon="-8.835364">
        <ele>17.4</ele>
        <time>1970-01-01T00:55:44.000Z</time>
      </trkpt>
      <trkpt lat="39.785654" lon="-8.835361">
        <ele>17.4</ele>
        <time>1970-01-01T00:55:45.000Z</time>
      </trkpt>
      <trkpt lat="39.785607" lon="-8.835352">
        <ele>17.4</ele>
        <time>1970-01-01T00:55:46.000Z</time>
      </trkpt>
      <trkpt lat="39.78555" lon="-8.835322">
        <ele>17.4</ele>
        <time>1970-01-01T00:55:47.000Z</time>
      </trkpt>
      <trkpt lat="39.785511" lon="-8.835294">
        <ele>17.4</ele>
        <time>1970-01-01T00:55:48.000Z</time>
      </trkpt>
      <trkpt lat="39.785461" lon="-8.835282">
        <ele>17.4</ele>
        <time>1970-01-01T00:55:49.000Z</time>
      </trkpt>
      <trkpt lat="39.785417" lon="-8.835259">
        <ele>17.4</ele>
        <time>1970-01-01T00:55:50.000Z</time>
      </trkpt>
      <trkpt lat="39.785375" lon="-8.835228">
        <ele>17.4</ele>
        <time>1970-01-01T00:55:51.000Z</time>
      </trkpt>
      <trkpt lat="39.785345" lon="-8.835184">
        <ele>17.4</ele>
        <time>1970-01-01T00:55:52.000Z</time>
      </trkpt>
      <trkpt lat="39.785306" lon="-8.835156">
        <ele>17.4</ele>
        <time>1970-01-01T00:55:53.000Z</time>
      </trkpt>
      <trkpt lat="39.785259" lon="-8.835136">
        <ele>17.4</ele>
        <time>1970-01-01T00:55:54.000Z</time>
      </trkpt>
      <trkpt lat="39.785212" lon="-8.835124">
        <ele>17.4</ele>
        <time>1970-01-01T00:55:55.000Z</time>
      </trkpt>
      <trkpt lat="39.785155" lon="-8.835113">
        <ele>17.4</ele>
        <time>1970-01-01T00:55:56.000Z</time>
      </trkpt>
      <trkpt lat="39.785109" lon="-8.835102">
        <ele>17.4</ele>
        <time>1970-01-01T00:55:57.000Z</time>
      </trkpt>
      <trkpt lat="39.785058" lon="-8.835079">
        <ele>17.4</ele>
        <time>1970-01-01T00:55:58.000Z</time>
      </trkpt>
      <trkpt lat="39.785021" lon="-8.835044">
        <ele>17.4</ele>
        <time>1970-01-01T00:55:59.000Z</time>
      </trkpt>
      <trkpt lat="39.78498" lon="-8.83502">
        <ele>17.4</ele>
        <time>1970-01-01T00:56:00.000Z</time>
      </trkpt>
      <trkpt lat="39.784933" lon="-8.835013">
        <ele>17.4</ele>
        <time>1970-01-01T00:56:01.000Z</time>
      </trkpt>
      <trkpt lat="39.784881" lon="-8.835006">
        <ele>17.4</ele>
        <time>1970-01-01T00:56:02.000Z</time>
      </trkpt>
      <trkpt lat="39.784835" lon="-8.834977">
        <ele>17.4</ele>
        <time>1970-01-01T00:56:03.000Z</time>
      </trkpt>
      <trkpt lat="39.78479" lon="-8.834943">
        <ele>17.4</ele>
        <time>1970-01-01T00:56:04.000Z</time>
      </trkpt>
      <trkpt lat="39.784737" lon="-8.834915">
        <ele>17.4</ele>
        <time>1970-01-01T00:56:05.000Z</time>
      </trkpt>
      <trkpt lat="39.784684" lon="-8.834879">
        <ele>17.4</ele>
        <time>1970-01-01T00:56:06.000Z</time>
      </trkpt>
      <trkpt lat="39.784629" lon="-8.834849">
        <ele>17.4</ele>
        <time>1970-01-01T00:56:07.000Z</time>
      </trkpt>
      <trkpt lat="39.784583" lon="-8.834824">
        <ele>17.4</ele>
        <time>1970-01-01T00:56:08.000Z</time>
      </trkpt>
      <trkpt lat="39.784525" lon="-8.834799">
        <ele>17.3</ele>
        <time>1970-01-01T00:56:09.000Z</time>
      </trkpt>
      <trkpt lat="39.784481" lon="-8.834775">
        <ele>17.3</ele>
        <time>1970-01-01T00:56:10.000Z</time>
      </trkpt>
      <trkpt lat="39.784436" lon="-8.834759">
        <ele>17.3</ele>
        <time>1970-01-01T00:56:11.000Z</time>
      </trkpt>
      <trkpt lat="39.784386" lon="-8.834742">
        <ele>17.3</ele>
        <time>1970-01-01T00:56:12.000Z</time>
      </trkpt>
      <trkpt lat="39.78434" lon="-8.834721">
        <ele>17.3</ele>
        <time>1970-01-01T00:56:13.000Z</time>
      </trkpt>
      <trkpt lat="39.784299" lon="-8.83469">
        <ele>17.2</ele>
        <time>1970-01-01T00:56:14.000Z</time>
      </trkpt>
      <trkpt lat="39.78425" lon="-8.834656">
        <ele>17.2</ele>
        <time>1970-01-01T00:56:15.000Z</time>
      </trkpt>
      <trkpt lat="39.784199" lon="-8.834633">
        <ele>17.2</ele>
        <time>1970-01-01T00:56:16.000Z</time>
      </trkpt>
      <trkpt lat="39.784147" lon="-8.834617">
        <ele>17.2</ele>
        <time>1970-01-01T00:56:17.000Z</time>
      </trkpt>
      <trkpt lat="39.784088" lon="-8.834598">
        <ele>17.2</ele>
        <time>1970-01-01T00:56:18.000Z</time>
      </trkpt>
      <trkpt lat="39.78403" lon="-8.83457">
        <ele>17.1</ele>
        <time>1970-01-01T00:56:19.000Z</time>
      </trkpt>
      <trkpt lat="39.783976" lon="-8.834542">
        <ele>17.1</ele>
        <time>1970-01-01T00:56:20.000Z</time>
      </trkpt>
      <trkpt lat="39.783929" lon="-8.83451">
        <ele>17.1</ele>
        <time>1970-01-01T00:56:21.000Z</time>
      </trkpt>
      <trkpt lat="39.783877" lon="-8.834482">
        <ele>17.1</ele>
        <time>1970-01-01T00:56:22.000Z</time>
      </trkpt>
      <trkpt lat="39.783828" lon="-8.834464">
        <ele>17.1</ele>
        <time>1970-01-01T00:56:23.000Z</time>
      </trkpt>
      <trkpt lat="39.783784" lon="-8.834451">
        <ele>17.1</ele>
        <time>1970-01-01T00:56:24.000Z</time>
      </trkpt>
      <trkpt lat="39.783737" lon="-8.83443">
        <ele>17.1</ele>
        <time>1970-01-01T00:56:25.000Z</time>
      </trkpt>
      <trkpt lat="39.783687" lon="-8.834412">
        <ele>17.1</ele>
        <time>1970-01-01T00:56:26.000Z</time>
      </trkpt>
      <trkpt lat="39.783646" lon="-8.834393">
        <ele>17.1</ele>
        <time>1970-01-01T00:56:27.000Z</time>
      </trkpt>
      <trkpt lat="39.783604" lon="-8.834373">
        <ele>17.1</ele>
        <time>1970-01-01T00:56:28.000Z</time>
      </trkpt>
      <trkpt lat="39.783559" lon="-8.834349">
        <ele>17.1</ele>
        <time>1970-01-01T00:56:29.000Z</time>
      </trkpt>
      <trkpt lat="39.783509" lon="-8.834323">
        <ele>17.1</ele>
        <time>1970-01-01T00:56:30.000Z</time>
      </trkpt>
      <trkpt lat="39.78346" lon="-8.834304">
        <ele>17.1</ele>
        <time>1970-01-01T00:56:31.000Z</time>
      </trkpt>
      <trkpt lat="39.783409" lon="-8.834285">
        <ele>17.1</ele>
        <time>1970-01-01T00:56:32.000Z</time>
      </trkpt>
      <trkpt lat="39.783353" lon="-8.834265">
        <ele>17.1</ele>
        <time>1970-01-01T00:56:33.000Z</time>
      </trkpt>
      <trkpt lat="39.783301" lon="-8.834242">
        <ele>17.1</ele>
        <time>1970-01-01T00:56:34.000Z</time>
      </trkpt>
      <trkpt lat="39.783243" lon="-8.834226">
        <ele>17.1</ele>
        <time>1970-01-01T00:56:35.000Z</time>
      </trkpt>
      <trkpt lat="39.783193" lon="-8.834216">
        <ele>17.1</ele>
        <time>1970-01-01T00:56:36.000Z</time>
      </trkpt>
      <trkpt lat="39.783137" lon="-8.83421">
        <ele>17.1</ele>
        <time>1970-01-01T00:56:37.000Z</time>
      </trkpt>
      <trkpt lat="39.783089" lon="-8.834185">
        <ele>17.1</ele>
        <time>1970-01-01T00:56:38.000Z</time>
      </trkpt>
      <trkpt lat="39.783045" lon="-8.834165">
        <ele>17.1</ele>
        <time>1970-01-01T00:56:40.000Z</time>
      </trkpt>
      <trkpt lat="39.782998" lon="-8.83415">
        <ele>17.1</ele>
        <time>1970-01-01T00:56:41.000Z</time>
      </trkpt>
      <trkpt lat="39.782948" lon="-8.834132">
        <ele>17.1</ele>
        <time>1970-01-01T00:56:42.000Z</time>
      </trkpt>
      <trkpt lat="39.78289" lon="-8.834119">
        <ele>17.1</ele>
        <time>1970-01-01T00:56:43.000Z</time>
      </trkpt>
      <trkpt lat="39.782832" lon="-8.8341">
        <ele>17.1</ele>
        <time>1970-01-01T00:56:44.000Z</time>
      </trkpt>
      <trkpt lat="39.782724" lon="-8.834064">
        <ele>17.1</ele>
        <time>1970-01-01T00:56:45.000Z</time>
      </trkpt>
      <trkpt lat="39.782669" lon="-8.834053">
        <ele>17.1</ele>
        <time>1970-01-01T00:56:46.000Z</time>
      </trkpt>
      <trkpt lat="39.782611" lon="-8.834032">
        <ele>17.2</ele>
        <time>1970-01-01T00:56:47.000Z</time>
      </trkpt>
      <trkpt lat="39.782565" lon="-8.834022">
        <ele>17.2</ele>
        <time>1970-01-01T00:56:48.000Z</time>
      </trkpt>
      <trkpt lat="39.782516" lon="-8.834007">
        <ele>17.2</ele>
        <time>1970-01-01T00:56:50.000Z</time>
      </trkpt>
      <trkpt lat="39.782424" lon="-8.833974">
        <ele>17.2</ele>
        <time>1970-01-01T00:56:51.000Z</time>
      </trkpt>
      <trkpt lat="39.782374" lon="-8.833957">
        <ele>17.1</ele>
        <time>1970-01-01T00:56:52.000Z</time>
      </trkpt>
      <trkpt lat="39.782321" lon="-8.833944">
        <ele>17.1</ele>
        <time>1970-01-01T00:56:53.000Z</time>
      </trkpt>
      <trkpt lat="39.782263" lon="-8.833924">
        <ele>17.1</ele>
        <time>1970-01-01T00:56:54.000Z</time>
      </trkpt>
      <trkpt lat="39.782203" lon="-8.833904">
        <ele>17.1</ele>
        <time>1970-01-01T00:56:55.000Z</time>
      </trkpt>
      <trkpt lat="39.782149" lon="-8.83389">
        <ele>17.2</ele>
        <time>1970-01-01T00:56:56.000Z</time>
      </trkpt>
      <trkpt lat="39.782097" lon="-8.833878">
        <ele>17.2</ele>
        <time>1970-01-01T00:56:58.000Z</time>
      </trkpt>
      <trkpt lat="39.782045" lon="-8.833855">
        <ele>17.3</ele>
        <time>1970-01-01T00:56:59.000Z</time>
      </trkpt>
      <trkpt lat="39.781993" lon="-8.833845">
        <ele>17.4</ele>
        <time>1970-01-01T00:57:00.000Z</time>
      </trkpt>
      <trkpt lat="39.781948" lon="-8.833838">
        <ele>17.4</ele>
        <time>1970-01-01T00:57:01.000Z</time>
      </trkpt>
      <trkpt lat="39.781906" lon="-8.833829">
        <ele>17.4</ele>
        <time>1970-01-01T00:57:02.000Z</time>
      </trkpt>
      <trkpt lat="39.781864" lon="-8.833819">
        <ele>17.5</ele>
        <time>1970-01-01T00:57:03.000Z</time>
      </trkpt>
      <trkpt lat="39.78182" lon="-8.833805">
        <ele>17.5</ele>
        <time>1970-01-01T00:57:04.000Z</time>
      </trkpt>
      <trkpt lat="39.781781" lon="-8.833797">
        <ele>17.5</ele>
        <time>1970-01-01T00:57:05.000Z</time>
      </trkpt>
      <trkpt lat="39.781735" lon="-8.833778">
        <ele>17.5</ele>
        <time>1970-01-01T00:57:06.000Z</time>
      </trkpt>
      <trkpt lat="39.781683" lon="-8.833768">
        <ele>17.6</ele>
        <time>1970-01-01T00:57:07.000Z</time>
      </trkpt>
      <trkpt lat="39.781637" lon="-8.833757">
        <ele>17.6</ele>
        <time>1970-01-01T00:57:08.000Z</time>
      </trkpt>
      <trkpt lat="39.781585" lon="-8.833747">
        <ele>17.6</ele>
        <time>1970-01-01T00:57:09.000Z</time>
      </trkpt>
      <trkpt lat="39.781536" lon="-8.833736">
        <ele>17.6</ele>
        <time>1970-01-01T00:57:10.000Z</time>
      </trkpt>
      <trkpt lat="39.781479" lon="-8.833727">
        <ele>17.6</ele>
        <time>1970-01-01T00:57:11.000Z</time>
      </trkpt>
      <trkpt lat="39.781429" lon="-8.833719">
        <ele>17.6</ele>
        <time>1970-01-01T00:57:12.000Z</time>
      </trkpt>
      <trkpt lat="39.781376" lon="-8.833703">
        <ele>17.6</ele>
        <time>1970-01-01T00:57:13.000Z</time>
      </trkpt>
      <trkpt lat="39.781324" lon="-8.833697">
        <ele>17.6</ele>
        <time>1970-01-01T00:57:14.000Z</time>
      </trkpt>
      <trkpt lat="39.781275" lon="-8.833694">
        <ele>17.6</ele>
        <time>1970-01-01T00:57:15.000Z</time>
      </trkpt>
      <trkpt lat="39.781224" lon="-8.833688">
        <ele>17.6</ele>
        <time>1970-01-01T00:57:16.000Z</time>
      </trkpt>
      <trkpt lat="39.781172" lon="-8.833679">
        <ele>17.6</ele>
        <time>1970-01-01T00:57:17.000Z</time>
      </trkpt>
      <trkpt lat="39.781065" lon="-8.833652">
        <ele>17.6</ele>
        <time>1970-01-01T00:57:18.000Z</time>
      </trkpt>
      <trkpt lat="39.781018" lon="-8.833641">
        <ele>17.6</ele>
        <time>1970-01-01T00:57:19.000Z</time>
      </trkpt>
      <trkpt lat="39.780967" lon="-8.83363">
        <ele>17.6</ele>
        <time>1970-01-01T00:57:20.000Z</time>
      </trkpt>
      <trkpt lat="39.780916" lon="-8.833621">
        <ele>17.6</ele>
        <time>1970-01-01T00:57:21.000Z</time>
      </trkpt>
      <trkpt lat="39.780869" lon="-8.833612">
        <ele>17.6</ele>
        <time>1970-01-01T00:57:22.000Z</time>
      </trkpt>
      <trkpt lat="39.78082" lon="-8.833606">
        <ele>17.7</ele>
        <time>1970-01-01T00:57:23.000Z</time>
      </trkpt>
      <trkpt lat="39.780773" lon="-8.833597">
        <ele>17.7</ele>
        <time>1970-01-01T00:57:24.000Z</time>
      </trkpt>
      <trkpt lat="39.780719" lon="-8.83359">
        <ele>17.7</ele>
        <time>1970-01-01T00:57:25.000Z</time>
      </trkpt>
      <trkpt lat="39.780664" lon="-8.833584">
        <ele>17.7</ele>
        <time>1970-01-01T00:57:26.000Z</time>
      </trkpt>
      <trkpt lat="39.780609" lon="-8.833566">
        <ele>17.7</ele>
        <time>1970-01-01T00:57:27.000Z</time>
      </trkpt>
      <trkpt lat="39.780546" lon="-8.833561">
        <ele>17.7</ele>
        <time>1970-01-01T00:57:28.000Z</time>
      </trkpt>
      <trkpt lat="39.78048" lon="-8.83355">
        <ele>17.7</ele>
        <time>1970-01-01T00:57:29.000Z</time>
      </trkpt>
      <trkpt lat="39.78042" lon="-8.833534">
        <ele>17.7</ele>
        <time>1970-01-01T00:57:30.000Z</time>
      </trkpt>
      <trkpt lat="39.780356" lon="-8.833536">
        <ele>17.8</ele>
        <time>1970-01-01T00:57:31.000Z</time>
      </trkpt>
      <trkpt lat="39.780291" lon="-8.833534">
        <ele>17.8</ele>
        <time>1970-01-01T00:57:32.000Z</time>
      </trkpt>
      <trkpt lat="39.780234" lon="-8.833525">
        <ele>17.8</ele>
        <time>1970-01-01T00:57:33.000Z</time>
      </trkpt>
      <trkpt lat="39.780181" lon="-8.833519">
        <ele>17.9</ele>
        <time>1970-01-01T00:57:34.000Z</time>
      </trkpt>
      <trkpt lat="39.780128" lon="-8.833512">
        <ele>17.9</ele>
        <time>1970-01-01T00:57:35.000Z</time>
      </trkpt>
      <trkpt lat="39.78008" lon="-8.833507">
        <ele>17.9</ele>
        <time>1970-01-01T00:57:36.000Z</time>
      </trkpt>
      <trkpt lat="39.78003" lon="-8.833501">
        <ele>18</ele>
        <time>1970-01-01T00:57:37.000Z</time>
      </trkpt>
      <trkpt lat="39.779982" lon="-8.833496">
        <ele>18</ele>
        <time>1970-01-01T00:57:38.000Z</time>
      </trkpt>
      <trkpt lat="39.779936" lon="-8.833497">
        <ele>18</ele>
        <time>1970-01-01T00:57:39.000Z</time>
      </trkpt>
      <trkpt lat="39.779891" lon="-8.833499">
        <ele>18</ele>
        <time>1970-01-01T00:57:40.000Z</time>
      </trkpt>
      <trkpt lat="39.779839" lon="-8.833491">
        <ele>18</ele>
        <time>1970-01-01T00:57:41.000Z</time>
      </trkpt>
      <trkpt lat="39.779781" lon="-8.8335">
        <ele>18</ele>
        <time>1970-01-01T00:57:42.000Z</time>
      </trkpt>
      <trkpt lat="39.779722" lon="-8.833494">
        <ele>18</ele>
        <time>1970-01-01T00:57:43.000Z</time>
      </trkpt>
      <trkpt lat="39.779668" lon="-8.833486">
        <ele>18</ele>
        <time>1970-01-01T00:57:44.000Z</time>
      </trkpt>
      <trkpt lat="39.779617" lon="-8.833469">
        <ele>18</ele>
        <time>1970-01-01T00:57:45.000Z</time>
      </trkpt>
      <trkpt lat="39.779574" lon="-8.833469">
        <ele>18</ele>
        <time>1970-01-01T00:57:46.000Z</time>
      </trkpt>
      <trkpt lat="39.779513" lon="-8.833465">
        <ele>18</ele>
        <time>1970-01-01T00:57:47.000Z</time>
      </trkpt>
      <trkpt lat="39.779457" lon="-8.833473">
        <ele>18</ele>
        <time>1970-01-01T00:57:48.000Z</time>
      </trkpt>
      <trkpt lat="39.779409" lon="-8.833445">
        <ele>18</ele>
        <time>1970-01-01T00:57:49.000Z</time>
      </trkpt>
      <trkpt lat="39.779353" lon="-8.83344">
        <ele>17.9</ele>
        <time>1970-01-01T00:57:50.000Z</time>
      </trkpt>
      <trkpt lat="39.77931" lon="-8.833446">
        <ele>17.9</ele>
        <time>1970-01-01T00:57:51.000Z</time>
      </trkpt>
      <trkpt lat="39.779272" lon="-8.833449">
        <ele>17.9</ele>
        <time>1970-01-01T00:57:52.000Z</time>
      </trkpt>
      <trkpt lat="39.779221" lon="-8.833472">
        <ele>17.9</ele>
        <time>1970-01-01T00:57:53.000Z</time>
      </trkpt>
      <trkpt lat="39.779175" lon="-8.833453">
        <ele>17.9</ele>
        <time>1970-01-01T00:57:54.000Z</time>
      </trkpt>
      <trkpt lat="39.779125" lon="-8.833453">
        <ele>17.8</ele>
        <time>1970-01-01T00:57:55.000Z</time>
      </trkpt>
      <trkpt lat="39.779067" lon="-8.833448">
        <ele>17.8</ele>
        <time>1970-01-01T00:57:56.000Z</time>
      </trkpt>
      <trkpt lat="39.779006" lon="-8.833449">
        <ele>17.8</ele>
        <time>1970-01-01T00:57:57.000Z</time>
      </trkpt>
      <trkpt lat="39.778947" lon="-8.833435">
        <ele>17.8</ele>
        <time>1970-01-01T00:57:58.000Z</time>
      </trkpt>
      <trkpt lat="39.7789" lon="-8.83343">
        <ele>17.8</ele>
        <time>1970-01-01T00:57:59.000Z</time>
      </trkpt>
      <trkpt lat="39.778854" lon="-8.833424">
        <ele>17.9</ele>
        <time>1970-01-01T00:58:00.000Z</time>
      </trkpt>
      <trkpt lat="39.778817" lon="-8.833419">
        <ele>17.9</ele>
        <time>1970-01-01T00:58:01.000Z</time>
      </trkpt>
      <trkpt lat="39.778761" lon="-8.833429">
        <ele>17.9</ele>
        <time>1970-01-01T00:58:02.000Z</time>
      </trkpt>
      <trkpt lat="39.778714" lon="-8.833431">
        <ele>17.9</ele>
        <time>1970-01-01T00:58:03.000Z</time>
      </trkpt>
      <trkpt lat="39.778672" lon="-8.833434">
        <ele>18</ele>
        <time>1970-01-01T00:58:04.000Z</time>
      </trkpt>
      <trkpt lat="39.77862" lon="-8.833433">
        <ele>18</ele>
        <time>1970-01-01T00:58:05.000Z</time>
      </trkpt>
      <trkpt lat="39.778567" lon="-8.833434">
        <ele>18</ele>
        <time>1970-01-01T00:58:06.000Z</time>
      </trkpt>
      <trkpt lat="39.778521" lon="-8.833424">
        <ele>18.1</ele>
        <time>1970-01-01T00:58:07.000Z</time>
      </trkpt>
      <trkpt lat="39.778467" lon="-8.833432">
        <ele>18.1</ele>
        <time>1970-01-01T00:58:08.000Z</time>
      </trkpt>
      <trkpt lat="39.778413" lon="-8.833424">
        <ele>18.2</ele>
        <time>1970-01-01T00:58:09.000Z</time>
      </trkpt>
      <trkpt lat="39.778355" lon="-8.833427">
        <ele>18.2</ele>
        <time>1970-01-01T00:58:10.000Z</time>
      </trkpt>
      <trkpt lat="39.778297" lon="-8.833433">
        <ele>18.2</ele>
        <time>1970-01-01T00:58:11.000Z</time>
      </trkpt>
      <trkpt lat="39.778238" lon="-8.833439">
        <ele>18.2</ele>
        <time>1970-01-01T00:58:12.000Z</time>
      </trkpt>
      <trkpt lat="39.778181" lon="-8.83344">
        <ele>18.2</ele>
        <time>1970-01-01T00:58:13.000Z</time>
      </trkpt>
      <trkpt lat="39.778139" lon="-8.833456">
        <ele>18.2</ele>
        <time>1970-01-01T00:58:14.000Z</time>
      </trkpt>
      <trkpt lat="39.778087" lon="-8.833458">
        <ele>18.2</ele>
        <time>1970-01-01T00:58:15.000Z</time>
      </trkpt>
      <trkpt lat="39.77802" lon="-8.833458">
        <ele>18.2</ele>
        <time>1970-01-01T00:58:16.000Z</time>
      </trkpt>
      <trkpt lat="39.777975" lon="-8.833466">
        <ele>18.2</ele>
        <time>1970-01-01T00:58:17.000Z</time>
      </trkpt>
      <trkpt lat="39.777938" lon="-8.833467">
        <ele>18.2</ele>
        <time>1970-01-01T00:58:18.000Z</time>
      </trkpt>
      <trkpt lat="39.777894" lon="-8.833469">
        <ele>18.2</ele>
        <time>1970-01-01T00:58:19.000Z</time>
      </trkpt>
      <trkpt lat="39.777844" lon="-8.833473">
        <ele>18.2</ele>
        <time>1970-01-01T00:58:20.000Z</time>
      </trkpt>
      <trkpt lat="39.777792" lon="-8.83348">
        <ele>18.2</ele>
        <time>1970-01-01T00:58:21.000Z</time>
      </trkpt>
      <trkpt lat="39.777745" lon="-8.833487">
        <ele>18.2</ele>
        <time>1970-01-01T00:58:22.000Z</time>
      </trkpt>
      <trkpt lat="39.777687" lon="-8.833493">
        <ele>18.2</ele>
        <time>1970-01-01T00:58:23.000Z</time>
      </trkpt>
      <trkpt lat="39.77763" lon="-8.833495">
        <ele>18.3</ele>
        <time>1970-01-01T00:58:24.000Z</time>
      </trkpt>
      <trkpt lat="39.777571" lon="-8.833499">
        <ele>18.3</ele>
        <time>1970-01-01T00:58:25.000Z</time>
      </trkpt>
      <trkpt lat="39.77751" lon="-8.833503">
        <ele>18.4</ele>
        <time>1970-01-01T00:58:26.000Z</time>
      </trkpt>
      <trkpt lat="39.777443" lon="-8.833497">
        <ele>18.4</ele>
        <time>1970-01-01T00:58:27.000Z</time>
      </trkpt>
      <trkpt lat="39.777382" lon="-8.833504">
        <ele>18.4</ele>
        <time>1970-01-01T00:58:28.000Z</time>
      </trkpt>
      <trkpt lat="39.777324" lon="-8.833501">
        <ele>18.4</ele>
        <time>1970-01-01T00:58:29.000Z</time>
      </trkpt>
      <trkpt lat="39.777264" lon="-8.833501">
        <ele>18.5</ele>
        <time>1970-01-01T00:58:30.000Z</time>
      </trkpt>
      <trkpt lat="39.77721" lon="-8.833492">
        <ele>18.5</ele>
        <time>1970-01-01T00:58:31.000Z</time>
      </trkpt>
      <trkpt lat="39.777159" lon="-8.833502">
        <ele>18.5</ele>
        <time>1970-01-01T00:58:32.000Z</time>
      </trkpt>
      <trkpt lat="39.777118" lon="-8.833518">
        <ele>18.5</ele>
        <time>1970-01-01T00:58:33.000Z</time>
      </trkpt>
      <trkpt lat="39.777072" lon="-8.833512">
        <ele>18.5</ele>
        <time>1970-01-01T00:58:34.000Z</time>
      </trkpt>
      <trkpt lat="39.777027" lon="-8.833526">
        <ele>18.6</ele>
        <time>1970-01-01T00:58:35.000Z</time>
      </trkpt>
      <trkpt lat="39.776987" lon="-8.833546">
        <ele>18.6</ele>
        <time>1970-01-01T00:58:36.000Z</time>
      </trkpt>
      <trkpt lat="39.776947" lon="-8.833539">
        <ele>18.6</ele>
        <time>1970-01-01T00:58:37.000Z</time>
      </trkpt>
      <trkpt lat="39.776896" lon="-8.833537">
        <ele>18.6</ele>
        <time>1970-01-01T00:58:38.000Z</time>
      </trkpt>
      <trkpt lat="39.776848" lon="-8.833541">
        <ele>18.6</ele>
        <time>1970-01-01T00:58:39.000Z</time>
      </trkpt>
      <trkpt lat="39.776797" lon="-8.833534">
        <ele>18.6</ele>
        <time>1970-01-01T00:58:40.000Z</time>
      </trkpt>
      <trkpt lat="39.776748" lon="-8.833548">
        <ele>18.6</ele>
        <time>1970-01-01T00:58:41.000Z</time>
      </trkpt>
      <trkpt lat="39.776696" lon="-8.833553">
        <ele>18.7</ele>
        <time>1970-01-01T00:58:42.000Z</time>
      </trkpt>
      <trkpt lat="39.776634" lon="-8.833543">
        <ele>18.7</ele>
        <time>1970-01-01T00:58:43.000Z</time>
      </trkpt>
      <trkpt lat="39.776584" lon="-8.833542">
        <ele>18.7</ele>
        <time>1970-01-01T00:58:44.000Z</time>
      </trkpt>
      <trkpt lat="39.776529" lon="-8.83354">
        <ele>18.7</ele>
        <time>1970-01-01T00:58:46.000Z</time>
      </trkpt>
      <trkpt lat="39.776472" lon="-8.833548">
        <ele>18.8</ele>
        <time>1970-01-01T00:58:47.000Z</time>
      </trkpt>
      <trkpt lat="39.776419" lon="-8.833557">
        <ele>18.8</ele>
        <time>1970-01-01T00:58:48.000Z</time>
      </trkpt>
      <trkpt lat="39.776368" lon="-8.83356">
        <ele>18.8</ele>
        <time>1970-01-01T00:58:49.000Z</time>
      </trkpt>
      <trkpt lat="39.776319" lon="-8.833563">
        <ele>18.8</ele>
        <time>1970-01-01T00:58:50.000Z</time>
      </trkpt>
      <trkpt lat="39.77627" lon="-8.833563">
        <ele>18.8</ele>
        <time>1970-01-01T00:58:51.000Z</time>
      </trkpt>
      <trkpt lat="39.776219" lon="-8.833555">
        <ele>18.8</ele>
        <time>1970-01-01T00:58:52.000Z</time>
      </trkpt>
      <trkpt lat="39.776182" lon="-8.833557">
        <ele>18.9</ele>
        <time>1970-01-01T00:58:53.000Z</time>
      </trkpt>
      <trkpt lat="39.776122" lon="-8.833562">
        <ele>18.9</ele>
        <time>1970-01-01T00:58:54.000Z</time>
      </trkpt>
      <trkpt lat="39.776072" lon="-8.833571">
        <ele>18.9</ele>
        <time>1970-01-01T00:58:55.000Z</time>
      </trkpt>
      <trkpt lat="39.775969" lon="-8.833572">
        <ele>19</ele>
        <time>1970-01-01T00:58:56.000Z</time>
      </trkpt>
      <trkpt lat="39.775919" lon="-8.833575">
        <ele>19</ele>
        <time>1970-01-01T00:58:58.000Z</time>
      </trkpt>
      <trkpt lat="39.775872" lon="-8.833568">
        <ele>19</ele>
        <time>1970-01-01T00:58:59.000Z</time>
      </trkpt>
      <trkpt lat="39.775781" lon="-8.833567">
        <ele>19</ele>
        <time>1970-01-01T00:59:00.000Z</time>
      </trkpt>
      <trkpt lat="39.775736" lon="-8.833567">
        <ele>19</ele>
        <time>1970-01-01T00:59:02.000Z</time>
      </trkpt>
      <trkpt lat="39.775693" lon="-8.833578">
        <ele>19</ele>
        <time>1970-01-01T00:59:03.000Z</time>
      </trkpt>
      <trkpt lat="39.775643" lon="-8.83357">
        <ele>19.1</ele>
        <time>1970-01-01T00:59:04.000Z</time>
      </trkpt>
      <trkpt lat="39.775535" lon="-8.833584">
        <ele>19.1</ele>
        <time>1970-01-01T00:59:05.000Z</time>
      </trkpt>
      <trkpt lat="39.775488" lon="-8.833588">
        <ele>19.1</ele>
        <time>1970-01-01T00:59:06.000Z</time>
      </trkpt>
      <trkpt lat="39.775443" lon="-8.833592">
        <ele>19.1</ele>
        <time>1970-01-01T00:59:07.000Z</time>
      </trkpt>
      <trkpt lat="39.775399" lon="-8.833585">
        <ele>19.2</ele>
        <time>1970-01-01T00:59:08.000Z</time>
      </trkpt>
      <trkpt lat="39.775359" lon="-8.833577">
        <ele>19.2</ele>
        <time>1970-01-01T00:59:09.000Z</time>
      </trkpt>
      <trkpt lat="39.77531" lon="-8.833584">
        <ele>19.2</ele>
        <time>1970-01-01T00:59:10.000Z</time>
      </trkpt>
      <trkpt lat="39.775265" lon="-8.833583">
        <ele>19.3</ele>
        <time>1970-01-01T00:59:11.000Z</time>
      </trkpt>
      <trkpt lat="39.775224" lon="-8.833593">
        <ele>19.3</ele>
        <time>1970-01-01T00:59:12.000Z</time>
      </trkpt>
      <trkpt lat="39.775181" lon="-8.8336">
        <ele>19.3</ele>
        <time>1970-01-01T00:59:13.000Z</time>
      </trkpt>
      <trkpt lat="39.775142" lon="-8.833602">
        <ele>19.4</ele>
        <time>1970-01-01T00:59:14.000Z</time>
      </trkpt>
      <trkpt lat="39.7751" lon="-8.833599">
        <ele>19.4</ele>
        <time>1970-01-01T00:59:15.000Z</time>
      </trkpt>
      <trkpt lat="39.775065" lon="-8.833602">
        <ele>19.5</ele>
        <time>1970-01-01T00:59:16.000Z</time>
      </trkpt>
      <trkpt lat="39.775021" lon="-8.833612">
        <ele>19.6</ele>
        <time>1970-01-01T00:59:17.000Z</time>
      </trkpt>
      <trkpt lat="39.774981" lon="-8.833619">
        <ele>19.7</ele>
        <time>1970-01-01T00:59:18.000Z</time>
      </trkpt>
      <trkpt lat="39.774941" lon="-8.833628">
        <ele>19.8</ele>
        <time>1970-01-01T00:59:19.000Z</time>
      </trkpt>
      <trkpt lat="39.774906" lon="-8.833638">
        <ele>19.9</ele>
        <time>1970-01-01T00:59:20.000Z</time>
      </trkpt>
      <trkpt lat="39.774872" lon="-8.833651">
        <ele>20.1</ele>
        <time>1970-01-01T00:59:21.000Z</time>
      </trkpt>
      <trkpt lat="39.774843" lon="-8.833663">
        <ele>20.3</ele>
        <time>1970-01-01T00:59:22.000Z</time>
      </trkpt>
      <trkpt lat="39.774809" lon="-8.833686">
        <ele>20.5</ele>
        <time>1970-01-01T00:59:23.000Z</time>
      </trkpt>
      <trkpt lat="39.774798" lon="-8.833692">
        <ele>20.5</ele>
        <time>1970-01-01T00:59:24.000Z</time>
      </trkpt>
      <trkpt lat="39.774756" lon="-8.833694">
        <ele>20.7</ele>
        <time>1970-01-01T00:59:25.000Z</time>
      </trkpt>
      <trkpt lat="39.774741" lon="-8.833694">
        <ele>20.7</ele>
        <time>1970-01-01T00:59:26.000Z</time>
      </trkpt>
      <trkpt lat="39.77471" lon="-8.833692">
        <ele>20.8</ele>
        <time>1970-01-01T00:59:27.000Z</time>
      </trkpt>
      <trkpt lat="39.774682" lon="-8.833695">
        <ele>20.9</ele>
        <time>1970-01-01T00:59:28.000Z</time>
      </trkpt>
      <trkpt lat="39.774644" lon="-8.8337">
        <ele>21.1</ele>
        <time>1970-01-01T00:59:29.000Z</time>
      </trkpt>
      <trkpt lat="39.774633" lon="-8.833703">
        <ele>21.1</ele>
        <time>1970-01-01T00:59:30.000Z</time>
      </trkpt>
      <trkpt lat="39.774606" lon="-8.833707">
        <ele>21.2</ele>
        <time>1970-01-01T00:59:31.000Z</time>
      </trkpt>
      <trkpt lat="39.774571" lon="-8.833707">
        <ele>21.3</ele>
        <time>1970-01-01T00:59:32.000Z</time>
      </trkpt>
      <trkpt lat="39.774559" lon="-8.833707">
        <ele>21.4</ele>
        <time>1970-01-01T00:59:33.000Z</time>
      </trkpt>
      <trkpt lat="39.774519" lon="-8.833713">
        <ele>21.5</ele>
        <time>1970-01-01T00:59:34.000Z</time>
      </trkpt>
      <trkpt lat="39.774504" lon="-8.833715">
        <ele>21.5</ele>
        <time>1970-01-01T00:59:35.000Z</time>
      </trkpt>
      <trkpt lat="39.774476" lon="-8.833718">
        <ele>21.6</ele>
        <time>1970-01-01T00:59:36.000Z</time>
      </trkpt>
      <trkpt lat="39.774447" lon="-8.833707">
        <ele>21.7</ele>
        <time>1970-01-01T00:59:37.000Z</time>
      </trkpt>
      <trkpt lat="39.774436" lon="-8.833702">
        <ele>21.7</ele>
        <time>1970-01-01T00:59:38.000Z</time>
      </trkpt>
      <trkpt lat="39.774404" lon="-8.833671">
        <ele>21.9</ele>
        <time>1970-01-01T00:59:39.000Z</time>
      </trkpt>
      <trkpt lat="39.774394" lon="-8.833654">
        <ele>21.9</ele>
        <time>1970-01-01T00:59:40.000Z</time>
      </trkpt>
      <trkpt lat="39.774377" lon="-8.833623">
        <ele>22</ele>
        <time>1970-01-01T00:59:41.000Z</time>
      </trkpt>
      <trkpt lat="39.77437" lon="-8.833578">
        <ele>22.1</ele>
        <time>1970-01-01T00:59:42.000Z</time>
      </trkpt>
      <trkpt lat="39.774363" lon="-8.833534">
        <ele>22.2</ele>
        <time>1970-01-01T00:59:43.000Z</time>
      </trkpt>
      <trkpt lat="39.774359" lon="-8.833486">
        <ele>22.2</ele>
        <time>1970-01-01T00:59:44.000Z</time>
      </trkpt>
      <trkpt lat="39.774346" lon="-8.833454">
        <ele>22.3</ele>
        <time>1970-01-01T00:59:45.000Z</time>
      </trkpt>
      <trkpt lat="39.77434" lon="-8.833415">
        <ele>22.3</ele>
        <time>1970-01-01T00:59:46.000Z</time>
      </trkpt>
      <trkpt lat="39.77433" lon="-8.833377">
        <ele>22.3</ele>
        <time>1970-01-01T00:59:47.000Z</time>
      </trkpt>
      <trkpt lat="39.774324" lon="-8.833339">
        <ele>22.4</ele>
        <time>1970-01-01T00:59:48.000Z</time>
      </trkpt>
      <trkpt lat="39.774319" lon="-8.833296">
        <ele>22.4</ele>
        <time>1970-01-01T00:59:49.000Z</time>
      </trkpt>
      <trkpt lat="39.774313" lon="-8.833259">
        <ele>22.4</ele>
        <time>1970-01-01T00:59:50.000Z</time>
      </trkpt>
      <trkpt lat="39.774305" lon="-8.833215">
        <ele>22.4</ele>
        <time>1970-01-01T00:59:51.000Z</time>
      </trkpt>
      <trkpt lat="39.774302" lon="-8.833197">
        <ele>22.4</ele>
        <time>1970-01-01T00:59:52.000Z</time>
      </trkpt>
      <trkpt lat="39.774297" lon="-8.83316">
        <ele>22.4</ele>
        <time>1970-01-01T00:59:53.000Z</time>
      </trkpt>
      <trkpt lat="39.774291" lon="-8.833121">
        <ele>22.4</ele>
        <time>1970-01-01T00:59:54.000Z</time>
      </trkpt>
      <trkpt lat="39.77428" lon="-8.833073">
        <ele>22.4</ele>
        <time>1970-01-01T00:59:55.000Z</time>
      </trkpt>
      <trkpt lat="39.774269" lon="-8.83302">
        <ele>22.4</ele>
        <time>1970-01-01T00:59:56.000Z</time>
      </trkpt>
      <trkpt lat="39.774255" lon="-8.832958">
        <ele>22.3</ele>
        <time>1970-01-01T00:59:57.000Z</time>
      </trkpt>
      <trkpt lat="39.774238" lon="-8.832891">
        <ele>22.2</ele>
        <time>1970-01-01T00:59:58.000Z</time>
      </trkpt>
      <trkpt lat="39.774222" lon="-8.832822">
        <ele>22</ele>
        <time>1970-01-01T00:59:59.000Z</time>
      </trkpt>
      <trkpt lat="39.7742" lon="-8.832746">
        <ele>21.8</ele>
        <time>1970-01-01T01:00:00.000Z</time>
      </trkpt>
      <trkpt lat="39.774168" lon="-8.832668">
        <ele>21.6</ele>
        <time>1970-01-01T01:00:01.000Z</time>
      </trkpt>
      <trkpt lat="39.774135" lon="-8.83259">
        <ele>21.4</ele>
        <time>1970-01-01T01:00:02.000Z</time>
      </trkpt>
      <trkpt lat="39.774098" lon="-8.83251">
        <ele>21.3</ele>
        <time>1970-01-01T01:00:03.000Z</time>
      </trkpt>
      <trkpt lat="39.774058" lon="-8.832434">
        <ele>21.1</ele>
        <time>1970-01-01T01:00:04.000Z</time>
      </trkpt>
      <trkpt lat="39.774016" lon="-8.832362">
        <ele>21</ele>
        <time>1970-01-01T01:00:05.000Z</time>
      </trkpt>
      <trkpt lat="39.773976" lon="-8.832293">
        <ele>20.9</ele>
        <time>1970-01-01T01:00:06.000Z</time>
      </trkpt>
      <trkpt lat="39.773935" lon="-8.832224">
        <ele>20.8</ele>
        <time>1970-01-01T01:00:07.000Z</time>
      </trkpt>
      <trkpt lat="39.773897" lon="-8.832154">
        <ele>20.7</ele>
        <time>1970-01-01T01:00:08.000Z</time>
      </trkpt>
      <trkpt lat="39.77386" lon="-8.832091">
        <ele>20.7</ele>
        <time>1970-01-01T01:00:09.000Z</time>
      </trkpt>
      <trkpt lat="39.773825" lon="-8.832027">
        <ele>20.7</ele>
        <time>1970-01-01T01:00:10.000Z</time>
      </trkpt>
      <trkpt lat="39.773792" lon="-8.831964">
        <ele>20.7</ele>
        <time>1970-01-01T01:00:11.000Z</time>
      </trkpt>
      <trkpt lat="39.773753" lon="-8.831904">
        <ele>20.7</ele>
        <time>1970-01-01T01:00:12.000Z</time>
      </trkpt>
      <trkpt lat="39.773721" lon="-8.831843">
        <ele>20.7</ele>
        <time>1970-01-01T01:00:13.000Z</time>
      </trkpt>
      <trkpt lat="39.773695" lon="-8.831786">
        <ele>20.7</ele>
        <time>1970-01-01T01:00:14.000Z</time>
      </trkpt>
      <trkpt lat="39.773657" lon="-8.831732">
        <ele>20.7</ele>
        <time>1970-01-01T01:00:15.000Z</time>
      </trkpt>
      <trkpt lat="39.773617" lon="-8.831673">
        <ele>20.8</ele>
        <time>1970-01-01T01:00:16.000Z</time>
      </trkpt>
      <trkpt lat="39.77358" lon="-8.831611">
        <ele>20.8</ele>
        <time>1970-01-01T01:00:17.000Z</time>
      </trkpt>
      <trkpt lat="39.773543" lon="-8.831541">
        <ele>20.8</ele>
        <time>1970-01-01T01:00:18.000Z</time>
      </trkpt>
      <trkpt lat="39.773513" lon="-8.831486">
        <ele>20.8</ele>
        <time>1970-01-01T01:00:19.000Z</time>
      </trkpt>
      <trkpt lat="39.773483" lon="-8.831426">
        <ele>20.7</ele>
        <time>1970-01-01T01:00:20.000Z</time>
      </trkpt>
      <trkpt lat="39.773446" lon="-8.831374">
        <ele>20.7</ele>
        <time>1970-01-01T01:00:21.000Z</time>
      </trkpt>
      <trkpt lat="39.773418" lon="-8.831319">
        <ele>20.7</ele>
        <time>1970-01-01T01:00:22.000Z</time>
      </trkpt>
      <trkpt lat="39.773389" lon="-8.831257">
        <ele>20.8</ele>
        <time>1970-01-01T01:00:23.000Z</time>
      </trkpt>
      <trkpt lat="39.773356" lon="-8.831199">
        <ele>20.8</ele>
        <time>1970-01-01T01:00:24.000Z</time>
      </trkpt>
      <trkpt lat="39.773324" lon="-8.831147">
        <ele>20.8</ele>
        <time>1970-01-01T01:00:25.000Z</time>
      </trkpt>
      <trkpt lat="39.773293" lon="-8.831093">
        <ele>20.9</ele>
        <time>1970-01-01T01:00:26.000Z</time>
      </trkpt>
      <trkpt lat="39.773263" lon="-8.83104">
        <ele>20.9</ele>
        <time>1970-01-01T01:00:27.000Z</time>
      </trkpt>
      <trkpt lat="39.773234" lon="-8.830977">
        <ele>20.9</ele>
        <time>1970-01-01T01:00:28.000Z</time>
      </trkpt>
      <trkpt lat="39.773202" lon="-8.830926">
        <ele>21</ele>
        <time>1970-01-01T01:00:29.000Z</time>
      </trkpt>
      <trkpt lat="39.773172" lon="-8.830855">
        <ele>21</ele>
        <time>1970-01-01T01:00:30.000Z</time>
      </trkpt>
      <trkpt lat="39.773141" lon="-8.830789">
        <ele>21.1</ele>
        <time>1970-01-01T01:00:31.000Z</time>
      </trkpt>
      <trkpt lat="39.773113" lon="-8.830724">
        <ele>21.2</ele>
        <time>1970-01-01T01:00:32.000Z</time>
      </trkpt>
      <trkpt lat="39.773088" lon="-8.830657">
        <ele>21.3</ele>
        <time>1970-01-01T01:00:33.000Z</time>
      </trkpt>
      <trkpt lat="39.773058" lon="-8.830603">
        <ele>21.4</ele>
        <time>1970-01-01T01:00:34.000Z</time>
      </trkpt>
      <trkpt lat="39.773029" lon="-8.830544">
        <ele>21.5</ele>
        <time>1970-01-01T01:00:35.000Z</time>
      </trkpt>
      <trkpt lat="39.772997" lon="-8.830476">
        <ele>21.6</ele>
        <time>1970-01-01T01:00:36.000Z</time>
      </trkpt>
      <trkpt lat="39.77297" lon="-8.830411">
        <ele>21.7</ele>
        <time>1970-01-01T01:00:37.000Z</time>
      </trkpt>
      <trkpt lat="39.772946" lon="-8.830334">
        <ele>21.9</ele>
        <time>1970-01-01T01:00:38.000Z</time>
      </trkpt>
      <trkpt lat="39.772934" lon="-8.830255">
        <ele>22</ele>
        <time>1970-01-01T01:00:39.000Z</time>
      </trkpt>
      <trkpt lat="39.772913" lon="-8.830187">
        <ele>22.2</ele>
        <time>1970-01-01T01:00:40.000Z</time>
      </trkpt>
      <trkpt lat="39.772897" lon="-8.830122">
        <ele>22.3</ele>
        <time>1970-01-01T01:00:41.000Z</time>
      </trkpt>
      <trkpt lat="39.772886" lon="-8.830063">
        <ele>22.4</ele>
        <time>1970-01-01T01:00:42.000Z</time>
      </trkpt>
      <trkpt lat="39.772881" lon="-8.830008">
        <ele>22.5</ele>
        <time>1970-01-01T01:00:43.000Z</time>
      </trkpt>
      <trkpt lat="39.772888" lon="-8.829954">
        <ele>22.7</ele>
        <time>1970-01-01T01:00:44.000Z</time>
      </trkpt>
      <trkpt lat="39.772885" lon="-8.829894">
        <ele>22.8</ele>
        <time>1970-01-01T01:00:45.000Z</time>
      </trkpt>
      <trkpt lat="39.772886" lon="-8.829834">
        <ele>22.9</ele>
        <time>1970-01-01T01:00:46.000Z</time>
      </trkpt>
      <trkpt lat="39.772887" lon="-8.829778">
        <ele>23</ele>
        <time>1970-01-01T01:00:47.000Z</time>
      </trkpt>
      <trkpt lat="39.772889" lon="-8.82972">
        <ele>23.2</ele>
        <time>1970-01-01T01:00:48.000Z</time>
      </trkpt>
      <trkpt lat="39.772892" lon="-8.829668">
        <ele>23.3</ele>
        <time>1970-01-01T01:00:49.000Z</time>
      </trkpt>
      <trkpt lat="39.772892" lon="-8.829615">
        <ele>23.4</ele>
        <time>1970-01-01T01:00:50.000Z</time>
      </trkpt>
      <trkpt lat="39.772892" lon="-8.829561">
        <ele>23.5</ele>
        <time>1970-01-01T01:00:52.000Z</time>
      </trkpt>
      <trkpt lat="39.772892" lon="-8.829507">
        <ele>23.7</ele>
        <time>1970-01-01T01:00:53.000Z</time>
      </trkpt>
      <trkpt lat="39.772894" lon="-8.829452">
        <ele>23.8</ele>
        <time>1970-01-01T01:00:54.000Z</time>
      </trkpt>
      <trkpt lat="39.772896" lon="-8.829398">
        <ele>23.9</ele>
        <time>1970-01-01T01:00:55.000Z</time>
      </trkpt>
      <trkpt lat="39.772896" lon="-8.829343">
        <ele>24.1</ele>
        <time>1970-01-01T01:00:56.000Z</time>
      </trkpt>
      <trkpt lat="39.772899" lon="-8.829291">
        <ele>24.2</ele>
        <time>1970-01-01T01:00:57.000Z</time>
      </trkpt>
      <trkpt lat="39.772903" lon="-8.829241">
        <ele>24.3</ele>
        <time>1970-01-01T01:00:58.000Z</time>
      </trkpt>
      <trkpt lat="39.772903" lon="-8.829184">
        <ele>24.4</ele>
        <time>1970-01-01T01:00:59.000Z</time>
      </trkpt>
      <trkpt lat="39.772904" lon="-8.829126">
        <ele>24.5</ele>
        <time>1970-01-01T01:01:00.000Z</time>
      </trkpt>
      <trkpt lat="39.772907" lon="-8.829072">
        <ele>24.5</ele>
        <time>1970-01-01T01:01:01.000Z</time>
      </trkpt>
      <trkpt lat="39.772909" lon="-8.82901">
        <ele>24.6</ele>
        <time>1970-01-01T01:01:02.000Z</time>
      </trkpt>
      <trkpt lat="39.772913" lon="-8.828944">
        <ele>24.7</ele>
        <time>1970-01-01T01:01:03.000Z</time>
      </trkpt>
      <trkpt lat="39.772917" lon="-8.828875">
        <ele>24.8</ele>
        <time>1970-01-01T01:01:04.000Z</time>
      </trkpt>
      <trkpt lat="39.772917" lon="-8.828808">
        <ele>24.9</ele>
        <time>1970-01-01T01:01:05.000Z</time>
      </trkpt>
      <trkpt lat="39.772918" lon="-8.828745">
        <ele>25</ele>
        <time>1970-01-01T01:01:06.000Z</time>
      </trkpt>
      <trkpt lat="39.772925" lon="-8.828689">
        <ele>25.1</ele>
        <time>1970-01-01T01:01:07.000Z</time>
      </trkpt>
      <trkpt lat="39.772928" lon="-8.82862">
        <ele>25.3</ele>
        <time>1970-01-01T01:01:08.000Z</time>
      </trkpt>
      <trkpt lat="39.772924" lon="-8.828564">
        <ele>25.4</ele>
        <time>1970-01-01T01:01:09.000Z</time>
      </trkpt>
      <trkpt lat="39.772919" lon="-8.828507">
        <ele>25.4</ele>
        <time>1970-01-01T01:01:10.000Z</time>
      </trkpt>
      <trkpt lat="39.772908" lon="-8.828467">
        <ele>25.5</ele>
        <time>1970-01-01T01:01:11.000Z</time>
      </trkpt>
      <trkpt lat="39.772883" lon="-8.828451">
        <ele>25.5</ele>
        <time>1970-01-01T01:01:12.000Z</time>
      </trkpt>
      <trkpt lat="39.772806" lon="-8.828442">
        <ele>25.6</ele>
        <time>1970-01-01T01:01:13.000Z</time>
      </trkpt>
      <trkpt lat="39.77277" lon="-8.828427">
        <ele>25.6</ele>
        <time>1970-01-01T01:01:14.000Z</time>
      </trkpt>
      <trkpt lat="39.772726" lon="-8.82841">
        <ele>25.7</ele>
        <time>1970-01-01T01:01:15.000Z</time>
      </trkpt>
      <trkpt lat="39.772691" lon="-8.828393">
        <ele>25.7</ele>
        <time>1970-01-01T01:01:16.000Z</time>
      </trkpt>
      <trkpt lat="39.772657" lon="-8.828385">
        <ele>25.8</ele>
        <time>1970-01-01T01:01:17.000Z</time>
      </trkpt>
      <trkpt lat="39.772607" lon="-8.828379">
        <ele>25.8</ele>
        <time>1970-01-01T01:01:18.000Z</time>
      </trkpt>
      <trkpt lat="39.772567" lon="-8.828368">
        <ele>25.9</ele>
        <time>1970-01-01T01:01:19.000Z</time>
      </trkpt>
      <trkpt lat="39.772524" lon="-8.828355">
        <ele>26</ele>
        <time>1970-01-01T01:01:20.000Z</time>
      </trkpt>
      <trkpt lat="39.772483" lon="-8.828343">
        <ele>26</ele>
        <time>1970-01-01T01:01:21.000Z</time>
      </trkpt>
      <trkpt lat="39.77244" lon="-8.828332">
        <ele>26.1</ele>
        <time>1970-01-01T01:01:22.000Z</time>
      </trkpt>
      <trkpt lat="39.7724" lon="-8.828325">
        <ele>26.2</ele>
        <time>1970-01-01T01:01:23.000Z</time>
      </trkpt>
      <trkpt lat="39.772365" lon="-8.828319">
        <ele>26.2</ele>
        <time>1970-01-01T01:01:24.000Z</time>
      </trkpt>
      <trkpt lat="39.772328" lon="-8.828285">
        <ele>26.3</ele>
        <time>1970-01-01T01:01:25.000Z</time>
      </trkpt>
      <trkpt lat="39.772293" lon="-8.828288">
        <ele>26.3</ele>
        <time>1970-01-01T01:01:26.000Z</time>
      </trkpt>
      <trkpt lat="39.772254" lon="-8.82827">
        <ele>26.4</ele>
        <time>1970-01-01T01:01:27.000Z</time>
      </trkpt>
      <trkpt lat="39.772208" lon="-8.828253">
        <ele>26.4</ele>
        <time>1970-01-01T01:01:28.000Z</time>
      </trkpt>
      <trkpt lat="39.772167" lon="-8.828232">
        <ele>26.5</ele>
        <time>1970-01-01T01:01:29.000Z</time>
      </trkpt>
      <trkpt lat="39.772126" lon="-8.828214">
        <ele>26.5</ele>
        <time>1970-01-01T01:01:30.000Z</time>
      </trkpt>
      <trkpt lat="39.772086" lon="-8.828192">
        <ele>26.6</ele>
        <time>1970-01-01T01:01:31.000Z</time>
      </trkpt>
      <trkpt lat="39.772046" lon="-8.828166">
        <ele>26.6</ele>
        <time>1970-01-01T01:01:32.000Z</time>
      </trkpt>
      <trkpt lat="39.772017" lon="-8.828147">
        <ele>26.7</ele>
        <time>1970-01-01T01:01:33.000Z</time>
      </trkpt>
      <trkpt lat="39.771971" lon="-8.82813">
        <ele>26.7</ele>
        <time>1970-01-01T01:01:34.000Z</time>
      </trkpt>
      <trkpt lat="39.771936" lon="-8.828097">
        <ele>26.8</ele>
        <time>1970-01-01T01:01:35.000Z</time>
      </trkpt>
      <trkpt lat="39.771893" lon="-8.828072">
        <ele>26.8</ele>
        <time>1970-01-01T01:01:36.000Z</time>
      </trkpt>
      <trkpt lat="39.771846" lon="-8.828042">
        <ele>26.9</ele>
        <time>1970-01-01T01:01:37.000Z</time>
      </trkpt>
      <trkpt lat="39.771799" lon="-8.828013">
        <ele>26.9</ele>
        <time>1970-01-01T01:01:38.000Z</time>
      </trkpt>
      <trkpt lat="39.771756" lon="-8.827994">
        <ele>27</ele>
        <time>1970-01-01T01:01:39.000Z</time>
      </trkpt>
      <trkpt lat="39.771717" lon="-8.827977">
        <ele>27</ele>
        <time>1970-01-01T01:01:40.000Z</time>
      </trkpt>
      <trkpt lat="39.771682" lon="-8.827945">
        <ele>27</ele>
        <time>1970-01-01T01:01:41.000Z</time>
      </trkpt>
      <trkpt lat="39.771639" lon="-8.827917">
        <ele>27</ele>
        <time>1970-01-01T01:01:42.000Z</time>
      </trkpt>
      <trkpt lat="39.771616" lon="-8.827886">
        <ele>27</ele>
        <time>1970-01-01T01:01:43.000Z</time>
      </trkpt>
      <trkpt lat="39.771577" lon="-8.827859">
        <ele>27.1</ele>
        <time>1970-01-01T01:01:44.000Z</time>
      </trkpt>
      <trkpt lat="39.771534" lon="-8.827835">
        <ele>27.1</ele>
        <time>1970-01-01T01:01:45.000Z</time>
      </trkpt>
      <trkpt lat="39.771496" lon="-8.827798">
        <ele>27.2</ele>
        <time>1970-01-01T01:01:46.000Z</time>
      </trkpt>
      <trkpt lat="39.771462" lon="-8.827763">
        <ele>27.2</ele>
        <time>1970-01-01T01:01:47.000Z</time>
      </trkpt>
      <trkpt lat="39.771425" lon="-8.82773">
        <ele>27.2</ele>
        <time>1970-01-01T01:01:48.000Z</time>
      </trkpt>
      <trkpt lat="39.771395" lon="-8.827699">
        <ele>27.3</ele>
        <time>1970-01-01T01:01:49.000Z</time>
      </trkpt>
      <trkpt lat="39.771355" lon="-8.827677">
        <ele>27.3</ele>
        <time>1970-01-01T01:01:50.000Z</time>
      </trkpt>
      <trkpt lat="39.771316" lon="-8.827639">
        <ele>27.3</ele>
        <time>1970-01-01T01:01:51.000Z</time>
      </trkpt>
      <trkpt lat="39.771271" lon="-8.827602">
        <ele>27.4</ele>
        <time>1970-01-01T01:01:52.000Z</time>
      </trkpt>
      <trkpt lat="39.771226" lon="-8.827572">
        <ele>27.4</ele>
        <time>1970-01-01T01:01:53.000Z</time>
      </trkpt>
      <trkpt lat="39.771188" lon="-8.827544">
        <ele>27.4</ele>
        <time>1970-01-01T01:01:54.000Z</time>
      </trkpt>
      <trkpt lat="39.771146" lon="-8.827521">
        <ele>27.5</ele>
        <time>1970-01-01T01:01:55.000Z</time>
      </trkpt>
      <trkpt lat="39.771102" lon="-8.827499">
        <ele>27.5</ele>
        <time>1970-01-01T01:01:56.000Z</time>
      </trkpt>
      <trkpt lat="39.771066" lon="-8.827477">
        <ele>27.6</ele>
        <time>1970-01-01T01:01:57.000Z</time>
      </trkpt>
      <trkpt lat="39.771034" lon="-8.827453">
        <ele>27.6</ele>
        <time>1970-01-01T01:01:58.000Z</time>
      </trkpt>
      <trkpt lat="39.770998" lon="-8.827431">
        <ele>27.6</ele>
        <time>1970-01-01T01:01:59.000Z</time>
      </trkpt>
      <trkpt lat="39.770958" lon="-8.827414">
        <ele>27.7</ele>
        <time>1970-01-01T01:02:00.000Z</time>
      </trkpt>
      <trkpt lat="39.770921" lon="-8.827391">
        <ele>27.7</ele>
        <time>1970-01-01T01:02:01.000Z</time>
      </trkpt>
      <trkpt lat="39.770885" lon="-8.827378">
        <ele>27.8</ele>
        <time>1970-01-01T01:02:02.000Z</time>
      </trkpt>
      <trkpt lat="39.770852" lon="-8.827365">
        <ele>27.8</ele>
        <time>1970-01-01T01:02:03.000Z</time>
      </trkpt>
      <trkpt lat="39.770826" lon="-8.827354">
        <ele>27.8</ele>
        <time>1970-01-01T01:02:04.000Z</time>
      </trkpt>
      <trkpt lat="39.770786" lon="-8.827345">
        <ele>27.9</ele>
        <time>1970-01-01T01:02:05.000Z</time>
      </trkpt>
      <trkpt lat="39.770742" lon="-8.827328">
        <ele>28</ele>
        <time>1970-01-01T01:02:06.000Z</time>
      </trkpt>
      <trkpt lat="39.770693" lon="-8.827304">
        <ele>28</ele>
        <time>1970-01-01T01:02:07.000Z</time>
      </trkpt>
      <trkpt lat="39.770644" lon="-8.827285">
        <ele>28.1</ele>
        <time>1970-01-01T01:02:08.000Z</time>
      </trkpt>
      <trkpt lat="39.770603" lon="-8.827265">
        <ele>28.2</ele>
        <time>1970-01-01T01:02:09.000Z</time>
      </trkpt>
      <trkpt lat="39.77056" lon="-8.82724">
        <ele>28.2</ele>
        <time>1970-01-01T01:02:10.000Z</time>
      </trkpt>
      <trkpt lat="39.770511" lon="-8.82722">
        <ele>28.3</ele>
        <time>1970-01-01T01:02:11.000Z</time>
      </trkpt>
      <trkpt lat="39.770466" lon="-8.827195">
        <ele>28.4</ele>
        <time>1970-01-01T01:02:12.000Z</time>
      </trkpt>
      <trkpt lat="39.770425" lon="-8.827168">
        <ele>28.5</ele>
        <time>1970-01-01T01:02:13.000Z</time>
      </trkpt>
      <trkpt lat="39.770375" lon="-8.827144">
        <ele>28.6</ele>
        <time>1970-01-01T01:02:14.000Z</time>
      </trkpt>
      <trkpt lat="39.770324" lon="-8.827118">
        <ele>28.7</ele>
        <time>1970-01-01T01:02:15.000Z</time>
      </trkpt>
      <trkpt lat="39.77027" lon="-8.827092">
        <ele>28.8</ele>
        <time>1970-01-01T01:02:16.000Z</time>
      </trkpt>
      <trkpt lat="39.770229" lon="-8.827066">
        <ele>28.8</ele>
        <time>1970-01-01T01:02:17.000Z</time>
      </trkpt>
      <trkpt lat="39.77018" lon="-8.827037">
        <ele>29</ele>
        <time>1970-01-01T01:02:18.000Z</time>
      </trkpt>
      <trkpt lat="39.770139" lon="-8.82701">
        <ele>29.1</ele>
        <time>1970-01-01T01:02:19.000Z</time>
      </trkpt>
      <trkpt lat="39.770102" lon="-8.82699">
        <ele>29.1</ele>
        <time>1970-01-01T01:02:20.000Z</time>
      </trkpt>
      <trkpt lat="39.770059" lon="-8.826974">
        <ele>29.2</ele>
        <time>1970-01-01T01:02:21.000Z</time>
      </trkpt>
      <trkpt lat="39.770015" lon="-8.826951">
        <ele>29.3</ele>
        <time>1970-01-01T01:02:22.000Z</time>
      </trkpt>
      <trkpt lat="39.769968" lon="-8.826926">
        <ele>29.4</ele>
        <time>1970-01-01T01:02:23.000Z</time>
      </trkpt>
      <trkpt lat="39.769922" lon="-8.826892">
        <ele>29.5</ele>
        <time>1970-01-01T01:02:24.000Z</time>
      </trkpt>
      <trkpt lat="39.769877" lon="-8.826867">
        <ele>29.6</ele>
        <time>1970-01-01T01:02:25.000Z</time>
      </trkpt>
      <trkpt lat="39.769831" lon="-8.826843">
        <ele>29.7</ele>
        <time>1970-01-01T01:02:26.000Z</time>
      </trkpt>
      <trkpt lat="39.769784" lon="-8.826819">
        <ele>29.8</ele>
        <time>1970-01-01T01:02:27.000Z</time>
      </trkpt>
      <trkpt lat="39.769735" lon="-8.826788">
        <ele>30</ele>
        <time>1970-01-01T01:02:28.000Z</time>
      </trkpt>
      <trkpt lat="39.769695" lon="-8.826763">
        <ele>30.1</ele>
        <time>1970-01-01T01:02:29.000Z</time>
      </trkpt>
      <trkpt lat="39.769657" lon="-8.826744">
        <ele>30.2</ele>
        <time>1970-01-01T01:02:30.000Z</time>
      </trkpt>
      <trkpt lat="39.769606" lon="-8.826714">
        <ele>30.3</ele>
        <time>1970-01-01T01:02:31.000Z</time>
      </trkpt>
      <trkpt lat="39.769563" lon="-8.826689">
        <ele>30.4</ele>
        <time>1970-01-01T01:02:32.000Z</time>
      </trkpt>
      <trkpt lat="39.769525" lon="-8.82665">
        <ele>30.5</ele>
        <time>1970-01-01T01:02:33.000Z</time>
      </trkpt>
      <trkpt lat="39.769485" lon="-8.826624">
        <ele>30.6</ele>
        <time>1970-01-01T01:02:34.000Z</time>
      </trkpt>
      <trkpt lat="39.769436" lon="-8.826605">
        <ele>30.7</ele>
        <time>1970-01-01T01:02:35.000Z</time>
      </trkpt>
      <trkpt lat="39.769402" lon="-8.826573">
        <ele>30.8</ele>
        <time>1970-01-01T01:02:36.000Z</time>
      </trkpt>
      <trkpt lat="39.769371" lon="-8.826542">
        <ele>30.9</ele>
        <time>1970-01-01T01:02:37.000Z</time>
      </trkpt>
      <trkpt lat="39.769343" lon="-8.826509">
        <ele>30.9</ele>
        <time>1970-01-01T01:02:38.000Z</time>
      </trkpt>
      <trkpt lat="39.769306" lon="-8.826483">
        <ele>31</ele>
        <time>1970-01-01T01:02:39.000Z</time>
      </trkpt>
      <trkpt lat="39.76929" lon="-8.826478">
        <ele>31</ele>
        <time>1970-01-01T01:02:40.000Z</time>
      </trkpt>
      <trkpt lat="39.769261" lon="-8.826451">
        <ele>31</ele>
        <time>1970-01-01T01:02:41.000Z</time>
      </trkpt>
      <trkpt lat="39.769232" lon="-8.826422">
        <ele>31</ele>
        <time>1970-01-01T01:02:42.000Z</time>
      </trkpt>
      <trkpt lat="39.769203" lon="-8.826398">
        <ele>31</ele>
        <time>1970-01-01T01:02:43.000Z</time>
      </trkpt>
      <trkpt lat="39.769172" lon="-8.826372">
        <ele>31.1</ele>
        <time>1970-01-01T01:02:44.000Z</time>
      </trkpt>
      <trkpt lat="39.769143" lon="-8.826345">
        <ele>31.1</ele>
        <time>1970-01-01T01:02:45.000Z</time>
      </trkpt>
      <trkpt lat="39.769112" lon="-8.826307">
        <ele>31.1</ele>
        <time>1970-01-01T01:02:46.000Z</time>
      </trkpt>
      <trkpt lat="39.769081" lon="-8.826273">
        <ele>31.1</ele>
        <time>1970-01-01T01:02:47.000Z</time>
      </trkpt>
      <trkpt lat="39.769061" lon="-8.826223">
        <ele>31.2</ele>
        <time>1970-01-01T01:02:48.000Z</time>
      </trkpt>
      <trkpt lat="39.769038" lon="-8.826177">
        <ele>31.2</ele>
        <time>1970-01-01T01:02:49.000Z</time>
      </trkpt>
      <trkpt lat="39.76901" lon="-8.826133">
        <ele>31.2</ele>
        <time>1970-01-01T01:02:50.000Z</time>
      </trkpt>
      <trkpt lat="39.76898" lon="-8.826089">
        <ele>31.3</ele>
        <time>1970-01-01T01:02:51.000Z</time>
      </trkpt>
      <trkpt lat="39.76895" lon="-8.82605">
        <ele>31.4</ele>
        <time>1970-01-01T01:02:52.000Z</time>
      </trkpt>
      <trkpt lat="39.768917" lon="-8.826002">
        <ele>31.4</ele>
        <time>1970-01-01T01:02:53.000Z</time>
      </trkpt>
      <trkpt lat="39.768885" lon="-8.825968">
        <ele>31.5</ele>
        <time>1970-01-01T01:02:54.000Z</time>
      </trkpt>
      <trkpt lat="39.768853" lon="-8.825939">
        <ele>31.5</ele>
        <time>1970-01-01T01:02:55.000Z</time>
      </trkpt>
      <trkpt lat="39.76882" lon="-8.825918">
        <ele>31.6</ele>
        <time>1970-01-01T01:02:56.000Z</time>
      </trkpt>
      <trkpt lat="39.768788" lon="-8.825896">
        <ele>31.6</ele>
        <time>1970-01-01T01:02:58.000Z</time>
      </trkpt>
      <trkpt lat="39.768757" lon="-8.82588">
        <ele>31.7</ele>
        <time>1970-01-01T01:02:59.000Z</time>
      </trkpt>
      <trkpt lat="39.768725" lon="-8.825863">
        <ele>31.7</ele>
        <time>1970-01-01T01:03:00.000Z</time>
      </trkpt>
      <trkpt lat="39.768693" lon="-8.825834">
        <ele>31.8</ele>
        <time>1970-01-01T01:03:01.000Z</time>
      </trkpt>
      <trkpt lat="39.768666" lon="-8.82581">
        <ele>31.9</ele>
        <time>1970-01-01T01:03:02.000Z</time>
      </trkpt>
      <trkpt lat="39.768593" lon="-8.825775">
        <ele>32</ele>
        <time>1970-01-01T01:03:03.000Z</time>
      </trkpt>
      <trkpt lat="39.768558" lon="-8.825759">
        <ele>32</ele>
        <time>1970-01-01T01:03:04.000Z</time>
      </trkpt>
      <trkpt lat="39.76852" lon="-8.825745">
        <ele>32.1</ele>
        <time>1970-01-01T01:03:05.000Z</time>
      </trkpt>
      <trkpt lat="39.768485" lon="-8.825729">
        <ele>32.1</ele>
        <time>1970-01-01T01:03:06.000Z</time>
      </trkpt>
      <trkpt lat="39.768447" lon="-8.825706">
        <ele>32.2</ele>
        <time>1970-01-01T01:03:08.000Z</time>
      </trkpt>
      <trkpt lat="39.768359" lon="-8.825664">
        <ele>32.3</ele>
        <time>1970-01-01T01:03:09.000Z</time>
      </trkpt>
      <trkpt lat="39.768315" lon="-8.82565">
        <ele>32.3</ele>
        <time>1970-01-01T01:03:10.000Z</time>
      </trkpt>
      <trkpt lat="39.768278" lon="-8.825625">
        <ele>32.4</ele>
        <time>1970-01-01T01:03:11.000Z</time>
      </trkpt>
      <trkpt lat="39.768234" lon="-8.825608">
        <ele>32.4</ele>
        <time>1970-01-01T01:03:12.000Z</time>
      </trkpt>
      <trkpt lat="39.768188" lon="-8.825597">
        <ele>32.5</ele>
        <time>1970-01-01T01:03:13.000Z</time>
      </trkpt>
      <trkpt lat="39.768143" lon="-8.825585">
        <ele>32.5</ele>
        <time>1970-01-01T01:03:14.000Z</time>
      </trkpt>
      <trkpt lat="39.768102" lon="-8.825568">
        <ele>32.6</ele>
        <time>1970-01-01T01:03:15.000Z</time>
      </trkpt>
      <trkpt lat="39.768058" lon="-8.825548">
        <ele>32.6</ele>
        <time>1970-01-01T01:03:16.000Z</time>
      </trkpt>
      <trkpt lat="39.768021" lon="-8.825531">
        <ele>32.6</ele>
        <time>1970-01-01T01:03:17.000Z</time>
      </trkpt>
      <trkpt lat="39.767984" lon="-8.825518">
        <ele>32.7</ele>
        <time>1970-01-01T01:03:18.000Z</time>
      </trkpt>
      <trkpt lat="39.767939" lon="-8.825507">
        <ele>32.7</ele>
        <time>1970-01-01T01:03:19.000Z</time>
      </trkpt>
      <trkpt lat="39.767889" lon="-8.825495">
        <ele>32.7</ele>
        <time>1970-01-01T01:03:20.000Z</time>
      </trkpt>
      <trkpt lat="39.767846" lon="-8.825471">
        <ele>32.7</ele>
        <time>1970-01-01T01:03:21.000Z</time>
      </trkpt>
      <trkpt lat="39.7678" lon="-8.825443">
        <ele>32.7</ele>
        <time>1970-01-01T01:03:22.000Z</time>
      </trkpt>
      <trkpt lat="39.767753" lon="-8.825414">
        <ele>32.8</ele>
        <time>1970-01-01T01:03:23.000Z</time>
      </trkpt>
      <trkpt lat="39.767712" lon="-8.825396">
        <ele>32.8</ele>
        <time>1970-01-01T01:03:24.000Z</time>
      </trkpt>
      <trkpt lat="39.76767" lon="-8.825392">
        <ele>32.8</ele>
        <time>1970-01-01T01:03:25.000Z</time>
      </trkpt>
      <trkpt lat="39.767629" lon="-8.825391">
        <ele>32.8</ele>
        <time>1970-01-01T01:03:26.000Z</time>
      </trkpt>
      <trkpt lat="39.767582" lon="-8.825395">
        <ele>32.9</ele>
        <time>1970-01-01T01:03:27.000Z</time>
      </trkpt>
      <trkpt lat="39.767542" lon="-8.825393">
        <ele>32.9</ele>
        <time>1970-01-01T01:03:28.000Z</time>
      </trkpt>
      <trkpt lat="39.767489" lon="-8.825384">
        <ele>32.9</ele>
        <time>1970-01-01T01:03:29.000Z</time>
      </trkpt>
      <trkpt lat="39.767439" lon="-8.825378">
        <ele>32.9</ele>
        <time>1970-01-01T01:03:30.000Z</time>
      </trkpt>
      <trkpt lat="39.767381" lon="-8.82537">
        <ele>32.9</ele>
        <time>1970-01-01T01:03:31.000Z</time>
      </trkpt>
      <trkpt lat="39.767328" lon="-8.825368">
        <ele>32.9</ele>
        <time>1970-01-01T01:03:32.000Z</time>
      </trkpt>
      <trkpt lat="39.767273" lon="-8.825353">
        <ele>33</ele>
        <time>1970-01-01T01:03:33.000Z</time>
      </trkpt>
      <trkpt lat="39.767216" lon="-8.825341">
        <ele>33</ele>
        <time>1970-01-01T01:03:34.000Z</time>
      </trkpt>
      <trkpt lat="39.767172" lon="-8.825324">
        <ele>33</ele>
        <time>1970-01-01T01:03:35.000Z</time>
      </trkpt>
      <trkpt lat="39.767127" lon="-8.825305">
        <ele>33</ele>
        <time>1970-01-01T01:03:36.000Z</time>
      </trkpt>
      <trkpt lat="39.767082" lon="-8.825292">
        <ele>33</ele>
        <time>1970-01-01T01:03:37.000Z</time>
      </trkpt>
      <trkpt lat="39.76704" lon="-8.825262">
        <ele>33.1</ele>
        <time>1970-01-01T01:03:38.000Z</time>
      </trkpt>
      <trkpt lat="39.767001" lon="-8.825233">
        <ele>33.1</ele>
        <time>1970-01-01T01:03:39.000Z</time>
      </trkpt>
      <trkpt lat="39.766961" lon="-8.825206">
        <ele>33.1</ele>
        <time>1970-01-01T01:03:40.000Z</time>
      </trkpt>
      <trkpt lat="39.766925" lon="-8.825186">
        <ele>33.2</ele>
        <time>1970-01-01T01:03:41.000Z</time>
      </trkpt>
      <trkpt lat="39.766871" lon="-8.825159">
        <ele>33.3</ele>
        <time>1970-01-01T01:03:42.000Z</time>
      </trkpt>
      <trkpt lat="39.766827" lon="-8.825127">
        <ele>33.4</ele>
        <time>1970-01-01T01:03:43.000Z</time>
      </trkpt>
      <trkpt lat="39.766784" lon="-8.825095">
        <ele>33.5</ele>
        <time>1970-01-01T01:03:44.000Z</time>
      </trkpt>
      <trkpt lat="39.76674" lon="-8.825073">
        <ele>33.7</ele>
        <time>1970-01-01T01:03:45.000Z</time>
      </trkpt>
      <trkpt lat="39.766709" lon="-8.825046">
        <ele>33.8</ele>
        <time>1970-01-01T01:03:46.000Z</time>
      </trkpt>
      <trkpt lat="39.766673" lon="-8.825022">
        <ele>33.9</ele>
        <time>1970-01-01T01:03:47.000Z</time>
      </trkpt>
      <trkpt lat="39.76664" lon="-8.825004">
        <ele>33.9</ele>
        <time>1970-01-01T01:03:48.000Z</time>
      </trkpt>
      <trkpt lat="39.766606" lon="-8.824974">
        <ele>34</ele>
        <time>1970-01-01T01:03:49.000Z</time>
      </trkpt>
      <trkpt lat="39.766591" lon="-8.824964">
        <ele>34</ele>
        <time>1970-01-01T01:03:50.000Z</time>
      </trkpt>
      <trkpt lat="39.766561" lon="-8.824943">
        <ele>34.1</ele>
        <time>1970-01-01T01:03:51.000Z</time>
      </trkpt>
      <trkpt lat="39.766527" lon="-8.824922">
        <ele>34.1</ele>
        <time>1970-01-01T01:03:52.000Z</time>
      </trkpt>
      <trkpt lat="39.766485" lon="-8.824895">
        <ele>34.1</ele>
        <time>1970-01-01T01:03:53.000Z</time>
      </trkpt>
      <trkpt lat="39.766451" lon="-8.82487">
        <ele>34</ele>
        <time>1970-01-01T01:03:54.000Z</time>
      </trkpt>
      <trkpt lat="39.76641" lon="-8.824838">
        <ele>34</ele>
        <time>1970-01-01T01:03:55.000Z</time>
      </trkpt>
      <trkpt lat="39.766368" lon="-8.824815">
        <ele>34</ele>
        <time>1970-01-01T01:03:56.000Z</time>
      </trkpt>
      <trkpt lat="39.76632" lon="-8.824784">
        <ele>33.9</ele>
        <time>1970-01-01T01:03:57.000Z</time>
      </trkpt>
      <trkpt lat="39.766281" lon="-8.82476">
        <ele>33.9</ele>
        <time>1970-01-01T01:03:58.000Z</time>
      </trkpt>
      <trkpt lat="39.76624" lon="-8.824743">
        <ele>33.9</ele>
        <time>1970-01-01T01:03:59.000Z</time>
      </trkpt>
      <trkpt lat="39.766204" lon="-8.824711">
        <ele>33.9</ele>
        <time>1970-01-01T01:04:00.000Z</time>
      </trkpt>
      <trkpt lat="39.766179" lon="-8.824684">
        <ele>33.9</ele>
        <time>1970-01-01T01:04:01.000Z</time>
      </trkpt>
      <trkpt lat="39.766147" lon="-8.824653">
        <ele>33.9</ele>
        <time>1970-01-01T01:04:02.000Z</time>
      </trkpt>
      <trkpt lat="39.766104" lon="-8.824643">
        <ele>34</ele>
        <time>1970-01-01T01:04:03.000Z</time>
      </trkpt>
      <trkpt lat="39.766063" lon="-8.824608">
        <ele>34</ele>
        <time>1970-01-01T01:04:04.000Z</time>
      </trkpt>
      <trkpt lat="39.766019" lon="-8.824574">
        <ele>34</ele>
        <time>1970-01-01T01:04:05.000Z</time>
      </trkpt>
      <trkpt lat="39.765984" lon="-8.824547">
        <ele>34</ele>
        <time>1970-01-01T01:04:06.000Z</time>
      </trkpt>
      <trkpt lat="39.765943" lon="-8.824514">
        <ele>34</ele>
        <time>1970-01-01T01:04:07.000Z</time>
      </trkpt>
      <trkpt lat="39.765897" lon="-8.82448">
        <ele>34</ele>
        <time>1970-01-01T01:04:08.000Z</time>
      </trkpt>
      <trkpt lat="39.765849" lon="-8.82445">
        <ele>34</ele>
        <time>1970-01-01T01:04:09.000Z</time>
      </trkpt>
      <trkpt lat="39.765807" lon="-8.82443">
        <ele>34</ele>
        <time>1970-01-01T01:04:10.000Z</time>
      </trkpt>
      <trkpt lat="39.765761" lon="-8.824405">
        <ele>34</ele>
        <time>1970-01-01T01:04:11.000Z</time>
      </trkpt>
      <trkpt lat="39.765721" lon="-8.824382">
        <ele>34.1</ele>
        <time>1970-01-01T01:04:12.000Z</time>
      </trkpt>
      <trkpt lat="39.765678" lon="-8.824356">
        <ele>34.1</ele>
        <time>1970-01-01T01:04:13.000Z</time>
      </trkpt>
      <trkpt lat="39.765627" lon="-8.824337">
        <ele>34.2</ele>
        <time>1970-01-01T01:04:14.000Z</time>
      </trkpt>
      <trkpt lat="39.76558" lon="-8.824317">
        <ele>34.2</ele>
        <time>1970-01-01T01:04:15.000Z</time>
      </trkpt>
      <trkpt lat="39.765526" lon="-8.824302">
        <ele>34.3</ele>
        <time>1970-01-01T01:04:16.000Z</time>
      </trkpt>
      <trkpt lat="39.765474" lon="-8.824275">
        <ele>34.3</ele>
        <time>1970-01-01T01:04:17.000Z</time>
      </trkpt>
      <trkpt lat="39.765418" lon="-8.824256">
        <ele>34.4</ele>
        <time>1970-01-01T01:04:18.000Z</time>
      </trkpt>
      <trkpt lat="39.765366" lon="-8.824234">
        <ele>34.4</ele>
        <time>1970-01-01T01:04:19.000Z</time>
      </trkpt>
      <trkpt lat="39.765307" lon="-8.824209">
        <ele>34.5</ele>
        <time>1970-01-01T01:04:20.000Z</time>
      </trkpt>
      <trkpt lat="39.76525" lon="-8.824188">
        <ele>34.6</ele>
        <time>1970-01-01T01:04:21.000Z</time>
      </trkpt>
      <trkpt lat="39.765197" lon="-8.824165">
        <ele>34.7</ele>
        <time>1970-01-01T01:04:22.000Z</time>
      </trkpt>
      <trkpt lat="39.765147" lon="-8.824146">
        <ele>34.7</ele>
        <time>1970-01-01T01:04:23.000Z</time>
      </trkpt>
      <trkpt lat="39.765099" lon="-8.824128">
        <ele>34.8</ele>
        <time>1970-01-01T01:04:24.000Z</time>
      </trkpt>
      <trkpt lat="39.765055" lon="-8.824112">
        <ele>34.8</ele>
        <time>1970-01-01T01:04:25.000Z</time>
      </trkpt>
      <trkpt lat="39.765007" lon="-8.824093">
        <ele>34.9</ele>
        <time>1970-01-01T01:04:26.000Z</time>
      </trkpt>
      <trkpt lat="39.764967" lon="-8.824072">
        <ele>34.9</ele>
        <time>1970-01-01T01:04:27.000Z</time>
      </trkpt>
      <trkpt lat="39.76492" lon="-8.824054">
        <ele>35</ele>
        <time>1970-01-01T01:04:28.000Z</time>
      </trkpt>
      <trkpt lat="39.764875" lon="-8.824038">
        <ele>35</ele>
        <time>1970-01-01T01:04:29.000Z</time>
      </trkpt>
      <trkpt lat="39.76483" lon="-8.824013">
        <ele>35.1</ele>
        <time>1970-01-01T01:04:30.000Z</time>
      </trkpt>
      <trkpt lat="39.76479" lon="-8.823994">
        <ele>35.1</ele>
        <time>1970-01-01T01:04:31.000Z</time>
      </trkpt>
      <trkpt lat="39.764747" lon="-8.823977">
        <ele>35.2</ele>
        <time>1970-01-01T01:04:32.000Z</time>
      </trkpt>
      <trkpt lat="39.764702" lon="-8.823957">
        <ele>35.3</ele>
        <time>1970-01-01T01:04:33.000Z</time>
      </trkpt>
      <trkpt lat="39.764662" lon="-8.823941">
        <ele>35.4</ele>
        <time>1970-01-01T01:04:34.000Z</time>
      </trkpt>
      <trkpt lat="39.764623" lon="-8.823932">
        <ele>35.4</ele>
        <time>1970-01-01T01:04:35.000Z</time>
      </trkpt>
      <trkpt lat="39.764584" lon="-8.823917">
        <ele>35.5</ele>
        <time>1970-01-01T01:04:36.000Z</time>
      </trkpt>
      <trkpt lat="39.764548" lon="-8.823905">
        <ele>35.6</ele>
        <time>1970-01-01T01:04:37.000Z</time>
      </trkpt>
      <trkpt lat="39.764516" lon="-8.823894">
        <ele>35.6</ele>
        <time>1970-01-01T01:04:38.000Z</time>
      </trkpt>
      <trkpt lat="39.764478" lon="-8.823883">
        <ele>35.7</ele>
        <time>1970-01-01T01:04:39.000Z</time>
      </trkpt>
      <trkpt lat="39.764445" lon="-8.823876">
        <ele>35.8</ele>
        <time>1970-01-01T01:04:40.000Z</time>
      </trkpt>
      <trkpt lat="39.764411" lon="-8.8239">
        <ele>35.8</ele>
        <time>1970-01-01T01:04:41.000Z</time>
      </trkpt>
      <trkpt lat="39.764401" lon="-8.823916">
        <ele>35.8</ele>
        <time>1970-01-01T01:04:42.000Z</time>
      </trkpt>
      <trkpt lat="39.76439" lon="-8.823955">
        <ele>35.7</ele>
        <time>1970-01-01T01:04:43.000Z</time>
      </trkpt>
      <trkpt lat="39.764383" lon="-8.824003">
        <ele>35.6</ele>
        <time>1970-01-01T01:04:44.000Z</time>
      </trkpt>
      <trkpt lat="39.76437" lon="-8.824054">
        <ele>35.5</ele>
        <time>1970-01-01T01:04:45.000Z</time>
      </trkpt>
      <trkpt lat="39.764355" lon="-8.824109">
        <ele>35.3</ele>
        <time>1970-01-01T01:04:46.000Z</time>
      </trkpt>
      <trkpt lat="39.764344" lon="-8.824172">
        <ele>35.2</ele>
        <time>1970-01-01T01:04:47.000Z</time>
      </trkpt>
      <trkpt lat="39.764331" lon="-8.824228">
        <ele>35</ele>
        <time>1970-01-01T01:04:48.000Z</time>
      </trkpt>
      <trkpt lat="39.764327" lon="-8.824295">
        <ele>34.9</ele>
        <time>1970-01-01T01:04:49.000Z</time>
      </trkpt>
      <trkpt lat="39.764318" lon="-8.82436">
        <ele>34.8</ele>
        <time>1970-01-01T01:04:50.000Z</time>
      </trkpt>
      <trkpt lat="39.76431" lon="-8.82443">
        <ele>34.7</ele>
        <time>1970-01-01T01:04:51.000Z</time>
      </trkpt>
      <trkpt lat="39.764297" lon="-8.8245">
        <ele>34.6</ele>
        <time>1970-01-01T01:04:52.000Z</time>
      </trkpt>
      <trkpt lat="39.764281" lon="-8.824565">
        <ele>34.6</ele>
        <time>1970-01-01T01:04:53.000Z</time>
      </trkpt>
      <trkpt lat="39.764271" lon="-8.824633">
        <ele>34.6</ele>
        <time>1970-01-01T01:04:54.000Z</time>
      </trkpt>
      <trkpt lat="39.764261" lon="-8.824693">
        <ele>34.6</ele>
        <time>1970-01-01T01:04:55.000Z</time>
      </trkpt>
      <trkpt lat="39.764241" lon="-8.824759">
        <ele>34.6</ele>
        <time>1970-01-01T01:04:56.000Z</time>
      </trkpt>
      <trkpt lat="39.76423" lon="-8.82481">
        <ele>34.6</ele>
        <time>1970-01-01T01:04:57.000Z</time>
      </trkpt>
      <trkpt lat="39.764223" lon="-8.824868">
        <ele>34.6</ele>
        <time>1970-01-01T01:04:58.000Z</time>
      </trkpt>
      <trkpt lat="39.764214" lon="-8.82493">
        <ele>34.6</ele>
        <time>1970-01-01T01:04:59.000Z</time>
      </trkpt>
      <trkpt lat="39.764208" lon="-8.824992">
        <ele>34.7</ele>
        <time>1970-01-01T01:05:00.000Z</time>
      </trkpt>
      <trkpt lat="39.764194" lon="-8.825058">
        <ele>34.7</ele>
        <time>1970-01-01T01:05:01.000Z</time>
      </trkpt>
      <trkpt lat="39.764184" lon="-8.825123">
        <ele>34.8</ele>
        <time>1970-01-01T01:05:02.000Z</time>
      </trkpt>
      <trkpt lat="39.764173" lon="-8.825181">
        <ele>34.7</ele>
        <time>1970-01-01T01:05:04.000Z</time>
      </trkpt>
      <trkpt lat="39.764158" lon="-8.825242">
        <ele>34.6</ele>
        <time>1970-01-01T01:05:05.000Z</time>
      </trkpt>
      <trkpt lat="39.764138" lon="-8.825296">
        <ele>34.5</ele>
        <time>1970-01-01T01:05:06.000Z</time>
      </trkpt>
      <trkpt lat="39.764122" lon="-8.825353">
        <ele>34.5</ele>
        <time>1970-01-01T01:05:07.000Z</time>
      </trkpt>
      <trkpt lat="39.764107" lon="-8.82542">
        <ele>34.4</ele>
        <time>1970-01-01T01:05:08.000Z</time>
      </trkpt>
      <trkpt lat="39.764102" lon="-8.825486">
        <ele>34.4</ele>
        <time>1970-01-01T01:05:09.000Z</time>
      </trkpt>
      <trkpt lat="39.764117" lon="-8.825542">
        <ele>34.3</ele>
        <time>1970-01-01T01:05:10.000Z</time>
      </trkpt>
      <trkpt lat="39.764137" lon="-8.825615">
        <ele>34.3</ele>
        <time>1970-01-01T01:05:11.000Z</time>
      </trkpt>
      <trkpt lat="39.764163" lon="-8.825673">
        <ele>34.3</ele>
        <time>1970-01-01T01:05:12.000Z</time>
      </trkpt>
      <trkpt lat="39.764187" lon="-8.825733">
        <ele>34.3</ele>
        <time>1970-01-01T01:05:13.000Z</time>
      </trkpt>
      <trkpt lat="39.764216" lon="-8.825788">
        <ele>34.3</ele>
        <time>1970-01-01T01:05:14.000Z</time>
      </trkpt>
      <trkpt lat="39.764282" lon="-8.825918">
        <ele>34.3</ele>
        <time>1970-01-01T01:05:15.000Z</time>
      </trkpt>
      <trkpt lat="39.764303" lon="-8.825971">
        <ele>34.3</ele>
        <time>1970-01-01T01:05:16.000Z</time>
      </trkpt>
      <trkpt lat="39.764327" lon="-8.826017">
        <ele>34.4</ele>
        <time>1970-01-01T01:05:17.000Z</time>
      </trkpt>
      <trkpt lat="39.764354" lon="-8.826066">
        <ele>34.4</ele>
        <time>1970-01-01T01:05:18.000Z</time>
      </trkpt>
      <trkpt lat="39.764375" lon="-8.826129">
        <ele>34.4</ele>
        <time>1970-01-01T01:05:19.000Z</time>
      </trkpt>
      <trkpt lat="39.764395" lon="-8.826183">
        <ele>34.4</ele>
        <time>1970-01-01T01:05:20.000Z</time>
      </trkpt>
      <trkpt lat="39.764413" lon="-8.826231">
        <ele>34.5</ele>
        <time>1970-01-01T01:05:21.000Z</time>
      </trkpt>
      <trkpt lat="39.764424" lon="-8.826279">
        <ele>34.5</ele>
        <time>1970-01-01T01:05:22.000Z</time>
      </trkpt>
      <trkpt lat="39.764453" lon="-8.826338">
        <ele>34.5</ele>
        <time>1970-01-01T01:05:23.000Z</time>
      </trkpt>
      <trkpt lat="39.764481" lon="-8.826394">
        <ele>34.5</ele>
        <time>1970-01-01T01:05:24.000Z</time>
      </trkpt>
      <trkpt lat="39.764509" lon="-8.826442">
        <ele>34.5</ele>
        <time>1970-01-01T01:05:25.000Z</time>
      </trkpt>
      <trkpt lat="39.764537" lon="-8.826503">
        <ele>34.5</ele>
        <time>1970-01-01T01:05:26.000Z</time>
      </trkpt>
      <trkpt lat="39.764561" lon="-8.826563">
        <ele>34.5</ele>
        <time>1970-01-01T01:05:27.000Z</time>
      </trkpt>
      <trkpt lat="39.764584" lon="-8.826613">
        <ele>34.4</ele>
        <time>1970-01-01T01:05:28.000Z</time>
      </trkpt>
      <trkpt lat="39.764604" lon="-8.826664">
        <ele>34.4</ele>
        <time>1970-01-01T01:05:29.000Z</time>
      </trkpt>
      <trkpt lat="39.764626" lon="-8.826708">
        <ele>34.4</ele>
        <time>1970-01-01T01:05:30.000Z</time>
      </trkpt>
      <trkpt lat="39.764644" lon="-8.826757">
        <ele>34.4</ele>
        <time>1970-01-01T01:05:31.000Z</time>
      </trkpt>
      <trkpt lat="39.764662" lon="-8.826799">
        <ele>34.4</ele>
        <time>1970-01-01T01:05:32.000Z</time>
      </trkpt>
      <trkpt lat="39.764677" lon="-8.826836">
        <ele>34.4</ele>
        <time>1970-01-01T01:05:33.000Z</time>
      </trkpt>
      <trkpt lat="39.764697" lon="-8.826883">
        <ele>34.3</ele>
        <time>1970-01-01T01:05:34.000Z</time>
      </trkpt>
      <trkpt lat="39.764693" lon="-8.826926">
        <ele>34.3</ele>
        <time>1970-01-01T01:05:35.000Z</time>
      </trkpt>
      <trkpt lat="39.764683" lon="-8.826982">
        <ele>34.2</ele>
        <time>1970-01-01T01:05:36.000Z</time>
      </trkpt>
      <trkpt lat="39.76466" lon="-8.827037">
        <ele>34.1</ele>
        <time>1970-01-01T01:05:37.000Z</time>
      </trkpt>
      <trkpt lat="39.764614" lon="-8.827059">
        <ele>34.1</ele>
        <time>1970-01-01T01:05:38.000Z</time>
      </trkpt>
      <trkpt lat="39.764565" lon="-8.827068">
        <ele>34.1</ele>
        <time>1970-01-01T01:05:39.000Z</time>
      </trkpt>
      <trkpt lat="39.764509" lon="-8.827073">
        <ele>34</ele>
        <time>1970-01-01T01:05:40.000Z</time>
      </trkpt>
      <trkpt lat="39.764458" lon="-8.827078">
        <ele>34</ele>
        <time>1970-01-01T01:05:41.000Z</time>
      </trkpt>
      <trkpt lat="39.764406" lon="-8.827085">
        <ele>34</ele>
        <time>1970-01-01T01:05:42.000Z</time>
      </trkpt>
      <trkpt lat="39.764346" lon="-8.827099">
        <ele>33.9</ele>
        <time>1970-01-01T01:05:43.000Z</time>
      </trkpt>
      <trkpt lat="39.764302" lon="-8.827101">
        <ele>33.9</ele>
        <time>1970-01-01T01:05:44.000Z</time>
      </trkpt>
      <trkpt lat="39.764258" lon="-8.827102">
        <ele>33.9</ele>
        <time>1970-01-01T01:05:45.000Z</time>
      </trkpt>
      <trkpt lat="39.764216" lon="-8.827103">
        <ele>33.9</ele>
        <time>1970-01-01T01:05:46.000Z</time>
      </trkpt>
      <trkpt lat="39.764174" lon="-8.827112">
        <ele>33.9</ele>
        <time>1970-01-01T01:05:47.000Z</time>
      </trkpt>
      <trkpt lat="39.764127" lon="-8.827128">
        <ele>33.8</ele>
        <time>1970-01-01T01:05:48.000Z</time>
      </trkpt>
      <trkpt lat="39.764072" lon="-8.827138">
        <ele>33.8</ele>
        <time>1970-01-01T01:05:49.000Z</time>
      </trkpt>
      <trkpt lat="39.764026" lon="-8.827138">
        <ele>33.8</ele>
        <time>1970-01-01T01:05:50.000Z</time>
      </trkpt>
      <trkpt lat="39.763983" lon="-8.827147">
        <ele>33.8</ele>
        <time>1970-01-01T01:05:51.000Z</time>
      </trkpt>
      <trkpt lat="39.763934" lon="-8.82715">
        <ele>33.8</ele>
        <time>1970-01-01T01:05:52.000Z</time>
      </trkpt>
      <trkpt lat="39.763884" lon="-8.827152">
        <ele>33.8</ele>
        <time>1970-01-01T01:05:53.000Z</time>
      </trkpt>
      <trkpt lat="39.763833" lon="-8.82716">
        <ele>33.8</ele>
        <time>1970-01-01T01:05:54.000Z</time>
      </trkpt>
      <trkpt lat="39.763779" lon="-8.827169">
        <ele>33.7</ele>
        <time>1970-01-01T01:05:55.000Z</time>
      </trkpt>
      <trkpt lat="39.76373" lon="-8.827173">
        <ele>33.6</ele>
        <time>1970-01-01T01:05:56.000Z</time>
      </trkpt>
      <trkpt lat="39.763675" lon="-8.82718">
        <ele>33.5</ele>
        <time>1970-01-01T01:05:57.000Z</time>
      </trkpt>
      <trkpt lat="39.763624" lon="-8.82719">
        <ele>33.4</ele>
        <time>1970-01-01T01:05:58.000Z</time>
      </trkpt>
      <trkpt lat="39.763575" lon="-8.827197">
        <ele>33.3</ele>
        <time>1970-01-01T01:05:59.000Z</time>
      </trkpt>
      <trkpt lat="39.763523" lon="-8.827209">
        <ele>33.2</ele>
        <time>1970-01-01T01:06:00.000Z</time>
      </trkpt>
      <trkpt lat="39.763469" lon="-8.827215">
        <ele>33.1</ele>
        <time>1970-01-01T01:06:01.000Z</time>
      </trkpt>
      <trkpt lat="39.763414" lon="-8.827224">
        <ele>33</ele>
        <time>1970-01-01T01:06:02.000Z</time>
      </trkpt>
      <trkpt lat="39.763361" lon="-8.827226">
        <ele>32.8</ele>
        <time>1970-01-01T01:06:03.000Z</time>
      </trkpt>
      <trkpt lat="39.763303" lon="-8.827221">
        <ele>32.7</ele>
        <time>1970-01-01T01:06:04.000Z</time>
      </trkpt>
      <trkpt lat="39.763248" lon="-8.827206">
        <ele>32.6</ele>
        <time>1970-01-01T01:06:05.000Z</time>
      </trkpt>
      <trkpt lat="39.763196" lon="-8.827186">
        <ele>32.5</ele>
        <time>1970-01-01T01:06:06.000Z</time>
      </trkpt>
      <trkpt lat="39.763143" lon="-8.827155">
        <ele>32.4</ele>
        <time>1970-01-01T01:06:07.000Z</time>
      </trkpt>
      <trkpt lat="39.763102" lon="-8.827119">
        <ele>32.4</ele>
        <time>1970-01-01T01:06:08.000Z</time>
      </trkpt>
      <trkpt lat="39.763049" lon="-8.827074">
        <ele>32.4</ele>
        <time>1970-01-01T01:06:09.000Z</time>
      </trkpt>
      <trkpt lat="39.763004" lon="-8.827046">
        <ele>32.4</ele>
        <time>1970-01-01T01:06:10.000Z</time>
      </trkpt>
      <trkpt lat="39.76296" lon="-8.827016">
        <ele>32.5</ele>
        <time>1970-01-01T01:06:11.000Z</time>
      </trkpt>
      <trkpt lat="39.762911" lon="-8.826987">
        <ele>32.6</ele>
        <time>1970-01-01T01:06:12.000Z</time>
      </trkpt>
      <trkpt lat="39.762864" lon="-8.826962">
        <ele>32.6</ele>
        <time>1970-01-01T01:06:13.000Z</time>
      </trkpt>
      <trkpt lat="39.762809" lon="-8.826945">
        <ele>32.7</ele>
        <time>1970-01-01T01:06:14.000Z</time>
      </trkpt>
      <trkpt lat="39.762753" lon="-8.826929">
        <ele>32.8</ele>
        <time>1970-01-01T01:06:15.000Z</time>
      </trkpt>
      <trkpt lat="39.762704" lon="-8.826921">
        <ele>32.9</ele>
        <time>1970-01-01T01:06:16.000Z</time>
      </trkpt>
      <trkpt lat="39.762649" lon="-8.826908">
        <ele>33.1</ele>
        <time>1970-01-01T01:06:17.000Z</time>
      </trkpt>
      <trkpt lat="39.762597" lon="-8.826886">
        <ele>33.2</ele>
        <time>1970-01-01T01:06:18.000Z</time>
      </trkpt>
      <trkpt lat="39.762543" lon="-8.826884">
        <ele>33.3</ele>
        <time>1970-01-01T01:06:19.000Z</time>
      </trkpt>
      <trkpt lat="39.762491" lon="-8.826881">
        <ele>33.4</ele>
        <time>1970-01-01T01:06:20.000Z</time>
      </trkpt>
      <trkpt lat="39.762437" lon="-8.826861">
        <ele>33.6</ele>
        <time>1970-01-01T01:06:21.000Z</time>
      </trkpt>
      <trkpt lat="39.76238" lon="-8.826849">
        <ele>33.7</ele>
        <time>1970-01-01T01:06:22.000Z</time>
      </trkpt>
      <trkpt lat="39.762332" lon="-8.826822">
        <ele>33.9</ele>
        <time>1970-01-01T01:06:23.000Z</time>
      </trkpt>
      <trkpt lat="39.762279" lon="-8.826792">
        <ele>34</ele>
        <time>1970-01-01T01:06:24.000Z</time>
      </trkpt>
      <trkpt lat="39.762231" lon="-8.826756">
        <ele>34.2</ele>
        <time>1970-01-01T01:06:25.000Z</time>
      </trkpt>
      <trkpt lat="39.762193" lon="-8.826715">
        <ele>34.3</ele>
        <time>1970-01-01T01:06:26.000Z</time>
      </trkpt>
      <trkpt lat="39.762149" lon="-8.826666">
        <ele>34.5</ele>
        <time>1970-01-01T01:06:27.000Z</time>
      </trkpt>
      <trkpt lat="39.76211" lon="-8.826631">
        <ele>34.6</ele>
        <time>1970-01-01T01:06:28.000Z</time>
      </trkpt>
      <trkpt lat="39.762068" lon="-8.826605">
        <ele>34.8</ele>
        <time>1970-01-01T01:06:29.000Z</time>
      </trkpt>
      <trkpt lat="39.762029" lon="-8.826604">
        <ele>34.8</ele>
        <time>1970-01-01T01:06:30.000Z</time>
      </trkpt>
      <trkpt lat="39.761989" lon="-8.826616">
        <ele>34.8</ele>
        <time>1970-01-01T01:06:31.000Z</time>
      </trkpt>
      <trkpt lat="39.76195" lon="-8.826631">
        <ele>34.8</ele>
        <time>1970-01-01T01:06:32.000Z</time>
      </trkpt>
      <trkpt lat="39.761911" lon="-8.826652">
        <ele>34.8</ele>
        <time>1970-01-01T01:06:33.000Z</time>
      </trkpt>
      <trkpt lat="39.761869" lon="-8.826676">
        <ele>34.9</ele>
        <time>1970-01-01T01:06:34.000Z</time>
      </trkpt>
      <trkpt lat="39.761825" lon="-8.826703">
        <ele>34.9</ele>
        <time>1970-01-01T01:06:35.000Z</time>
      </trkpt>
      <trkpt lat="39.761778" lon="-8.826729">
        <ele>34.9</ele>
        <time>1970-01-01T01:06:36.000Z</time>
      </trkpt>
      <trkpt lat="39.761735" lon="-8.826756">
        <ele>34.9</ele>
        <time>1970-01-01T01:06:37.000Z</time>
      </trkpt>
      <trkpt lat="39.761693" lon="-8.826787">
        <ele>34.9</ele>
        <time>1970-01-01T01:06:38.000Z</time>
      </trkpt>
      <trkpt lat="39.761645" lon="-8.826825">
        <ele>34.9</ele>
        <time>1970-01-01T01:06:39.000Z</time>
      </trkpt>
      <trkpt lat="39.76161" lon="-8.826854">
        <ele>35</ele>
        <time>1970-01-01T01:06:40.000Z</time>
      </trkpt>
      <trkpt lat="39.761562" lon="-8.826879">
        <ele>35</ele>
        <time>1970-01-01T01:06:41.000Z</time>
      </trkpt>
      <trkpt lat="39.76152" lon="-8.826911">
        <ele>35.1</ele>
        <time>1970-01-01T01:06:42.000Z</time>
      </trkpt>
      <trkpt lat="39.761477" lon="-8.826941">
        <ele>35.1</ele>
        <time>1970-01-01T01:06:43.000Z</time>
      </trkpt>
      <trkpt lat="39.761435" lon="-8.826967">
        <ele>35.2</ele>
        <time>1970-01-01T01:06:44.000Z</time>
      </trkpt>
      <trkpt lat="39.76139" lon="-8.826986">
        <ele>35.2</ele>
        <time>1970-01-01T01:06:45.000Z</time>
      </trkpt>
      <trkpt lat="39.761348" lon="-8.827008">
        <ele>35.3</ele>
        <time>1970-01-01T01:06:46.000Z</time>
      </trkpt>
      <trkpt lat="39.761307" lon="-8.827032">
        <ele>35.3</ele>
        <time>1970-01-01T01:06:47.000Z</time>
      </trkpt>
      <trkpt lat="39.761261" lon="-8.827057">
        <ele>35.4</ele>
        <time>1970-01-01T01:06:48.000Z</time>
      </trkpt>
      <trkpt lat="39.761235" lon="-8.827089">
        <ele>35.4</ele>
        <time>1970-01-01T01:06:49.000Z</time>
      </trkpt>
      <trkpt lat="39.761194" lon="-8.827116">
        <ele>35.5</ele>
        <time>1970-01-01T01:06:50.000Z</time>
      </trkpt>
      <trkpt lat="39.761151" lon="-8.827144">
        <ele>35.5</ele>
        <time>1970-01-01T01:06:51.000Z</time>
      </trkpt>
      <trkpt lat="39.761115" lon="-8.827169">
        <ele>35.5</ele>
        <time>1970-01-01T01:06:52.000Z</time>
      </trkpt>
      <trkpt lat="39.761082" lon="-8.8272">
        <ele>35.6</ele>
        <time>1970-01-01T01:06:53.000Z</time>
      </trkpt>
      <trkpt lat="39.761046" lon="-8.827236">
        <ele>35.6</ele>
        <time>1970-01-01T01:06:54.000Z</time>
      </trkpt>
      <trkpt lat="39.761014" lon="-8.827274">
        <ele>35.6</ele>
        <time>1970-01-01T01:06:55.000Z</time>
      </trkpt>
      <trkpt lat="39.76099" lon="-8.827316">
        <ele>35.6</ele>
        <time>1970-01-01T01:06:56.000Z</time>
      </trkpt>
      <trkpt lat="39.760955" lon="-8.827354">
        <ele>35.6</ele>
        <time>1970-01-01T01:06:57.000Z</time>
      </trkpt>
      <trkpt lat="39.760927" lon="-8.827389">
        <ele>35.6</ele>
        <time>1970-01-01T01:06:58.000Z</time>
      </trkpt>
      <trkpt lat="39.760891" lon="-8.827419">
        <ele>35.6</ele>
        <time>1970-01-01T01:06:59.000Z</time>
      </trkpt>
      <trkpt lat="39.760859" lon="-8.827443">
        <ele>35.6</ele>
        <time>1970-01-01T01:07:00.000Z</time>
      </trkpt>
      <trkpt lat="39.760815" lon="-8.827462">
        <ele>35.6</ele>
        <time>1970-01-01T01:07:01.000Z</time>
      </trkpt>
      <trkpt lat="39.760762" lon="-8.827469">
        <ele>35.6</ele>
        <time>1970-01-01T01:07:02.000Z</time>
      </trkpt>
      <trkpt lat="39.760714" lon="-8.827477">
        <ele>35.7</ele>
        <time>1970-01-01T01:07:03.000Z</time>
      </trkpt>
      <trkpt lat="39.760663" lon="-8.827478">
        <ele>35.7</ele>
        <time>1970-01-01T01:07:04.000Z</time>
      </trkpt>
      <trkpt lat="39.760611" lon="-8.827485">
        <ele>35.8</ele>
        <time>1970-01-01T01:07:05.000Z</time>
      </trkpt>
      <trkpt lat="39.760569" lon="-8.827493">
        <ele>35.8</ele>
        <time>1970-01-01T01:07:06.000Z</time>
      </trkpt>
      <trkpt lat="39.760522" lon="-8.827495">
        <ele>35.9</ele>
        <time>1970-01-01T01:07:07.000Z</time>
      </trkpt>
      <trkpt lat="39.760472" lon="-8.827502">
        <ele>35.9</ele>
        <time>1970-01-01T01:07:08.000Z</time>
      </trkpt>
      <trkpt lat="39.760422" lon="-8.827507">
        <ele>36</ele>
        <time>1970-01-01T01:07:10.000Z</time>
      </trkpt>
      <trkpt lat="39.760369" lon="-8.827514">
        <ele>36</ele>
        <time>1970-01-01T01:07:11.000Z</time>
      </trkpt>
      <trkpt lat="39.760317" lon="-8.827517">
        <ele>36.1</ele>
        <time>1970-01-01T01:07:12.000Z</time>
      </trkpt>
      <trkpt lat="39.760262" lon="-8.827528">
        <ele>36.1</ele>
        <time>1970-01-01T01:07:13.000Z</time>
      </trkpt>
      <trkpt lat="39.760208" lon="-8.827522">
        <ele>36.1</ele>
        <time>1970-01-01T01:07:14.000Z</time>
      </trkpt>
      <trkpt lat="39.760164" lon="-8.827534">
        <ele>36.1</ele>
        <time>1970-01-01T01:07:15.000Z</time>
      </trkpt>
      <trkpt lat="39.760115" lon="-8.82754">
        <ele>36.2</ele>
        <time>1970-01-01T01:07:16.000Z</time>
      </trkpt>
      <trkpt lat="39.760073" lon="-8.827544">
        <ele>36.2</ele>
        <time>1970-01-01T01:07:17.000Z</time>
      </trkpt>
      <trkpt lat="39.760032" lon="-8.827545">
        <ele>36.2</ele>
        <time>1970-01-01T01:07:18.000Z</time>
      </trkpt>
      <trkpt lat="39.75999" lon="-8.827543">
        <ele>36.2</ele>
        <time>1970-01-01T01:07:19.000Z</time>
      </trkpt>
      <trkpt lat="39.759957" lon="-8.827545">
        <ele>36.2</ele>
        <time>1970-01-01T01:07:20.000Z</time>
      </trkpt>
      <trkpt lat="39.759923" lon="-8.827546">
        <ele>36.2</ele>
        <time>1970-01-01T01:07:21.000Z</time>
      </trkpt>
      <trkpt lat="39.759888" lon="-8.827541">
        <ele>36.2</ele>
        <time>1970-01-01T01:07:22.000Z</time>
      </trkpt>
      <trkpt lat="39.759819" lon="-8.827531">
        <ele>36.2</ele>
        <time>1970-01-01T01:07:23.000Z</time>
      </trkpt>
      <trkpt lat="39.759775" lon="-8.827535">
        <ele>36.2</ele>
        <time>1970-01-01T01:07:24.000Z</time>
      </trkpt>
      <trkpt lat="39.759734" lon="-8.827529">
        <ele>36.2</ele>
        <time>1970-01-01T01:07:25.000Z</time>
      </trkpt>
      <trkpt lat="39.759692" lon="-8.827514">
        <ele>36.2</ele>
        <time>1970-01-01T01:07:26.000Z</time>
      </trkpt>
      <trkpt lat="39.759643" lon="-8.827503">
        <ele>36.2</ele>
        <time>1970-01-01T01:07:27.000Z</time>
      </trkpt>
      <trkpt lat="39.759582" lon="-8.827488">
        <ele>36.2</ele>
        <time>1970-01-01T01:07:28.000Z</time>
      </trkpt>
      <trkpt lat="39.759534" lon="-8.827474">
        <ele>36.1</ele>
        <time>1970-01-01T01:07:29.000Z</time>
      </trkpt>
      <trkpt lat="39.759475" lon="-8.827468">
        <ele>36.1</ele>
        <time>1970-01-01T01:07:30.000Z</time>
      </trkpt>
      <trkpt lat="39.759415" lon="-8.827454">
        <ele>36.1</ele>
        <time>1970-01-01T01:07:31.000Z</time>
      </trkpt>
      <trkpt lat="39.759355" lon="-8.827453">
        <ele>36.1</ele>
        <time>1970-01-01T01:07:32.000Z</time>
      </trkpt>
      <trkpt lat="39.759293" lon="-8.827455">
        <ele>36.2</ele>
        <time>1970-01-01T01:07:33.000Z</time>
      </trkpt>
      <trkpt lat="39.759238" lon="-8.827454">
        <ele>36.2</ele>
        <time>1970-01-01T01:07:34.000Z</time>
      </trkpt>
      <trkpt lat="39.759186" lon="-8.827459">
        <ele>36.3</ele>
        <time>1970-01-01T01:07:35.000Z</time>
      </trkpt>
      <trkpt lat="39.759132" lon="-8.827459">
        <ele>36.4</ele>
        <time>1970-01-01T01:07:36.000Z</time>
      </trkpt>
      <trkpt lat="39.759087" lon="-8.827449">
        <ele>36.4</ele>
        <time>1970-01-01T01:07:37.000Z</time>
      </trkpt>
      <trkpt lat="39.759051" lon="-8.827425">
        <ele>36.5</ele>
        <time>1970-01-01T01:07:38.000Z</time>
      </trkpt>
      <trkpt lat="39.759031" lon="-8.827385">
        <ele>36.6</ele>
        <time>1970-01-01T01:07:39.000Z</time>
      </trkpt>
      <trkpt lat="39.759005" lon="-8.827329">
        <ele>36.6</ele>
        <time>1970-01-01T01:07:40.000Z</time>
      </trkpt>
      <trkpt lat="39.758983" lon="-8.827277">
        <ele>36.7</ele>
        <time>1970-01-01T01:07:41.000Z</time>
      </trkpt>
      <trkpt lat="39.758949" lon="-8.827228">
        <ele>36.7</ele>
        <time>1970-01-01T01:07:42.000Z</time>
      </trkpt>
      <trkpt lat="39.758901" lon="-8.827214">
        <ele>36.8</ele>
        <time>1970-01-01T01:07:43.000Z</time>
      </trkpt>
      <trkpt lat="39.758856" lon="-8.827221">
        <ele>36.8</ele>
        <time>1970-01-01T01:07:44.000Z</time>
      </trkpt>
      <trkpt lat="39.758814" lon="-8.82723">
        <ele>36.8</ele>
        <time>1970-01-01T01:07:45.000Z</time>
      </trkpt>
      <trkpt lat="39.758774" lon="-8.82722">
        <ele>36.8</ele>
        <time>1970-01-01T01:07:46.000Z</time>
      </trkpt>
      <trkpt lat="39.758743" lon="-8.827191">
        <ele>36.9</ele>
        <time>1970-01-01T01:07:47.000Z</time>
      </trkpt>
      <trkpt lat="39.758718" lon="-8.827152">
        <ele>36.9</ele>
        <time>1970-01-01T01:07:48.000Z</time>
      </trkpt>
      <trkpt lat="39.758695" lon="-8.827101">
        <ele>37</ele>
        <time>1970-01-01T01:07:49.000Z</time>
      </trkpt>
      <trkpt lat="39.758674" lon="-8.827054">
        <ele>37.1</ele>
        <time>1970-01-01T01:07:50.000Z</time>
      </trkpt>
      <trkpt lat="39.758656" lon="-8.827003">
        <ele>37.2</ele>
        <time>1970-01-01T01:07:51.000Z</time>
      </trkpt>
      <trkpt lat="39.758624" lon="-8.82696">
        <ele>37.3</ele>
        <time>1970-01-01T01:07:52.000Z</time>
      </trkpt>
      <trkpt lat="39.758594" lon="-8.826924">
        <ele>37.4</ele>
        <time>1970-01-01T01:07:53.000Z</time>
      </trkpt>
      <trkpt lat="39.75856" lon="-8.826877">
        <ele>37.4</ele>
        <time>1970-01-01T01:07:54.000Z</time>
      </trkpt>
      <trkpt lat="39.758526" lon="-8.826837">
        <ele>37.5</ele>
        <time>1970-01-01T01:07:55.000Z</time>
      </trkpt>
      <trkpt lat="39.758494" lon="-8.826792">
        <ele>37.5</ele>
        <time>1970-01-01T01:07:56.000Z</time>
      </trkpt>
      <trkpt lat="39.758466" lon="-8.82676">
        <ele>37.5</ele>
        <time>1970-01-01T01:07:57.000Z</time>
      </trkpt>
      <trkpt lat="39.758435" lon="-8.826715">
        <ele>37.6</ele>
        <time>1970-01-01T01:07:58.000Z</time>
      </trkpt>
      <trkpt lat="39.758406" lon="-8.826675">
        <ele>37.7</ele>
        <time>1970-01-01T01:07:59.000Z</time>
      </trkpt>
      <trkpt lat="39.758382" lon="-8.826633">
        <ele>37.7</ele>
        <time>1970-01-01T01:08:00.000Z</time>
      </trkpt>
      <trkpt lat="39.758353" lon="-8.8266">
        <ele>37.8</ele>
        <time>1970-01-01T01:08:01.000Z</time>
      </trkpt>
      <trkpt lat="39.758327" lon="-8.826565">
        <ele>37.8</ele>
        <time>1970-01-01T01:08:02.000Z</time>
      </trkpt>
      <trkpt lat="39.7583" lon="-8.826535">
        <ele>37.9</ele>
        <time>1970-01-01T01:08:03.000Z</time>
      </trkpt>
      <trkpt lat="39.758273" lon="-8.826515">
        <ele>37.9</ele>
        <time>1970-01-01T01:08:04.000Z</time>
      </trkpt>
      <trkpt lat="39.75824" lon="-8.826487">
        <ele>38</ele>
        <time>1970-01-01T01:08:05.000Z</time>
      </trkpt>
      <trkpt lat="39.758229" lon="-8.826478">
        <ele>38</ele>
        <time>1970-01-01T01:08:06.000Z</time>
      </trkpt>
      <trkpt lat="39.758201" lon="-8.826475">
        <ele>38</ele>
        <time>1970-01-01T01:08:07.000Z</time>
      </trkpt>
      <trkpt lat="39.75817" lon="-8.826488">
        <ele>37.9</ele>
        <time>1970-01-01T01:08:08.000Z</time>
      </trkpt>
      <trkpt lat="39.758138" lon="-8.826518">
        <ele>37.8</ele>
        <time>1970-01-01T01:08:09.000Z</time>
      </trkpt>
      <trkpt lat="39.758105" lon="-8.826547">
        <ele>37.7</ele>
        <time>1970-01-01T01:08:10.000Z</time>
      </trkpt>
      <trkpt lat="39.758063" lon="-8.826578">
        <ele>37.6</ele>
        <time>1970-01-01T01:08:11.000Z</time>
      </trkpt>
      <trkpt lat="39.758022" lon="-8.826613">
        <ele>37.5</ele>
        <time>1970-01-01T01:08:12.000Z</time>
      </trkpt>
      <trkpt lat="39.757977" lon="-8.826648">
        <ele>37.3</ele>
        <time>1970-01-01T01:08:13.000Z</time>
      </trkpt>
      <trkpt lat="39.757934" lon="-8.826675">
        <ele>37.2</ele>
        <time>1970-01-01T01:08:14.000Z</time>
      </trkpt>
      <trkpt lat="39.757887" lon="-8.826712">
        <ele>37.1</ele>
        <time>1970-01-01T01:08:15.000Z</time>
      </trkpt>
      <trkpt lat="39.757839" lon="-8.826746">
        <ele>37</ele>
        <time>1970-01-01T01:08:16.000Z</time>
      </trkpt>
      <trkpt lat="39.75779" lon="-8.826766">
        <ele>36.9</ele>
        <time>1970-01-01T01:08:17.000Z</time>
      </trkpt>
      <trkpt lat="39.757742" lon="-8.826789">
        <ele>36.8</ele>
        <time>1970-01-01T01:08:18.000Z</time>
      </trkpt>
      <trkpt lat="39.757704" lon="-8.826821">
        <ele>36.7</ele>
        <time>1970-01-01T01:08:19.000Z</time>
      </trkpt>
      <trkpt lat="39.757664" lon="-8.826849">
        <ele>36.6</ele>
        <time>1970-01-01T01:08:20.000Z</time>
      </trkpt>
      <trkpt lat="39.757619" lon="-8.826873">
        <ele>36.5</ele>
        <time>1970-01-01T01:08:21.000Z</time>
      </trkpt>
      <trkpt lat="39.757575" lon="-8.826903">
        <ele>36.3</ele>
        <time>1970-01-01T01:08:22.000Z</time>
      </trkpt>
      <trkpt lat="39.757529" lon="-8.826926">
        <ele>36.2</ele>
        <time>1970-01-01T01:08:23.000Z</time>
      </trkpt>
      <trkpt lat="39.757483" lon="-8.826946">
        <ele>36.1</ele>
        <time>1970-01-01T01:08:24.000Z</time>
      </trkpt>
      <trkpt lat="39.757436" lon="-8.826976">
        <ele>36</ele>
        <time>1970-01-01T01:08:25.000Z</time>
      </trkpt>
      <trkpt lat="39.757391" lon="-8.827004">
        <ele>35.9</ele>
        <time>1970-01-01T01:08:26.000Z</time>
      </trkpt>
      <trkpt lat="39.757342" lon="-8.827023">
        <ele>35.7</ele>
        <time>1970-01-01T01:08:27.000Z</time>
      </trkpt>
      <trkpt lat="39.757301" lon="-8.827051">
        <ele>35.6</ele>
        <time>1970-01-01T01:08:28.000Z</time>
      </trkpt>
      <trkpt lat="39.757263" lon="-8.827078">
        <ele>35.5</ele>
        <time>1970-01-01T01:08:29.000Z</time>
      </trkpt>
      <trkpt lat="39.75722" lon="-8.827107">
        <ele>35.4</ele>
        <time>1970-01-01T01:08:30.000Z</time>
      </trkpt>
      <trkpt lat="39.757174" lon="-8.827125">
        <ele>35.3</ele>
        <time>1970-01-01T01:08:31.000Z</time>
      </trkpt>
      <trkpt lat="39.757123" lon="-8.827152">
        <ele>35.2</ele>
        <time>1970-01-01T01:08:32.000Z</time>
      </trkpt>
      <trkpt lat="39.757084" lon="-8.827183">
        <ele>35.1</ele>
        <time>1970-01-01T01:08:33.000Z</time>
      </trkpt>
      <trkpt lat="39.75704" lon="-8.827209">
        <ele>35</ele>
        <time>1970-01-01T01:08:34.000Z</time>
      </trkpt>
      <trkpt lat="39.756995" lon="-8.827239">
        <ele>35</ele>
        <time>1970-01-01T01:08:35.000Z</time>
      </trkpt>
      <trkpt lat="39.75695" lon="-8.827251">
        <ele>35</ele>
        <time>1970-01-01T01:08:36.000Z</time>
      </trkpt>
      <trkpt lat="39.756906" lon="-8.827288">
        <ele>35</ele>
        <time>1970-01-01T01:08:37.000Z</time>
      </trkpt>
      <trkpt lat="39.756864" lon="-8.827318">
        <ele>35</ele>
        <time>1970-01-01T01:08:38.000Z</time>
      </trkpt>
      <trkpt lat="39.756833" lon="-8.827348">
        <ele>35</ele>
        <time>1970-01-01T01:08:39.000Z</time>
      </trkpt>
      <trkpt lat="39.756794" lon="-8.827367">
        <ele>35</ele>
        <time>1970-01-01T01:08:40.000Z</time>
      </trkpt>
      <trkpt lat="39.756745" lon="-8.82737">
        <ele>35</ele>
        <time>1970-01-01T01:08:41.000Z</time>
      </trkpt>
      <trkpt lat="39.756701" lon="-8.827364">
        <ele>35</ele>
        <time>1970-01-01T01:08:42.000Z</time>
      </trkpt>
      <trkpt lat="39.756653" lon="-8.827319">
        <ele>35</ele>
        <time>1970-01-01T01:08:43.000Z</time>
      </trkpt>
      <trkpt lat="39.756617" lon="-8.827261">
        <ele>35.1</ele>
        <time>1970-01-01T01:08:44.000Z</time>
      </trkpt>
      <trkpt lat="39.756599" lon="-8.82719">
        <ele>35.1</ele>
        <time>1970-01-01T01:08:45.000Z</time>
      </trkpt>
      <trkpt lat="39.756596" lon="-8.827115">
        <ele>35.1</ele>
        <time>1970-01-01T01:08:46.000Z</time>
      </trkpt>
      <trkpt lat="39.756589" lon="-8.827047">
        <ele>35.1</ele>
        <time>1970-01-01T01:08:47.000Z</time>
      </trkpt>
      <trkpt lat="39.756577" lon="-8.826985">
        <ele>35.2</ele>
        <time>1970-01-01T01:08:48.000Z</time>
      </trkpt>
      <trkpt lat="39.756563" lon="-8.826929">
        <ele>35.3</ele>
        <time>1970-01-01T01:08:49.000Z</time>
      </trkpt>
      <trkpt lat="39.756555" lon="-8.826873">
        <ele>35.4</ele>
        <time>1970-01-01T01:08:50.000Z</time>
      </trkpt>
      <trkpt lat="39.756539" lon="-8.82682">
        <ele>35.5</ele>
        <time>1970-01-01T01:08:51.000Z</time>
      </trkpt>
      <trkpt lat="39.756528" lon="-8.826759">
        <ele>35.6</ele>
        <time>1970-01-01T01:08:52.000Z</time>
      </trkpt>
      <trkpt lat="39.75651" lon="-8.826707">
        <ele>35.6</ele>
        <time>1970-01-01T01:08:53.000Z</time>
      </trkpt>
      <trkpt lat="39.756487" lon="-8.826655">
        <ele>35.7</ele>
        <time>1970-01-01T01:08:54.000Z</time>
      </trkpt>
      <trkpt lat="39.75647" lon="-8.826597">
        <ele>35.7</ele>
        <time>1970-01-01T01:08:55.000Z</time>
      </trkpt>
      <trkpt lat="39.756449" lon="-8.826529">
        <ele>35.8</ele>
        <time>1970-01-01T01:08:56.000Z</time>
      </trkpt>
      <trkpt lat="39.756429" lon="-8.826456">
        <ele>35.9</ele>
        <time>1970-01-01T01:08:57.000Z</time>
      </trkpt>
      <trkpt lat="39.756415" lon="-8.8264">
        <ele>35.9</ele>
        <time>1970-01-01T01:08:58.000Z</time>
      </trkpt>
      <trkpt lat="39.756388" lon="-8.826338">
        <ele>36</ele>
        <time>1970-01-01T01:08:59.000Z</time>
      </trkpt>
      <trkpt lat="39.756366" lon="-8.826268">
        <ele>36</ele>
        <time>1970-01-01T01:09:00.000Z</time>
      </trkpt>
      <trkpt lat="39.756358" lon="-8.826195">
        <ele>36.1</ele>
        <time>1970-01-01T01:09:01.000Z</time>
      </trkpt>
      <trkpt lat="39.75633" lon="-8.826128">
        <ele>36.1</ele>
        <time>1970-01-01T01:09:02.000Z</time>
      </trkpt>
      <trkpt lat="39.756309" lon="-8.826067">
        <ele>36.2</ele>
        <time>1970-01-01T01:09:03.000Z</time>
      </trkpt>
      <trkpt lat="39.756284" lon="-8.82601">
        <ele>36.2</ele>
        <time>1970-01-01T01:09:04.000Z</time>
      </trkpt>
      <trkpt lat="39.756256" lon="-8.825948">
        <ele>36.3</ele>
        <time>1970-01-01T01:09:05.000Z</time>
      </trkpt>
      <trkpt lat="39.756234" lon="-8.82587">
        <ele>36.3</ele>
        <time>1970-01-01T01:09:06.000Z</time>
      </trkpt>
      <trkpt lat="39.756214" lon="-8.825799">
        <ele>36.3</ele>
        <time>1970-01-01T01:09:07.000Z</time>
      </trkpt>
      <trkpt lat="39.756191" lon="-8.825727">
        <ele>36.4</ele>
        <time>1970-01-01T01:09:08.000Z</time>
      </trkpt>
      <trkpt lat="39.756162" lon="-8.82566">
        <ele>36.4</ele>
        <time>1970-01-01T01:09:09.000Z</time>
      </trkpt>
      <trkpt lat="39.756135" lon="-8.825579">
        <ele>36.4</ele>
        <time>1970-01-01T01:09:10.000Z</time>
      </trkpt>
      <trkpt lat="39.756114" lon="-8.825513">
        <ele>36.5</ele>
        <time>1970-01-01T01:09:11.000Z</time>
      </trkpt>
      <trkpt lat="39.756093" lon="-8.825444">
        <ele>36.5</ele>
        <time>1970-01-01T01:09:12.000Z</time>
      </trkpt>
      <trkpt lat="39.756065" lon="-8.825387">
        <ele>36.5</ele>
        <time>1970-01-01T01:09:13.000Z</time>
      </trkpt>
      <trkpt lat="39.756047" lon="-8.825322">
        <ele>36.6</ele>
        <time>1970-01-01T01:09:14.000Z</time>
      </trkpt>
      <trkpt lat="39.756026" lon="-8.82527">
        <ele>36.6</ele>
        <time>1970-01-01T01:09:16.000Z</time>
      </trkpt>
      <trkpt lat="39.756004" lon="-8.825216">
        <ele>36.7</ele>
        <time>1970-01-01T01:09:17.000Z</time>
      </trkpt>
      <trkpt lat="39.755981" lon="-8.825152">
        <ele>36.7</ele>
        <time>1970-01-01T01:09:18.000Z</time>
      </trkpt>
      <trkpt lat="39.755955" lon="-8.825084">
        <ele>36.8</ele>
        <time>1970-01-01T01:09:19.000Z</time>
      </trkpt>
      <trkpt lat="39.755933" lon="-8.825024">
        <ele>36.8</ele>
        <time>1970-01-01T01:09:20.000Z</time>
      </trkpt>
      <trkpt lat="39.755915" lon="-8.824956">
        <ele>36.8</ele>
        <time>1970-01-01T01:09:21.000Z</time>
      </trkpt>
      <trkpt lat="39.75589" lon="-8.824895">
        <ele>36.9</ele>
        <time>1970-01-01T01:09:22.000Z</time>
      </trkpt>
      <trkpt lat="39.755841" lon="-8.824776">
        <ele>36.9</ele>
        <time>1970-01-01T01:09:23.000Z</time>
      </trkpt>
      <trkpt lat="39.755819" lon="-8.824702">
        <ele>37</ele>
        <time>1970-01-01T01:09:24.000Z</time>
      </trkpt>
      <trkpt lat="39.755801" lon="-8.824643">
        <ele>37</ele>
        <time>1970-01-01T01:09:25.000Z</time>
      </trkpt>
      <trkpt lat="39.755776" lon="-8.824589">
        <ele>37</ele>
        <time>1970-01-01T01:09:26.000Z</time>
      </trkpt>
      <trkpt lat="39.755757" lon="-8.824518">
        <ele>37</ele>
        <time>1970-01-01T01:09:27.000Z</time>
      </trkpt>
      <trkpt lat="39.755736" lon="-8.824454">
        <ele>37</ele>
        <time>1970-01-01T01:09:28.000Z</time>
      </trkpt>
      <trkpt lat="39.755722" lon="-8.824403">
        <ele>37</ele>
        <time>1970-01-01T01:09:29.000Z</time>
      </trkpt>
      <trkpt lat="39.755702" lon="-8.824343">
        <ele>37</ele>
        <time>1970-01-01T01:09:30.000Z</time>
      </trkpt>
      <trkpt lat="39.755681" lon="-8.824283">
        <ele>37</ele>
        <time>1970-01-01T01:09:31.000Z</time>
      </trkpt>
      <trkpt lat="39.755663" lon="-8.824223">
        <ele>37.1</ele>
        <time>1970-01-01T01:09:32.000Z</time>
      </trkpt>
      <trkpt lat="39.755637" lon="-8.824137">
        <ele>37.1</ele>
        <time>1970-01-01T01:09:33.000Z</time>
      </trkpt>
      <trkpt lat="39.755615" lon="-8.824076">
        <ele>37.1</ele>
        <time>1970-01-01T01:09:34.000Z</time>
      </trkpt>
      <trkpt lat="39.755593" lon="-8.824008">
        <ele>37.1</ele>
        <time>1970-01-01T01:09:35.000Z</time>
      </trkpt>
      <trkpt lat="39.755575" lon="-8.823949">
        <ele>37.2</ele>
        <time>1970-01-01T01:09:36.000Z</time>
      </trkpt>
      <trkpt lat="39.75555" lon="-8.823884">
        <ele>37.2</ele>
        <time>1970-01-01T01:09:37.000Z</time>
      </trkpt>
      <trkpt lat="39.755527" lon="-8.823814">
        <ele>37.2</ele>
        <time>1970-01-01T01:09:38.000Z</time>
      </trkpt>
      <trkpt lat="39.755507" lon="-8.823745">
        <ele>37.2</ele>
        <time>1970-01-01T01:09:39.000Z</time>
      </trkpt>
      <trkpt lat="39.75548" lon="-8.82367">
        <ele>37.2</ele>
        <time>1970-01-01T01:09:40.000Z</time>
      </trkpt>
      <trkpt lat="39.755458" lon="-8.823597">
        <ele>37.2</ele>
        <time>1970-01-01T01:09:41.000Z</time>
      </trkpt>
      <trkpt lat="39.755433" lon="-8.823525">
        <ele>37.2</ele>
        <time>1970-01-01T01:09:42.000Z</time>
      </trkpt>
      <trkpt lat="39.755408" lon="-8.823456">
        <ele>37.2</ele>
        <time>1970-01-01T01:09:43.000Z</time>
      </trkpt>
      <trkpt lat="39.755388" lon="-8.823384">
        <ele>37.2</ele>
        <time>1970-01-01T01:09:44.000Z</time>
      </trkpt>
      <trkpt lat="39.755366" lon="-8.823313">
        <ele>37.2</ele>
        <time>1970-01-01T01:09:45.000Z</time>
      </trkpt>
      <trkpt lat="39.755344" lon="-8.823246">
        <ele>37.2</ele>
        <time>1970-01-01T01:09:46.000Z</time>
      </trkpt>
      <trkpt lat="39.755323" lon="-8.823182">
        <ele>37.2</ele>
        <time>1970-01-01T01:09:47.000Z</time>
      </trkpt>
      <trkpt lat="39.755303" lon="-8.823124">
        <ele>37.2</ele>
        <time>1970-01-01T01:09:48.000Z</time>
      </trkpt>
      <trkpt lat="39.755281" lon="-8.823065">
        <ele>37.2</ele>
        <time>1970-01-01T01:09:49.000Z</time>
      </trkpt>
      <trkpt lat="39.755258" lon="-8.823">
        <ele>37.2</ele>
        <time>1970-01-01T01:09:50.000Z</time>
      </trkpt>
      <trkpt lat="39.75524" lon="-8.822927">
        <ele>37.2</ele>
        <time>1970-01-01T01:09:51.000Z</time>
      </trkpt>
      <trkpt lat="39.755222" lon="-8.82285">
        <ele>37.2</ele>
        <time>1970-01-01T01:09:52.000Z</time>
      </trkpt>
      <trkpt lat="39.755196" lon="-8.822774">
        <ele>37.2</ele>
        <time>1970-01-01T01:09:53.000Z</time>
      </trkpt>
      <trkpt lat="39.755176" lon="-8.82269">
        <ele>37.2</ele>
        <time>1970-01-01T01:09:54.000Z</time>
      </trkpt>
      <trkpt lat="39.755154" lon="-8.822607">
        <ele>37.2</ele>
        <time>1970-01-01T01:09:55.000Z</time>
      </trkpt>
      <trkpt lat="39.75513" lon="-8.822529">
        <ele>37.2</ele>
        <time>1970-01-01T01:09:56.000Z</time>
      </trkpt>
      <trkpt lat="39.755109" lon="-8.822458">
        <ele>37.2</ele>
        <time>1970-01-01T01:09:57.000Z</time>
      </trkpt>
      <trkpt lat="39.755081" lon="-8.822393">
        <ele>37.2</ele>
        <time>1970-01-01T01:09:58.000Z</time>
      </trkpt>
      <trkpt lat="39.755063" lon="-8.822326">
        <ele>37.2</ele>
        <time>1970-01-01T01:09:59.000Z</time>
      </trkpt>
      <trkpt lat="39.755043" lon="-8.822264">
        <ele>37.2</ele>
        <time>1970-01-01T01:10:00.000Z</time>
      </trkpt>
      <trkpt lat="39.755028" lon="-8.822203">
        <ele>37.2</ele>
        <time>1970-01-01T01:10:01.000Z</time>
      </trkpt>
      <trkpt lat="39.755012" lon="-8.822145">
        <ele>37.2</ele>
        <time>1970-01-01T01:10:02.000Z</time>
      </trkpt>
      <trkpt lat="39.754994" lon="-8.822082">
        <ele>37.2</ele>
        <time>1970-01-01T01:10:03.000Z</time>
      </trkpt>
      <trkpt lat="39.754974" lon="-8.822007">
        <ele>37.2</ele>
        <time>1970-01-01T01:10:04.000Z</time>
      </trkpt>
      <trkpt lat="39.754943" lon="-8.82193">
        <ele>37.2</ele>
        <time>1970-01-01T01:10:05.000Z</time>
      </trkpt>
      <trkpt lat="39.754924" lon="-8.821846">
        <ele>37.2</ele>
        <time>1970-01-01T01:10:06.000Z</time>
      </trkpt>
      <trkpt lat="39.754904" lon="-8.821773">
        <ele>37.2</ele>
        <time>1970-01-01T01:10:07.000Z</time>
      </trkpt>
      <trkpt lat="39.754882" lon="-8.8217">
        <ele>37.2</ele>
        <time>1970-01-01T01:10:08.000Z</time>
      </trkpt>
      <trkpt lat="39.754859" lon="-8.821618">
        <ele>37.2</ele>
        <time>1970-01-01T01:10:09.000Z</time>
      </trkpt>
      <trkpt lat="39.754837" lon="-8.821543">
        <ele>37.2</ele>
        <time>1970-01-01T01:10:10.000Z</time>
      </trkpt>
      <trkpt lat="39.754809" lon="-8.821466">
        <ele>37.1</ele>
        <time>1970-01-01T01:10:11.000Z</time>
      </trkpt>
      <trkpt lat="39.754781" lon="-8.821395">
        <ele>37.1</ele>
        <time>1970-01-01T01:10:12.000Z</time>
      </trkpt>
      <trkpt lat="39.754757" lon="-8.821319">
        <ele>37.1</ele>
        <time>1970-01-01T01:10:13.000Z</time>
      </trkpt>
      <trkpt lat="39.754734" lon="-8.821246">
        <ele>37</ele>
        <time>1970-01-01T01:10:14.000Z</time>
      </trkpt>
      <trkpt lat="39.754715" lon="-8.821171">
        <ele>37</ele>
        <time>1970-01-01T01:10:15.000Z</time>
      </trkpt>
      <trkpt lat="39.754687" lon="-8.821092">
        <ele>37</ele>
        <time>1970-01-01T01:10:16.000Z</time>
      </trkpt>
      <trkpt lat="39.754666" lon="-8.821024">
        <ele>36.9</ele>
        <time>1970-01-01T01:10:17.000Z</time>
      </trkpt>
      <trkpt lat="39.75464" lon="-8.820957">
        <ele>36.9</ele>
        <time>1970-01-01T01:10:18.000Z</time>
      </trkpt>
      <trkpt lat="39.754612" lon="-8.820897">
        <ele>36.9</ele>
        <time>1970-01-01T01:10:19.000Z</time>
      </trkpt>
      <trkpt lat="39.754581" lon="-8.820831">
        <ele>36.9</ele>
        <time>1970-01-01T01:10:20.000Z</time>
      </trkpt>
      <trkpt lat="39.754558" lon="-8.820766">
        <ele>36.9</ele>
        <time>1970-01-01T01:10:21.000Z</time>
      </trkpt>
      <trkpt lat="39.754534" lon="-8.820713">
        <ele>36.9</ele>
        <time>1970-01-01T01:10:22.000Z</time>
      </trkpt>
      <trkpt lat="39.754507" lon="-8.820667">
        <ele>36.9</ele>
        <time>1970-01-01T01:10:23.000Z</time>
      </trkpt>
      <trkpt lat="39.754481" lon="-8.820637">
        <ele>37</ele>
        <time>1970-01-01T01:10:24.000Z</time>
      </trkpt>
      <trkpt lat="39.754446" lon="-8.820627">
        <ele>37.1</ele>
        <time>1970-01-01T01:10:25.000Z</time>
      </trkpt>
      <trkpt lat="39.754436" lon="-8.820628">
        <ele>37.1</ele>
        <time>1970-01-01T01:10:26.000Z</time>
      </trkpt>
      <trkpt lat="39.754405" lon="-8.820642">
        <ele>37.2</ele>
        <time>1970-01-01T01:10:27.000Z</time>
      </trkpt>
      <trkpt lat="39.754368" lon="-8.820655">
        <ele>36.8</ele>
        <time>1970-01-01T01:10:28.000Z</time>
      </trkpt>
      <trkpt lat="39.75433" lon="-8.820666">
        <ele>36.5</ele>
        <time>1970-01-01T01:10:29.000Z</time>
      </trkpt>
      <trkpt lat="39.754292" lon="-8.820675">
        <ele>36.1</ele>
        <time>1970-01-01T01:10:30.000Z</time>
      </trkpt>
      <trkpt lat="39.754258" lon="-8.820695">
        <ele>35.7</ele>
        <time>1970-01-01T01:10:31.000Z</time>
      </trkpt>
      <trkpt lat="39.754219" lon="-8.820714">
        <ele>35.3</ele>
        <time>1970-01-01T01:10:32.000Z</time>
      </trkpt>
      <trkpt lat="39.754178" lon="-8.820732">
        <ele>34.9</ele>
        <time>1970-01-01T01:10:33.000Z</time>
      </trkpt>
      <trkpt lat="39.754137" lon="-8.820757">
        <ele>34.4</ele>
        <time>1970-01-01T01:10:34.000Z</time>
      </trkpt>
      <trkpt lat="39.754092" lon="-8.820785">
        <ele>33.9</ele>
        <time>1970-01-01T01:10:35.000Z</time>
      </trkpt>
      <trkpt lat="39.75403" lon="-8.820796">
        <ele>33.2</ele>
        <time>1970-01-01T01:10:36.000Z</time>
      </trkpt>
      <trkpt lat="39.753981" lon="-8.820826">
        <ele>32.7</ele>
        <time>1970-01-01T01:10:37.000Z</time>
      </trkpt>
      <trkpt lat="39.753935" lon="-8.820862">
        <ele>32.1</ele>
        <time>1970-01-01T01:10:38.000Z</time>
      </trkpt>
      <trkpt lat="39.753895" lon="-8.820878">
        <ele>31.8</ele>
        <time>1970-01-01T01:10:39.000Z</time>
      </trkpt>
      <trkpt lat="39.75386" lon="-8.820891">
        <ele>31.4</ele>
        <time>1970-01-01T01:10:40.000Z</time>
      </trkpt>
      <trkpt lat="39.753825" lon="-8.820888">
        <ele>31.1</ele>
        <time>1970-01-01T01:10:41.000Z</time>
      </trkpt>
      <trkpt lat="39.753797" lon="-8.820877">
        <ele>30.4</ele>
        <time>1970-01-01T01:10:42.000Z</time>
      </trkpt>
      <trkpt lat="39.753762" lon="-8.820841">
        <ele>30.3</ele>
        <time>1970-01-01T01:10:43.000Z</time>
      </trkpt>
      <trkpt lat="39.753726" lon="-8.820796">
        <ele>30.2</ele>
        <time>1970-01-01T01:10:44.000Z</time>
      </trkpt>
      <trkpt lat="39.753693" lon="-8.820751">
        <ele>30.1</ele>
        <time>1970-01-01T01:10:45.000Z</time>
      </trkpt>
      <trkpt lat="39.753669" lon="-8.820709">
        <ele>30</ele>
        <time>1970-01-01T01:10:46.000Z</time>
      </trkpt>
      <trkpt lat="39.753651" lon="-8.820644">
        <ele>30</ele>
        <time>1970-01-01T01:10:47.000Z</time>
      </trkpt>
      <trkpt lat="39.753635" lon="-8.820585">
        <ele>29.9</ele>
        <time>1970-01-01T01:10:48.000Z</time>
      </trkpt>
      <trkpt lat="39.753619" lon="-8.820525">
        <ele>29.8</ele>
        <time>1970-01-01T01:10:49.000Z</time>
      </trkpt>
      <trkpt lat="39.753601" lon="-8.820467">
        <ele>29.8</ele>
        <time>1970-01-01T01:10:50.000Z</time>
      </trkpt>
      <trkpt lat="39.753593" lon="-8.820428">
        <ele>29.8</ele>
        <time>1970-01-01T01:10:51.000Z</time>
      </trkpt>
      <trkpt lat="39.753571" lon="-8.820395">
        <ele>29.8</ele>
        <time>1970-01-01T01:10:52.000Z</time>
      </trkpt>
      <trkpt lat="39.753578" lon="-8.820353">
        <ele>29.7</ele>
        <time>1970-01-01T01:10:53.000Z</time>
      </trkpt>
      <trkpt lat="39.753546" lon="-8.820301">
        <ele>29.7</ele>
        <time>1970-01-01T01:10:54.000Z</time>
      </trkpt>
      <trkpt lat="39.75353" lon="-8.820244">
        <ele>29.7</ele>
        <time>1970-01-01T01:10:55.000Z</time>
      </trkpt>
      <trkpt lat="39.753525" lon="-8.820207">
        <ele>29.6</ele>
        <time>1970-01-01T01:10:56.000Z</time>
      </trkpt>
      <trkpt lat="39.753501" lon="-8.820183">
        <ele>29.6</ele>
        <time>1970-01-01T01:10:57.000Z</time>
      </trkpt>
      <trkpt lat="39.753484" lon="-8.820181">
        <ele>29.6</ele>
        <time>1970-01-01T01:10:58.000Z</time>
      </trkpt>
      <trkpt lat="39.753441" lon="-8.820176">
        <ele>29.4</ele>
        <time>1970-01-01T01:10:59.000Z</time>
      </trkpt>
      <trkpt lat="39.753407" lon="-8.820196">
        <ele>29.2</ele>
        <time>1970-01-01T01:11:00.000Z</time>
      </trkpt>
      <trkpt lat="39.753373" lon="-8.820208">
        <ele>29.1</ele>
        <time>1970-01-01T01:11:01.000Z</time>
      </trkpt>
      <trkpt lat="39.753337" lon="-8.820199">
        <ele>29</ele>
        <time>1970-01-01T01:11:02.000Z</time>
      </trkpt>
      <trkpt lat="39.753288" lon="-8.820205">
        <ele>28.8</ele>
        <time>1970-01-01T01:11:03.000Z</time>
      </trkpt>
      <trkpt lat="39.753243" lon="-8.8202">
        <ele>28.6</ele>
        <time>1970-01-01T01:11:04.000Z</time>
      </trkpt>
      <trkpt lat="39.753209" lon="-8.820207">
        <ele>28.5</ele>
        <time>1970-01-01T01:11:05.000Z</time>
      </trkpt>
      <trkpt lat="39.753153" lon="-8.820217">
        <ele>28.3</ele>
        <time>1970-01-01T01:11:06.000Z</time>
      </trkpt>
      <trkpt lat="39.753104" lon="-8.820211">
        <ele>28.2</ele>
        <time>1970-01-01T01:11:07.000Z</time>
      </trkpt>
      <trkpt lat="39.753054" lon="-8.820214">
        <ele>28.1</ele>
        <time>1970-01-01T01:11:08.000Z</time>
      </trkpt>
      <trkpt lat="39.753006" lon="-8.82023">
        <ele>28</ele>
        <time>1970-01-01T01:11:09.000Z</time>
      </trkpt>
      <trkpt lat="39.752957" lon="-8.820236">
        <ele>27.8</ele>
        <time>1970-01-01T01:11:10.000Z</time>
      </trkpt>
      <trkpt lat="39.752913" lon="-8.820238">
        <ele>27.7</ele>
        <time>1970-01-01T01:11:11.000Z</time>
      </trkpt>
      <trkpt lat="39.75287" lon="-8.820236">
        <ele>27.6</ele>
        <time>1970-01-01T01:11:12.000Z</time>
      </trkpt>
      <trkpt lat="39.752832" lon="-8.82023">
        <ele>27.5</ele>
        <time>1970-01-01T01:11:13.000Z</time>
      </trkpt>
      <trkpt lat="39.752774" lon="-8.820211">
        <ele>27.4</ele>
        <time>1970-01-01T01:11:14.000Z</time>
      </trkpt>
      <trkpt lat="39.752719" lon="-8.820183">
        <ele>27.3</ele>
        <time>1970-01-01T01:11:15.000Z</time>
      </trkpt>
      <trkpt lat="39.752671" lon="-8.820149">
        <ele>27.2</ele>
        <time>1970-01-01T01:11:16.000Z</time>
      </trkpt>
      <trkpt lat="39.752624" lon="-8.820117">
        <ele>27.1</ele>
        <time>1970-01-01T01:11:17.000Z</time>
      </trkpt>
      <trkpt lat="39.752582" lon="-8.820087">
        <ele>27</ele>
        <time>1970-01-01T01:11:18.000Z</time>
      </trkpt>
      <trkpt lat="39.752538" lon="-8.82007">
        <ele>27</ele>
        <time>1970-01-01T01:11:19.000Z</time>
      </trkpt>
      <trkpt lat="39.752489" lon="-8.820058">
        <ele>26.9</ele>
        <time>1970-01-01T01:11:20.000Z</time>
      </trkpt>
      <trkpt lat="39.752436" lon="-8.820051">
        <ele>26.9</ele>
        <time>1970-01-01T01:11:22.000Z</time>
      </trkpt>
      <trkpt lat="39.752389" lon="-8.820049">
        <ele>26.9</ele>
        <time>1970-01-01T01:11:23.000Z</time>
      </trkpt>
      <trkpt lat="39.752337" lon="-8.820041">
        <ele>26.8</ele>
        <time>1970-01-01T01:11:24.000Z</time>
      </trkpt>
      <trkpt lat="39.752295" lon="-8.820043">
        <ele>26.8</ele>
        <time>1970-01-01T01:11:25.000Z</time>
      </trkpt>
      <trkpt lat="39.752253" lon="-8.82003">
        <ele>26.8</ele>
        <time>1970-01-01T01:11:26.000Z</time>
      </trkpt>
      <trkpt lat="39.752171" lon="-8.820015">
        <ele>26.9</ele>
        <time>1970-01-01T01:11:27.000Z</time>
      </trkpt>
      <trkpt lat="39.752133" lon="-8.820009">
        <ele>26.9</ele>
        <time>1970-01-01T01:11:28.000Z</time>
      </trkpt>
      <trkpt lat="39.752097" lon="-8.820007">
        <ele>26.9</ele>
        <time>1970-01-01T01:11:30.000Z</time>
      </trkpt>
      <trkpt lat="39.752063" lon="-8.820005">
        <ele>26.9</ele>
        <time>1970-01-01T01:11:31.000Z</time>
      </trkpt>
      <trkpt lat="39.752023" lon="-8.819992">
        <ele>27</ele>
        <time>1970-01-01T01:11:32.000Z</time>
      </trkpt>
      <trkpt lat="39.751946" lon="-8.819996">
        <ele>27.1</ele>
        <time>1970-01-01T01:11:33.000Z</time>
      </trkpt>
      <trkpt lat="39.751908" lon="-8.819986">
        <ele>27.1</ele>
        <time>1970-01-01T01:11:34.000Z</time>
      </trkpt>
      <trkpt lat="39.751868" lon="-8.819984">
        <ele>27.2</ele>
        <time>1970-01-01T01:11:35.000Z</time>
      </trkpt>
      <trkpt lat="39.75183" lon="-8.819973">
        <ele>27.3</ele>
        <time>1970-01-01T01:11:36.000Z</time>
      </trkpt>
      <trkpt lat="39.751798" lon="-8.81996">
        <ele>27.3</ele>
        <time>1970-01-01T01:11:37.000Z</time>
      </trkpt>
      <trkpt lat="39.75177" lon="-8.819936">
        <ele>27.4</ele>
        <time>1970-01-01T01:11:38.000Z</time>
      </trkpt>
      <trkpt lat="39.751756" lon="-8.819888">
        <ele>28</ele>
        <time>1970-01-01T01:11:39.000Z</time>
      </trkpt>
      <trkpt lat="39.751755" lon="-8.819841">
        <ele>28</ele>
        <time>1970-01-01T01:11:40.000Z</time>
      </trkpt>
      <trkpt lat="39.751763" lon="-8.8198">
        <ele>28</ele>
        <time>1970-01-01T01:11:41.000Z</time>
      </trkpt>
      <trkpt lat="39.751782" lon="-8.819756">
        <ele>28</ele>
        <time>1970-01-01T01:11:42.000Z</time>
      </trkpt>
      <trkpt lat="39.7518" lon="-8.819707">
        <ele>28</ele>
        <time>1970-01-01T01:11:43.000Z</time>
      </trkpt>
      <trkpt lat="39.751815" lon="-8.819658">
        <ele>28</ele>
        <time>1970-01-01T01:11:44.000Z</time>
      </trkpt>
      <trkpt lat="39.751839" lon="-8.819605">
        <ele>28</ele>
        <time>1970-01-01T01:11:45.000Z</time>
      </trkpt>
      <trkpt lat="39.751851" lon="-8.819551">
        <ele>28</ele>
        <time>1970-01-01T01:11:46.000Z</time>
      </trkpt>
      <trkpt lat="39.75185" lon="-8.819495">
        <ele>28.1</ele>
        <time>1970-01-01T01:11:47.000Z</time>
      </trkpt>
      <trkpt lat="39.751847" lon="-8.819454">
        <ele>28.1</ele>
        <time>1970-01-01T01:11:48.000Z</time>
      </trkpt>
      <trkpt lat="39.75184" lon="-8.819418">
        <ele>28.1</ele>
        <time>1970-01-01T01:11:49.000Z</time>
      </trkpt>
      <trkpt lat="39.751842" lon="-8.819373">
        <ele>28.1</ele>
        <time>1970-01-01T01:11:50.000Z</time>
      </trkpt>
      <trkpt lat="39.751853" lon="-8.81933">
        <ele>28.1</ele>
        <time>1970-01-01T01:11:51.000Z</time>
      </trkpt>
      <trkpt lat="39.751871" lon="-8.819278">
        <ele>28.1</ele>
        <time>1970-01-01T01:11:52.000Z</time>
      </trkpt>
      <trkpt lat="39.751887" lon="-8.819228">
        <ele>28.1</ele>
        <time>1970-01-01T01:11:53.000Z</time>
      </trkpt>
      <trkpt lat="39.751905" lon="-8.819172">
        <ele>28.2</ele>
        <time>1970-01-01T01:11:54.000Z</time>
      </trkpt>
      <trkpt lat="39.751921" lon="-8.819117">
        <ele>28.2</ele>
        <time>1970-01-01T01:11:55.000Z</time>
      </trkpt>
      <trkpt lat="39.751943" lon="-8.819053">
        <ele>28.2</ele>
        <time>1970-01-01T01:11:56.000Z</time>
      </trkpt>
      <trkpt lat="39.751955" lon="-8.819007">
        <ele>28.2</ele>
        <time>1970-01-01T01:11:57.000Z</time>
      </trkpt>
      <trkpt lat="39.75197" lon="-8.818936">
        <ele>28.2</ele>
        <time>1970-01-01T01:11:58.000Z</time>
      </trkpt>
      <trkpt lat="39.75198" lon="-8.818875">
        <ele>28.2</ele>
        <time>1970-01-01T01:11:59.000Z</time>
      </trkpt>
      <trkpt lat="39.751994" lon="-8.818814">
        <ele>28.2</ele>
        <time>1970-01-01T01:12:00.000Z</time>
      </trkpt>
      <trkpt lat="39.752008" lon="-8.818764">
        <ele>28.2</ele>
        <time>1970-01-01T01:12:01.000Z</time>
      </trkpt>
      <trkpt lat="39.752024" lon="-8.818713">
        <ele>28.1</ele>
        <time>1970-01-01T01:12:02.000Z</time>
      </trkpt>
      <trkpt lat="39.752035" lon="-8.818657">
        <ele>28.1</ele>
        <time>1970-01-01T01:12:03.000Z</time>
      </trkpt>
      <trkpt lat="39.752036" lon="-8.818608">
        <ele>28.1</ele>
        <time>1970-01-01T01:12:04.000Z</time>
      </trkpt>
      <trkpt lat="39.752039" lon="-8.818543">
        <ele>28.1</ele>
        <time>1970-01-01T01:12:05.000Z</time>
      </trkpt>
      <trkpt lat="39.752049" lon="-8.818476">
        <ele>28.2</ele>
        <time>1970-01-01T01:12:06.000Z</time>
      </trkpt>
      <trkpt lat="39.752057" lon="-8.818417">
        <ele>28.2</ele>
        <time>1970-01-01T01:12:07.000Z</time>
      </trkpt>
      <trkpt lat="39.752062" lon="-8.818361">
        <ele>28.2</ele>
        <time>1970-01-01T01:12:08.000Z</time>
      </trkpt>
      <trkpt lat="39.752063" lon="-8.818305">
        <ele>28.2</ele>
        <time>1970-01-01T01:12:09.000Z</time>
      </trkpt>
      <trkpt lat="39.752066" lon="-8.818251">
        <ele>28.2</ele>
        <time>1970-01-01T01:12:10.000Z</time>
      </trkpt>
      <trkpt lat="39.752074" lon="-8.818181">
        <ele>28.2</ele>
        <time>1970-01-01T01:12:11.000Z</time>
      </trkpt>
      <trkpt lat="39.75207" lon="-8.818129">
        <ele>28.2</ele>
        <time>1970-01-01T01:12:12.000Z</time>
      </trkpt>
      <trkpt lat="39.752073" lon="-8.818067">
        <ele>28.3</ele>
        <time>1970-01-01T01:12:13.000Z</time>
      </trkpt>
      <trkpt lat="39.752076" lon="-8.818008">
        <ele>28.3</ele>
        <time>1970-01-01T01:12:14.000Z</time>
      </trkpt>
      <trkpt lat="39.752079" lon="-8.817961">
        <ele>28.3</ele>
        <time>1970-01-01T01:12:15.000Z</time>
      </trkpt>
      <trkpt lat="39.752079" lon="-8.817911">
        <ele>28.3</ele>
        <time>1970-01-01T01:12:16.000Z</time>
      </trkpt>
      <trkpt lat="39.752078" lon="-8.817846">
        <ele>28.3</ele>
        <time>1970-01-01T01:12:17.000Z</time>
      </trkpt>
      <trkpt lat="39.752077" lon="-8.817781">
        <ele>28.3</ele>
        <time>1970-01-01T01:12:18.000Z</time>
      </trkpt>
      <trkpt lat="39.752078" lon="-8.817716">
        <ele>28.3</ele>
        <time>1970-01-01T01:12:19.000Z</time>
      </trkpt>
      <trkpt lat="39.752079" lon="-8.817648">
        <ele>28.3</ele>
        <time>1970-01-01T01:12:20.000Z</time>
      </trkpt>
      <trkpt lat="39.752073" lon="-8.817591">
        <ele>28.3</ele>
        <time>1970-01-01T01:12:21.000Z</time>
      </trkpt>
      <trkpt lat="39.752064" lon="-8.81753">
        <ele>28.3</ele>
        <time>1970-01-01T01:12:22.000Z</time>
      </trkpt>
      <trkpt lat="39.752057" lon="-8.817479">
        <ele>28.3</ele>
        <time>1970-01-01T01:12:23.000Z</time>
      </trkpt>
      <trkpt lat="39.752044" lon="-8.817421">
        <ele>28.3</ele>
        <time>1970-01-01T01:12:24.000Z</time>
      </trkpt>
      <trkpt lat="39.752026" lon="-8.817362">
        <ele>28.3</ele>
        <time>1970-01-01T01:12:25.000Z</time>
      </trkpt>
      <trkpt lat="39.752006" lon="-8.817297">
        <ele>28.3</ele>
        <time>1970-01-01T01:12:26.000Z</time>
      </trkpt>
      <trkpt lat="39.751984" lon="-8.817237">
        <ele>28.3</ele>
        <time>1970-01-01T01:12:27.000Z</time>
      </trkpt>
      <trkpt lat="39.751967" lon="-8.817183">
        <ele>28.4</ele>
        <time>1970-01-01T01:12:28.000Z</time>
      </trkpt>
      <trkpt lat="39.751947" lon="-8.817131">
        <ele>28.4</ele>
        <time>1970-01-01T01:12:29.000Z</time>
      </trkpt>
      <trkpt lat="39.751925" lon="-8.817086">
        <ele>28.5</ele>
        <time>1970-01-01T01:12:30.000Z</time>
      </trkpt>
      <trkpt lat="39.751907" lon="-8.817044">
        <ele>28.5</ele>
        <time>1970-01-01T01:12:31.000Z</time>
      </trkpt>
      <trkpt lat="39.751925" lon="-8.816965">
        <ele>28.6</ele>
        <time>1970-01-01T01:12:32.000Z</time>
      </trkpt>
      <trkpt lat="39.751927" lon="-8.816909">
        <ele>28.7</ele>
        <time>1970-01-01T01:12:33.000Z</time>
      </trkpt>
      <trkpt lat="39.751919" lon="-8.81681">
        <ele>28.8</ele>
        <time>1970-01-01T01:12:34.000Z</time>
      </trkpt>
      <trkpt lat="39.75191" lon="-8.816746">
        <ele>28.9</ele>
        <time>1970-01-01T01:12:35.000Z</time>
      </trkpt>
      <trkpt lat="39.751891" lon="-8.816695">
        <ele>29</ele>
        <time>1970-01-01T01:12:36.000Z</time>
      </trkpt>
      <trkpt lat="39.751872" lon="-8.816651">
        <ele>29.1</ele>
        <time>1970-01-01T01:12:37.000Z</time>
      </trkpt>
      <trkpt lat="39.751864" lon="-8.816604">
        <ele>29.2</ele>
        <time>1970-01-01T01:12:38.000Z</time>
      </trkpt>
      <trkpt lat="39.751853" lon="-8.816554">
        <ele>29.3</ele>
        <time>1970-01-01T01:12:39.000Z</time>
      </trkpt>
      <trkpt lat="39.751842" lon="-8.816511">
        <ele>29.4</ele>
        <time>1970-01-01T01:12:40.000Z</time>
      </trkpt>
      <trkpt lat="39.751828" lon="-8.816461">
        <ele>29.4</ele>
        <time>1970-01-01T01:12:41.000Z</time>
      </trkpt>
      <trkpt lat="39.751811" lon="-8.816418">
        <ele>29.5</ele>
        <time>1970-01-01T01:12:42.000Z</time>
      </trkpt>
      <trkpt lat="39.751798" lon="-8.816374">
        <ele>29.4</ele>
        <time>1970-01-01T01:12:43.000Z</time>
      </trkpt>
      <trkpt lat="39.751774" lon="-8.816311">
        <ele>29.4</ele>
        <time>1970-01-01T01:12:44.000Z</time>
      </trkpt>
      <trkpt lat="39.751765" lon="-8.816249">
        <ele>29.3</ele>
        <time>1970-01-01T01:12:45.000Z</time>
      </trkpt>
      <trkpt lat="39.751747" lon="-8.816188">
        <ele>29.1</ele>
        <time>1970-01-01T01:12:46.000Z</time>
      </trkpt>
      <trkpt lat="39.751723" lon="-8.816147">
        <ele>29</ele>
        <time>1970-01-01T01:12:47.000Z</time>
      </trkpt>
      <trkpt lat="39.751702" lon="-8.816094">
        <ele>28.9</ele>
        <time>1970-01-01T01:12:48.000Z</time>
      </trkpt>
      <trkpt lat="39.751674" lon="-8.816023">
        <ele>28.7</ele>
        <time>1970-01-01T01:12:49.000Z</time>
      </trkpt>
      <trkpt lat="39.751656" lon="-8.815955">
        <ele>28.6</ele>
        <time>1970-01-01T01:12:50.000Z</time>
      </trkpt>
      <trkpt lat="39.751642" lon="-8.815888">
        <ele>28.5</ele>
        <time>1970-01-01T01:12:51.000Z</time>
      </trkpt>
      <trkpt lat="39.751626" lon="-8.815821">
        <ele>28.5</ele>
        <time>1970-01-01T01:12:52.000Z</time>
      </trkpt>
      <trkpt lat="39.751602" lon="-8.815763">
        <ele>28.4</ele>
        <time>1970-01-01T01:12:53.000Z</time>
      </trkpt>
      <trkpt lat="39.751568" lon="-8.815718">
        <ele>28.4</ele>
        <time>1970-01-01T01:12:54.000Z</time>
      </trkpt>
      <trkpt lat="39.751556" lon="-8.815671">
        <ele>28.4</ele>
        <time>1970-01-01T01:12:55.000Z</time>
      </trkpt>
      <trkpt lat="39.751529" lon="-8.81562">
        <ele>28.4</ele>
        <time>1970-01-01T01:12:56.000Z</time>
      </trkpt>
      <trkpt lat="39.751506" lon="-8.815563">
        <ele>28.4</ele>
        <time>1970-01-01T01:12:57.000Z</time>
      </trkpt>
      <trkpt lat="39.751485" lon="-8.815526">
        <ele>28.4</ele>
        <time>1970-01-01T01:12:58.000Z</time>
      </trkpt>
      <trkpt lat="39.751467" lon="-8.815467">
        <ele>28.4</ele>
        <time>1970-01-01T01:12:59.000Z</time>
      </trkpt>
      <trkpt lat="39.751456" lon="-8.815389">
        <ele>28.4</ele>
        <time>1970-01-01T01:13:00.000Z</time>
      </trkpt>
      <trkpt lat="39.751441" lon="-8.815343">
        <ele>28.5</ele>
        <time>1970-01-01T01:13:01.000Z</time>
      </trkpt>
      <trkpt lat="39.751424" lon="-8.8153">
        <ele>28.5</ele>
        <time>1970-01-01T01:13:02.000Z</time>
      </trkpt>
      <trkpt lat="39.751411" lon="-8.815242">
        <ele>28.5</ele>
        <time>1970-01-01T01:13:03.000Z</time>
      </trkpt>
      <trkpt lat="39.751397" lon="-8.815203">
        <ele>28.5</ele>
        <time>1970-01-01T01:13:04.000Z</time>
      </trkpt>
      <trkpt lat="39.751387" lon="-8.815169">
        <ele>28.5</ele>
        <time>1970-01-01T01:13:05.000Z</time>
      </trkpt>
      <trkpt lat="39.751367" lon="-8.815112">
        <ele>28.5</ele>
        <time>1970-01-01T01:13:06.000Z</time>
      </trkpt>
      <trkpt lat="39.751342" lon="-8.815053">
        <ele>28.4</ele>
        <time>1970-01-01T01:13:07.000Z</time>
      </trkpt>
      <trkpt lat="39.751321" lon="-8.814999">
        <ele>28.4</ele>
        <time>1970-01-01T01:13:08.000Z</time>
      </trkpt>
      <trkpt lat="39.751318" lon="-8.814939">
        <ele>28.3</ele>
        <time>1970-01-01T01:13:09.000Z</time>
      </trkpt>
      <trkpt lat="39.751315" lon="-8.814883">
        <ele>28.2</ele>
        <time>1970-01-01T01:13:10.000Z</time>
      </trkpt>
      <trkpt lat="39.75131" lon="-8.814825">
        <ele>28.1</ele>
        <time>1970-01-01T01:13:11.000Z</time>
      </trkpt>
      <trkpt lat="39.751318" lon="-8.814759">
        <ele>28</ele>
        <time>1970-01-01T01:13:12.000Z</time>
      </trkpt>
      <trkpt lat="39.751322" lon="-8.814725">
        <ele>27.9</ele>
        <time>1970-01-01T01:13:13.000Z</time>
      </trkpt>
      <trkpt lat="39.751323" lon="-8.814709">
        <ele>27.9</ele>
        <time>1970-01-01T01:13:14.000Z</time>
      </trkpt>
      <trkpt lat="39.751313" lon="-8.814636">
        <ele>27.8</ele>
        <time>1970-01-01T01:13:15.000Z</time>
      </trkpt>
      <trkpt lat="39.751294" lon="-8.814558">
        <ele>27.8</ele>
        <time>1970-01-01T01:13:16.000Z</time>
      </trkpt>
      <trkpt lat="39.751292" lon="-8.814463">
        <ele>27.9</ele>
        <time>1970-01-01T01:13:17.000Z</time>
      </trkpt>
      <trkpt lat="39.751306" lon="-8.814373">
        <ele>28.1</ele>
        <time>1970-01-01T01:13:18.000Z</time>
      </trkpt>
      <trkpt lat="39.751311" lon="-8.814319">
        <ele>28.2</ele>
        <time>1970-01-01T01:13:19.000Z</time>
      </trkpt>
      <trkpt lat="39.751307" lon="-8.814259">
        <ele>28.4</ele>
        <time>1970-01-01T01:13:20.000Z</time>
      </trkpt>
      <trkpt lat="39.751301" lon="-8.81421">
        <ele>28.5</ele>
        <time>1970-01-01T01:13:21.000Z</time>
      </trkpt>
      <trkpt lat="39.751309" lon="-8.814162">
        <ele>28.6</ele>
        <time>1970-01-01T01:13:22.000Z</time>
      </trkpt>
      <trkpt lat="39.751306" lon="-8.814108">
        <ele>28.7</ele>
        <time>1970-01-01T01:13:23.000Z</time>
      </trkpt>
      <trkpt lat="39.7513" lon="-8.814053">
        <ele>28.8</ele>
        <time>1970-01-01T01:13:24.000Z</time>
      </trkpt>
      <trkpt lat="39.751312" lon="-8.813988">
        <ele>28.9</ele>
        <time>1970-01-01T01:13:25.000Z</time>
      </trkpt>
      <trkpt lat="39.751314" lon="-8.813918">
        <ele>28.9</ele>
        <time>1970-01-01T01:13:26.000Z</time>
      </trkpt>
      <trkpt lat="39.751312" lon="-8.813849">
        <ele>29</ele>
        <time>1970-01-01T01:13:28.000Z</time>
      </trkpt>
      <trkpt lat="39.75131" lon="-8.813779">
        <ele>29</ele>
        <time>1970-01-01T01:13:29.000Z</time>
      </trkpt>
      <trkpt lat="39.751303" lon="-8.813713">
        <ele>29</ele>
        <time>1970-01-01T01:13:30.000Z</time>
      </trkpt>
      <trkpt lat="39.751297" lon="-8.813595">
        <ele>29</ele>
        <time>1970-01-01T01:13:31.000Z</time>
      </trkpt>
      <trkpt lat="39.751302" lon="-8.813522">
        <ele>29</ele>
        <time>1970-01-01T01:13:32.000Z</time>
      </trkpt>
      <trkpt lat="39.75131" lon="-8.813435">
        <ele>29.1</ele>
        <time>1970-01-01T01:13:33.000Z</time>
      </trkpt>
      <trkpt lat="39.751316" lon="-8.813358">
        <ele>29.1</ele>
        <time>1970-01-01T01:13:34.000Z</time>
      </trkpt>
      <trkpt lat="39.751317" lon="-8.813289">
        <ele>29.1</ele>
        <time>1970-01-01T01:13:35.000Z</time>
      </trkpt>
      <trkpt lat="39.751318" lon="-8.813237">
        <ele>29.2</ele>
        <time>1970-01-01T01:13:36.000Z</time>
      </trkpt>
      <trkpt lat="39.751313" lon="-8.813196">
        <ele>29.2</ele>
        <time>1970-01-01T01:13:37.000Z</time>
      </trkpt>
      <trkpt lat="39.751317" lon="-8.813134">
        <ele>29.2</ele>
        <time>1970-01-01T01:13:38.000Z</time>
      </trkpt>
      <trkpt lat="39.751319" lon="-8.813063">
        <ele>29.3</ele>
        <time>1970-01-01T01:13:39.000Z</time>
      </trkpt>
      <trkpt lat="39.751322" lon="-8.813001">
        <ele>29.3</ele>
        <time>1970-01-01T01:13:40.000Z</time>
      </trkpt>
      <trkpt lat="39.751332" lon="-8.812929">
        <ele>29.3</ele>
        <time>1970-01-01T01:13:41.000Z</time>
      </trkpt>
      <trkpt lat="39.751336" lon="-8.812864">
        <ele>29.4</ele>
        <time>1970-01-01T01:13:42.000Z</time>
      </trkpt>
      <trkpt lat="39.751342" lon="-8.812806">
        <ele>29.4</ele>
        <time>1970-01-01T01:13:43.000Z</time>
      </trkpt>
      <trkpt lat="39.751349" lon="-8.812751">
        <ele>29.4</ele>
        <time>1970-01-01T01:13:44.000Z</time>
      </trkpt>
      <trkpt lat="39.751363" lon="-8.812692">
        <ele>29.5</ele>
        <time>1970-01-01T01:13:46.000Z</time>
      </trkpt>
      <trkpt lat="39.751371" lon="-8.812638">
        <ele>29.5</ele>
        <time>1970-01-01T01:13:47.000Z</time>
      </trkpt>
      <trkpt lat="39.751387" lon="-8.812587">
        <ele>29.5</ele>
        <time>1970-01-01T01:13:48.000Z</time>
      </trkpt>
      <trkpt lat="39.751399" lon="-8.812531">
        <ele>29.5</ele>
        <time>1970-01-01T01:13:49.000Z</time>
      </trkpt>
      <trkpt lat="39.751413" lon="-8.812475">
        <ele>29.6</ele>
        <time>1970-01-01T01:13:50.000Z</time>
      </trkpt>
      <trkpt lat="39.751425" lon="-8.812421">
        <ele>29.6</ele>
        <time>1970-01-01T01:13:51.000Z</time>
      </trkpt>
      <trkpt lat="39.751431" lon="-8.812379">
        <ele>29.6</ele>
        <time>1970-01-01T01:13:52.000Z</time>
      </trkpt>
      <trkpt lat="39.751427" lon="-8.812339">
        <ele>29.6</ele>
        <time>1970-01-01T01:13:53.000Z</time>
      </trkpt>
      <trkpt lat="39.751422" lon="-8.812327">
        <ele>29.6</ele>
        <time>1970-01-01T01:13:54.000Z</time>
      </trkpt>
      <trkpt lat="39.751396" lon="-8.81231">
        <ele>29.6</ele>
        <time>1970-01-01T01:13:55.000Z</time>
      </trkpt>
      <trkpt lat="39.751365" lon="-8.812311">
        <ele>29.7</ele>
        <time>1970-01-01T01:13:56.000Z</time>
      </trkpt>
      <trkpt lat="39.751331" lon="-8.812307">
        <ele>29.7</ele>
        <time>1970-01-01T01:13:57.000Z</time>
      </trkpt>
      <trkpt lat="39.751292" lon="-8.812296">
        <ele>29.7</ele>
        <time>1970-01-01T01:13:58.000Z</time>
      </trkpt>
      <trkpt lat="39.751275" lon="-8.812297">
        <ele>29.7</ele>
        <time>1970-01-01T01:13:59.000Z</time>
      </trkpt>
      <trkpt lat="39.751243" lon="-8.81229">
        <ele>29.7</ele>
        <time>1970-01-01T01:14:00.000Z</time>
      </trkpt>
      <trkpt lat="39.75121" lon="-8.812287">
        <ele>29.7</ele>
        <time>1970-01-01T01:14:01.000Z</time>
      </trkpt>
      <trkpt lat="39.75117" lon="-8.812277">
        <ele>29.7</ele>
        <time>1970-01-01T01:14:02.000Z</time>
      </trkpt>
      <trkpt lat="39.751155" lon="-8.812275">
        <ele>29.7</ele>
        <time>1970-01-01T01:14:03.000Z</time>
      </trkpt>
      <trkpt lat="39.751124" lon="-8.812268">
        <ele>29.7</ele>
        <time>1970-01-01T01:14:04.000Z</time>
      </trkpt>
      <trkpt lat="39.751114" lon="-8.812268">
        <ele>29.7</ele>
        <time>1970-01-01T01:14:05.000Z</time>
      </trkpt>
      <trkpt lat="39.751078" lon="-8.812263">
        <ele>29.7</ele>
        <time>1970-01-01T01:14:06.000Z</time>
      </trkpt>
      <trkpt lat="39.751065" lon="-8.812259">
        <ele>29.6</ele>
        <time>1970-01-01T01:14:07.000Z</time>
      </trkpt>
      <trkpt lat="39.751001" lon="-8.81217">
        <ele>29.5</ele>
        <time>1970-01-01T01:14:08.000Z</time>
      </trkpt>
      <trkpt lat="39.750979" lon="-8.812115">
        <ele>29.6</ele>
        <time>1970-01-01T01:14:09.000Z</time>
      </trkpt>
      <trkpt lat="39.750961" lon="-8.812059">
        <ele>29.6</ele>
        <time>1970-01-01T01:14:10.000Z</time>
      </trkpt>
      <trkpt lat="39.75095" lon="-8.812006">
        <ele>29.6</ele>
        <time>1970-01-01T01:14:11.000Z</time>
      </trkpt>
      <trkpt lat="39.750957" lon="-8.811958">
        <ele>29.6</ele>
        <time>1970-01-01T01:14:12.000Z</time>
      </trkpt>
      <trkpt lat="39.750973" lon="-8.811913">
        <ele>29.7</ele>
        <time>1970-01-01T01:14:13.000Z</time>
      </trkpt>
      <trkpt lat="39.751" lon="-8.811871">
        <ele>29.7</ele>
        <time>1970-01-01T01:14:14.000Z</time>
      </trkpt>
      <trkpt lat="39.751028" lon="-8.81183">
        <ele>29.7</ele>
        <time>1970-01-01T01:14:15.000Z</time>
      </trkpt>
      <trkpt lat="39.751048" lon="-8.81179">
        <ele>29.7</ele>
        <time>1970-01-01T01:14:16.000Z</time>
      </trkpt>
      <trkpt lat="39.751061" lon="-8.811744">
        <ele>29.7</ele>
        <time>1970-01-01T01:14:17.000Z</time>
      </trkpt>
      <trkpt lat="39.751066" lon="-8.811681">
        <ele>29.7</ele>
        <time>1970-01-01T01:14:18.000Z</time>
      </trkpt>
      <trkpt lat="39.751064" lon="-8.811621">
        <ele>29.7</ele>
        <time>1970-01-01T01:14:19.000Z</time>
      </trkpt>
      <trkpt lat="39.751062" lon="-8.811561">
        <ele>29.7</ele>
        <time>1970-01-01T01:14:20.000Z</time>
      </trkpt>
      <trkpt lat="39.751063" lon="-8.811494">
        <ele>29.7</ele>
        <time>1970-01-01T01:14:21.000Z</time>
      </trkpt>
      <trkpt lat="39.751065" lon="-8.811422">
        <ele>29.7</ele>
        <time>1970-01-01T01:14:22.000Z</time>
      </trkpt>
      <trkpt lat="39.751053" lon="-8.81137">
        <ele>29.6</ele>
        <time>1970-01-01T01:14:23.000Z</time>
      </trkpt>
      <trkpt lat="39.751049" lon="-8.811311">
        <ele>29.6</ele>
        <time>1970-01-01T01:14:24.000Z</time>
      </trkpt>
      <trkpt lat="39.75104" lon="-8.811244">
        <ele>29.6</ele>
        <time>1970-01-01T01:14:25.000Z</time>
      </trkpt>
      <trkpt lat="39.751043" lon="-8.811194">
        <ele>29.7</ele>
        <time>1970-01-01T01:14:26.000Z</time>
      </trkpt>
      <trkpt lat="39.751035" lon="-8.81114">
        <ele>29.7</ele>
        <time>1970-01-01T01:14:27.000Z</time>
      </trkpt>
      <trkpt lat="39.751025" lon="-8.811092">
        <ele>29.7</ele>
        <time>1970-01-01T01:14:28.000Z</time>
      </trkpt>
      <trkpt lat="39.751019" lon="-8.811031">
        <ele>29.7</ele>
        <time>1970-01-01T01:14:29.000Z</time>
      </trkpt>
      <trkpt lat="39.751015" lon="-8.810972">
        <ele>29.7</ele>
        <time>1970-01-01T01:14:30.000Z</time>
      </trkpt>
      <trkpt lat="39.751016" lon="-8.810906">
        <ele>29.7</ele>
        <time>1970-01-01T01:14:31.000Z</time>
      </trkpt>
      <trkpt lat="39.751013" lon="-8.810836">
        <ele>29.7</ele>
        <time>1970-01-01T01:14:32.000Z</time>
      </trkpt>
      <trkpt lat="39.751004" lon="-8.810765">
        <ele>29.8</ele>
        <time>1970-01-01T01:14:33.000Z</time>
      </trkpt>
      <trkpt lat="39.750998" lon="-8.810698">
        <ele>29.8</ele>
        <time>1970-01-01T01:14:34.000Z</time>
      </trkpt>
      <trkpt lat="39.75099" lon="-8.810642">
        <ele>29.8</ele>
        <time>1970-01-01T01:14:35.000Z</time>
      </trkpt>
      <trkpt lat="39.750986" lon="-8.81058">
        <ele>29.8</ele>
        <time>1970-01-01T01:14:36.000Z</time>
      </trkpt>
      <trkpt lat="39.750977" lon="-8.810533">
        <ele>29.8</ele>
        <time>1970-01-01T01:14:37.000Z</time>
      </trkpt>
      <trkpt lat="39.750966" lon="-8.810461">
        <ele>29.9</ele>
        <time>1970-01-01T01:14:38.000Z</time>
      </trkpt>
      <trkpt lat="39.75096" lon="-8.8104">
        <ele>29.9</ele>
        <time>1970-01-01T01:14:39.000Z</time>
      </trkpt>
      <trkpt lat="39.750954" lon="-8.810322">
        <ele>29.9</ele>
        <time>1970-01-01T01:14:40.000Z</time>
      </trkpt>
      <trkpt lat="39.750945" lon="-8.810252">
        <ele>30</ele>
        <time>1970-01-01T01:14:41.000Z</time>
      </trkpt>
      <trkpt lat="39.750932" lon="-8.810189">
        <ele>30</ele>
        <time>1970-01-01T01:14:42.000Z</time>
      </trkpt>
      <trkpt lat="39.750924" lon="-8.810139">
        <ele>30</ele>
        <time>1970-01-01T01:14:43.000Z</time>
      </trkpt>
      <trkpt lat="39.750913" lon="-8.810077">
        <ele>30</ele>
        <time>1970-01-01T01:14:44.000Z</time>
      </trkpt>
      <trkpt lat="39.750902" lon="-8.810019">
        <ele>30.1</ele>
        <time>1970-01-01T01:14:45.000Z</time>
      </trkpt>
      <trkpt lat="39.750894" lon="-8.80995">
        <ele>30.1</ele>
        <time>1970-01-01T01:14:46.000Z</time>
      </trkpt>
      <trkpt lat="39.750877" lon="-8.809892">
        <ele>30.1</ele>
        <time>1970-01-01T01:14:47.000Z</time>
      </trkpt>
      <trkpt lat="39.75087" lon="-8.809829">
        <ele>30.1</ele>
        <time>1970-01-01T01:14:48.000Z</time>
      </trkpt>
      <trkpt lat="39.750856" lon="-8.809784">
        <ele>30.2</ele>
        <time>1970-01-01T01:14:49.000Z</time>
      </trkpt>
      <trkpt lat="39.750841" lon="-8.809718">
        <ele>30.2</ele>
        <time>1970-01-01T01:14:50.000Z</time>
      </trkpt>
      <trkpt lat="39.750832" lon="-8.809652">
        <ele>30.2</ele>
        <time>1970-01-01T01:14:51.000Z</time>
      </trkpt>
      <trkpt lat="39.750812" lon="-8.809583">
        <ele>30.2</ele>
        <time>1970-01-01T01:14:52.000Z</time>
      </trkpt>
      <trkpt lat="39.750797" lon="-8.809518">
        <ele>30.2</ele>
        <time>1970-01-01T01:14:53.000Z</time>
      </trkpt>
      <trkpt lat="39.750786" lon="-8.809466">
        <ele>30.3</ele>
        <time>1970-01-01T01:14:54.000Z</time>
      </trkpt>
      <trkpt lat="39.750787" lon="-8.809412">
        <ele>30.3</ele>
        <time>1970-01-01T01:14:55.000Z</time>
      </trkpt>
      <trkpt lat="39.750776" lon="-8.809364">
        <ele>30.3</ele>
        <time>1970-01-01T01:14:56.000Z</time>
      </trkpt>
      <trkpt lat="39.750763" lon="-8.809316">
        <ele>30.3</ele>
        <time>1970-01-01T01:14:57.000Z</time>
      </trkpt>
      <trkpt lat="39.750746" lon="-8.809269">
        <ele>30.3</ele>
        <time>1970-01-01T01:14:58.000Z</time>
      </trkpt>
      <trkpt lat="39.750727" lon="-8.809216">
        <ele>30.3</ele>
        <time>1970-01-01T01:14:59.000Z</time>
      </trkpt>
      <trkpt lat="39.750719" lon="-8.809165">
        <ele>30.3</ele>
        <time>1970-01-01T01:15:00.000Z</time>
      </trkpt>
      <trkpt lat="39.750709" lon="-8.809097">
        <ele>30.4</ele>
        <time>1970-01-01T01:15:01.000Z</time>
      </trkpt>
      <trkpt lat="39.750702" lon="-8.809027">
        <ele>30.4</ele>
        <time>1970-01-01T01:15:02.000Z</time>
      </trkpt>
      <trkpt lat="39.750688" lon="-8.808966">
        <ele>30.4</ele>
        <time>1970-01-01T01:15:03.000Z</time>
      </trkpt>
      <trkpt lat="39.750678" lon="-8.808901">
        <ele>30.4</ele>
        <time>1970-01-01T01:15:04.000Z</time>
      </trkpt>
      <trkpt lat="39.75066" lon="-8.808834">
        <ele>30.5</ele>
        <time>1970-01-01T01:15:05.000Z</time>
      </trkpt>
      <trkpt lat="39.75064" lon="-8.808776">
        <ele>30.6</ele>
        <time>1970-01-01T01:15:06.000Z</time>
      </trkpt>
      <trkpt lat="39.750631" lon="-8.808748">
        <ele>30.6</ele>
        <time>1970-01-01T01:15:07.000Z</time>
      </trkpt>
      <trkpt lat="39.7506" lon="-8.808696">
        <ele>30.7</ele>
        <time>1970-01-01T01:15:08.000Z</time>
      </trkpt>
      <trkpt lat="39.750584" lon="-8.808656">
        <ele>30.7</ele>
        <time>1970-01-01T01:15:09.000Z</time>
      </trkpt>
      <trkpt lat="39.750568" lon="-8.808601">
        <ele>30.8</ele>
        <time>1970-01-01T01:15:10.000Z</time>
      </trkpt>
      <trkpt lat="39.750545" lon="-8.808551">
        <ele>30.8</ele>
        <time>1970-01-01T01:15:11.000Z</time>
      </trkpt>
      <trkpt lat="39.75053" lon="-8.808489">
        <ele>30.9</ele>
        <time>1970-01-01T01:15:12.000Z</time>
      </trkpt>
      <trkpt lat="39.750515" lon="-8.808433">
        <ele>31</ele>
        <time>1970-01-01T01:15:13.000Z</time>
      </trkpt>
      <trkpt lat="39.750504" lon="-8.808356">
        <ele>31.1</ele>
        <time>1970-01-01T01:15:14.000Z</time>
      </trkpt>
      <trkpt lat="39.750486" lon="-8.808297">
        <ele>31.1</ele>
        <time>1970-01-01T01:15:15.000Z</time>
      </trkpt>
      <trkpt lat="39.750469" lon="-8.808234">
        <ele>31.2</ele>
        <time>1970-01-01T01:15:16.000Z</time>
      </trkpt>
      <trkpt lat="39.750458" lon="-8.808158">
        <ele>31.3</ele>
        <time>1970-01-01T01:15:17.000Z</time>
      </trkpt>
      <trkpt lat="39.750452" lon="-8.808104">
        <ele>31.4</ele>
        <time>1970-01-01T01:15:18.000Z</time>
      </trkpt>
      <trkpt lat="39.750449" lon="-8.808051">
        <ele>31.5</ele>
        <time>1970-01-01T01:15:19.000Z</time>
      </trkpt>
      <trkpt lat="39.750435" lon="-8.808015">
        <ele>31.5</ele>
        <time>1970-01-01T01:15:20.000Z</time>
      </trkpt>
      <trkpt lat="39.750423" lon="-8.807967">
        <ele>31.8</ele>
        <time>1970-01-01T01:15:21.000Z</time>
      </trkpt>
      <trkpt lat="39.750416" lon="-8.807921">
        <ele>31.9</ele>
        <time>1970-01-01T01:15:22.000Z</time>
      </trkpt>
      <trkpt lat="39.750405" lon="-8.807879">
        <ele>31.9</ele>
        <time>1970-01-01T01:15:23.000Z</time>
      </trkpt>
      <trkpt lat="39.7504" lon="-8.807834">
        <ele>32</ele>
        <time>1970-01-01T01:15:24.000Z</time>
      </trkpt>
      <trkpt lat="39.750389" lon="-8.807785">
        <ele>32.2</ele>
        <time>1970-01-01T01:15:25.000Z</time>
      </trkpt>
      <trkpt lat="39.750386" lon="-8.807767">
        <ele>32.2</ele>
        <time>1970-01-01T01:15:26.000Z</time>
      </trkpt>
      <trkpt lat="39.750383" lon="-8.807723">
        <ele>32.3</ele>
        <time>1970-01-01T01:15:27.000Z</time>
      </trkpt>
      <trkpt lat="39.750384" lon="-8.807712">
        <ele>32.3</ele>
        <time>1970-01-01T01:15:28.000Z</time>
      </trkpt>
      <trkpt lat="39.750375" lon="-8.807697">
        <ele>32.4</ele>
        <time>1970-01-01T01:15:29.000Z</time>
      </trkpt>
      <trkpt lat="39.750378" lon="-8.807683">
        <ele>32.4</ele>
        <time>1970-01-01T01:15:30.000Z</time>
      </trkpt>
      <trkpt lat="39.750379" lon="-8.807669">
        <ele>32.4</ele>
        <time>1970-01-01T01:15:31.000Z</time>
      </trkpt>
      <trkpt lat="39.750376" lon="-8.807646">
        <ele>32.5</ele>
        <time>1970-01-01T01:15:32.000Z</time>
      </trkpt>
      <trkpt lat="39.750369" lon="-8.807622">
        <ele>32.5</ele>
        <time>1970-01-01T01:15:34.000Z</time>
      </trkpt>
      <trkpt lat="39.750366" lon="-8.807582">
        <ele>32.6</ele>
        <time>1970-01-01T01:15:35.000Z</time>
      </trkpt>
      <trkpt lat="39.750363" lon="-8.807571">
        <ele>32.6</ele>
        <time>1970-01-01T01:15:36.000Z</time>
      </trkpt>
      <trkpt lat="39.75036" lon="-8.807552">
        <ele>32.7</ele>
        <time>1970-01-01T01:15:37.000Z</time>
      </trkpt>
      <trkpt lat="39.750358" lon="-8.807558">
        <ele>32.7</ele>
        <time>1970-01-01T01:15:38.000Z</time>
      </trkpt>
      <trkpt lat="39.750358" lon="-8.807553">
        <ele>32.7</ele>
        <time>1970-01-01T01:15:39.000Z</time>
      </trkpt>
      <trkpt lat="39.750355" lon="-8.807549">
        <ele>32.7</ele>
        <time>1970-01-01T01:15:40.000Z</time>
      </trkpt>
      <trkpt lat="39.750355" lon="-8.807543">
        <ele>32.7</ele>
        <time>1970-01-01T01:15:41.000Z</time>
      </trkpt>
      <trkpt lat="39.750354" lon="-8.807539">
        <ele>32.7</ele>
        <time>1970-01-01T01:15:42.000Z</time>
      </trkpt>
      <trkpt lat="39.750355" lon="-8.80753">
        <ele>32.7</ele>
        <time>1970-01-01T01:15:43.000Z</time>
      </trkpt>
      <trkpt lat="39.750356" lon="-8.807511">
        <ele>32.7</ele>
        <time>1970-01-01T01:15:44.000Z</time>
      </trkpt>
      <trkpt lat="39.750351" lon="-8.807495">
        <ele>32.8</ele>
        <time>1970-01-01T01:15:45.000Z</time>
      </trkpt>
      <trkpt lat="39.750346" lon="-8.80748">
        <ele>32.8</ele>
        <time>1970-01-01T01:15:46.000Z</time>
      </trkpt>
      <trkpt lat="39.750324" lon="-8.807449">
        <ele>32.7</ele>
        <time>1970-01-01T01:15:47.000Z</time>
      </trkpt>
      <trkpt lat="39.750316" lon="-8.807433">
        <ele>32.7</ele>
        <time>1970-01-01T01:15:48.000Z</time>
      </trkpt>
      <trkpt lat="39.750299" lon="-8.807378">
        <ele>32.6</ele>
        <time>1970-01-01T01:15:49.000Z</time>
      </trkpt>
      <trkpt lat="39.750293" lon="-8.80733">
        <ele>32.5</ele>
        <time>1970-01-01T01:15:50.000Z</time>
      </trkpt>
      <trkpt lat="39.750298" lon="-8.807273">
        <ele>32.4</ele>
        <time>1970-01-01T01:15:52.000Z</time>
      </trkpt>
      <trkpt lat="39.750303" lon="-8.80722">
        <ele>32.3</ele>
        <time>1970-01-01T01:15:53.000Z</time>
      </trkpt>
      <trkpt lat="39.750302" lon="-8.807164">
        <ele>32.2</ele>
        <time>1970-01-01T01:15:54.000Z</time>
      </trkpt>
      <trkpt lat="39.7503" lon="-8.807122">
        <ele>32.1</ele>
        <time>1970-01-01T01:15:55.000Z</time>
      </trkpt>
      <trkpt lat="39.75029" lon="-8.807066">
        <ele>32</ele>
        <time>1970-01-01T01:15:56.000Z</time>
      </trkpt>
      <trkpt lat="39.750284" lon="-8.807043">
        <ele>32</ele>
        <time>1970-01-01T01:15:57.000Z</time>
      </trkpt>
      <trkpt lat="39.750277" lon="-8.807004">
        <ele>32</ele>
        <time>1970-01-01T01:15:58.000Z</time>
      </trkpt>
      <trkpt lat="39.750268" lon="-8.806969">
        <ele>31.9</ele>
        <time>1970-01-01T01:15:59.000Z</time>
      </trkpt>
      <trkpt lat="39.750273" lon="-8.806926">
        <ele>31.9</ele>
        <time>1970-01-01T01:16:00.000Z</time>
      </trkpt>
      <trkpt lat="39.750272" lon="-8.806908">
        <ele>31.9</ele>
        <time>1970-01-01T01:16:01.000Z</time>
      </trkpt>
      <trkpt lat="39.750253" lon="-8.806856">
        <ele>31.9</ele>
        <time>1970-01-01T01:16:02.000Z</time>
      </trkpt>
      <trkpt lat="39.750246" lon="-8.806834">
        <ele>31.9</ele>
        <time>1970-01-01T01:16:03.000Z</time>
      </trkpt>
      <trkpt lat="39.750245" lon="-8.806791">
        <ele>31.8</ele>
        <time>1970-01-01T01:16:04.000Z</time>
      </trkpt>
      <trkpt lat="39.750237" lon="-8.806742">
        <ele>31.8</ele>
        <time>1970-01-01T01:16:05.000Z</time>
      </trkpt>
      <trkpt lat="39.750227" lon="-8.806688">
        <ele>31.8</ele>
        <time>1970-01-01T01:16:06.000Z</time>
      </trkpt>
      <trkpt lat="39.750211" lon="-8.80664">
        <ele>31.8</ele>
        <time>1970-01-01T01:16:07.000Z</time>
      </trkpt>
      <trkpt lat="39.750208" lon="-8.806588">
        <ele>31.8</ele>
        <time>1970-01-01T01:16:08.000Z</time>
      </trkpt>
      <trkpt lat="39.750202" lon="-8.806519">
        <ele>31.8</ele>
        <time>1970-01-01T01:16:09.000Z</time>
      </trkpt>
      <trkpt lat="39.750184" lon="-8.806454">
        <ele>31.8</ele>
        <time>1970-01-01T01:16:10.000Z</time>
      </trkpt>
      <trkpt lat="39.750159" lon="-8.806365">
        <ele>31.8</ele>
        <time>1970-01-01T01:16:11.000Z</time>
      </trkpt>
      <trkpt lat="39.750144" lon="-8.806323">
        <ele>31.8</ele>
        <time>1970-01-01T01:16:12.000Z</time>
      </trkpt>
      <trkpt lat="39.750138" lon="-8.806262">
        <ele>31.8</ele>
        <time>1970-01-01T01:16:13.000Z</time>
      </trkpt>
      <trkpt lat="39.750126" lon="-8.806202">
        <ele>31.8</ele>
        <time>1970-01-01T01:16:14.000Z</time>
      </trkpt>
      <trkpt lat="39.750118" lon="-8.806131">
        <ele>31.9</ele>
        <time>1970-01-01T01:16:15.000Z</time>
      </trkpt>
      <trkpt lat="39.75011" lon="-8.806049">
        <ele>31.9</ele>
        <time>1970-01-01T01:16:16.000Z</time>
      </trkpt>
      <trkpt lat="39.750097" lon="-8.805989">
        <ele>31.9</ele>
        <time>1970-01-01T01:16:17.000Z</time>
      </trkpt>
      <trkpt lat="39.750076" lon="-8.805933">
        <ele>31.9</ele>
        <time>1970-01-01T01:16:18.000Z</time>
      </trkpt>
      <trkpt lat="39.750066" lon="-8.805876">
        <ele>32</ele>
        <time>1970-01-01T01:16:19.000Z</time>
      </trkpt>
      <trkpt lat="39.750058" lon="-8.80581">
        <ele>32</ele>
        <time>1970-01-01T01:16:20.000Z</time>
      </trkpt>
      <trkpt lat="39.750055" lon="-8.805745">
        <ele>32</ele>
        <time>1970-01-01T01:16:21.000Z</time>
      </trkpt>
      <trkpt lat="39.750046" lon="-8.805701">
        <ele>32</ele>
        <time>1970-01-01T01:16:22.000Z</time>
      </trkpt>
      <trkpt lat="39.750033" lon="-8.805653">
        <ele>32</ele>
        <time>1970-01-01T01:16:23.000Z</time>
      </trkpt>
      <trkpt lat="39.750031" lon="-8.805608">
        <ele>32.1</ele>
        <time>1970-01-01T01:16:24.000Z</time>
      </trkpt>
      <trkpt lat="39.750029" lon="-8.805594">
        <ele>32.1</ele>
        <time>1970-01-01T01:16:25.000Z</time>
      </trkpt>
      <trkpt lat="39.750027" lon="-8.805552">
        <ele>32.1</ele>
        <time>1970-01-01T01:16:26.000Z</time>
      </trkpt>
      <trkpt lat="39.750026" lon="-8.805537">
        <ele>32.1</ele>
        <time>1970-01-01T01:16:27.000Z</time>
      </trkpt>
      <trkpt lat="39.750022" lon="-8.805499">
        <ele>32.1</ele>
        <time>1970-01-01T01:16:28.000Z</time>
      </trkpt>
      <trkpt lat="39.750019" lon="-8.805486">
        <ele>32.1</ele>
        <time>1970-01-01T01:16:29.000Z</time>
      </trkpt>
      <trkpt lat="39.750014" lon="-8.805445">
        <ele>32.1</ele>
        <time>1970-01-01T01:16:30.000Z</time>
      </trkpt>
      <trkpt lat="39.750012" lon="-8.805437">
        <ele>32.1</ele>
        <time>1970-01-01T01:16:31.000Z</time>
      </trkpt>
      <trkpt lat="39.750011" lon="-8.805383">
        <ele>32.1</ele>
        <time>1970-01-01T01:16:32.000Z</time>
      </trkpt>
      <trkpt lat="39.749997" lon="-8.805349">
        <ele>32.2</ele>
        <time>1970-01-01T01:16:33.000Z</time>
      </trkpt>
      <trkpt lat="39.749992" lon="-8.805303">
        <ele>32.2</ele>
        <time>1970-01-01T01:16:34.000Z</time>
      </trkpt>
      <trkpt lat="39.749989" lon="-8.805284">
        <ele>32.2</ele>
        <time>1970-01-01T01:16:35.000Z</time>
      </trkpt>
      <trkpt lat="39.750007" lon="-8.805232">
        <ele>32.2</ele>
        <time>1970-01-01T01:16:36.000Z</time>
      </trkpt>
      <trkpt lat="39.750016" lon="-8.805211">
        <ele>32.2</ele>
        <time>1970-01-01T01:16:37.000Z</time>
      </trkpt>
      <trkpt lat="39.75004" lon="-8.805163">
        <ele>32.2</ele>
        <time>1970-01-01T01:16:38.000Z</time>
      </trkpt>
      <trkpt lat="39.750047" lon="-8.805109">
        <ele>32.2</ele>
        <time>1970-01-01T01:16:39.000Z</time>
      </trkpt>
      <trkpt lat="39.750036" lon="-8.80507">
        <ele>32.2</ele>
        <time>1970-01-01T01:16:40.000Z</time>
      </trkpt>
      <trkpt lat="39.750023" lon="-8.805019">
        <ele>32.2</ele>
        <time>1970-01-01T01:16:41.000Z</time>
      </trkpt>
      <trkpt lat="39.750025" lon="-8.804966">
        <ele>32.2</ele>
        <time>1970-01-01T01:16:42.000Z</time>
      </trkpt>
      <trkpt lat="39.750012" lon="-8.804909">
        <ele>32.2</ele>
        <time>1970-01-01T01:16:43.000Z</time>
      </trkpt>
      <trkpt lat="39.750009" lon="-8.804885">
        <ele>32.2</ele>
        <time>1970-01-01T01:16:44.000Z</time>
      </trkpt>
      <trkpt lat="39.750003" lon="-8.804837">
        <ele>32.2</ele>
        <time>1970-01-01T01:16:45.000Z</time>
      </trkpt>
      <trkpt lat="39.750003" lon="-8.804814">
        <ele>32.2</ele>
        <time>1970-01-01T01:16:46.000Z</time>
      </trkpt>
      <trkpt lat="39.749994" lon="-8.80477">
        <ele>32.2</ele>
        <time>1970-01-01T01:16:47.000Z</time>
      </trkpt>
      <trkpt lat="39.749986" lon="-8.804703">
        <ele>32.2</ele>
        <time>1970-01-01T01:16:48.000Z</time>
      </trkpt>
      <trkpt lat="39.749974" lon="-8.804629">
        <ele>32.2</ele>
        <time>1970-01-01T01:16:49.000Z</time>
      </trkpt>
      <trkpt lat="39.749962" lon="-8.804571">
        <ele>32.2</ele>
        <time>1970-01-01T01:16:50.000Z</time>
      </trkpt>
      <trkpt lat="39.749957" lon="-8.804511">
        <ele>32.2</ele>
        <time>1970-01-01T01:16:51.000Z</time>
      </trkpt>
      <trkpt lat="39.749952" lon="-8.804466">
        <ele>32.1</ele>
        <time>1970-01-01T01:16:52.000Z</time>
      </trkpt>
      <trkpt lat="39.749952" lon="-8.804413">
        <ele>32.1</ele>
        <time>1970-01-01T01:16:53.000Z</time>
      </trkpt>
      <trkpt lat="39.749953" lon="-8.804369">
        <ele>32</ele>
        <time>1970-01-01T01:16:54.000Z</time>
      </trkpt>
      <trkpt lat="39.749953" lon="-8.804305">
        <ele>31.9</ele>
        <time>1970-01-01T01:16:55.000Z</time>
      </trkpt>
      <trkpt lat="39.749958" lon="-8.804241">
        <ele>31.7</ele>
        <time>1970-01-01T01:16:56.000Z</time>
      </trkpt>
      <trkpt lat="39.749953" lon="-8.80416">
        <ele>31.4</ele>
        <time>1970-01-01T01:16:57.000Z</time>
      </trkpt>
      <trkpt lat="39.749943" lon="-8.804082">
        <ele>31.1</ele>
        <time>1970-01-01T01:16:58.000Z</time>
      </trkpt>
      <trkpt lat="39.749928" lon="-8.803992">
        <ele>30.7</ele>
        <time>1970-01-01T01:16:59.000Z</time>
      </trkpt>
      <trkpt lat="39.749915" lon="-8.803902">
        <ele>30.5</ele>
        <time>1970-01-01T01:17:00.000Z</time>
      </trkpt>
      <trkpt lat="39.749895" lon="-8.803816">
        <ele>30.4</ele>
        <time>1970-01-01T01:17:01.000Z</time>
      </trkpt>
      <trkpt lat="39.749879" lon="-8.803731">
        <ele>30.6</ele>
        <time>1970-01-01T01:17:02.000Z</time>
      </trkpt>
      <trkpt lat="39.749866" lon="-8.803679">
        <ele>30.7</ele>
        <time>1970-01-01T01:17:03.000Z</time>
      </trkpt>
      <trkpt lat="39.74984" lon="-8.803651">
        <ele>30.9</ele>
        <time>1970-01-01T01:17:04.000Z</time>
      </trkpt>
      <trkpt lat="39.749816" lon="-8.803597">
        <ele>31.2</ele>
        <time>1970-01-01T01:17:05.000Z</time>
      </trkpt>
      <trkpt lat="39.749806" lon="-8.803572">
        <ele>31.4</ele>
        <time>1970-01-01T01:17:06.000Z</time>
      </trkpt>
      <trkpt lat="39.749788" lon="-8.803522">
        <ele>31.6</ele>
        <time>1970-01-01T01:17:07.000Z</time>
      </trkpt>
      <trkpt lat="39.749778" lon="-8.803485">
        <ele>31.8</ele>
        <time>1970-01-01T01:17:08.000Z</time>
      </trkpt>
      <trkpt lat="39.749771" lon="-8.803432">
        <ele>32</ele>
        <time>1970-01-01T01:17:09.000Z</time>
      </trkpt>
      <trkpt lat="39.749769" lon="-8.803411">
        <ele>32.1</ele>
        <time>1970-01-01T01:17:10.000Z</time>
      </trkpt>
      <trkpt lat="39.74977" lon="-8.803365">
        <ele>32.2</ele>
        <time>1970-01-01T01:17:11.000Z</time>
      </trkpt>
      <trkpt lat="39.749751" lon="-8.803305">
        <ele>32.4</ele>
        <time>1970-01-01T01:17:12.000Z</time>
      </trkpt>
      <trkpt lat="39.749726" lon="-8.803264">
        <ele>32.4</ele>
        <time>1970-01-01T01:17:13.000Z</time>
      </trkpt>
      <trkpt lat="39.749706" lon="-8.80321">
        <ele>32.5</ele>
        <time>1970-01-01T01:17:14.000Z</time>
      </trkpt>
      <trkpt lat="39.7497" lon="-8.803136">
        <ele>32.6</ele>
        <time>1970-01-01T01:17:15.000Z</time>
      </trkpt>
      <trkpt lat="39.749679" lon="-8.803094">
        <ele>32.6</ele>
        <time>1970-01-01T01:17:16.000Z</time>
      </trkpt>
      <trkpt lat="39.749667" lon="-8.803014">
        <ele>32.7</ele>
        <time>1970-01-01T01:17:17.000Z</time>
      </trkpt>
      <trkpt lat="39.749653" lon="-8.802937">
        <ele>32.7</ele>
        <time>1970-01-01T01:17:18.000Z</time>
      </trkpt>
      <trkpt lat="39.749626" lon="-8.802879">
        <ele>32.7</ele>
        <time>1970-01-01T01:17:19.000Z</time>
      </trkpt>
      <trkpt lat="39.749609" lon="-8.802815">
        <ele>32.8</ele>
        <time>1970-01-01T01:17:20.000Z</time>
      </trkpt>
      <trkpt lat="39.749591" lon="-8.802773">
        <ele>32.8</ele>
        <time>1970-01-01T01:17:21.000Z</time>
      </trkpt>
      <trkpt lat="39.749565" lon="-8.802735">
        <ele>32.8</ele>
        <time>1970-01-01T01:17:22.000Z</time>
      </trkpt>
      <trkpt lat="39.749559" lon="-8.80271">
        <ele>32.8</ele>
        <time>1970-01-01T01:17:23.000Z</time>
      </trkpt>
      <trkpt lat="39.749545" lon="-8.802655">
        <ele>32.8</ele>
        <time>1970-01-01T01:17:24.000Z</time>
      </trkpt>
      <trkpt lat="39.749525" lon="-8.80262">
        <ele>32.8</ele>
        <time>1970-01-01T01:17:25.000Z</time>
      </trkpt>
      <trkpt lat="39.749508" lon="-8.802557">
        <ele>32.8</ele>
        <time>1970-01-01T01:17:26.000Z</time>
      </trkpt>
      <trkpt lat="39.749493" lon="-8.802501">
        <ele>32.9</ele>
        <time>1970-01-01T01:17:27.000Z</time>
      </trkpt>
      <trkpt lat="39.749468" lon="-8.802464">
        <ele>32.9</ele>
        <time>1970-01-01T01:17:28.000Z</time>
      </trkpt>
      <trkpt lat="39.74944" lon="-8.802411">
        <ele>32.9</ele>
        <time>1970-01-01T01:17:29.000Z</time>
      </trkpt>
      <trkpt lat="39.749407" lon="-8.80236">
        <ele>32.9</ele>
        <time>1970-01-01T01:17:30.000Z</time>
      </trkpt>
      <trkpt lat="39.749383" lon="-8.802312">
        <ele>33</ele>
        <time>1970-01-01T01:17:31.000Z</time>
      </trkpt>
      <trkpt lat="39.749361" lon="-8.802261">
        <ele>33</ele>
        <time>1970-01-01T01:17:32.000Z</time>
      </trkpt>
      <trkpt lat="39.749323" lon="-8.802229">
        <ele>33</ele>
        <time>1970-01-01T01:17:33.000Z</time>
      </trkpt>
      <trkpt lat="39.749289" lon="-8.802217">
        <ele>33</ele>
        <time>1970-01-01T01:17:34.000Z</time>
      </trkpt>
      <trkpt lat="39.749251" lon="-8.802204">
        <ele>33</ele>
        <time>1970-01-01T01:17:35.000Z</time>
      </trkpt>
      <trkpt lat="39.749236" lon="-8.802202">
        <ele>33</ele>
        <time>1970-01-01T01:17:36.000Z</time>
      </trkpt>
      <trkpt lat="39.749194" lon="-8.802201">
        <ele>33</ele>
        <time>1970-01-01T01:17:37.000Z</time>
      </trkpt>
      <trkpt lat="39.749148" lon="-8.802193">
        <ele>33</ele>
        <time>1970-01-01T01:17:38.000Z</time>
      </trkpt>
      <trkpt lat="39.749103" lon="-8.802182">
        <ele>33</ele>
        <time>1970-01-01T01:17:40.000Z</time>
      </trkpt>
      <trkpt lat="39.749051" lon="-8.802178">
        <ele>33</ele>
        <time>1970-01-01T01:17:41.000Z</time>
      </trkpt>
      <trkpt lat="39.749003" lon="-8.802176">
        <ele>33</ele>
        <time>1970-01-01T01:17:42.000Z</time>
      </trkpt>
      <trkpt lat="39.74891" lon="-8.802182">
        <ele>33</ele>
        <time>1970-01-01T01:17:43.000Z</time>
      </trkpt>
      <trkpt lat="39.74888" lon="-8.802187">
        <ele>33</ele>
        <time>1970-01-01T01:17:44.000Z</time>
      </trkpt>
      <trkpt lat="39.748848" lon="-8.802185">
        <ele>33</ele>
        <time>1970-01-01T01:17:45.000Z</time>
      </trkpt>
      <trkpt lat="39.748804" lon="-8.802192">
        <ele>33</ele>
        <time>1970-01-01T01:17:46.000Z</time>
      </trkpt>
      <trkpt lat="39.748754" lon="-8.802193">
        <ele>33</ele>
        <time>1970-01-01T01:17:47.000Z</time>
      </trkpt>
      <trkpt lat="39.7487" lon="-8.802204">
        <ele>33</ele>
        <time>1970-01-01T01:17:48.000Z</time>
      </trkpt>
      <trkpt lat="39.74864" lon="-8.802213">
        <ele>33</ele>
        <time>1970-01-01T01:17:49.000Z</time>
      </trkpt>
      <trkpt lat="39.748595" lon="-8.802218">
        <ele>33</ele>
        <time>1970-01-01T01:17:50.000Z</time>
      </trkpt>
      <trkpt lat="39.748554" lon="-8.80223">
        <ele>33</ele>
        <time>1970-01-01T01:17:51.000Z</time>
      </trkpt>
      <trkpt lat="39.748526" lon="-8.802231">
        <ele>33</ele>
        <time>1970-01-01T01:17:52.000Z</time>
      </trkpt>
      <trkpt lat="39.748492" lon="-8.802236">
        <ele>33</ele>
        <time>1970-01-01T01:17:53.000Z</time>
      </trkpt>
      <trkpt lat="39.748437" lon="-8.802242">
        <ele>33</ele>
        <time>1970-01-01T01:17:54.000Z</time>
      </trkpt>
      <trkpt lat="39.748381" lon="-8.802252">
        <ele>33</ele>
        <time>1970-01-01T01:17:55.000Z</time>
      </trkpt>
      <trkpt lat="39.748327" lon="-8.802261">
        <ele>33</ele>
        <time>1970-01-01T01:17:56.000Z</time>
      </trkpt>
      <trkpt lat="39.748283" lon="-8.802278">
        <ele>33</ele>
        <time>1970-01-01T01:17:57.000Z</time>
      </trkpt>
      <trkpt lat="39.748243" lon="-8.802285">
        <ele>33</ele>
        <time>1970-01-01T01:17:58.000Z</time>
      </trkpt>
      <trkpt lat="39.748206" lon="-8.802289">
        <ele>33</ele>
        <time>1970-01-01T01:17:59.000Z</time>
      </trkpt>
      <trkpt lat="39.748188" lon="-8.802291">
        <ele>33</ele>
        <time>1970-01-01T01:18:00.000Z</time>
      </trkpt>
      <trkpt lat="39.748133" lon="-8.802298">
        <ele>33</ele>
        <time>1970-01-01T01:18:01.000Z</time>
      </trkpt>
      <trkpt lat="39.748087" lon="-8.802304">
        <ele>33</ele>
        <time>1970-01-01T01:18:02.000Z</time>
      </trkpt>
      <trkpt lat="39.748037" lon="-8.802318">
        <ele>33</ele>
        <time>1970-01-01T01:18:03.000Z</time>
      </trkpt>
      <trkpt lat="39.74799" lon="-8.802325">
        <ele>33</ele>
        <time>1970-01-01T01:18:04.000Z</time>
      </trkpt>
      <trkpt lat="39.747958" lon="-8.802329">
        <ele>33</ele>
        <time>1970-01-01T01:18:05.000Z</time>
      </trkpt>
      <trkpt lat="39.747929" lon="-8.802341">
        <ele>33</ele>
        <time>1970-01-01T01:18:06.000Z</time>
      </trkpt>
      <trkpt lat="39.747864" lon="-8.802346">
        <ele>33</ele>
        <time>1970-01-01T01:18:07.000Z</time>
      </trkpt>
      <trkpt lat="39.747812" lon="-8.802345">
        <ele>33</ele>
        <time>1970-01-01T01:18:08.000Z</time>
      </trkpt>
      <trkpt lat="39.747754" lon="-8.802351">
        <ele>33</ele>
        <time>1970-01-01T01:18:09.000Z</time>
      </trkpt>
      <trkpt lat="39.747691" lon="-8.802362">
        <ele>33</ele>
        <time>1970-01-01T01:18:10.000Z</time>
      </trkpt>
      <trkpt lat="39.74764" lon="-8.802364">
        <ele>33</ele>
        <time>1970-01-01T01:18:11.000Z</time>
      </trkpt>
      <trkpt lat="39.747595" lon="-8.802369">
        <ele>33</ele>
        <time>1970-01-01T01:18:12.000Z</time>
      </trkpt>
      <trkpt lat="39.747556" lon="-8.802377">
        <ele>33</ele>
        <time>1970-01-01T01:18:13.000Z</time>
      </trkpt>
      <trkpt lat="39.747517" lon="-8.802393">
        <ele>33</ele>
        <time>1970-01-01T01:18:14.000Z</time>
      </trkpt>
      <trkpt lat="39.747481" lon="-8.80241">
        <ele>33</ele>
        <time>1970-01-01T01:18:15.000Z</time>
      </trkpt>
      <trkpt lat="39.747445" lon="-8.802428">
        <ele>33</ele>
        <time>1970-01-01T01:18:16.000Z</time>
      </trkpt>
      <trkpt lat="39.747401" lon="-8.802456">
        <ele>32.9</ele>
        <time>1970-01-01T01:18:17.000Z</time>
      </trkpt>
      <trkpt lat="39.747365" lon="-8.802488">
        <ele>32.9</ele>
        <time>1970-01-01T01:18:18.000Z</time>
      </trkpt>
      <trkpt lat="39.747331" lon="-8.802509">
        <ele>32.9</ele>
        <time>1970-01-01T01:18:19.000Z</time>
      </trkpt>
      <trkpt lat="39.747303" lon="-8.802541">
        <ele>32.9</ele>
        <time>1970-01-01T01:18:20.000Z</time>
      </trkpt>
      <trkpt lat="39.747266" lon="-8.80258">
        <ele>32.9</ele>
        <time>1970-01-01T01:18:21.000Z</time>
      </trkpt>
      <trkpt lat="39.747234" lon="-8.802615">
        <ele>32.9</ele>
        <time>1970-01-01T01:18:22.000Z</time>
      </trkpt>
      <trkpt lat="39.7472" lon="-8.802649">
        <ele>32.9</ele>
        <time>1970-01-01T01:18:23.000Z</time>
      </trkpt>
      <trkpt lat="39.747156" lon="-8.802673">
        <ele>32.9</ele>
        <time>1970-01-01T01:18:24.000Z</time>
      </trkpt>
      <trkpt lat="39.747121" lon="-8.802705">
        <ele>32.9</ele>
        <time>1970-01-01T01:18:25.000Z</time>
      </trkpt>
      <trkpt lat="39.747095" lon="-8.802739">
        <ele>32.9</ele>
        <time>1970-01-01T01:18:26.000Z</time>
      </trkpt>
      <trkpt lat="39.747069" lon="-8.80278">
        <ele>32.9</ele>
        <time>1970-01-01T01:18:27.000Z</time>
      </trkpt>
      <trkpt lat="39.747043" lon="-8.802832">
        <ele>32.9</ele>
        <time>1970-01-01T01:18:28.000Z</time>
      </trkpt>
      <trkpt lat="39.747014" lon="-8.80287">
        <ele>32.9</ele>
        <time>1970-01-01T01:18:29.000Z</time>
      </trkpt>
      <trkpt lat="39.746981" lon="-8.802903">
        <ele>32.9</ele>
        <time>1970-01-01T01:18:30.000Z</time>
      </trkpt>
      <trkpt lat="39.74694" lon="-8.802944">
        <ele>32.9</ele>
        <time>1970-01-01T01:18:31.000Z</time>
      </trkpt>
      <trkpt lat="39.746902" lon="-8.802977">
        <ele>32.9</ele>
        <time>1970-01-01T01:18:32.000Z</time>
      </trkpt>
      <trkpt lat="39.746874" lon="-8.803011">
        <ele>32.8</ele>
        <time>1970-01-01T01:18:33.000Z</time>
      </trkpt>
      <trkpt lat="39.746846" lon="-8.803031">
        <ele>32.8</ele>
        <time>1970-01-01T01:18:34.000Z</time>
      </trkpt>
      <trkpt lat="39.746814" lon="-8.803079">
        <ele>32.8</ele>
        <time>1970-01-01T01:18:35.000Z</time>
      </trkpt>
      <trkpt lat="39.74678" lon="-8.803112">
        <ele>32.8</ele>
        <time>1970-01-01T01:18:36.000Z</time>
      </trkpt>
      <trkpt lat="39.746742" lon="-8.803148">
        <ele>32.8</ele>
        <time>1970-01-01T01:18:37.000Z</time>
      </trkpt>
      <trkpt lat="39.746711" lon="-8.803183">
        <ele>32.8</ele>
        <time>1970-01-01T01:18:38.000Z</time>
      </trkpt>
      <trkpt lat="39.746669" lon="-8.803224">
        <ele>32.8</ele>
        <time>1970-01-01T01:18:39.000Z</time>
      </trkpt>
      <trkpt lat="39.746629" lon="-8.803276">
        <ele>32.8</ele>
        <time>1970-01-01T01:18:40.000Z</time>
      </trkpt>
      <trkpt lat="39.746595" lon="-8.803314">
        <ele>32.8</ele>
        <time>1970-01-01T01:18:41.000Z</time>
      </trkpt>
      <trkpt lat="39.746555" lon="-8.803359">
        <ele>32.9</ele>
        <time>1970-01-01T01:18:42.000Z</time>
      </trkpt>
      <trkpt lat="39.746521" lon="-8.803391">
        <ele>32.9</ele>
        <time>1970-01-01T01:18:43.000Z</time>
      </trkpt>
      <trkpt lat="39.746485" lon="-8.803429">
        <ele>32.9</ele>
        <time>1970-01-01T01:18:44.000Z</time>
      </trkpt>
      <trkpt lat="39.746458" lon="-8.803466">
        <ele>32.9</ele>
        <time>1970-01-01T01:18:45.000Z</time>
      </trkpt>
      <trkpt lat="39.746426" lon="-8.803501">
        <ele>32.9</ele>
        <time>1970-01-01T01:18:46.000Z</time>
      </trkpt>
      <trkpt lat="39.746393" lon="-8.803542">
        <ele>32.9</ele>
        <time>1970-01-01T01:18:47.000Z</time>
      </trkpt>
      <trkpt lat="39.746352" lon="-8.803594">
        <ele>32.9</ele>
        <time>1970-01-01T01:18:48.000Z</time>
      </trkpt>
      <trkpt lat="39.746321" lon="-8.803636">
        <ele>32.9</ele>
        <time>1970-01-01T01:18:49.000Z</time>
      </trkpt>
      <trkpt lat="39.746288" lon="-8.803678">
        <ele>32.9</ele>
        <time>1970-01-01T01:18:50.000Z</time>
      </trkpt>
      <trkpt lat="39.746264" lon="-8.803698">
        <ele>32.9</ele>
        <time>1970-01-01T01:18:51.000Z</time>
      </trkpt>
      <trkpt lat="39.746236" lon="-8.803733">
        <ele>32.9</ele>
        <time>1970-01-01T01:18:52.000Z</time>
      </trkpt>
      <trkpt lat="39.746207" lon="-8.803763">
        <ele>32.9</ele>
        <time>1970-01-01T01:18:53.000Z</time>
      </trkpt>
      <trkpt lat="39.746175" lon="-8.80379">
        <ele>32.9</ele>
        <time>1970-01-01T01:18:54.000Z</time>
      </trkpt>
      <trkpt lat="39.746162" lon="-8.803798">
        <ele>32.9</ele>
        <time>1970-01-01T01:18:55.000Z</time>
      </trkpt>
      <trkpt lat="39.746132" lon="-8.803828">
        <ele>32.9</ele>
        <time>1970-01-01T01:18:56.000Z</time>
      </trkpt>
      <trkpt lat="39.746122" lon="-8.803841">
        <ele>33</ele>
        <time>1970-01-01T01:18:57.000Z</time>
      </trkpt>
      <trkpt lat="39.746106" lon="-8.803873">
        <ele>33</ele>
        <time>1970-01-01T01:18:58.000Z</time>
      </trkpt>
      <trkpt lat="39.746086" lon="-8.803916">
        <ele>33</ele>
        <time>1970-01-01T01:18:59.000Z</time>
      </trkpt>
      <trkpt lat="39.746061" lon="-8.80396">
        <ele>33</ele>
        <time>1970-01-01T01:19:00.000Z</time>
      </trkpt>
      <trkpt lat="39.746028" lon="-8.803999">
        <ele>33</ele>
        <time>1970-01-01T01:19:01.000Z</time>
      </trkpt>
      <trkpt lat="39.745997" lon="-8.80404">
        <ele>33</ele>
        <time>1970-01-01T01:19:02.000Z</time>
      </trkpt>
      <trkpt lat="39.745966" lon="-8.804075">
        <ele>33</ele>
        <time>1970-01-01T01:19:03.000Z</time>
      </trkpt>
      <trkpt lat="39.74593" lon="-8.804107">
        <ele>33</ele>
        <time>1970-01-01T01:19:04.000Z</time>
      </trkpt>
      <trkpt lat="39.745899" lon="-8.804146">
        <ele>33</ele>
        <time>1970-01-01T01:19:05.000Z</time>
      </trkpt>
      <trkpt lat="39.745871" lon="-8.804183">
        <ele>33</ele>
        <time>1970-01-01T01:19:06.000Z</time>
      </trkpt>
      <trkpt lat="39.745845" lon="-8.804221">
        <ele>33</ele>
        <time>1970-01-01T01:19:07.000Z</time>
      </trkpt>
      <trkpt lat="39.745811" lon="-8.804254">
        <ele>33</ele>
        <time>1970-01-01T01:19:08.000Z</time>
      </trkpt>
      <trkpt lat="39.745777" lon="-8.804288">
        <ele>33</ele>
        <time>1970-01-01T01:19:09.000Z</time>
      </trkpt>
      <trkpt lat="39.745745" lon="-8.804314">
        <ele>33.1</ele>
        <time>1970-01-01T01:19:10.000Z</time>
      </trkpt>
      <trkpt lat="39.74573" lon="-8.804345">
        <ele>33.1</ele>
        <time>1970-01-01T01:19:11.000Z</time>
      </trkpt>
      <trkpt lat="39.745709" lon="-8.804379">
        <ele>33.1</ele>
        <time>1970-01-01T01:19:12.000Z</time>
      </trkpt>
      <trkpt lat="39.74568" lon="-8.804409">
        <ele>33.1</ele>
        <time>1970-01-01T01:19:13.000Z</time>
      </trkpt>
      <trkpt lat="39.745653" lon="-8.804443">
        <ele>33.1</ele>
        <time>1970-01-01T01:19:14.000Z</time>
      </trkpt>
      <trkpt lat="39.745623" lon="-8.804462">
        <ele>33.1</ele>
        <time>1970-01-01T01:19:15.000Z</time>
      </trkpt>
      <trkpt lat="39.745602" lon="-8.804495">
        <ele>33.2</ele>
        <time>1970-01-01T01:19:16.000Z</time>
      </trkpt>
      <trkpt lat="39.745575" lon="-8.804524">
        <ele>33.2</ele>
        <time>1970-01-01T01:19:17.000Z</time>
      </trkpt>
      <trkpt lat="39.745541" lon="-8.804558">
        <ele>33.2</ele>
        <time>1970-01-01T01:19:18.000Z</time>
      </trkpt>
      <trkpt lat="39.745514" lon="-8.804591">
        <ele>33.2</ele>
        <time>1970-01-01T01:19:19.000Z</time>
      </trkpt>
      <trkpt lat="39.745478" lon="-8.804633">
        <ele>33.2</ele>
        <time>1970-01-01T01:19:20.000Z</time>
      </trkpt>
      <trkpt lat="39.745434" lon="-8.804659">
        <ele>33.2</ele>
        <time>1970-01-01T01:19:21.000Z</time>
      </trkpt>
      <trkpt lat="39.745393" lon="-8.804705">
        <ele>33.3</ele>
        <time>1970-01-01T01:19:22.000Z</time>
      </trkpt>
      <trkpt lat="39.745362" lon="-8.804737">
        <ele>33.3</ele>
        <time>1970-01-01T01:19:23.000Z</time>
      </trkpt>
      <trkpt lat="39.745322" lon="-8.804772">
        <ele>33.3</ele>
        <time>1970-01-01T01:19:24.000Z</time>
      </trkpt>
      <trkpt lat="39.745291" lon="-8.80481">
        <ele>33.3</ele>
        <time>1970-01-01T01:19:25.000Z</time>
      </trkpt>
      <trkpt lat="39.745251" lon="-8.804859">
        <ele>33.3</ele>
        <time>1970-01-01T01:19:26.000Z</time>
      </trkpt>
      <trkpt lat="39.745225" lon="-8.804891">
        <ele>33.3</ele>
        <time>1970-01-01T01:19:27.000Z</time>
      </trkpt>
      <trkpt lat="39.745193" lon="-8.804928">
        <ele>33.4</ele>
        <time>1970-01-01T01:19:28.000Z</time>
      </trkpt>
      <trkpt lat="39.74516" lon="-8.804948">
        <ele>33.4</ele>
        <time>1970-01-01T01:19:29.000Z</time>
      </trkpt>
      <trkpt lat="39.745136" lon="-8.804993">
        <ele>33.4</ele>
        <time>1970-01-01T01:19:30.000Z</time>
      </trkpt>
      <trkpt lat="39.745106" lon="-8.805033">
        <ele>33.4</ele>
        <time>1970-01-01T01:19:31.000Z</time>
      </trkpt>
      <trkpt lat="39.745074" lon="-8.805078">
        <ele>33.4</ele>
        <time>1970-01-01T01:19:32.000Z</time>
      </trkpt>
      <trkpt lat="39.745045" lon="-8.805107">
        <ele>33.4</ele>
        <time>1970-01-01T01:19:33.000Z</time>
      </trkpt>
      <trkpt lat="39.745016" lon="-8.805141">
        <ele>33.4</ele>
        <time>1970-01-01T01:19:34.000Z</time>
      </trkpt>
      <trkpt lat="39.744988" lon="-8.805179">
        <ele>33.5</ele>
        <time>1970-01-01T01:19:35.000Z</time>
      </trkpt>
      <trkpt lat="39.744962" lon="-8.805215">
        <ele>33.5</ele>
        <time>1970-01-01T01:19:36.000Z</time>
      </trkpt>
      <trkpt lat="39.744925" lon="-8.805241">
        <ele>33.5</ele>
        <time>1970-01-01T01:19:37.000Z</time>
      </trkpt>
      <trkpt lat="39.744885" lon="-8.805267">
        <ele>33.5</ele>
        <time>1970-01-01T01:19:38.000Z</time>
      </trkpt>
      <trkpt lat="39.744857" lon="-8.805298">
        <ele>33.5</ele>
        <time>1970-01-01T01:19:39.000Z</time>
      </trkpt>
      <trkpt lat="39.744831" lon="-8.805338">
        <ele>33.5</ele>
        <time>1970-01-01T01:19:40.000Z</time>
      </trkpt>
      <trkpt lat="39.744809" lon="-8.805379">
        <ele>33.5</ele>
        <time>1970-01-01T01:19:41.000Z</time>
      </trkpt>
      <trkpt lat="39.744777" lon="-8.805415">
        <ele>33.5</ele>
        <time>1970-01-01T01:19:42.000Z</time>
      </trkpt>
      <trkpt lat="39.74475" lon="-8.805455">
        <ele>33.5</ele>
        <time>1970-01-01T01:19:43.000Z</time>
      </trkpt>
      <trkpt lat="39.744721" lon="-8.805499">
        <ele>33.5</ele>
        <time>1970-01-01T01:19:44.000Z</time>
      </trkpt>
      <trkpt lat="39.744693" lon="-8.805533">
        <ele>33.5</ele>
        <time>1970-01-01T01:19:46.000Z</time>
      </trkpt>
      <trkpt lat="39.744661" lon="-8.805564">
        <ele>33.5</ele>
        <time>1970-01-01T01:19:47.000Z</time>
      </trkpt>
      <trkpt lat="39.744632" lon="-8.805593">
        <ele>33.5</ele>
        <time>1970-01-01T01:19:48.000Z</time>
      </trkpt>
      <trkpt lat="39.744602" lon="-8.805622">
        <ele>33.5</ele>
        <time>1970-01-01T01:19:49.000Z</time>
      </trkpt>
      <trkpt lat="39.744574" lon="-8.805651">
        <ele>33.4</ele>
        <time>1970-01-01T01:19:50.000Z</time>
      </trkpt>
      <trkpt lat="39.744553" lon="-8.805683">
        <ele>33.4</ele>
        <time>1970-01-01T01:19:51.000Z</time>
      </trkpt>
      <trkpt lat="39.744528" lon="-8.805709">
        <ele>33.4</ele>
        <time>1970-01-01T01:19:52.000Z</time>
      </trkpt>
      <trkpt lat="39.744482" lon="-8.805762">
        <ele>33.4</ele>
        <time>1970-01-01T01:19:53.000Z</time>
      </trkpt>
      <trkpt lat="39.74446" lon="-8.805783">
        <ele>33.4</ele>
        <time>1970-01-01T01:19:54.000Z</time>
      </trkpt>
      <trkpt lat="39.744429" lon="-8.80582">
        <ele>33.4</ele>
        <time>1970-01-01T01:19:55.000Z</time>
      </trkpt>
      <trkpt lat="39.744416" lon="-8.805831">
        <ele>33.4</ele>
        <time>1970-01-01T01:19:56.000Z</time>
      </trkpt>
      <trkpt lat="39.744389" lon="-8.805865">
        <ele>33.3</ele>
        <time>1970-01-01T01:19:57.000Z</time>
      </trkpt>
      <trkpt lat="39.744378" lon="-8.805875">
        <ele>33.3</ele>
        <time>1970-01-01T01:19:58.000Z</time>
      </trkpt>
      <trkpt lat="39.744348" lon="-8.805906">
        <ele>33.3</ele>
        <time>1970-01-01T01:19:59.000Z</time>
      </trkpt>
      <trkpt lat="39.744337" lon="-8.805915">
        <ele>33.3</ele>
        <time>1970-01-01T01:20:00.000Z</time>
      </trkpt>
      <trkpt lat="39.744312" lon="-8.805935">
        <ele>33.3</ele>
        <time>1970-01-01T01:20:01.000Z</time>
      </trkpt>
      <trkpt lat="39.74428" lon="-8.805964">
        <ele>33.3</ele>
        <time>1970-01-01T01:20:02.000Z</time>
      </trkpt>
      <trkpt lat="39.744255" lon="-8.805979">
        <ele>33.3</ele>
        <time>1970-01-01T01:20:03.000Z</time>
      </trkpt>
      <trkpt lat="39.744229" lon="-8.806">
        <ele>33.3</ele>
        <time>1970-01-01T01:20:04.000Z</time>
      </trkpt>
      <trkpt lat="39.744199" lon="-8.806022">
        <ele>33.3</ele>
        <time>1970-01-01T01:20:05.000Z</time>
      </trkpt>
      <trkpt lat="39.744168" lon="-8.806046">
        <ele>33.3</ele>
        <time>1970-01-01T01:20:06.000Z</time>
      </trkpt>
      <trkpt lat="39.744135" lon="-8.806059">
        <ele>33.3</ele>
        <time>1970-01-01T01:20:07.000Z</time>
      </trkpt>
      <trkpt lat="39.744109" lon="-8.806069">
        <ele>33.3</ele>
        <time>1970-01-01T01:20:08.000Z</time>
      </trkpt>
      <trkpt lat="39.744076" lon="-8.806093">
        <ele>33.2</ele>
        <time>1970-01-01T01:20:09.000Z</time>
      </trkpt>
      <trkpt lat="39.744063" lon="-8.806106">
        <ele>33.2</ele>
        <time>1970-01-01T01:20:10.000Z</time>
      </trkpt>
      <trkpt lat="39.744029" lon="-8.80613">
        <ele>33.2</ele>
        <time>1970-01-01T01:20:11.000Z</time>
      </trkpt>
      <trkpt lat="39.744015" lon="-8.806135">
        <ele>33.2</ele>
        <time>1970-01-01T01:20:12.000Z</time>
      </trkpt>
      <trkpt lat="39.743982" lon="-8.806144">
        <ele>33.2</ele>
        <time>1970-01-01T01:20:13.000Z</time>
      </trkpt>
      <trkpt lat="39.743955" lon="-8.806152">
        <ele>33.2</ele>
        <time>1970-01-01T01:20:14.000Z</time>
      </trkpt>
      <trkpt lat="39.743922" lon="-8.806165">
        <ele>33.1</ele>
        <time>1970-01-01T01:20:15.000Z</time>
      </trkpt>
      <trkpt lat="39.743889" lon="-8.806185">
        <ele>33.1</ele>
        <time>1970-01-01T01:20:16.000Z</time>
      </trkpt>
      <trkpt lat="39.743858" lon="-8.80619">
        <ele>33.1</ele>
        <time>1970-01-01T01:20:17.000Z</time>
      </trkpt>
      <trkpt lat="39.743831" lon="-8.806197">
        <ele>33.1</ele>
        <time>1970-01-01T01:20:18.000Z</time>
      </trkpt>
      <trkpt lat="39.743803" lon="-8.806207">
        <ele>33</ele>
        <time>1970-01-01T01:20:19.000Z</time>
      </trkpt>
      <trkpt lat="39.743773" lon="-8.806215">
        <ele>33</ele>
        <time>1970-01-01T01:20:20.000Z</time>
      </trkpt>
      <trkpt lat="39.743727" lon="-8.806219">
        <ele>32.9</ele>
        <time>1970-01-01T01:20:21.000Z</time>
      </trkpt>
      <trkpt lat="39.743687" lon="-8.806229">
        <ele>32.9</ele>
        <time>1970-01-01T01:20:22.000Z</time>
      </trkpt>
      <trkpt lat="39.743646" lon="-8.806239">
        <ele>32.8</ele>
        <time>1970-01-01T01:20:23.000Z</time>
      </trkpt>
      <trkpt lat="39.743613" lon="-8.806241">
        <ele>32.8</ele>
        <time>1970-01-01T01:20:24.000Z</time>
      </trkpt>
      <trkpt lat="39.743579" lon="-8.806237">
        <ele>32.8</ele>
        <time>1970-01-01T01:20:25.000Z</time>
      </trkpt>
      <trkpt lat="39.743546" lon="-8.806232">
        <ele>32.8</ele>
        <time>1970-01-01T01:20:26.000Z</time>
      </trkpt>
      <trkpt lat="39.743499" lon="-8.806218">
        <ele>32.8</ele>
        <time>1970-01-01T01:20:27.000Z</time>
      </trkpt>
      <trkpt lat="39.743477" lon="-8.806206">
        <ele>32.8</ele>
        <time>1970-01-01T01:20:28.000Z</time>
      </trkpt>
      <trkpt lat="39.74344" lon="-8.806196">
        <ele>32.8</ele>
        <time>1970-01-01T01:20:29.000Z</time>
      </trkpt>
      <trkpt lat="39.743408" lon="-8.806195">
        <ele>32.9</ele>
        <time>1970-01-01T01:20:30.000Z</time>
      </trkpt>
      <trkpt lat="39.743366" lon="-8.806182">
        <ele>32.9</ele>
        <time>1970-01-01T01:20:31.000Z</time>
      </trkpt>
      <trkpt lat="39.743325" lon="-8.806149">
        <ele>33</ele>
        <time>1970-01-01T01:20:32.000Z</time>
      </trkpt>
      <trkpt lat="39.743292" lon="-8.806137">
        <ele>33.1</ele>
        <time>1970-01-01T01:20:33.000Z</time>
      </trkpt>
      <trkpt lat="39.743263" lon="-8.806096">
        <ele>33.1</ele>
        <time>1970-01-01T01:20:34.000Z</time>
      </trkpt>
      <trkpt lat="39.743233" lon="-8.806054">
        <ele>33.2</ele>
        <time>1970-01-01T01:20:35.000Z</time>
      </trkpt>
      <trkpt lat="39.743207" lon="-8.806005">
        <ele>33.2</ele>
        <time>1970-01-01T01:20:36.000Z</time>
      </trkpt>
      <trkpt lat="39.743199" lon="-8.805952">
        <ele>33.3</ele>
        <time>1970-01-01T01:20:37.000Z</time>
      </trkpt>
      <trkpt lat="39.743186" lon="-8.8059">
        <ele>33.4</ele>
        <time>1970-01-01T01:20:38.000Z</time>
      </trkpt>
      <trkpt lat="39.743181" lon="-8.805861">
        <ele>33.4</ele>
        <time>1970-01-01T01:20:39.000Z</time>
      </trkpt>
      <trkpt lat="39.743184" lon="-8.805824">
        <ele>33.5</ele>
        <time>1970-01-01T01:20:40.000Z</time>
      </trkpt>
      <trkpt lat="39.743176" lon="-8.805773">
        <ele>33.5</ele>
        <time>1970-01-01T01:20:41.000Z</time>
      </trkpt>
      <trkpt lat="39.743164" lon="-8.805728">
        <ele>33.6</ele>
        <time>1970-01-01T01:20:42.000Z</time>
      </trkpt>
      <trkpt lat="39.743154" lon="-8.805688">
        <ele>33.6</ele>
        <time>1970-01-01T01:20:43.000Z</time>
      </trkpt>
      <trkpt lat="39.743138" lon="-8.805652">
        <ele>33.7</ele>
        <time>1970-01-01T01:20:44.000Z</time>
      </trkpt>
      <trkpt lat="39.743118" lon="-8.805607">
        <ele>33.8</ele>
        <time>1970-01-01T01:20:45.000Z</time>
      </trkpt>
      <trkpt lat="39.743111" lon="-8.805589">
        <ele>33.9</ele>
        <time>1970-01-01T01:20:46.000Z</time>
      </trkpt>
      <trkpt lat="39.743097" lon="-8.805557">
        <ele>34</ele>
        <time>1970-01-01T01:20:47.000Z</time>
      </trkpt>
      <trkpt lat="39.743084" lon="-8.80552">
        <ele>34</ele>
        <time>1970-01-01T01:20:48.000Z</time>
      </trkpt>
      <trkpt lat="39.743064" lon="-8.805481">
        <ele>34.1</ele>
        <time>1970-01-01T01:20:49.000Z</time>
      </trkpt>
      <trkpt lat="39.743038" lon="-8.805433">
        <ele>34.3</ele>
        <time>1970-01-01T01:20:50.000Z</time>
      </trkpt>
      <trkpt lat="39.743039" lon="-8.805388">
        <ele>34.4</ele>
        <time>1970-01-01T01:20:51.000Z</time>
      </trkpt>
      <trkpt lat="39.743027" lon="-8.805348">
        <ele>34.5</ele>
        <time>1970-01-01T01:20:52.000Z</time>
      </trkpt>
      <trkpt lat="39.743012" lon="-8.805306">
        <ele>34.6</ele>
        <time>1970-01-01T01:20:53.000Z</time>
      </trkpt>
      <trkpt lat="39.743002" lon="-8.805273">
        <ele>34.7</ele>
        <time>1970-01-01T01:20:54.000Z</time>
      </trkpt>
      <trkpt lat="39.742996" lon="-8.805217">
        <ele>34.8</ele>
        <time>1970-01-01T01:20:55.000Z</time>
      </trkpt>
      <trkpt lat="39.742997" lon="-8.80519">
        <ele>34.9</ele>
        <time>1970-01-01T01:20:56.000Z</time>
      </trkpt>
      <trkpt lat="39.743009" lon="-8.805146">
        <ele>35.1</ele>
        <time>1970-01-01T01:20:57.000Z</time>
      </trkpt>
      <trkpt lat="39.74303" lon="-8.805105">
        <ele>35.3</ele>
        <time>1970-01-01T01:20:58.000Z</time>
      </trkpt>
      <trkpt lat="39.743035" lon="-8.80505">
        <ele>35.6</ele>
        <time>1970-01-01T01:20:59.000Z</time>
      </trkpt>
      <trkpt lat="39.74304" lon="-8.805026">
        <ele>35.7</ele>
        <time>1970-01-01T01:21:00.000Z</time>
      </trkpt>
      <trkpt lat="39.743051" lon="-8.804987">
        <ele>35.9</ele>
        <time>1970-01-01T01:21:01.000Z</time>
      </trkpt>
      <trkpt lat="39.743065" lon="-8.804943">
        <ele>36</ele>
        <time>1970-01-01T01:21:02.000Z</time>
      </trkpt>
      <trkpt lat="39.743073" lon="-8.804903">
        <ele>36.2</ele>
        <time>1970-01-01T01:21:03.000Z</time>
      </trkpt>
      <trkpt lat="39.743087" lon="-8.804851">
        <ele>36.3</ele>
        <time>1970-01-01T01:21:04.000Z</time>
      </trkpt>
      <trkpt lat="39.743093" lon="-8.80483">
        <ele>36.3</ele>
        <time>1970-01-01T01:21:05.000Z</time>
      </trkpt>
      <trkpt lat="39.743107" lon="-8.804777">
        <ele>36.4</ele>
        <time>1970-01-01T01:21:06.000Z</time>
      </trkpt>
      <trkpt lat="39.743123" lon="-8.804722">
        <ele>36.4</ele>
        <time>1970-01-01T01:21:07.000Z</time>
      </trkpt>
      <trkpt lat="39.743137" lon="-8.804668">
        <ele>36.5</ele>
        <time>1970-01-01T01:21:08.000Z</time>
      </trkpt>
      <trkpt lat="39.74315" lon="-8.804615">
        <ele>36.5</ele>
        <time>1970-01-01T01:21:09.000Z</time>
      </trkpt>
      <trkpt lat="39.74316" lon="-8.804561">
        <ele>36.5</ele>
        <time>1970-01-01T01:21:10.000Z</time>
      </trkpt>
      <trkpt lat="39.743167" lon="-8.80452">
        <ele>36.6</ele>
        <time>1970-01-01T01:21:11.000Z</time>
      </trkpt>
      <trkpt lat="39.743187" lon="-8.80449">
        <ele>36.6</ele>
        <time>1970-01-01T01:21:12.000Z</time>
      </trkpt>
      <trkpt lat="39.74322" lon="-8.80449">
        <ele>36.6</ele>
        <time>1970-01-01T01:21:13.000Z</time>
      </trkpt>
      <trkpt lat="39.743257" lon="-8.804499">
        <ele>36.6</ele>
        <time>1970-01-01T01:21:14.000Z</time>
      </trkpt>
      <trkpt lat="39.743296" lon="-8.804478">
        <ele>36.6</ele>
        <time>1970-01-01T01:21:15.000Z</time>
      </trkpt>
      <trkpt lat="39.743312" lon="-8.804441">
        <ele>36.6</ele>
        <time>1970-01-01T01:21:16.000Z</time>
      </trkpt>
      <trkpt lat="39.743313" lon="-8.804397">
        <ele>36.6</ele>
        <time>1970-01-01T01:21:17.000Z</time>
      </trkpt>
      <trkpt lat="39.743312" lon="-8.804348">
        <ele>36.6</ele>
        <time>1970-01-01T01:21:18.000Z</time>
      </trkpt>
      <trkpt lat="39.743314" lon="-8.804294">
        <ele>36.6</ele>
        <time>1970-01-01T01:21:19.000Z</time>
      </trkpt>
      <trkpt lat="39.743319" lon="-8.804237">
        <ele>36.5</ele>
        <time>1970-01-01T01:21:20.000Z</time>
      </trkpt>
      <trkpt lat="39.743321" lon="-8.804182">
        <ele>36.5</ele>
        <time>1970-01-01T01:21:21.000Z</time>
      </trkpt>
      <trkpt lat="39.743309" lon="-8.804127">
        <ele>36.5</ele>
        <time>1970-01-01T01:21:22.000Z</time>
      </trkpt>
      <trkpt lat="39.743298" lon="-8.804068">
        <ele>36.5</ele>
        <time>1970-01-01T01:21:23.000Z</time>
      </trkpt>
      <trkpt lat="39.743286" lon="-8.803997">
        <ele>36.5</ele>
        <time>1970-01-01T01:21:24.000Z</time>
      </trkpt>
      <trkpt lat="39.743277" lon="-8.80393">
        <ele>36.6</ele>
        <time>1970-01-01T01:21:25.000Z</time>
      </trkpt>
      <trkpt lat="39.74326" lon="-8.803882">
        <ele>36.6</ele>
        <time>1970-01-01T01:21:26.000Z</time>
      </trkpt>
      <trkpt lat="39.743245" lon="-8.803833">
        <ele>36.6</ele>
        <time>1970-01-01T01:21:27.000Z</time>
      </trkpt>
      <trkpt lat="39.743232" lon="-8.803771">
        <ele>36.6</ele>
        <time>1970-01-01T01:21:28.000Z</time>
      </trkpt>
      <trkpt lat="39.743218" lon="-8.803702">
        <ele>36.7</ele>
        <time>1970-01-01T01:21:29.000Z</time>
      </trkpt>
      <trkpt lat="39.7432" lon="-8.803645">
        <ele>36.7</ele>
        <time>1970-01-01T01:21:30.000Z</time>
      </trkpt>
      <trkpt lat="39.743181" lon="-8.803587">
        <ele>36.7</ele>
        <time>1970-01-01T01:21:31.000Z</time>
      </trkpt>
      <trkpt lat="39.743162" lon="-8.803535">
        <ele>36.8</ele>
        <time>1970-01-01T01:21:32.000Z</time>
      </trkpt>
      <trkpt lat="39.743131" lon="-8.803495">
        <ele>36.9</ele>
        <time>1970-01-01T01:21:33.000Z</time>
      </trkpt>
      <trkpt lat="39.743109" lon="-8.803449">
        <ele>37.1</ele>
        <time>1970-01-01T01:21:34.000Z</time>
      </trkpt>
      <trkpt lat="39.743085" lon="-8.803406">
        <ele>37.2</ele>
        <time>1970-01-01T01:21:35.000Z</time>
      </trkpt>
      <trkpt lat="39.743059" lon="-8.803369">
        <ele>37.3</ele>
        <time>1970-01-01T01:21:36.000Z</time>
      </trkpt>
      <trkpt lat="39.743034" lon="-8.80333">
        <ele>37.4</ele>
        <time>1970-01-01T01:21:37.000Z</time>
      </trkpt>
      <trkpt lat="39.743007" lon="-8.803295">
        <ele>37.5</ele>
        <time>1970-01-01T01:21:38.000Z</time>
      </trkpt>
      <trkpt lat="39.742978" lon="-8.803263">
        <ele>37.6</ele>
        <time>1970-01-01T01:21:39.000Z</time>
      </trkpt>
      <trkpt lat="39.742951" lon="-8.803242">
        <ele>37.6</ele>
        <time>1970-01-01T01:21:40.000Z</time>
      </trkpt>
      <trkpt lat="39.742925" lon="-8.803221">
        <ele>37.7</ele>
        <time>1970-01-01T01:21:41.000Z</time>
      </trkpt>
      <trkpt lat="39.742881" lon="-8.803196">
        <ele>37.7</ele>
        <time>1970-01-01T01:21:42.000Z</time>
      </trkpt>
      <trkpt lat="39.742843" lon="-8.803142">
        <ele>37.8</ele>
        <time>1970-01-01T01:21:43.000Z</time>
      </trkpt>
      <trkpt lat="39.742838" lon="-8.803102">
        <ele>37.8</ele>
        <time>1970-01-01T01:21:44.000Z</time>
      </trkpt>
      <trkpt lat="39.742842" lon="-8.803029">
        <ele>37.9</ele>
        <time>1970-01-01T01:21:45.000Z</time>
      </trkpt>
      <trkpt lat="39.742837" lon="-8.802976">
        <ele>37.9</ele>
        <time>1970-01-01T01:21:46.000Z</time>
      </trkpt>
      <trkpt lat="39.742821" lon="-8.802927">
        <ele>38</ele>
        <time>1970-01-01T01:21:47.000Z</time>
      </trkpt>
      <trkpt lat="39.742784" lon="-8.802893">
        <ele>38</ele>
        <time>1970-01-01T01:21:48.000Z</time>
      </trkpt>
      <trkpt lat="39.742765" lon="-8.802838">
        <ele>38.1</ele>
        <time>1970-01-01T01:21:49.000Z</time>
      </trkpt>
      <trkpt lat="39.742749" lon="-8.802781">
        <ele>38.1</ele>
        <time>1970-01-01T01:21:50.000Z</time>
      </trkpt>
      <trkpt lat="39.742722" lon="-8.802726">
        <ele>38.1</ele>
        <time>1970-01-01T01:21:52.000Z</time>
      </trkpt>
      <trkpt lat="39.742698" lon="-8.802676">
        <ele>38.1</ele>
        <time>1970-01-01T01:21:53.000Z</time>
      </trkpt>
      <trkpt lat="39.742677" lon="-8.802612">
        <ele>38.2</ele>
        <time>1970-01-01T01:21:54.000Z</time>
      </trkpt>
      <trkpt lat="39.742642" lon="-8.802566">
        <ele>38.2</ele>
        <time>1970-01-01T01:21:55.000Z</time>
      </trkpt>
      <trkpt lat="39.742611" lon="-8.802512">
        <ele>38.2</ele>
        <time>1970-01-01T01:21:56.000Z</time>
      </trkpt>
      <trkpt lat="39.742577" lon="-8.802462">
        <ele>38.3</ele>
        <time>1970-01-01T01:21:57.000Z</time>
      </trkpt>
      <trkpt lat="39.742547" lon="-8.802414">
        <ele>38.3</ele>
        <time>1970-01-01T01:21:58.000Z</time>
      </trkpt>
      <trkpt lat="39.742518" lon="-8.802369">
        <ele>38.3</ele>
        <time>1970-01-01T01:21:59.000Z</time>
      </trkpt>
      <trkpt lat="39.742488" lon="-8.802328">
        <ele>38.3</ele>
        <time>1970-01-01T01:22:00.000Z</time>
      </trkpt>
      <trkpt lat="39.742462" lon="-8.802286">
        <ele>38.3</ele>
        <time>1970-01-01T01:22:01.000Z</time>
      </trkpt>
      <trkpt lat="39.742436" lon="-8.802254">
        <ele>38.4</ele>
        <time>1970-01-01T01:22:02.000Z</time>
      </trkpt>
      <trkpt lat="39.742397" lon="-8.802205">
        <ele>38.4</ele>
        <time>1970-01-01T01:22:03.000Z</time>
      </trkpt>
      <trkpt lat="39.742365" lon="-8.802154">
        <ele>38.4</ele>
        <time>1970-01-01T01:22:04.000Z</time>
      </trkpt>
      <trkpt lat="39.742333" lon="-8.802099">
        <ele>38.4</ele>
        <time>1970-01-01T01:22:05.000Z</time>
      </trkpt>
      <trkpt lat="39.742293" lon="-8.802048">
        <ele>38.4</ele>
        <time>1970-01-01T01:22:06.000Z</time>
      </trkpt>
      <trkpt lat="39.742251" lon="-8.801999">
        <ele>38.3</ele>
        <time>1970-01-01T01:22:07.000Z</time>
      </trkpt>
      <trkpt lat="39.742209" lon="-8.80195">
        <ele>38.2</ele>
        <time>1970-01-01T01:22:08.000Z</time>
      </trkpt>
      <trkpt lat="39.74217" lon="-8.801907">
        <ele>38.2</ele>
        <time>1970-01-01T01:22:09.000Z</time>
      </trkpt>
      <trkpt lat="39.742122" lon="-8.801863">
        <ele>38.2</ele>
        <time>1970-01-01T01:22:10.000Z</time>
      </trkpt>
      <trkpt lat="39.742081" lon="-8.801822">
        <ele>38.2</ele>
        <time>1970-01-01T01:22:11.000Z</time>
      </trkpt>
      <trkpt lat="39.74204" lon="-8.801783">
        <ele>38.2</ele>
        <time>1970-01-01T01:22:12.000Z</time>
      </trkpt>
      <trkpt lat="39.741962" lon="-8.801701">
        <ele>38.2</ele>
        <time>1970-01-01T01:22:13.000Z</time>
      </trkpt>
      <trkpt lat="39.741914" lon="-8.801663">
        <ele>38.2</ele>
        <time>1970-01-01T01:22:14.000Z</time>
      </trkpt>
      <trkpt lat="39.741874" lon="-8.801615">
        <ele>38.2</ele>
        <time>1970-01-01T01:22:15.000Z</time>
      </trkpt>
      <trkpt lat="39.741834" lon="-8.801569">
        <ele>38.3</ele>
        <time>1970-01-01T01:22:16.000Z</time>
      </trkpt>
      <trkpt lat="39.74179" lon="-8.801532">
        <ele>38.4</ele>
        <time>1970-01-01T01:22:17.000Z</time>
      </trkpt>
      <trkpt lat="39.741752" lon="-8.801492">
        <ele>38.4</ele>
        <time>1970-01-01T01:22:18.000Z</time>
      </trkpt>
      <trkpt lat="39.741704" lon="-8.801454">
        <ele>38.5</ele>
        <time>1970-01-01T01:22:19.000Z</time>
      </trkpt>
      <trkpt lat="39.741659" lon="-8.801402">
        <ele>38.6</ele>
        <time>1970-01-01T01:22:20.000Z</time>
      </trkpt>
      <trkpt lat="39.741621" lon="-8.801358">
        <ele>38.7</ele>
        <time>1970-01-01T01:22:21.000Z</time>
      </trkpt>
      <trkpt lat="39.741583" lon="-8.801319">
        <ele>38.9</ele>
        <time>1970-01-01T01:22:22.000Z</time>
      </trkpt>
      <trkpt lat="39.741541" lon="-8.801286">
        <ele>39</ele>
        <time>1970-01-01T01:22:23.000Z</time>
      </trkpt>
      <trkpt lat="39.741518" lon="-8.80125">
        <ele>39.2</ele>
        <time>1970-01-01T01:22:24.000Z</time>
      </trkpt>
      <trkpt lat="39.741508" lon="-8.801216">
        <ele>39.2</ele>
        <time>1970-01-01T01:22:25.000Z</time>
      </trkpt>
      <trkpt lat="39.741499" lon="-8.8012">
        <ele>39.3</ele>
        <time>1970-01-01T01:22:26.000Z</time>
      </trkpt>
      <trkpt lat="39.741489" lon="-8.801187">
        <ele>39.3</ele>
        <time>1970-01-01T01:22:27.000Z</time>
      </trkpt>
      <trkpt lat="39.741467" lon="-8.801139">
        <ele>39.5</ele>
        <time>1970-01-01T01:22:28.000Z</time>
      </trkpt>
      <trkpt lat="39.741455" lon="-8.801118">
        <ele>39.6</ele>
        <time>1970-01-01T01:22:29.000Z</time>
      </trkpt>
      <trkpt lat="39.741442" lon="-8.801085">
        <ele>39.7</ele>
        <time>1970-01-01T01:22:30.000Z</time>
      </trkpt>
      <trkpt lat="39.741416" lon="-8.801052">
        <ele>39.8</ele>
        <time>1970-01-01T01:22:31.000Z</time>
      </trkpt>
      <trkpt lat="39.741394" lon="-8.801038">
        <ele>39.9</ele>
        <time>1970-01-01T01:22:32.000Z</time>
      </trkpt>
      <trkpt lat="39.741363" lon="-8.801024">
        <ele>39.9</ele>
        <time>1970-01-01T01:22:33.000Z</time>
      </trkpt>
      <trkpt lat="39.741334" lon="-8.800997">
        <ele>40</ele>
        <time>1970-01-01T01:22:34.000Z</time>
      </trkpt>
      <trkpt lat="39.741291" lon="-8.800966">
        <ele>40.2</ele>
        <time>1970-01-01T01:22:35.000Z</time>
      </trkpt>
      <trkpt lat="39.741256" lon="-8.800932">
        <ele>40.3</ele>
        <time>1970-01-01T01:22:36.000Z</time>
      </trkpt>
      <trkpt lat="39.741239" lon="-8.800904">
        <ele>40.3</ele>
        <time>1970-01-01T01:22:37.000Z</time>
      </trkpt>
      <trkpt lat="39.741199" lon="-8.800875">
        <ele>40.4</ele>
        <time>1970-01-01T01:22:38.000Z</time>
      </trkpt>
      <trkpt lat="39.74116" lon="-8.800858">
        <ele>40.5</ele>
        <time>1970-01-01T01:22:39.000Z</time>
      </trkpt>
      <trkpt lat="39.741123" lon="-8.80084">
        <ele>40.6</ele>
        <time>1970-01-01T01:22:40.000Z</time>
      </trkpt>
      <trkpt lat="39.7411" lon="-8.800819">
        <ele>40.7</ele>
        <time>1970-01-01T01:22:41.000Z</time>
      </trkpt>
      <trkpt lat="39.741092" lon="-8.800806">
        <ele>40.7</ele>
        <time>1970-01-01T01:22:42.000Z</time>
      </trkpt>
      <trkpt lat="39.741049" lon="-8.800757">
        <ele>40.8</ele>
        <time>1970-01-01T01:22:43.000Z</time>
      </trkpt>
      <trkpt lat="39.741019" lon="-8.800735">
        <ele>40.8</ele>
        <time>1970-01-01T01:22:44.000Z</time>
      </trkpt>
      <trkpt lat="39.740991" lon="-8.800713">
        <ele>40.8</ele>
        <time>1970-01-01T01:22:45.000Z</time>
      </trkpt>
      <trkpt lat="39.740959" lon="-8.800668">
        <ele>40.9</ele>
        <time>1970-01-01T01:22:46.000Z</time>
      </trkpt>
      <trkpt lat="39.740954" lon="-8.800631">
        <ele>40.9</ele>
        <time>1970-01-01T01:22:47.000Z</time>
      </trkpt>
      <trkpt lat="39.740927" lon="-8.80061">
        <ele>40.9</ele>
        <time>1970-01-01T01:22:48.000Z</time>
      </trkpt>
      <trkpt lat="39.74091" lon="-8.800574">
        <ele>40.9</ele>
        <time>1970-01-01T01:22:49.000Z</time>
      </trkpt>
      <trkpt lat="39.74088" lon="-8.800533">
        <ele>41</ele>
        <time>1970-01-01T01:22:50.000Z</time>
      </trkpt>
      <trkpt lat="39.740867" lon="-8.800513">
        <ele>40.9</ele>
        <time>1970-01-01T01:22:51.000Z</time>
      </trkpt>
      <trkpt lat="39.740839" lon="-8.800458">
        <ele>40.8</ele>
        <time>1970-01-01T01:22:52.000Z</time>
      </trkpt>
      <trkpt lat="39.740831" lon="-8.800417">
        <ele>40.7</ele>
        <time>1970-01-01T01:22:53.000Z</time>
      </trkpt>
      <trkpt lat="39.740828" lon="-8.80037">
        <ele>40.7</ele>
        <time>1970-01-01T01:22:54.000Z</time>
      </trkpt>
      <trkpt lat="39.740841" lon="-8.800335">
        <ele>40.7</ele>
        <time>1970-01-01T01:22:55.000Z</time>
      </trkpt>
      <trkpt lat="39.740848" lon="-8.800294">
        <ele>40.6</ele>
        <time>1970-01-01T01:22:56.000Z</time>
      </trkpt>
      <trkpt lat="39.74086" lon="-8.800278">
        <ele>40.6</ele>
        <time>1970-01-01T01:22:57.000Z</time>
      </trkpt>
      <trkpt lat="39.740873" lon="-8.800262">
        <ele>40.6</ele>
        <time>1970-01-01T01:22:58.000Z</time>
      </trkpt>
      <trkpt lat="39.740894" lon="-8.800238">
        <ele>40.7</ele>
        <time>1970-01-01T01:22:59.000Z</time>
      </trkpt>
      <trkpt lat="39.740918" lon="-8.800203">
        <ele>40.7</ele>
        <time>1970-01-01T01:23:00.000Z</time>
      </trkpt>
      <trkpt lat="39.740921" lon="-8.800188">
        <ele>40.8</ele>
        <time>1970-01-01T01:23:01.000Z</time>
      </trkpt>
      <trkpt lat="39.740946" lon="-8.800119">
        <ele>41.4</ele>
        <time>1970-01-01T01:23:02.000Z</time>
      </trkpt>
      <trkpt lat="39.740949" lon="-8.80007">
        <ele>41.5</ele>
        <time>1970-01-01T01:23:03.000Z</time>
      </trkpt>
      <trkpt lat="39.740973" lon="-8.80002">
        <ele>42.4</ele>
        <time>1970-01-01T01:23:04.000Z</time>
      </trkpt>
      <trkpt lat="39.740989" lon="-8.799989">
        <ele>43.5</ele>
        <time>1970-01-01T01:23:05.000Z</time>
      </trkpt>
      <trkpt lat="39.741019" lon="-8.799975">
        <ele>43.1</ele>
        <time>1970-01-01T01:23:06.000Z</time>
      </trkpt>
      <trkpt lat="39.741051" lon="-8.799961">
        <ele>43.9</ele>
        <time>1970-01-01T01:23:07.000Z</time>
      </trkpt>
      <trkpt lat="39.74106" lon="-8.799952">
        <ele>44.3</ele>
        <time>1970-01-01T01:23:08.000Z</time>
      </trkpt>
      <trkpt lat="39.741086" lon="-8.799928">
        <ele>44.7</ele>
        <time>1970-01-01T01:23:09.000Z</time>
      </trkpt>
      <trkpt lat="39.741121" lon="-8.799912">
        <ele>45.5</ele>
        <time>1970-01-01T01:23:10.000Z</time>
      </trkpt>
      <trkpt lat="39.741133" lon="-8.799897">
        <ele>45.1</ele>
        <time>1970-01-01T01:23:11.000Z</time>
      </trkpt>
      <trkpt lat="39.741156" lon="-8.799874">
        <ele>45.9</ele>
        <time>1970-01-01T01:23:12.000Z</time>
      </trkpt>
      <trkpt lat="39.741183" lon="-8.799861">
        <ele>45.5</ele>
        <time>1970-01-01T01:23:13.000Z</time>
      </trkpt>
      <trkpt lat="39.741189" lon="-8.799842">
        <ele>45.9</ele>
        <time>1970-01-01T01:23:14.000Z</time>
      </trkpt>
      <trkpt lat="39.74121" lon="-8.799837">
        <ele>45.5</ele>
        <time>1970-01-01T01:23:15.000Z</time>
      </trkpt>
      <trkpt lat="39.741241" lon="-8.799826">
        <ele>46.1</ele>
        <time>1970-01-01T01:23:16.000Z</time>
      </trkpt>
      <trkpt lat="39.741254" lon="-8.799817">
        <ele>46.4</ele>
        <time>1970-01-01T01:23:17.000Z</time>
      </trkpt>
      <trkpt lat="39.741279" lon="-8.79979">
        <ele>46.4</ele>
        <time>1970-01-01T01:23:18.000Z</time>
      </trkpt>
      <trkpt lat="39.741285" lon="-8.79978">
        <ele>46.7</ele>
        <time>1970-01-01T01:23:19.000Z</time>
      </trkpt>
      <trkpt lat="39.741306" lon="-8.79975">
        <ele>46.3</ele>
        <time>1970-01-01T01:23:20.000Z</time>
      </trkpt>
      <trkpt lat="39.741318" lon="-8.799713">
        <ele>46.3</ele>
        <time>1970-01-01T01:23:21.000Z</time>
      </trkpt>
      <trkpt lat="39.741322" lon="-8.799699">
        <ele>46.3</ele>
        <time>1970-01-01T01:23:22.000Z</time>
      </trkpt>
      <trkpt lat="39.74132" lon="-8.799664">
        <ele>46.4</ele>
        <time>1970-01-01T01:23:23.000Z</time>
      </trkpt>
      <trkpt lat="39.741314" lon="-8.799609">
        <ele>46.4</ele>
        <time>1970-01-01T01:23:24.000Z</time>
      </trkpt>
      <trkpt lat="39.74131" lon="-8.799589">
        <ele>46.4</ele>
        <time>1970-01-01T01:23:25.000Z</time>
      </trkpt>
      <trkpt lat="39.741298" lon="-8.799545">
        <ele>46.4</ele>
        <time>1970-01-01T01:23:26.000Z</time>
      </trkpt>
      <trkpt lat="39.741281" lon="-8.799504">
        <ele>46.3</ele>
        <time>1970-01-01T01:23:27.000Z</time>
      </trkpt>
      <trkpt lat="39.741261" lon="-8.799471">
        <ele>46.3</ele>
        <time>1970-01-01T01:23:28.000Z</time>
      </trkpt>
      <trkpt lat="39.741238" lon="-8.799451">
        <ele>46.4</ele>
        <time>1970-01-01T01:23:29.000Z</time>
      </trkpt>
      <trkpt lat="39.74121" lon="-8.799418">
        <ele>46.4</ele>
        <time>1970-01-01T01:23:30.000Z</time>
      </trkpt>
      <trkpt lat="39.741201" lon="-8.799406">
        <ele>46.4</ele>
        <time>1970-01-01T01:23:31.000Z</time>
      </trkpt>
      <trkpt lat="39.741175" lon="-8.799379">
        <ele>46.4</ele>
        <time>1970-01-01T01:23:32.000Z</time>
      </trkpt>
      <trkpt lat="39.741146" lon="-8.799352">
        <ele>46.4</ele>
        <time>1970-01-01T01:23:33.000Z</time>
      </trkpt>
      <trkpt lat="39.741117" lon="-8.799337">
        <ele>46.4</ele>
        <time>1970-01-01T01:23:34.000Z</time>
      </trkpt>
      <trkpt lat="39.741088" lon="-8.799322">
        <ele>46.2</ele>
        <time>1970-01-01T01:23:35.000Z</time>
      </trkpt>
      <trkpt lat="39.74106" lon="-8.79929">
        <ele>45.8</ele>
        <time>1970-01-01T01:23:36.000Z</time>
      </trkpt>
      <trkpt lat="39.741029" lon="-8.79924">
        <ele>45.3</ele>
        <time>1970-01-01T01:23:37.000Z</time>
      </trkpt>
      <trkpt lat="39.741008" lon="-8.799181">
        <ele>44.8</ele>
        <time>1970-01-01T01:23:38.000Z</time>
      </trkpt>
      <trkpt lat="39.740995" lon="-8.799121">
        <ele>44.3</ele>
        <time>1970-01-01T01:23:39.000Z</time>
      </trkpt>
      <trkpt lat="39.740995" lon="-8.79906">
        <ele>44.1</ele>
        <time>1970-01-01T01:23:40.000Z</time>
      </trkpt>
      <trkpt lat="39.74101" lon="-8.799001">
        <ele>44.3</ele>
        <time>1970-01-01T01:23:41.000Z</time>
      </trkpt>
      <trkpt lat="39.741028" lon="-8.798946">
        <ele>44.4</ele>
        <time>1970-01-01T01:23:42.000Z</time>
      </trkpt>
      <trkpt lat="39.741042" lon="-8.798893">
        <ele>44.5</ele>
        <time>1970-01-01T01:23:43.000Z</time>
      </trkpt>
      <trkpt lat="39.741051" lon="-8.798839">
        <ele>44.5</ele>
        <time>1970-01-01T01:23:44.000Z</time>
      </trkpt>
      <trkpt lat="39.741055" lon="-8.798787">
        <ele>44.5</ele>
        <time>1970-01-01T01:23:45.000Z</time>
      </trkpt>
      <trkpt lat="39.741063" lon="-8.798728">
        <ele>44.5</ele>
        <time>1970-01-01T01:23:46.000Z</time>
      </trkpt>
      <trkpt lat="39.741063" lon="-8.798665">
        <ele>44.4</ele>
        <time>1970-01-01T01:23:47.000Z</time>
      </trkpt>
      <trkpt lat="39.741057" lon="-8.79861">
        <ele>44.4</ele>
        <time>1970-01-01T01:23:48.000Z</time>
      </trkpt>
      <trkpt lat="39.741046" lon="-8.798548">
        <ele>44.3</ele>
        <time>1970-01-01T01:23:49.000Z</time>
      </trkpt>
      <trkpt lat="39.74103" lon="-8.798482">
        <ele>44.2</ele>
        <time>1970-01-01T01:23:50.000Z</time>
      </trkpt>
      <trkpt lat="39.741026" lon="-8.798419">
        <ele>44.1</ele>
        <time>1970-01-01T01:23:51.000Z</time>
      </trkpt>
      <trkpt lat="39.741021" lon="-8.798349">
        <ele>44.1</ele>
        <time>1970-01-01T01:23:52.000Z</time>
      </trkpt>
      <trkpt lat="39.741002" lon="-8.798314">
        <ele>44</ele>
        <time>1970-01-01T01:23:53.000Z</time>
      </trkpt>
      <trkpt lat="39.74099" lon="-8.79823">
        <ele>44</ele>
        <time>1970-01-01T01:23:54.000Z</time>
      </trkpt>
      <trkpt lat="39.74097" lon="-8.798167">
        <ele>43.9</ele>
        <time>1970-01-01T01:23:55.000Z</time>
      </trkpt>
      <trkpt lat="39.740947" lon="-8.798087">
        <ele>43.8</ele>
        <time>1970-01-01T01:23:56.000Z</time>
      </trkpt>
      <trkpt lat="39.740926" lon="-8.798016">
        <ele>43.8</ele>
        <time>1970-01-01T01:23:58.000Z</time>
      </trkpt>
      <trkpt lat="39.740901" lon="-8.797938">
        <ele>43.8</ele>
        <time>1970-01-01T01:23:59.000Z</time>
      </trkpt>
      <trkpt lat="39.740883" lon="-8.797878">
        <ele>43.8</ele>
        <time>1970-01-01T01:24:00.000Z</time>
      </trkpt>
      <trkpt lat="39.740871" lon="-8.797817">
        <ele>43.7</ele>
        <time>1970-01-01T01:24:01.000Z</time>
      </trkpt>
      <trkpt lat="39.740862" lon="-8.797752">
        <ele>43.7</ele>
        <time>1970-01-01T01:24:02.000Z</time>
      </trkpt>
      <trkpt lat="39.740857" lon="-8.797684">
        <ele>43.7</ele>
        <time>1970-01-01T01:24:03.000Z</time>
      </trkpt>
      <trkpt lat="39.74085" lon="-8.79762">
        <ele>43.7</ele>
        <time>1970-01-01T01:24:04.000Z</time>
      </trkpt>
      <trkpt lat="39.740849" lon="-8.797559">
        <ele>43.7</ele>
        <time>1970-01-01T01:24:05.000Z</time>
      </trkpt>
      <trkpt lat="39.740848" lon="-8.797491">
        <ele>43.7</ele>
        <time>1970-01-01T01:24:06.000Z</time>
      </trkpt>
      <trkpt lat="39.740854" lon="-8.797426">
        <ele>43.7</ele>
        <time>1970-01-01T01:24:07.000Z</time>
      </trkpt>
      <trkpt lat="39.740861" lon="-8.797358">
        <ele>43.8</ele>
        <time>1970-01-01T01:24:08.000Z</time>
      </trkpt>
      <trkpt lat="39.74087" lon="-8.797296">
        <ele>43.8</ele>
        <time>1970-01-01T01:24:09.000Z</time>
      </trkpt>
      <trkpt lat="39.740878" lon="-8.797234">
        <ele>43.8</ele>
        <time>1970-01-01T01:24:10.000Z</time>
      </trkpt>
      <trkpt lat="39.740884" lon="-8.797174">
        <ele>43.9</ele>
        <time>1970-01-01T01:24:11.000Z</time>
      </trkpt>
      <trkpt lat="39.740894" lon="-8.797109">
        <ele>43.9</ele>
        <time>1970-01-01T01:24:12.000Z</time>
      </trkpt>
      <trkpt lat="39.740898" lon="-8.797039">
        <ele>43.9</ele>
        <time>1970-01-01T01:24:13.000Z</time>
      </trkpt>
      <trkpt lat="39.740905" lon="-8.796974">
        <ele>44</ele>
        <time>1970-01-01T01:24:14.000Z</time>
      </trkpt>
      <trkpt lat="39.740916" lon="-8.796918">
        <ele>44</ele>
        <time>1970-01-01T01:24:15.000Z</time>
      </trkpt>
      <trkpt lat="39.740921" lon="-8.796846">
        <ele>44.1</ele>
        <time>1970-01-01T01:24:16.000Z</time>
      </trkpt>
      <trkpt lat="39.740923" lon="-8.796785">
        <ele>44.1</ele>
        <time>1970-01-01T01:24:17.000Z</time>
      </trkpt>
      <trkpt lat="39.740928" lon="-8.796723">
        <ele>44.2</ele>
        <time>1970-01-01T01:24:18.000Z</time>
      </trkpt>
      <trkpt lat="39.740935" lon="-8.796658">
        <ele>44.2</ele>
        <time>1970-01-01T01:24:19.000Z</time>
      </trkpt>
      <trkpt lat="39.740949" lon="-8.796529">
        <ele>44.3</ele>
        <time>1970-01-01T01:24:20.000Z</time>
      </trkpt>
      <trkpt lat="39.740955" lon="-8.796454">
        <ele>44.4</ele>
        <time>1970-01-01T01:24:21.000Z</time>
      </trkpt>
      <trkpt lat="39.740959" lon="-8.796387">
        <ele>44.4</ele>
        <time>1970-01-01T01:24:22.000Z</time>
      </trkpt>
      <trkpt lat="39.740968" lon="-8.796325">
        <ele>44.5</ele>
        <time>1970-01-01T01:24:23.000Z</time>
      </trkpt>
      <trkpt lat="39.74097" lon="-8.796257">
        <ele>44.5</ele>
        <time>1970-01-01T01:24:24.000Z</time>
      </trkpt>
      <trkpt lat="39.74098" lon="-8.796194">
        <ele>44.6</ele>
        <time>1970-01-01T01:24:25.000Z</time>
      </trkpt>
      <trkpt lat="39.740989" lon="-8.796131">
        <ele>44.6</ele>
        <time>1970-01-01T01:24:26.000Z</time>
      </trkpt>
      <trkpt lat="39.740998" lon="-8.796058">
        <ele>44.7</ele>
        <time>1970-01-01T01:24:27.000Z</time>
      </trkpt>
      <trkpt lat="39.741008" lon="-8.795995">
        <ele>44.7</ele>
        <time>1970-01-01T01:24:28.000Z</time>
      </trkpt>
      <trkpt lat="39.741016" lon="-8.795935">
        <ele>44.8</ele>
        <time>1970-01-01T01:24:29.000Z</time>
      </trkpt>
      <trkpt lat="39.741022" lon="-8.795864">
        <ele>44.9</ele>
        <time>1970-01-01T01:24:30.000Z</time>
      </trkpt>
      <trkpt lat="39.741028" lon="-8.795806">
        <ele>44.9</ele>
        <time>1970-01-01T01:24:31.000Z</time>
      </trkpt>
      <trkpt lat="39.741033" lon="-8.795736">
        <ele>45</ele>
        <time>1970-01-01T01:24:32.000Z</time>
      </trkpt>
      <trkpt lat="39.741038" lon="-8.795668">
        <ele>45.1</ele>
        <time>1970-01-01T01:24:33.000Z</time>
      </trkpt>
      <trkpt lat="39.741047" lon="-8.795602">
        <ele>45.1</ele>
        <time>1970-01-01T01:24:34.000Z</time>
      </trkpt>
      <trkpt lat="39.741048" lon="-8.795536">
        <ele>45.2</ele>
        <time>1970-01-01T01:24:35.000Z</time>
      </trkpt>
      <trkpt lat="39.741052" lon="-8.795469">
        <ele>45.3</ele>
        <time>1970-01-01T01:24:36.000Z</time>
      </trkpt>
      <trkpt lat="39.74106" lon="-8.795396">
        <ele>45.3</ele>
        <time>1970-01-01T01:24:37.000Z</time>
      </trkpt>
      <trkpt lat="39.741067" lon="-8.795331">
        <ele>45.4</ele>
        <time>1970-01-01T01:24:38.000Z</time>
      </trkpt>
      <trkpt lat="39.741073" lon="-8.795268">
        <ele>45.4</ele>
        <time>1970-01-01T01:24:39.000Z</time>
      </trkpt>
      <trkpt lat="39.741079" lon="-8.795199">
        <ele>45.5</ele>
        <time>1970-01-01T01:24:40.000Z</time>
      </trkpt>
      <trkpt lat="39.741082" lon="-8.795124">
        <ele>45.5</ele>
        <time>1970-01-01T01:24:41.000Z</time>
      </trkpt>
      <trkpt lat="39.741088" lon="-8.795039">
        <ele>45.6</ele>
        <time>1970-01-01T01:24:42.000Z</time>
      </trkpt>
      <trkpt lat="39.741098" lon="-8.794968">
        <ele>45.6</ele>
        <time>1970-01-01T01:24:43.000Z</time>
      </trkpt>
      <trkpt lat="39.741101" lon="-8.794891">
        <ele>45.7</ele>
        <time>1970-01-01T01:24:44.000Z</time>
      </trkpt>
      <trkpt lat="39.74111" lon="-8.79481">
        <ele>45.7</ele>
        <time>1970-01-01T01:24:45.000Z</time>
      </trkpt>
      <trkpt lat="39.74112" lon="-8.794733">
        <ele>45.8</ele>
        <time>1970-01-01T01:24:46.000Z</time>
      </trkpt>
      <trkpt lat="39.741124" lon="-8.794651">
        <ele>45.8</ele>
        <time>1970-01-01T01:24:47.000Z</time>
      </trkpt>
      <trkpt lat="39.741129" lon="-8.794581">
        <ele>45.9</ele>
        <time>1970-01-01T01:24:48.000Z</time>
      </trkpt>
      <trkpt lat="39.741138" lon="-8.794503">
        <ele>45.9</ele>
        <time>1970-01-01T01:24:49.000Z</time>
      </trkpt>
      <trkpt lat="39.741144" lon="-8.794437">
        <ele>46</ele>
        <time>1970-01-01T01:24:50.000Z</time>
      </trkpt>
      <trkpt lat="39.741154" lon="-8.794371">
        <ele>46</ele>
        <time>1970-01-01T01:24:51.000Z</time>
      </trkpt>
      <trkpt lat="39.741157" lon="-8.794303">
        <ele>46</ele>
        <time>1970-01-01T01:24:52.000Z</time>
      </trkpt>
      <trkpt lat="39.741163" lon="-8.794238">
        <ele>46</ele>
        <time>1970-01-01T01:24:53.000Z</time>
      </trkpt>
      <trkpt lat="39.741168" lon="-8.794169">
        <ele>46</ele>
        <time>1970-01-01T01:24:54.000Z</time>
      </trkpt>
      <trkpt lat="39.741176" lon="-8.794103">
        <ele>46</ele>
        <time>1970-01-01T01:24:55.000Z</time>
      </trkpt>
      <trkpt lat="39.741181" lon="-8.79404">
        <ele>46</ele>
        <time>1970-01-01T01:24:56.000Z</time>
      </trkpt>
      <trkpt lat="39.741182" lon="-8.793981">
        <ele>45.9</ele>
        <time>1970-01-01T01:24:57.000Z</time>
      </trkpt>
      <trkpt lat="39.741185" lon="-8.793933">
        <ele>45.9</ele>
        <time>1970-01-01T01:24:58.000Z</time>
      </trkpt>
      <trkpt lat="39.741193" lon="-8.793857">
        <ele>45.9</ele>
        <time>1970-01-01T01:24:59.000Z</time>
      </trkpt>
      <trkpt lat="39.741199" lon="-8.793798">
        <ele>45.9</ele>
        <time>1970-01-01T01:25:00.000Z</time>
      </trkpt>
      <trkpt lat="39.741206" lon="-8.793733">
        <ele>45.9</ele>
        <time>1970-01-01T01:25:01.000Z</time>
      </trkpt>
      <trkpt lat="39.741206" lon="-8.793673">
        <ele>45.9</ele>
        <time>1970-01-01T01:25:02.000Z</time>
      </trkpt>
      <trkpt lat="39.741192" lon="-8.793605">
        <ele>45.9</ele>
        <time>1970-01-01T01:25:03.000Z</time>
      </trkpt>
      <trkpt lat="39.741164" lon="-8.793535">
        <ele>45.9</ele>
        <time>1970-01-01T01:25:04.000Z</time>
      </trkpt>
      <trkpt lat="39.741134" lon="-8.793473">
        <ele>45.9</ele>
        <time>1970-01-01T01:25:05.000Z</time>
      </trkpt>
      <trkpt lat="39.741093" lon="-8.793416">
        <ele>45.8</ele>
        <time>1970-01-01T01:25:06.000Z</time>
      </trkpt>
      <trkpt lat="39.741046" lon="-8.793358">
        <ele>45.8</ele>
        <time>1970-01-01T01:25:07.000Z</time>
      </trkpt>
      <trkpt lat="39.740995" lon="-8.793309">
        <ele>45.8</ele>
        <time>1970-01-01T01:25:08.000Z</time>
      </trkpt>
      <trkpt lat="39.740943" lon="-8.793265">
        <ele>45.7</ele>
        <time>1970-01-01T01:25:09.000Z</time>
      </trkpt>
      <trkpt lat="39.74088" lon="-8.793236">
        <ele>45.7</ele>
        <time>1970-01-01T01:25:10.000Z</time>
      </trkpt>
      <trkpt lat="39.74082" lon="-8.793218">
        <ele>45.6</ele>
        <time>1970-01-01T01:25:11.000Z</time>
      </trkpt>
      <trkpt lat="39.740754" lon="-8.793216">
        <ele>45.6</ele>
        <time>1970-01-01T01:25:12.000Z</time>
      </trkpt>
      <trkpt lat="39.740689" lon="-8.793227">
        <ele>45.5</ele>
        <time>1970-01-01T01:25:13.000Z</time>
      </trkpt>
      <trkpt lat="39.740628" lon="-8.793241">
        <ele>45.5</ele>
        <time>1970-01-01T01:25:14.000Z</time>
      </trkpt>
      <trkpt lat="39.74057" lon="-8.793247">
        <ele>45.5</ele>
        <time>1970-01-01T01:25:15.000Z</time>
      </trkpt>
      <trkpt lat="39.740503" lon="-8.793256">
        <ele>45.4</ele>
        <time>1970-01-01T01:25:16.000Z</time>
      </trkpt>
      <trkpt lat="39.740438" lon="-8.793268">
        <ele>45.4</ele>
        <time>1970-01-01T01:25:17.000Z</time>
      </trkpt>
      <trkpt lat="39.740375" lon="-8.793279">
        <ele>45.4</ele>
        <time>1970-01-01T01:25:18.000Z</time>
      </trkpt>
      <trkpt lat="39.740314" lon="-8.793287">
        <ele>45.4</ele>
        <time>1970-01-01T01:25:19.000Z</time>
      </trkpt>
      <trkpt lat="39.74025" lon="-8.793292">
        <ele>45.4</ele>
        <time>1970-01-01T01:25:20.000Z</time>
      </trkpt>
      <trkpt lat="39.74019" lon="-8.793301">
        <ele>45.4</ele>
        <time>1970-01-01T01:25:21.000Z</time>
      </trkpt>
      <trkpt lat="39.740127" lon="-8.793308">
        <ele>45.4</ele>
        <time>1970-01-01T01:25:22.000Z</time>
      </trkpt>
      <trkpt lat="39.740068" lon="-8.793315">
        <ele>45.4</ele>
        <time>1970-01-01T01:25:23.000Z</time>
      </trkpt>
      <trkpt lat="39.740006" lon="-8.793326">
        <ele>45.4</ele>
        <time>1970-01-01T01:25:24.000Z</time>
      </trkpt>
      <trkpt lat="39.73994" lon="-8.793332">
        <ele>45.4</ele>
        <time>1970-01-01T01:25:25.000Z</time>
      </trkpt>
      <trkpt lat="39.73988" lon="-8.793354">
        <ele>45.4</ele>
        <time>1970-01-01T01:25:26.000Z</time>
      </trkpt>
      <trkpt lat="39.739817" lon="-8.793358">
        <ele>45.4</ele>
        <time>1970-01-01T01:25:27.000Z</time>
      </trkpt>
      <trkpt lat="39.739756" lon="-8.793366">
        <ele>45.4</ele>
        <time>1970-01-01T01:25:28.000Z</time>
      </trkpt>
      <trkpt lat="39.739694" lon="-8.793378">
        <ele>45.4</ele>
        <time>1970-01-01T01:25:29.000Z</time>
      </trkpt>
      <trkpt lat="39.739633" lon="-8.793392">
        <ele>45.4</ele>
        <time>1970-01-01T01:25:30.000Z</time>
      </trkpt>
      <trkpt lat="39.739575" lon="-8.793404">
        <ele>45.4</ele>
        <time>1970-01-01T01:25:31.000Z</time>
      </trkpt>
      <trkpt lat="39.73952" lon="-8.793412">
        <ele>45.4</ele>
        <time>1970-01-01T01:25:32.000Z</time>
      </trkpt>
      <trkpt lat="39.739467" lon="-8.793421">
        <ele>45.4</ele>
        <time>1970-01-01T01:25:33.000Z</time>
      </trkpt>
      <trkpt lat="39.739418" lon="-8.79343">
        <ele>45.4</ele>
        <time>1970-01-01T01:25:34.000Z</time>
      </trkpt>
      <trkpt lat="39.739362" lon="-8.793441">
        <ele>45.4</ele>
        <time>1970-01-01T01:25:35.000Z</time>
      </trkpt>
      <trkpt lat="39.739307" lon="-8.793453">
        <ele>45.4</ele>
        <time>1970-01-01T01:25:36.000Z</time>
      </trkpt>
      <trkpt lat="39.739248" lon="-8.793463">
        <ele>45.4</ele>
        <time>1970-01-01T01:25:37.000Z</time>
      </trkpt>
      <trkpt lat="39.739201" lon="-8.793471">
        <ele>45.3</ele>
        <time>1970-01-01T01:25:38.000Z</time>
      </trkpt>
      <trkpt lat="39.739146" lon="-8.793475">
        <ele>45.3</ele>
        <time>1970-01-01T01:25:39.000Z</time>
      </trkpt>
      <trkpt lat="39.739085" lon="-8.793486">
        <ele>45.3</ele>
        <time>1970-01-01T01:25:40.000Z</time>
      </trkpt>
      <trkpt lat="39.739029" lon="-8.793494">
        <ele>45.3</ele>
        <time>1970-01-01T01:25:41.000Z</time>
      </trkpt>
      <trkpt lat="39.738969" lon="-8.793504">
        <ele>45.3</ele>
        <time>1970-01-01T01:25:42.000Z</time>
      </trkpt>
      <trkpt lat="39.738911" lon="-8.793516">
        <ele>45.2</ele>
        <time>1970-01-01T01:25:43.000Z</time>
      </trkpt>
      <trkpt lat="39.73885" lon="-8.793529">
        <ele>45.2</ele>
        <time>1970-01-01T01:25:44.000Z</time>
      </trkpt>
      <trkpt lat="39.738798" lon="-8.793541">
        <ele>45.2</ele>
        <time>1970-01-01T01:25:45.000Z</time>
      </trkpt>
      <trkpt lat="39.738736" lon="-8.793545">
        <ele>45.2</ele>
        <time>1970-01-01T01:25:46.000Z</time>
      </trkpt>
      <trkpt lat="39.73867" lon="-8.793556">
        <ele>45.1</ele>
        <time>1970-01-01T01:25:47.000Z</time>
      </trkpt>
      <trkpt lat="39.738607" lon="-8.793571">
        <ele>45.1</ele>
        <time>1970-01-01T01:25:48.000Z</time>
      </trkpt>
      <trkpt lat="39.738544" lon="-8.793581">
        <ele>45.1</ele>
        <time>1970-01-01T01:25:49.000Z</time>
      </trkpt>
      <trkpt lat="39.738478" lon="-8.793593">
        <ele>45.1</ele>
        <time>1970-01-01T01:25:50.000Z</time>
      </trkpt>
      <trkpt lat="39.738417" lon="-8.793604">
        <ele>45.1</ele>
        <time>1970-01-01T01:25:51.000Z</time>
      </trkpt>
      <trkpt lat="39.738354" lon="-8.793613">
        <ele>45.1</ele>
        <time>1970-01-01T01:25:52.000Z</time>
      </trkpt>
      <trkpt lat="39.738293" lon="-8.793623">
        <ele>45.1</ele>
        <time>1970-01-01T01:25:53.000Z</time>
      </trkpt>
      <trkpt lat="39.73823" lon="-8.793632">
        <ele>45.1</ele>
        <time>1970-01-01T01:25:54.000Z</time>
      </trkpt>
      <trkpt lat="39.738169" lon="-8.793644">
        <ele>45.1</ele>
        <time>1970-01-01T01:25:55.000Z</time>
      </trkpt>
      <trkpt lat="39.738109" lon="-8.793651">
        <ele>45.1</ele>
        <time>1970-01-01T01:25:56.000Z</time>
      </trkpt>
      <trkpt lat="39.738047" lon="-8.793667">
        <ele>45.1</ele>
        <time>1970-01-01T01:25:57.000Z</time>
      </trkpt>
      <trkpt lat="39.737991" lon="-8.793687">
        <ele>45.1</ele>
        <time>1970-01-01T01:25:58.000Z</time>
      </trkpt>
      <trkpt lat="39.737935" lon="-8.793703">
        <ele>45.1</ele>
        <time>1970-01-01T01:25:59.000Z</time>
      </trkpt>
      <trkpt lat="39.737871" lon="-8.793717">
        <ele>45.1</ele>
        <time>1970-01-01T01:26:00.000Z</time>
      </trkpt>
      <trkpt lat="39.737807" lon="-8.793731">
        <ele>45.1</ele>
        <time>1970-01-01T01:26:01.000Z</time>
      </trkpt>
      <trkpt lat="39.737745" lon="-8.793746">
        <ele>45.1</ele>
        <time>1970-01-01T01:26:02.000Z</time>
      </trkpt>
      <trkpt lat="39.737682" lon="-8.793767">
        <ele>45.1</ele>
        <time>1970-01-01T01:26:04.000Z</time>
      </trkpt>
      <trkpt lat="39.73762" lon="-8.793789">
        <ele>45.1</ele>
        <time>1970-01-01T01:26:05.000Z</time>
      </trkpt>
      <trkpt lat="39.737567" lon="-8.793808">
        <ele>45.1</ele>
        <time>1970-01-01T01:26:06.000Z</time>
      </trkpt>
      <trkpt lat="39.737512" lon="-8.793829">
        <ele>45.1</ele>
        <time>1970-01-01T01:26:07.000Z</time>
      </trkpt>
      <trkpt lat="39.737462" lon="-8.793854">
        <ele>45.1</ele>
        <time>1970-01-01T01:26:08.000Z</time>
      </trkpt>
      <trkpt lat="39.737413" lon="-8.793881">
        <ele>45.1</ele>
        <time>1970-01-01T01:26:09.000Z</time>
      </trkpt>
      <trkpt lat="39.737361" lon="-8.793904">
        <ele>45.1</ele>
        <time>1970-01-01T01:26:10.000Z</time>
      </trkpt>
      <trkpt lat="39.737312" lon="-8.793926">
        <ele>45.1</ele>
        <time>1970-01-01T01:26:11.000Z</time>
      </trkpt>
      <trkpt lat="39.737259" lon="-8.793947">
        <ele>45</ele>
        <time>1970-01-01T01:26:12.000Z</time>
      </trkpt>
      <trkpt lat="39.737206" lon="-8.79397">
        <ele>45</ele>
        <time>1970-01-01T01:26:13.000Z</time>
      </trkpt>
      <trkpt lat="39.737154" lon="-8.793994">
        <ele>45</ele>
        <time>1970-01-01T01:26:14.000Z</time>
      </trkpt>
      <trkpt lat="39.737101" lon="-8.794018">
        <ele>45</ele>
        <time>1970-01-01T01:26:15.000Z</time>
      </trkpt>
      <trkpt lat="39.737044" lon="-8.794048">
        <ele>45</ele>
        <time>1970-01-01T01:26:16.000Z</time>
      </trkpt>
      <trkpt lat="39.736982" lon="-8.794084">
        <ele>45</ele>
        <time>1970-01-01T01:26:17.000Z</time>
      </trkpt>
      <trkpt lat="39.736923" lon="-8.794129">
        <ele>45</ele>
        <time>1970-01-01T01:26:18.000Z</time>
      </trkpt>
      <trkpt lat="39.736867" lon="-8.794181">
        <ele>44.9</ele>
        <time>1970-01-01T01:26:19.000Z</time>
      </trkpt>
      <trkpt lat="39.73681" lon="-8.794225">
        <ele>44.9</ele>
        <time>1970-01-01T01:26:20.000Z</time>
      </trkpt>
      <trkpt lat="39.736749" lon="-8.794247">
        <ele>45</ele>
        <time>1970-01-01T01:26:21.000Z</time>
      </trkpt>
      <trkpt lat="39.736689" lon="-8.794243">
        <ele>45.1</ele>
        <time>1970-01-01T01:26:22.000Z</time>
      </trkpt>
      <trkpt lat="39.736632" lon="-8.794212">
        <ele>45.2</ele>
        <time>1970-01-01T01:26:23.000Z</time>
      </trkpt>
      <trkpt lat="39.736585" lon="-8.794149">
        <ele>45.3</ele>
        <time>1970-01-01T01:26:24.000Z</time>
      </trkpt>
      <trkpt lat="39.736546" lon="-8.794087">
        <ele>45.5</ele>
        <time>1970-01-01T01:26:25.000Z</time>
      </trkpt>
      <trkpt lat="39.736506" lon="-8.794034">
        <ele>45.7</ele>
        <time>1970-01-01T01:26:26.000Z</time>
      </trkpt>
      <trkpt lat="39.736416" lon="-8.793994">
        <ele>45.8</ele>
        <time>1970-01-01T01:26:27.000Z</time>
      </trkpt>
      <trkpt lat="39.736387" lon="-8.794029">
        <ele>45.7</ele>
        <time>1970-01-01T01:26:28.000Z</time>
      </trkpt>
      <trkpt lat="39.736387" lon="-8.794087">
        <ele>45.5</ele>
        <time>1970-01-01T01:26:29.000Z</time>
      </trkpt>
      <trkpt lat="39.736369" lon="-8.794134">
        <ele>45.4</ele>
        <time>1970-01-01T01:26:30.000Z</time>
      </trkpt>
      <trkpt lat="39.736356" lon="-8.794178">
        <ele>45.3</ele>
        <time>1970-01-01T01:26:31.000Z</time>
      </trkpt>
      <trkpt lat="39.736338" lon="-8.794229">
        <ele>45.3</ele>
        <time>1970-01-01T01:26:32.000Z</time>
      </trkpt>
      <trkpt lat="39.736333" lon="-8.794281">
        <ele>45.2</ele>
        <time>1970-01-01T01:26:33.000Z</time>
      </trkpt>
      <trkpt lat="39.736325" lon="-8.794328">
        <ele>45.2</ele>
        <time>1970-01-01T01:26:34.000Z</time>
      </trkpt>
      <trkpt lat="39.736312" lon="-8.794385">
        <ele>45.1</ele>
        <time>1970-01-01T01:26:35.000Z</time>
      </trkpt>
      <trkpt lat="39.736296" lon="-8.794438">
        <ele>45.1</ele>
        <time>1970-01-01T01:26:36.000Z</time>
      </trkpt>
      <trkpt lat="39.736278" lon="-8.794501">
        <ele>45</ele>
        <time>1970-01-01T01:26:37.000Z</time>
      </trkpt>
      <trkpt lat="39.736266" lon="-8.794561">
        <ele>45</ele>
        <time>1970-01-01T01:26:38.000Z</time>
      </trkpt>
      <trkpt lat="39.736257" lon="-8.794618">
        <ele>45</ele>
        <time>1970-01-01T01:26:39.000Z</time>
      </trkpt>
      <trkpt lat="39.736243" lon="-8.794663">
        <ele>44.9</ele>
        <time>1970-01-01T01:26:40.000Z</time>
      </trkpt>
      <trkpt lat="39.736229" lon="-8.794718">
        <ele>44.9</ele>
        <time>1970-01-01T01:26:41.000Z</time>
      </trkpt>
      <trkpt lat="39.736218" lon="-8.794766">
        <ele>44.9</ele>
        <time>1970-01-01T01:26:42.000Z</time>
      </trkpt>
      <trkpt lat="39.736205" lon="-8.794813">
        <ele>44.9</ele>
        <time>1970-01-01T01:26:43.000Z</time>
      </trkpt>
      <trkpt lat="39.73619" lon="-8.794856">
        <ele>44.9</ele>
        <time>1970-01-01T01:26:44.000Z</time>
      </trkpt>
      <trkpt lat="39.736178" lon="-8.794906">
        <ele>44.9</ele>
        <time>1970-01-01T01:26:45.000Z</time>
      </trkpt>
      <trkpt lat="39.736166" lon="-8.794953">
        <ele>44.9</ele>
        <time>1970-01-01T01:26:46.000Z</time>
      </trkpt>
      <trkpt lat="39.736159" lon="-8.795001">
        <ele>44.9</ele>
        <time>1970-01-01T01:26:47.000Z</time>
      </trkpt>
      <trkpt lat="39.736139" lon="-8.795054">
        <ele>44.9</ele>
        <time>1970-01-01T01:26:48.000Z</time>
      </trkpt>
      <trkpt lat="39.736122" lon="-8.795102">
        <ele>44.9</ele>
        <time>1970-01-01T01:26:49.000Z</time>
      </trkpt>
      <trkpt lat="39.736108" lon="-8.795156">
        <ele>44.9</ele>
        <time>1970-01-01T01:26:50.000Z</time>
      </trkpt>
      <trkpt lat="39.736102" lon="-8.795208">
        <ele>44.9</ele>
        <time>1970-01-01T01:26:51.000Z</time>
      </trkpt>
      <trkpt lat="39.736077" lon="-8.795262">
        <ele>44.9</ele>
        <time>1970-01-01T01:26:52.000Z</time>
      </trkpt>
      <trkpt lat="39.736057" lon="-8.795308">
        <ele>44.9</ele>
        <time>1970-01-01T01:26:53.000Z</time>
      </trkpt>
      <trkpt lat="39.736041" lon="-8.795354">
        <ele>44.9</ele>
        <time>1970-01-01T01:26:54.000Z</time>
      </trkpt>
      <trkpt lat="39.736016" lon="-8.795413">
        <ele>45</ele>
        <time>1970-01-01T01:26:55.000Z</time>
      </trkpt>
      <trkpt lat="39.736004" lon="-8.795463">
        <ele>45</ele>
        <time>1970-01-01T01:26:56.000Z</time>
      </trkpt>
      <trkpt lat="39.735996" lon="-8.795509">
        <ele>45</ele>
        <time>1970-01-01T01:26:57.000Z</time>
      </trkpt>
      <trkpt lat="39.735992" lon="-8.795557">
        <ele>45</ele>
        <time>1970-01-01T01:26:58.000Z</time>
      </trkpt>
      <trkpt lat="39.735981" lon="-8.795597">
        <ele>45</ele>
        <time>1970-01-01T01:26:59.000Z</time>
      </trkpt>
      <trkpt lat="39.735964" lon="-8.795652">
        <ele>45.1</ele>
        <time>1970-01-01T01:27:00.000Z</time>
      </trkpt>
      <trkpt lat="39.735953" lon="-8.795701">
        <ele>45.1</ele>
        <time>1970-01-01T01:27:01.000Z</time>
      </trkpt>
      <trkpt lat="39.735927" lon="-8.795736">
        <ele>45.1</ele>
        <time>1970-01-01T01:27:02.000Z</time>
      </trkpt>
      <trkpt lat="39.735883" lon="-8.795742">
        <ele>45</ele>
        <time>1970-01-01T01:27:03.000Z</time>
      </trkpt>
      <trkpt lat="39.735861" lon="-8.79574">
        <ele>45</ele>
        <time>1970-01-01T01:27:04.000Z</time>
      </trkpt>
      <trkpt lat="39.735815" lon="-8.795717">
        <ele>44.9</ele>
        <time>1970-01-01T01:27:05.000Z</time>
      </trkpt>
      <trkpt lat="39.735765" lon="-8.795696">
        <ele>44.9</ele>
        <time>1970-01-01T01:27:06.000Z</time>
      </trkpt>
      <trkpt lat="39.73572" lon="-8.795675">
        <ele>44.8</ele>
        <time>1970-01-01T01:27:07.000Z</time>
      </trkpt>
      <trkpt lat="39.735679" lon="-8.795663">
        <ele>44.8</ele>
        <time>1970-01-01T01:27:08.000Z</time>
      </trkpt>
      <trkpt lat="39.735633" lon="-8.795649">
        <ele>44.8</ele>
        <time>1970-01-01T01:27:09.000Z</time>
      </trkpt>
      <trkpt lat="39.73559" lon="-8.79563">
        <ele>44.8</ele>
        <time>1970-01-01T01:27:10.000Z</time>
      </trkpt>
      <trkpt lat="39.735552" lon="-8.795618">
        <ele>44.8</ele>
        <time>1970-01-01T01:27:11.000Z</time>
      </trkpt>
      <trkpt lat="39.735522" lon="-8.795601">
        <ele>44.7</ele>
        <time>1970-01-01T01:27:12.000Z</time>
      </trkpt>
      <trkpt lat="39.735483" lon="-8.795583">
        <ele>44.7</ele>
        <time>1970-01-01T01:27:13.000Z</time>
      </trkpt>
      <trkpt lat="39.735468" lon="-8.79558">
        <ele>44.7</ele>
        <time>1970-01-01T01:27:14.000Z</time>
      </trkpt>
      <trkpt lat="39.735437" lon="-8.795583">
        <ele>44.7</ele>
        <time>1970-01-01T01:27:15.000Z</time>
      </trkpt>
      <trkpt lat="39.735429" lon="-8.795585">
        <ele>44.7</ele>
        <time>1970-01-01T01:27:16.000Z</time>
      </trkpt>
      <trkpt lat="39.735408" lon="-8.795612">
        <ele>44.7</ele>
        <time>1970-01-01T01:27:17.000Z</time>
      </trkpt>
      <trkpt lat="39.735397" lon="-8.795625">
        <ele>44.7</ele>
        <time>1970-01-01T01:27:18.000Z</time>
      </trkpt>
      <trkpt lat="39.735373" lon="-8.795647">
        <ele>44.7</ele>
        <time>1970-01-01T01:27:19.000Z</time>
      </trkpt>
      <trkpt lat="39.735346" lon="-8.795679">
        <ele>44.6</ele>
        <time>1970-01-01T01:27:20.000Z</time>
      </trkpt>
      <trkpt lat="39.735316" lon="-8.795711">
        <ele>44.6</ele>
        <time>1970-01-01T01:27:21.000Z</time>
      </trkpt>
      <trkpt lat="39.735283" lon="-8.795747">
        <ele>44.6</ele>
        <time>1970-01-01T01:27:22.000Z</time>
      </trkpt>
      <trkpt lat="39.735249" lon="-8.795771">
        <ele>44.6</ele>
        <time>1970-01-01T01:27:23.000Z</time>
      </trkpt>
      <trkpt lat="39.735218" lon="-8.795802">
        <ele>44.6</ele>
        <time>1970-01-01T01:27:24.000Z</time>
      </trkpt>
      <trkpt lat="39.735193" lon="-8.795834">
        <ele>44.6</ele>
        <time>1970-01-01T01:27:25.000Z</time>
      </trkpt>
      <trkpt lat="39.73517" lon="-8.795862">
        <ele>44.6</ele>
        <time>1970-01-01T01:27:26.000Z</time>
      </trkpt>
      <trkpt lat="39.735144" lon="-8.795885">
        <ele>44.6</ele>
        <time>1970-01-01T01:27:27.000Z</time>
      </trkpt>
      <trkpt lat="39.735121" lon="-8.79591">
        <ele>44.6</ele>
        <time>1970-01-01T01:27:28.000Z</time>
      </trkpt>
      <trkpt lat="39.7351" lon="-8.795935">
        <ele>44.7</ele>
        <time>1970-01-01T01:27:29.000Z</time>
      </trkpt>
      <trkpt lat="39.735081" lon="-8.795964">
        <ele>44.7</ele>
        <time>1970-01-01T01:27:30.000Z</time>
      </trkpt>
      <trkpt lat="39.735074" lon="-8.795999">
        <ele>44.7</ele>
        <time>1970-01-01T01:27:31.000Z</time>
      </trkpt>
      <trkpt lat="39.735084" lon="-8.796039">
        <ele>44.7</ele>
        <time>1970-01-01T01:27:32.000Z</time>
      </trkpt>
      <trkpt lat="39.735089" lon="-8.79609">
        <ele>44.7</ele>
        <time>1970-01-01T01:27:33.000Z</time>
      </trkpt>
      <trkpt lat="39.735103" lon="-8.796128">
        <ele>44.7</ele>
        <time>1970-01-01T01:27:34.000Z</time>
      </trkpt>
      <trkpt lat="39.73511" lon="-8.796185">
        <ele>44.7</ele>
        <time>1970-01-01T01:27:35.000Z</time>
      </trkpt>
      <trkpt lat="39.735115" lon="-8.79624">
        <ele>44.7</ele>
        <time>1970-01-01T01:27:36.000Z</time>
      </trkpt>
      <trkpt lat="39.73512" lon="-8.796287">
        <ele>44.7</ele>
        <time>1970-01-01T01:27:37.000Z</time>
      </trkpt>
      <trkpt lat="39.735129" lon="-8.796328">
        <ele>44.7</ele>
        <time>1970-01-01T01:27:38.000Z</time>
      </trkpt>
      <trkpt lat="39.735135" lon="-8.796371">
        <ele>44.7</ele>
        <time>1970-01-01T01:27:39.000Z</time>
      </trkpt>
      <trkpt lat="39.735137" lon="-8.796412">
        <ele>44.7</ele>
        <time>1970-01-01T01:27:40.000Z</time>
      </trkpt>
      <trkpt lat="39.735143" lon="-8.796453">
        <ele>44.7</ele>
        <time>1970-01-01T01:27:41.000Z</time>
      </trkpt>
      <trkpt lat="39.735146" lon="-8.796492">
        <ele>44.7</ele>
        <time>1970-01-01T01:27:42.000Z</time>
      </trkpt>
      <trkpt lat="39.735154" lon="-8.796527">
        <ele>44.6</ele>
        <time>1970-01-01T01:27:43.000Z</time>
      </trkpt>
      <trkpt lat="39.735164" lon="-8.796568">
        <ele>44.6</ele>
        <time>1970-01-01T01:27:44.000Z</time>
      </trkpt>
      <trkpt lat="39.735167" lon="-8.796617">
        <ele>44.5</ele>
        <time>1970-01-01T01:27:45.000Z</time>
      </trkpt>
      <trkpt lat="39.735171" lon="-8.79666">
        <ele>44.5</ele>
        <time>1970-01-01T01:27:46.000Z</time>
      </trkpt>
      <trkpt lat="39.735181" lon="-8.796705">
        <ele>44.4</ele>
        <time>1970-01-01T01:27:47.000Z</time>
      </trkpt>
      <trkpt lat="39.735181" lon="-8.796721">
        <ele>44.4</ele>
        <time>1970-01-01T01:27:48.000Z</time>
      </trkpt>
      <trkpt lat="39.735162" lon="-8.796764">
        <ele>44.1</ele>
        <time>1970-01-01T01:27:49.000Z</time>
      </trkpt>
      <trkpt lat="39.735154" lon="-8.796778">
        <ele>44.1</ele>
        <time>1970-01-01T01:27:50.000Z</time>
      </trkpt>
      <trkpt lat="39.735114" lon="-8.796815">
        <ele>44</ele>
        <time>1970-01-01T01:27:51.000Z</time>
      </trkpt>
      <trkpt lat="39.735092" lon="-8.796832">
        <ele>44</ele>
        <time>1970-01-01T01:27:52.000Z</time>
      </trkpt>
      <trkpt lat="39.735058" lon="-8.796862">
        <ele>43.9</ele>
        <time>1970-01-01T01:27:53.000Z</time>
      </trkpt>
      <trkpt lat="39.735023" lon="-8.796886">
        <ele>43.9</ele>
        <time>1970-01-01T01:27:54.000Z</time>
      </trkpt>
      <trkpt lat="39.734979" lon="-8.796907">
        <ele>43.9</ele>
        <time>1970-01-01T01:27:55.000Z</time>
      </trkpt>
      <trkpt lat="39.734925" lon="-8.796925">
        <ele>43.8</ele>
        <time>1970-01-01T01:27:56.000Z</time>
      </trkpt>
      <trkpt lat="39.734869" lon="-8.796946">
        <ele>43.8</ele>
        <time>1970-01-01T01:27:57.000Z</time>
      </trkpt>
      <trkpt lat="39.734821" lon="-8.796974">
        <ele>43.8</ele>
        <time>1970-01-01T01:27:58.000Z</time>
      </trkpt>
      <trkpt lat="39.734781" lon="-8.796996">
        <ele>43.8</ele>
        <time>1970-01-01T01:27:59.000Z</time>
      </trkpt>
      <trkpt lat="39.734745" lon="-8.797017">
        <ele>43.9</ele>
        <time>1970-01-01T01:28:00.000Z</time>
      </trkpt>
      <trkpt lat="39.73471" lon="-8.797031">
        <ele>43.9</ele>
        <time>1970-01-01T01:28:01.000Z</time>
      </trkpt>
      <trkpt lat="39.734679" lon="-8.797049">
        <ele>43.9</ele>
        <time>1970-01-01T01:28:02.000Z</time>
      </trkpt>
      <trkpt lat="39.734644" lon="-8.797067">
        <ele>44</ele>
        <time>1970-01-01T01:28:03.000Z</time>
      </trkpt>
      <trkpt lat="39.734634" lon="-8.797078">
        <ele>44</ele>
        <time>1970-01-01T01:28:04.000Z</time>
      </trkpt>
      <trkpt lat="39.73458" lon="-8.797105">
        <ele>44.1</ele>
        <time>1970-01-01T01:28:05.000Z</time>
      </trkpt>
      <trkpt lat="39.734526" lon="-8.797129">
        <ele>44.1</ele>
        <time>1970-01-01T01:28:06.000Z</time>
      </trkpt>
      <trkpt lat="39.734479" lon="-8.797148">
        <ele>44.2</ele>
        <time>1970-01-01T01:28:07.000Z</time>
      </trkpt>
      <trkpt lat="39.734438" lon="-8.797163">
        <ele>44.3</ele>
        <time>1970-01-01T01:28:08.000Z</time>
      </trkpt>
      <trkpt lat="39.734403" lon="-8.797176">
        <ele>44.3</ele>
        <time>1970-01-01T01:28:10.000Z</time>
      </trkpt>
      <trkpt lat="39.734365" lon="-8.7972">
        <ele>44.4</ele>
        <time>1970-01-01T01:28:11.000Z</time>
      </trkpt>
      <trkpt lat="39.734325" lon="-8.79722">
        <ele>44.4</ele>
        <time>1970-01-01T01:28:12.000Z</time>
      </trkpt>
      <trkpt lat="39.734284" lon="-8.797247">
        <ele>44.5</ele>
        <time>1970-01-01T01:28:13.000Z</time>
      </trkpt>
      <trkpt lat="39.734251" lon="-8.797262">
        <ele>44.5</ele>
        <time>1970-01-01T01:28:14.000Z</time>
      </trkpt>
      <trkpt lat="39.734216" lon="-8.797276">
        <ele>44.6</ele>
        <time>1970-01-01T01:28:15.000Z</time>
      </trkpt>
      <trkpt lat="39.734172" lon="-8.79729">
        <ele>44.7</ele>
        <time>1970-01-01T01:28:16.000Z</time>
      </trkpt>
      <trkpt lat="39.734134" lon="-8.79731">
        <ele>44.8</ele>
        <time>1970-01-01T01:28:17.000Z</time>
      </trkpt>
      <trkpt lat="39.734089" lon="-8.797327">
        <ele>44.8</ele>
        <time>1970-01-01T01:28:18.000Z</time>
      </trkpt>
      <trkpt lat="39.734055" lon="-8.797337">
        <ele>44.9</ele>
        <time>1970-01-01T01:28:19.000Z</time>
      </trkpt>
      <trkpt lat="39.734022" lon="-8.797345">
        <ele>45</ele>
        <time>1970-01-01T01:28:20.000Z</time>
      </trkpt>
      <trkpt lat="39.733993" lon="-8.797353">
        <ele>45</ele>
        <time>1970-01-01T01:28:21.000Z</time>
      </trkpt>
      <trkpt lat="39.733949" lon="-8.797359">
        <ele>45.1</ele>
        <time>1970-01-01T01:28:22.000Z</time>
      </trkpt>
      <trkpt lat="39.733901" lon="-8.797363">
        <ele>45.2</ele>
        <time>1970-01-01T01:28:23.000Z</time>
      </trkpt>
      <trkpt lat="39.733855" lon="-8.797371">
        <ele>45.3</ele>
        <time>1970-01-01T01:28:24.000Z</time>
      </trkpt>
      <trkpt lat="39.733814" lon="-8.797382">
        <ele>45.4</ele>
        <time>1970-01-01T01:28:25.000Z</time>
      </trkpt>
      <trkpt lat="39.733781" lon="-8.797399">
        <ele>45.4</ele>
        <time>1970-01-01T01:28:26.000Z</time>
      </trkpt>
      <trkpt lat="39.733753" lon="-8.797425">
        <ele>45.5</ele>
        <time>1970-01-01T01:28:27.000Z</time>
      </trkpt>
      <trkpt lat="39.733726" lon="-8.797445">
        <ele>45.6</ele>
        <time>1970-01-01T01:28:28.000Z</time>
      </trkpt>
      <trkpt lat="39.733695" lon="-8.79747">
        <ele>45.7</ele>
        <time>1970-01-01T01:28:29.000Z</time>
      </trkpt>
      <trkpt lat="39.733669" lon="-8.7975">
        <ele>45.8</ele>
        <time>1970-01-01T01:28:30.000Z</time>
      </trkpt>
      <trkpt lat="39.733648" lon="-8.797535">
        <ele>45.9</ele>
        <time>1970-01-01T01:28:31.000Z</time>
      </trkpt>
      <trkpt lat="39.733628" lon="-8.797574">
        <ele>46.1</ele>
        <time>1970-01-01T01:28:32.000Z</time>
      </trkpt>
      <trkpt lat="39.733609" lon="-8.79761">
        <ele>46.2</ele>
        <time>1970-01-01T01:28:33.000Z</time>
      </trkpt>
      <trkpt lat="39.733595" lon="-8.797649">
        <ele>46.3</ele>
        <time>1970-01-01T01:28:34.000Z</time>
      </trkpt>
      <trkpt lat="39.733582" lon="-8.797687">
        <ele>46.5</ele>
        <time>1970-01-01T01:28:35.000Z</time>
      </trkpt>
      <trkpt lat="39.733573" lon="-8.797727">
        <ele>46.6</ele>
        <time>1970-01-01T01:28:36.000Z</time>
      </trkpt>
      <trkpt lat="39.733552" lon="-8.797759">
        <ele>46.8</ele>
        <time>1970-01-01T01:28:37.000Z</time>
      </trkpt>
      <trkpt lat="39.733529" lon="-8.797788">
        <ele>47</ele>
        <time>1970-01-01T01:28:38.000Z</time>
      </trkpt>
      <trkpt lat="39.7335" lon="-8.797817">
        <ele>47.2</ele>
        <time>1970-01-01T01:28:39.000Z</time>
      </trkpt>
      <trkpt lat="39.73349" lon="-8.797827">
        <ele>47.3</ele>
        <time>1970-01-01T01:28:40.000Z</time>
      </trkpt>
      <trkpt lat="39.73346" lon="-8.797855">
        <ele>47.5</ele>
        <time>1970-01-01T01:28:41.000Z</time>
      </trkpt>
      <trkpt lat="39.733449" lon="-8.797864">
        <ele>47.5</ele>
        <time>1970-01-01T01:28:42.000Z</time>
      </trkpt>
      <trkpt lat="39.733419" lon="-8.797917">
        <ele>47.9</ele>
        <time>1970-01-01T01:28:43.000Z</time>
      </trkpt>
      <trkpt lat="39.73342" lon="-8.797956">
        <ele>48.1</ele>
        <time>1970-01-01T01:28:44.000Z</time>
      </trkpt>
      <trkpt lat="39.733419" lon="-8.798012">
        <ele>48.4</ele>
        <time>1970-01-01T01:28:45.000Z</time>
      </trkpt>
      <trkpt lat="39.733418" lon="-8.798033">
        <ele>48.5</ele>
        <time>1970-01-01T01:28:46.000Z</time>
      </trkpt>
      <trkpt lat="39.733414" lon="-8.798089">
        <ele>48.7</ele>
        <time>1970-01-01T01:28:47.000Z</time>
      </trkpt>
      <trkpt lat="39.733414" lon="-8.798112">
        <ele>48.8</ele>
        <time>1970-01-01T01:28:48.000Z</time>
      </trkpt>
      <trkpt lat="39.733407" lon="-8.798154">
        <ele>49</ele>
        <time>1970-01-01T01:28:49.000Z</time>
      </trkpt>
      <trkpt lat="39.733405" lon="-8.798195">
        <ele>49.1</ele>
        <time>1970-01-01T01:28:50.000Z</time>
      </trkpt>
      <trkpt lat="39.733412" lon="-8.798231">
        <ele>49.2</ele>
        <time>1970-01-01T01:28:51.000Z</time>
      </trkpt>
      <trkpt lat="39.73342" lon="-8.79827">
        <ele>49.2</ele>
        <time>1970-01-01T01:28:52.000Z</time>
      </trkpt>
      <trkpt lat="39.733421" lon="-8.798316">
        <ele>49.3</ele>
        <time>1970-01-01T01:28:53.000Z</time>
      </trkpt>
      <trkpt lat="39.733423" lon="-8.79837">
        <ele>49.4</ele>
        <time>1970-01-01T01:28:54.000Z</time>
      </trkpt>
      <trkpt lat="39.733425" lon="-8.798391">
        <ele>49.5</ele>
        <time>1970-01-01T01:28:55.000Z</time>
      </trkpt>
      <trkpt lat="39.733434" lon="-8.798443">
        <ele>49.7</ele>
        <time>1970-01-01T01:28:56.000Z</time>
      </trkpt>
      <trkpt lat="39.733442" lon="-8.798489">
        <ele>49.9</ele>
        <time>1970-01-01T01:28:57.000Z</time>
      </trkpt>
      <trkpt lat="39.733447" lon="-8.798509">
        <ele>50</ele>
        <time>1970-01-01T01:28:58.000Z</time>
      </trkpt>
      <trkpt lat="39.733445" lon="-8.798553">
        <ele>50.2</ele>
        <time>1970-01-01T01:28:59.000Z</time>
      </trkpt>
      <trkpt lat="39.733443" lon="-8.798565">
        <ele>50.2</ele>
        <time>1970-01-01T01:29:00.000Z</time>
      </trkpt>
      <trkpt lat="39.733442" lon="-8.798602">
        <ele>50.3</ele>
        <time>1970-01-01T01:29:01.000Z</time>
      </trkpt>
      <trkpt lat="39.733443" lon="-8.798643">
        <ele>50.5</ele>
        <time>1970-01-01T01:29:02.000Z</time>
      </trkpt>
      <trkpt lat="39.733437" lon="-8.79868">
        <ele>50.6</ele>
        <time>1970-01-01T01:29:03.000Z</time>
      </trkpt>
      <trkpt lat="39.73344" lon="-8.798726">
        <ele>50.8</ele>
        <time>1970-01-01T01:29:04.000Z</time>
      </trkpt>
      <trkpt lat="39.733442" lon="-8.798746">
        <ele>50.9</ele>
        <time>1970-01-01T01:29:05.000Z</time>
      </trkpt>
      <trkpt lat="39.733456" lon="-8.798788">
        <ele>51.1</ele>
        <time>1970-01-01T01:29:06.000Z</time>
      </trkpt>
      <trkpt lat="39.733469" lon="-8.798832">
        <ele>51.2</ele>
        <time>1970-01-01T01:29:07.000Z</time>
      </trkpt>
      <trkpt lat="39.733469" lon="-8.798881">
        <ele>51.4</ele>
        <time>1970-01-01T01:29:08.000Z</time>
      </trkpt>
      <trkpt lat="39.733466" lon="-8.798895">
        <ele>51.5</ele>
        <time>1970-01-01T01:29:09.000Z</time>
      </trkpt>
      <trkpt lat="39.733468" lon="-8.798904">
        <ele>51.5</ele>
        <time>1970-01-01T01:29:10.000Z</time>
      </trkpt>
      <trkpt lat="39.733461" lon="-8.798917">
        <ele>51.5</ele>
        <time>1970-01-01T01:29:11.000Z</time>
      </trkpt>
      <trkpt lat="39.733458" lon="-8.798938">
        <ele>51.6</ele>
        <time>1970-01-01T01:29:12.000Z</time>
      </trkpt>
      <trkpt lat="39.733475" lon="-8.798966">
        <ele>51.7</ele>
        <time>1970-01-01T01:29:13.000Z</time>
      </trkpt>
      <trkpt lat="39.73348" lon="-8.798977">
        <ele>51.7</ele>
        <time>1970-01-01T01:29:14.000Z</time>
      </trkpt>
      <trkpt lat="39.733499" lon="-8.799002">
        <ele>51.8</ele>
        <time>1970-01-01T01:29:15.000Z</time>
      </trkpt>
      <trkpt lat="39.733506" lon="-8.799003">
        <ele>51.8</ele>
        <time>1970-01-01T01:29:16.000Z</time>
      </trkpt>
      <trkpt lat="39.733513" lon="-8.799005">
        <ele>51.8</ele>
        <time>1970-01-01T01:29:17.000Z</time>
      </trkpt>
      <trkpt lat="39.733543" lon="-8.798992">
        <ele>51.9</ele>
        <time>1970-01-01T01:29:18.000Z</time>
      </trkpt>
      <trkpt lat="39.733553" lon="-8.798985">
        <ele>51.9</ele>
        <time>1970-01-01T01:29:19.000Z</time>
      </trkpt>
      <trkpt lat="39.733583" lon="-8.798984">
        <ele>51.9</ele>
        <time>1970-01-01T01:29:20.000Z</time>
      </trkpt>
      <trkpt lat="39.733592" lon="-8.798976">
        <ele>51.9</ele>
        <time>1970-01-01T01:29:21.000Z</time>
      </trkpt>
      <trkpt lat="39.733631" lon="-8.798976">
        <ele>51.9</ele>
        <time>1970-01-01T01:29:22.000Z</time>
      </trkpt>
      <trkpt lat="39.733645" lon="-8.798981">
        <ele>51.9</ele>
        <time>1970-01-01T01:29:23.000Z</time>
      </trkpt>
      <trkpt lat="39.733671" lon="-8.798997">
        <ele>52</ele>
        <time>1970-01-01T01:29:24.000Z</time>
      </trkpt>
      <trkpt lat="39.733698" lon="-8.799021">
        <ele>52</ele>
        <time>1970-01-01T01:29:25.000Z</time>
      </trkpt>
      <trkpt lat="39.733731" lon="-8.799033">
        <ele>51.9</ele>
        <time>1970-01-01T01:29:26.000Z</time>
      </trkpt>
      <trkpt lat="39.733761" lon="-8.799045">
        <ele>51.9</ele>
        <time>1970-01-01T01:29:27.000Z</time>
      </trkpt>
      <trkpt lat="39.733795" lon="-8.799055">
        <ele>51.9</ele>
        <time>1970-01-01T01:29:28.000Z</time>
      </trkpt>
      <trkpt lat="39.733822" lon="-8.799071">
        <ele>51.9</ele>
        <time>1970-01-01T01:29:29.000Z</time>
      </trkpt>
      <trkpt lat="39.733859" lon="-8.799069">
        <ele>51.9</ele>
        <time>1970-01-01T01:29:30.000Z</time>
      </trkpt>
      <trkpt lat="39.733897" lon="-8.799078">
        <ele>51.9</ele>
        <time>1970-01-01T01:29:31.000Z</time>
      </trkpt>
      <trkpt lat="39.733931" lon="-8.79908">
        <ele>51.8</ele>
        <time>1970-01-01T01:29:32.000Z</time>
      </trkpt>
      <trkpt lat="39.733964" lon="-8.799077">
        <ele>51.8</ele>
        <time>1970-01-01T01:29:33.000Z</time>
      </trkpt>
      <trkpt lat="39.734" lon="-8.79908">
        <ele>51.8</ele>
        <time>1970-01-01T01:29:34.000Z</time>
      </trkpt>
      <trkpt lat="39.734011" lon="-8.799076">
        <ele>51.8</ele>
        <time>1970-01-01T01:29:35.000Z</time>
      </trkpt>
      <trkpt lat="39.734052" lon="-8.79909">
        <ele>51.8</ele>
        <time>1970-01-01T01:29:36.000Z</time>
      </trkpt>
      <trkpt lat="39.734069" lon="-8.799089">
        <ele>51.7</ele>
        <time>1970-01-01T01:29:37.000Z</time>
      </trkpt>
      <trkpt lat="39.734103" lon="-8.79909">
        <ele>51.7</ele>
        <time>1970-01-01T01:29:38.000Z</time>
      </trkpt>
      <trkpt lat="39.734122" lon="-8.799088">
        <ele>51.7</ele>
        <time>1970-01-01T01:29:39.000Z</time>
      </trkpt>
      <trkpt lat="39.734138" lon="-8.799088">
        <ele>51.7</ele>
        <time>1970-01-01T01:29:40.000Z</time>
      </trkpt>
      <trkpt lat="39.734171" lon="-8.799085">
        <ele>51.7</ele>
        <time>1970-01-01T01:29:41.000Z</time>
      </trkpt>
      <trkpt lat="39.734182" lon="-8.799084">
        <ele>51.7</ele>
        <time>1970-01-01T01:29:42.000Z</time>
      </trkpt>
      <trkpt lat="39.73421" lon="-8.799065">
        <ele>51.7</ele>
        <time>1970-01-01T01:29:43.000Z</time>
      </trkpt>
      <trkpt lat="39.734217" lon="-8.799066">
        <ele>51.7</ele>
        <time>1970-01-01T01:29:44.000Z</time>
      </trkpt>
      <trkpt lat="39.734246" lon="-8.799065">
        <ele>51.6</ele>
        <time>1970-01-01T01:29:45.000Z</time>
      </trkpt>
      <trkpt lat="39.73426" lon="-8.799065">
        <ele>51.6</ele>
        <time>1970-01-01T01:29:46.000Z</time>
      </trkpt>
      <trkpt lat="39.734289" lon="-8.799098">
        <ele>51.6</ele>
        <time>1970-01-01T01:29:47.000Z</time>
      </trkpt>
      <trkpt lat="39.734299" lon="-8.79911">
        <ele>51.6</ele>
        <time>1970-01-01T01:29:48.000Z</time>
      </trkpt>
      <trkpt lat="39.734332" lon="-8.799118">
        <ele>51.6</ele>
        <time>1970-01-01T01:29:49.000Z</time>
      </trkpt>
      <trkpt lat="39.734345" lon="-8.799122">
        <ele>51.6</ele>
        <time>1970-01-01T01:29:50.000Z</time>
      </trkpt>
      <trkpt lat="39.734383" lon="-8.799135">
        <ele>51.6</ele>
        <time>1970-01-01T01:29:51.000Z</time>
      </trkpt>
      <trkpt lat="39.734418" lon="-8.799135">
        <ele>51.6</ele>
        <time>1970-01-01T01:29:52.000Z</time>
      </trkpt>
      <trkpt lat="39.734459" lon="-8.799137">
        <ele>51.5</ele>
        <time>1970-01-01T01:29:53.000Z</time>
      </trkpt>
      <trkpt lat="39.734491" lon="-8.799142">
        <ele>51.5</ele>
        <time>1970-01-01T01:29:54.000Z</time>
      </trkpt>
      <trkpt lat="39.734525" lon="-8.79915">
        <ele>51.5</ele>
        <time>1970-01-01T01:29:55.000Z</time>
      </trkpt>
      <trkpt lat="39.734565" lon="-8.799146">
        <ele>51.5</ele>
        <time>1970-01-01T01:29:56.000Z</time>
      </trkpt>
      <trkpt lat="39.734608" lon="-8.799139">
        <ele>51.5</ele>
        <time>1970-01-01T01:29:57.000Z</time>
      </trkpt>
      <trkpt lat="39.734656" lon="-8.799135">
        <ele>51.5</ele>
        <time>1970-01-01T01:29:58.000Z</time>
      </trkpt>
      <trkpt lat="39.7347" lon="-8.799138">
        <ele>51.5</ele>
        <time>1970-01-01T01:29:59.000Z</time>
      </trkpt>
      <trkpt lat="39.734736" lon="-8.799143">
        <ele>51.5</ele>
        <time>1970-01-01T01:30:00.000Z</time>
      </trkpt>
      <trkpt lat="39.734775" lon="-8.799153">
        <ele>51.5</ele>
        <time>1970-01-01T01:30:01.000Z</time>
      </trkpt>
      <trkpt lat="39.734816" lon="-8.799154">
        <ele>51.5</ele>
        <time>1970-01-01T01:30:02.000Z</time>
      </trkpt>
      <trkpt lat="39.734844" lon="-8.799147">
        <ele>51.5</ele>
        <time>1970-01-01T01:30:03.000Z</time>
      </trkpt>
      <trkpt lat="39.734879" lon="-8.799152">
        <ele>51.5</ele>
        <time>1970-01-01T01:30:04.000Z</time>
      </trkpt>
      <trkpt lat="39.734913" lon="-8.799153">
        <ele>51.5</ele>
        <time>1970-01-01T01:30:05.000Z</time>
      </trkpt>
      <trkpt lat="39.734954" lon="-8.799156">
        <ele>51.5</ele>
        <time>1970-01-01T01:30:06.000Z</time>
      </trkpt>
      <trkpt lat="39.734971" lon="-8.79915">
        <ele>51.5</ele>
        <time>1970-01-01T01:30:07.000Z</time>
      </trkpt>
      <trkpt lat="39.73499" lon="-8.799131">
        <ele>51.3</ele>
        <time>1970-01-01T01:30:08.000Z</time>
      </trkpt>
      <trkpt lat="39.734995" lon="-8.799123">
        <ele>51.3</ele>
        <time>1970-01-01T01:30:09.000Z</time>
      </trkpt>
      <trkpt lat="39.734994" lon="-8.799131">
        <ele>51.3</ele>
        <time>1970-01-01T01:30:10.000Z</time>
      </trkpt>
      <trkpt lat="39.734996" lon="-8.799137">
        <ele>51.3</ele>
        <time>1970-01-01T01:30:11.000Z</time>
      </trkpt>
      <trkpt lat="39.734997" lon="-8.799142">
        <ele>51.3</ele>
        <time>1970-01-01T01:30:12.000Z</time>
      </trkpt>
      <trkpt lat="39.734998" lon="-8.799148">
        <ele>51.6</ele>
        <time>1970-01-01T01:30:13.000Z</time>
      </trkpt>
      <trkpt lat="39.735" lon="-8.799153">
        <ele>51.6</ele>
        <time>1970-01-01T01:30:14.000Z</time>
      </trkpt>
      <trkpt lat="39.735001" lon="-8.799159">
        <ele>51.6</ele>
        <time>1970-01-01T01:30:16.000Z</time>
      </trkpt>
      <trkpt lat="39.735002" lon="-8.799164">
        <ele>51.6</ele>
        <time>1970-01-01T01:30:17.000Z</time>
      </trkpt>
      <trkpt lat="39.735004" lon="-8.79917">
        <ele>51.6</ele>
        <time>1970-01-01T01:30:18.000Z</time>
      </trkpt>
      <trkpt lat="39.735005" lon="-8.799175">
        <ele>51.6</ele>
        <time>1970-01-01T01:30:19.000Z</time>
      </trkpt>
      <trkpt lat="39.735006" lon="-8.799181">
        <ele>51.6</ele>
        <time>1970-01-01T01:30:27.000Z</time>
      </trkpt>
      <trkpt lat="39.735008" lon="-8.799186">
        <ele>51.5</ele>
        <time>1970-01-01T01:30:28.000Z</time>
      </trkpt>
      <trkpt lat="39.735009" lon="-8.799192">
        <ele>51.8</ele>
        <time>1970-01-01T01:30:29.000Z</time>
      </trkpt>
      <trkpt lat="39.73501" lon="-8.799197">
        <ele>51.8</ele>
        <time>1970-01-01T01:30:30.000Z</time>
      </trkpt>
      <trkpt lat="39.735012" lon="-8.799203">
        <ele>51.8</ele>
        <time>1970-01-01T01:30:31.000Z</time>
      </trkpt>
      <trkpt lat="39.735013" lon="-8.799208">
        <ele>51.8</ele>
        <time>1970-01-01T01:30:32.000Z</time>
      </trkpt>
      <trkpt lat="39.735012" lon="-8.79923">
        <ele>51.8</ele>
        <time>1970-01-01T01:30:33.000Z</time>
      </trkpt>
      <trkpt lat="39.735011" lon="-8.799243">
        <ele>52.1</ele>
        <time>1970-01-01T01:30:34.000Z</time>
      </trkpt>
      <trkpt lat="39.735032" lon="-8.799249">
        <ele>52.1</ele>
        <time>1970-01-01T01:30:35.000Z</time>
      </trkpt>
      <trkpt lat="39.73504" lon="-8.799253">
        <ele>52.1</ele>
        <time>1970-01-01T01:30:36.000Z</time>
      </trkpt>
      <trkpt lat="39.735048" lon="-8.799257">
        <ele>52.2</ele>
        <time>1970-01-01T01:30:37.000Z</time>
      </trkpt>
      <trkpt lat="39.735053" lon="-8.799251">
        <ele>52.2</ele>
        <time>1970-01-01T01:30:38.000Z</time>
      </trkpt>
      <trkpt lat="39.735064" lon="-8.799256">
        <ele>52.2</ele>
        <time>1970-01-01T01:30:39.000Z</time>
      </trkpt>
      <trkpt lat="39.735069" lon="-8.79926">
        <ele>52.2</ele>
        <time>1970-01-01T01:30:40.000Z</time>
      </trkpt>
      <trkpt lat="39.735073" lon="-8.799266">
        <ele>52.2</ele>
        <time>1970-01-01T01:30:41.000Z</time>
      </trkpt>
      <trkpt lat="39.735076" lon="-8.799272">
        <ele>52.2</ele>
        <time>1970-01-01T01:30:42.000Z</time>
      </trkpt>
      <trkpt lat="39.73508" lon="-8.79928">
        <ele>52.6</ele>
        <time>1970-01-01T01:30:43.000Z</time>
      </trkpt>
      <trkpt lat="39.73509" lon="-8.7993">
        <ele>52.6</ele>
        <time>1970-01-01T01:30:44.000Z</time>
      </trkpt>
      <trkpt lat="39.735088" lon="-8.799307">
        <ele>52.6</ele>
        <time>1970-01-01T01:30:45.000Z</time>
      </trkpt>
      <trkpt lat="39.735086" lon="-8.799324">
        <ele>52.8</ele>
        <time>1970-01-01T01:30:46.000Z</time>
      </trkpt>
      <trkpt lat="39.735086" lon="-8.799343">
        <ele>52.8</ele>
        <time>1970-01-01T01:30:47.000Z</time>
      </trkpt>
      <trkpt lat="39.73509" lon="-8.79936">
        <ele>52.8</ele>
        <time>1970-01-01T01:30:48.000Z</time>
      </trkpt>
      <trkpt lat="39.735098" lon="-8.799376">
        <ele>53.1</ele>
        <time>1970-01-01T01:30:49.000Z</time>
      </trkpt>
      <trkpt lat="39.735106" lon="-8.799401">
        <ele>53.1</ele>
        <time>1970-01-01T01:30:50.000Z</time>
      </trkpt>
      <trkpt lat="39.735108" lon="-8.799412">
        <ele>53.3</ele>
        <time>1970-01-01T01:30:51.000Z</time>
      </trkpt>
      <trkpt lat="39.735111" lon="-8.799423">
        <ele>53.3</ele>
        <time>1970-01-01T01:30:52.000Z</time>
      </trkpt>
      <trkpt lat="39.735112" lon="-8.799434">
        <ele>53.3</ele>
        <time>1970-01-01T01:30:53.000Z</time>
      </trkpt>
      <trkpt lat="39.735114" lon="-8.799445">
        <ele>53.4</ele>
        <time>1970-01-01T01:30:54.000Z</time>
      </trkpt>
      <trkpt lat="39.735115" lon="-8.799467">
        <ele>53.6</ele>
        <time>1970-01-01T01:30:55.000Z</time>
      </trkpt>
      <trkpt lat="39.735113" lon="-8.799467">
        <ele>53.6</ele>
        <time>1970-01-01T01:30:56.000Z</time>
      </trkpt>
      <trkpt lat="39.73511" lon="-8.799478">
        <ele>53.5</ele>
        <time>1970-01-01T01:30:57.000Z</time>
      </trkpt>
      <trkpt lat="39.735109" lon="-8.799487">
        <ele>53.5</ele>
        <time>1970-01-01T01:30:58.000Z</time>
      </trkpt>
      <trkpt lat="39.735104" lon="-8.799509">
        <ele>53.7</ele>
        <time>1970-01-01T01:30:59.000Z</time>
      </trkpt>
      <trkpt lat="39.735099" lon="-8.799549">
        <ele>53.9</ele>
        <time>1970-01-01T01:31:00.000Z</time>
      </trkpt>
      <trkpt lat="39.735098" lon="-8.799556">
        <ele>53.9</ele>
        <time>1970-01-01T01:31:01.000Z</time>
      </trkpt>
      <trkpt lat="39.735102" lon="-8.799567">
        <ele>53.9</ele>
        <time>1970-01-01T01:31:02.000Z</time>
      </trkpt>
      <trkpt lat="39.735107" lon="-8.799571">
        <ele>53.9</ele>
        <time>1970-01-01T01:31:03.000Z</time>
      </trkpt>
      <trkpt lat="39.735105" lon="-8.799588">
        <ele>54.1</ele>
        <time>1970-01-01T01:31:04.000Z</time>
      </trkpt>
      <trkpt lat="39.735101" lon="-8.799587">
        <ele>54.1</ele>
        <time>1970-01-01T01:31:05.000Z</time>
      </trkpt>
      <trkpt lat="39.735096" lon="-8.79959">
        <ele>54.1</ele>
        <time>1970-01-01T01:31:06.000Z</time>
      </trkpt>
      <trkpt lat="39.735098" lon="-8.799595">
        <ele>54.1</ele>
        <time>1970-01-01T01:31:07.000Z</time>
      </trkpt>
      <trkpt lat="39.735096" lon="-8.799614">
        <ele>54.1</ele>
        <time>1970-01-01T01:31:08.000Z</time>
      </trkpt>
      <trkpt lat="39.735095" lon="-8.799634">
        <ele>54.3</ele>
        <time>1970-01-01T01:31:09.000Z</time>
      </trkpt>
      <trkpt lat="39.735093" lon="-8.799654">
        <ele>54.3</ele>
        <time>1970-01-01T01:31:10.000Z</time>
      </trkpt>
      <trkpt lat="39.735092" lon="-8.799673">
        <ele>54.5</ele>
        <time>1970-01-01T01:31:11.000Z</time>
      </trkpt>
      <trkpt lat="39.73509" lon="-8.799693">
        <ele>54.5</ele>
        <time>1970-01-01T01:31:12.000Z</time>
      </trkpt>
      <trkpt lat="39.735089" lon="-8.799713">
        <ele>54.7</ele>
        <time>1970-01-01T01:31:13.000Z</time>
      </trkpt>
      <trkpt lat="39.735087" lon="-8.799733">
        <ele>54.7</ele>
        <time>1970-01-01T01:31:14.000Z</time>
      </trkpt>
      <trkpt lat="39.735085" lon="-8.799753">
        <ele>55</ele>
        <time>1970-01-01T01:31:15.000Z</time>
      </trkpt>
      <trkpt lat="39.735084" lon="-8.799773">
        <ele>55</ele>
        <time>1970-01-01T01:31:16.000Z</time>
      </trkpt>
      <trkpt lat="39.735082" lon="-8.799792">
        <ele>55.2</ele>
        <time>1970-01-01T01:32:46.000Z</time>
      </trkpt>
      <trkpt lat="39.735081" lon="-8.799812">
        <ele>55.2</ele>
        <time>1970-01-01T01:32:47.000Z</time>
      </trkpt>
      <trkpt lat="39.735079" lon="-8.799832">
        <ele>55.1</ele>
        <time>1970-01-01T01:32:48.000Z</time>
      </trkpt>
      <trkpt lat="39.735066" lon="-8.799792">
        <ele>55.1</ele>
        <time>1970-01-01T01:32:49.000Z</time>
      </trkpt>
      <trkpt lat="39.735052" lon="-8.799791">
        <ele>54.8</ele>
        <time>1970-01-01T01:32:50.000Z</time>
      </trkpt>
      <trkpt lat="39.735037" lon="-8.799791">
        <ele>54.7</ele>
        <time>1970-01-01T01:32:51.000Z</time>
      </trkpt>
      <trkpt lat="39.735025" lon="-8.799811">
        <ele>54.9</ele>
        <time>1970-01-01T01:32:52.000Z</time>
      </trkpt>
      <trkpt lat="39.735032" lon="-8.799829">
        <ele>54.9</ele>
        <time>1970-01-01T01:32:53.000Z</time>
      </trkpt>
      <trkpt lat="39.735039" lon="-8.799825">
        <ele>54.9</ele>
        <time>1970-01-01T01:32:54.000Z</time>
      </trkpt>
      <trkpt lat="39.735035" lon="-8.799807">
        <ele>54.9</ele>
        <time>1970-01-01T01:32:55.000Z</time>
      </trkpt>
      <trkpt lat="39.735032" lon="-8.799789">
        <ele>54.7</ele>
        <time>1970-01-01T01:32:56.000Z</time>
      </trkpt>
      <trkpt lat="39.735028" lon="-8.799771">
        <ele>54.7</ele>
        <time>1970-01-01T01:32:57.000Z</time>
      </trkpt>
      <trkpt lat="39.735024" lon="-8.799753">
        <ele>54.7</ele>
        <time>1970-01-01T01:32:58.000Z</time>
      </trkpt>
      <trkpt lat="39.73502" lon="-8.799735">
        <ele>54.4</ele>
        <time>1970-01-01T01:32:59.000Z</time>
      </trkpt>
      <trkpt lat="39.735016" lon="-8.799717">
        <ele>54.4</ele>
        <time>1970-01-01T01:33:00.000Z</time>
      </trkpt>
      <trkpt lat="39.735013" lon="-8.799698">
        <ele>54.1</ele>
        <time>1970-01-01T01:33:01.000Z</time>
      </trkpt>
      <trkpt lat="39.735009" lon="-8.79968">
        <ele>54.1</ele>
        <time>1970-01-01T01:33:02.000Z</time>
      </trkpt>
      <trkpt lat="39.735005" lon="-8.799662">
        <ele>53.8</ele>
        <time>1970-01-01T01:33:03.000Z</time>
      </trkpt>
      <trkpt lat="39.735001" lon="-8.799644">
        <ele>53.8</ele>
        <time>1970-01-01T01:33:04.000Z</time>
      </trkpt>
      <trkpt lat="39.734997" lon="-8.799626">
        <ele>53.8</ele>
        <time>1970-01-01T01:33:05.000Z</time>
      </trkpt>
      <trkpt lat="39.734994" lon="-8.799608">
        <ele>53.6</ele>
        <time>1970-01-01T01:33:27.000Z</time>
      </trkpt>
      <trkpt lat="39.73499" lon="-8.79959">
        <ele>53.6</ele>
        <time>1970-01-01T01:33:28.000Z</time>
      </trkpt>
      <trkpt lat="39.734986" lon="-8.799572">
        <ele>53.4</ele>
        <time>1970-01-01T01:33:29.000Z</time>
      </trkpt>
      <trkpt lat="39.734967" lon="-8.799535">
        <ele>53.2</ele>
        <time>1970-01-01T01:33:30.000Z</time>
      </trkpt>
      <trkpt lat="39.734946" lon="-8.799526">
        <ele>52.9</ele>
        <time>1970-01-01T01:33:31.000Z</time>
      </trkpt>
      <trkpt lat="39.734938" lon="-8.799521">
        <ele>52.9</ele>
        <time>1970-01-01T01:33:32.000Z</time>
      </trkpt>
      <trkpt lat="39.734931" lon="-8.799516">
        <ele>52.9</ele>
        <time>1970-01-01T01:33:33.000Z</time>
      </trkpt>
      <trkpt lat="39.734918" lon="-8.799484">
        <ele>52.8</ele>
        <time>1970-01-01T01:33:34.000Z</time>
      </trkpt>
      <trkpt lat="39.734934" lon="-8.799464">
        <ele>52.8</ele>
        <time>1970-01-01T01:33:35.000Z</time>
      </trkpt>
      <trkpt lat="39.734966" lon="-8.799468">
        <ele>52.9</ele>
        <time>1970-01-01T01:33:36.000Z</time>
      </trkpt>
      <trkpt lat="39.734997" lon="-8.799473">
        <ele>53</ele>
        <time>1970-01-01T01:34:12.000Z</time>
      </trkpt>
      <trkpt lat="39.735028" lon="-8.799477">
        <ele>53.1</ele>
        <time>1970-01-01T01:34:13.000Z</time>
      </trkpt>
      <trkpt lat="39.735056" lon="-8.799519">
        <ele>53.4</ele>
        <time>1970-01-01T01:34:14.000Z</time>
      </trkpt>
      <trkpt lat="39.735067" lon="-8.799534">
        <ele>53.6</ele>
        <time>1970-01-01T01:34:15.000Z</time>
      </trkpt>
      <trkpt lat="39.735059" lon="-8.799562">
        <ele>53.6</ele>
        <time>1970-01-01T01:34:16.000Z</time>
      </trkpt>
      <trkpt lat="39.735063" lon="-8.799579">
        <ele>53.8</ele>
        <time>1970-01-01T01:34:17.000Z</time>
      </trkpt>
      <trkpt lat="39.735073" lon="-8.79958">
        <ele>53.8</ele>
        <time>1970-01-01T01:34:18.000Z</time>
      </trkpt>
      <trkpt lat="39.735072" lon="-8.799581">
        <ele>53.8</ele>
        <time>1970-01-01T01:34:19.000Z</time>
      </trkpt>
      <trkpt lat="39.735075" lon="-8.799581">
        <ele>53.8</ele>
        <time>1970-01-01T01:34:20.000Z</time>
      </trkpt>
      <trkpt lat="39.735082" lon="-8.799575">
        <ele>53.7</ele>
        <time>1970-01-01T01:34:21.000Z</time>
      </trkpt>
      <trkpt lat="39.735086" lon="-8.799566">
        <ele>53.7</ele>
        <time>1970-01-01T01:34:22.000Z</time>
      </trkpt>
      <trkpt lat="39.735102" lon="-8.79957">
        <ele>53.7</ele>
        <time>1970-01-01T01:34:23.000Z</time>
      </trkpt>
      <trkpt lat="39.735306" lon="-8.799778">
        <ele>55.7</ele>
        <time>1970-01-01T01:35:01.000Z</time>
      </trkpt>
      <trkpt lat="39.735303" lon="-8.799771">
        <ele>55.7</ele>
        <time>1970-01-01T01:35:02.000Z</time>
      </trkpt>
      <trkpt lat="39.735287" lon="-8.799769">
        <ele>55.7</ele>
        <time>1970-01-01T01:35:03.000Z</time>
      </trkpt>
      <trkpt lat="39.735281" lon="-8.799788">
        <ele>55.7</ele>
        <time>1970-01-01T01:35:04.000Z</time>
      </trkpt>
      <trkpt lat="39.735276" lon="-8.799789">
        <ele>55.5</ele>
        <time>1970-01-01T01:35:05.000Z</time>
      </trkpt>
      <trkpt lat="39.735264" lon="-8.799797">
        <ele>55.7</ele>
        <time>1970-01-01T01:35:06.000Z</time>
      </trkpt>
      <trkpt lat="39.735255" lon="-8.799805">
        <ele>55.7</ele>
        <time>1970-01-01T01:35:07.000Z</time>
      </trkpt>
      <trkpt lat="39.735252" lon="-8.799805">
        <ele>55.7</ele>
        <time>1970-01-01T01:35:08.000Z</time>
      </trkpt>
      <trkpt lat="39.735265" lon="-8.799784">
        <ele>55.5</ele>
        <time>1970-01-01T01:35:09.000Z</time>
      </trkpt>
      <trkpt lat="39.735257" lon="-8.799787">
        <ele>55.5</ele>
        <time>1970-01-01T01:35:10.000Z</time>
      </trkpt>
      <trkpt lat="39.735233" lon="-8.799775">
        <ele>55.3</ele>
        <time>1970-01-01T01:35:18.000Z</time>
      </trkpt>
      <trkpt lat="39.735224" lon="-8.799753">
        <ele>55.3</ele>
        <time>1970-01-01T01:35:19.000Z</time>
      </trkpt>
      <trkpt lat="39.735219" lon="-8.799741">
        <ele>55.1</ele>
        <time>1970-01-01T01:35:20.000Z</time>
      </trkpt>
      <trkpt lat="39.735213" lon="-8.799728">
        <ele>55.1</ele>
        <time>1970-01-01T01:35:21.000Z</time>
      </trkpt>
      <trkpt lat="39.735207" lon="-8.799716">
        <ele>54.9</ele>
        <time>1970-01-01T01:35:22.000Z</time>
      </trkpt>
      <trkpt lat="39.735171" lon="-8.799724">
        <ele>54.8</ele>
        <time>1970-01-01T01:35:23.000Z</time>
      </trkpt>
      <trkpt lat="39.735186" lon="-8.799707">
        <ele>54.9</ele>
        <time>1970-01-01T01:35:24.000Z</time>
      </trkpt>
      <trkpt lat="39.735208" lon="-8.799683">
        <ele>54.7</ele>
        <time>1970-01-01T01:35:25.000Z</time>
      </trkpt>
      <trkpt lat="39.735202" lon="-8.799683">
        <ele>54.7</ele>
        <time>1970-01-01T01:35:26.000Z</time>
      </trkpt>
      <trkpt lat="39.735194" lon="-8.799683">
        <ele>54.7</ele>
        <time>1970-01-01T01:35:27.000Z</time>
      </trkpt>
      <trkpt lat="39.735189" lon="-8.799681">
        <ele>54.7</ele>
        <time>1970-01-01T01:35:28.000Z</time>
      </trkpt>
      <trkpt lat="39.735176" lon="-8.79968">
        <ele>54.6</ele>
        <time>1970-01-01T01:35:29.000Z</time>
      </trkpt>
      <trkpt lat="39.73516" lon="-8.799687">
        <ele>54.6</ele>
        <time>1970-01-01T01:35:30.000Z</time>
      </trkpt>
      <trkpt lat="39.735177" lon="-8.799687">
        <ele>54.6</ele>
        <time>1970-01-01T01:35:31.000Z</time>
      </trkpt>
      <trkpt lat="39.735196" lon="-8.799657">
        <ele>54.5</ele>
        <time>1970-01-01T01:35:32.000Z</time>
      </trkpt>
      <trkpt lat="39.735242" lon="-8.799572">
        <ele>54.2</ele>
        <time>1970-01-01T01:35:36.000Z</time>
      </trkpt>
      <trkpt lat="39.735242" lon="-8.799546">
        <ele>54.2</ele>
        <time>1970-01-01T01:35:37.000Z</time>
      </trkpt>
      <trkpt lat="39.735241" lon="-8.799517">
        <ele>54</ele>
        <time>1970-01-01T01:35:38.000Z</time>
      </trkpt>
      <trkpt lat="39.735214" lon="-8.799537">
        <ele>54.2</ele>
        <time>1970-01-01T01:35:39.000Z</time>
      </trkpt>
      <trkpt lat="39.735192" lon="-8.799584">
        <ele>54.2</ele>
        <time>1970-01-01T01:35:40.000Z</time>
      </trkpt>
      <trkpt lat="39.735182" lon="-8.799576">
        <ele>54</ele>
        <time>1970-01-01T01:35:41.000Z</time>
      </trkpt>
      <trkpt lat="39.73519" lon="-8.799577">
        <ele>54.2</ele>
        <time>1970-01-01T01:35:42.000Z</time>
      </trkpt>
      <trkpt lat="39.735215" lon="-8.79955">
        <ele>54.2</ele>
        <time>1970-01-01T01:35:43.000Z</time>
      </trkpt>
      <trkpt lat="39.735247" lon="-8.799534">
        <ele>54.3</ele>
        <time>1970-01-01T01:35:44.000Z</time>
      </trkpt>
      <trkpt lat="39.735259" lon="-8.799591">
        <ele>54.5</ele>
        <time>1970-01-01T01:35:45.000Z</time>
      </trkpt>
      <trkpt lat="39.735245" lon="-8.799632">
        <ele>54.7</ele>
        <time>1970-01-01T01:35:46.000Z</time>
      </trkpt>
      <trkpt lat="39.735238" lon="-8.799666">
        <ele>54.8</ele>
        <time>1970-01-01T01:35:47.000Z</time>
      </trkpt>
      <trkpt lat="39.735239" lon="-8.79969">
        <ele>54.8</ele>
        <time>1970-01-01T01:35:48.000Z</time>
      </trkpt>
      <trkpt lat="39.735244" lon="-8.799712">
        <ele>55</ele>
        <time>1970-01-01T01:35:49.000Z</time>
      </trkpt>
      <trkpt lat="39.735248" lon="-8.799712">
        <ele>55.2</ele>
        <time>1970-01-01T01:35:50.000Z</time>
      </trkpt>
      <trkpt lat="39.735249" lon="-8.799723">
        <ele>55.2</ele>
        <time>1970-01-01T01:35:51.000Z</time>
      </trkpt>
      <trkpt lat="39.735249" lon="-8.799734">
        <ele>55.2</ele>
        <time>1970-01-01T01:35:52.000Z</time>
      </trkpt>
      <trkpt lat="39.73525" lon="-8.799745">
        <ele>55.2</ele>
        <time>1970-01-01T01:35:53.000Z</time>
      </trkpt>
      <trkpt lat="39.735251" lon="-8.799756">
        <ele>55.4</ele>
        <time>1970-01-01T01:35:54.000Z</time>
      </trkpt>
      <trkpt lat="39.735252" lon="-8.799767">
        <ele>55.4</ele>
        <time>1970-01-01T01:35:55.000Z</time>
      </trkpt>
      <trkpt lat="39.735253" lon="-8.799778">
        <ele>55.4</ele>
        <time>1970-01-01T01:43:59.000Z</time>
      </trkpt>
      <trkpt lat="39.735253" lon="-8.79979">
        <ele>55.4</ele>
        <time>1970-01-01T01:44:00.000Z</time>
      </trkpt>
      <trkpt lat="39.735254" lon="-8.799801">
        <ele>55.6</ele>
        <time>1970-01-01T01:44:01.000Z</time>
      </trkpt>
      <trkpt lat="39.735255" lon="-8.799812">
        <ele>55.6</ele>
        <time>1970-01-01T01:44:02.000Z</time>
      </trkpt>
      <trkpt lat="39.735256" lon="-8.799823">
        <ele>55.6</ele>
        <time>1970-01-01T01:44:03.000Z</time>
      </trkpt>
      <trkpt lat="39.735256" lon="-8.799834">
        <ele>55.6</ele>
        <time>1970-01-01T01:44:04.000Z</time>
      </trkpt>
      <trkpt lat="39.735257" lon="-8.799845">
        <ele>55.8</ele>
        <time>1970-01-01T01:44:05.000Z</time>
      </trkpt>
      <trkpt lat="39.735258" lon="-8.799856">
        <ele>55.8</ele>
        <time>1970-01-01T01:44:06.000Z</time>
      </trkpt>
      <trkpt lat="39.735219" lon="-8.799871">
        <ele>55.6</ele>
        <time>1970-01-01T01:44:07.000Z</time>
      </trkpt>
      <trkpt lat="39.735204" lon="-8.799881">
        <ele>55.7</ele>
        <time>1970-01-01T01:44:08.000Z</time>
      </trkpt>
      <trkpt lat="39.735188" lon="-8.799892">
        <ele>55.7</ele>
        <time>1970-01-01T01:44:26.000Z</time>
      </trkpt>
      <trkpt lat="39.735173" lon="-8.799902">
        <ele>55.6</ele>
        <time>1970-01-01T01:44:27.000Z</time>
      </trkpt>
      <trkpt lat="39.735158" lon="-8.799913">
        <ele>55.6</ele>
        <time>1970-01-01T01:44:28.000Z</time>
      </trkpt>
      <trkpt lat="39.735161" lon="-8.79989">
        <ele>55.6</ele>
        <time>1970-01-01T01:44:29.000Z</time>
      </trkpt>
      <trkpt lat="39.735168" lon="-8.799868">
        <ele>55.3</ele>
        <time>1970-01-01T01:44:30.000Z</time>
      </trkpt>
      <trkpt lat="39.735173" lon="-8.799829">
        <ele>55.1</ele>
        <time>1970-01-01T01:44:31.000Z</time>
      </trkpt>
      <trkpt lat="39.735171" lon="-8.799814">
        <ele>55.1</ele>
        <time>1970-01-01T01:44:32.000Z</time>
      </trkpt>
      <trkpt lat="39.735162" lon="-8.799797">
        <ele>55.1</ele>
        <time>1970-01-01T01:44:33.000Z</time>
      </trkpt>
      <trkpt lat="39.735152" lon="-8.799784">
        <ele>54.9</ele>
        <time>1970-01-01T01:44:34.000Z</time>
      </trkpt>
      <trkpt lat="39.735141" lon="-8.799764">
        <ele>54.7</ele>
        <time>1970-01-01T01:44:35.000Z</time>
      </trkpt>
      <trkpt lat="39.735136" lon="-8.799749">
        <ele>54.7</ele>
        <time>1970-01-01T01:44:36.000Z</time>
      </trkpt>
      <trkpt lat="39.735131" lon="-8.799735">
        <ele>54.5</ele>
        <time>1970-01-01T01:44:37.000Z</time>
      </trkpt>
      <trkpt lat="39.735122" lon="-8.799716">
        <ele>54.5</ele>
        <time>1970-01-01T01:44:38.000Z</time>
      </trkpt>
      <trkpt lat="39.735116" lon="-8.799697">
        <ele>54.3</ele>
        <time>1970-01-01T01:44:39.000Z</time>
      </trkpt>
      <trkpt lat="39.735112" lon="-8.799679">
        <ele>54.1</ele>
        <time>1970-01-01T01:44:40.000Z</time>
      </trkpt>
      <trkpt lat="39.735107" lon="-8.799666">
        <ele>54.1</ele>
        <time>1970-01-01T01:44:41.000Z</time>
      </trkpt>
      <trkpt lat="39.735103" lon="-8.799653">
        <ele>53.9</ele>
        <time>1970-01-01T01:44:42.000Z</time>
      </trkpt>
      <trkpt lat="39.735095" lon="-8.799641">
        <ele>53.9</ele>
        <time>1970-01-01T01:44:43.000Z</time>
      </trkpt>
      <trkpt lat="39.735091" lon="-8.79963">
        <ele>53.9</ele>
        <time>1970-01-01T01:44:44.000Z</time>
      </trkpt>
      <trkpt lat="39.735089" lon="-8.799618">
        <ele>53.7</ele>
        <time>1970-01-01T01:44:45.000Z</time>
      </trkpt>
      <trkpt lat="39.735082" lon="-8.799588">
        <ele>53.7</ele>
        <time>1970-01-01T01:44:46.000Z</time>
      </trkpt>
      <trkpt lat="39.735077" lon="-8.799579">
        <ele>53.5</ele>
        <time>1970-01-01T01:44:47.000Z</time>
      </trkpt>
      <trkpt lat="39.735073" lon="-8.799571">
        <ele>53.3</ele>
        <time>1970-01-01T01:44:48.000Z</time>
      </trkpt>
      <trkpt lat="39.735069" lon="-8.799561">
        <ele>53.3</ele>
        <time>1970-01-01T01:44:49.000Z</time>
      </trkpt>
      <trkpt lat="39.735066" lon="-8.799546">
        <ele>53.3</ele>
        <time>1970-01-01T01:44:50.000Z</time>
      </trkpt>
      <trkpt lat="39.735057" lon="-8.799533">
        <ele>53.1</ele>
        <time>1970-01-01T01:44:51.000Z</time>
      </trkpt>
      <trkpt lat="39.735044" lon="-8.799519">
        <ele>53</ele>
        <time>1970-01-01T01:44:52.000Z</time>
      </trkpt>
      <trkpt lat="39.735036" lon="-8.799512">
        <ele>53</ele>
        <time>1970-01-01T01:44:53.000Z</time>
      </trkpt>
      <trkpt lat="39.735029" lon="-8.799505">
        <ele>53</ele>
        <time>1970-01-01T01:44:54.000Z</time>
      </trkpt>
      <trkpt lat="39.735021" lon="-8.799498">
        <ele>53</ele>
        <time>1970-01-01T01:44:55.000Z</time>
      </trkpt>
      <trkpt lat="39.735008" lon="-8.799477">
        <ele>52.7</ele>
        <time>1970-01-01T01:44:57.000Z</time>
      </trkpt>
      <trkpt lat="39.735" lon="-8.799467">
        <ele>52.7</ele>
        <time>1970-01-01T01:44:58.000Z</time>
      </trkpt>
      <trkpt lat="39.734991" lon="-8.799458">
        <ele>52.7</ele>
        <time>1970-01-01T01:44:59.000Z</time>
      </trkpt>
      <trkpt lat="39.734974" lon="-8.799447">
        <ele>52.4</ele>
        <time>1970-01-01T01:45:00.000Z</time>
      </trkpt>
      <trkpt lat="39.734968" lon="-8.799448">
        <ele>52.4</ele>
        <time>1970-01-01T01:45:01.000Z</time>
      </trkpt>
      <trkpt lat="39.734959" lon="-8.799437">
        <ele>52.4</ele>
        <time>1970-01-01T01:45:02.000Z</time>
      </trkpt>
      <trkpt lat="39.734948" lon="-8.799419">
        <ele>52.4</ele>
        <time>1970-01-01T01:45:03.000Z</time>
      </trkpt>
      <trkpt lat="39.734943" lon="-8.799403">
        <ele>52.1</ele>
        <time>1970-01-01T01:45:04.000Z</time>
      </trkpt>
      <trkpt lat="39.73494" lon="-8.799389">
        <ele>52.1</ele>
        <time>1970-01-01T01:45:05.000Z</time>
      </trkpt>
      <trkpt lat="39.734939" lon="-8.799371">
        <ele>52.1</ele>
        <time>1970-01-01T01:45:06.000Z</time>
      </trkpt>
      <trkpt lat="39.734941" lon="-8.799363">
        <ele>52.1</ele>
        <time>1970-01-01T01:45:07.000Z</time>
      </trkpt>
      <trkpt lat="39.73494" lon="-8.799361">
        <ele>51.9</ele>
        <time>1970-01-01T01:45:08.000Z</time>
      </trkpt>
      <trkpt lat="39.734936" lon="-8.799342">
        <ele>51.9</ele>
        <time>1970-01-01T01:45:09.000Z</time>
      </trkpt>
      <trkpt lat="39.734935" lon="-8.79933">
        <ele>51.9</ele>
        <time>1970-01-01T01:45:10.000Z</time>
      </trkpt>
      <trkpt lat="39.73493" lon="-8.79932">
        <ele>51.9</ele>
        <time>1970-01-01T01:45:11.000Z</time>
      </trkpt>
      <trkpt lat="39.734926" lon="-8.799322">
        <ele>51.9</ele>
        <time>1970-01-01T01:45:12.000Z</time>
      </trkpt>
      <trkpt lat="39.734923" lon="-8.799322">
        <ele>51.9</ele>
        <time>1970-01-01T01:45:13.000Z</time>
      </trkpt>
      <trkpt lat="39.734918" lon="-8.799305">
        <ele>51.6</ele>
        <time>1970-01-01T01:45:14.000Z</time>
      </trkpt>
      <trkpt lat="39.734912" lon="-8.799305">
        <ele>51.6</ele>
        <time>1970-01-01T01:45:15.000Z</time>
      </trkpt>
      <trkpt lat="39.734901" lon="-8.799301">
        <ele>51.6</ele>
        <time>1970-01-01T01:45:16.000Z</time>
      </trkpt>
      <trkpt lat="39.734898" lon="-8.799299">
        <ele>51.6</ele>
        <time>1970-01-01T01:45:17.000Z</time>
      </trkpt>
      <trkpt lat="39.734896" lon="-8.799295">
        <ele>51.6</ele>
        <time>1970-01-01T01:45:18.000Z</time>
      </trkpt>
      <trkpt lat="39.734881" lon="-8.799286">
        <ele>51.5</ele>
        <time>1970-01-01T01:45:19.000Z</time>
      </trkpt>
      <trkpt lat="39.734888" lon="-8.799299">
        <ele>51.5</ele>
        <time>1970-01-01T01:45:20.000Z</time>
      </trkpt>
      <trkpt lat="39.734885" lon="-8.7993">
        <ele>51.5</ele>
        <time>1970-01-01T01:45:21.000Z</time>
      </trkpt>
      <trkpt lat="39.734874" lon="-8.799293">
        <ele>51.5</ele>
        <time>1970-01-01T01:45:22.000Z</time>
      </trkpt>
      <trkpt lat="39.734864" lon="-8.799282">
        <ele>51.5</ele>
        <time>1970-01-01T01:45:23.000Z</time>
      </trkpt>
      <trkpt lat="39.734858" lon="-8.799281">
        <ele>51.5</ele>
        <time>1970-01-01T01:45:24.000Z</time>
      </trkpt>
      <trkpt lat="39.734854" lon="-8.799271">
        <ele>51.5</ele>
        <time>1970-01-01T01:45:25.000Z</time>
      </trkpt>
      <trkpt lat="39.734853" lon="-8.799265">
        <ele>51.5</ele>
        <time>1970-01-01T01:45:26.000Z</time>
      </trkpt>
      <trkpt lat="39.734837" lon="-8.799239">
        <ele>51.5</ele>
        <time>1970-01-01T01:45:27.000Z</time>
      </trkpt>
      <trkpt lat="39.734832" lon="-8.799229">
        <ele>51.5</ele>
        <time>1970-01-01T01:45:28.000Z</time>
      </trkpt>
      <trkpt lat="39.734822" lon="-8.799212">
        <ele>51.5</ele>
        <time>1970-01-01T01:45:29.000Z</time>
      </trkpt>
      <trkpt lat="39.734814" lon="-8.799208">
        <ele>51.5</ele>
        <time>1970-01-01T01:45:30.000Z</time>
      </trkpt>
      <trkpt lat="39.734811" lon="-8.799214">
        <ele>51.5</ele>
        <time>1970-01-01T01:45:31.000Z</time>
      </trkpt>
      <trkpt lat="39.734805" lon="-8.799216">
        <ele>51.5</ele>
        <time>1970-01-01T01:45:32.000Z</time>
      </trkpt>
      <trkpt lat="39.734795" lon="-8.799223">
        <ele>51.5</ele>
        <time>1970-01-01T01:45:33.000Z</time>
      </trkpt>
      <trkpt lat="39.734798" lon="-8.799218">
        <ele>51.5</ele>
        <time>1970-01-01T01:45:34.000Z</time>
      </trkpt>
      <trkpt lat="39.73479" lon="-8.799224">
        <ele>51.5</ele>
        <time>1970-01-01T01:45:35.000Z</time>
      </trkpt>
      <trkpt lat="39.734783" lon="-8.799227">
        <ele>51.5</ele>
        <time>1970-01-01T01:45:36.000Z</time>
      </trkpt>
      <trkpt lat="39.734771" lon="-8.799229">
        <ele>51.5</ele>
        <time>1970-01-01T01:45:37.000Z</time>
      </trkpt>
      <trkpt lat="39.734761" lon="-8.799236">
        <ele>51.5</ele>
        <time>1970-01-01T01:45:38.000Z</time>
      </trkpt>
      <trkpt lat="39.734741" lon="-8.799237">
        <ele>51.5</ele>
        <time>1970-01-01T01:45:39.000Z</time>
      </trkpt>
      <trkpt lat="39.734727" lon="-8.799252">
        <ele>51.5</ele>
        <time>1970-01-01T01:45:40.000Z</time>
      </trkpt>
      <trkpt lat="39.73472" lon="-8.799256">
        <ele>51.5</ele>
        <time>1970-01-01T01:45:41.000Z</time>
      </trkpt>
      <trkpt lat="39.734713" lon="-8.79926">
        <ele>51.5</ele>
        <time>1970-01-01T01:45:42.000Z</time>
      </trkpt>
      <trkpt lat="39.734706" lon="-8.799264">
        <ele>51.5</ele>
        <time>1970-01-01T01:45:43.000Z</time>
      </trkpt>
      <trkpt lat="39.734686" lon="-8.799271">
        <ele>51.5</ele>
        <time>1970-01-01T01:45:44.000Z</time>
      </trkpt>
      <trkpt lat="39.734678" lon="-8.799272">
        <ele>51.5</ele>
        <time>1970-01-01T01:45:45.000Z</time>
      </trkpt>
      <trkpt lat="39.734669" lon="-8.799274">
        <ele>51.5</ele>
        <time>1970-01-01T01:45:46.000Z</time>
      </trkpt>
      <trkpt lat="39.734657" lon="-8.799274">
        <ele>51.5</ele>
        <time>1970-01-01T01:45:47.000Z</time>
      </trkpt>
      <trkpt lat="39.73464" lon="-8.799281">
        <ele>51.5</ele>
        <time>1970-01-01T01:45:48.000Z</time>
      </trkpt>
      <trkpt lat="39.734633" lon="-8.799286">
        <ele>51.5</ele>
        <time>1970-01-01T01:45:49.000Z</time>
      </trkpt>
      <trkpt lat="39.734617" lon="-8.799294">
        <ele>51.5</ele>
        <time>1970-01-01T01:45:50.000Z</time>
      </trkpt>
      <trkpt lat="39.734606" lon="-8.799295">
        <ele>51.5</ele>
        <time>1970-01-01T01:45:51.000Z</time>
      </trkpt>
      <trkpt lat="39.734593" lon="-8.799291">
        <ele>51.5</ele>
        <time>1970-01-01T01:45:52.000Z</time>
      </trkpt>
      <trkpt lat="39.734578" lon="-8.799293">
        <ele>51.5</ele>
        <time>1970-01-01T01:45:53.000Z</time>
      </trkpt>
      <trkpt lat="39.734566" lon="-8.799293">
        <ele>51.5</ele>
        <time>1970-01-01T01:45:54.000Z</time>
      </trkpt>
      <trkpt lat="39.734557" lon="-8.799291">
        <ele>51.5</ele>
        <time>1970-01-01T01:45:55.000Z</time>
      </trkpt>
      <trkpt lat="39.734542" lon="-8.799292">
        <ele>51.5</ele>
        <time>1970-01-01T01:45:56.000Z</time>
      </trkpt>
      <trkpt lat="39.734534" lon="-8.799299">
        <ele>51.5</ele>
        <time>1970-01-01T01:45:57.000Z</time>
      </trkpt>
      <trkpt lat="39.734526" lon="-8.799297">
        <ele>51.5</ele>
        <time>1970-01-01T01:45:58.000Z</time>
      </trkpt>
      <trkpt lat="39.734513" lon="-8.799299">
        <ele>51.5</ele>
        <time>1970-01-01T01:45:59.000Z</time>
      </trkpt>
      <trkpt lat="39.734498" lon="-8.7993">
        <ele>51.5</ele>
        <time>1970-01-01T01:46:00.000Z</time>
      </trkpt>
      <trkpt lat="39.734489" lon="-8.799299">
        <ele>51.5</ele>
        <time>1970-01-01T01:46:01.000Z</time>
      </trkpt>
      <trkpt lat="39.734486" lon="-8.799299">
        <ele>51.5</ele>
        <time>1970-01-01T01:46:02.000Z</time>
      </trkpt>
      <trkpt lat="39.734471" lon="-8.799301">
        <ele>51.5</ele>
        <time>1970-01-01T01:46:03.000Z</time>
      </trkpt>
      <trkpt lat="39.734462" lon="-8.799299">
        <ele>51.5</ele>
        <time>1970-01-01T01:46:04.000Z</time>
      </trkpt>
      <trkpt lat="39.734452" lon="-8.799296">
        <ele>51.5</ele>
        <time>1970-01-01T01:46:05.000Z</time>
      </trkpt>
      <trkpt lat="39.734443" lon="-8.799294">
        <ele>51.5</ele>
        <time>1970-01-01T01:46:06.000Z</time>
      </trkpt>
      <trkpt lat="39.734427" lon="-8.799297">
        <ele>51.6</ele>
        <time>1970-01-01T01:46:07.000Z</time>
      </trkpt>
      <trkpt lat="39.73442" lon="-8.799301">
        <ele>51.6</ele>
        <time>1970-01-01T01:46:08.000Z</time>
      </trkpt>
      <trkpt lat="39.73441" lon="-8.799303">
        <ele>51.6</ele>
        <time>1970-01-01T01:46:09.000Z</time>
      </trkpt>
      <trkpt lat="39.734392" lon="-8.799313">
        <ele>51.6</ele>
        <time>1970-01-01T01:46:10.000Z</time>
      </trkpt>
      <trkpt lat="39.734378" lon="-8.799318">
        <ele>51.6</ele>
        <time>1970-01-01T01:46:11.000Z</time>
      </trkpt>
      <trkpt lat="39.734356" lon="-8.799307">
        <ele>51.6</ele>
        <time>1970-01-01T01:46:12.000Z</time>
      </trkpt>
      <trkpt lat="39.734349" lon="-8.799301">
        <ele>51.6</ele>
        <time>1970-01-01T01:46:13.000Z</time>
      </trkpt>
      <trkpt lat="39.734342" lon="-8.799294">
        <ele>51.6</ele>
        <time>1970-01-01T01:46:14.000Z</time>
      </trkpt>
      <trkpt lat="39.734319" lon="-8.799282">
        <ele>51.6</ele>
        <time>1970-01-01T01:46:15.000Z</time>
      </trkpt>
      <trkpt lat="39.734309" lon="-8.799279">
        <ele>51.6</ele>
        <time>1970-01-01T01:46:16.000Z</time>
      </trkpt>
      <trkpt lat="39.7343" lon="-8.799277">
        <ele>51.6</ele>
        <time>1970-01-01T01:46:17.000Z</time>
      </trkpt>
      <trkpt lat="39.734292" lon="-8.799254">
        <ele>51.6</ele>
        <time>1970-01-01T01:46:18.000Z</time>
      </trkpt>
      <trkpt lat="39.734291" lon="-8.79924">
        <ele>51.6</ele>
        <time>1970-01-01T01:46:19.000Z</time>
      </trkpt>
      <trkpt lat="39.73429" lon="-8.799226">
        <ele>51.6</ele>
        <time>1970-01-01T01:46:20.000Z</time>
      </trkpt>
      <trkpt lat="39.734291" lon="-8.799207">
        <ele>51.5</ele>
        <time>1970-01-01T01:46:21.000Z</time>
      </trkpt>
      <trkpt lat="39.734295" lon="-8.799181">
        <ele>51.5</ele>
        <time>1970-01-01T01:46:22.000Z</time>
      </trkpt>
      <trkpt lat="39.73429" lon="-8.799161">
        <ele>51.4</ele>
        <time>1970-01-01T01:46:23.000Z</time>
      </trkpt>
      <trkpt lat="39.734285" lon="-8.799139">
        <ele>51.3</ele>
        <time>1970-01-01T01:46:24.000Z</time>
      </trkpt>
      <trkpt lat="39.734283" lon="-8.799116">
        <ele>51.3</ele>
        <time>1970-01-01T01:46:25.000Z</time>
      </trkpt>
      <trkpt lat="39.734278" lon="-8.799102">
        <ele>51.2</ele>
        <time>1970-01-01T01:46:26.000Z</time>
      </trkpt>
      <trkpt lat="39.734281" lon="-8.799058">
        <ele>51.1</ele>
        <time>1970-01-01T01:46:27.000Z</time>
      </trkpt>
      <trkpt lat="39.734281" lon="-8.799044">
        <ele>51.1</ele>
        <time>1970-01-01T01:46:28.000Z</time>
      </trkpt>
      <trkpt lat="39.734281" lon="-8.79902">
        <ele>51</ele>
        <time>1970-01-01T01:46:29.000Z</time>
      </trkpt>
      <trkpt lat="39.734277" lon="-8.798999">
        <ele>50.9</ele>
        <time>1970-01-01T01:46:30.000Z</time>
      </trkpt>
      <trkpt lat="39.734275" lon="-8.798971">
        <ele>50.9</ele>
        <time>1970-01-01T01:46:31.000Z</time>
      </trkpt>
      <trkpt lat="39.734275" lon="-8.798959">
        <ele>50.8</ele>
        <time>1970-01-01T01:46:32.000Z</time>
      </trkpt>
      <trkpt lat="39.734275" lon="-8.798948">
        <ele>50.8</ele>
        <time>1970-01-01T01:46:33.000Z</time>
      </trkpt>
      <trkpt lat="39.734263" lon="-8.798915">
        <ele>50.7</ele>
        <time>1970-01-01T01:46:34.000Z</time>
      </trkpt>
      <trkpt lat="39.734257" lon="-8.798904">
        <ele>50.7</ele>
        <time>1970-01-01T01:46:35.000Z</time>
      </trkpt>
      <trkpt lat="39.734257" lon="-8.798885">
        <ele>50.6</ele>
        <time>1970-01-01T01:46:36.000Z</time>
      </trkpt>
      <trkpt lat="39.734239" lon="-8.798876">
        <ele>50.3</ele>
        <time>1970-01-01T01:46:37.000Z</time>
      </trkpt>
      <trkpt lat="39.734231" lon="-8.798867">
        <ele>50.3</ele>
        <time>1970-01-01T01:46:38.000Z</time>
      </trkpt>
      <trkpt lat="39.734221" lon="-8.798858">
        <ele>50.3</ele>
        <time>1970-01-01T01:46:39.000Z</time>
      </trkpt>
      <trkpt lat="39.734211" lon="-8.798849">
        <ele>50.3</ele>
        <time>1970-01-01T01:46:40.000Z</time>
      </trkpt>
      <trkpt lat="39.734211" lon="-8.798851">
        <ele>50.2</ele>
        <time>1970-01-01T01:46:41.000Z</time>
      </trkpt>
      <trkpt lat="39.734204" lon="-8.798847">
        <ele>50.2</ele>
        <time>1970-01-01T01:46:42.000Z</time>
      </trkpt>
      <trkpt lat="39.734195" lon="-8.798844">
        <ele>50.2</ele>
        <time>1970-01-01T01:46:43.000Z</time>
      </trkpt>
      <trkpt lat="39.734191" lon="-8.798848">
        <ele>50.2</ele>
        <time>1970-01-01T01:46:44.000Z</time>
      </trkpt>
      <trkpt lat="39.734177" lon="-8.798849">
        <ele>50.2</ele>
        <time>1970-01-01T01:46:45.000Z</time>
      </trkpt>
      <trkpt lat="39.734168" lon="-8.798853">
        <ele>50.1</ele>
        <time>1970-01-01T01:46:46.000Z</time>
      </trkpt>
      <trkpt lat="39.734163" lon="-8.798852">
        <ele>50.1</ele>
        <time>1970-01-01T01:46:47.000Z</time>
      </trkpt>
      <trkpt lat="39.73415" lon="-8.798844">
        <ele>50.1</ele>
        <time>1970-01-01T01:46:48.000Z</time>
      </trkpt>
      <trkpt lat="39.734136" lon="-8.79885">
        <ele>50.1</ele>
        <time>1970-01-01T01:46:49.000Z</time>
      </trkpt>
      <trkpt lat="39.73413" lon="-8.798848">
        <ele>50</ele>
        <time>1970-01-01T01:46:50.000Z</time>
      </trkpt>
      <trkpt lat="39.734124" lon="-8.798847">
        <ele>50</ele>
        <time>1970-01-01T01:46:51.000Z</time>
      </trkpt>
      <trkpt lat="39.734118" lon="-8.798845">
        <ele>50</ele>
        <time>1970-01-01T01:46:52.000Z</time>
      </trkpt>
      <trkpt lat="39.734112" lon="-8.798844">
        <ele>50</ele>
        <time>1970-01-01T01:46:53.000Z</time>
      </trkpt>
      <trkpt lat="39.734101" lon="-8.798844">
        <ele>50</ele>
        <time>1970-01-01T01:46:54.000Z</time>
      </trkpt>
      <trkpt lat="39.734089" lon="-8.798847">
        <ele>49.9</ele>
        <time>1970-01-01T01:46:55.000Z</time>
      </trkpt>
      <trkpt lat="39.73408" lon="-8.798846">
        <ele>49.9</ele>
        <time>1970-01-01T01:46:56.000Z</time>
      </trkpt>
      <trkpt lat="39.734066" lon="-8.798842">
        <ele>49.9</ele>
        <time>1970-01-01T01:46:57.000Z</time>
      </trkpt>
      <trkpt lat="39.734057" lon="-8.798846">
        <ele>49.9</ele>
        <time>1970-01-01T01:46:58.000Z</time>
      </trkpt>
      <trkpt lat="39.734027" lon="-8.798843">
        <ele>49.8</ele>
        <time>1970-01-01T01:47:00.000Z</time>
      </trkpt>
      <trkpt lat="39.734018" lon="-8.798836">
        <ele>49.8</ele>
        <time>1970-01-01T01:47:01.000Z</time>
      </trkpt>
      <trkpt lat="39.73401" lon="-8.798818">
        <ele>49.7</ele>
        <time>1970-01-01T01:47:03.000Z</time>
      </trkpt>
      <trkpt lat="39.734002" lon="-8.79881">
        <ele>49.7</ele>
        <time>1970-01-01T01:47:04.000Z</time>
      </trkpt>
      <trkpt lat="39.733986" lon="-8.798796">
        <ele>49.7</ele>
        <time>1970-01-01T01:47:05.000Z</time>
      </trkpt>
      <trkpt lat="39.733963" lon="-8.798778">
        <ele>49.6</ele>
        <time>1970-01-01T01:47:06.000Z</time>
      </trkpt>
      <trkpt lat="39.733959" lon="-8.798767">
        <ele>49.6</ele>
        <time>1970-01-01T01:47:07.000Z</time>
      </trkpt>
      <trkpt lat="39.733956" lon="-8.798755">
        <ele>49.6</ele>
        <time>1970-01-01T01:47:08.000Z</time>
      </trkpt>
      <trkpt lat="39.733947" lon="-8.798743">
        <ele>49.6</ele>
        <time>1970-01-01T01:47:09.000Z</time>
      </trkpt>
      <trkpt lat="39.733935" lon="-8.798732">
        <ele>49.6</ele>
        <time>1970-01-01T01:47:10.000Z</time>
      </trkpt>
      <trkpt lat="39.733914" lon="-8.798699">
        <ele>49.5</ele>
        <time>1970-01-01T01:47:11.000Z</time>
      </trkpt>
      <trkpt lat="39.733911" lon="-8.798688">
        <ele>49.5</ele>
        <time>1970-01-01T01:47:12.000Z</time>
      </trkpt>
      <trkpt lat="39.733902" lon="-8.798681">
        <ele>49.5</ele>
        <time>1970-01-01T01:47:13.000Z</time>
      </trkpt>
      <trkpt lat="39.733893" lon="-8.798675">
        <ele>49.5</ele>
        <time>1970-01-01T01:47:14.000Z</time>
      </trkpt>
      <trkpt lat="39.733881" lon="-8.798662">
        <ele>49.5</ele>
        <time>1970-01-01T01:47:15.000Z</time>
      </trkpt>
      <trkpt lat="39.733875" lon="-8.798644">
        <ele>49.5</ele>
        <time>1970-01-01T01:47:16.000Z</time>
      </trkpt>
      <trkpt lat="39.733871" lon="-8.798622">
        <ele>49.5</ele>
        <time>1970-01-01T01:47:17.000Z</time>
      </trkpt>
      <trkpt lat="39.733866" lon="-8.798597">
        <ele>49.4</ele>
        <time>1970-01-01T01:47:18.000Z</time>
      </trkpt>
      <trkpt lat="39.733859" lon="-8.79858">
        <ele>49.4</ele>
        <time>1970-01-01T01:47:19.000Z</time>
      </trkpt>
      <trkpt lat="39.733847" lon="-8.79855">
        <ele>49.4</ele>
        <time>1970-01-01T01:47:20.000Z</time>
      </trkpt>
      <trkpt lat="39.733839" lon="-8.798539">
        <ele>49.4</ele>
        <time>1970-01-01T01:47:21.000Z</time>
      </trkpt>
      <trkpt lat="39.733821" lon="-8.798501">
        <ele>49.4</ele>
        <time>1970-01-01T01:47:22.000Z</time>
      </trkpt>
      <trkpt lat="39.733819" lon="-8.798491">
        <ele>49.4</ele>
        <time>1970-01-01T01:47:23.000Z</time>
      </trkpt>
      <trkpt lat="39.733787" lon="-8.798468">
        <ele>49.4</ele>
        <time>1970-01-01T01:47:24.000Z</time>
      </trkpt>
      <trkpt lat="39.733777" lon="-8.79846">
        <ele>49.4</ele>
        <time>1970-01-01T01:47:25.000Z</time>
      </trkpt>
      <trkpt lat="39.733748" lon="-8.798436">
        <ele>49.4</ele>
        <time>1970-01-01T01:47:26.000Z</time>
      </trkpt>
      <trkpt lat="39.733739" lon="-8.798428">
        <ele>49.4</ele>
        <time>1970-01-01T01:47:27.000Z</time>
      </trkpt>
      <trkpt lat="39.733707" lon="-8.798406">
        <ele>49.4</ele>
        <time>1970-01-01T01:47:28.000Z</time>
      </trkpt>
      <trkpt lat="39.733693" lon="-8.7984">
        <ele>49.4</ele>
        <time>1970-01-01T01:47:29.000Z</time>
      </trkpt>
      <trkpt lat="39.733681" lon="-8.79839">
        <ele>49.4</ele>
        <time>1970-01-01T01:47:30.000Z</time>
      </trkpt>
      <trkpt lat="39.733667" lon="-8.798378">
        <ele>49.4</ele>
        <time>1970-01-01T01:47:31.000Z</time>
      </trkpt>
      <trkpt lat="39.733653" lon="-8.798363">
        <ele>49.4</ele>
        <time>1970-01-01T01:47:32.000Z</time>
      </trkpt>
      <trkpt lat="39.733634" lon="-8.798359">
        <ele>49.4</ele>
        <time>1970-01-01T01:47:33.000Z</time>
      </trkpt>
      <trkpt lat="39.733604" lon="-8.798356">
        <ele>49.4</ele>
        <time>1970-01-01T01:47:34.000Z</time>
      </trkpt>
      <trkpt lat="39.733594" lon="-8.798354">
        <ele>49.4</ele>
        <time>1970-01-01T01:47:35.000Z</time>
      </trkpt>
      <trkpt lat="39.733582" lon="-8.798349">
        <ele>49.4</ele>
        <time>1970-01-01T01:47:36.000Z</time>
      </trkpt>
      <trkpt lat="39.733564" lon="-8.798346">
        <ele>49.3</ele>
        <time>1970-01-01T01:47:37.000Z</time>
      </trkpt>
      <trkpt lat="39.733555" lon="-8.798341">
        <ele>49.3</ele>
        <time>1970-01-01T01:47:38.000Z</time>
      </trkpt>
      <trkpt lat="39.733546" lon="-8.798335">
        <ele>49.3</ele>
        <time>1970-01-01T01:47:39.000Z</time>
      </trkpt>
      <trkpt lat="39.733536" lon="-8.798337">
        <ele>49.3</ele>
        <time>1970-01-01T01:47:40.000Z</time>
      </trkpt>
      <trkpt lat="39.733526" lon="-8.798335">
        <ele>49.3</ele>
        <time>1970-01-01T01:47:41.000Z</time>
      </trkpt>
      <trkpt lat="39.73351" lon="-8.798337">
        <ele>49.3</ele>
        <time>1970-01-01T01:47:42.000Z</time>
      </trkpt>
      <trkpt lat="39.733505" lon="-8.798335">
        <ele>49.3</ele>
        <time>1970-01-01T01:47:43.000Z</time>
      </trkpt>
      <trkpt lat="39.733505" lon="-8.798337">
        <ele>49.3</ele>
        <time>1970-01-01T01:47:44.000Z</time>
      </trkpt>
      <trkpt lat="39.733506" lon="-8.798341">
        <ele>49.3</ele>
        <time>1970-01-01T01:47:45.000Z</time>
      </trkpt>
      <trkpt lat="39.733498" lon="-8.79836">
        <ele>49.3</ele>
        <time>1970-01-01T01:47:46.000Z</time>
      </trkpt>
      <trkpt lat="39.733496" lon="-8.798363">
        <ele>49.3</ele>
        <time>1970-01-01T01:47:47.000Z</time>
      </trkpt>
      <trkpt lat="39.733486" lon="-8.798355">
        <ele>49.3</ele>
        <time>1970-01-01T01:47:48.000Z</time>
      </trkpt>
      <trkpt lat="39.733478" lon="-8.798345">
        <ele>49.3</ele>
        <time>1970-01-01T01:47:49.000Z</time>
      </trkpt>
      <trkpt lat="39.733471" lon="-8.798333">
        <ele>49.3</ele>
        <time>1970-01-01T01:47:50.000Z</time>
      </trkpt>
      <trkpt lat="39.733462" lon="-8.798319">
        <ele>49.3</ele>
        <time>1970-01-01T01:47:51.000Z</time>
      </trkpt>
      <trkpt lat="39.73346" lon="-8.798313">
        <ele>49.3</ele>
        <time>1970-01-01T01:47:52.000Z</time>
      </trkpt>
      <trkpt lat="39.733452" lon="-8.7983">
        <ele>49.3</ele>
        <time>1970-01-01T01:47:53.000Z</time>
      </trkpt>
      <trkpt lat="39.733444" lon="-8.798288">
        <ele>49.3</ele>
        <time>1970-01-01T01:47:54.000Z</time>
      </trkpt>
      <trkpt lat="39.733434" lon="-8.798282">
        <ele>49.3</ele>
        <time>1970-01-01T01:47:55.000Z</time>
      </trkpt>
      <trkpt lat="39.733426" lon="-8.798286">
        <ele>49.3</ele>
        <time>1970-01-01T01:47:56.000Z</time>
      </trkpt>
      <trkpt lat="39.73342" lon="-8.798282">
        <ele>49.2</ele>
        <time>1970-01-01T01:47:57.000Z</time>
      </trkpt>
      <trkpt lat="39.733416" lon="-8.798278">
        <ele>49.2</ele>
        <time>1970-01-01T01:47:58.000Z</time>
      </trkpt>
      <trkpt lat="39.733415" lon="-8.798276">
        <ele>49.2</ele>
        <time>1970-01-01T01:47:59.000Z</time>
      </trkpt>
      <trkpt lat="39.733413" lon="-8.798268">
        <ele>49.2</ele>
        <time>1970-01-01T01:48:00.000Z</time>
      </trkpt>
      <trkpt lat="39.733413" lon="-8.798253">
        <ele>49.2</ele>
        <time>1970-01-01T01:48:01.000Z</time>
      </trkpt>
      <trkpt lat="39.733406" lon="-8.798213">
        <ele>49.2</ele>
        <time>1970-01-01T01:48:02.000Z</time>
      </trkpt>
      <trkpt lat="39.733404" lon="-8.798175">
        <ele>49.1</ele>
        <time>1970-01-01T01:48:03.000Z</time>
      </trkpt>
      <trkpt lat="39.733401" lon="-8.798137">
        <ele>48.9</ele>
        <time>1970-01-01T01:48:07.000Z</time>
      </trkpt>
      <trkpt lat="39.733399" lon="-8.798099">
        <ele>48.8</ele>
        <time>1970-01-01T01:48:08.000Z</time>
      </trkpt>
      <trkpt lat="39.733408" lon="-8.798065">
        <ele>48.6</ele>
        <time>1970-01-01T01:48:09.000Z</time>
      </trkpt>
      <trkpt lat="39.733409" lon="-8.798053">
        <ele>48.5</ele>
        <time>1970-01-01T01:48:10.000Z</time>
      </trkpt>
      <trkpt lat="39.733411" lon="-8.79804">
        <ele>48.5</ele>
        <time>1970-01-01T01:48:11.000Z</time>
      </trkpt>
      <trkpt lat="39.733414" lon="-8.798019">
        <ele>48.4</ele>
        <time>1970-01-01T01:48:12.000Z</time>
      </trkpt>
      <trkpt lat="39.733408" lon="-8.798013">
        <ele>48.3</ele>
        <time>1970-01-01T01:48:13.000Z</time>
      </trkpt>
      <trkpt lat="39.733421" lon="-8.797981">
        <ele>48.1</ele>
        <time>1970-01-01T01:48:14.000Z</time>
      </trkpt>
      <trkpt lat="39.733424" lon="-8.797971">
        <ele>48.1</ele>
        <time>1970-01-01T01:48:15.000Z</time>
      </trkpt>
      <trkpt lat="39.733435" lon="-8.797955">
        <ele>48</ele>
        <time>1970-01-01T01:48:16.000Z</time>
      </trkpt>
      <trkpt lat="39.733447" lon="-8.797942">
        <ele>47.8</ele>
        <time>1970-01-01T01:48:17.000Z</time>
      </trkpt>
      <trkpt lat="39.733457" lon="-8.797917">
        <ele>47.7</ele>
        <time>1970-01-01T01:48:18.000Z</time>
      </trkpt>
      <trkpt lat="39.733463" lon="-8.797901">
        <ele>47.6</ele>
        <time>1970-01-01T01:48:19.000Z</time>
      </trkpt>
      <trkpt lat="39.733466" lon="-8.797889">
        <ele>47.6</ele>
        <time>1970-01-01T01:48:20.000Z</time>
      </trkpt>
      <trkpt lat="39.733476" lon="-8.797874">
        <ele>47.5</ele>
        <time>1970-01-01T01:48:21.000Z</time>
      </trkpt>
      <trkpt lat="39.733479" lon="-8.797864">
        <ele>47.4</ele>
        <time>1970-01-01T01:48:22.000Z</time>
      </trkpt>
      <trkpt lat="39.733486" lon="-8.797851">
        <ele>47.4</ele>
        <time>1970-01-01T01:48:23.000Z</time>
      </trkpt>
      <trkpt lat="39.733502" lon="-8.797834">
        <ele>47.2</ele>
        <time>1970-01-01T01:48:24.000Z</time>
      </trkpt>
      <trkpt lat="39.733512" lon="-8.797826">
        <ele>47.2</ele>
        <time>1970-01-01T01:48:25.000Z</time>
      </trkpt>
      <trkpt lat="39.733522" lon="-8.797805">
        <ele>47.1</ele>
        <time>1970-01-01T01:48:26.000Z</time>
      </trkpt>
      <trkpt lat="39.73353" lon="-8.797782">
        <ele>47</ele>
        <time>1970-01-01T01:48:27.000Z</time>
      </trkpt>
      <trkpt lat="39.733534" lon="-8.797768">
        <ele>46.9</ele>
        <time>1970-01-01T01:48:28.000Z</time>
      </trkpt>
      <trkpt lat="39.733541" lon="-8.797744">
        <ele>46.8</ele>
        <time>1970-01-01T01:48:29.000Z</time>
      </trkpt>
      <trkpt lat="39.733549" lon="-8.797727">
        <ele>46.7</ele>
        <time>1970-01-01T01:48:30.000Z</time>
      </trkpt>
      <trkpt lat="39.733563" lon="-8.797696">
        <ele>46.6</ele>
        <time>1970-01-01T01:48:31.000Z</time>
      </trkpt>
      <trkpt lat="39.733567" lon="-8.797685">
        <ele>46.5</ele>
        <time>1970-01-01T01:48:32.000Z</time>
      </trkpt>
      <trkpt lat="39.733577" lon="-8.797665">
        <ele>46.4</ele>
        <time>1970-01-01T01:48:33.000Z</time>
      </trkpt>
      <trkpt lat="39.733587" lon="-8.797647">
        <ele>46.4</ele>
        <time>1970-01-01T01:48:34.000Z</time>
      </trkpt>
      <trkpt lat="39.733594" lon="-8.797632">
        <ele>46.3</ele>
        <time>1970-01-01T01:48:35.000Z</time>
      </trkpt>
      <trkpt lat="39.7336" lon="-8.797611">
        <ele>46.2</ele>
        <time>1970-01-01T01:48:36.000Z</time>
      </trkpt>
      <trkpt lat="39.733613" lon="-8.797596">
        <ele>46.2</ele>
        <time>1970-01-01T01:48:37.000Z</time>
      </trkpt>
      <trkpt lat="39.733621" lon="-8.797588">
        <ele>46.1</ele>
        <time>1970-01-01T01:48:38.000Z</time>
      </trkpt>
      <trkpt lat="39.733635" lon="-8.797576">
        <ele>46.1</ele>
        <time>1970-01-01T01:48:39.000Z</time>
      </trkpt>
      <trkpt lat="39.733644" lon="-8.797563">
        <ele>46</ele>
        <time>1970-01-01T01:48:40.000Z</time>
      </trkpt>
      <trkpt lat="39.733659" lon="-8.797543">
        <ele>45.9</ele>
        <time>1970-01-01T01:48:41.000Z</time>
      </trkpt>
      <trkpt lat="39.733666" lon="-8.797532">
        <ele>45.9</ele>
        <time>1970-01-01T01:48:42.000Z</time>
      </trkpt>
      <trkpt lat="39.733673" lon="-8.797522">
        <ele>45.9</ele>
        <time>1970-01-01T01:48:43.000Z</time>
      </trkpt>
      <trkpt lat="39.733685" lon="-8.797511">
        <ele>45.8</ele>
        <time>1970-01-01T01:48:44.000Z</time>
      </trkpt>
      <trkpt lat="39.733701" lon="-8.797496">
        <ele>45.7</ele>
        <time>1970-01-01T01:48:45.000Z</time>
      </trkpt>
      <trkpt lat="39.733721" lon="-8.797482">
        <ele>45.7</ele>
        <time>1970-01-01T01:48:46.000Z</time>
      </trkpt>
      <trkpt lat="39.733729" lon="-8.797479">
        <ele>45.7</ele>
        <time>1970-01-01T01:48:47.000Z</time>
      </trkpt>
      <trkpt lat="39.733736" lon="-8.797475">
        <ele>45.6</ele>
        <time>1970-01-01T01:48:48.000Z</time>
      </trkpt>
      <trkpt lat="39.733751" lon="-8.797472">
        <ele>45.6</ele>
        <time>1970-01-01T01:48:49.000Z</time>
      </trkpt>
      <trkpt lat="39.733765" lon="-8.79747">
        <ele>45.6</ele>
        <time>1970-01-01T01:48:50.000Z</time>
      </trkpt>
      <trkpt lat="39.733779" lon="-8.797469">
        <ele>45.5</ele>
        <time>1970-01-01T01:48:51.000Z</time>
      </trkpt>
      <trkpt lat="39.733783" lon="-8.797471">
        <ele>45.5</ele>
        <time>1970-01-01T01:48:52.000Z</time>
      </trkpt>
      <trkpt lat="39.733787" lon="-8.79747">
        <ele>45.5</ele>
        <time>1970-01-01T01:48:53.000Z</time>
      </trkpt>
      <trkpt lat="39.733796" lon="-8.797469">
        <ele>45.5</ele>
        <time>1970-01-01T01:48:54.000Z</time>
      </trkpt>
      <trkpt lat="39.733798" lon="-8.797466">
        <ele>45.5</ele>
        <time>1970-01-01T01:48:55.000Z</time>
      </trkpt>
      <trkpt lat="39.733803" lon="-8.797465">
        <ele>45.4</ele>
        <time>1970-01-01T01:48:56.000Z</time>
      </trkpt>
      <trkpt lat="39.733814" lon="-8.797459">
        <ele>45.4</ele>
        <time>1970-01-01T01:48:57.000Z</time>
      </trkpt>
      <trkpt lat="39.733822" lon="-8.797456">
        <ele>45.4</ele>
        <time>1970-01-01T01:48:58.000Z</time>
      </trkpt>
      <trkpt lat="39.733826" lon="-8.797455">
        <ele>45.4</ele>
        <time>1970-01-01T01:48:59.000Z</time>
      </trkpt>
      <trkpt lat="39.733832" lon="-8.797455">
        <ele>45.4</ele>
        <time>1970-01-01T01:49:00.000Z</time>
      </trkpt>
      <trkpt lat="39.733843" lon="-8.797454">
        <ele>45.3</ele>
        <time>1970-01-01T01:49:01.000Z</time>
      </trkpt>
      <trkpt lat="39.733856" lon="-8.797457">
        <ele>45.3</ele>
        <time>1970-01-01T01:49:02.000Z</time>
      </trkpt>
      <trkpt lat="39.733863" lon="-8.797458">
        <ele>45.3</ele>
        <time>1970-01-01T01:49:03.000Z</time>
      </trkpt>
      <trkpt lat="39.73387" lon="-8.797461">
        <ele>45.3</ele>
        <time>1970-01-01T01:49:04.000Z</time>
      </trkpt>
      <trkpt lat="39.733878" lon="-8.797461">
        <ele>45.3</ele>
        <time>1970-01-01T01:49:05.000Z</time>
      </trkpt>
      <trkpt lat="39.733887" lon="-8.797455">
        <ele>45.2</ele>
        <time>1970-01-01T01:49:06.000Z</time>
      </trkpt>
      <trkpt lat="39.7339" lon="-8.797456">
        <ele>45.2</ele>
        <time>1970-01-01T01:49:07.000Z</time>
      </trkpt>
      <trkpt lat="39.733915" lon="-8.797457">
        <ele>45.2</ele>
        <time>1970-01-01T01:49:09.000Z</time>
      </trkpt>
      <trkpt lat="39.733928" lon="-8.797458">
        <ele>45.2</ele>
        <time>1970-01-01T01:49:10.000Z</time>
      </trkpt>
      <trkpt lat="39.733943" lon="-8.797456">
        <ele>45.1</ele>
        <time>1970-01-01T01:49:11.000Z</time>
      </trkpt>
      <trkpt lat="39.73396" lon="-8.797453">
        <ele>45.1</ele>
        <time>1970-01-01T01:49:12.000Z</time>
      </trkpt>
      <trkpt lat="39.733973" lon="-8.797454">
        <ele>45.1</ele>
        <time>1970-01-01T01:49:13.000Z</time>
      </trkpt>
      <trkpt lat="39.733985" lon="-8.797455">
        <ele>45</ele>
        <time>1970-01-01T01:49:14.000Z</time>
      </trkpt>
      <trkpt lat="39.733996" lon="-8.797456">
        <ele>45</ele>
        <time>1970-01-01T01:49:15.000Z</time>
      </trkpt>
      <trkpt lat="39.734" lon="-8.797458">
        <ele>45</ele>
        <time>1970-01-01T01:49:16.000Z</time>
      </trkpt>
      <trkpt lat="39.734021" lon="-8.797447">
        <ele>45</ele>
        <time>1970-01-01T01:49:17.000Z</time>
      </trkpt>
      <trkpt lat="39.734031" lon="-8.797446">
        <ele>45</ele>
        <time>1970-01-01T01:49:18.000Z</time>
      </trkpt>
      <trkpt lat="39.734034" lon="-8.79744">
        <ele>45</ele>
        <time>1970-01-01T01:49:19.000Z</time>
      </trkpt>
      <trkpt lat="39.734038" lon="-8.797439">
        <ele>45</ele>
        <time>1970-01-01T01:49:20.000Z</time>
      </trkpt>
      <trkpt lat="39.734049" lon="-8.797434">
        <ele>45</ele>
        <time>1970-01-01T01:49:21.000Z</time>
      </trkpt>
      <trkpt lat="39.734054" lon="-8.797431">
        <ele>45</ele>
        <time>1970-01-01T01:49:22.000Z</time>
      </trkpt>
      <trkpt lat="39.734063" lon="-8.797429">
        <ele>44.9</ele>
        <time>1970-01-01T01:49:23.000Z</time>
      </trkpt>
      <trkpt lat="39.734071" lon="-8.797427">
        <ele>44.9</ele>
        <time>1970-01-01T01:49:24.000Z</time>
      </trkpt>
      <trkpt lat="39.734077" lon="-8.797417">
        <ele>44.9</ele>
        <time>1970-01-01T01:49:25.000Z</time>
      </trkpt>
      <trkpt lat="39.734081" lon="-8.797409">
        <ele>44.9</ele>
        <time>1970-01-01T01:49:26.000Z</time>
      </trkpt>
      <trkpt lat="39.734084" lon="-8.797401">
        <ele>44.9</ele>
        <time>1970-01-01T01:49:27.000Z</time>
      </trkpt>
      <trkpt lat="39.734095" lon="-8.79739">
        <ele>44.9</ele>
        <time>1970-01-01T01:49:28.000Z</time>
      </trkpt>
      <trkpt lat="39.73411" lon="-8.797374">
        <ele>44.9</ele>
        <time>1970-01-01T01:49:29.000Z</time>
      </trkpt>
      <trkpt lat="39.734117" lon="-8.797367">
        <ele>44.8</ele>
        <time>1970-01-01T01:49:30.000Z</time>
      </trkpt>
      <trkpt lat="39.734125" lon="-8.797361">
        <ele>44.8</ele>
        <time>1970-01-01T01:49:31.000Z</time>
      </trkpt>
      <trkpt lat="39.734142" lon="-8.797349">
        <ele>44.8</ele>
        <time>1970-01-01T01:49:32.000Z</time>
      </trkpt>
      <trkpt lat="39.734151" lon="-8.797345">
        <ele>44.8</ele>
        <time>1970-01-01T01:49:33.000Z</time>
      </trkpt>
      <trkpt lat="39.73416" lon="-8.797341">
        <ele>44.8</ele>
        <time>1970-01-01T01:49:34.000Z</time>
      </trkpt>
      <trkpt lat="39.734181" lon="-8.797331">
        <ele>44.8</ele>
        <time>1970-01-01T01:49:35.000Z</time>
      </trkpt>
      <trkpt lat="39.73419" lon="-8.797328">
        <ele>44.7</ele>
        <time>1970-01-01T01:49:36.000Z</time>
      </trkpt>
      <trkpt lat="39.734198" lon="-8.797324">
        <ele>44.7</ele>
        <time>1970-01-01T01:49:37.000Z</time>
      </trkpt>
      <trkpt lat="39.734208" lon="-8.797317">
        <ele>44.7</ele>
        <time>1970-01-01T01:49:38.000Z</time>
      </trkpt>
      <trkpt lat="39.734222" lon="-8.797303">
        <ele>44.7</ele>
        <time>1970-01-01T01:49:39.000Z</time>
      </trkpt>
      <trkpt lat="39.734239" lon="-8.797299">
        <ele>44.7</ele>
        <time>1970-01-01T01:49:40.000Z</time>
      </trkpt>
      <trkpt lat="39.734245" lon="-8.797295">
        <ele>44.7</ele>
        <time>1970-01-01T01:49:41.000Z</time>
      </trkpt>
      <trkpt lat="39.734255" lon="-8.797293">
        <ele>44.6</ele>
        <time>1970-01-01T01:49:42.000Z</time>
      </trkpt>
      <trkpt lat="39.734264" lon="-8.797292">
        <ele>44.6</ele>
        <time>1970-01-01T01:49:43.000Z</time>
      </trkpt>
      <trkpt lat="39.734269" lon="-8.797288">
        <ele>44.6</ele>
        <time>1970-01-01T01:49:44.000Z</time>
      </trkpt>
      <trkpt lat="39.734283" lon="-8.797277">
        <ele>44.6</ele>
        <time>1970-01-01T01:49:45.000Z</time>
      </trkpt>
      <trkpt lat="39.734297" lon="-8.797264">
        <ele>44.6</ele>
        <time>1970-01-01T01:49:46.000Z</time>
      </trkpt>
      <trkpt lat="39.734312" lon="-8.79726">
        <ele>44.6</ele>
        <time>1970-01-01T01:49:47.000Z</time>
      </trkpt>
      <trkpt lat="39.73432" lon="-8.797258">
        <ele>44.6</ele>
        <time>1970-01-01T01:49:48.000Z</time>
      </trkpt>
      <trkpt lat="39.734331" lon="-8.797256">
        <ele>44.5</ele>
        <time>1970-01-01T01:49:49.000Z</time>
      </trkpt>
      <trkpt lat="39.734335" lon="-8.797259">
        <ele>44.5</ele>
        <time>1970-01-01T01:49:50.000Z</time>
      </trkpt>
      <trkpt lat="39.734336" lon="-8.797261">
        <ele>44.5</ele>
        <time>1970-01-01T01:49:51.000Z</time>
      </trkpt>
      <trkpt lat="39.734338" lon="-8.797254">
        <ele>44.5</ele>
        <time>1970-01-01T01:49:52.000Z</time>
      </trkpt>
      <trkpt lat="39.734346" lon="-8.797279">
        <ele>44.5</ele>
        <time>1970-01-01T01:49:53.000Z</time>
      </trkpt>
      <trkpt lat="39.734351" lon="-8.797302">
        <ele>44.5</ele>
        <time>1970-01-01T01:49:54.000Z</time>
      </trkpt>
      <trkpt lat="39.734357" lon="-8.797326">
        <ele>44.5</ele>
        <time>1970-01-01T01:49:55.000Z</time>
      </trkpt>
      <trkpt lat="39.734362" lon="-8.797349">
        <ele>44.4</ele>
        <time>1970-01-01T02:11:10.000Z</time>
      </trkpt>
      <trkpt lat="39.734368" lon="-8.797372">
        <ele>44.4</ele>
        <time>1970-01-01T02:11:11.000Z</time>
      </trkpt>
      <trkpt lat="39.7344" lon="-8.797347">
        <ele>44.4</ele>
        <time>1970-01-01T02:11:12.000Z</time>
      </trkpt>
      <trkpt lat="39.73443" lon="-8.797314">
        <ele>44.3</ele>
        <time>1970-01-01T02:11:13.000Z</time>
      </trkpt>
      <trkpt lat="39.734425" lon="-8.797308">
        <ele>44.3</ele>
        <time>1970-01-01T02:11:14.000Z</time>
      </trkpt>
      <trkpt lat="39.734425" lon="-8.797297">
        <ele>44.3</ele>
        <time>1970-01-01T02:11:15.000Z</time>
      </trkpt>
      <trkpt lat="39.734413" lon="-8.7973">
        <ele>44.3</ele>
        <time>1970-01-01T02:11:16.000Z</time>
      </trkpt>
      <trkpt lat="39.734418" lon="-8.797303">
        <ele>44.3</ele>
        <time>1970-01-01T02:11:17.000Z</time>
      </trkpt>
      <trkpt lat="39.7344" lon="-8.797315">
        <ele>44.3</ele>
        <time>1970-01-01T02:11:18.000Z</time>
      </trkpt>
      <trkpt lat="39.734417" lon="-8.797315">
        <ele>44.3</ele>
        <time>1970-01-01T02:11:19.000Z</time>
      </trkpt>
      <trkpt lat="39.73444" lon="-8.797314">
        <ele>44.2</ele>
        <time>1970-01-01T02:11:51.000Z</time>
      </trkpt>
      <trkpt lat="39.734463" lon="-8.797312">
        <ele>44.2</ele>
        <time>1970-01-01T02:11:52.000Z</time>
      </trkpt>
      <trkpt lat="39.734483" lon="-8.797275">
        <ele>44.2</ele>
        <time>1970-01-01T02:11:53.000Z</time>
      </trkpt>
      <trkpt lat="39.734501" lon="-8.797247">
        <ele>44.2</ele>
        <time>1970-01-01T02:11:54.000Z</time>
      </trkpt>
      <trkpt lat="39.734525" lon="-8.797229">
        <ele>44.2</ele>
        <time>1970-01-01T02:11:55.000Z</time>
      </trkpt>
      <trkpt lat="39.734547" lon="-8.79722">
        <ele>44.1</ele>
        <time>1970-01-01T02:11:56.000Z</time>
      </trkpt>
      <trkpt lat="39.734555" lon="-8.797216">
        <ele>44.1</ele>
        <time>1970-01-01T02:11:57.000Z</time>
      </trkpt>
      <trkpt lat="39.734564" lon="-8.797211">
        <ele>44.1</ele>
        <time>1970-01-01T02:11:58.000Z</time>
      </trkpt>
      <trkpt lat="39.73457" lon="-8.797201">
        <ele>44.1</ele>
        <time>1970-01-01T02:11:59.000Z</time>
      </trkpt>
      <trkpt lat="39.734575" lon="-8.797202">
        <ele>44.1</ele>
        <time>1970-01-01T02:12:00.000Z</time>
      </trkpt>
      <trkpt lat="39.734582" lon="-8.797196">
        <ele>44.1</ele>
        <time>1970-01-01T02:12:01.000Z</time>
      </trkpt>
      <trkpt lat="39.734587" lon="-8.797183">
        <ele>44.1</ele>
        <time>1970-01-01T02:12:02.000Z</time>
      </trkpt>
      <trkpt lat="39.734609" lon="-8.797158">
        <ele>44.1</ele>
        <time>1970-01-01T02:12:03.000Z</time>
      </trkpt>
      <trkpt lat="39.734615" lon="-8.797149">
        <ele>44</ele>
        <time>1970-01-01T02:12:04.000Z</time>
      </trkpt>
      <trkpt lat="39.734642" lon="-8.797122">
        <ele>44</ele>
        <time>1970-01-01T02:12:05.000Z</time>
      </trkpt>
      <trkpt lat="39.734653" lon="-8.797116">
        <ele>44</ele>
        <time>1970-01-01T02:12:06.000Z</time>
      </trkpt>
      <trkpt lat="39.734684" lon="-8.797096">
        <ele>43.9</ele>
        <time>1970-01-01T02:12:07.000Z</time>
      </trkpt>
      <trkpt lat="39.734713" lon="-8.797079">
        <ele>43.9</ele>
        <time>1970-01-01T02:12:08.000Z</time>
      </trkpt>
      <trkpt lat="39.734743" lon="-8.79706">
        <ele>43.9</ele>
        <time>1970-01-01T02:12:09.000Z</time>
      </trkpt>
      <trkpt lat="39.734772" lon="-8.797039">
        <ele>43.8</ele>
        <time>1970-01-01T02:12:10.000Z</time>
      </trkpt>
      <trkpt lat="39.734796" lon="-8.797023">
        <ele>43.8</ele>
        <time>1970-01-01T02:12:11.000Z</time>
      </trkpt>
      <trkpt lat="39.734823" lon="-8.797009">
        <ele>43.8</ele>
        <time>1970-01-01T02:12:12.000Z</time>
      </trkpt>
      <trkpt lat="39.734846" lon="-8.796991">
        <ele>43.8</ele>
        <time>1970-01-01T02:12:13.000Z</time>
      </trkpt>
      <trkpt lat="39.734859" lon="-8.796982">
        <ele>43.8</ele>
        <time>1970-01-01T02:12:14.000Z</time>
      </trkpt>
      <trkpt lat="39.734885" lon="-8.796961">
        <ele>43.8</ele>
        <time>1970-01-01T02:12:15.000Z</time>
      </trkpt>
      <trkpt lat="39.73493" lon="-8.796938">
        <ele>43.8</ele>
        <time>1970-01-01T02:12:16.000Z</time>
      </trkpt>
      <trkpt lat="39.734951" lon="-8.796927">
        <ele>43.8</ele>
        <time>1970-01-01T02:12:17.000Z</time>
      </trkpt>
      <trkpt lat="39.734985" lon="-8.796913">
        <ele>43.9</ele>
        <time>1970-01-01T02:12:18.000Z</time>
      </trkpt>
      <trkpt lat="39.735018" lon="-8.796892">
        <ele>43.9</ele>
        <time>1970-01-01T02:12:19.000Z</time>
      </trkpt>
      <trkpt lat="39.735044" lon="-8.796875">
        <ele>43.9</ele>
        <time>1970-01-01T02:12:20.000Z</time>
      </trkpt>
      <trkpt lat="39.735079" lon="-8.796856">
        <ele>44</ele>
        <time>1970-01-01T02:12:21.000Z</time>
      </trkpt>
      <trkpt lat="39.735091" lon="-8.796851">
        <ele>44</ele>
        <time>1970-01-01T02:12:22.000Z</time>
      </trkpt>
      <trkpt lat="39.735129" lon="-8.796835">
        <ele>44</ele>
        <time>1970-01-01T02:12:23.000Z</time>
      </trkpt>
      <trkpt lat="39.735142" lon="-8.79683">
        <ele>44</ele>
        <time>1970-01-01T02:12:24.000Z</time>
      </trkpt>
      <trkpt lat="39.73517" lon="-8.796821">
        <ele>44.1</ele>
        <time>1970-01-01T02:12:25.000Z</time>
      </trkpt>
      <trkpt lat="39.735199" lon="-8.796808">
        <ele>44</ele>
        <time>1970-01-01T02:12:26.000Z</time>
      </trkpt>
      <trkpt lat="39.735226" lon="-8.796796">
        <ele>44</ele>
        <time>1970-01-01T02:12:27.000Z</time>
      </trkpt>
      <trkpt lat="39.735248" lon="-8.796772">
        <ele>44</ele>
        <time>1970-01-01T02:12:28.000Z</time>
      </trkpt>
      <trkpt lat="39.735273" lon="-8.796744">
        <ele>43.9</ele>
        <time>1970-01-01T02:12:29.000Z</time>
      </trkpt>
      <trkpt lat="39.735296" lon="-8.796717">
        <ele>43.9</ele>
        <time>1970-01-01T02:12:30.000Z</time>
      </trkpt>
      <trkpt lat="39.735323" lon="-8.796686">
        <ele>43.8</ele>
        <time>1970-01-01T02:12:31.000Z</time>
      </trkpt>
      <trkpt lat="39.73535" lon="-8.796652">
        <ele>43.6</ele>
        <time>1970-01-01T02:12:32.000Z</time>
      </trkpt>
      <trkpt lat="39.735381" lon="-8.79662">
        <ele>43.5</ele>
        <time>1970-01-01T02:12:33.000Z</time>
      </trkpt>
      <trkpt lat="39.735408" lon="-8.796596">
        <ele>43.4</ele>
        <time>1970-01-01T02:12:34.000Z</time>
      </trkpt>
      <trkpt lat="39.735442" lon="-8.796562">
        <ele>43.2</ele>
        <time>1970-01-01T02:12:35.000Z</time>
      </trkpt>
      <trkpt lat="39.73548" lon="-8.796526">
        <ele>43</ele>
        <time>1970-01-01T02:12:36.000Z</time>
      </trkpt>
      <trkpt lat="39.735515" lon="-8.796481">
        <ele>42.8</ele>
        <time>1970-01-01T02:12:37.000Z</time>
      </trkpt>
      <trkpt lat="39.735553" lon="-8.79643">
        <ele>42.6</ele>
        <time>1970-01-01T02:12:38.000Z</time>
      </trkpt>
      <trkpt lat="39.735594" lon="-8.796389">
        <ele>42.4</ele>
        <time>1970-01-01T02:12:39.000Z</time>
      </trkpt>
      <trkpt lat="39.735632" lon="-8.796338">
        <ele>42.2</ele>
        <time>1970-01-01T02:12:40.000Z</time>
      </trkpt>
      <trkpt lat="39.735682" lon="-8.796291">
        <ele>42</ele>
        <time>1970-01-01T02:12:41.000Z</time>
      </trkpt>
      <trkpt lat="39.735729" lon="-8.796285">
        <ele>41.9</ele>
        <time>1970-01-01T02:12:42.000Z</time>
      </trkpt>
      <trkpt lat="39.735776" lon="-8.796285">
        <ele>41.8</ele>
        <time>1970-01-01T02:12:43.000Z</time>
      </trkpt>
      <trkpt lat="39.735807" lon="-8.796289">
        <ele>41.8</ele>
        <time>1970-01-01T02:12:44.000Z</time>
      </trkpt>
      <trkpt lat="39.735839" lon="-8.796291">
        <ele>41.7</ele>
        <time>1970-01-01T02:12:45.000Z</time>
      </trkpt>
      <trkpt lat="39.73587" lon="-8.796293">
        <ele>41.7</ele>
        <time>1970-01-01T02:12:46.000Z</time>
      </trkpt>
      <trkpt lat="39.735906" lon="-8.796294">
        <ele>41.7</ele>
        <time>1970-01-01T02:12:47.000Z</time>
      </trkpt>
      <trkpt lat="39.735987" lon="-8.796311">
        <ele>41.7</ele>
        <time>1970-01-01T02:12:48.000Z</time>
      </trkpt>
      <trkpt lat="39.736051" lon="-8.79629">
        <ele>41.7</ele>
        <time>1970-01-01T02:12:49.000Z</time>
      </trkpt>
      <trkpt lat="39.736094" lon="-8.796274">
        <ele>41.8</ele>
        <time>1970-01-01T02:12:50.000Z</time>
      </trkpt>
      <trkpt lat="39.736132" lon="-8.796262">
        <ele>41.8</ele>
        <time>1970-01-01T02:12:51.000Z</time>
      </trkpt>
      <trkpt lat="39.736186" lon="-8.796246">
        <ele>41.8</ele>
        <time>1970-01-01T02:12:52.000Z</time>
      </trkpt>
      <trkpt lat="39.736234" lon="-8.796222">
        <ele>41.8</ele>
        <time>1970-01-01T02:12:53.000Z</time>
      </trkpt>
      <trkpt lat="39.73628" lon="-8.796188">
        <ele>41.8</ele>
        <time>1970-01-01T02:12:54.000Z</time>
      </trkpt>
      <trkpt lat="39.736323" lon="-8.79616">
        <ele>41.9</ele>
        <time>1970-01-01T02:12:55.000Z</time>
      </trkpt>
      <trkpt lat="39.736358" lon="-8.796127">
        <ele>41.9</ele>
        <time>1970-01-01T02:12:56.000Z</time>
      </trkpt>
      <trkpt lat="39.736393" lon="-8.796109">
        <ele>41.8</ele>
        <time>1970-01-01T02:12:57.000Z</time>
      </trkpt>
      <trkpt lat="39.736424" lon="-8.796098">
        <ele>41.8</ele>
        <time>1970-01-01T02:12:58.000Z</time>
      </trkpt>
      <trkpt lat="39.736457" lon="-8.796095">
        <ele>41.8</ele>
        <time>1970-01-01T02:12:59.000Z</time>
      </trkpt>
      <trkpt lat="39.736502" lon="-8.796073">
        <ele>41.8</ele>
        <time>1970-01-01T02:13:00.000Z</time>
      </trkpt>
      <trkpt lat="39.736544" lon="-8.796029">
        <ele>41.8</ele>
        <time>1970-01-01T02:13:01.000Z</time>
      </trkpt>
      <trkpt lat="39.736598" lon="-8.795997">
        <ele>41.8</ele>
        <time>1970-01-01T02:13:02.000Z</time>
      </trkpt>
      <trkpt lat="39.736647" lon="-8.795962">
        <ele>41.8</ele>
        <time>1970-01-01T02:13:03.000Z</time>
      </trkpt>
      <trkpt lat="39.736704" lon="-8.795923">
        <ele>41.8</ele>
        <time>1970-01-01T02:13:04.000Z</time>
      </trkpt>
      <trkpt lat="39.736748" lon="-8.795894">
        <ele>41.8</ele>
        <time>1970-01-01T02:13:05.000Z</time>
      </trkpt>
      <trkpt lat="39.736793" lon="-8.795867">
        <ele>41.8</ele>
        <time>1970-01-01T02:13:06.000Z</time>
      </trkpt>
      <trkpt lat="39.736815" lon="-8.795844">
        <ele>41.8</ele>
        <time>1970-01-01T02:13:07.000Z</time>
      </trkpt>
      <trkpt lat="39.73684" lon="-8.795823">
        <ele>41.8</ele>
        <time>1970-01-01T02:13:08.000Z</time>
      </trkpt>
      <trkpt lat="39.736874" lon="-8.795808">
        <ele>41.8</ele>
        <time>1970-01-01T02:13:09.000Z</time>
      </trkpt>
      <trkpt lat="39.736904" lon="-8.7958">
        <ele>41.7</ele>
        <time>1970-01-01T02:13:10.000Z</time>
      </trkpt>
      <trkpt lat="39.736944" lon="-8.795791">
        <ele>41.7</ele>
        <time>1970-01-01T02:13:11.000Z</time>
      </trkpt>
      <trkpt lat="39.736979" lon="-8.795773">
        <ele>41.7</ele>
        <time>1970-01-01T02:13:12.000Z</time>
      </trkpt>
      <trkpt lat="39.737027" lon="-8.795719">
        <ele>41.7</ele>
        <time>1970-01-01T02:13:13.000Z</time>
      </trkpt>
      <trkpt lat="39.737062" lon="-8.795691">
        <ele>41.7</ele>
        <time>1970-01-01T02:13:14.000Z</time>
      </trkpt>
      <trkpt lat="39.737103" lon="-8.795665">
        <ele>41.6</ele>
        <time>1970-01-01T02:13:15.000Z</time>
      </trkpt>
      <trkpt lat="39.737138" lon="-8.795647">
        <ele>41.6</ele>
        <time>1970-01-01T02:13:16.000Z</time>
      </trkpt>
      <trkpt lat="39.73718" lon="-8.79562">
        <ele>41.6</ele>
        <time>1970-01-01T02:13:17.000Z</time>
      </trkpt>
      <trkpt lat="39.737234" lon="-8.795595">
        <ele>41.6</ele>
        <time>1970-01-01T02:13:18.000Z</time>
      </trkpt>
      <trkpt lat="39.73727" lon="-8.795585">
        <ele>41.6</ele>
        <time>1970-01-01T02:13:19.000Z</time>
      </trkpt>
      <trkpt lat="39.737319" lon="-8.795564">
        <ele>41.5</ele>
        <time>1970-01-01T02:13:20.000Z</time>
      </trkpt>
      <trkpt lat="39.737374" lon="-8.795556">
        <ele>41.5</ele>
        <time>1970-01-01T02:13:21.000Z</time>
      </trkpt>
      <trkpt lat="39.737417" lon="-8.795553">
        <ele>41.5</ele>
        <time>1970-01-01T02:13:22.000Z</time>
      </trkpt>
      <trkpt lat="39.737455" lon="-8.795555">
        <ele>41.5</ele>
        <time>1970-01-01T02:13:23.000Z</time>
      </trkpt>
      <trkpt lat="39.737501" lon="-8.795572">
        <ele>41.4</ele>
        <time>1970-01-01T02:13:24.000Z</time>
      </trkpt>
      <trkpt lat="39.737545" lon="-8.795572">
        <ele>41.4</ele>
        <time>1970-01-01T02:13:25.000Z</time>
      </trkpt>
      <trkpt lat="39.737613" lon="-8.795559">
        <ele>41.4</ele>
        <time>1970-01-01T02:13:26.000Z</time>
      </trkpt>
      <trkpt lat="39.737666" lon="-8.79558">
        <ele>41.3</ele>
        <time>1970-01-01T02:13:27.000Z</time>
      </trkpt>
      <trkpt lat="39.737719" lon="-8.795579">
        <ele>41.3</ele>
        <time>1970-01-01T02:13:28.000Z</time>
      </trkpt>
      <trkpt lat="39.737783" lon="-8.795596">
        <ele>41.3</ele>
        <time>1970-01-01T02:13:29.000Z</time>
      </trkpt>
      <trkpt lat="39.737844" lon="-8.79561">
        <ele>41.3</ele>
        <time>1970-01-01T02:13:30.000Z</time>
      </trkpt>
      <trkpt lat="39.7379" lon="-8.795625">
        <ele>41.2</ele>
        <time>1970-01-01T02:13:31.000Z</time>
      </trkpt>
      <trkpt lat="39.737951" lon="-8.795635">
        <ele>41.2</ele>
        <time>1970-01-01T02:13:32.000Z</time>
      </trkpt>
      <trkpt lat="39.73798" lon="-8.795617">
        <ele>41.2</ele>
        <time>1970-01-01T02:13:33.000Z</time>
      </trkpt>
      <trkpt lat="39.738026" lon="-8.795629">
        <ele>41.2</ele>
        <time>1970-01-01T02:13:34.000Z</time>
      </trkpt>
      <trkpt lat="39.738065" lon="-8.795647">
        <ele>41.2</ele>
        <time>1970-01-01T02:13:35.000Z</time>
      </trkpt>
      <trkpt lat="39.738087" lon="-8.795678">
        <ele>41.2</ele>
        <time>1970-01-01T02:13:36.000Z</time>
      </trkpt>
      <trkpt lat="39.738126" lon="-8.795733">
        <ele>41.2</ele>
        <time>1970-01-01T02:13:37.000Z</time>
      </trkpt>
      <trkpt lat="39.738171" lon="-8.795807">
        <ele>41.2</ele>
        <time>1970-01-01T02:13:38.000Z</time>
      </trkpt>
      <trkpt lat="39.738216" lon="-8.795871">
        <ele>41.2</ele>
        <time>1970-01-01T02:13:39.000Z</time>
      </trkpt>
      <trkpt lat="39.738253" lon="-8.795926">
        <ele>41.2</ele>
        <time>1970-01-01T02:13:40.000Z</time>
      </trkpt>
      <trkpt lat="39.738282" lon="-8.795959">
        <ele>41.2</ele>
        <time>1970-01-01T02:13:41.000Z</time>
      </trkpt>
      <trkpt lat="39.738312" lon="-8.796006">
        <ele>41.2</ele>
        <time>1970-01-01T02:13:42.000Z</time>
      </trkpt>
      <trkpt lat="39.738346" lon="-8.796053">
        <ele>41.2</ele>
        <time>1970-01-01T02:13:43.000Z</time>
      </trkpt>
      <trkpt lat="39.738393" lon="-8.796125">
        <ele>41.2</ele>
        <time>1970-01-01T02:13:44.000Z</time>
      </trkpt>
      <trkpt lat="39.738423" lon="-8.796176">
        <ele>41.2</ele>
        <time>1970-01-01T02:13:45.000Z</time>
      </trkpt>
      <trkpt lat="39.738447" lon="-8.796225">
        <ele>41.2</ele>
        <time>1970-01-01T02:13:46.000Z</time>
      </trkpt>
      <trkpt lat="39.738477" lon="-8.796277">
        <ele>41.2</ele>
        <time>1970-01-01T02:13:47.000Z</time>
      </trkpt>
      <trkpt lat="39.738506" lon="-8.796333">
        <ele>41.2</ele>
        <time>1970-01-01T02:13:48.000Z</time>
      </trkpt>
      <trkpt lat="39.738537" lon="-8.796383">
        <ele>41.2</ele>
        <time>1970-01-01T02:13:49.000Z</time>
      </trkpt>
      <trkpt lat="39.73857" lon="-8.796422">
        <ele>41.2</ele>
        <time>1970-01-01T02:13:50.000Z</time>
      </trkpt>
      <trkpt lat="39.738591" lon="-8.796466">
        <ele>41.2</ele>
        <time>1970-01-01T02:13:51.000Z</time>
      </trkpt>
      <trkpt lat="39.738636" lon="-8.796528">
        <ele>41.2</ele>
        <time>1970-01-01T02:13:52.000Z</time>
      </trkpt>
      <trkpt lat="39.738677" lon="-8.796596">
        <ele>41.1</ele>
        <time>1970-01-01T02:13:53.000Z</time>
      </trkpt>
      <trkpt lat="39.738714" lon="-8.796655">
        <ele>41.1</ele>
        <time>1970-01-01T02:13:54.000Z</time>
      </trkpt>
      <trkpt lat="39.738747" lon="-8.796714">
        <ele>41.1</ele>
        <time>1970-01-01T02:13:55.000Z</time>
      </trkpt>
      <trkpt lat="39.738775" lon="-8.796761">
        <ele>41.1</ele>
        <time>1970-01-01T02:13:56.000Z</time>
      </trkpt>
      <trkpt lat="39.7388" lon="-8.796791">
        <ele>41.1</ele>
        <time>1970-01-01T02:13:57.000Z</time>
      </trkpt>
      <trkpt lat="39.73883" lon="-8.796846">
        <ele>41.1</ele>
        <time>1970-01-01T02:13:58.000Z</time>
      </trkpt>
      <trkpt lat="39.738858" lon="-8.796904">
        <ele>41.1</ele>
        <time>1970-01-01T02:13:59.000Z</time>
      </trkpt>
      <trkpt lat="39.738879" lon="-8.796949">
        <ele>41.1</ele>
        <time>1970-01-01T02:14:00.000Z</time>
      </trkpt>
      <trkpt lat="39.738914" lon="-8.796999">
        <ele>41.1</ele>
        <time>1970-01-01T02:14:01.000Z</time>
      </trkpt>
      <trkpt lat="39.73894" lon="-8.797049">
        <ele>41.1</ele>
        <time>1970-01-01T02:14:02.000Z</time>
      </trkpt>
      <trkpt lat="39.738975" lon="-8.79711">
        <ele>41.1</ele>
        <time>1970-01-01T02:14:03.000Z</time>
      </trkpt>
      <trkpt lat="39.739003" lon="-8.797169">
        <ele>41</ele>
        <time>1970-01-01T02:14:04.000Z</time>
      </trkpt>
      <trkpt lat="39.739027" lon="-8.797229">
        <ele>41</ele>
        <time>1970-01-01T02:14:05.000Z</time>
      </trkpt>
      <trkpt lat="39.739047" lon="-8.79729">
        <ele>41</ele>
        <time>1970-01-01T02:14:06.000Z</time>
      </trkpt>
      <trkpt lat="39.739075" lon="-8.797367">
        <ele>41.1</ele>
        <time>1970-01-01T02:14:07.000Z</time>
      </trkpt>
      <trkpt lat="39.739086" lon="-8.797446">
        <ele>41.2</ele>
        <time>1970-01-01T02:14:08.000Z</time>
      </trkpt>
      <trkpt lat="39.739092" lon="-8.79751">
        <ele>41.3</ele>
        <time>1970-01-01T02:14:09.000Z</time>
      </trkpt>
      <trkpt lat="39.7391" lon="-8.797563">
        <ele>41.4</ele>
        <time>1970-01-01T02:14:10.000Z</time>
      </trkpt>
      <trkpt lat="39.739111" lon="-8.797616">
        <ele>41.5</ele>
        <time>1970-01-01T02:14:11.000Z</time>
      </trkpt>
      <trkpt lat="39.73912" lon="-8.79766">
        <ele>41.6</ele>
        <time>1970-01-01T02:14:12.000Z</time>
      </trkpt>
      <trkpt lat="39.739123" lon="-8.797709">
        <ele>41.7</ele>
        <time>1970-01-01T02:14:13.000Z</time>
      </trkpt>
      <trkpt lat="39.73914" lon="-8.797758">
        <ele>41.8</ele>
        <time>1970-01-01T02:14:14.000Z</time>
      </trkpt>
      <trkpt lat="39.739152" lon="-8.79779">
        <ele>41.9</ele>
        <time>1970-01-01T02:14:15.000Z</time>
      </trkpt>
      <trkpt lat="39.739159" lon="-8.797833">
        <ele>42</ele>
        <time>1970-01-01T02:14:16.000Z</time>
      </trkpt>
      <trkpt lat="39.73916" lon="-8.797848">
        <ele>42.1</ele>
        <time>1970-01-01T02:14:17.000Z</time>
      </trkpt>
      <trkpt lat="39.739169" lon="-8.797882">
        <ele>42.1</ele>
        <time>1970-01-01T02:14:18.000Z</time>
      </trkpt>
      <trkpt lat="39.739199" lon="-8.797921">
        <ele>42.3</ele>
        <time>1970-01-01T02:14:19.000Z</time>
      </trkpt>
      <trkpt lat="39.73921" lon="-8.797937">
        <ele>42.3</ele>
        <time>1970-01-01T02:14:20.000Z</time>
      </trkpt>
      <trkpt lat="39.739234" lon="-8.797971">
        <ele>42.4</ele>
        <time>1970-01-01T02:14:21.000Z</time>
      </trkpt>
      <trkpt lat="39.73926" lon="-8.798011">
        <ele>42.4</ele>
        <time>1970-01-01T02:14:22.000Z</time>
      </trkpt>
      <trkpt lat="39.739287" lon="-8.798051">
        <ele>42.4</ele>
        <time>1970-01-01T02:14:23.000Z</time>
      </trkpt>
      <trkpt lat="39.739314" lon="-8.798092">
        <ele>42.4</ele>
        <time>1970-01-01T02:14:24.000Z</time>
      </trkpt>
      <trkpt lat="39.739339" lon="-8.798129">
        <ele>42.4</ele>
        <time>1970-01-01T02:14:25.000Z</time>
      </trkpt>
      <trkpt lat="39.739363" lon="-8.798165">
        <ele>42.4</ele>
        <time>1970-01-01T02:14:26.000Z</time>
      </trkpt>
      <trkpt lat="39.739386" lon="-8.798211">
        <ele>42.4</ele>
        <time>1970-01-01T02:14:27.000Z</time>
      </trkpt>
      <trkpt lat="39.739416" lon="-8.798259">
        <ele>42.5</ele>
        <time>1970-01-01T02:14:28.000Z</time>
      </trkpt>
      <trkpt lat="39.739438" lon="-8.798283">
        <ele>42.5</ele>
        <time>1970-01-01T02:14:29.000Z</time>
      </trkpt>
      <trkpt lat="39.739469" lon="-8.79832">
        <ele>42.5</ele>
        <time>1970-01-01T02:14:30.000Z</time>
      </trkpt>
      <trkpt lat="39.739482" lon="-8.798334">
        <ele>42.5</ele>
        <time>1970-01-01T02:14:31.000Z</time>
      </trkpt>
      <trkpt lat="39.739488" lon="-8.798387">
        <ele>42.5</ele>
        <time>1970-01-01T02:14:32.000Z</time>
      </trkpt>
      <trkpt lat="39.739516" lon="-8.79843">
        <ele>42.5</ele>
        <time>1970-01-01T02:14:33.000Z</time>
      </trkpt>
      <trkpt lat="39.739542" lon="-8.798464">
        <ele>42.5</ele>
        <time>1970-01-01T02:14:34.000Z</time>
      </trkpt>
      <trkpt lat="39.739565" lon="-8.798504">
        <ele>42.6</ele>
        <time>1970-01-01T02:14:35.000Z</time>
      </trkpt>
      <trkpt lat="39.739588" lon="-8.798534">
        <ele>42.6</ele>
        <time>1970-01-01T02:14:36.000Z</time>
      </trkpt>
      <trkpt lat="39.73961" lon="-8.798572">
        <ele>42.7</ele>
        <time>1970-01-01T02:14:37.000Z</time>
      </trkpt>
      <trkpt lat="39.739629" lon="-8.798605">
        <ele>42.7</ele>
        <time>1970-01-01T02:14:38.000Z</time>
      </trkpt>
      <trkpt lat="39.739659" lon="-8.798656">
        <ele>42.8</ele>
        <time>1970-01-01T02:14:39.000Z</time>
      </trkpt>
      <trkpt lat="39.739672" lon="-8.79871">
        <ele>42.9</ele>
        <time>1970-01-01T02:14:40.000Z</time>
      </trkpt>
      <trkpt lat="39.739692" lon="-8.79877">
        <ele>43</ele>
        <time>1970-01-01T02:14:41.000Z</time>
      </trkpt>
      <trkpt lat="39.739704" lon="-8.79884">
        <ele>43</ele>
        <time>1970-01-01T02:14:42.000Z</time>
      </trkpt>
      <trkpt lat="39.739729" lon="-8.798921">
        <ele>43</ele>
        <time>1970-01-01T02:14:43.000Z</time>
      </trkpt>
      <trkpt lat="39.739751" lon="-8.798998">
        <ele>42.9</ele>
        <time>1970-01-01T02:14:44.000Z</time>
      </trkpt>
      <trkpt lat="39.739773" lon="-8.799078">
        <ele>42.8</ele>
        <time>1970-01-01T02:14:45.000Z</time>
      </trkpt>
      <trkpt lat="39.739798" lon="-8.799139">
        <ele>42.7</ele>
        <time>1970-01-01T02:14:46.000Z</time>
      </trkpt>
      <trkpt lat="39.739814" lon="-8.799209">
        <ele>42.6</ele>
        <time>1970-01-01T02:14:47.000Z</time>
      </trkpt>
      <trkpt lat="39.739831" lon="-8.79927">
        <ele>42.5</ele>
        <time>1970-01-01T02:14:48.000Z</time>
      </trkpt>
      <trkpt lat="39.739848" lon="-8.799325">
        <ele>42.4</ele>
        <time>1970-01-01T02:14:49.000Z</time>
      </trkpt>
      <trkpt lat="39.73986" lon="-8.799368">
        <ele>42.4</ele>
        <time>1970-01-01T02:14:50.000Z</time>
      </trkpt>
      <trkpt lat="39.73987" lon="-8.799402">
        <ele>42.3</ele>
        <time>1970-01-01T02:14:51.000Z</time>
      </trkpt>
      <trkpt lat="39.739895" lon="-8.799444">
        <ele>42.3</ele>
        <time>1970-01-01T02:14:52.000Z</time>
      </trkpt>
      <trkpt lat="39.73991" lon="-8.799482">
        <ele>42.3</ele>
        <time>1970-01-01T02:14:53.000Z</time>
      </trkpt>
      <trkpt lat="39.739949" lon="-8.799508">
        <ele>42.2</ele>
        <time>1970-01-01T02:14:54.000Z</time>
      </trkpt>
      <trkpt lat="39.739988" lon="-8.79951">
        <ele>42.3</ele>
        <time>1970-01-01T02:14:55.000Z</time>
      </trkpt>
      <trkpt lat="39.740003" lon="-8.799512">
        <ele>42.3</ele>
        <time>1970-01-01T02:14:56.000Z</time>
      </trkpt>
      <trkpt lat="39.740036" lon="-8.799493">
        <ele>42.3</ele>
        <time>1970-01-01T02:14:57.000Z</time>
      </trkpt>
      <trkpt lat="39.740048" lon="-8.799489">
        <ele>42.3</ele>
        <time>1970-01-01T02:14:58.000Z</time>
      </trkpt>
      <trkpt lat="39.740077" lon="-8.799473">
        <ele>42.3</ele>
        <time>1970-01-01T02:14:59.000Z</time>
      </trkpt>
      <trkpt lat="39.740101" lon="-8.799455">
        <ele>42.4</ele>
        <time>1970-01-01T02:15:00.000Z</time>
      </trkpt>
      <trkpt lat="39.740127" lon="-8.799433">
        <ele>42.4</ele>
        <time>1970-01-01T02:15:01.000Z</time>
      </trkpt>
      <trkpt lat="39.740153" lon="-8.799411">
        <ele>42.4</ele>
        <time>1970-01-01T02:15:02.000Z</time>
      </trkpt>
      <trkpt lat="39.740181" lon="-8.799392">
        <ele>42.5</ele>
        <time>1970-01-01T02:15:03.000Z</time>
      </trkpt>
      <trkpt lat="39.740216" lon="-8.799366">
        <ele>42.4</ele>
        <time>1970-01-01T02:15:04.000Z</time>
      </trkpt>
      <trkpt lat="39.740229" lon="-8.799358">
        <ele>42.4</ele>
        <time>1970-01-01T02:15:05.000Z</time>
      </trkpt>
      <trkpt lat="39.740256" lon="-8.799346">
        <ele>42.4</ele>
        <time>1970-01-01T02:15:06.000Z</time>
      </trkpt>
      <trkpt lat="39.740291" lon="-8.799336">
        <ele>42.4</ele>
        <time>1970-01-01T02:15:07.000Z</time>
      </trkpt>
      <trkpt lat="39.740301" lon="-8.799334">
        <ele>42.4</ele>
        <time>1970-01-01T02:15:08.000Z</time>
      </trkpt>
      <trkpt lat="39.740334" lon="-8.799336">
        <ele>42.4</ele>
        <time>1970-01-01T02:15:09.000Z</time>
      </trkpt>
      <trkpt lat="39.740346" lon="-8.799337">
        <ele>42.4</ele>
        <time>1970-01-01T02:15:10.000Z</time>
      </trkpt>
      <trkpt lat="39.74038" lon="-8.799339">
        <ele>42.5</ele>
        <time>1970-01-01T02:15:11.000Z</time>
      </trkpt>
      <trkpt lat="39.740412" lon="-8.799327">
        <ele>42.5</ele>
        <time>1970-01-01T02:15:12.000Z</time>
      </trkpt>
      <trkpt lat="39.740447" lon="-8.799319">
        <ele>42.5</ele>
        <time>1970-01-01T02:15:13.000Z</time>
      </trkpt>
      <trkpt lat="39.740479" lon="-8.799314">
        <ele>42.5</ele>
        <time>1970-01-01T02:15:14.000Z</time>
      </trkpt>
      <trkpt lat="39.740513" lon="-8.799305">
        <ele>42.6</ele>
        <time>1970-01-01T02:15:15.000Z</time>
      </trkpt>
      <trkpt lat="39.740546" lon="-8.799292">
        <ele>42.6</ele>
        <time>1970-01-01T02:15:16.000Z</time>
      </trkpt>
      <trkpt lat="39.740596" lon="-8.799281">
        <ele>42.7</ele>
        <time>1970-01-01T02:15:17.000Z</time>
      </trkpt>
      <trkpt lat="39.74063" lon="-8.799271">
        <ele>42.7</ele>
        <time>1970-01-01T02:15:18.000Z</time>
      </trkpt>
      <trkpt lat="39.740649" lon="-8.799263">
        <ele>42.7</ele>
        <time>1970-01-01T02:15:19.000Z</time>
      </trkpt>
      <trkpt lat="39.740672" lon="-8.799245">
        <ele>42.8</ele>
        <time>1970-01-01T02:15:20.000Z</time>
      </trkpt>
      <trkpt lat="39.740708" lon="-8.799234">
        <ele>42.8</ele>
        <time>1970-01-01T02:15:21.000Z</time>
      </trkpt>
      <trkpt lat="39.740744" lon="-8.799228">
        <ele>42.9</ele>
        <time>1970-01-01T02:15:22.000Z</time>
      </trkpt>
      <trkpt lat="39.740782" lon="-8.799216">
        <ele>43</ele>
        <time>1970-01-01T02:15:23.000Z</time>
      </trkpt>
      <trkpt lat="39.740795" lon="-8.799213">
        <ele>43</ele>
        <time>1970-01-01T02:15:24.000Z</time>
      </trkpt>
      <trkpt lat="39.740821" lon="-8.799196">
        <ele>43.1</ele>
        <time>1970-01-01T02:15:25.000Z</time>
      </trkpt>
      <trkpt lat="39.740852" lon="-8.799184">
        <ele>43.5</ele>
        <time>1970-01-01T02:15:26.000Z</time>
      </trkpt>
      <trkpt lat="39.740885" lon="-8.799152">
        <ele>43.6</ele>
        <time>1970-01-01T02:15:27.000Z</time>
      </trkpt>
      <trkpt lat="39.740895" lon="-8.799137">
        <ele>43.7</ele>
        <time>1970-01-01T02:15:28.000Z</time>
      </trkpt>
      <trkpt lat="39.740915" lon="-8.799102">
        <ele>43.9</ele>
        <time>1970-01-01T02:15:29.000Z</time>
      </trkpt>
      <trkpt lat="39.740928" lon="-8.799066">
        <ele>44</ele>
        <time>1970-01-01T02:15:30.000Z</time>
      </trkpt>
      <trkpt lat="39.740944" lon="-8.799023">
        <ele>44.2</ele>
        <time>1970-01-01T02:15:31.000Z</time>
      </trkpt>
      <trkpt lat="39.74095" lon="-8.799006">
        <ele>44.2</ele>
        <time>1970-01-01T02:15:32.000Z</time>
      </trkpt>
      <trkpt lat="39.740974" lon="-8.798974">
        <ele>44.3</ele>
        <time>1970-01-01T02:15:33.000Z</time>
      </trkpt>
      <trkpt lat="39.740987" lon="-8.798938">
        <ele>44.4</ele>
        <time>1970-01-01T02:15:34.000Z</time>
      </trkpt>
      <trkpt lat="39.741014" lon="-8.798899">
        <ele>44.5</ele>
        <time>1970-01-01T02:15:35.000Z</time>
      </trkpt>
      <trkpt lat="39.741047" lon="-8.798861">
        <ele>44.6</ele>
        <time>1970-01-01T02:15:36.000Z</time>
      </trkpt>
      <trkpt lat="39.741085" lon="-8.79883">
        <ele>44.6</ele>
        <time>1970-01-01T02:15:37.000Z</time>
      </trkpt>
      <trkpt lat="39.741134" lon="-8.798806">
        <ele>44.7</ele>
        <time>1970-01-01T02:15:38.000Z</time>
      </trkpt>
      <trkpt lat="39.741184" lon="-8.798787">
        <ele>44.9</ele>
        <time>1970-01-01T02:15:39.000Z</time>
      </trkpt>
      <trkpt lat="39.74123" lon="-8.798776">
        <ele>45.4</ele>
        <time>1970-01-01T02:15:40.000Z</time>
      </trkpt>
      <trkpt lat="39.741278" lon="-8.798767">
        <ele>45.7</ele>
        <time>1970-01-01T02:15:41.000Z</time>
      </trkpt>
      <trkpt lat="39.741318" lon="-8.798749">
        <ele>46.1</ele>
        <time>1970-01-01T02:15:42.000Z</time>
      </trkpt>
      <trkpt lat="39.741348" lon="-8.798724">
        <ele>46.4</ele>
        <time>1970-01-01T02:15:43.000Z</time>
      </trkpt>
      <trkpt lat="39.741377" lon="-8.798703">
        <ele>46.7</ele>
        <time>1970-01-01T02:15:44.000Z</time>
      </trkpt>
      <trkpt lat="39.741408" lon="-8.798687">
        <ele>47</ele>
        <time>1970-01-01T02:15:45.000Z</time>
      </trkpt>
      <trkpt lat="39.741434" lon="-8.798668">
        <ele>47.2</ele>
        <time>1970-01-01T02:15:46.000Z</time>
      </trkpt>
      <trkpt lat="39.741461" lon="-8.798647">
        <ele>47.5</ele>
        <time>1970-01-01T02:15:47.000Z</time>
      </trkpt>
      <trkpt lat="39.741486" lon="-8.798629">
        <ele>47.8</ele>
        <time>1970-01-01T02:15:48.000Z</time>
      </trkpt>
      <trkpt lat="39.741517" lon="-8.798608">
        <ele>48.1</ele>
        <time>1970-01-01T02:15:49.000Z</time>
      </trkpt>
      <trkpt lat="39.741526" lon="-8.798606">
        <ele>48.1</ele>
        <time>1970-01-01T02:15:50.000Z</time>
      </trkpt>
      <trkpt lat="39.741562" lon="-8.798588">
        <ele>48.2</ele>
        <time>1970-01-01T02:15:51.000Z</time>
      </trkpt>
      <trkpt lat="39.741573" lon="-8.79858">
        <ele>48.3</ele>
        <time>1970-01-01T02:15:52.000Z</time>
      </trkpt>
      <trkpt lat="39.741597" lon="-8.798555">
        <ele>48.3</ele>
        <time>1970-01-01T02:15:53.000Z</time>
      </trkpt>
      <trkpt lat="39.741624" lon="-8.798536">
        <ele>48.4</ele>
        <time>1970-01-01T02:15:54.000Z</time>
      </trkpt>
      <trkpt lat="39.741638" lon="-8.798533">
        <ele>48.5</ele>
        <time>1970-01-01T02:15:55.000Z</time>
      </trkpt>
      <trkpt lat="39.74165" lon="-8.798524">
        <ele>48.5</ele>
        <time>1970-01-01T02:15:56.000Z</time>
      </trkpt>
      <trkpt lat="39.741661" lon="-8.798517">
        <ele>48.5</ele>
        <time>1970-01-01T02:15:57.000Z</time>
      </trkpt>
      <trkpt lat="39.74167" lon="-8.798507">
        <ele>48.5</ele>
        <time>1970-01-01T02:15:58.000Z</time>
      </trkpt>
      <trkpt lat="39.741665" lon="-8.798505">
        <ele>48.6</ele>
        <time>1970-01-01T02:15:59.000Z</time>
      </trkpt>
      <trkpt lat="39.741658" lon="-8.798504">
        <ele>48.6</ele>
        <time>1970-01-01T02:16:00.000Z</time>
      </trkpt>
      <trkpt lat="39.741653" lon="-8.798501">
        <ele>48.6</ele>
        <time>1970-01-01T02:16:01.000Z</time>
      </trkpt>
      <trkpt lat="39.741651" lon="-8.798499">
        <ele>48.6</ele>
        <time>1970-01-01T02:16:02.000Z</time>
      </trkpt>
      <trkpt lat="39.741658" lon="-8.798511">
        <ele>48.6</ele>
        <time>1970-01-01T02:16:03.000Z</time>
      </trkpt>
      <trkpt lat="39.741654" lon="-8.798504">
        <ele>48.6</ele>
        <time>1970-01-01T02:16:04.000Z</time>
      </trkpt>
      <trkpt lat="39.741653" lon="-8.798503">
        <ele>48.6</ele>
        <time>1970-01-01T02:16:05.000Z</time>
      </trkpt>
      <trkpt lat="39.741658" lon="-8.798505">
        <ele>48.7</ele>
        <time>1970-01-01T02:16:06.000Z</time>
      </trkpt>
      <trkpt lat="39.74168" lon="-8.798517">
        <ele>48.7</ele>
        <time>1970-01-01T02:16:07.000Z</time>
      </trkpt>
      <trkpt lat="39.741703" lon="-8.798537">
        <ele>48.8</ele>
        <time>1970-01-01T02:16:08.000Z</time>
      </trkpt>
      <trkpt lat="39.741707" lon="-8.79854">
        <ele>48.8</ele>
        <time>1970-01-01T02:16:09.000Z</time>
      </trkpt>
      <trkpt lat="39.741711" lon="-8.798543">
        <ele>48.8</ele>
        <time>1970-01-01T02:16:10.000Z</time>
      </trkpt>
      <trkpt lat="39.741726" lon="-8.798543">
        <ele>48.8</ele>
        <time>1970-01-01T02:16:11.000Z</time>
      </trkpt>
      <trkpt lat="39.741725" lon="-8.798547">
        <ele>48.8</ele>
        <time>1970-01-01T02:16:12.000Z</time>
      </trkpt>
      <trkpt lat="39.741726" lon="-8.798536">
        <ele>48.9</ele>
        <time>1970-01-01T02:16:13.000Z</time>
      </trkpt>
      <trkpt lat="39.741728" lon="-8.798533">
        <ele>48.9</ele>
        <time>1970-01-01T02:16:14.000Z</time>
      </trkpt>
      <trkpt lat="39.741741" lon="-8.79854">
        <ele>48.9</ele>
        <time>1970-01-01T02:16:15.000Z</time>
      </trkpt>
      <trkpt lat="39.741751" lon="-8.798539">
        <ele>48.9</ele>
        <time>1970-01-01T02:16:16.000Z</time>
      </trkpt>
      <trkpt lat="39.741755" lon="-8.798536">
        <ele>48.9</ele>
        <time>1970-01-01T02:16:17.000Z</time>
      </trkpt>
      <trkpt lat="39.74176" lon="-8.798521">
        <ele>49</ele>
        <time>1970-01-01T02:16:18.000Z</time>
      </trkpt>
      <trkpt lat="39.741771" lon="-8.798529">
        <ele>49</ele>
        <time>1970-01-01T02:16:19.000Z</time>
      </trkpt>
      <trkpt lat="39.741779" lon="-8.798537">
        <ele>49</ele>
        <time>1970-01-01T02:16:20.000Z</time>
      </trkpt>
      <trkpt lat="39.74179" lon="-8.798548">
        <ele>49.1</ele>
        <time>1970-01-01T02:16:21.000Z</time>
      </trkpt>
      <trkpt lat="39.741797" lon="-8.798555">
        <ele>49.1</ele>
        <time>1970-01-01T02:16:22.000Z</time>
      </trkpt>
      <trkpt lat="39.741805" lon="-8.798568">
        <ele>49.1</ele>
        <time>1970-01-01T02:16:23.000Z</time>
      </trkpt>
      <trkpt lat="39.741805" lon="-8.798565">
        <ele>49.1</ele>
        <time>1970-01-01T02:16:24.000Z</time>
      </trkpt>
      <trkpt lat="39.741805" lon="-8.798561">
        <ele>49.1</ele>
        <time>1970-01-01T02:16:25.000Z</time>
      </trkpt>
      <trkpt lat="39.741806" lon="-8.798558">
        <ele>49.1</ele>
        <time>1970-01-01T02:16:26.000Z</time>
      </trkpt>
      <trkpt lat="39.741806" lon="-8.798554">
        <ele>49.1</ele>
        <time>1970-01-01T02:16:27.000Z</time>
      </trkpt>
      <trkpt lat="39.741806" lon="-8.79855">
        <ele>49.2</ele>
        <time>1970-01-01T02:16:28.000Z</time>
      </trkpt>
      <trkpt lat="39.741806" lon="-8.798547">
        <ele>49.2</ele>
        <time>1970-01-01T02:16:29.000Z</time>
      </trkpt>
      <trkpt lat="39.741806" lon="-8.798543">
        <ele>49.2</ele>
        <time>1970-01-01T02:16:30.000Z</time>
      </trkpt>
      <trkpt lat="39.741806" lon="-8.798539">
        <ele>49.2</ele>
        <time>1970-01-01T02:16:31.000Z</time>
      </trkpt>
      <trkpt lat="39.741806" lon="-8.798536">
        <ele>49.2</ele>
        <time>1970-01-01T02:16:32.000Z</time>
      </trkpt>
      <trkpt lat="39.741806" lon="-8.798532">
        <ele>49.2</ele>
        <time>1970-01-01T02:16:33.000Z</time>
      </trkpt>
      <trkpt lat="39.741807" lon="-8.798529">
        <ele>49.2</ele>
        <time>1970-01-01T02:16:34.000Z</time>
      </trkpt>
      <trkpt lat="39.741807" lon="-8.798525">
        <ele>49.2</ele>
        <time>1970-01-01T02:16:35.000Z</time>
      </trkpt>
      <trkpt lat="39.741807" lon="-8.798521">
        <ele>49.2</ele>
        <time>1970-01-01T02:16:36.000Z</time>
      </trkpt>
      <trkpt lat="39.741807" lon="-8.798518">
        <ele>49.2</ele>
        <time>1970-01-01T02:16:37.000Z</time>
      </trkpt>
      <trkpt lat="39.741807" lon="-8.798514">
        <ele>49.2</ele>
        <time>1970-01-01T02:16:38.000Z</time>
      </trkpt>
      <trkpt lat="39.741807" lon="-8.79851">
        <ele>49.2</ele>
        <time>1970-01-01T02:18:40.000Z</time>
      </trkpt>
      <trkpt lat="39.741807" lon="-8.798507">
        <ele>49.2</ele>
        <time>1970-01-01T02:18:41.000Z</time>
      </trkpt>
      <trkpt lat="39.741807" lon="-8.798503">
        <ele>49.2</ele>
        <time>1970-01-01T02:18:42.000Z</time>
      </trkpt>
      <trkpt lat="39.741808" lon="-8.7985">
        <ele>49.3</ele>
        <time>1970-01-01T02:18:43.000Z</time>
      </trkpt>
      <trkpt lat="39.741808" lon="-8.798496">
        <ele>49.3</ele>
        <time>1970-01-01T02:18:44.000Z</time>
      </trkpt>
      <trkpt lat="39.741808" lon="-8.798492">
        <ele>49.3</ele>
        <time>1970-01-01T02:18:45.000Z</time>
      </trkpt>
      <trkpt lat="39.741808" lon="-8.798489">
        <ele>49.3</ele>
        <time>1970-01-01T02:18:46.000Z</time>
      </trkpt>
      <trkpt lat="39.741808" lon="-8.798485">
        <ele>49.3</ele>
        <time>1970-01-01T02:18:47.000Z</time>
      </trkpt>
      <trkpt lat="39.741802" lon="-8.798484">
        <ele>49.3</ele>
        <time>1970-01-01T02:18:48.000Z</time>
      </trkpt>
      <trkpt lat="39.741805" lon="-8.798492">
        <ele>49.3</ele>
        <time>1970-01-01T02:18:49.000Z</time>
      </trkpt>
      <trkpt lat="39.741807" lon="-8.7985">
        <ele>49.3</ele>
        <time>1970-01-01T02:18:50.000Z</time>
      </trkpt>
      <trkpt lat="39.741809" lon="-8.798509">
        <ele>49.3</ele>
        <time>1970-01-01T02:18:51.000Z</time>
      </trkpt>
      <trkpt lat="39.741811" lon="-8.798517">
        <ele>49.4</ele>
        <time>1970-01-01T02:18:52.000Z</time>
      </trkpt>
      <trkpt lat="39.741814" lon="-8.798525">
        <ele>49.4</ele>
        <time>1970-01-01T02:18:53.000Z</time>
      </trkpt>
      <trkpt lat="39.741816" lon="-8.798533">
        <ele>49.4</ele>
        <time>1970-01-01T02:18:54.000Z</time>
      </trkpt>
      <trkpt lat="39.741799" lon="-8.798529">
        <ele>49.4</ele>
        <time>1970-01-01T02:18:55.000Z</time>
      </trkpt>
      <trkpt lat="39.741787" lon="-8.798525">
        <ele>49.5</ele>
        <time>1970-01-01T02:18:56.000Z</time>
      </trkpt>
      <trkpt lat="39.741774" lon="-8.798522">
        <ele>49.5</ele>
        <time>1970-01-01T02:18:57.000Z</time>
      </trkpt>
      <trkpt lat="39.741762" lon="-8.798518">
        <ele>49.5</ele>
        <time>1970-01-01T02:20:47.000Z</time>
      </trkpt>
      <trkpt lat="39.74175" lon="-8.798514">
        <ele>49.6</ele>
        <time>1970-01-01T02:20:48.000Z</time>
      </trkpt>
      <trkpt lat="39.741738" lon="-8.79851">
        <ele>49.6</ele>
        <time>1970-01-01T02:20:49.000Z</time>
      </trkpt>
      <trkpt lat="39.741725" lon="-8.798507">
        <ele>49.6</ele>
        <time>1970-01-01T02:20:50.000Z</time>
      </trkpt>
      <trkpt lat="39.741713" lon="-8.798503">
        <ele>49.7</ele>
        <time>1970-01-01T02:20:51.000Z</time>
      </trkpt>
      <trkpt lat="39.741701" lon="-8.798499">
        <ele>49.7</ele>
        <time>1970-01-01T02:20:52.000Z</time>
      </trkpt>
      <trkpt lat="39.74167" lon="-8.798505">
        <ele>49.8</ele>
        <time>1970-01-01T02:20:53.000Z</time>
      </trkpt>
      <trkpt lat="39.741651" lon="-8.798514">
        <ele>49.8</ele>
        <time>1970-01-01T02:20:54.000Z</time>
      </trkpt>
      <trkpt lat="39.741645" lon="-8.79852">
        <ele>49.9</ele>
        <time>1970-01-01T02:20:55.000Z</time>
      </trkpt>
      <trkpt lat="39.741638" lon="-8.798526">
        <ele>49.9</ele>
        <time>1970-01-01T02:20:56.000Z</time>
      </trkpt>
      <trkpt lat="39.741632" lon="-8.798532">
        <ele>49.9</ele>
        <time>1970-01-01T02:20:57.000Z</time>
      </trkpt>
      <trkpt lat="39.741625" lon="-8.798538">
        <ele>49.9</ele>
        <time>1970-01-01T02:20:58.000Z</time>
      </trkpt>
      <trkpt lat="39.741612" lon="-8.798542">
        <ele>50</ele>
        <time>1970-01-01T02:20:59.000Z</time>
      </trkpt>
      <trkpt lat="39.741604" lon="-8.798548">
        <ele>50</ele>
        <time>1970-01-01T02:21:00.000Z</time>
      </trkpt>
      <trkpt lat="39.741595" lon="-8.798553">
        <ele>50</ele>
        <time>1970-01-01T02:21:01.000Z</time>
      </trkpt>
      <trkpt lat="39.741581" lon="-8.798559">
        <ele>50.1</ele>
        <time>1970-01-01T02:21:02.000Z</time>
      </trkpt>
      <trkpt lat="39.741565" lon="-8.798567">
        <ele>50.1</ele>
        <time>1970-01-01T02:21:03.000Z</time>
      </trkpt>
      <trkpt lat="39.741608" lon="-8.798602">
        <ele>50.2</ele>
        <time>1970-01-01T02:21:04.000Z</time>
      </trkpt>
      <trkpt lat="39.7416" lon="-8.798611">
        <ele>50.3</ele>
        <time>1970-01-01T02:21:05.000Z</time>
      </trkpt>
      <trkpt lat="39.741593" lon="-8.798619">
        <ele>50.3</ele>
        <time>1970-01-01T02:21:06.000Z</time>
      </trkpt>
      <trkpt lat="39.741599" lon="-8.798619">
        <ele>50.3</ele>
        <time>1970-01-01T02:21:07.000Z</time>
      </trkpt>
      <trkpt lat="39.74159" lon="-8.798627">
        <ele>50.3</ele>
        <time>1970-01-01T02:21:08.000Z</time>
      </trkpt>
      <trkpt lat="39.741583" lon="-8.798633">
        <ele>50.4</ele>
        <time>1970-01-01T02:21:09.000Z</time>
      </trkpt>
      <trkpt lat="39.741575" lon="-8.798642">
        <ele>50.4</ele>
        <time>1970-01-01T02:21:10.000Z</time>
      </trkpt>
      <trkpt lat="39.741568" lon="-8.79865">
        <ele>50.4</ele>
        <time>1970-01-01T02:21:12.000Z</time>
      </trkpt>
      <trkpt lat="39.741561" lon="-8.798658">
        <ele>50.4</ele>
        <time>1970-01-01T02:21:13.000Z</time>
      </trkpt>
      <trkpt lat="39.741556" lon="-8.798632">
        <ele>50.5</ele>
        <time>1970-01-01T02:21:14.000Z</time>
      </trkpt>
      <trkpt lat="39.741556" lon="-8.7986">
        <ele>50.5</ele>
        <time>1970-01-01T02:21:15.000Z</time>
      </trkpt>
      <trkpt lat="39.741557" lon="-8.798569">
        <ele>50.6</ele>
        <time>1970-01-01T02:22:41.000Z</time>
      </trkpt>
      <trkpt lat="39.741558" lon="-8.798537">
        <ele>50.7</ele>
        <time>1970-01-01T02:22:42.000Z</time>
      </trkpt>
      <trkpt lat="39.741558" lon="-8.798505">
        <ele>50.7</ele>
        <time>1970-01-01T02:22:43.000Z</time>
      </trkpt>
      <trkpt lat="39.741559" lon="-8.798473">
        <ele>50.8</ele>
        <time>1970-01-01T02:22:44.000Z</time>
      </trkpt>
      <trkpt lat="39.741596" lon="-8.798484">
        <ele>50.9</ele>
        <time>1970-01-01T02:22:45.000Z</time>
      </trkpt>
      <trkpt lat="39.74161" lon="-8.79848">
        <ele>50.9</ele>
        <time>1970-01-01T02:22:46.000Z</time>
      </trkpt>
      <trkpt lat="39.741609" lon="-8.798473">
        <ele>51</ele>
        <time>1970-01-01T02:22:47.000Z</time>
      </trkpt>
      <trkpt lat="39.741606" lon="-8.798471">
        <ele>51</ele>
        <time>1970-01-01T02:22:48.000Z</time>
      </trkpt>
      <trkpt lat="39.741606" lon="-8.798464">
        <ele>51</ele>
        <time>1970-01-01T02:22:50.000Z</time>
      </trkpt>
      <trkpt lat="39.741622" lon="-8.798508">
        <ele>51.1</ele>
        <time>1970-01-01T02:22:51.000Z</time>
      </trkpt>
      <trkpt lat="39.741609" lon="-8.798513">
        <ele>51.1</ele>
        <time>1970-01-01T02:22:52.000Z</time>
      </trkpt>
      <trkpt lat="39.741594" lon="-8.798513">
        <ele>51.2</ele>
        <time>1970-01-01T02:22:53.000Z</time>
      </trkpt>
      <trkpt lat="39.74162" lon="-8.79851">
        <ele>51.2</ele>
        <time>1970-01-01T02:22:54.000Z</time>
      </trkpt>
      <trkpt lat="39.74165" lon="-8.798509">
        <ele>51.3</ele>
        <time>1970-01-01T02:22:55.000Z</time>
      </trkpt>
      <trkpt lat="39.74168" lon="-8.798509">
        <ele>51.4</ele>
        <time>1970-01-01T02:23:34.000Z</time>
      </trkpt>
      <trkpt lat="39.74171" lon="-8.798509">
        <ele>51.5</ele>
        <time>1970-01-01T02:23:35.000Z</time>
      </trkpt>
      <trkpt lat="39.741741" lon="-8.798509">
        <ele>51.6</ele>
        <time>1970-01-01T02:23:36.000Z</time>
      </trkpt>
      <trkpt lat="39.741771" lon="-8.798508">
        <ele>51.6</ele>
        <time>1970-01-01T02:23:37.000Z</time>
      </trkpt>
      <trkpt lat="39.741801" lon="-8.798508">
        <ele>51.7</ele>
        <time>1970-01-01T02:23:38.000Z</time>
      </trkpt>
      <trkpt lat="39.741831" lon="-8.798508">
        <ele>51.8</ele>
        <time>1970-01-01T02:23:39.000Z</time>
      </trkpt>
      <trkpt lat="39.741861" lon="-8.798507">
        <ele>51.9</ele>
        <time>1970-01-01T02:23:40.000Z</time>
      </trkpt>
      <trkpt lat="39.741891" lon="-8.798507">
        <ele>52</ele>
        <time>1970-01-01T02:23:41.000Z</time>
      </trkpt>
      <trkpt lat="39.741915" lon="-8.798523">
        <ele>52</ele>
        <time>1970-01-01T02:23:42.000Z</time>
      </trkpt>
      <trkpt lat="39.741928" lon="-8.798519">
        <ele>52.1</ele>
        <time>1970-01-01T02:23:43.000Z</time>
      </trkpt>
      <trkpt lat="39.741896" lon="-8.798539">
        <ele>52.1</ele>
        <time>1970-01-01T02:23:44.000Z</time>
      </trkpt>
      <trkpt lat="39.741864" lon="-8.798559">
        <ele>52.2</ele>
        <time>1970-01-01T02:28:39.000Z</time>
      </trkpt>
      <trkpt lat="39.741832" lon="-8.798579">
        <ele>52.3</ele>
        <time>1970-01-01T02:28:40.000Z</time>
      </trkpt>
      <trkpt lat="39.741857" lon="-8.798548">
        <ele>52.4</ele>
        <time>1970-01-01T02:28:41.000Z</time>
      </trkpt>
      <trkpt lat="39.741867" lon="-8.79854">
        <ele>52.4</ele>
        <time>1970-01-01T02:28:42.000Z</time>
      </trkpt>
      <trkpt lat="39.741899" lon="-8.798521">
        <ele>52.5</ele>
        <time>1970-01-01T02:28:43.000Z</time>
      </trkpt>
      <trkpt lat="39.74191" lon="-8.798513">
        <ele>52.6</ele>
        <time>1970-01-01T02:28:44.000Z</time>
      </trkpt>
      <trkpt lat="39.741922" lon="-8.798512">
        <ele>52.6</ele>
        <time>1970-01-01T02:28:45.000Z</time>
      </trkpt>
      <trkpt lat="39.74193" lon="-8.798513">
        <ele>52.6</ele>
        <time>1970-01-01T02:28:46.000Z</time>
      </trkpt>
      <trkpt lat="39.741942" lon="-8.798513">
        <ele>52.7</ele>
        <time>1970-01-01T02:28:47.000Z</time>
      </trkpt>
      <trkpt lat="39.741962" lon="-8.798502">
        <ele>52.7</ele>
        <time>1970-01-01T02:28:48.000Z</time>
      </trkpt>
      <trkpt lat="39.741972" lon="-8.798495">
        <ele>52.7</ele>
        <time>1970-01-01T02:28:49.000Z</time>
      </trkpt>
      <trkpt lat="39.741981" lon="-8.798488">
        <ele>52.8</ele>
        <time>1970-01-01T02:28:50.000Z</time>
      </trkpt>
      <trkpt lat="39.742001" lon="-8.798474">
        <ele>52.8</ele>
        <time>1970-01-01T02:28:51.000Z</time>
      </trkpt>
      <trkpt lat="39.742011" lon="-8.798465">
        <ele>52.8</ele>
        <time>1970-01-01T02:28:52.000Z</time>
      </trkpt>
      <trkpt lat="39.74202" lon="-8.798457">
        <ele>52.9</ele>
        <time>1970-01-01T02:28:53.000Z</time>
      </trkpt>
      <trkpt lat="39.742038" lon="-8.798448">
        <ele>52.9</ele>
        <time>1970-01-01T02:28:54.000Z</time>
      </trkpt>
      <trkpt lat="39.742047" lon="-8.798438">
        <ele>53</ele>
        <time>1970-01-01T02:28:56.000Z</time>
      </trkpt>
      <trkpt lat="39.742055" lon="-8.798432">
        <ele>53</ele>
        <time>1970-01-01T02:28:57.000Z</time>
      </trkpt>
      <trkpt lat="39.742064" lon="-8.798422">
        <ele>53</ele>
        <time>1970-01-01T02:28:58.000Z</time>
      </trkpt>
      <trkpt lat="39.742078" lon="-8.798417">
        <ele>53</ele>
        <time>1970-01-01T02:28:59.000Z</time>
      </trkpt>
      <trkpt lat="39.742086" lon="-8.798405">
        <ele>53.1</ele>
        <time>1970-01-01T02:29:00.000Z</time>
      </trkpt>
      <trkpt lat="39.742092" lon="-8.798395">
        <ele>53.1</ele>
        <time>1970-01-01T02:29:01.000Z</time>
      </trkpt>
      <trkpt lat="39.742096" lon="-8.798379">
        <ele>53</ele>
        <time>1970-01-01T02:29:02.000Z</time>
      </trkpt>
      <trkpt lat="39.742102" lon="-8.798373">
        <ele>53</ele>
        <time>1970-01-01T02:29:03.000Z</time>
      </trkpt>
      <trkpt lat="39.742096" lon="-8.79837">
        <ele>52.9</ele>
        <time>1970-01-01T02:29:04.000Z</time>
      </trkpt>
      <trkpt lat="39.742095" lon="-8.79837">
        <ele>52.9</ele>
        <time>1970-01-01T02:29:05.000Z</time>
      </trkpt>
      <trkpt lat="39.7421" lon="-8.798363">
        <ele>52.9</ele>
        <time>1970-01-01T02:29:06.000Z</time>
      </trkpt>
      <trkpt lat="39.742098" lon="-8.798356">
        <ele>52.8</ele>
        <time>1970-01-01T02:29:07.000Z</time>
      </trkpt>
      <trkpt lat="39.742085" lon="-8.798355">
        <ele>52.7</ele>
        <time>1970-01-01T02:29:08.000Z</time>
      </trkpt>
      <trkpt lat="39.742081" lon="-8.798356">
        <ele>52.7</ele>
        <time>1970-01-01T02:29:10.000Z</time>
      </trkpt>
      <trkpt lat="39.742056" lon="-8.79835">
        <ele>52.5</ele>
        <time>1970-01-01T02:29:12.000Z</time>
      </trkpt>
      <trkpt lat="39.742031" lon="-8.79836">
        <ele>52.3</ele>
        <time>1970-01-01T02:29:13.000Z</time>
      </trkpt>
      <trkpt lat="39.742005" lon="-8.798373">
        <ele>52.1</ele>
        <time>1970-01-01T02:29:14.000Z</time>
      </trkpt>
      <trkpt lat="39.741977" lon="-8.798394">
        <ele>51.9</ele>
        <time>1970-01-01T02:29:15.000Z</time>
      </trkpt>
      <trkpt lat="39.741941" lon="-8.79842">
        <ele>51.5</ele>
        <time>1970-01-01T02:29:16.000Z</time>
      </trkpt>
      <trkpt lat="39.7419" lon="-8.798451">
        <ele>51.2</ele>
        <time>1970-01-01T02:29:17.000Z</time>
      </trkpt>
      <trkpt lat="39.741857" lon="-8.798481">
        <ele>50.8</ele>
        <time>1970-01-01T02:29:18.000Z</time>
      </trkpt>
      <trkpt lat="39.741811" lon="-8.798509">
        <ele>50.4</ele>
        <time>1970-01-01T02:29:19.000Z</time>
      </trkpt>
      <trkpt lat="39.741763" lon="-8.798541">
        <ele>50</ele>
        <time>1970-01-01T02:29:20.000Z</time>
      </trkpt>
      <trkpt lat="39.741714" lon="-8.798574">
        <ele>49.5</ele>
        <time>1970-01-01T02:29:21.000Z</time>
      </trkpt>
      <trkpt lat="39.741667" lon="-8.798611">
        <ele>49.1</ele>
        <time>1970-01-01T02:29:22.000Z</time>
      </trkpt>
      <trkpt lat="39.741619" lon="-8.798648">
        <ele>48.7</ele>
        <time>1970-01-01T02:29:23.000Z</time>
      </trkpt>
      <trkpt lat="39.74159" lon="-8.798687">
        <ele>48.4</ele>
        <time>1970-01-01T02:29:24.000Z</time>
      </trkpt>
      <trkpt lat="39.741532" lon="-8.798722">
        <ele>47.9</ele>
        <time>1970-01-01T02:29:25.000Z</time>
      </trkpt>
      <trkpt lat="39.741491" lon="-8.798772">
        <ele>47.6</ele>
        <time>1970-01-01T02:29:26.000Z</time>
      </trkpt>
      <trkpt lat="39.741464" lon="-8.798839">
        <ele>47.3</ele>
        <time>1970-01-01T02:29:27.000Z</time>
      </trkpt>
      <trkpt lat="39.741449" lon="-8.7989">
        <ele>47.1</ele>
        <time>1970-01-01T02:29:28.000Z</time>
      </trkpt>
      <trkpt lat="39.741446" lon="-8.798939">
        <ele>46.9</ele>
        <time>1970-01-01T02:29:29.000Z</time>
      </trkpt>
      <trkpt lat="39.741431" lon="-8.798969">
        <ele>46.8</ele>
        <time>1970-01-01T02:29:30.000Z</time>
      </trkpt>
      <trkpt lat="39.741421" lon="-8.798986">
        <ele>46.7</ele>
        <time>1970-01-01T02:29:31.000Z</time>
      </trkpt>
      <trkpt lat="39.74142" lon="-8.798997">
        <ele>46.6</ele>
        <time>1970-01-01T02:29:32.000Z</time>
      </trkpt>
      <trkpt lat="39.741424" lon="-8.798996">
        <ele>46.6</ele>
        <time>1970-01-01T02:29:33.000Z</time>
      </trkpt>
      <trkpt lat="39.741429" lon="-8.798993">
        <ele>46.6</ele>
        <time>1970-01-01T02:29:34.000Z</time>
      </trkpt>
      <trkpt lat="39.741432" lon="-8.798993">
        <ele>46.6</ele>
        <time>1970-01-01T02:29:35.000Z</time>
      </trkpt>
      <trkpt lat="39.741431" lon="-8.798993">
        <ele>46.6</ele>
        <time>1970-01-01T02:29:36.000Z</time>
      </trkpt>
      <trkpt lat="39.741436" lon="-8.798994">
        <ele>46.5</ele>
        <time>1970-01-01T02:29:37.000Z</time>
      </trkpt>
      <trkpt lat="39.74144" lon="-8.798993">
        <ele>46.5</ele>
        <time>1970-01-01T02:29:38.000Z</time>
      </trkpt>
      <trkpt lat="39.741446" lon="-8.798994">
        <ele>46.5</ele>
        <time>1970-01-01T02:29:39.000Z</time>
      </trkpt>
      <trkpt lat="39.741448" lon="-8.798994">
        <ele>46.5</ele>
        <time>1970-01-01T02:29:40.000Z</time>
      </trkpt>
      <trkpt lat="39.741451" lon="-8.798993">
        <ele>46.4</ele>
        <time>1970-01-01T02:29:41.000Z</time>
      </trkpt>
      <trkpt lat="39.741434" lon="-8.799019">
        <ele>46.3</ele>
        <time>1970-01-01T02:29:42.000Z</time>
      </trkpt>
      <trkpt lat="39.741427" lon="-8.799033">
        <ele>46.2</ele>
        <time>1970-01-01T02:29:43.000Z</time>
      </trkpt>
      <trkpt lat="39.741414" lon="-8.799071">
        <ele>46.1</ele>
        <time>1970-01-01T02:29:44.000Z</time>
      </trkpt>
      <trkpt lat="39.741395" lon="-8.799131">
        <ele>45.9</ele>
        <time>1970-01-01T02:29:45.000Z</time>
      </trkpt>
      <trkpt lat="39.741372" lon="-8.799192">
        <ele>46.1</ele>
        <time>1970-01-01T02:29:46.000Z</time>
      </trkpt>
      <trkpt lat="39.74133" lon="-8.799245">
        <ele>46.2</ele>
        <time>1970-01-01T02:29:47.000Z</time>
      </trkpt>
      <trkpt lat="39.741277" lon="-8.799278">
        <ele>46.3</ele>
        <time>1970-01-01T02:29:48.000Z</time>
      </trkpt>
      <trkpt lat="39.741221" lon="-8.799291">
        <ele>46.3</ele>
        <time>1970-01-01T02:29:49.000Z</time>
      </trkpt>
      <trkpt lat="39.741155" lon="-8.799294">
        <ele>46.4</ele>
        <time>1970-01-01T02:29:50.000Z</time>
      </trkpt>
      <trkpt lat="39.741084" lon="-8.799291">
        <ele>46</ele>
        <time>1970-01-01T02:29:51.000Z</time>
      </trkpt>
      <trkpt lat="39.741018" lon="-8.799295">
        <ele>45.1</ele>
        <time>1970-01-01T02:29:52.000Z</time>
      </trkpt>
      <trkpt lat="39.74094" lon="-8.799314">
        <ele>44.1</ele>
        <time>1970-01-01T02:29:53.000Z</time>
      </trkpt>
      <trkpt lat="39.740862" lon="-8.799331">
        <ele>43.2</ele>
        <time>1970-01-01T02:29:54.000Z</time>
      </trkpt>
      <trkpt lat="39.740786" lon="-8.799345">
        <ele>43</ele>
        <time>1970-01-01T02:29:55.000Z</time>
      </trkpt>
      <trkpt lat="39.740705" lon="-8.799361">
        <ele>42.8</ele>
        <time>1970-01-01T02:29:56.000Z</time>
      </trkpt>
      <trkpt lat="39.740625" lon="-8.799369">
        <ele>42.7</ele>
        <time>1970-01-01T02:29:57.000Z</time>
      </trkpt>
      <trkpt lat="39.740549" lon="-8.799378">
        <ele>42.6</ele>
        <time>1970-01-01T02:29:58.000Z</time>
      </trkpt>
      <trkpt lat="39.740475" lon="-8.799392">
        <ele>42.5</ele>
        <time>1970-01-01T02:29:59.000Z</time>
      </trkpt>
      <trkpt lat="39.740407" lon="-8.799404">
        <ele>42.5</ele>
        <time>1970-01-01T02:30:00.000Z</time>
      </trkpt>
      <trkpt lat="39.740354" lon="-8.79942">
        <ele>42.4</ele>
        <time>1970-01-01T02:30:01.000Z</time>
      </trkpt>
      <trkpt lat="39.740317" lon="-8.799448">
        <ele>42.4</ele>
        <time>1970-01-01T02:30:02.000Z</time>
      </trkpt>
      <trkpt lat="39.740297" lon="-8.79948">
        <ele>42.4</ele>
        <time>1970-01-01T02:30:03.000Z</time>
      </trkpt>
      <trkpt lat="39.740293" lon="-8.799486">
        <ele>42.4</ele>
        <time>1970-01-01T02:30:04.000Z</time>
      </trkpt>
      <trkpt lat="39.740291" lon="-8.799506">
        <ele>42.4</ele>
        <time>1970-01-01T02:30:05.000Z</time>
      </trkpt>
      <trkpt lat="39.740289" lon="-8.799523">
        <ele>42.4</ele>
        <time>1970-01-01T02:30:06.000Z</time>
      </trkpt>
      <trkpt lat="39.740296" lon="-8.799533">
        <ele>42.3</ele>
        <time>1970-01-01T02:30:07.000Z</time>
      </trkpt>
      <trkpt lat="39.74032" lon="-8.799536">
        <ele>42.3</ele>
        <time>1970-01-01T02:30:08.000Z</time>
      </trkpt>
      <trkpt lat="39.740355" lon="-8.799536">
        <ele>42.2</ele>
        <time>1970-01-01T02:30:09.000Z</time>
      </trkpt>
      <trkpt lat="39.740395" lon="-8.799539">
        <ele>42.2</ele>
        <time>1970-01-01T02:30:10.000Z</time>
      </trkpt>
      <trkpt lat="39.740441" lon="-8.799544">
        <ele>42.2</ele>
        <time>1970-01-01T02:30:11.000Z</time>
      </trkpt>
      <trkpt lat="39.740485" lon="-8.799566">
        <ele>42.1</ele>
        <time>1970-01-01T02:30:12.000Z</time>
      </trkpt>
      <trkpt lat="39.740531" lon="-8.79959">
        <ele>42.1</ele>
        <time>1970-01-01T02:30:13.000Z</time>
      </trkpt>
      <trkpt lat="39.740558" lon="-8.799628">
        <ele>42.1</ele>
        <time>1970-01-01T02:30:14.000Z</time>
      </trkpt>
      <trkpt lat="39.740575" lon="-8.799678">
        <ele>42.1</ele>
        <time>1970-01-01T02:30:15.000Z</time>
      </trkpt>
      <trkpt lat="39.740586" lon="-8.799721">
        <ele>42.1</ele>
        <time>1970-01-01T02:30:16.000Z</time>
      </trkpt>
      <trkpt lat="39.740593" lon="-8.799757">
        <ele>42</ele>
        <time>1970-01-01T02:30:17.000Z</time>
      </trkpt>
      <trkpt lat="39.740596" lon="-8.799811">
        <ele>42</ele>
        <time>1970-01-01T02:30:18.000Z</time>
      </trkpt>
      <trkpt lat="39.7406" lon="-8.799832">
        <ele>42</ele>
        <time>1970-01-01T02:30:19.000Z</time>
      </trkpt>
      <trkpt lat="39.740627" lon="-8.799875">
        <ele>42</ele>
        <time>1970-01-01T02:30:20.000Z</time>
      </trkpt>
      <trkpt lat="39.740655" lon="-8.799918">
        <ele>42</ele>
        <time>1970-01-01T02:30:21.000Z</time>
      </trkpt>
      <trkpt lat="39.74068" lon="-8.799954">
        <ele>41.9</ele>
        <time>1970-01-01T02:30:22.000Z</time>
      </trkpt>
      <trkpt lat="39.740694" lon="-8.799991">
        <ele>41.9</ele>
        <time>1970-01-01T02:30:23.000Z</time>
      </trkpt>
      <trkpt lat="39.740702" lon="-8.800039">
        <ele>41.8</ele>
        <time>1970-01-01T02:30:24.000Z</time>
      </trkpt>
      <trkpt lat="39.740704" lon="-8.800057">
        <ele>41.7</ele>
        <time>1970-01-01T02:30:25.000Z</time>
      </trkpt>
      <trkpt lat="39.740717" lon="-8.800102">
        <ele>41.6</ele>
        <time>1970-01-01T02:30:26.000Z</time>
      </trkpt>
      <trkpt lat="39.740726" lon="-8.800122">
        <ele>41.6</ele>
        <time>1970-01-01T02:30:27.000Z</time>
      </trkpt>
      <trkpt lat="39.740744" lon="-8.800166">
        <ele>41.5</ele>
        <time>1970-01-01T02:30:28.000Z</time>
      </trkpt>
      <trkpt lat="39.740756" lon="-8.800245">
        <ele>41.3</ele>
        <time>1970-01-01T02:30:29.000Z</time>
      </trkpt>
      <trkpt lat="39.740772" lon="-8.800321">
        <ele>41.2</ele>
        <time>1970-01-01T02:30:30.000Z</time>
      </trkpt>
      <trkpt lat="39.740803" lon="-8.80039">
        <ele>41.1</ele>
        <time>1970-01-01T02:30:31.000Z</time>
      </trkpt>
      <trkpt lat="39.740843" lon="-8.800464">
        <ele>41</ele>
        <time>1970-01-01T02:30:32.000Z</time>
      </trkpt>
      <trkpt lat="39.740884" lon="-8.800527">
        <ele>41</ele>
        <time>1970-01-01T02:30:33.000Z</time>
      </trkpt>
      <trkpt lat="39.74092" lon="-8.800586">
        <ele>40.9</ele>
        <time>1970-01-01T02:30:34.000Z</time>
      </trkpt>
      <trkpt lat="39.740957" lon="-8.800638">
        <ele>40.9</ele>
        <time>1970-01-01T02:30:35.000Z</time>
      </trkpt>
      <trkpt lat="39.740998" lon="-8.800681">
        <ele>40.9</ele>
        <time>1970-01-01T02:30:36.000Z</time>
      </trkpt>
      <trkpt lat="39.74104" lon="-8.8007">
        <ele>40.8</ele>
        <time>1970-01-01T02:30:37.000Z</time>
      </trkpt>
      <trkpt lat="39.74108" lon="-8.800721">
        <ele>40.8</ele>
        <time>1970-01-01T02:30:38.000Z</time>
      </trkpt>
      <trkpt lat="39.741119" lon="-8.800744">
        <ele>40.7</ele>
        <time>1970-01-01T02:30:39.000Z</time>
      </trkpt>
      <trkpt lat="39.741162" lon="-8.800767">
        <ele>40.6</ele>
        <time>1970-01-01T02:30:40.000Z</time>
      </trkpt>
      <trkpt lat="39.741207" lon="-8.8008">
        <ele>40.5</ele>
        <time>1970-01-01T02:30:41.000Z</time>
      </trkpt>
      <trkpt lat="39.741249" lon="-8.800839">
        <ele>40.4</ele>
        <time>1970-01-01T02:30:42.000Z</time>
      </trkpt>
      <trkpt lat="39.741287" lon="-8.800867">
        <ele>40.3</ele>
        <time>1970-01-01T02:30:43.000Z</time>
      </trkpt>
      <trkpt lat="39.74132" lon="-8.800897">
        <ele>40.1</ele>
        <time>1970-01-01T02:30:44.000Z</time>
      </trkpt>
      <trkpt lat="39.741357" lon="-8.800931">
        <ele>40.1</ele>
        <time>1970-01-01T02:30:45.000Z</time>
      </trkpt>
      <trkpt lat="39.741397" lon="-8.800976">
        <ele>39.9</ele>
        <time>1970-01-01T02:30:46.000Z</time>
      </trkpt>
      <trkpt lat="39.741428" lon="-8.801027">
        <ele>39.8</ele>
        <time>1970-01-01T02:30:47.000Z</time>
      </trkpt>
      <trkpt lat="39.741447" lon="-8.801057">
        <ele>39.7</ele>
        <time>1970-01-01T02:30:48.000Z</time>
      </trkpt>
      <trkpt lat="39.741474" lon="-8.801114">
        <ele>39.5</ele>
        <time>1970-01-01T02:30:49.000Z</time>
      </trkpt>
      <trkpt lat="39.741508" lon="-8.801149">
        <ele>39.4</ele>
        <time>1970-01-01T02:30:50.000Z</time>
      </trkpt>
      <trkpt lat="39.741544" lon="-8.801186">
        <ele>39.2</ele>
        <time>1970-01-01T02:30:51.000Z</time>
      </trkpt>
      <trkpt lat="39.741587" lon="-8.801213">
        <ele>39</ele>
        <time>1970-01-01T02:30:52.000Z</time>
      </trkpt>
      <trkpt lat="39.741637" lon="-8.801255">
        <ele>38.9</ele>
        <time>1970-01-01T02:30:53.000Z</time>
      </trkpt>
      <trkpt lat="39.741682" lon="-8.801326">
        <ele>38.7</ele>
        <time>1970-01-01T02:30:54.000Z</time>
      </trkpt>
      <trkpt lat="39.74172" lon="-8.801375">
        <ele>38.6</ele>
        <time>1970-01-01T02:30:55.000Z</time>
      </trkpt>
      <trkpt lat="39.741768" lon="-8.801411">
        <ele>38.5</ele>
        <time>1970-01-01T02:30:56.000Z</time>
      </trkpt>
      <trkpt lat="39.741818" lon="-8.801442">
        <ele>38.4</ele>
        <time>1970-01-01T02:30:57.000Z</time>
      </trkpt>
      <trkpt lat="39.741889" lon="-8.80153">
        <ele>38.3</ele>
        <time>1970-01-01T02:30:58.000Z</time>
      </trkpt>
      <trkpt lat="39.741955" lon="-8.801607">
        <ele>38.2</ele>
        <time>1970-01-01T02:30:59.000Z</time>
      </trkpt>
      <trkpt lat="39.74201" lon="-8.801666">
        <ele>38.2</ele>
        <time>1970-01-01T02:31:00.000Z</time>
      </trkpt>
      <trkpt lat="39.742061" lon="-8.801725">
        <ele>38.2</ele>
        <time>1970-01-01T02:31:01.000Z</time>
      </trkpt>
      <trkpt lat="39.742112" lon="-8.80178">
        <ele>38.2</ele>
        <time>1970-01-01T02:31:02.000Z</time>
      </trkpt>
      <trkpt lat="39.74216" lon="-8.80183">
        <ele>38.2</ele>
        <time>1970-01-01T02:31:03.000Z</time>
      </trkpt>
      <trkpt lat="39.742207" lon="-8.801884">
        <ele>38.2</ele>
        <time>1970-01-01T02:31:04.000Z</time>
      </trkpt>
      <trkpt lat="39.742267" lon="-8.801932">
        <ele>38.3</ele>
        <time>1970-01-01T02:31:05.000Z</time>
      </trkpt>
      <trkpt lat="39.742313" lon="-8.801997">
        <ele>38.3</ele>
        <time>1970-01-01T02:31:06.000Z</time>
      </trkpt>
      <trkpt lat="39.742354" lon="-8.802062">
        <ele>38.4</ele>
        <time>1970-01-01T02:31:07.000Z</time>
      </trkpt>
      <trkpt lat="39.742398" lon="-8.802131">
        <ele>38.4</ele>
        <time>1970-01-01T02:31:08.000Z</time>
      </trkpt>
      <trkpt lat="39.742433" lon="-8.802183">
        <ele>38.4</ele>
        <time>1970-01-01T02:31:09.000Z</time>
      </trkpt>
      <trkpt lat="39.742467" lon="-8.802234">
        <ele>38.4</ele>
        <time>1970-01-01T02:31:10.000Z</time>
      </trkpt>
      <trkpt lat="39.742503" lon="-8.802281">
        <ele>38.3</ele>
        <time>1970-01-01T02:31:11.000Z</time>
      </trkpt>
      <trkpt lat="39.74253" lon="-8.802337">
        <ele>38.3</ele>
        <time>1970-01-01T02:31:12.000Z</time>
      </trkpt>
      <trkpt lat="39.742567" lon="-8.802379">
        <ele>38.3</ele>
        <time>1970-01-01T02:31:13.000Z</time>
      </trkpt>
      <trkpt lat="39.742598" lon="-8.802424">
        <ele>38.3</ele>
        <time>1970-01-01T02:31:14.000Z</time>
      </trkpt>
      <trkpt lat="39.742623" lon="-8.802469">
        <ele>38.2</ele>
        <time>1970-01-01T02:31:16.000Z</time>
      </trkpt>
      <trkpt lat="39.742676" lon="-8.802579">
        <ele>38.2</ele>
        <time>1970-01-01T02:31:17.000Z</time>
      </trkpt>
      <trkpt lat="39.742701" lon="-8.802634">
        <ele>38.2</ele>
        <time>1970-01-01T02:31:18.000Z</time>
      </trkpt>
      <trkpt lat="39.742729" lon="-8.802685">
        <ele>38.1</ele>
        <time>1970-01-01T02:31:19.000Z</time>
      </trkpt>
      <trkpt lat="39.742755" lon="-8.80274">
        <ele>38.1</ele>
        <time>1970-01-01T02:31:20.000Z</time>
      </trkpt>
      <trkpt lat="39.742783" lon="-8.802788">
        <ele>38.1</ele>
        <time>1970-01-01T02:31:21.000Z</time>
      </trkpt>
      <trkpt lat="39.742807" lon="-8.802842">
        <ele>38</ele>
        <time>1970-01-01T02:31:22.000Z</time>
      </trkpt>
      <trkpt lat="39.742825" lon="-8.802898">
        <ele>38</ele>
        <time>1970-01-01T02:31:23.000Z</time>
      </trkpt>
      <trkpt lat="39.742835" lon="-8.80295">
        <ele>38</ele>
        <time>1970-01-01T02:31:24.000Z</time>
      </trkpt>
      <trkpt lat="39.742839" lon="-8.803001">
        <ele>37.9</ele>
        <time>1970-01-01T02:31:25.000Z</time>
      </trkpt>
      <trkpt lat="39.742848" lon="-8.803053">
        <ele>37.8</ele>
        <time>1970-01-01T02:31:26.000Z</time>
      </trkpt>
      <trkpt lat="39.74287" lon="-8.8031">
        <ele>37.8</ele>
        <time>1970-01-01T02:31:27.000Z</time>
      </trkpt>
      <trkpt lat="39.742899" lon="-8.803137">
        <ele>37.7</ele>
        <time>1970-01-01T02:31:28.000Z</time>
      </trkpt>
      <trkpt lat="39.742931" lon="-8.803177">
        <ele>37.7</ele>
        <time>1970-01-01T02:31:29.000Z</time>
      </trkpt>
      <trkpt lat="39.742963" lon="-8.803203">
        <ele>37.6</ele>
        <time>1970-01-01T02:31:30.000Z</time>
      </trkpt>
      <trkpt lat="39.742988" lon="-8.803229">
        <ele>37.6</ele>
        <time>1970-01-01T02:31:31.000Z</time>
      </trkpt>
      <trkpt lat="39.743016" lon="-8.803254">
        <ele>37.5</ele>
        <time>1970-01-01T02:31:32.000Z</time>
      </trkpt>
      <trkpt lat="39.743043" lon="-8.803272">
        <ele>37.4</ele>
        <time>1970-01-01T02:31:33.000Z</time>
      </trkpt>
      <trkpt lat="39.743051" lon="-8.803297">
        <ele>37.4</ele>
        <time>1970-01-01T02:31:34.000Z</time>
      </trkpt>
      <trkpt lat="39.743058" lon="-8.803316">
        <ele>37.3</ele>
        <time>1970-01-01T02:31:35.000Z</time>
      </trkpt>
      <trkpt lat="39.743092" lon="-8.803345">
        <ele>37.3</ele>
        <time>1970-01-01T02:31:36.000Z</time>
      </trkpt>
      <trkpt lat="39.743121" lon="-8.803375">
        <ele>37.2</ele>
        <time>1970-01-01T02:31:37.000Z</time>
      </trkpt>
      <trkpt lat="39.743152" lon="-8.803416">
        <ele>37</ele>
        <time>1970-01-01T02:31:38.000Z</time>
      </trkpt>
      <trkpt lat="39.74318" lon="-8.803467">
        <ele>36.9</ele>
        <time>1970-01-01T02:31:39.000Z</time>
      </trkpt>
      <trkpt lat="39.743203" lon="-8.803525">
        <ele>36.8</ele>
        <time>1970-01-01T02:31:40.000Z</time>
      </trkpt>
      <trkpt lat="39.743226" lon="-8.803599">
        <ele>36.7</ele>
        <time>1970-01-01T02:31:41.000Z</time>
      </trkpt>
      <trkpt lat="39.743254" lon="-8.803674">
        <ele>36.7</ele>
        <time>1970-01-01T02:31:42.000Z</time>
      </trkpt>
      <trkpt lat="39.743278" lon="-8.803744">
        <ele>36.6</ele>
        <time>1970-01-01T02:31:43.000Z</time>
      </trkpt>
      <trkpt lat="39.743292" lon="-8.803818">
        <ele>36.6</ele>
        <time>1970-01-01T02:31:44.000Z</time>
      </trkpt>
      <trkpt lat="39.743312" lon="-8.803889">
        <ele>36.6</ele>
        <time>1970-01-01T02:31:45.000Z</time>
      </trkpt>
      <trkpt lat="39.743329" lon="-8.803959">
        <ele>36.5</ele>
        <time>1970-01-01T02:31:46.000Z</time>
      </trkpt>
      <trkpt lat="39.743344" lon="-8.804025">
        <ele>36.5</ele>
        <time>1970-01-01T02:31:47.000Z</time>
      </trkpt>
      <trkpt lat="39.743354" lon="-8.804088">
        <ele>36.5</ele>
        <time>1970-01-01T02:31:48.000Z</time>
      </trkpt>
      <trkpt lat="39.743357" lon="-8.80415">
        <ele>36.5</ele>
        <time>1970-01-01T02:31:49.000Z</time>
      </trkpt>
      <trkpt lat="39.743364" lon="-8.804212">
        <ele>36.5</ele>
        <time>1970-01-01T02:31:50.000Z</time>
      </trkpt>
      <trkpt lat="39.743359" lon="-8.804261">
        <ele>36.5</ele>
        <time>1970-01-01T02:31:51.000Z</time>
      </trkpt>
      <trkpt lat="39.743359" lon="-8.804309">
        <ele>36.6</ele>
        <time>1970-01-01T02:31:52.000Z</time>
      </trkpt>
      <trkpt lat="39.743359" lon="-8.804351">
        <ele>36.6</ele>
        <time>1970-01-01T02:31:53.000Z</time>
      </trkpt>
      <trkpt lat="39.743352" lon="-8.804395">
        <ele>36.6</ele>
        <time>1970-01-01T02:31:54.000Z</time>
      </trkpt>
      <trkpt lat="39.743336" lon="-8.804428">
        <ele>36.6</ele>
        <time>1970-01-01T02:31:55.000Z</time>
      </trkpt>
      <trkpt lat="39.743295" lon="-8.80443">
        <ele>36.6</ele>
        <time>1970-01-01T02:31:56.000Z</time>
      </trkpt>
      <trkpt lat="39.743276" lon="-8.804429">
        <ele>36.6</ele>
        <time>1970-01-01T02:31:57.000Z</time>
      </trkpt>
      <trkpt lat="39.743247" lon="-8.804434">
        <ele>36.6</ele>
        <time>1970-01-01T02:31:58.000Z</time>
      </trkpt>
      <trkpt lat="39.743219" lon="-8.804454">
        <ele>36.6</ele>
        <time>1970-01-01T02:31:59.000Z</time>
      </trkpt>
      <trkpt lat="39.743209" lon="-8.804492">
        <ele>36.6</ele>
        <time>1970-01-01T02:32:00.000Z</time>
      </trkpt>
      <trkpt lat="39.74321" lon="-8.804539">
        <ele>36.6</ele>
        <time>1970-01-01T02:32:01.000Z</time>
      </trkpt>
      <trkpt lat="39.743198" lon="-8.804587">
        <ele>36.5</ele>
        <time>1970-01-01T02:32:02.000Z</time>
      </trkpt>
      <trkpt lat="39.74319" lon="-8.804635">
        <ele>36.5</ele>
        <time>1970-01-01T02:32:03.000Z</time>
      </trkpt>
      <trkpt lat="39.743169" lon="-8.804678">
        <ele>36.5</ele>
        <time>1970-01-01T02:32:04.000Z</time>
      </trkpt>
      <trkpt lat="39.743159" lon="-8.804728">
        <ele>36.4</ele>
        <time>1970-01-01T02:32:05.000Z</time>
      </trkpt>
      <trkpt lat="39.74315" lon="-8.804744">
        <ele>36.4</ele>
        <time>1970-01-01T02:32:06.000Z</time>
      </trkpt>
      <trkpt lat="39.743143" lon="-8.804786">
        <ele>36.4</ele>
        <time>1970-01-01T02:32:07.000Z</time>
      </trkpt>
      <trkpt lat="39.743132" lon="-8.804836">
        <ele>36.3</ele>
        <time>1970-01-01T02:32:08.000Z</time>
      </trkpt>
      <trkpt lat="39.743125" lon="-8.804855">
        <ele>36.3</ele>
        <time>1970-01-01T02:32:09.000Z</time>
      </trkpt>
      <trkpt lat="39.743112" lon="-8.804907">
        <ele>36.2</ele>
        <time>1970-01-01T02:32:10.000Z</time>
      </trkpt>
      <trkpt lat="39.743107" lon="-8.804925">
        <ele>36.1</ele>
        <time>1970-01-01T02:32:11.000Z</time>
      </trkpt>
      <trkpt lat="39.743099" lon="-8.804965">
        <ele>36</ele>
        <time>1970-01-01T02:32:12.000Z</time>
      </trkpt>
      <trkpt lat="39.743093" lon="-8.805003">
        <ele>35.9</ele>
        <time>1970-01-01T02:32:13.000Z</time>
      </trkpt>
      <trkpt lat="39.743083" lon="-8.805042">
        <ele>35.7</ele>
        <time>1970-01-01T02:32:14.000Z</time>
      </trkpt>
      <trkpt lat="39.743071" lon="-8.805085">
        <ele>35.5</ele>
        <time>1970-01-01T02:32:15.000Z</time>
      </trkpt>
      <trkpt lat="39.74306" lon="-8.805124">
        <ele>35.3</ele>
        <time>1970-01-01T02:32:16.000Z</time>
      </trkpt>
      <trkpt lat="39.74305" lon="-8.805161">
        <ele>35.1</ele>
        <time>1970-01-01T02:32:17.000Z</time>
      </trkpt>
      <trkpt lat="39.743058" lon="-8.805196">
        <ele>34.8</ele>
        <time>1970-01-01T02:32:18.000Z</time>
      </trkpt>
      <trkpt lat="39.743069" lon="-8.805231">
        <ele>34.7</ele>
        <time>1970-01-01T02:32:19.000Z</time>
      </trkpt>
      <trkpt lat="39.743082" lon="-8.805278">
        <ele>34.6</ele>
        <time>1970-01-01T02:32:20.000Z</time>
      </trkpt>
      <trkpt lat="39.743093" lon="-8.805333">
        <ele>34.5</ele>
        <time>1970-01-01T02:32:21.000Z</time>
      </trkpt>
      <trkpt lat="39.743109" lon="-8.805383">
        <ele>34.3</ele>
        <time>1970-01-01T02:32:22.000Z</time>
      </trkpt>
      <trkpt lat="39.743126" lon="-8.805437">
        <ele>34.2</ele>
        <time>1970-01-01T02:32:23.000Z</time>
      </trkpt>
      <trkpt lat="39.743141" lon="-8.805493">
        <ele>34</ele>
        <time>1970-01-01T02:32:24.000Z</time>
      </trkpt>
      <trkpt lat="39.74316" lon="-8.805537">
        <ele>33.9</ele>
        <time>1970-01-01T02:32:25.000Z</time>
      </trkpt>
      <trkpt lat="39.743178" lon="-8.805597">
        <ele>33.8</ele>
        <time>1970-01-01T02:32:26.000Z</time>
      </trkpt>
      <trkpt lat="39.743187" lon="-8.805648">
        <ele>33.7</ele>
        <time>1970-01-01T02:32:27.000Z</time>
      </trkpt>
      <trkpt lat="39.743191" lon="-8.805667">
        <ele>33.6</ele>
        <time>1970-01-01T02:32:28.000Z</time>
      </trkpt>
      <trkpt lat="39.743197" lon="-8.805704">
        <ele>33.6</ele>
        <time>1970-01-01T02:32:29.000Z</time>
      </trkpt>
      <trkpt lat="39.743204" lon="-8.805751">
        <ele>33.5</ele>
        <time>1970-01-01T02:32:30.000Z</time>
      </trkpt>
      <trkpt lat="39.743206" lon="-8.805769">
        <ele>33.5</ele>
        <time>1970-01-01T02:32:31.000Z</time>
      </trkpt>
      <trkpt lat="39.743209" lon="-8.805816">
        <ele>33.5</ele>
        <time>1970-01-01T02:32:32.000Z</time>
      </trkpt>
      <trkpt lat="39.743207" lon="-8.805831">
        <ele>33.5</ele>
        <time>1970-01-01T02:32:33.000Z</time>
      </trkpt>
      <trkpt lat="39.743205" lon="-8.805877">
        <ele>33.5</ele>
        <time>1970-01-01T02:32:34.000Z</time>
      </trkpt>
      <trkpt lat="39.743206" lon="-8.805893">
        <ele>33.5</ele>
        <time>1970-01-01T02:32:35.000Z</time>
      </trkpt>
      <trkpt lat="39.743216" lon="-8.805947">
        <ele>33.4</ele>
        <time>1970-01-01T02:32:36.000Z</time>
      </trkpt>
      <trkpt lat="39.743219" lon="-8.80597">
        <ele>33.4</ele>
        <time>1970-01-01T02:32:37.000Z</time>
      </trkpt>
      <trkpt lat="39.743232" lon="-8.806003">
        <ele>33.4</ele>
        <time>1970-01-01T02:32:38.000Z</time>
      </trkpt>
      <trkpt lat="39.743249" lon="-8.806048">
        <ele>33.3</ele>
        <time>1970-01-01T02:32:39.000Z</time>
      </trkpt>
      <trkpt lat="39.743252" lon="-8.806065">
        <ele>33.3</ele>
        <time>1970-01-01T02:32:40.000Z</time>
      </trkpt>
      <trkpt lat="39.743264" lon="-8.806109">
        <ele>33.3</ele>
        <time>1970-01-01T02:32:41.000Z</time>
      </trkpt>
      <trkpt lat="39.743269" lon="-8.806122">
        <ele>33.3</ele>
        <time>1970-01-01T02:32:42.000Z</time>
      </trkpt>
      <trkpt lat="39.74327" lon="-8.80614">
        <ele>33.3</ele>
        <time>1970-01-01T02:32:43.000Z</time>
      </trkpt>
      <trkpt lat="39.743265" lon="-8.806156">
        <ele>33.3</ele>
        <time>1970-01-01T02:32:44.000Z</time>
      </trkpt>
      <trkpt lat="39.743267" lon="-8.806167">
        <ele>33.3</ele>
        <time>1970-01-01T02:32:45.000Z</time>
      </trkpt>
      <trkpt lat="39.743272" lon="-8.806192">
        <ele>33.3</ele>
        <time>1970-01-01T02:32:46.000Z</time>
      </trkpt>
      <trkpt lat="39.743274" lon="-8.806202">
        <ele>33.2</ele>
        <time>1970-01-01T02:32:47.000Z</time>
      </trkpt>
      <trkpt lat="39.743276" lon="-8.806213">
        <ele>33.2</ele>
        <time>1970-01-01T02:32:48.000Z</time>
      </trkpt>
      <trkpt lat="39.743271" lon="-8.806218">
        <ele>33.2</ele>
        <time>1970-01-01T02:32:49.000Z</time>
      </trkpt>
      <trkpt lat="39.743272" lon="-8.806228">
        <ele>33.2</ele>
        <time>1970-01-01T02:32:50.000Z</time>
      </trkpt>
      <trkpt lat="39.743264" lon="-8.80625">
        <ele>33.2</ele>
        <time>1970-01-01T02:32:51.000Z</time>
      </trkpt>
      <trkpt lat="39.743247" lon="-8.806266">
        <ele>33.2</ele>
        <time>1970-01-01T02:32:52.000Z</time>
      </trkpt>
      <trkpt lat="39.743232" lon="-8.806273">
        <ele>33.2</ele>
        <time>1970-01-01T02:32:53.000Z</time>
      </trkpt>
      <trkpt lat="39.743212" lon="-8.806287">
        <ele>33.2</ele>
        <time>1970-01-01T02:32:54.000Z</time>
      </trkpt>
      <trkpt lat="39.743207" lon="-8.806293">
        <ele>33.2</ele>
        <time>1970-01-01T02:32:55.000Z</time>
      </trkpt>
      <trkpt lat="39.74322" lon="-8.806299">
        <ele>33.1</ele>
        <time>1970-01-01T02:32:56.000Z</time>
      </trkpt>
      <trkpt lat="39.743221" lon="-8.806309">
        <ele>33.1</ele>
        <time>1970-01-01T02:32:57.000Z</time>
      </trkpt>
      <trkpt lat="39.743223" lon="-8.806332">
        <ele>33.1</ele>
        <time>1970-01-01T02:32:58.000Z</time>
      </trkpt>
      <trkpt lat="39.743219" lon="-8.806362">
        <ele>33.1</ele>
        <time>1970-01-01T02:32:59.000Z</time>
      </trkpt>
      <trkpt lat="39.743216" lon="-8.806375">
        <ele>33.1</ele>
        <time>1970-01-01T02:33:00.000Z</time>
      </trkpt>
      <trkpt lat="39.743212" lon="-8.806387">
        <ele>33.1</ele>
        <time>1970-01-01T02:33:01.000Z</time>
      </trkpt>
    </trkseg>
  </trk>
</gpx>
